<?xml version="1.0" encoding="UTF-8" standalone="no" ?>
<gpx xmlns="http://www.topografix.com/GPX/1/1" xmlns:xsi="http://www.w3.org/2001/XMLSchema-instance" xsi:schemaLocation="http://www.topografix.com/GPX/1/1 http://www.topografix.com/GPX/1/1/gpx.xsd" version="1.1" creator="VisuGPX - https://www.visugpx.com">
  <metadata>
    <name>Mercredi 15 juillet 2026 Bianditz - Ibardin</name>
  </metadata>
  <trk>
    <name><![CDATA[Mercredi 15 juillet 26 Bianditz - Ibardin]]></name>
    <extensions>
      <line xmlns="http://www.topografix.com/GPX/gpx_style/0/2">
        <width>4</width>
      </line>
    </extensions>
    <trkseg>
      <trkpt lat="43.38644" lon="-1.66275">
        <ele>3</ele>
        <time>2026-07-12T16:50:26.000Z</time>
      </trkpt>
      <trkpt lat="43.38641" lon="-1.66264">
        <ele>3</ele>
        <time>2026-07-12T16:50:28.000Z</time>
      </trkpt>
      <trkpt lat="43.38636" lon="-1.66239">
        <ele>4</ele>
        <time>2026-07-12T16:50:31.000Z</time>
      </trkpt>
      <trkpt lat="43.38636" lon="-1.66239">
        <ele>4</ele>
        <time>2026-07-12T16:50:31.000Z</time>
      </trkpt>
      <trkpt lat="43.38624" lon="-1.66231">
        <ele>4</ele>
        <time>2026-07-12T16:50:33.000Z</time>
      </trkpt>
      <trkpt lat="43.38621" lon="-1.66229">
        <ele>4</ele>
        <time>2026-07-12T16:50:34.000Z</time>
      </trkpt>
      <trkpt lat="43.38618" lon="-1.66227">
        <ele>4</ele>
        <time>2026-07-12T16:50:34.000Z</time>
      </trkpt>
      <trkpt lat="43.38615" lon="-1.66226">
        <ele>4</ele>
        <time>2026-07-12T16:50:35.000Z</time>
      </trkpt>
      <trkpt lat="43.38612" lon="-1.66225">
        <ele>4</ele>
        <time>2026-07-12T16:50:36.000Z</time>
      </trkpt>
      <trkpt lat="43.38608" lon="-1.66224">
        <ele>4</ele>
        <time>2026-07-12T16:50:36.000Z</time>
      </trkpt>
      <trkpt lat="43.38604" lon="-1.66224">
        <ele>4</ele>
        <time>2026-07-12T16:50:37.000Z</time>
      </trkpt>
      <trkpt lat="43.386" lon="-1.66224">
        <ele>4</ele>
        <time>2026-07-12T16:50:38.000Z</time>
      </trkpt>
      <trkpt lat="43.38597" lon="-1.66224">
        <ele>4</ele>
        <time>2026-07-12T16:50:38.000Z</time>
      </trkpt>
      <trkpt lat="43.38594" lon="-1.66224">
        <ele>4</ele>
        <time>2026-07-12T16:50:39.000Z</time>
      </trkpt>
      <trkpt lat="43.38589" lon="-1.66225">
        <ele>3</ele>
        <time>2026-07-12T16:50:40.000Z</time>
      </trkpt>
      <trkpt lat="43.38578" lon="-1.66226">
        <ele>3</ele>
        <time>2026-07-12T16:50:42.000Z</time>
      </trkpt>
      <trkpt lat="43.38574" lon="-1.66231">
        <ele>3</ele>
        <time>2026-07-12T16:50:43.000Z</time>
      </trkpt>
      <trkpt lat="43.38572" lon="-1.66234">
        <ele>3</ele>
        <time>2026-07-12T16:50:43.000Z</time>
      </trkpt>
      <trkpt lat="43.3857" lon="-1.66237">
        <ele>3</ele>
        <time>2026-07-12T16:50:44.000Z</time>
      </trkpt>
      <trkpt lat="43.38568" lon="-1.6624">
        <ele>3</ele>
        <time>2026-07-12T16:50:44.000Z</time>
      </trkpt>
      <trkpt lat="43.38564" lon="-1.66246">
        <ele>3</ele>
        <time>2026-07-12T16:50:45.000Z</time>
      </trkpt>
      <trkpt lat="43.3856" lon="-1.66253">
        <ele>3</ele>
        <time>2026-07-12T16:50:46.000Z</time>
      </trkpt>
      <trkpt lat="43.38556" lon="-1.66259">
        <ele>3</ele>
        <time>2026-07-12T16:50:47.000Z</time>
      </trkpt>
      <trkpt lat="43.38554" lon="-1.66263">
        <ele>3</ele>
        <time>2026-07-12T16:50:48.000Z</time>
      </trkpt>
      <trkpt lat="43.38553" lon="-1.66264">
        <ele>3</ele>
        <time>2026-07-12T16:50:48.000Z</time>
      </trkpt>
      <trkpt lat="43.38551" lon="-1.66269">
        <ele>3</ele>
        <time>2026-07-12T16:50:49.000Z</time>
      </trkpt>
      <trkpt lat="43.38549" lon="-1.66275">
        <ele>3</ele>
        <time>2026-07-12T16:50:50.000Z</time>
      </trkpt>
      <trkpt lat="43.38524" lon="-1.66336">
        <ele>2</ele>
        <time>2026-07-12T16:50:59.000Z</time>
      </trkpt>
      <trkpt lat="43.38522" lon="-1.6634">
        <ele>2</ele>
        <time>2026-07-12T16:51:00.000Z</time>
      </trkpt>
      <trkpt lat="43.38515" lon="-1.66356">
        <ele>3</ele>
        <time>2026-07-12T16:51:02.000Z</time>
      </trkpt>
      <trkpt lat="43.3851" lon="-1.6637">
        <ele>3</ele>
        <time>2026-07-12T16:51:04.000Z</time>
      </trkpt>
      <trkpt lat="43.38507" lon="-1.66376">
        <ele>4</ele>
        <time>2026-07-12T16:51:05.000Z</time>
      </trkpt>
      <trkpt lat="43.38504" lon="-1.66385">
        <ele>4</ele>
        <time>2026-07-12T16:51:06.000Z</time>
      </trkpt>
      <trkpt lat="43.38504" lon="-1.66385">
        <ele>4</ele>
        <time>2026-07-12T16:51:06.000Z</time>
      </trkpt>
      <trkpt lat="43.38499" lon="-1.66408">
        <ele>5</ele>
        <time>2026-07-12T16:51:09.000Z</time>
      </trkpt>
      <trkpt lat="43.38498" lon="-1.66412">
        <ele>5</ele>
        <time>2026-07-12T16:51:10.000Z</time>
      </trkpt>
      <trkpt lat="43.38497" lon="-1.66415">
        <ele>5</ele>
        <time>2026-07-12T16:51:10.000Z</time>
      </trkpt>
      <trkpt lat="43.38489" lon="-1.66433">
        <ele>5</ele>
        <time>2026-07-12T16:51:13.000Z</time>
      </trkpt>
      <trkpt lat="43.38486" lon="-1.6644">
        <ele>5</ele>
        <time>2026-07-12T16:51:14.000Z</time>
      </trkpt>
      <trkpt lat="43.38474" lon="-1.66468">
        <ele>6</ele>
        <time>2026-07-12T16:51:18.000Z</time>
      </trkpt>
      <trkpt lat="43.38456" lon="-1.6651">
        <ele>5</ele>
        <time>2026-07-12T16:51:25.000Z</time>
      </trkpt>
      <trkpt lat="43.38447" lon="-1.6653">
        <ele>5</ele>
        <time>2026-07-12T16:51:28.000Z</time>
      </trkpt>
      <trkpt lat="43.38439" lon="-1.66547">
        <ele>5</ele>
        <time>2026-07-12T16:51:30.000Z</time>
      </trkpt>
      <trkpt lat="43.38438" lon="-1.6655">
        <ele>5</ele>
        <time>2026-07-12T16:51:31.000Z</time>
      </trkpt>
      <trkpt lat="43.38438" lon="-1.66553">
        <ele>4</ele>
        <time>2026-07-12T16:51:31.000Z</time>
      </trkpt>
      <trkpt lat="43.38437" lon="-1.66556">
        <ele>4</ele>
        <time>2026-07-12T16:51:31.000Z</time>
      </trkpt>
      <trkpt lat="43.38437" lon="-1.66559">
        <ele>4</ele>
        <time>2026-07-12T16:51:32.000Z</time>
      </trkpt>
      <trkpt lat="43.38437" lon="-1.66562">
        <ele>4</ele>
        <time>2026-07-12T16:51:32.000Z</time>
      </trkpt>
      <trkpt lat="43.38437" lon="-1.66565">
        <ele>4</ele>
        <time>2026-07-12T16:51:33.000Z</time>
      </trkpt>
      <trkpt lat="43.38437" lon="-1.66569">
        <ele>4</ele>
        <time>2026-07-12T16:51:33.000Z</time>
      </trkpt>
      <trkpt lat="43.38438" lon="-1.66573">
        <ele>4</ele>
        <time>2026-07-12T16:51:34.000Z</time>
      </trkpt>
      <trkpt lat="43.38438" lon="-1.66577">
        <ele>4</ele>
        <time>2026-07-12T16:51:34.000Z</time>
      </trkpt>
      <trkpt lat="43.38439" lon="-1.66581">
        <ele>4</ele>
        <time>2026-07-12T16:51:35.000Z</time>
      </trkpt>
      <trkpt lat="43.3844" lon="-1.66585">
        <ele>4</ele>
        <time>2026-07-12T16:51:35.000Z</time>
      </trkpt>
      <trkpt lat="43.38442" lon="-1.66589">
        <ele>4</ele>
        <time>2026-07-12T16:51:36.000Z</time>
      </trkpt>
      <trkpt lat="43.38443" lon="-1.66592">
        <ele>4</ele>
        <time>2026-07-12T16:51:36.000Z</time>
      </trkpt>
      <trkpt lat="43.38445" lon="-1.66597">
        <ele>4</ele>
        <time>2026-07-12T16:51:37.000Z</time>
      </trkpt>
      <trkpt lat="43.38448" lon="-1.66603">
        <ele>4</ele>
        <time>2026-07-12T16:51:38.000Z</time>
      </trkpt>
      <trkpt lat="43.38451" lon="-1.66609">
        <ele>4</ele>
        <time>2026-07-12T16:51:39.000Z</time>
      </trkpt>
      <trkpt lat="43.38456" lon="-1.66619">
        <ele>4</ele>
        <time>2026-07-12T16:51:41.000Z</time>
      </trkpt>
      <trkpt lat="43.38456" lon="-1.66619">
        <ele>4</ele>
        <time>2026-07-12T16:51:41.000Z</time>
      </trkpt>
      <trkpt lat="43.38457" lon="-1.66619">
        <ele>4</ele>
        <time>2026-07-12T16:51:41.000Z</time>
      </trkpt>
      <trkpt lat="43.38458" lon="-1.66619">
        <ele>4</ele>
        <time>2026-07-12T16:51:41.000Z</time>
      </trkpt>
      <trkpt lat="43.38459" lon="-1.66619">
        <ele>4</ele>
        <time>2026-07-12T16:51:41.000Z</time>
      </trkpt>
      <trkpt lat="43.3846" lon="-1.66619">
        <ele>4</ele>
        <time>2026-07-12T16:51:41.000Z</time>
      </trkpt>
      <trkpt lat="43.38461" lon="-1.6662">
        <ele>4</ele>
        <time>2026-07-12T16:51:41.000Z</time>
      </trkpt>
      <trkpt lat="43.38462" lon="-1.6662">
        <ele>4</ele>
        <time>2026-07-12T16:51:42.000Z</time>
      </trkpt>
      <trkpt lat="43.38462" lon="-1.66621">
        <ele>4</ele>
        <time>2026-07-12T16:51:42.000Z</time>
      </trkpt>
      <trkpt lat="43.38463" lon="-1.66621">
        <ele>4</ele>
        <time>2026-07-12T16:51:42.000Z</time>
      </trkpt>
      <trkpt lat="43.38463" lon="-1.66622">
        <ele>4</ele>
        <time>2026-07-12T16:51:42.000Z</time>
      </trkpt>
      <trkpt lat="43.38464" lon="-1.66622">
        <ele>4</ele>
        <time>2026-07-12T16:51:42.000Z</time>
      </trkpt>
      <trkpt lat="43.38464" lon="-1.66623">
        <ele>4</ele>
        <time>2026-07-12T16:51:42.000Z</time>
      </trkpt>
      <trkpt lat="43.38465" lon="-1.66624">
        <ele>4</ele>
        <time>2026-07-12T16:51:43.000Z</time>
      </trkpt>
      <trkpt lat="43.38465" lon="-1.66625">
        <ele>4</ele>
        <time>2026-07-12T16:51:43.000Z</time>
      </trkpt>
      <trkpt lat="43.38465" lon="-1.66627">
        <ele>4</ele>
        <time>2026-07-12T16:51:43.000Z</time>
      </trkpt>
      <trkpt lat="43.38466" lon="-1.66629">
        <ele>4</ele>
        <time>2026-07-12T16:51:43.000Z</time>
      </trkpt>
      <trkpt lat="43.38466" lon="-1.66631">
        <ele>4</ele>
        <time>2026-07-12T16:51:44.000Z</time>
      </trkpt>
      <trkpt lat="43.38465" lon="-1.66634">
        <ele>4</ele>
        <time>2026-07-12T16:51:44.000Z</time>
      </trkpt>
      <trkpt lat="43.38465" lon="-1.66637">
        <ele>4</ele>
        <time>2026-07-12T16:51:44.000Z</time>
      </trkpt>
      <trkpt lat="43.38465" lon="-1.66638">
        <ele>4</ele>
        <time>2026-07-12T16:51:45.000Z</time>
      </trkpt>
      <trkpt lat="43.38464" lon="-1.6664">
        <ele>4</ele>
        <time>2026-07-12T16:51:45.000Z</time>
      </trkpt>
      <trkpt lat="43.38464" lon="-1.66641">
        <ele>4</ele>
        <time>2026-07-12T16:51:45.000Z</time>
      </trkpt>
      <trkpt lat="43.38463" lon="-1.66643">
        <ele>4</ele>
        <time>2026-07-12T16:51:45.000Z</time>
      </trkpt>
      <trkpt lat="43.38469" lon="-1.66661">
        <ele>4</ele>
        <time>2026-07-12T16:51:48.000Z</time>
      </trkpt>
      <trkpt lat="43.38472" lon="-1.66669">
        <ele>4</ele>
        <time>2026-07-12T16:51:49.000Z</time>
      </trkpt>
      <trkpt lat="43.38474" lon="-1.66674">
        <ele>4</ele>
        <time>2026-07-12T16:51:50.000Z</time>
      </trkpt>
      <trkpt lat="43.38477" lon="-1.66681">
        <ele>5</ele>
        <time>2026-07-12T16:51:51.000Z</time>
      </trkpt>
      <trkpt lat="43.38482" lon="-1.6669">
        <ele>5</ele>
        <time>2026-07-12T16:51:52.000Z</time>
      </trkpt>
      <trkpt lat="43.38487" lon="-1.66696">
        <ele>5</ele>
        <time>2026-07-12T16:51:53.000Z</time>
      </trkpt>
      <trkpt lat="43.38493" lon="-1.66703">
        <ele>5</ele>
        <time>2026-07-12T16:51:55.000Z</time>
      </trkpt>
      <trkpt lat="43.38509" lon="-1.66716">
        <ele>5</ele>
        <time>2026-07-12T16:51:58.000Z</time>
      </trkpt>
      <trkpt lat="43.38528" lon="-1.66727">
        <ele>5</ele>
        <time>2026-07-12T16:52:02.000Z</time>
      </trkpt>
      <trkpt lat="43.38536" lon="-1.66733">
        <ele>5</ele>
        <time>2026-07-12T16:52:03.000Z</time>
      </trkpt>
      <trkpt lat="43.38543" lon="-1.66739">
        <ele>5</ele>
        <time>2026-07-12T16:52:05.000Z</time>
      </trkpt>
      <trkpt lat="43.38549" lon="-1.66743">
        <ele>5</ele>
        <time>2026-07-12T16:52:06.000Z</time>
      </trkpt>
      <trkpt lat="43.38562" lon="-1.66753">
        <ele>5</ele>
        <time>2026-07-12T16:52:09.000Z</time>
      </trkpt>
      <trkpt lat="43.38574" lon="-1.66764">
        <ele>6</ele>
        <time>2026-07-12T16:52:11.000Z</time>
      </trkpt>
      <trkpt lat="43.38585" lon="-1.66775">
        <ele>6</ele>
        <time>2026-07-12T16:52:14.000Z</time>
      </trkpt>
      <trkpt lat="43.38587" lon="-1.66776">
        <ele>6</ele>
        <time>2026-07-12T16:52:14.000Z</time>
      </trkpt>
      <trkpt lat="43.38588" lon="-1.66777">
        <ele>6</ele>
        <time>2026-07-12T16:52:14.000Z</time>
      </trkpt>
      <trkpt lat="43.38591" lon="-1.66781">
        <ele>6</ele>
        <time>2026-07-12T16:52:15.000Z</time>
      </trkpt>
      <trkpt lat="43.38598" lon="-1.66789">
        <ele>6</ele>
        <time>2026-07-12T16:52:17.000Z</time>
      </trkpt>
      <trkpt lat="43.38615" lon="-1.6681">
        <ele>7</ele>
        <time>2026-07-12T16:52:21.000Z</time>
      </trkpt>
      <trkpt lat="43.38618" lon="-1.66814">
        <ele>7</ele>
        <time>2026-07-12T16:52:21.000Z</time>
      </trkpt>
      <trkpt lat="43.38637" lon="-1.66839">
        <ele>7</ele>
        <time>2026-07-12T16:52:26.000Z</time>
      </trkpt>
      <trkpt lat="43.38657" lon="-1.66864">
        <ele>7</ele>
        <time>2026-07-12T16:52:31.000Z</time>
      </trkpt>
      <trkpt lat="43.38668" lon="-1.66878">
        <ele>7</ele>
        <time>2026-07-12T16:52:34.000Z</time>
      </trkpt>
      <trkpt lat="43.38684" lon="-1.66898">
        <ele>7</ele>
        <time>2026-07-12T16:52:37.000Z</time>
      </trkpt>
      <trkpt lat="43.38696" lon="-1.66912">
        <ele>6</ele>
        <time>2026-07-12T16:52:40.000Z</time>
      </trkpt>
      <trkpt lat="43.38706" lon="-1.66923">
        <ele>6</ele>
        <time>2026-07-12T16:52:43.000Z</time>
      </trkpt>
      <trkpt lat="43.38725" lon="-1.66946">
        <ele>6</ele>
        <time>2026-07-12T16:52:47.000Z</time>
      </trkpt>
      <trkpt lat="43.38736" lon="-1.66963">
        <ele>6</ele>
        <time>2026-07-12T16:52:50.000Z</time>
      </trkpt>
      <trkpt lat="43.38744" lon="-1.6698">
        <ele>6</ele>
        <time>2026-07-12T16:52:53.000Z</time>
      </trkpt>
      <trkpt lat="43.3876" lon="-1.67015">
        <ele>6</ele>
        <time>2026-07-12T16:52:58.000Z</time>
      </trkpt>
      <trkpt lat="43.38762" lon="-1.6702">
        <ele>7</ele>
        <time>2026-07-12T16:52:59.000Z</time>
      </trkpt>
      <trkpt lat="43.38765" lon="-1.6703">
        <ele>7</ele>
        <time>2026-07-12T16:53:00.000Z</time>
      </trkpt>
      <trkpt lat="43.38769" lon="-1.67041">
        <ele>8</ele>
        <time>2026-07-12T16:53:02.000Z</time>
      </trkpt>
      <trkpt lat="43.3877" lon="-1.67044">
        <ele>8</ele>
        <time>2026-07-12T16:53:02.000Z</time>
      </trkpt>
      <trkpt lat="43.38776" lon="-1.67058">
        <ele>8</ele>
        <time>2026-07-12T16:53:04.000Z</time>
      </trkpt>
      <trkpt lat="43.38797" lon="-1.67087">
        <ele>8</ele>
        <time>2026-07-12T16:53:10.000Z</time>
      </trkpt>
      <trkpt lat="43.38798" lon="-1.67089">
        <ele>8</ele>
        <time>2026-07-12T16:53:10.000Z</time>
      </trkpt>
      <trkpt lat="43.3881" lon="-1.67108">
        <ele>8</ele>
        <time>2026-07-12T16:53:13.000Z</time>
      </trkpt>
      <trkpt lat="43.38815" lon="-1.67117">
        <ele>8</ele>
        <time>2026-07-12T16:53:15.000Z</time>
      </trkpt>
      <trkpt lat="43.38825" lon="-1.67144">
        <ele>9</ele>
        <time>2026-07-12T16:53:18.000Z</time>
      </trkpt>
      <trkpt lat="43.38829" lon="-1.67156">
        <ele>9</ele>
        <time>2026-07-12T16:53:20.000Z</time>
      </trkpt>
      <trkpt lat="43.38831" lon="-1.6716">
        <ele>9</ele>
        <time>2026-07-12T16:53:21.000Z</time>
      </trkpt>
      <trkpt lat="43.38831" lon="-1.67161">
        <ele>9</ele>
        <time>2026-07-12T16:53:21.000Z</time>
      </trkpt>
      <trkpt lat="43.38832" lon="-1.67164">
        <ele>9</ele>
        <time>2026-07-12T16:53:21.000Z</time>
      </trkpt>
      <trkpt lat="43.38834" lon="-1.67169">
        <ele>9</ele>
        <time>2026-07-12T16:53:22.000Z</time>
      </trkpt>
      <trkpt lat="43.38838" lon="-1.67181">
        <ele>9</ele>
        <time>2026-07-12T16:53:24.000Z</time>
      </trkpt>
      <trkpt lat="43.38844" lon="-1.67201">
        <ele>10</ele>
        <time>2026-07-12T16:53:27.000Z</time>
      </trkpt>
      <trkpt lat="43.38848" lon="-1.6722">
        <ele>10</ele>
        <time>2026-07-12T16:53:29.000Z</time>
      </trkpt>
      <trkpt lat="43.38849" lon="-1.67226">
        <ele>10</ele>
        <time>2026-07-12T16:53:30.000Z</time>
      </trkpt>
      <trkpt lat="43.3885" lon="-1.67234">
        <ele>10</ele>
        <time>2026-07-12T16:53:31.000Z</time>
      </trkpt>
      <trkpt lat="43.38849" lon="-1.67238">
        <ele>11</ele>
        <time>2026-07-12T16:53:32.000Z</time>
      </trkpt>
      <trkpt lat="43.38849" lon="-1.67247">
        <ele>11</ele>
        <time>2026-07-12T16:53:33.000Z</time>
      </trkpt>
      <trkpt lat="43.38848" lon="-1.67252">
        <ele>11</ele>
        <time>2026-07-12T16:53:33.000Z</time>
      </trkpt>
      <trkpt lat="43.38847" lon="-1.67255">
        <ele>12</ele>
        <time>2026-07-12T16:53:34.000Z</time>
      </trkpt>
      <trkpt lat="43.38847" lon="-1.67263">
        <ele>11</ele>
        <time>2026-07-12T16:53:35.000Z</time>
      </trkpt>
      <trkpt lat="43.38845" lon="-1.67268">
        <ele>12</ele>
        <time>2026-07-12T16:53:36.000Z</time>
      </trkpt>
      <trkpt lat="43.38845" lon="-1.67269">
        <ele>12</ele>
        <time>2026-07-12T16:53:36.000Z</time>
      </trkpt>
      <trkpt lat="43.38843" lon="-1.67273">
        <ele>12</ele>
        <time>2026-07-12T16:53:36.000Z</time>
      </trkpt>
      <trkpt lat="43.38842" lon="-1.67275">
        <ele>12</ele>
        <time>2026-07-12T16:53:37.000Z</time>
      </trkpt>
      <trkpt lat="43.3884" lon="-1.6728">
        <ele>12</ele>
        <time>2026-07-12T16:53:37.000Z</time>
      </trkpt>
      <trkpt lat="43.38825" lon="-1.6731">
        <ele>15</ele>
        <time>2026-07-12T16:53:42.000Z</time>
      </trkpt>
      <trkpt lat="43.38823" lon="-1.67315">
        <ele>15</ele>
        <time>2026-07-12T16:53:43.000Z</time>
      </trkpt>
      <trkpt lat="43.38818" lon="-1.67327">
        <ele>17</ele>
        <time>2026-07-12T16:53:45.000Z</time>
      </trkpt>
      <trkpt lat="43.38815" lon="-1.67335">
        <ele>18</ele>
        <time>2026-07-12T16:53:46.000Z</time>
      </trkpt>
      <trkpt lat="43.38813" lon="-1.67346">
        <ele>18</ele>
        <time>2026-07-12T16:53:47.000Z</time>
      </trkpt>
      <trkpt lat="43.38813" lon="-1.67357">
        <ele>18</ele>
        <time>2026-07-12T16:53:49.000Z</time>
      </trkpt>
      <trkpt lat="43.38813" lon="-1.67373">
        <ele>18</ele>
        <time>2026-07-12T16:53:51.000Z</time>
      </trkpt>
      <trkpt lat="43.38812" lon="-1.67423">
        <ele>18</ele>
        <time>2026-07-12T16:53:57.000Z</time>
      </trkpt>
      <trkpt lat="43.38812" lon="-1.67429">
        <ele>18</ele>
        <time>2026-07-12T16:53:58.000Z</time>
      </trkpt>
      <trkpt lat="43.38812" lon="-1.67505">
        <ele>16</ele>
        <time>2026-07-12T16:54:08.000Z</time>
      </trkpt>
      <trkpt lat="43.38815" lon="-1.67515">
        <ele>14</ele>
        <time>2026-07-12T16:54:09.000Z</time>
      </trkpt>
      <trkpt lat="43.38814" lon="-1.6756">
        <ele>14</ele>
        <time>2026-07-12T16:54:15.000Z</time>
      </trkpt>
      <trkpt lat="43.38814" lon="-1.67565">
        <ele>14</ele>
        <time>2026-07-12T16:54:16.000Z</time>
      </trkpt>
      <trkpt lat="43.38814" lon="-1.67586">
        <ele>14</ele>
        <time>2026-07-12T16:54:18.000Z</time>
      </trkpt>
      <trkpt lat="43.38813" lon="-1.67641">
        <ele>13</ele>
        <time>2026-07-12T16:54:26.000Z</time>
      </trkpt>
      <trkpt lat="43.38813" lon="-1.67643">
        <ele>13</ele>
        <time>2026-07-12T16:54:26.000Z</time>
      </trkpt>
      <trkpt lat="43.38813" lon="-1.67661">
        <ele>12</ele>
        <time>2026-07-12T16:54:28.000Z</time>
      </trkpt>
      <trkpt lat="43.38813" lon="-1.67664">
        <ele>12</ele>
        <time>2026-07-12T16:54:28.000Z</time>
      </trkpt>
      <trkpt lat="43.38812" lon="-1.67681">
        <ele>13</ele>
        <time>2026-07-12T16:54:31.000Z</time>
      </trkpt>
      <trkpt lat="43.3881" lon="-1.67734">
        <ele>15</ele>
        <time>2026-07-12T16:54:38.000Z</time>
      </trkpt>
      <trkpt lat="43.38812" lon="-1.67758">
        <ele>15</ele>
        <time>2026-07-12T16:54:41.000Z</time>
      </trkpt>
      <trkpt lat="43.38813" lon="-1.67778">
        <ele>16</ele>
        <time>2026-07-12T16:54:43.000Z</time>
      </trkpt>
      <trkpt lat="43.38817" lon="-1.67799">
        <ele>15</ele>
        <time>2026-07-12T16:54:46.000Z</time>
      </trkpt>
      <trkpt lat="43.38824" lon="-1.6783">
        <ele>14</ele>
        <time>2026-07-12T16:54:50.000Z</time>
      </trkpt>
      <trkpt lat="43.3883" lon="-1.67847">
        <ele>12</ele>
        <time>2026-07-12T16:54:53.000Z</time>
      </trkpt>
      <trkpt lat="43.38834" lon="-1.67859">
        <ele>11</ele>
        <time>2026-07-12T16:54:54.000Z</time>
      </trkpt>
      <trkpt lat="43.38841" lon="-1.6788">
        <ele>10</ele>
        <time>2026-07-12T16:54:57.000Z</time>
      </trkpt>
      <trkpt lat="43.38843" lon="-1.67888">
        <ele>9</ele>
        <time>2026-07-12T16:54:59.000Z</time>
      </trkpt>
      <trkpt lat="43.38848" lon="-1.6791">
        <ele>8</ele>
        <time>2026-07-12T16:55:01.000Z</time>
      </trkpt>
      <trkpt lat="43.3885" lon="-1.67929">
        <ele>8</ele>
        <time>2026-07-12T16:55:04.000Z</time>
      </trkpt>
      <trkpt lat="43.3885" lon="-1.67936">
        <ele>9</ele>
        <time>2026-07-12T16:55:05.000Z</time>
      </trkpt>
      <trkpt lat="43.38855" lon="-1.67953">
        <ele>8</ele>
        <time>2026-07-12T16:55:07.000Z</time>
      </trkpt>
      <trkpt lat="43.38858" lon="-1.67963">
        <ele>8</ele>
        <time>2026-07-12T16:55:09.000Z</time>
      </trkpt>
      <trkpt lat="43.38873" lon="-1.67988">
        <ele>7</ele>
        <time>2026-07-12T16:55:13.000Z</time>
      </trkpt>
      <trkpt lat="43.38881" lon="-1.68002">
        <ele>6</ele>
        <time>2026-07-12T16:55:15.000Z</time>
      </trkpt>
      <trkpt lat="43.38887" lon="-1.68014">
        <ele>5</ele>
        <time>2026-07-12T16:55:17.000Z</time>
      </trkpt>
      <trkpt lat="43.38892" lon="-1.6803">
        <ele>6</ele>
        <time>2026-07-12T16:55:19.000Z</time>
      </trkpt>
      <trkpt lat="43.38901" lon="-1.68061">
        <ele>6</ele>
        <time>2026-07-12T16:55:24.000Z</time>
      </trkpt>
      <trkpt lat="43.38917" lon="-1.6812">
        <ele>5</ele>
        <time>2026-07-12T16:55:32.000Z</time>
      </trkpt>
      <trkpt lat="43.38921" lon="-1.68135">
        <ele>6</ele>
        <time>2026-07-12T16:55:34.000Z</time>
      </trkpt>
      <trkpt lat="43.38936" lon="-1.68198">
        <ele>6</ele>
        <time>2026-07-12T16:55:42.000Z</time>
      </trkpt>
      <trkpt lat="43.38951" lon="-1.68256">
        <ele>6</ele>
        <time>2026-07-12T16:55:50.000Z</time>
      </trkpt>
      <trkpt lat="43.38958" lon="-1.6828">
        <ele>6</ele>
        <time>2026-07-12T16:55:54.000Z</time>
      </trkpt>
      <trkpt lat="43.38967" lon="-1.68315">
        <ele>7</ele>
        <time>2026-07-12T16:55:58.000Z</time>
      </trkpt>
      <trkpt lat="43.38978" lon="-1.68361">
        <ele>6</ele>
        <time>2026-07-12T16:56:05.000Z</time>
      </trkpt>
      <trkpt lat="43.38979" lon="-1.68368">
        <ele>6</ele>
        <time>2026-07-12T16:56:06.000Z</time>
      </trkpt>
      <trkpt lat="43.38984" lon="-1.68389">
        <ele>6</ele>
        <time>2026-07-12T16:56:09.000Z</time>
      </trkpt>
      <trkpt lat="43.38987" lon="-1.68412">
        <ele>6</ele>
        <time>2026-07-12T16:56:12.000Z</time>
      </trkpt>
      <trkpt lat="43.38987" lon="-1.68417">
        <ele>6</ele>
        <time>2026-07-12T16:56:12.000Z</time>
      </trkpt>
      <trkpt lat="43.3899" lon="-1.6845">
        <ele>5</ele>
        <time>2026-07-12T16:56:16.000Z</time>
      </trkpt>
      <trkpt lat="43.3899" lon="-1.68455">
        <ele>5</ele>
        <time>2026-07-12T16:56:17.000Z</time>
      </trkpt>
      <trkpt lat="43.38992" lon="-1.68471">
        <ele>5</ele>
        <time>2026-07-12T16:56:19.000Z</time>
      </trkpt>
      <trkpt lat="43.38994" lon="-1.68496">
        <ele>5</ele>
        <time>2026-07-12T16:56:22.000Z</time>
      </trkpt>
      <trkpt lat="43.38996" lon="-1.68509">
        <ele>5</ele>
        <time>2026-07-12T16:56:24.000Z</time>
      </trkpt>
      <trkpt lat="43.38997" lon="-1.68514">
        <ele>5</ele>
        <time>2026-07-12T16:56:25.000Z</time>
      </trkpt>
      <trkpt lat="43.38997" lon="-1.68518">
        <ele>5</ele>
        <time>2026-07-12T16:56:25.000Z</time>
      </trkpt>
      <trkpt lat="43.38999" lon="-1.68525">
        <ele>4</ele>
        <time>2026-07-12T16:56:26.000Z</time>
      </trkpt>
      <trkpt lat="43.39" lon="-1.6853">
        <ele>4</ele>
        <time>2026-07-12T16:56:27.000Z</time>
      </trkpt>
      <trkpt lat="43.39001" lon="-1.68536">
        <ele>4</ele>
        <time>2026-07-12T16:56:28.000Z</time>
      </trkpt>
      <trkpt lat="43.39003" lon="-1.6854">
        <ele>4</ele>
        <time>2026-07-12T16:56:28.000Z</time>
      </trkpt>
      <trkpt lat="43.39006" lon="-1.68545">
        <ele>4</ele>
        <time>2026-07-12T16:56:29.000Z</time>
      </trkpt>
      <trkpt lat="43.39008" lon="-1.68551">
        <ele>4</ele>
        <time>2026-07-12T16:56:30.000Z</time>
      </trkpt>
      <trkpt lat="43.39009" lon="-1.68551">
        <ele>4</ele>
        <time>2026-07-12T16:56:30.000Z</time>
      </trkpt>
      <trkpt lat="43.3901" lon="-1.68553">
        <ele>4</ele>
        <time>2026-07-12T16:56:31.000Z</time>
      </trkpt>
      <trkpt lat="43.39014" lon="-1.68558">
        <ele>4</ele>
        <time>2026-07-12T16:56:32.000Z</time>
      </trkpt>
      <trkpt lat="43.39022" lon="-1.68566">
        <ele>4</ele>
        <time>2026-07-12T16:56:33.000Z</time>
      </trkpt>
      <trkpt lat="43.39032" lon="-1.68574">
        <ele>4</ele>
        <time>2026-07-12T16:56:35.000Z</time>
      </trkpt>
      <trkpt lat="43.39047" lon="-1.68583">
        <ele>5</ele>
        <time>2026-07-12T16:56:38.000Z</time>
      </trkpt>
      <trkpt lat="43.39056" lon="-1.68587">
        <ele>5</ele>
        <time>2026-07-12T16:56:40.000Z</time>
      </trkpt>
      <trkpt lat="43.39065" lon="-1.6859">
        <ele>5</ele>
        <time>2026-07-12T16:56:42.000Z</time>
      </trkpt>
      <trkpt lat="43.39071" lon="-1.68593">
        <ele>5</ele>
        <time>2026-07-12T16:56:43.000Z</time>
      </trkpt>
      <trkpt lat="43.39075" lon="-1.68598">
        <ele>5</ele>
        <time>2026-07-12T16:56:44.000Z</time>
      </trkpt>
      <trkpt lat="43.391" lon="-1.68602">
        <ele>6</ele>
        <time>2026-07-12T16:56:48.000Z</time>
      </trkpt>
      <trkpt lat="43.39129" lon="-1.68606">
        <ele>6</ele>
        <time>2026-07-12T16:56:53.000Z</time>
      </trkpt>
      <trkpt lat="43.39133" lon="-1.68606">
        <ele>6</ele>
        <time>2026-07-12T16:56:54.000Z</time>
      </trkpt>
      <trkpt lat="43.39148" lon="-1.68608">
        <ele>7</ele>
        <time>2026-07-12T16:56:57.000Z</time>
      </trkpt>
      <trkpt lat="43.39159" lon="-1.68609">
        <ele>7</ele>
        <time>2026-07-12T16:56:59.000Z</time>
      </trkpt>
      <trkpt lat="43.39164" lon="-1.6861">
        <ele>7</ele>
        <time>2026-07-12T16:57:00.000Z</time>
      </trkpt>
      <trkpt lat="43.39177" lon="-1.68611">
        <ele>8</ele>
        <time>2026-07-12T16:57:02.000Z</time>
      </trkpt>
      <trkpt lat="43.39178" lon="-1.68612">
        <ele>8</ele>
        <time>2026-07-12T16:57:02.000Z</time>
      </trkpt>
      <trkpt lat="43.39189" lon="-1.68614">
        <ele>8</ele>
        <time>2026-07-12T16:57:04.000Z</time>
      </trkpt>
      <trkpt lat="43.39198" lon="-1.68617">
        <ele>9</ele>
        <time>2026-07-12T16:57:06.000Z</time>
      </trkpt>
      <trkpt lat="43.39207" lon="-1.68622">
        <ele>9</ele>
        <time>2026-07-12T16:57:08.000Z</time>
      </trkpt>
      <trkpt lat="43.39216" lon="-1.68628">
        <ele>10</ele>
        <time>2026-07-12T16:57:09.000Z</time>
      </trkpt>
      <trkpt lat="43.39224" lon="-1.68635">
        <ele>10</ele>
        <time>2026-07-12T16:57:11.000Z</time>
      </trkpt>
      <trkpt lat="43.39232" lon="-1.68643">
        <ele>10</ele>
        <time>2026-07-12T16:57:13.000Z</time>
      </trkpt>
      <trkpt lat="43.3924" lon="-1.68654">
        <ele>11</ele>
        <time>2026-07-12T16:57:15.000Z</time>
      </trkpt>
      <trkpt lat="43.39255" lon="-1.68677">
        <ele>12</ele>
        <time>2026-07-12T16:57:19.000Z</time>
      </trkpt>
      <trkpt lat="43.39264" lon="-1.68688">
        <ele>13</ele>
        <time>2026-07-12T16:57:21.000Z</time>
      </trkpt>
      <trkpt lat="43.39271" lon="-1.68695">
        <ele>13</ele>
        <time>2026-07-12T16:57:22.000Z</time>
      </trkpt>
      <trkpt lat="43.3928" lon="-1.68703">
        <ele>14</ele>
        <time>2026-07-12T16:57:24.000Z</time>
      </trkpt>
      <trkpt lat="43.39302" lon="-1.68717">
        <ele>14</ele>
        <time>2026-07-12T16:57:29.000Z</time>
      </trkpt>
      <trkpt lat="43.39329" lon="-1.68732">
        <ele>15</ele>
        <time>2026-07-12T16:57:34.000Z</time>
      </trkpt>
      <trkpt lat="43.3935" lon="-1.68744">
        <ele>15</ele>
        <time>2026-07-12T16:57:38.000Z</time>
      </trkpt>
      <trkpt lat="43.39364" lon="-1.68752">
        <ele>16</ele>
        <time>2026-07-12T16:57:41.000Z</time>
      </trkpt>
      <trkpt lat="43.39365" lon="-1.68753">
        <ele>16</ele>
        <time>2026-07-12T16:57:41.000Z</time>
      </trkpt>
      <trkpt lat="43.39374" lon="-1.68761">
        <ele>16</ele>
        <time>2026-07-12T16:57:43.000Z</time>
      </trkpt>
      <trkpt lat="43.39384" lon="-1.6877">
        <ele>16</ele>
        <time>2026-07-12T16:57:45.000Z</time>
      </trkpt>
      <trkpt lat="43.39393" lon="-1.6878">
        <ele>16</ele>
        <time>2026-07-12T16:57:47.000Z</time>
      </trkpt>
      <trkpt lat="43.394" lon="-1.6879">
        <ele>16</ele>
        <time>2026-07-12T16:57:49.000Z</time>
      </trkpt>
      <trkpt lat="43.39406" lon="-1.688">
        <ele>16</ele>
        <time>2026-07-12T16:57:50.000Z</time>
      </trkpt>
      <trkpt lat="43.39413" lon="-1.68812">
        <ele>15</ele>
        <time>2026-07-12T16:57:52.000Z</time>
      </trkpt>
      <trkpt lat="43.39419" lon="-1.68826">
        <ele>14</ele>
        <time>2026-07-12T16:57:55.000Z</time>
      </trkpt>
      <trkpt lat="43.39424" lon="-1.6884">
        <ele>13</ele>
        <time>2026-07-12T16:57:57.000Z</time>
      </trkpt>
      <trkpt lat="43.39425" lon="-1.68841">
        <ele>13</ele>
        <time>2026-07-12T16:57:57.000Z</time>
      </trkpt>
      <trkpt lat="43.39428" lon="-1.68852">
        <ele>12</ele>
        <time>2026-07-12T16:57:58.000Z</time>
      </trkpt>
      <trkpt lat="43.3943" lon="-1.68861">
        <ele>12</ele>
        <time>2026-07-12T16:57:59.000Z</time>
      </trkpt>
      <trkpt lat="43.39431" lon="-1.68866">
        <ele>11</ele>
        <time>2026-07-12T16:58:00.000Z</time>
      </trkpt>
      <trkpt lat="43.39433" lon="-1.68876">
        <ele>11</ele>
        <time>2026-07-12T16:58:01.000Z</time>
      </trkpt>
      <trkpt lat="43.39434" lon="-1.68884">
        <ele>11</ele>
        <time>2026-07-12T16:58:03.000Z</time>
      </trkpt>
      <trkpt lat="43.39434" lon="-1.6889">
        <ele>11</ele>
        <time>2026-07-12T16:58:03.000Z</time>
      </trkpt>
      <trkpt lat="43.39435" lon="-1.68898">
        <ele>10</ele>
        <time>2026-07-12T16:58:04.000Z</time>
      </trkpt>
      <trkpt lat="43.39435" lon="-1.6891">
        <ele>10</ele>
        <time>2026-07-12T16:58:06.000Z</time>
      </trkpt>
      <trkpt lat="43.39435" lon="-1.68919">
        <ele>10</ele>
        <time>2026-07-12T16:58:07.000Z</time>
      </trkpt>
      <trkpt lat="43.39435" lon="-1.68932">
        <ele>10</ele>
        <time>2026-07-12T16:58:09.000Z</time>
      </trkpt>
      <trkpt lat="43.39434" lon="-1.68944">
        <ele>11</ele>
        <time>2026-07-12T16:58:10.000Z</time>
      </trkpt>
      <trkpt lat="43.39431" lon="-1.68962">
        <ele>12</ele>
        <time>2026-07-12T16:58:13.000Z</time>
      </trkpt>
      <trkpt lat="43.39425" lon="-1.68994">
        <ele>13</ele>
        <time>2026-07-12T16:58:17.000Z</time>
      </trkpt>
      <trkpt lat="43.39421" lon="-1.69014">
        <ele>14</ele>
        <time>2026-07-12T16:58:20.000Z</time>
      </trkpt>
      <trkpt lat="43.39417" lon="-1.69033">
        <ele>15</ele>
        <time>2026-07-12T16:58:22.000Z</time>
      </trkpt>
      <trkpt lat="43.39413" lon="-1.69052">
        <ele>15</ele>
        <time>2026-07-12T16:58:25.000Z</time>
      </trkpt>
      <trkpt lat="43.39408" lon="-1.69077">
        <ele>14</ele>
        <time>2026-07-12T16:58:28.000Z</time>
      </trkpt>
      <trkpt lat="43.39404" lon="-1.69095">
        <ele>14</ele>
        <time>2026-07-12T16:58:31.000Z</time>
      </trkpt>
      <trkpt lat="43.39397" lon="-1.69133">
        <ele>14</ele>
        <time>2026-07-12T16:58:36.000Z</time>
      </trkpt>
      <trkpt lat="43.39391" lon="-1.69168">
        <ele>14</ele>
        <time>2026-07-12T16:58:40.000Z</time>
      </trkpt>
      <trkpt lat="43.39386" lon="-1.69208">
        <ele>14</ele>
        <time>2026-07-12T16:58:46.000Z</time>
      </trkpt>
      <trkpt lat="43.39379" lon="-1.6926">
        <ele>15</ele>
        <time>2026-07-12T16:58:52.000Z</time>
      </trkpt>
      <trkpt lat="43.39374" lon="-1.69295">
        <ele>17</ele>
        <time>2026-07-12T16:58:57.000Z</time>
      </trkpt>
      <trkpt lat="43.39371" lon="-1.69311">
        <ele>18</ele>
        <time>2026-07-12T16:58:59.000Z</time>
      </trkpt>
      <trkpt lat="43.39367" lon="-1.69324">
        <ele>19</ele>
        <time>2026-07-12T16:59:01.000Z</time>
      </trkpt>
      <trkpt lat="43.39363" lon="-1.69336">
        <ele>20</ele>
        <time>2026-07-12T16:59:03.000Z</time>
      </trkpt>
      <trkpt lat="43.39362" lon="-1.69339">
        <ele>20</ele>
        <time>2026-07-12T16:59:03.000Z</time>
      </trkpt>
      <trkpt lat="43.39357" lon="-1.6935">
        <ele>20</ele>
        <time>2026-07-12T16:59:05.000Z</time>
      </trkpt>
      <trkpt lat="43.39347" lon="-1.69368">
        <ele>22</ele>
        <time>2026-07-12T16:59:08.000Z</time>
      </trkpt>
      <trkpt lat="43.39333" lon="-1.69392">
        <ele>23</ele>
        <time>2026-07-12T16:59:12.000Z</time>
      </trkpt>
      <trkpt lat="43.39304" lon="-1.69445">
        <ele>20</ele>
        <time>2026-07-12T16:59:20.000Z</time>
      </trkpt>
      <trkpt lat="43.39268" lon="-1.6951">
        <ele>21</ele>
        <time>2026-07-12T16:59:31.000Z</time>
      </trkpt>
      <trkpt lat="43.39243" lon="-1.69556">
        <ele>22</ele>
        <time>2026-07-12T16:59:38.000Z</time>
      </trkpt>
      <trkpt lat="43.39236" lon="-1.6957">
        <ele>21</ele>
        <time>2026-07-12T16:59:40.000Z</time>
      </trkpt>
      <trkpt lat="43.39229" lon="-1.69585">
        <ele>21</ele>
        <time>2026-07-12T16:59:43.000Z</time>
      </trkpt>
      <trkpt lat="43.39214" lon="-1.69624">
        <ele>21</ele>
        <time>2026-07-12T16:59:48.000Z</time>
      </trkpt>
      <trkpt lat="43.39199" lon="-1.69667">
        <ele>24</ele>
        <time>2026-07-12T16:59:55.000Z</time>
      </trkpt>
      <trkpt lat="43.39188" lon="-1.69696">
        <ele>27</ele>
        <time>2026-07-12T16:59:59.000Z</time>
      </trkpt>
      <trkpt lat="43.39166" lon="-1.69755">
        <ele>36</ele>
        <time>2026-07-12T17:00:07.000Z</time>
      </trkpt>
      <trkpt lat="43.39158" lon="-1.69776">
        <ele>37</ele>
        <time>2026-07-12T17:00:10.000Z</time>
      </trkpt>
      <trkpt lat="43.39151" lon="-1.69798">
        <ele>38</ele>
        <time>2026-07-12T17:00:14.000Z</time>
      </trkpt>
      <trkpt lat="43.39148" lon="-1.69824">
        <ele>38</ele>
        <time>2026-07-12T17:00:17.000Z</time>
      </trkpt>
      <trkpt lat="43.39147" lon="-1.69835">
        <ele>39</ele>
        <time>2026-07-12T17:00:18.000Z</time>
      </trkpt>
      <trkpt lat="43.39146" lon="-1.69847">
        <ele>38</ele>
        <time>2026-07-12T17:00:20.000Z</time>
      </trkpt>
      <trkpt lat="43.39146" lon="-1.6986">
        <ele>38</ele>
        <time>2026-07-12T17:00:22.000Z</time>
      </trkpt>
      <trkpt lat="43.39146" lon="-1.69871">
        <ele>38</ele>
        <time>2026-07-12T17:00:23.000Z</time>
      </trkpt>
      <trkpt lat="43.39146" lon="-1.69884">
        <ele>38</ele>
        <time>2026-07-12T17:00:25.000Z</time>
      </trkpt>
      <trkpt lat="43.39147" lon="-1.69904">
        <ele>37</ele>
        <time>2026-07-12T17:00:27.000Z</time>
      </trkpt>
      <trkpt lat="43.39149" lon="-1.69926">
        <ele>36</ele>
        <time>2026-07-12T17:00:30.000Z</time>
      </trkpt>
      <trkpt lat="43.39149" lon="-1.69954">
        <ele>35</ele>
        <time>2026-07-12T17:00:34.000Z</time>
      </trkpt>
      <trkpt lat="43.39151" lon="-1.6999">
        <ele>33</ele>
        <time>2026-07-12T17:00:39.000Z</time>
      </trkpt>
      <trkpt lat="43.3915" lon="-1.70027">
        <ele>31</ele>
        <time>2026-07-12T17:00:43.000Z</time>
      </trkpt>
      <trkpt lat="43.3915" lon="-1.70034">
        <ele>30</ele>
        <time>2026-07-12T17:00:44.000Z</time>
      </trkpt>
      <trkpt lat="43.3915" lon="-1.7004">
        <ele>30</ele>
        <time>2026-07-12T17:00:45.000Z</time>
      </trkpt>
      <trkpt lat="43.39148" lon="-1.70048">
        <ele>29</ele>
        <time>2026-07-12T17:00:46.000Z</time>
      </trkpt>
      <trkpt lat="43.39145" lon="-1.70057">
        <ele>29</ele>
        <time>2026-07-12T17:00:47.000Z</time>
      </trkpt>
      <trkpt lat="43.3914" lon="-1.70066">
        <ele>30</ele>
        <time>2026-07-12T17:00:49.000Z</time>
      </trkpt>
      <trkpt lat="43.39137" lon="-1.70072">
        <ele>30</ele>
        <time>2026-07-12T17:00:50.000Z</time>
      </trkpt>
      <trkpt lat="43.39132" lon="-1.7008">
        <ele>31</ele>
        <time>2026-07-12T17:00:51.000Z</time>
      </trkpt>
      <trkpt lat="43.39127" lon="-1.70089">
        <ele>32</ele>
        <time>2026-07-12T17:00:53.000Z</time>
      </trkpt>
      <trkpt lat="43.3912" lon="-1.70098">
        <ele>32</ele>
        <time>2026-07-12T17:00:54.000Z</time>
      </trkpt>
      <trkpt lat="43.39113" lon="-1.70114">
        <ele>32</ele>
        <time>2026-07-12T17:00:57.000Z</time>
      </trkpt>
      <trkpt lat="43.39103" lon="-1.7014">
        <ele>31</ele>
        <time>2026-07-12T17:01:01.000Z</time>
      </trkpt>
      <trkpt lat="43.39098" lon="-1.70151">
        <ele>31</ele>
        <time>2026-07-12T17:01:02.000Z</time>
      </trkpt>
      <trkpt lat="43.39093" lon="-1.70162">
        <ele>32</ele>
        <time>2026-07-12T17:01:04.000Z</time>
      </trkpt>
      <trkpt lat="43.39091" lon="-1.70169">
        <ele>31</ele>
        <time>2026-07-12T17:01:05.000Z</time>
      </trkpt>
      <trkpt lat="43.39089" lon="-1.70174">
        <ele>31</ele>
        <time>2026-07-12T17:01:06.000Z</time>
      </trkpt>
      <trkpt lat="43.39085" lon="-1.70186">
        <ele>31</ele>
        <time>2026-07-12T17:01:07.000Z</time>
      </trkpt>
      <trkpt lat="43.39081" lon="-1.70197">
        <ele>30</ele>
        <time>2026-07-12T17:01:09.000Z</time>
      </trkpt>
      <trkpt lat="43.39068" lon="-1.70241">
        <ele>26</ele>
        <time>2026-07-12T17:01:15.000Z</time>
      </trkpt>
      <trkpt lat="43.39061" lon="-1.70262">
        <ele>26</ele>
        <time>2026-07-12T17:01:18.000Z</time>
      </trkpt>
      <trkpt lat="43.39043" lon="-1.70319">
        <ele>26</ele>
        <time>2026-07-12T17:01:26.000Z</time>
      </trkpt>
      <trkpt lat="43.39016" lon="-1.70389">
        <ele>30</ele>
        <time>2026-07-12T17:01:36.000Z</time>
      </trkpt>
      <trkpt lat="43.3899" lon="-1.70468">
        <ele>34</ele>
        <time>2026-07-12T17:01:48.000Z</time>
      </trkpt>
      <trkpt lat="43.38976" lon="-1.70513">
        <ele>35</ele>
        <time>2026-07-12T17:01:54.000Z</time>
      </trkpt>
      <trkpt lat="43.38966" lon="-1.70546">
        <ele>37</ele>
        <time>2026-07-12T17:01:58.000Z</time>
      </trkpt>
      <trkpt lat="43.38958" lon="-1.70573">
        <ele>39</ele>
        <time>2026-07-12T17:02:02.000Z</time>
      </trkpt>
      <trkpt lat="43.3895" lon="-1.70592">
        <ele>40</ele>
        <time>2026-07-12T17:02:05.000Z</time>
      </trkpt>
      <trkpt lat="43.38938" lon="-1.70613">
        <ele>41</ele>
        <time>2026-07-12T17:02:09.000Z</time>
      </trkpt>
      <trkpt lat="43.38929" lon="-1.70627">
        <ele>43</ele>
        <time>2026-07-12T17:02:11.000Z</time>
      </trkpt>
      <trkpt lat="43.38923" lon="-1.70639">
        <ele>43</ele>
        <time>2026-07-12T17:02:13.000Z</time>
      </trkpt>
      <trkpt lat="43.38914" lon="-1.70657">
        <ele>44</ele>
        <time>2026-07-12T17:02:16.000Z</time>
      </trkpt>
      <trkpt lat="43.3891" lon="-1.70668">
        <ele>43</ele>
        <time>2026-07-12T17:02:17.000Z</time>
      </trkpt>
      <trkpt lat="43.38906" lon="-1.70681">
        <ele>43</ele>
        <time>2026-07-12T17:02:19.000Z</time>
      </trkpt>
      <trkpt lat="43.38901" lon="-1.70698">
        <ele>41</ele>
        <time>2026-07-12T17:02:21.000Z</time>
      </trkpt>
      <trkpt lat="43.38896" lon="-1.70719">
        <ele>40</ele>
        <time>2026-07-12T17:02:24.000Z</time>
      </trkpt>
      <trkpt lat="43.38894" lon="-1.70733">
        <ele>39</ele>
        <time>2026-07-12T17:02:26.000Z</time>
      </trkpt>
      <trkpt lat="43.3889" lon="-1.70754">
        <ele>38</ele>
        <time>2026-07-12T17:02:29.000Z</time>
      </trkpt>
      <trkpt lat="43.38889" lon="-1.7077">
        <ele>37</ele>
        <time>2026-07-12T17:02:31.000Z</time>
      </trkpt>
      <trkpt lat="43.38886" lon="-1.70796">
        <ele>36</ele>
        <time>2026-07-12T17:02:34.000Z</time>
      </trkpt>
      <trkpt lat="43.38885" lon="-1.7081">
        <ele>35</ele>
        <time>2026-07-12T17:02:36.000Z</time>
      </trkpt>
      <trkpt lat="43.38883" lon="-1.70824">
        <ele>34</ele>
        <time>2026-07-12T17:02:38.000Z</time>
      </trkpt>
      <trkpt lat="43.38883" lon="-1.70826">
        <ele>34</ele>
        <time>2026-07-12T17:02:38.000Z</time>
      </trkpt>
      <trkpt lat="43.38877" lon="-1.70841">
        <ele>33</ele>
        <time>2026-07-12T17:02:41.000Z</time>
      </trkpt>
      <trkpt lat="43.38875" lon="-1.70847">
        <ele>32</ele>
        <time>2026-07-12T17:02:41.000Z</time>
      </trkpt>
      <trkpt lat="43.38871" lon="-1.70855">
        <ele>31</ele>
        <time>2026-07-12T17:02:43.000Z</time>
      </trkpt>
      <trkpt lat="43.38866" lon="-1.70863">
        <ele>31</ele>
        <time>2026-07-12T17:02:44.000Z</time>
      </trkpt>
      <trkpt lat="43.38862" lon="-1.70869">
        <ele>31</ele>
        <time>2026-07-12T17:02:45.000Z</time>
      </trkpt>
      <trkpt lat="43.38855" lon="-1.70876">
        <ele>31</ele>
        <time>2026-07-12T17:02:47.000Z</time>
      </trkpt>
      <trkpt lat="43.38846" lon="-1.70884">
        <ele>32</ele>
        <time>2026-07-12T17:02:49.000Z</time>
      </trkpt>
      <trkpt lat="43.38752" lon="-1.7092">
        <ele>33</ele>
        <time>2026-07-12T17:03:06.000Z</time>
      </trkpt>
      <trkpt lat="43.38726" lon="-1.70929">
        <ele>32</ele>
        <time>2026-07-12T17:03:11.000Z</time>
      </trkpt>
      <trkpt lat="43.38704" lon="-1.70937">
        <ele>31</ele>
        <time>2026-07-12T17:03:15.000Z</time>
      </trkpt>
      <trkpt lat="43.38692" lon="-1.70942">
        <ele>30</ele>
        <time>2026-07-12T17:03:17.000Z</time>
      </trkpt>
      <trkpt lat="43.38682" lon="-1.70949">
        <ele>30</ele>
        <time>2026-07-12T17:03:19.000Z</time>
      </trkpt>
      <trkpt lat="43.38674" lon="-1.70954">
        <ele>29</ele>
        <time>2026-07-12T17:03:20.000Z</time>
      </trkpt>
      <trkpt lat="43.38667" lon="-1.7096">
        <ele>29</ele>
        <time>2026-07-12T17:03:22.000Z</time>
      </trkpt>
      <trkpt lat="43.38659" lon="-1.70971">
        <ele>28</ele>
        <time>2026-07-12T17:03:24.000Z</time>
      </trkpt>
      <trkpt lat="43.38653" lon="-1.7098">
        <ele>28</ele>
        <time>2026-07-12T17:03:26.000Z</time>
      </trkpt>
      <trkpt lat="43.38648" lon="-1.7099">
        <ele>28</ele>
        <time>2026-07-12T17:03:27.000Z</time>
      </trkpt>
      <trkpt lat="43.38644" lon="-1.71">
        <ele>27</ele>
        <time>2026-07-12T17:03:29.000Z</time>
      </trkpt>
      <trkpt lat="43.38639" lon="-1.71011">
        <ele>27</ele>
        <time>2026-07-12T17:03:30.000Z</time>
      </trkpt>
      <trkpt lat="43.38637" lon="-1.7102">
        <ele>26</ele>
        <time>2026-07-12T17:03:31.000Z</time>
      </trkpt>
      <trkpt lat="43.38634" lon="-1.71033">
        <ele>26</ele>
        <time>2026-07-12T17:03:33.000Z</time>
      </trkpt>
      <trkpt lat="43.38633" lon="-1.71044">
        <ele>25</ele>
        <time>2026-07-12T17:03:35.000Z</time>
      </trkpt>
      <trkpt lat="43.38632" lon="-1.71055">
        <ele>24</ele>
        <time>2026-07-12T17:03:36.000Z</time>
      </trkpt>
      <trkpt lat="43.38632" lon="-1.71066">
        <ele>24</ele>
        <time>2026-07-12T17:03:38.000Z</time>
      </trkpt>
      <trkpt lat="43.38633" lon="-1.71081">
        <ele>23</ele>
        <time>2026-07-12T17:03:39.000Z</time>
      </trkpt>
      <trkpt lat="43.38635" lon="-1.71096">
        <ele>22</ele>
        <time>2026-07-12T17:03:41.000Z</time>
      </trkpt>
      <trkpt lat="43.38638" lon="-1.7111">
        <ele>21</ele>
        <time>2026-07-12T17:03:43.000Z</time>
      </trkpt>
      <trkpt lat="43.38644" lon="-1.71135">
        <ele>20</ele>
        <time>2026-07-12T17:03:47.000Z</time>
      </trkpt>
      <trkpt lat="43.38649" lon="-1.71156">
        <ele>19</ele>
        <time>2026-07-12T17:03:50.000Z</time>
      </trkpt>
      <trkpt lat="43.38655" lon="-1.7118">
        <ele>17</ele>
        <time>2026-07-12T17:03:53.000Z</time>
      </trkpt>
      <trkpt lat="43.38661" lon="-1.71205">
        <ele>16</ele>
        <time>2026-07-12T17:03:56.000Z</time>
      </trkpt>
      <trkpt lat="43.3867" lon="-1.7124">
        <ele>14</ele>
        <time>2026-07-12T17:04:01.000Z</time>
      </trkpt>
      <trkpt lat="43.38679" lon="-1.71277">
        <ele>13</ele>
        <time>2026-07-12T17:04:06.000Z</time>
      </trkpt>
      <trkpt lat="43.3868" lon="-1.71283">
        <ele>13</ele>
        <time>2026-07-12T17:04:07.000Z</time>
      </trkpt>
      <trkpt lat="43.38683" lon="-1.71299">
        <ele>13</ele>
        <time>2026-07-12T17:04:09.000Z</time>
      </trkpt>
      <trkpt lat="43.38685" lon="-1.71309">
        <ele>13</ele>
        <time>2026-07-12T17:04:10.000Z</time>
      </trkpt>
      <trkpt lat="43.38685" lon="-1.71319">
        <ele>13</ele>
        <time>2026-07-12T17:04:12.000Z</time>
      </trkpt>
      <trkpt lat="43.38685" lon="-1.71321">
        <ele>13</ele>
        <time>2026-07-12T17:04:12.000Z</time>
      </trkpt>
      <trkpt lat="43.38685" lon="-1.71327">
        <ele>13</ele>
        <time>2026-07-12T17:04:13.000Z</time>
      </trkpt>
      <trkpt lat="43.38685" lon="-1.71332">
        <ele>14</ele>
        <time>2026-07-12T17:04:13.000Z</time>
      </trkpt>
      <trkpt lat="43.38683" lon="-1.71346">
        <ele>14</ele>
        <time>2026-07-12T17:04:15.000Z</time>
      </trkpt>
      <trkpt lat="43.38682" lon="-1.71354">
        <ele>15</ele>
        <time>2026-07-12T17:04:16.000Z</time>
      </trkpt>
      <trkpt lat="43.38681" lon="-1.7136">
        <ele>15</ele>
        <time>2026-07-12T17:04:17.000Z</time>
      </trkpt>
      <trkpt lat="43.38676" lon="-1.7138">
        <ele>17</ele>
        <time>2026-07-12T17:04:20.000Z</time>
      </trkpt>
      <trkpt lat="43.38668" lon="-1.71408">
        <ele>19</ele>
        <time>2026-07-12T17:04:24.000Z</time>
      </trkpt>
      <trkpt lat="43.38653" lon="-1.71459">
        <ele>18</ele>
        <time>2026-07-12T17:04:31.000Z</time>
      </trkpt>
      <trkpt lat="43.38649" lon="-1.71475">
        <ele>18</ele>
        <time>2026-07-12T17:04:33.000Z</time>
      </trkpt>
      <trkpt lat="43.38643" lon="-1.71493">
        <ele>17</ele>
        <time>2026-07-12T17:04:36.000Z</time>
      </trkpt>
      <trkpt lat="43.38637" lon="-1.71516">
        <ele>17</ele>
        <time>2026-07-12T17:04:39.000Z</time>
      </trkpt>
      <trkpt lat="43.38627" lon="-1.71552">
        <ele>17</ele>
        <time>2026-07-12T17:04:44.000Z</time>
      </trkpt>
      <trkpt lat="43.38614" lon="-1.71598">
        <ele>18</ele>
        <time>2026-07-12T17:04:50.000Z</time>
      </trkpt>
      <trkpt lat="43.38602" lon="-1.71637">
        <ele>21</ele>
        <time>2026-07-12T17:04:56.000Z</time>
      </trkpt>
      <trkpt lat="43.38593" lon="-1.71671">
        <ele>23</ele>
        <time>2026-07-12T17:05:00.000Z</time>
      </trkpt>
      <trkpt lat="43.38584" lon="-1.71699">
        <ele>25</ele>
        <time>2026-07-12T17:05:04.000Z</time>
      </trkpt>
      <trkpt lat="43.38576" lon="-1.71723">
        <ele>26</ele>
        <time>2026-07-12T17:05:08.000Z</time>
      </trkpt>
      <trkpt lat="43.38568" lon="-1.71746">
        <ele>27</ele>
        <time>2026-07-12T17:05:11.000Z</time>
      </trkpt>
      <trkpt lat="43.3856" lon="-1.71768">
        <ele>26</ele>
        <time>2026-07-12T17:05:14.000Z</time>
      </trkpt>
      <trkpt lat="43.38543" lon="-1.71814">
        <ele>26</ele>
        <time>2026-07-12T17:05:21.000Z</time>
      </trkpt>
      <trkpt lat="43.38524" lon="-1.71861">
        <ele>27</ele>
        <time>2026-07-12T17:05:28.000Z</time>
      </trkpt>
      <trkpt lat="43.38505" lon="-1.71914">
        <ele>31</ele>
        <time>2026-07-12T17:05:35.000Z</time>
      </trkpt>
      <trkpt lat="43.38486" lon="-1.71968">
        <ele>31</ele>
        <time>2026-07-12T17:05:43.000Z</time>
      </trkpt>
      <trkpt lat="43.38465" lon="-1.72023">
        <ele>33</ele>
        <time>2026-07-12T17:05:51.000Z</time>
      </trkpt>
      <trkpt lat="43.38459" lon="-1.72042">
        <ele>33</ele>
        <time>2026-07-12T17:05:54.000Z</time>
      </trkpt>
      <trkpt lat="43.38447" lon="-1.72075">
        <ele>35</ele>
        <time>2026-07-12T17:05:59.000Z</time>
      </trkpt>
      <trkpt lat="43.38442" lon="-1.72087">
        <ele>36</ele>
        <time>2026-07-12T17:06:00.000Z</time>
      </trkpt>
      <trkpt lat="43.38437" lon="-1.721">
        <ele>37</ele>
        <time>2026-07-12T17:06:02.000Z</time>
      </trkpt>
      <trkpt lat="43.38426" lon="-1.72127">
        <ele>39</ele>
        <time>2026-07-12T17:06:06.000Z</time>
      </trkpt>
      <trkpt lat="43.38422" lon="-1.72137">
        <ele>40</ele>
        <time>2026-07-12T17:06:08.000Z</time>
      </trkpt>
      <trkpt lat="43.38418" lon="-1.72147">
        <ele>41</ele>
        <time>2026-07-12T17:06:09.000Z</time>
      </trkpt>
      <trkpt lat="43.38413" lon="-1.72163">
        <ele>41</ele>
        <time>2026-07-12T17:06:12.000Z</time>
      </trkpt>
      <trkpt lat="43.3841" lon="-1.72175">
        <ele>42</ele>
        <time>2026-07-12T17:06:13.000Z</time>
      </trkpt>
      <trkpt lat="43.38407" lon="-1.7219">
        <ele>42</ele>
        <time>2026-07-12T17:06:15.000Z</time>
      </trkpt>
      <trkpt lat="43.38406" lon="-1.72199">
        <ele>42</ele>
        <time>2026-07-12T17:06:16.000Z</time>
      </trkpt>
      <trkpt lat="43.38406" lon="-1.72209">
        <ele>42</ele>
        <time>2026-07-12T17:06:18.000Z</time>
      </trkpt>
      <trkpt lat="43.38406" lon="-1.72219">
        <ele>43</ele>
        <time>2026-07-12T17:06:19.000Z</time>
      </trkpt>
      <trkpt lat="43.38406" lon="-1.72229">
        <ele>43</ele>
        <time>2026-07-12T17:06:20.000Z</time>
      </trkpt>
      <trkpt lat="43.38407" lon="-1.72239">
        <ele>43</ele>
        <time>2026-07-12T17:06:22.000Z</time>
      </trkpt>
      <trkpt lat="43.38408" lon="-1.72247">
        <ele>43</ele>
        <time>2026-07-12T17:06:23.000Z</time>
      </trkpt>
      <trkpt lat="43.38411" lon="-1.72262">
        <ele>43</ele>
        <time>2026-07-12T17:06:25.000Z</time>
      </trkpt>
      <trkpt lat="43.38415" lon="-1.7228">
        <ele>42</ele>
        <time>2026-07-12T17:06:27.000Z</time>
      </trkpt>
      <trkpt lat="43.3842" lon="-1.723">
        <ele>40</ele>
        <time>2026-07-12T17:06:30.000Z</time>
      </trkpt>
      <trkpt lat="43.38422" lon="-1.7231">
        <ele>39</ele>
        <time>2026-07-12T17:06:31.000Z</time>
      </trkpt>
      <trkpt lat="43.38424" lon="-1.72317">
        <ele>38</ele>
        <time>2026-07-12T17:06:32.000Z</time>
      </trkpt>
      <trkpt lat="43.38431" lon="-1.72346">
        <ele>34</ele>
        <time>2026-07-12T17:06:36.000Z</time>
      </trkpt>
      <trkpt lat="43.38433" lon="-1.72354">
        <ele>33</ele>
        <time>2026-07-12T17:06:37.000Z</time>
      </trkpt>
      <trkpt lat="43.38434" lon="-1.72363">
        <ele>32</ele>
        <time>2026-07-12T17:06:38.000Z</time>
      </trkpt>
      <trkpt lat="43.38436" lon="-1.72374">
        <ele>31</ele>
        <time>2026-07-12T17:06:40.000Z</time>
      </trkpt>
      <trkpt lat="43.38437" lon="-1.72381">
        <ele>30</ele>
        <time>2026-07-12T17:06:41.000Z</time>
      </trkpt>
      <trkpt lat="43.38438" lon="-1.72389">
        <ele>29</ele>
        <time>2026-07-12T17:06:42.000Z</time>
      </trkpt>
      <trkpt lat="43.38439" lon="-1.724">
        <ele>28</ele>
        <time>2026-07-12T17:06:43.000Z</time>
      </trkpt>
      <trkpt lat="43.3844" lon="-1.72411">
        <ele>27</ele>
        <time>2026-07-12T17:06:45.000Z</time>
      </trkpt>
      <trkpt lat="43.3844" lon="-1.72428">
        <ele>26</ele>
        <time>2026-07-12T17:06:47.000Z</time>
      </trkpt>
      <trkpt lat="43.38439" lon="-1.7244">
        <ele>25</ele>
        <time>2026-07-12T17:06:48.000Z</time>
      </trkpt>
      <trkpt lat="43.38438" lon="-1.72452">
        <ele>24</ele>
        <time>2026-07-12T17:06:50.000Z</time>
      </trkpt>
      <trkpt lat="43.38436" lon="-1.72459">
        <ele>24</ele>
        <time>2026-07-12T17:06:51.000Z</time>
      </trkpt>
      <trkpt lat="43.38434" lon="-1.72469">
        <ele>24</ele>
        <time>2026-07-12T17:06:52.000Z</time>
      </trkpt>
      <trkpt lat="43.38431" lon="-1.72481">
        <ele>23</ele>
        <time>2026-07-12T17:06:54.000Z</time>
      </trkpt>
      <trkpt lat="43.38428" lon="-1.7249">
        <ele>23</ele>
        <time>2026-07-12T17:06:55.000Z</time>
      </trkpt>
      <trkpt lat="43.38426" lon="-1.72498">
        <ele>23</ele>
        <time>2026-07-12T17:06:56.000Z</time>
      </trkpt>
      <trkpt lat="43.38423" lon="-1.72506">
        <ele>22</ele>
        <time>2026-07-12T17:06:57.000Z</time>
      </trkpt>
      <trkpt lat="43.38415" lon="-1.72523">
        <ele>21</ele>
        <time>2026-07-12T17:07:00.000Z</time>
      </trkpt>
      <trkpt lat="43.38403" lon="-1.72543">
        <ele>19</ele>
        <time>2026-07-12T17:07:03.000Z</time>
      </trkpt>
      <trkpt lat="43.3839" lon="-1.72558">
        <ele>18</ele>
        <time>2026-07-12T17:07:06.000Z</time>
      </trkpt>
      <trkpt lat="43.38381" lon="-1.72568">
        <ele>18</ele>
        <time>2026-07-12T17:07:08.000Z</time>
      </trkpt>
      <trkpt lat="43.38365" lon="-1.72583">
        <ele>19</ele>
        <time>2026-07-12T17:07:12.000Z</time>
      </trkpt>
      <trkpt lat="43.38349" lon="-1.72596">
        <ele>20</ele>
        <time>2026-07-12T17:07:15.000Z</time>
      </trkpt>
      <trkpt lat="43.38327" lon="-1.72617">
        <ele>21</ele>
        <time>2026-07-12T17:07:20.000Z</time>
      </trkpt>
      <trkpt lat="43.38303" lon="-1.72639">
        <ele>20</ele>
        <time>2026-07-12T17:07:25.000Z</time>
      </trkpt>
      <trkpt lat="43.38293" lon="-1.72648">
        <ele>20</ele>
        <time>2026-07-12T17:07:27.000Z</time>
      </trkpt>
      <trkpt lat="43.38264" lon="-1.72674">
        <ele>20</ele>
        <time>2026-07-12T17:07:33.000Z</time>
      </trkpt>
      <trkpt lat="43.38243" lon="-1.72693">
        <ele>20</ele>
        <time>2026-07-12T17:07:38.000Z</time>
      </trkpt>
      <trkpt lat="43.38239" lon="-1.72697">
        <ele>20</ele>
        <time>2026-07-12T17:07:39.000Z</time>
      </trkpt>
      <trkpt lat="43.38228" lon="-1.7271">
        <ele>19</ele>
        <time>2026-07-12T17:07:41.000Z</time>
      </trkpt>
      <trkpt lat="43.38222" lon="-1.72718">
        <ele>18</ele>
        <time>2026-07-12T17:07:43.000Z</time>
      </trkpt>
      <trkpt lat="43.38217" lon="-1.72727">
        <ele>18</ele>
        <time>2026-07-12T17:07:44.000Z</time>
      </trkpt>
      <trkpt lat="43.38213" lon="-1.72735">
        <ele>17</ele>
        <time>2026-07-12T17:07:46.000Z</time>
      </trkpt>
      <trkpt lat="43.38209" lon="-1.72745">
        <ele>16</ele>
        <time>2026-07-12T17:07:47.000Z</time>
      </trkpt>
      <trkpt lat="43.38207" lon="-1.72753">
        <ele>16</ele>
        <time>2026-07-12T17:07:48.000Z</time>
      </trkpt>
      <trkpt lat="43.38206" lon="-1.72755">
        <ele>16</ele>
        <time>2026-07-12T17:07:48.000Z</time>
      </trkpt>
      <trkpt lat="43.38202" lon="-1.72771">
        <ele>15</ele>
        <time>2026-07-12T17:07:51.000Z</time>
      </trkpt>
      <trkpt lat="43.38196" lon="-1.72792">
        <ele>15</ele>
        <time>2026-07-12T17:07:54.000Z</time>
      </trkpt>
      <trkpt lat="43.38196" lon="-1.72794">
        <ele>15</ele>
        <time>2026-07-12T17:07:54.000Z</time>
      </trkpt>
      <trkpt lat="43.3819" lon="-1.72816">
        <ele>15</ele>
        <time>2026-07-12T17:07:57.000Z</time>
      </trkpt>
      <trkpt lat="43.38188" lon="-1.72824">
        <ele>14</ele>
        <time>2026-07-12T17:07:58.000Z</time>
      </trkpt>
      <trkpt lat="43.38183" lon="-1.72843">
        <ele>15</ele>
        <time>2026-07-12T17:08:01.000Z</time>
      </trkpt>
      <trkpt lat="43.38176" lon="-1.72873">
        <ele>15</ele>
        <time>2026-07-12T17:08:05.000Z</time>
      </trkpt>
      <trkpt lat="43.38174" lon="-1.72885">
        <ele>15</ele>
        <time>2026-07-12T17:08:06.000Z</time>
      </trkpt>
      <trkpt lat="43.38172" lon="-1.72894">
        <ele>15</ele>
        <time>2026-07-12T17:08:07.000Z</time>
      </trkpt>
      <trkpt lat="43.3817" lon="-1.72901">
        <ele>15</ele>
        <time>2026-07-12T17:08:08.000Z</time>
      </trkpt>
      <trkpt lat="43.38169" lon="-1.72909">
        <ele>15</ele>
        <time>2026-07-12T17:08:09.000Z</time>
      </trkpt>
      <trkpt lat="43.38168" lon="-1.7292">
        <ele>15</ele>
        <time>2026-07-12T17:08:11.000Z</time>
      </trkpt>
      <trkpt lat="43.38167" lon="-1.72934">
        <ele>15</ele>
        <time>2026-07-12T17:08:13.000Z</time>
      </trkpt>
      <trkpt lat="43.38167" lon="-1.72945">
        <ele>15</ele>
        <time>2026-07-12T17:08:14.000Z</time>
      </trkpt>
      <trkpt lat="43.38168" lon="-1.72956">
        <ele>15</ele>
        <time>2026-07-12T17:08:16.000Z</time>
      </trkpt>
      <trkpt lat="43.38169" lon="-1.7297">
        <ele>15</ele>
        <time>2026-07-12T17:08:17.000Z</time>
      </trkpt>
      <trkpt lat="43.38171" lon="-1.72993">
        <ele>14</ele>
        <time>2026-07-12T17:08:20.000Z</time>
      </trkpt>
      <trkpt lat="43.38174" lon="-1.73011">
        <ele>14</ele>
        <time>2026-07-12T17:08:23.000Z</time>
      </trkpt>
      <trkpt lat="43.38178" lon="-1.73037">
        <ele>14</ele>
        <time>2026-07-12T17:08:26.000Z</time>
      </trkpt>
      <trkpt lat="43.3818" lon="-1.73058">
        <ele>15</ele>
        <time>2026-07-12T17:08:29.000Z</time>
      </trkpt>
      <trkpt lat="43.38184" lon="-1.73087">
        <ele>15</ele>
        <time>2026-07-12T17:08:33.000Z</time>
      </trkpt>
      <trkpt lat="43.38186" lon="-1.73105">
        <ele>14</ele>
        <time>2026-07-12T17:08:35.000Z</time>
      </trkpt>
      <trkpt lat="43.38186" lon="-1.73115">
        <ele>14</ele>
        <time>2026-07-12T17:08:36.000Z</time>
      </trkpt>
      <trkpt lat="43.38186" lon="-1.73126">
        <ele>14</ele>
        <time>2026-07-12T17:08:38.000Z</time>
      </trkpt>
      <trkpt lat="43.38185" lon="-1.73136">
        <ele>14</ele>
        <time>2026-07-12T17:08:39.000Z</time>
      </trkpt>
      <trkpt lat="43.38182" lon="-1.73148">
        <ele>15</ele>
        <time>2026-07-12T17:08:41.000Z</time>
      </trkpt>
      <trkpt lat="43.3818" lon="-1.73158">
        <ele>15</ele>
        <time>2026-07-12T17:08:42.000Z</time>
      </trkpt>
      <trkpt lat="43.38177" lon="-1.73166">
        <ele>16</ele>
        <time>2026-07-12T17:08:43.000Z</time>
      </trkpt>
      <trkpt lat="43.38175" lon="-1.73172">
        <ele>16</ele>
        <time>2026-07-12T17:08:44.000Z</time>
      </trkpt>
      <trkpt lat="43.38172" lon="-1.73179">
        <ele>15</ele>
        <time>2026-07-12T17:08:45.000Z</time>
      </trkpt>
      <trkpt lat="43.38163" lon="-1.73192">
        <ele>15</ele>
        <time>2026-07-12T17:08:47.000Z</time>
      </trkpt>
      <trkpt lat="43.38158" lon="-1.732">
        <ele>14</ele>
        <time>2026-07-12T17:08:49.000Z</time>
      </trkpt>
      <trkpt lat="43.38155" lon="-1.73204">
        <ele>14</ele>
        <time>2026-07-12T17:08:50.000Z</time>
      </trkpt>
      <trkpt lat="43.38152" lon="-1.73207">
        <ele>13</ele>
        <time>2026-07-12T17:08:50.000Z</time>
      </trkpt>
      <trkpt lat="43.38144" lon="-1.73215">
        <ele>13</ele>
        <time>2026-07-12T17:08:52.000Z</time>
      </trkpt>
      <trkpt lat="43.38136" lon="-1.7322">
        <ele>12</ele>
        <time>2026-07-12T17:08:54.000Z</time>
      </trkpt>
      <trkpt lat="43.38124" lon="-1.73227">
        <ele>11</ele>
        <time>2026-07-12T17:08:56.000Z</time>
      </trkpt>
      <trkpt lat="43.38121" lon="-1.73228">
        <ele>11</ele>
        <time>2026-07-12T17:08:56.000Z</time>
      </trkpt>
      <trkpt lat="43.38114" lon="-1.7323">
        <ele>11</ele>
        <time>2026-07-12T17:08:58.000Z</time>
      </trkpt>
      <trkpt lat="43.38107" lon="-1.73231">
        <ele>11</ele>
        <time>2026-07-12T17:08:59.000Z</time>
      </trkpt>
      <trkpt lat="43.38098" lon="-1.73231">
        <ele>12</ele>
        <time>2026-07-12T17:09:01.000Z</time>
      </trkpt>
      <trkpt lat="43.38089" lon="-1.73231">
        <ele>12</ele>
        <time>2026-07-12T17:09:02.000Z</time>
      </trkpt>
      <trkpt lat="43.38083" lon="-1.7323">
        <ele>12</ele>
        <time>2026-07-12T17:09:03.000Z</time>
      </trkpt>
      <trkpt lat="43.38059" lon="-1.7323">
        <ele>13</ele>
        <time>2026-07-12T17:09:08.000Z</time>
      </trkpt>
      <trkpt lat="43.3805" lon="-1.7323">
        <ele>13</ele>
        <time>2026-07-12T17:09:09.000Z</time>
      </trkpt>
      <trkpt lat="43.38043" lon="-1.73231">
        <ele>12</ele>
        <time>2026-07-12T17:09:10.000Z</time>
      </trkpt>
      <trkpt lat="43.38039" lon="-1.73231">
        <ele>12</ele>
        <time>2026-07-12T17:09:11.000Z</time>
      </trkpt>
      <trkpt lat="43.38031" lon="-1.73237">
        <ele>12</ele>
        <time>2026-07-12T17:09:13.000Z</time>
      </trkpt>
      <trkpt lat="43.38021" lon="-1.73241">
        <ele>11</ele>
        <time>2026-07-12T17:09:15.000Z</time>
      </trkpt>
      <trkpt lat="43.38012" lon="-1.73248">
        <ele>10</ele>
        <time>2026-07-12T17:09:16.000Z</time>
      </trkpt>
      <trkpt lat="43.38001" lon="-1.73254">
        <ele>10</ele>
        <time>2026-07-12T17:09:19.000Z</time>
      </trkpt>
      <trkpt lat="43.37997" lon="-1.73257">
        <ele>10</ele>
        <time>2026-07-12T17:09:19.000Z</time>
      </trkpt>
      <trkpt lat="43.37987" lon="-1.73263">
        <ele>10</ele>
        <time>2026-07-12T17:09:21.000Z</time>
      </trkpt>
      <trkpt lat="43.37981" lon="-1.73266">
        <ele>11</ele>
        <time>2026-07-12T17:09:22.000Z</time>
      </trkpt>
      <trkpt lat="43.37979" lon="-1.73268">
        <ele>11</ele>
        <time>2026-07-12T17:09:23.000Z</time>
      </trkpt>
      <trkpt lat="43.3795" lon="-1.73288">
        <ele>12</ele>
        <time>2026-07-12T17:09:29.000Z</time>
      </trkpt>
      <trkpt lat="43.37932" lon="-1.73302">
        <ele>12</ele>
        <time>2026-07-12T17:09:32.000Z</time>
      </trkpt>
      <trkpt lat="43.37915" lon="-1.73318">
        <ele>12</ele>
        <time>2026-07-12T17:09:36.000Z</time>
      </trkpt>
      <trkpt lat="43.37904" lon="-1.7333">
        <ele>12</ele>
        <time>2026-07-12T17:09:38.000Z</time>
      </trkpt>
      <trkpt lat="43.37896" lon="-1.7334">
        <ele>12</ele>
        <time>2026-07-12T17:09:40.000Z</time>
      </trkpt>
      <trkpt lat="43.37889" lon="-1.73345">
        <ele>12</ele>
        <time>2026-07-12T17:09:42.000Z</time>
      </trkpt>
      <trkpt lat="43.3788" lon="-1.73358">
        <ele>13</ele>
        <time>2026-07-12T17:09:44.000Z</time>
      </trkpt>
      <trkpt lat="43.37873" lon="-1.73368">
        <ele>13</ele>
        <time>2026-07-12T17:09:46.000Z</time>
      </trkpt>
      <trkpt lat="43.37872" lon="-1.7337">
        <ele>13</ele>
        <time>2026-07-12T17:09:46.000Z</time>
      </trkpt>
      <trkpt lat="43.37855" lon="-1.73397">
        <ele>13</ele>
        <time>2026-07-12T17:09:51.000Z</time>
      </trkpt>
      <trkpt lat="43.37841" lon="-1.7342">
        <ele>14</ele>
        <time>2026-07-12T17:09:55.000Z</time>
      </trkpt>
      <trkpt lat="43.37837" lon="-1.73426">
        <ele>14</ele>
        <time>2026-07-12T17:09:56.000Z</time>
      </trkpt>
      <trkpt lat="43.37827" lon="-1.73442">
        <ele>15</ele>
        <time>2026-07-12T17:09:58.000Z</time>
      </trkpt>
      <trkpt lat="43.37824" lon="-1.73446">
        <ele>15</ele>
        <time>2026-07-12T17:09:59.000Z</time>
      </trkpt>
      <trkpt lat="43.37823" lon="-1.73448">
        <ele>15</ele>
        <time>2026-07-12T17:10:00.000Z</time>
      </trkpt>
      <trkpt lat="43.37803" lon="-1.7348">
        <ele>17</ele>
        <time>2026-07-12T17:10:05.000Z</time>
      </trkpt>
      <trkpt lat="43.37773" lon="-1.73527">
        <ele>20</ele>
        <time>2026-07-12T17:10:13.000Z</time>
      </trkpt>
      <trkpt lat="43.37768" lon="-1.73536">
        <ele>20</ele>
        <time>2026-07-12T17:10:15.000Z</time>
      </trkpt>
      <trkpt lat="43.37762" lon="-1.73544">
        <ele>21</ele>
        <time>2026-07-12T17:10:16.000Z</time>
      </trkpt>
      <trkpt lat="43.37756" lon="-1.73554">
        <ele>22</ele>
        <time>2026-07-12T17:10:18.000Z</time>
      </trkpt>
      <trkpt lat="43.37751" lon="-1.73562">
        <ele>23</ele>
        <time>2026-07-12T17:10:19.000Z</time>
      </trkpt>
      <trkpt lat="43.37746" lon="-1.73575">
        <ele>24</ele>
        <time>2026-07-12T17:10:21.000Z</time>
      </trkpt>
      <trkpt lat="43.37743" lon="-1.7358">
        <ele>25</ele>
        <time>2026-07-12T17:10:22.000Z</time>
      </trkpt>
      <trkpt lat="43.3774" lon="-1.73589">
        <ele>25</ele>
        <time>2026-07-12T17:10:23.000Z</time>
      </trkpt>
      <trkpt lat="43.37737" lon="-1.73599">
        <ele>25</ele>
        <time>2026-07-12T17:10:25.000Z</time>
      </trkpt>
      <trkpt lat="43.37736" lon="-1.73603">
        <ele>25</ele>
        <time>2026-07-12T17:10:25.000Z</time>
      </trkpt>
      <trkpt lat="43.37734" lon="-1.73614">
        <ele>25</ele>
        <time>2026-07-12T17:10:27.000Z</time>
      </trkpt>
      <trkpt lat="43.37734" lon="-1.73619">
        <ele>24</ele>
        <time>2026-07-12T17:10:27.000Z</time>
      </trkpt>
      <trkpt lat="43.37733" lon="-1.73625">
        <ele>24</ele>
        <time>2026-07-12T17:10:28.000Z</time>
      </trkpt>
      <trkpt lat="43.37733" lon="-1.73628">
        <ele>24</ele>
        <time>2026-07-12T17:10:28.000Z</time>
      </trkpt>
      <trkpt lat="43.37732" lon="-1.73639">
        <ele>24</ele>
        <time>2026-07-12T17:10:30.000Z</time>
      </trkpt>
      <trkpt lat="43.37732" lon="-1.7364">
        <ele>24</ele>
        <time>2026-07-12T17:10:30.000Z</time>
      </trkpt>
      <trkpt lat="43.37732" lon="-1.73654">
        <ele>24</ele>
        <time>2026-07-12T17:10:32.000Z</time>
      </trkpt>
      <trkpt lat="43.37733" lon="-1.73665">
        <ele>24</ele>
        <time>2026-07-12T17:10:33.000Z</time>
      </trkpt>
      <trkpt lat="43.37734" lon="-1.73672">
        <ele>24</ele>
        <time>2026-07-12T17:10:34.000Z</time>
      </trkpt>
      <trkpt lat="43.37737" lon="-1.73685">
        <ele>24</ele>
        <time>2026-07-12T17:10:36.000Z</time>
      </trkpt>
      <trkpt lat="43.37743" lon="-1.73712">
        <ele>25</ele>
        <time>2026-07-12T17:10:40.000Z</time>
      </trkpt>
      <trkpt lat="43.37745" lon="-1.73717">
        <ele>25</ele>
        <time>2026-07-12T17:10:40.000Z</time>
      </trkpt>
      <trkpt lat="43.37748" lon="-1.73732">
        <ele>26</ele>
        <time>2026-07-12T17:10:42.000Z</time>
      </trkpt>
      <trkpt lat="43.3775" lon="-1.73739">
        <ele>26</ele>
        <time>2026-07-12T17:10:43.000Z</time>
      </trkpt>
      <trkpt lat="43.37751" lon="-1.73744">
        <ele>26</ele>
        <time>2026-07-12T17:10:44.000Z</time>
      </trkpt>
      <trkpt lat="43.37756" lon="-1.73763">
        <ele>26</ele>
        <time>2026-07-12T17:10:47.000Z</time>
      </trkpt>
      <trkpt lat="43.37758" lon="-1.73777">
        <ele>27</ele>
        <time>2026-07-12T17:10:48.000Z</time>
      </trkpt>
      <trkpt lat="43.37759" lon="-1.73791">
        <ele>27</ele>
        <time>2026-07-12T17:10:50.000Z</time>
      </trkpt>
      <trkpt lat="43.3776" lon="-1.73801">
        <ele>28</ele>
        <time>2026-07-12T17:10:51.000Z</time>
      </trkpt>
      <trkpt lat="43.37759" lon="-1.73803">
        <ele>28</ele>
        <time>2026-07-12T17:10:52.000Z</time>
      </trkpt>
      <trkpt lat="43.37758" lon="-1.73813">
        <ele>29</ele>
        <time>2026-07-12T17:10:53.000Z</time>
      </trkpt>
      <trkpt lat="43.37758" lon="-1.73818">
        <ele>29</ele>
        <time>2026-07-12T17:10:54.000Z</time>
      </trkpt>
      <trkpt lat="43.37756" lon="-1.73827">
        <ele>29</ele>
        <time>2026-07-12T17:10:55.000Z</time>
      </trkpt>
      <trkpt lat="43.37752" lon="-1.73841">
        <ele>30</ele>
        <time>2026-07-12T17:10:57.000Z</time>
      </trkpt>
      <trkpt lat="43.37747" lon="-1.73854">
        <ele>31</ele>
        <time>2026-07-12T17:10:59.000Z</time>
      </trkpt>
      <trkpt lat="43.37742" lon="-1.73863">
        <ele>32</ele>
        <time>2026-07-12T17:11:00.000Z</time>
      </trkpt>
      <trkpt lat="43.37735" lon="-1.73874">
        <ele>33</ele>
        <time>2026-07-12T17:11:02.000Z</time>
      </trkpt>
      <trkpt lat="43.3773" lon="-1.73879">
        <ele>33</ele>
        <time>2026-07-12T17:11:03.000Z</time>
      </trkpt>
      <trkpt lat="43.37715" lon="-1.73896">
        <ele>34</ele>
        <time>2026-07-12T17:11:07.000Z</time>
      </trkpt>
      <trkpt lat="43.37704" lon="-1.73906">
        <ele>35</ele>
        <time>2026-07-12T17:11:09.000Z</time>
      </trkpt>
      <trkpt lat="43.37702" lon="-1.73908">
        <ele>35</ele>
        <time>2026-07-12T17:11:10.000Z</time>
      </trkpt>
      <trkpt lat="43.37696" lon="-1.73915">
        <ele>36</ele>
        <time>2026-07-12T17:11:11.000Z</time>
      </trkpt>
      <trkpt lat="43.37677" lon="-1.73934">
        <ele>37</ele>
        <time>2026-07-12T17:11:15.000Z</time>
      </trkpt>
      <trkpt lat="43.3767" lon="-1.73943">
        <ele>37</ele>
        <time>2026-07-12T17:11:17.000Z</time>
      </trkpt>
      <trkpt lat="43.37665" lon="-1.73951">
        <ele>38</ele>
        <time>2026-07-12T17:11:18.000Z</time>
      </trkpt>
      <trkpt lat="43.37657" lon="-1.73965">
        <ele>38</ele>
        <time>2026-07-12T17:11:20.000Z</time>
      </trkpt>
      <trkpt lat="43.37651" lon="-1.73982">
        <ele>39</ele>
        <time>2026-07-12T17:11:23.000Z</time>
      </trkpt>
      <trkpt lat="43.37648" lon="-1.73994">
        <ele>40</ele>
        <time>2026-07-12T17:11:25.000Z</time>
      </trkpt>
      <trkpt lat="43.37645" lon="-1.74005">
        <ele>40</ele>
        <time>2026-07-12T17:11:26.000Z</time>
      </trkpt>
      <trkpt lat="43.37644" lon="-1.74018">
        <ele>41</ele>
        <time>2026-07-12T17:11:28.000Z</time>
      </trkpt>
      <trkpt lat="43.37643" lon="-1.7403">
        <ele>42</ele>
        <time>2026-07-12T17:11:29.000Z</time>
      </trkpt>
      <trkpt lat="43.37643" lon="-1.74038">
        <ele>42</ele>
        <time>2026-07-12T17:11:30.000Z</time>
      </trkpt>
      <trkpt lat="43.37644" lon="-1.74047">
        <ele>42</ele>
        <time>2026-07-12T17:11:32.000Z</time>
      </trkpt>
      <trkpt lat="43.37645" lon="-1.74057">
        <ele>43</ele>
        <time>2026-07-12T17:11:33.000Z</time>
      </trkpt>
      <trkpt lat="43.37646" lon="-1.74067">
        <ele>43</ele>
        <time>2026-07-12T17:11:34.000Z</time>
      </trkpt>
      <trkpt lat="43.37647" lon="-1.74074">
        <ele>43</ele>
        <time>2026-07-12T17:11:35.000Z</time>
      </trkpt>
      <trkpt lat="43.37649" lon="-1.74081">
        <ele>44</ele>
        <time>2026-07-12T17:11:36.000Z</time>
      </trkpt>
      <trkpt lat="43.37656" lon="-1.74104">
        <ele>44</ele>
        <time>2026-07-12T17:11:39.000Z</time>
      </trkpt>
      <trkpt lat="43.37661" lon="-1.74119">
        <ele>44</ele>
        <time>2026-07-12T17:11:41.000Z</time>
      </trkpt>
      <trkpt lat="43.37669" lon="-1.7414">
        <ele>45</ele>
        <time>2026-07-12T17:11:44.000Z</time>
      </trkpt>
      <trkpt lat="43.37686" lon="-1.74187">
        <ele>44</ele>
        <time>2026-07-12T17:11:51.000Z</time>
      </trkpt>
      <trkpt lat="43.37699" lon="-1.74223">
        <ele>44</ele>
        <time>2026-07-12T17:11:56.000Z</time>
      </trkpt>
      <trkpt lat="43.37711" lon="-1.74259">
        <ele>45</ele>
        <time>2026-07-12T17:12:02.000Z</time>
      </trkpt>
      <trkpt lat="43.37719" lon="-1.74279">
        <ele>45</ele>
        <time>2026-07-12T17:12:05.000Z</time>
      </trkpt>
      <trkpt lat="43.37725" lon="-1.74296">
        <ele>46</ele>
        <time>2026-07-12T17:12:07.000Z</time>
      </trkpt>
      <trkpt lat="43.37727" lon="-1.74305">
        <ele>46</ele>
        <time>2026-07-12T17:12:08.000Z</time>
      </trkpt>
      <trkpt lat="43.37729" lon="-1.74315">
        <ele>46</ele>
        <time>2026-07-12T17:12:10.000Z</time>
      </trkpt>
      <trkpt lat="43.37732" lon="-1.74331">
        <ele>47</ele>
        <time>2026-07-12T17:12:12.000Z</time>
      </trkpt>
      <trkpt lat="43.37734" lon="-1.74339">
        <ele>47</ele>
        <time>2026-07-12T17:12:13.000Z</time>
      </trkpt>
      <trkpt lat="43.37734" lon="-1.74345">
        <ele>47</ele>
        <time>2026-07-12T17:12:14.000Z</time>
      </trkpt>
      <trkpt lat="43.37735" lon="-1.74356">
        <ele>48</ele>
        <time>2026-07-12T17:12:15.000Z</time>
      </trkpt>
      <trkpt lat="43.37736" lon="-1.7438">
        <ele>49</ele>
        <time>2026-07-12T17:12:18.000Z</time>
      </trkpt>
      <trkpt lat="43.37738" lon="-1.7443">
        <ele>50</ele>
        <time>2026-07-12T17:12:25.000Z</time>
      </trkpt>
      <trkpt lat="43.37738" lon="-1.74447">
        <ele>51</ele>
        <time>2026-07-12T17:12:27.000Z</time>
      </trkpt>
      <trkpt lat="43.37739" lon="-1.7448">
        <ele>52</ele>
        <time>2026-07-12T17:12:31.000Z</time>
      </trkpt>
      <trkpt lat="43.3774" lon="-1.74502">
        <ele>53</ele>
        <time>2026-07-12T17:12:34.000Z</time>
      </trkpt>
      <trkpt lat="43.37741" lon="-1.74508">
        <ele>53</ele>
        <time>2026-07-12T17:12:35.000Z</time>
      </trkpt>
      <trkpt lat="43.37741" lon="-1.74533">
        <ele>54</ele>
        <time>2026-07-12T17:12:38.000Z</time>
      </trkpt>
      <trkpt lat="43.37741" lon="-1.74539">
        <ele>55</ele>
        <time>2026-07-12T17:12:39.000Z</time>
      </trkpt>
      <trkpt lat="43.3774" lon="-1.7455">
        <ele>55</ele>
        <time>2026-07-12T17:12:40.000Z</time>
      </trkpt>
      <trkpt lat="43.37739" lon="-1.74564">
        <ele>56</ele>
        <time>2026-07-12T17:12:42.000Z</time>
      </trkpt>
      <trkpt lat="43.37737" lon="-1.74584">
        <ele>57</ele>
        <time>2026-07-12T17:12:45.000Z</time>
      </trkpt>
      <trkpt lat="43.37733" lon="-1.74608">
        <ele>57</ele>
        <time>2026-07-12T17:12:48.000Z</time>
      </trkpt>
      <trkpt lat="43.37732" lon="-1.74613">
        <ele>58</ele>
        <time>2026-07-12T17:12:48.000Z</time>
      </trkpt>
      <trkpt lat="43.37726" lon="-1.74639">
        <ele>58</ele>
        <time>2026-07-12T17:12:52.000Z</time>
      </trkpt>
      <trkpt lat="43.37719" lon="-1.74662">
        <ele>58</ele>
        <time>2026-07-12T17:12:55.000Z</time>
      </trkpt>
      <trkpt lat="43.3771" lon="-1.74689">
        <ele>58</ele>
        <time>2026-07-12T17:12:59.000Z</time>
      </trkpt>
      <trkpt lat="43.37697" lon="-1.74722">
        <ele>58</ele>
        <time>2026-07-12T17:13:04.000Z</time>
      </trkpt>
      <trkpt lat="43.37689" lon="-1.74739">
        <ele>58</ele>
        <time>2026-07-12T17:13:06.000Z</time>
      </trkpt>
      <trkpt lat="43.37687" lon="-1.74743">
        <ele>58</ele>
        <time>2026-07-12T17:13:07.000Z</time>
      </trkpt>
      <trkpt lat="43.37679" lon="-1.74759">
        <ele>58</ele>
        <time>2026-07-12T17:13:10.000Z</time>
      </trkpt>
      <trkpt lat="43.37668" lon="-1.74776">
        <ele>58</ele>
        <time>2026-07-12T17:13:13.000Z</time>
      </trkpt>
      <trkpt lat="43.3766" lon="-1.74786">
        <ele>58</ele>
        <time>2026-07-12T17:13:14.000Z</time>
      </trkpt>
      <trkpt lat="43.37652" lon="-1.74797">
        <ele>57</ele>
        <time>2026-07-12T17:13:16.000Z</time>
      </trkpt>
      <trkpt lat="43.37644" lon="-1.74808">
        <ele>57</ele>
        <time>2026-07-12T17:13:18.000Z</time>
      </trkpt>
      <trkpt lat="43.37638" lon="-1.74818">
        <ele>57</ele>
        <time>2026-07-12T17:13:20.000Z</time>
      </trkpt>
      <trkpt lat="43.37632" lon="-1.7483">
        <ele>57</ele>
        <time>2026-07-12T17:13:22.000Z</time>
      </trkpt>
      <trkpt lat="43.37629" lon="-1.74838">
        <ele>57</ele>
        <time>2026-07-12T17:13:23.000Z</time>
      </trkpt>
      <trkpt lat="43.37628" lon="-1.74843">
        <ele>58</ele>
        <time>2026-07-12T17:13:24.000Z</time>
      </trkpt>
      <trkpt lat="43.37625" lon="-1.7485">
        <ele>58</ele>
        <time>2026-07-12T17:13:25.000Z</time>
      </trkpt>
      <trkpt lat="43.37623" lon="-1.74858">
        <ele>59</ele>
        <time>2026-07-12T17:13:26.000Z</time>
      </trkpt>
      <trkpt lat="43.37621" lon="-1.7487">
        <ele>60</ele>
        <time>2026-07-12T17:13:28.000Z</time>
      </trkpt>
      <trkpt lat="43.37619" lon="-1.74881">
        <ele>61</ele>
        <time>2026-07-12T17:13:29.000Z</time>
      </trkpt>
      <trkpt lat="43.37619" lon="-1.74889">
        <ele>62</ele>
        <time>2026-07-12T17:13:30.000Z</time>
      </trkpt>
      <trkpt lat="43.37618" lon="-1.74905">
        <ele>63</ele>
        <time>2026-07-12T17:13:32.000Z</time>
      </trkpt>
      <trkpt lat="43.37617" lon="-1.74912">
        <ele>64</ele>
        <time>2026-07-12T17:13:33.000Z</time>
      </trkpt>
      <trkpt lat="43.37615" lon="-1.74943">
        <ele>65</ele>
        <time>2026-07-12T17:13:37.000Z</time>
      </trkpt>
      <trkpt lat="43.37613" lon="-1.74979">
        <ele>67</ele>
        <time>2026-07-12T17:13:42.000Z</time>
      </trkpt>
      <trkpt lat="43.3761" lon="-1.75">
        <ele>67</ele>
        <time>2026-07-12T17:13:45.000Z</time>
      </trkpt>
      <trkpt lat="43.37606" lon="-1.75025">
        <ele>67</ele>
        <time>2026-07-12T17:13:48.000Z</time>
      </trkpt>
      <trkpt lat="43.376" lon="-1.75059">
        <ele>66</ele>
        <time>2026-07-12T17:13:52.000Z</time>
      </trkpt>
      <trkpt lat="43.37595" lon="-1.75083">
        <ele>66</ele>
        <time>2026-07-12T17:13:56.000Z</time>
      </trkpt>
      <trkpt lat="43.37592" lon="-1.75096">
        <ele>66</ele>
        <time>2026-07-12T17:13:57.000Z</time>
      </trkpt>
      <trkpt lat="43.37591" lon="-1.751">
        <ele>66</ele>
        <time>2026-07-12T17:13:58.000Z</time>
      </trkpt>
      <trkpt lat="43.37589" lon="-1.75106">
        <ele>66</ele>
        <time>2026-07-12T17:13:59.000Z</time>
      </trkpt>
      <trkpt lat="43.37586" lon="-1.75114">
        <ele>66</ele>
        <time>2026-07-12T17:14:00.000Z</time>
      </trkpt>
      <trkpt lat="43.37582" lon="-1.75123">
        <ele>66</ele>
        <time>2026-07-12T17:14:01.000Z</time>
      </trkpt>
      <trkpt lat="43.37577" lon="-1.7513">
        <ele>66</ele>
        <time>2026-07-12T17:14:03.000Z</time>
      </trkpt>
      <trkpt lat="43.37571" lon="-1.75141">
        <ele>66</ele>
        <time>2026-07-12T17:14:04.000Z</time>
      </trkpt>
      <trkpt lat="43.37565" lon="-1.75147">
        <ele>65</ele>
        <time>2026-07-12T17:14:06.000Z</time>
      </trkpt>
      <trkpt lat="43.37559" lon="-1.75153">
        <ele>65</ele>
        <time>2026-07-12T17:14:07.000Z</time>
      </trkpt>
      <trkpt lat="43.37552" lon="-1.75158">
        <ele>64</ele>
        <time>2026-07-12T17:14:08.000Z</time>
      </trkpt>
      <trkpt lat="43.37547" lon="-1.75161">
        <ele>64</ele>
        <time>2026-07-12T17:14:09.000Z</time>
      </trkpt>
      <trkpt lat="43.37543" lon="-1.75164">
        <ele>64</ele>
        <time>2026-07-12T17:14:10.000Z</time>
      </trkpt>
      <trkpt lat="43.37532" lon="-1.75169">
        <ele>63</ele>
        <time>2026-07-12T17:14:12.000Z</time>
      </trkpt>
      <trkpt lat="43.37528" lon="-1.75171">
        <ele>63</ele>
        <time>2026-07-12T17:14:13.000Z</time>
      </trkpt>
      <trkpt lat="43.37511" lon="-1.75183">
        <ele>62</ele>
        <time>2026-07-12T17:14:16.000Z</time>
      </trkpt>
      <trkpt lat="43.37511" lon="-1.75184">
        <ele>62</ele>
        <time>2026-07-12T17:14:17.000Z</time>
      </trkpt>
      <trkpt lat="43.37511" lon="-1.75185">
        <ele>62</ele>
        <time>2026-07-12T17:14:17.000Z</time>
      </trkpt>
      <trkpt lat="43.37511" lon="-1.75187">
        <ele>62</ele>
        <time>2026-07-12T17:14:17.000Z</time>
      </trkpt>
      <trkpt lat="43.3751" lon="-1.75188">
        <ele>62</ele>
        <time>2026-07-12T17:14:17.000Z</time>
      </trkpt>
      <trkpt lat="43.3751" lon="-1.75189">
        <ele>62</ele>
        <time>2026-07-12T17:14:17.000Z</time>
      </trkpt>
      <trkpt lat="43.37509" lon="-1.75191">
        <ele>62</ele>
        <time>2026-07-12T17:14:18.000Z</time>
      </trkpt>
      <trkpt lat="43.37509" lon="-1.75192">
        <ele>61</ele>
        <time>2026-07-12T17:14:18.000Z</time>
      </trkpt>
      <trkpt lat="43.37508" lon="-1.75193">
        <ele>61</ele>
        <time>2026-07-12T17:14:18.000Z</time>
      </trkpt>
      <trkpt lat="43.37507" lon="-1.75194">
        <ele>61</ele>
        <time>2026-07-12T17:14:18.000Z</time>
      </trkpt>
      <trkpt lat="43.37507" lon="-1.75195">
        <ele>61</ele>
        <time>2026-07-12T17:14:18.000Z</time>
      </trkpt>
      <trkpt lat="43.37506" lon="-1.75196">
        <ele>61</ele>
        <time>2026-07-12T17:14:19.000Z</time>
      </trkpt>
      <trkpt lat="43.37505" lon="-1.75197">
        <ele>61</ele>
        <time>2026-07-12T17:14:19.000Z</time>
      </trkpt>
      <trkpt lat="43.37504" lon="-1.75198">
        <ele>61</ele>
        <time>2026-07-12T17:14:19.000Z</time>
      </trkpt>
      <trkpt lat="43.37503" lon="-1.75199">
        <ele>61</ele>
        <time>2026-07-12T17:14:19.000Z</time>
      </trkpt>
      <trkpt lat="43.37501" lon="-1.752">
        <ele>61</ele>
        <time>2026-07-12T17:14:20.000Z</time>
      </trkpt>
      <trkpt lat="43.375" lon="-1.752">
        <ele>61</ele>
        <time>2026-07-12T17:14:20.000Z</time>
      </trkpt>
      <trkpt lat="43.37499" lon="-1.752">
        <ele>61</ele>
        <time>2026-07-12T17:14:20.000Z</time>
      </trkpt>
      <trkpt lat="43.37498" lon="-1.75201">
        <ele>61</ele>
        <time>2026-07-12T17:14:20.000Z</time>
      </trkpt>
      <trkpt lat="43.37497" lon="-1.75201">
        <ele>61</ele>
        <time>2026-07-12T17:14:20.000Z</time>
      </trkpt>
      <trkpt lat="43.37496" lon="-1.75201">
        <ele>61</ele>
        <time>2026-07-12T17:14:21.000Z</time>
      </trkpt>
      <trkpt lat="43.37495" lon="-1.75201">
        <ele>60</ele>
        <time>2026-07-12T17:14:21.000Z</time>
      </trkpt>
      <trkpt lat="43.37494" lon="-1.75201">
        <ele>60</ele>
        <time>2026-07-12T17:14:21.000Z</time>
      </trkpt>
      <trkpt lat="43.37493" lon="-1.75201">
        <ele>60</ele>
        <time>2026-07-12T17:14:21.000Z</time>
      </trkpt>
      <trkpt lat="43.37492" lon="-1.75201">
        <ele>60</ele>
        <time>2026-07-12T17:14:21.000Z</time>
      </trkpt>
      <trkpt lat="43.37491" lon="-1.752">
        <ele>60</ele>
        <time>2026-07-12T17:14:21.000Z</time>
      </trkpt>
      <trkpt lat="43.3749" lon="-1.752">
        <ele>60</ele>
        <time>2026-07-12T17:14:22.000Z</time>
      </trkpt>
      <trkpt lat="43.37489" lon="-1.75199">
        <ele>60</ele>
        <time>2026-07-12T17:14:22.000Z</time>
      </trkpt>
      <trkpt lat="43.37488" lon="-1.75199">
        <ele>60</ele>
        <time>2026-07-12T17:14:22.000Z</time>
      </trkpt>
      <trkpt lat="43.37487" lon="-1.75198">
        <ele>60</ele>
        <time>2026-07-12T17:14:22.000Z</time>
      </trkpt>
      <trkpt lat="43.37486" lon="-1.75197">
        <ele>60</ele>
        <time>2026-07-12T17:14:22.000Z</time>
      </trkpt>
      <trkpt lat="43.37485" lon="-1.75196">
        <ele>60</ele>
        <time>2026-07-12T17:14:23.000Z</time>
      </trkpt>
      <trkpt lat="43.37485" lon="-1.75195">
        <ele>60</ele>
        <time>2026-07-12T17:14:23.000Z</time>
      </trkpt>
      <trkpt lat="43.37484" lon="-1.75194">
        <ele>60</ele>
        <time>2026-07-12T17:14:23.000Z</time>
      </trkpt>
      <trkpt lat="43.37483" lon="-1.75192">
        <ele>60</ele>
        <time>2026-07-12T17:14:23.000Z</time>
      </trkpt>
      <trkpt lat="43.3747" lon="-1.75187">
        <ele>59</ele>
        <time>2026-07-12T17:14:26.000Z</time>
      </trkpt>
      <trkpt lat="43.37466" lon="-1.75187">
        <ele>59</ele>
        <time>2026-07-12T17:14:26.000Z</time>
      </trkpt>
      <trkpt lat="43.37462" lon="-1.75189">
        <ele>58</ele>
        <time>2026-07-12T17:14:27.000Z</time>
      </trkpt>
      <trkpt lat="43.37458" lon="-1.75191">
        <ele>58</ele>
        <time>2026-07-12T17:14:28.000Z</time>
      </trkpt>
      <trkpt lat="43.37448" lon="-1.75196">
        <ele>57</ele>
        <time>2026-07-12T17:14:30.000Z</time>
      </trkpt>
      <trkpt lat="43.37436" lon="-1.75204">
        <ele>57</ele>
        <time>2026-07-12T17:14:32.000Z</time>
      </trkpt>
      <trkpt lat="43.37427" lon="-1.75213">
        <ele>56</ele>
        <time>2026-07-12T17:14:34.000Z</time>
      </trkpt>
      <trkpt lat="43.37415" lon="-1.75227">
        <ele>56</ele>
        <time>2026-07-12T17:14:37.000Z</time>
      </trkpt>
      <trkpt lat="43.37408" lon="-1.75236">
        <ele>55</ele>
        <time>2026-07-12T17:14:39.000Z</time>
      </trkpt>
      <trkpt lat="43.37402" lon="-1.75246">
        <ele>55</ele>
        <time>2026-07-12T17:14:40.000Z</time>
      </trkpt>
      <trkpt lat="43.37394" lon="-1.75261">
        <ele>54</ele>
        <time>2026-07-12T17:14:43.000Z</time>
      </trkpt>
      <trkpt lat="43.37387" lon="-1.75276">
        <ele>53</ele>
        <time>2026-07-12T17:14:45.000Z</time>
      </trkpt>
      <trkpt lat="43.37383" lon="-1.75291">
        <ele>53</ele>
        <time>2026-07-12T17:14:47.000Z</time>
      </trkpt>
      <trkpt lat="43.37379" lon="-1.75307">
        <ele>52</ele>
        <time>2026-07-12T17:14:49.000Z</time>
      </trkpt>
      <trkpt lat="43.37378" lon="-1.75308">
        <ele>52</ele>
        <time>2026-07-12T17:14:50.000Z</time>
      </trkpt>
      <trkpt lat="43.37371" lon="-1.75342">
        <ele>50</ele>
        <time>2026-07-12T17:14:54.000Z</time>
      </trkpt>
      <trkpt lat="43.37363" lon="-1.75387">
        <ele>49</ele>
        <time>2026-07-12T17:15:00.000Z</time>
      </trkpt>
      <trkpt lat="43.37349" lon="-1.75483">
        <ele>46</ele>
        <time>2026-07-12T17:15:13.000Z</time>
      </trkpt>
      <trkpt lat="43.37348" lon="-1.75493">
        <ele>46</ele>
        <time>2026-07-12T17:15:14.000Z</time>
      </trkpt>
      <trkpt lat="43.37347" lon="-1.755">
        <ele>45</ele>
        <time>2026-07-12T17:15:15.000Z</time>
      </trkpt>
      <trkpt lat="43.37347" lon="-1.75503">
        <ele>45</ele>
        <time>2026-07-12T17:15:15.000Z</time>
      </trkpt>
      <trkpt lat="43.37347" lon="-1.7551">
        <ele>45</ele>
        <time>2026-07-12T17:15:16.000Z</time>
      </trkpt>
      <trkpt lat="43.37347" lon="-1.75513">
        <ele>45</ele>
        <time>2026-07-12T17:15:17.000Z</time>
      </trkpt>
      <trkpt lat="43.37348" lon="-1.7552">
        <ele>45</ele>
        <time>2026-07-12T17:15:18.000Z</time>
      </trkpt>
      <trkpt lat="43.37349" lon="-1.75527">
        <ele>45</ele>
        <time>2026-07-12T17:15:19.000Z</time>
      </trkpt>
      <trkpt lat="43.3735" lon="-1.75533">
        <ele>44</ele>
        <time>2026-07-12T17:15:19.000Z</time>
      </trkpt>
      <trkpt lat="43.37352" lon="-1.7554">
        <ele>44</ele>
        <time>2026-07-12T17:15:20.000Z</time>
      </trkpt>
      <trkpt lat="43.37353" lon="-1.75546">
        <ele>44</ele>
        <time>2026-07-12T17:15:21.000Z</time>
      </trkpt>
      <trkpt lat="43.37358" lon="-1.7556">
        <ele>43</ele>
        <time>2026-07-12T17:15:23.000Z</time>
      </trkpt>
      <trkpt lat="43.37361" lon="-1.75568">
        <ele>43</ele>
        <time>2026-07-12T17:15:24.000Z</time>
      </trkpt>
      <trkpt lat="43.37361" lon="-1.75569">
        <ele>43</ele>
        <time>2026-07-12T17:15:24.000Z</time>
      </trkpt>
      <trkpt lat="43.37365" lon="-1.75577">
        <ele>43</ele>
        <time>2026-07-12T17:15:26.000Z</time>
      </trkpt>
      <trkpt lat="43.37368" lon="-1.75583">
        <ele>42</ele>
        <time>2026-07-12T17:15:27.000Z</time>
      </trkpt>
      <trkpt lat="43.37375" lon="-1.75591">
        <ele>42</ele>
        <time>2026-07-12T17:15:28.000Z</time>
      </trkpt>
      <trkpt lat="43.37382" lon="-1.756">
        <ele>42</ele>
        <time>2026-07-12T17:15:30.000Z</time>
      </trkpt>
      <trkpt lat="43.3739" lon="-1.75608">
        <ele>41</ele>
        <time>2026-07-12T17:15:32.000Z</time>
      </trkpt>
      <trkpt lat="43.37399" lon="-1.75615">
        <ele>41</ele>
        <time>2026-07-12T17:15:34.000Z</time>
      </trkpt>
      <trkpt lat="43.3741" lon="-1.75623">
        <ele>40</ele>
        <time>2026-07-12T17:15:36.000Z</time>
      </trkpt>
      <trkpt lat="43.37421" lon="-1.75629">
        <ele>40</ele>
        <time>2026-07-12T17:15:38.000Z</time>
      </trkpt>
      <trkpt lat="43.37431" lon="-1.75636">
        <ele>39</ele>
        <time>2026-07-12T17:15:40.000Z</time>
      </trkpt>
      <trkpt lat="43.37439" lon="-1.75643">
        <ele>38</ele>
        <time>2026-07-12T17:15:42.000Z</time>
      </trkpt>
      <trkpt lat="43.37446" lon="-1.7565">
        <ele>37</ele>
        <time>2026-07-12T17:15:43.000Z</time>
      </trkpt>
      <trkpt lat="43.3745" lon="-1.75655">
        <ele>36</ele>
        <time>2026-07-12T17:15:44.000Z</time>
      </trkpt>
      <trkpt lat="43.37453" lon="-1.7566">
        <ele>36</ele>
        <time>2026-07-12T17:15:45.000Z</time>
      </trkpt>
      <trkpt lat="43.37458" lon="-1.7567">
        <ele>35</ele>
        <time>2026-07-12T17:15:46.000Z</time>
      </trkpt>
      <trkpt lat="43.37461" lon="-1.75675">
        <ele>35</ele>
        <time>2026-07-12T17:15:47.000Z</time>
      </trkpt>
      <trkpt lat="43.37463" lon="-1.7568">
        <ele>34</ele>
        <time>2026-07-12T17:15:48.000Z</time>
      </trkpt>
      <trkpt lat="43.37465" lon="-1.7569">
        <ele>34</ele>
        <time>2026-07-12T17:15:49.000Z</time>
      </trkpt>
      <trkpt lat="43.37467" lon="-1.75702">
        <ele>33</ele>
        <time>2026-07-12T17:15:51.000Z</time>
      </trkpt>
      <trkpt lat="43.37467" lon="-1.75717">
        <ele>33</ele>
        <time>2026-07-12T17:15:53.000Z</time>
      </trkpt>
      <trkpt lat="43.37467" lon="-1.7573">
        <ele>33</ele>
        <time>2026-07-12T17:15:55.000Z</time>
      </trkpt>
      <trkpt lat="43.37464" lon="-1.75744">
        <ele>33</ele>
        <time>2026-07-12T17:15:56.000Z</time>
      </trkpt>
      <trkpt lat="43.37461" lon="-1.75757">
        <ele>32</ele>
        <time>2026-07-12T17:15:58.000Z</time>
      </trkpt>
      <trkpt lat="43.37455" lon="-1.7577">
        <ele>32</ele>
        <time>2026-07-12T17:16:00.000Z</time>
      </trkpt>
      <trkpt lat="43.37447" lon="-1.75784">
        <ele>32</ele>
        <time>2026-07-12T17:16:03.000Z</time>
      </trkpt>
      <trkpt lat="43.37396" lon="-1.7585">
        <ele>30</ele>
        <time>2026-07-12T17:16:15.000Z</time>
      </trkpt>
      <trkpt lat="43.37382" lon="-1.75868">
        <ele>28</ele>
        <time>2026-07-12T17:16:18.000Z</time>
      </trkpt>
      <trkpt lat="43.37376" lon="-1.75878">
        <ele>28</ele>
        <time>2026-07-12T17:16:20.000Z</time>
      </trkpt>
      <trkpt lat="43.37372" lon="-1.75887">
        <ele>27</ele>
        <time>2026-07-12T17:16:21.000Z</time>
      </trkpt>
      <trkpt lat="43.37368" lon="-1.75897">
        <ele>26</ele>
        <time>2026-07-12T17:16:23.000Z</time>
      </trkpt>
      <trkpt lat="43.37364" lon="-1.75913">
        <ele>25</ele>
        <time>2026-07-12T17:16:25.000Z</time>
      </trkpt>
      <trkpt lat="43.37363" lon="-1.75929">
        <ele>24</ele>
        <time>2026-07-12T17:16:27.000Z</time>
      </trkpt>
      <trkpt lat="43.37362" lon="-1.75941">
        <ele>23</ele>
        <time>2026-07-12T17:16:29.000Z</time>
      </trkpt>
      <trkpt lat="43.37363" lon="-1.75955">
        <ele>22</ele>
        <time>2026-07-12T17:16:31.000Z</time>
      </trkpt>
      <trkpt lat="43.37365" lon="-1.75965">
        <ele>22</ele>
        <time>2026-07-12T17:16:32.000Z</time>
      </trkpt>
      <trkpt lat="43.37366" lon="-1.75972">
        <ele>22</ele>
        <time>2026-07-12T17:16:33.000Z</time>
      </trkpt>
      <trkpt lat="43.37369" lon="-1.75981">
        <ele>21</ele>
        <time>2026-07-12T17:16:34.000Z</time>
      </trkpt>
      <trkpt lat="43.37373" lon="-1.75993">
        <ele>20</ele>
        <time>2026-07-12T17:16:36.000Z</time>
      </trkpt>
      <trkpt lat="43.37377" lon="-1.76">
        <ele>20</ele>
        <time>2026-07-12T17:16:37.000Z</time>
      </trkpt>
      <trkpt lat="43.37382" lon="-1.76008">
        <ele>20</ele>
        <time>2026-07-12T17:16:38.000Z</time>
      </trkpt>
      <trkpt lat="43.37388" lon="-1.76016">
        <ele>19</ele>
        <time>2026-07-12T17:16:40.000Z</time>
      </trkpt>
      <trkpt lat="43.37397" lon="-1.76025">
        <ele>19</ele>
        <time>2026-07-12T17:16:42.000Z</time>
      </trkpt>
      <trkpt lat="43.37405" lon="-1.76031">
        <ele>18</ele>
        <time>2026-07-12T17:16:43.000Z</time>
      </trkpt>
      <trkpt lat="43.37415" lon="-1.76036">
        <ele>18</ele>
        <time>2026-07-12T17:16:45.000Z</time>
      </trkpt>
      <trkpt lat="43.37425" lon="-1.76041">
        <ele>17</ele>
        <time>2026-07-12T17:16:47.000Z</time>
      </trkpt>
      <trkpt lat="43.37442" lon="-1.76047">
        <ele>16</ele>
        <time>2026-07-12T17:16:50.000Z</time>
      </trkpt>
      <trkpt lat="43.37453" lon="-1.76051">
        <ele>15</ele>
        <time>2026-07-12T17:16:52.000Z</time>
      </trkpt>
      <trkpt lat="43.37462" lon="-1.76056">
        <ele>15</ele>
        <time>2026-07-12T17:16:54.000Z</time>
      </trkpt>
      <trkpt lat="43.37474" lon="-1.76064">
        <ele>14</ele>
        <time>2026-07-12T17:16:56.000Z</time>
      </trkpt>
      <trkpt lat="43.37482" lon="-1.76071">
        <ele>13</ele>
        <time>2026-07-12T17:16:58.000Z</time>
      </trkpt>
      <trkpt lat="43.37492" lon="-1.7608">
        <ele>13</ele>
        <time>2026-07-12T17:17:00.000Z</time>
      </trkpt>
      <trkpt lat="43.37499" lon="-1.76086">
        <ele>12</ele>
        <time>2026-07-12T17:17:02.000Z</time>
      </trkpt>
      <trkpt lat="43.37512" lon="-1.76102">
        <ele>12</ele>
        <time>2026-07-12T17:17:05.000Z</time>
      </trkpt>
      <trkpt lat="43.37517" lon="-1.76109">
        <ele>11</ele>
        <time>2026-07-12T17:17:06.000Z</time>
      </trkpt>
      <trkpt lat="43.37525" lon="-1.76123">
        <ele>11</ele>
        <time>2026-07-12T17:17:08.000Z</time>
      </trkpt>
      <trkpt lat="43.37535" lon="-1.76141">
        <ele>10</ele>
        <time>2026-07-12T17:17:11.000Z</time>
      </trkpt>
      <trkpt lat="43.37541" lon="-1.76156">
        <ele>9</ele>
        <time>2026-07-12T17:17:14.000Z</time>
      </trkpt>
      <trkpt lat="43.37547" lon="-1.76175">
        <ele>8</ele>
        <time>2026-07-12T17:17:16.000Z</time>
      </trkpt>
      <trkpt lat="43.37555" lon="-1.76209">
        <ele>7</ele>
        <time>2026-07-12T17:17:21.000Z</time>
      </trkpt>
      <trkpt lat="43.37561" lon="-1.76243">
        <ele>6</ele>
        <time>2026-07-12T17:17:25.000Z</time>
      </trkpt>
      <trkpt lat="43.37563" lon="-1.7626">
        <ele>5</ele>
        <time>2026-07-12T17:17:28.000Z</time>
      </trkpt>
      <trkpt lat="43.37563" lon="-1.76276">
        <ele>5</ele>
        <time>2026-07-12T17:17:30.000Z</time>
      </trkpt>
      <trkpt lat="43.3756" lon="-1.76293">
        <ele>4</ele>
        <time>2026-07-12T17:17:32.000Z</time>
      </trkpt>
      <trkpt lat="43.37557" lon="-1.76308">
        <ele>4</ele>
        <time>2026-07-12T17:17:34.000Z</time>
      </trkpt>
      <trkpt lat="43.37526" lon="-1.76433">
        <ele>6</ele>
        <time>2026-07-12T17:17:51.000Z</time>
      </trkpt>
      <trkpt lat="43.37473" lon="-1.76656">
        <ele>3</ele>
        <time>2026-07-12T17:18:21.000Z</time>
      </trkpt>
      <trkpt lat="43.37444" lon="-1.76783">
        <ele>4</ele>
        <time>2026-07-12T17:18:39.000Z</time>
      </trkpt>
      <trkpt lat="43.37426" lon="-1.76879">
        <ele>3</ele>
        <time>2026-07-12T17:18:51.000Z</time>
      </trkpt>
      <trkpt lat="43.37399" lon="-1.76998">
        <ele>2</ele>
        <time>2026-07-12T17:19:08.000Z</time>
      </trkpt>
      <trkpt lat="43.37371" lon="-1.77124">
        <ele>4</ele>
        <time>2026-07-12T17:19:25.000Z</time>
      </trkpt>
      <trkpt lat="43.37346" lon="-1.77249">
        <ele>4</ele>
        <time>2026-07-12T17:19:41.000Z</time>
      </trkpt>
      <trkpt lat="43.37333" lon="-1.77314">
        <ele>4</ele>
        <time>2026-07-12T17:19:50.000Z</time>
      </trkpt>
      <trkpt lat="43.37333" lon="-1.77322">
        <ele>4</ele>
        <time>2026-07-12T17:19:51.000Z</time>
      </trkpt>
      <trkpt lat="43.37333" lon="-1.77331">
        <ele>4</ele>
        <time>2026-07-12T17:19:52.000Z</time>
      </trkpt>
      <trkpt lat="43.37332" lon="-1.77338">
        <ele>4</ele>
        <time>2026-07-12T17:19:53.000Z</time>
      </trkpt>
      <trkpt lat="43.37331" lon="-1.77347">
        <ele>5</ele>
        <time>2026-07-12T17:19:54.000Z</time>
      </trkpt>
      <trkpt lat="43.37329" lon="-1.77353">
        <ele>5</ele>
        <time>2026-07-12T17:19:55.000Z</time>
      </trkpt>
      <trkpt lat="43.37328" lon="-1.77356">
        <ele>5</ele>
        <time>2026-07-12T17:19:56.000Z</time>
      </trkpt>
      <trkpt lat="43.37322" lon="-1.7738">
        <ele>6</ele>
        <time>2026-07-12T17:19:59.000Z</time>
      </trkpt>
      <trkpt lat="43.3732" lon="-1.77393">
        <ele>7</ele>
        <time>2026-07-12T17:20:01.000Z</time>
      </trkpt>
      <trkpt lat="43.3732" lon="-1.77393">
        <ele>7</ele>
        <time>2026-07-12T17:20:01.000Z</time>
      </trkpt>
      <trkpt lat="43.37321" lon="-1.77396">
        <ele>7</ele>
        <time>2026-07-12T17:20:01.000Z</time>
      </trkpt>
      <trkpt lat="43.37322" lon="-1.77398">
        <ele>7</ele>
        <time>2026-07-12T17:20:01.000Z</time>
      </trkpt>
      <trkpt lat="43.37322" lon="-1.77401">
        <ele>7</ele>
        <time>2026-07-12T17:20:02.000Z</time>
      </trkpt>
      <trkpt lat="43.37321" lon="-1.77404">
        <ele>7</ele>
        <time>2026-07-12T17:20:02.000Z</time>
      </trkpt>
      <trkpt lat="43.3732" lon="-1.77407">
        <ele>8</ele>
        <time>2026-07-12T17:20:03.000Z</time>
      </trkpt>
      <trkpt lat="43.37318" lon="-1.77409">
        <ele>8</ele>
        <time>2026-07-12T17:20:03.000Z</time>
      </trkpt>
      <trkpt lat="43.37313" lon="-1.77456">
        <ele>7</ele>
        <time>2026-07-12T17:20:09.000Z</time>
      </trkpt>
      <trkpt lat="43.37312" lon="-1.77462">
        <ele>7</ele>
        <time>2026-07-12T17:20:10.000Z</time>
      </trkpt>
      <trkpt lat="43.37311" lon="-1.77468">
        <ele>7</ele>
        <time>2026-07-12T17:20:11.000Z</time>
      </trkpt>
      <trkpt lat="43.37311" lon="-1.77481">
        <ele>6</ele>
        <time>2026-07-12T17:20:12.000Z</time>
      </trkpt>
      <trkpt lat="43.37309" lon="-1.77502">
        <ele>6</ele>
        <time>2026-07-12T17:20:15.000Z</time>
      </trkpt>
      <trkpt lat="43.37298" lon="-1.77569">
        <ele>5</ele>
        <time>2026-07-12T17:20:24.000Z</time>
      </trkpt>
      <trkpt lat="43.37278" lon="-1.77711">
        <ele>4</ele>
        <time>2026-07-12T17:20:43.000Z</time>
      </trkpt>
      <trkpt lat="43.37273" lon="-1.77751">
        <ele>5</ele>
        <time>2026-07-12T17:20:48.000Z</time>
      </trkpt>
      <trkpt lat="43.37265" lon="-1.77818">
        <ele>4</ele>
        <time>2026-07-12T17:20:57.000Z</time>
      </trkpt>
      <trkpt lat="43.37259" lon="-1.77881">
        <ele>3</ele>
        <time>2026-07-12T17:21:05.000Z</time>
      </trkpt>
      <trkpt lat="43.37257" lon="-1.779">
        <ele>2</ele>
        <time>2026-07-12T17:21:08.000Z</time>
      </trkpt>
      <trkpt lat="43.37246" lon="-1.77981">
        <ele>2</ele>
        <time>2026-07-12T17:21:18.000Z</time>
      </trkpt>
      <trkpt lat="43.37241" lon="-1.78012">
        <ele>3</ele>
        <time>2026-07-12T17:21:22.000Z</time>
      </trkpt>
      <trkpt lat="43.37226" lon="-1.78093">
        <ele>4</ele>
        <time>2026-07-12T17:21:33.000Z</time>
      </trkpt>
      <trkpt lat="43.37213" lon="-1.78203">
        <ele>2</ele>
        <time>2026-07-12T17:21:48.000Z</time>
      </trkpt>
      <trkpt lat="43.37195" lon="-1.78312">
        <ele>3</ele>
        <time>2026-07-12T17:22:02.000Z</time>
      </trkpt>
      <trkpt lat="43.37189" lon="-1.78345">
        <ele>3</ele>
        <time>2026-07-12T17:22:06.000Z</time>
      </trkpt>
      <trkpt lat="43.37164" lon="-1.78467">
        <ele>5</ele>
        <time>2026-07-12T17:22:23.000Z</time>
      </trkpt>
      <trkpt lat="43.37138" lon="-1.78588">
        <ele>4</ele>
        <time>2026-07-12T17:22:39.000Z</time>
      </trkpt>
      <trkpt lat="43.3713" lon="-1.78627">
        <ele>2</ele>
        <time>2026-07-12T17:22:44.000Z</time>
      </trkpt>
      <trkpt lat="43.37129" lon="-1.78628">
        <ele>2</ele>
        <time>2026-07-12T17:22:45.000Z</time>
      </trkpt>
      <trkpt lat="43.37128" lon="-1.7863">
        <ele>2</ele>
        <time>2026-07-12T17:22:45.000Z</time>
      </trkpt>
      <trkpt lat="43.37127" lon="-1.78633">
        <ele>2</ele>
        <time>2026-07-12T17:22:45.000Z</time>
      </trkpt>
      <trkpt lat="43.37124" lon="-1.78637">
        <ele>2</ele>
        <time>2026-07-12T17:22:46.000Z</time>
      </trkpt>
      <trkpt lat="43.37122" lon="-1.78638">
        <ele>2</ele>
        <time>2026-07-12T17:22:46.000Z</time>
      </trkpt>
      <trkpt lat="43.37121" lon="-1.78639">
        <ele>2</ele>
        <time>2026-07-12T17:22:47.000Z</time>
      </trkpt>
      <trkpt lat="43.37117" lon="-1.78641">
        <ele>2</ele>
        <time>2026-07-12T17:22:47.000Z</time>
      </trkpt>
      <trkpt lat="43.37116" lon="-1.78652">
        <ele>2</ele>
        <time>2026-07-12T17:22:49.000Z</time>
      </trkpt>
      <trkpt lat="43.37113" lon="-1.7866">
        <ele>1</ele>
        <time>2026-07-12T17:22:50.000Z</time>
      </trkpt>
      <trkpt lat="43.37111" lon="-1.78668">
        <ele>1</ele>
        <time>2026-07-12T17:22:51.000Z</time>
      </trkpt>
      <trkpt lat="43.37109" lon="-1.78673">
        <ele>1</ele>
        <time>2026-07-12T17:22:52.000Z</time>
      </trkpt>
      <trkpt lat="43.37109" lon="-1.78673">
        <ele>1</ele>
        <time>2026-07-12T17:22:52.000Z</time>
      </trkpt>
      <trkpt lat="43.37107" lon="-1.78669">
        <ele>1</ele>
        <time>2026-07-12T17:22:52.000Z</time>
      </trkpt>
      <trkpt lat="43.37107" lon="-1.78668">
        <ele>1</ele>
        <time>2026-07-12T17:22:53.000Z</time>
      </trkpt>
      <trkpt lat="43.37105" lon="-1.78667">
        <ele>1</ele>
        <time>2026-07-12T17:22:53.000Z</time>
      </trkpt>
      <trkpt lat="43.37103" lon="-1.78663">
        <ele>1</ele>
        <time>2026-07-12T17:22:54.000Z</time>
      </trkpt>
      <trkpt lat="43.37102" lon="-1.78658">
        <ele>1</ele>
        <time>2026-07-12T17:22:54.000Z</time>
      </trkpt>
      <trkpt lat="43.37098" lon="-1.78649">
        <ele>2</ele>
        <time>2026-07-12T17:22:56.000Z</time>
      </trkpt>
      <trkpt lat="43.37096" lon="-1.78647">
        <ele>2</ele>
        <time>2026-07-12T17:22:56.000Z</time>
      </trkpt>
      <trkpt lat="43.37093" lon="-1.78644">
        <ele>2</ele>
        <time>2026-07-12T17:22:57.000Z</time>
      </trkpt>
      <trkpt lat="43.3708" lon="-1.78631">
        <ele>3</ele>
        <time>2026-07-12T17:23:00.000Z</time>
      </trkpt>
      <trkpt lat="43.37077" lon="-1.78628">
        <ele>3</ele>
        <time>2026-07-12T17:23:00.000Z</time>
      </trkpt>
      <trkpt lat="43.3707" lon="-1.78625">
        <ele>2</ele>
        <time>2026-07-12T17:23:02.000Z</time>
      </trkpt>
      <trkpt lat="43.37042" lon="-1.78602">
        <ele>2</ele>
        <time>2026-07-12T17:23:07.000Z</time>
      </trkpt>
      <trkpt lat="43.37036" lon="-1.78596">
        <ele>1</ele>
        <time>2026-07-12T17:23:09.000Z</time>
      </trkpt>
      <trkpt lat="43.37032" lon="-1.78588">
        <ele>1</ele>
        <time>2026-07-12T17:23:10.000Z</time>
      </trkpt>
      <trkpt lat="43.37028" lon="-1.78577">
        <ele>1</ele>
        <time>2026-07-12T17:23:12.000Z</time>
      </trkpt>
      <trkpt lat="43.37026" lon="-1.78563">
        <ele>1</ele>
        <time>2026-07-12T17:23:13.000Z</time>
      </trkpt>
      <trkpt lat="43.37025" lon="-1.7855">
        <ele>1</ele>
        <time>2026-07-12T17:23:15.000Z</time>
      </trkpt>
      <trkpt lat="43.37026" lon="-1.78538">
        <ele>1</ele>
        <time>2026-07-12T17:23:17.000Z</time>
      </trkpt>
      <trkpt lat="43.3703" lon="-1.78518">
        <ele>1</ele>
        <time>2026-07-12T17:23:19.000Z</time>
      </trkpt>
      <trkpt lat="43.3703" lon="-1.78515">
        <ele>1</ele>
        <time>2026-07-12T17:23:20.000Z</time>
      </trkpt>
      <trkpt lat="43.3703" lon="-1.78513">
        <ele>1</ele>
        <time>2026-07-12T17:23:20.000Z</time>
      </trkpt>
      <trkpt lat="43.37029" lon="-1.7851">
        <ele>1</ele>
        <time>2026-07-12T17:23:20.000Z</time>
      </trkpt>
      <trkpt lat="43.37022" lon="-1.78493">
        <ele>1</ele>
        <time>2026-07-12T17:23:23.000Z</time>
      </trkpt>
      <trkpt lat="43.37022" lon="-1.78489">
        <ele>1</ele>
        <time>2026-07-12T17:23:23.000Z</time>
      </trkpt>
      <trkpt lat="43.37022" lon="-1.78485">
        <ele>1</ele>
        <time>2026-07-12T17:23:24.000Z</time>
      </trkpt>
      <trkpt lat="43.37025" lon="-1.78464">
        <ele>1</ele>
        <time>2026-07-12T17:23:27.000Z</time>
      </trkpt>
      <trkpt lat="43.37042" lon="-1.78374">
        <ele>1</ele>
        <time>2026-07-12T17:23:39.000Z</time>
      </trkpt>
      <trkpt lat="43.37042" lon="-1.78374">
        <ele>1</ele>
        <time>2026-07-12T17:23:39.000Z</time>
      </trkpt>
      <trkpt lat="43.37045" lon="-1.78357">
        <ele>2</ele>
        <time>2026-07-12T17:23:41.000Z</time>
      </trkpt>
      <trkpt lat="43.37046" lon="-1.78353">
        <ele>2</ele>
        <time>2026-07-12T17:23:42.000Z</time>
      </trkpt>
      <trkpt lat="43.37048" lon="-1.78351">
        <ele>2</ele>
        <time>2026-07-12T17:23:42.000Z</time>
      </trkpt>
      <trkpt lat="43.37059" lon="-1.78347">
        <ele>2</ele>
        <time>2026-07-12T17:23:44.000Z</time>
      </trkpt>
      <trkpt lat="43.3706" lon="-1.78345">
        <ele>3</ele>
        <time>2026-07-12T17:23:44.000Z</time>
      </trkpt>
      <trkpt lat="43.37062" lon="-1.78343">
        <ele>3</ele>
        <time>2026-07-12T17:23:45.000Z</time>
      </trkpt>
      <trkpt lat="43.37071" lon="-1.78293">
        <ele>4</ele>
        <time>2026-07-12T17:23:51.000Z</time>
      </trkpt>
      <trkpt lat="43.37073" lon="-1.7828">
        <ele>4</ele>
        <time>2026-07-12T17:23:53.000Z</time>
      </trkpt>
      <trkpt lat="43.37074" lon="-1.78277">
        <ele>4</ele>
        <time>2026-07-12T17:23:54.000Z</time>
      </trkpt>
      <trkpt lat="43.37073" lon="-1.78274">
        <ele>4</ele>
        <time>2026-07-12T17:23:54.000Z</time>
      </trkpt>
      <trkpt lat="43.37061" lon="-1.78221">
        <ele>4</ele>
        <time>2026-07-12T17:24:01.000Z</time>
      </trkpt>
      <trkpt lat="43.37057" lon="-1.78203">
        <ele>4</ele>
        <time>2026-07-12T17:24:04.000Z</time>
      </trkpt>
      <trkpt lat="43.3704" lon="-1.78126">
        <ele>4</ele>
        <time>2026-07-12T17:24:14.000Z</time>
      </trkpt>
      <trkpt lat="43.37039" lon="-1.78123">
        <ele>4</ele>
        <time>2026-07-12T17:24:14.000Z</time>
      </trkpt>
      <trkpt lat="43.37038" lon="-1.78121">
        <ele>4</ele>
        <time>2026-07-12T17:24:15.000Z</time>
      </trkpt>
      <trkpt lat="43.37035" lon="-1.7812">
        <ele>4</ele>
        <time>2026-07-12T17:24:15.000Z</time>
      </trkpt>
      <trkpt lat="43.37034" lon="-1.7812">
        <ele>4</ele>
        <time>2026-07-12T17:24:16.000Z</time>
      </trkpt>
      <trkpt lat="43.36961" lon="-1.78096">
        <ele>2</ele>
        <time>2026-07-12T17:24:29.000Z</time>
      </trkpt>
      <trkpt lat="43.36959" lon="-1.78095">
        <ele>2</ele>
        <time>2026-07-12T17:24:29.000Z</time>
      </trkpt>
      <trkpt lat="43.36958" lon="-1.78093">
        <ele>2</ele>
        <time>2026-07-12T17:24:30.000Z</time>
      </trkpt>
      <trkpt lat="43.36957" lon="-1.78091">
        <ele>2</ele>
        <time>2026-07-12T17:24:30.000Z</time>
      </trkpt>
      <trkpt lat="43.36957" lon="-1.78088">
        <ele>2</ele>
        <time>2026-07-12T17:24:30.000Z</time>
      </trkpt>
      <trkpt lat="43.3697" lon="-1.7801">
        <ele>3</ele>
        <time>2026-07-12T17:24:41.000Z</time>
      </trkpt>
      <trkpt lat="43.3697" lon="-1.7801">
        <ele>3</ele>
        <time>2026-07-12T17:24:41.000Z</time>
      </trkpt>
      <trkpt lat="43.36986" lon="-1.78016">
        <ele>3</ele>
        <time>2026-07-12T17:24:44.000Z</time>
      </trkpt>
      <trkpt lat="43.36997" lon="-1.78019">
        <ele>3</ele>
        <time>2026-07-12T17:24:46.000Z</time>
      </trkpt>
      <trkpt lat="43.37005" lon="-1.78022">
        <ele>3</ele>
        <time>2026-07-12T17:24:47.000Z</time>
      </trkpt>
      <trkpt lat="43.37005" lon="-1.78022">
        <ele>3</ele>
        <time>2026-07-12T17:24:47.000Z</time>
      </trkpt>
      <trkpt lat="43.37007" lon="-1.78013">
        <ele>3</ele>
        <time>2026-07-12T17:24:48.000Z</time>
      </trkpt>
      <trkpt lat="43.3701" lon="-1.78003">
        <ele>3</ele>
        <time>2026-07-12T17:24:50.000Z</time>
      </trkpt>
      <trkpt lat="43.37014" lon="-1.77995">
        <ele>4</ele>
        <time>2026-07-12T17:24:51.000Z</time>
      </trkpt>
      <trkpt lat="43.37016" lon="-1.77992">
        <ele>4</ele>
        <time>2026-07-12T17:24:51.000Z</time>
      </trkpt>
      <trkpt lat="43.37011" lon="-1.77978">
        <ele>4</ele>
        <time>2026-07-12T17:24:53.000Z</time>
      </trkpt>
      <trkpt lat="43.3701" lon="-1.77973">
        <ele>4</ele>
        <time>2026-07-12T17:24:54.000Z</time>
      </trkpt>
      <trkpt lat="43.37008" lon="-1.77966">
        <ele>4</ele>
        <time>2026-07-12T17:24:55.000Z</time>
      </trkpt>
      <trkpt lat="43.37007" lon="-1.77961">
        <ele>4</ele>
        <time>2026-07-12T17:24:56.000Z</time>
      </trkpt>
      <trkpt lat="43.37005" lon="-1.77953">
        <ele>4</ele>
        <time>2026-07-12T17:24:57.000Z</time>
      </trkpt>
      <trkpt lat="43.37001" lon="-1.77938">
        <ele>5</ele>
        <time>2026-07-12T17:24:59.000Z</time>
      </trkpt>
      <trkpt lat="43.37" lon="-1.77928">
        <ele>5</ele>
        <time>2026-07-12T17:25:00.000Z</time>
      </trkpt>
      <trkpt lat="43.37001" lon="-1.77918">
        <ele>5</ele>
        <time>2026-07-12T17:25:02.000Z</time>
      </trkpt>
      <trkpt lat="43.37003" lon="-1.77903">
        <ele>5</ele>
        <time>2026-07-12T17:25:04.000Z</time>
      </trkpt>
      <trkpt lat="43.37009" lon="-1.77882">
        <ele>5</ele>
        <time>2026-07-12T17:25:06.000Z</time>
      </trkpt>
      <trkpt lat="43.3701" lon="-1.77879">
        <ele>5</ele>
        <time>2026-07-12T17:25:07.000Z</time>
      </trkpt>
      <trkpt lat="43.37014" lon="-1.77865">
        <ele>5</ele>
        <time>2026-07-12T17:25:09.000Z</time>
      </trkpt>
      <trkpt lat="43.37019" lon="-1.77843">
        <ele>4</ele>
        <time>2026-07-12T17:25:12.000Z</time>
      </trkpt>
      <trkpt lat="43.37025" lon="-1.77815">
        <ele>4</ele>
        <time>2026-07-12T17:25:16.000Z</time>
      </trkpt>
      <trkpt lat="43.37028" lon="-1.77802">
        <ele>4</ele>
        <time>2026-07-12T17:25:17.000Z</time>
      </trkpt>
      <trkpt lat="43.37031" lon="-1.77791">
        <ele>4</ele>
        <time>2026-07-12T17:25:19.000Z</time>
      </trkpt>
      <trkpt lat="43.37035" lon="-1.77769">
        <ele>4</ele>
        <time>2026-07-12T17:25:22.000Z</time>
      </trkpt>
      <trkpt lat="43.37036" lon="-1.77744">
        <ele>4</ele>
        <time>2026-07-12T17:25:25.000Z</time>
      </trkpt>
      <trkpt lat="43.37035" lon="-1.77744">
        <ele>4</ele>
        <time>2026-07-12T17:25:25.000Z</time>
      </trkpt>
      <trkpt lat="43.37035" lon="-1.77743">
        <ele>4</ele>
        <time>2026-07-12T17:25:25.000Z</time>
      </trkpt>
      <trkpt lat="43.37034" lon="-1.77743">
        <ele>4</ele>
        <time>2026-07-12T17:25:25.000Z</time>
      </trkpt>
      <trkpt lat="43.37033" lon="-1.77743">
        <ele>4</ele>
        <time>2026-07-12T17:25:26.000Z</time>
      </trkpt>
      <trkpt lat="43.37033" lon="-1.77742">
        <ele>4</ele>
        <time>2026-07-12T17:25:26.000Z</time>
      </trkpt>
      <trkpt lat="43.37032" lon="-1.77742">
        <ele>4</ele>
        <time>2026-07-12T17:25:26.000Z</time>
      </trkpt>
      <trkpt lat="43.37032" lon="-1.77741">
        <ele>4</ele>
        <time>2026-07-12T17:25:26.000Z</time>
      </trkpt>
      <trkpt lat="43.37032" lon="-1.7774">
        <ele>4</ele>
        <time>2026-07-12T17:25:26.000Z</time>
      </trkpt>
      <trkpt lat="43.37031" lon="-1.7774">
        <ele>4</ele>
        <time>2026-07-12T17:25:26.000Z</time>
      </trkpt>
      <trkpt lat="43.37031" lon="-1.77739">
        <ele>4</ele>
        <time>2026-07-12T17:25:27.000Z</time>
      </trkpt>
      <trkpt lat="43.37031" lon="-1.77738">
        <ele>4</ele>
        <time>2026-07-12T17:25:27.000Z</time>
      </trkpt>
      <trkpt lat="43.37031" lon="-1.77737">
        <ele>4</ele>
        <time>2026-07-12T17:25:27.000Z</time>
      </trkpt>
      <trkpt lat="43.3703" lon="-1.77737">
        <ele>4</ele>
        <time>2026-07-12T17:25:27.000Z</time>
      </trkpt>
      <trkpt lat="43.3703" lon="-1.77736">
        <ele>4</ele>
        <time>2026-07-12T17:25:27.000Z</time>
      </trkpt>
      <trkpt lat="43.3703" lon="-1.77735">
        <ele>4</ele>
        <time>2026-07-12T17:25:27.000Z</time>
      </trkpt>
      <trkpt lat="43.3703" lon="-1.77734">
        <ele>4</ele>
        <time>2026-07-12T17:25:27.000Z</time>
      </trkpt>
      <trkpt lat="43.3703" lon="-1.77733">
        <ele>4</ele>
        <time>2026-07-12T17:25:27.000Z</time>
      </trkpt>
      <trkpt lat="43.3703" lon="-1.77732">
        <ele>4</ele>
        <time>2026-07-12T17:25:28.000Z</time>
      </trkpt>
      <trkpt lat="43.37031" lon="-1.77732">
        <ele>4</ele>
        <time>2026-07-12T17:25:28.000Z</time>
      </trkpt>
      <trkpt lat="43.37031" lon="-1.77731">
        <ele>4</ele>
        <time>2026-07-12T17:25:28.000Z</time>
      </trkpt>
      <trkpt lat="43.37031" lon="-1.7773">
        <ele>4</ele>
        <time>2026-07-12T17:25:28.000Z</time>
      </trkpt>
      <trkpt lat="43.37032" lon="-1.77729">
        <ele>4</ele>
        <time>2026-07-12T17:25:28.000Z</time>
      </trkpt>
      <trkpt lat="43.37032" lon="-1.77728">
        <ele>4</ele>
        <time>2026-07-12T17:25:28.000Z</time>
      </trkpt>
      <trkpt lat="43.37033" lon="-1.77728">
        <ele>4</ele>
        <time>2026-07-12T17:25:29.000Z</time>
      </trkpt>
      <trkpt lat="43.37033" lon="-1.77727">
        <ele>4</ele>
        <time>2026-07-12T17:25:29.000Z</time>
      </trkpt>
      <trkpt lat="43.37034" lon="-1.77727">
        <ele>4</ele>
        <time>2026-07-12T17:25:29.000Z</time>
      </trkpt>
      <trkpt lat="43.37034" lon="-1.77726">
        <ele>4</ele>
        <time>2026-07-12T17:25:29.000Z</time>
      </trkpt>
      <trkpt lat="43.37035" lon="-1.77726">
        <ele>4</ele>
        <time>2026-07-12T17:25:29.000Z</time>
      </trkpt>
      <trkpt lat="43.37036" lon="-1.77726">
        <ele>4</ele>
        <time>2026-07-12T17:25:29.000Z</time>
      </trkpt>
      <trkpt lat="43.37037" lon="-1.77725">
        <ele>4</ele>
        <time>2026-07-12T17:25:30.000Z</time>
      </trkpt>
      <trkpt lat="43.37037" lon="-1.77726">
        <ele>4</ele>
        <time>2026-07-12T17:25:30.000Z</time>
      </trkpt>
      <trkpt lat="43.37038" lon="-1.77726">
        <ele>4</ele>
        <time>2026-07-12T17:25:30.000Z</time>
      </trkpt>
      <trkpt lat="43.37042" lon="-1.77718">
        <ele>4</ele>
        <time>2026-07-12T17:25:31.000Z</time>
      </trkpt>
      <trkpt lat="43.37046" lon="-1.77702">
        <ele>3</ele>
        <time>2026-07-12T17:25:33.000Z</time>
      </trkpt>
      <trkpt lat="43.37052" lon="-1.77664">
        <ele>3</ele>
        <time>2026-07-12T17:25:38.000Z</time>
      </trkpt>
      <trkpt lat="43.37057" lon="-1.77634">
        <ele>4</ele>
        <time>2026-07-12T17:25:42.000Z</time>
      </trkpt>
      <trkpt lat="43.37062" lon="-1.77609">
        <ele>4</ele>
        <time>2026-07-12T17:25:46.000Z</time>
      </trkpt>
      <trkpt lat="43.37064" lon="-1.77593">
        <ele>4</ele>
        <time>2026-07-12T17:25:48.000Z</time>
      </trkpt>
      <trkpt lat="43.37064" lon="-1.77584">
        <ele>4</ele>
        <time>2026-07-12T17:25:49.000Z</time>
      </trkpt>
      <trkpt lat="43.37065" lon="-1.77574">
        <ele>4</ele>
        <time>2026-07-12T17:25:50.000Z</time>
      </trkpt>
      <trkpt lat="43.37065" lon="-1.77554">
        <ele>5</ele>
        <time>2026-07-12T17:25:53.000Z</time>
      </trkpt>
      <trkpt lat="43.37064" lon="-1.7753">
        <ele>5</ele>
        <time>2026-07-12T17:25:56.000Z</time>
      </trkpt>
      <trkpt lat="43.37061" lon="-1.77505">
        <ele>5</ele>
        <time>2026-07-12T17:25:59.000Z</time>
      </trkpt>
      <trkpt lat="43.37058" lon="-1.77483">
        <ele>5</ele>
        <time>2026-07-12T17:26:02.000Z</time>
      </trkpt>
      <trkpt lat="43.37052" lon="-1.77462">
        <ele>5</ele>
        <time>2026-07-12T17:26:05.000Z</time>
      </trkpt>
      <trkpt lat="43.37046" lon="-1.77442">
        <ele>5</ele>
        <time>2026-07-12T17:26:08.000Z</time>
      </trkpt>
      <trkpt lat="43.37043" lon="-1.77434">
        <ele>6</ele>
        <time>2026-07-12T17:26:09.000Z</time>
      </trkpt>
      <trkpt lat="43.3704" lon="-1.77423">
        <ele>6</ele>
        <time>2026-07-12T17:26:11.000Z</time>
      </trkpt>
      <trkpt lat="43.37033" lon="-1.77408">
        <ele>6</ele>
        <time>2026-07-12T17:26:13.000Z</time>
      </trkpt>
      <trkpt lat="43.37026" lon="-1.77393">
        <ele>5</ele>
        <time>2026-07-12T17:26:15.000Z</time>
      </trkpt>
      <trkpt lat="43.37025" lon="-1.77389">
        <ele>5</ele>
        <time>2026-07-12T17:26:16.000Z</time>
      </trkpt>
      <trkpt lat="43.37021" lon="-1.77382">
        <ele>5</ele>
        <time>2026-07-12T17:26:17.000Z</time>
      </trkpt>
      <trkpt lat="43.37017" lon="-1.77374">
        <ele>5</ele>
        <time>2026-07-12T17:26:18.000Z</time>
      </trkpt>
      <trkpt lat="43.37014" lon="-1.7737">
        <ele>5</ele>
        <time>2026-07-12T17:26:19.000Z</time>
      </trkpt>
      <trkpt lat="43.37005" lon="-1.77356">
        <ele>5</ele>
        <time>2026-07-12T17:26:21.000Z</time>
      </trkpt>
      <trkpt lat="43.36994" lon="-1.77341">
        <ele>5</ele>
        <time>2026-07-12T17:26:24.000Z</time>
      </trkpt>
      <trkpt lat="43.36986" lon="-1.7733">
        <ele>4</ele>
        <time>2026-07-12T17:26:26.000Z</time>
      </trkpt>
      <trkpt lat="43.3698" lon="-1.77322">
        <ele>4</ele>
        <time>2026-07-12T17:26:28.000Z</time>
      </trkpt>
      <trkpt lat="43.36961" lon="-1.773">
        <ele>3</ele>
        <time>2026-07-12T17:26:32.000Z</time>
      </trkpt>
      <trkpt lat="43.36925" lon="-1.77256">
        <ele>2</ele>
        <time>2026-07-12T17:26:41.000Z</time>
      </trkpt>
      <trkpt lat="43.36915" lon="-1.77244">
        <ele>2</ele>
        <time>2026-07-12T17:26:43.000Z</time>
      </trkpt>
      <trkpt lat="43.36904" lon="-1.77233">
        <ele>2</ele>
        <time>2026-07-12T17:26:45.000Z</time>
      </trkpt>
      <trkpt lat="43.36902" lon="-1.77231">
        <ele>2</ele>
        <time>2026-07-12T17:26:46.000Z</time>
      </trkpt>
      <trkpt lat="43.36893" lon="-1.77224">
        <ele>2</ele>
        <time>2026-07-12T17:26:48.000Z</time>
      </trkpt>
      <trkpt lat="43.3689" lon="-1.77221">
        <ele>3</ele>
        <time>2026-07-12T17:26:48.000Z</time>
      </trkpt>
      <trkpt lat="43.3688" lon="-1.77212">
        <ele>3</ele>
        <time>2026-07-12T17:26:50.000Z</time>
      </trkpt>
      <trkpt lat="43.36865" lon="-1.77202">
        <ele>3</ele>
        <time>2026-07-12T17:26:53.000Z</time>
      </trkpt>
      <trkpt lat="43.36852" lon="-1.77194">
        <ele>3</ele>
        <time>2026-07-12T17:26:56.000Z</time>
      </trkpt>
      <trkpt lat="43.36849" lon="-1.77191">
        <ele>3</ele>
        <time>2026-07-12T17:26:57.000Z</time>
      </trkpt>
      <trkpt lat="43.36841" lon="-1.77187">
        <ele>3</ele>
        <time>2026-07-12T17:26:58.000Z</time>
      </trkpt>
      <trkpt lat="43.36834" lon="-1.77182">
        <ele>3</ele>
        <time>2026-07-12T17:26:59.000Z</time>
      </trkpt>
      <trkpt lat="43.36773" lon="-1.7714">
        <ele>5</ele>
        <time>2026-07-12T17:27:12.000Z</time>
      </trkpt>
      <trkpt lat="43.36718" lon="-1.77103">
        <ele>5</ele>
        <time>2026-07-12T17:27:22.000Z</time>
      </trkpt>
      <trkpt lat="43.36713" lon="-1.77099">
        <ele>5</ele>
        <time>2026-07-12T17:27:24.000Z</time>
      </trkpt>
      <trkpt lat="43.36703" lon="-1.77093">
        <ele>5</ele>
        <time>2026-07-12T17:27:25.000Z</time>
      </trkpt>
      <trkpt lat="43.36651" lon="-1.77058">
        <ele>4</ele>
        <time>2026-07-12T17:27:36.000Z</time>
      </trkpt>
      <trkpt lat="43.36619" lon="-1.77035">
        <ele>5</ele>
        <time>2026-07-12T17:27:42.000Z</time>
      </trkpt>
      <trkpt lat="43.36617" lon="-1.77034">
        <ele>5</ele>
        <time>2026-07-12T17:27:43.000Z</time>
      </trkpt>
      <trkpt lat="43.36606" lon="-1.77027">
        <ele>6</ele>
        <time>2026-07-12T17:27:45.000Z</time>
      </trkpt>
      <trkpt lat="43.36558" lon="-1.76993">
        <ele>6</ele>
        <time>2026-07-12T17:27:54.000Z</time>
      </trkpt>
      <trkpt lat="43.36539" lon="-1.76988">
        <ele>5</ele>
        <time>2026-07-12T17:27:58.000Z</time>
      </trkpt>
      <trkpt lat="43.36523" lon="-1.76978">
        <ele>5</ele>
        <time>2026-07-12T17:28:01.000Z</time>
      </trkpt>
      <trkpt lat="43.3652" lon="-1.76976">
        <ele>5</ele>
        <time>2026-07-12T17:28:01.000Z</time>
      </trkpt>
      <trkpt lat="43.3652" lon="-1.76976">
        <ele>5</ele>
        <time>2026-07-12T17:28:01.000Z</time>
      </trkpt>
      <trkpt lat="43.36517" lon="-1.76977">
        <ele>5</ele>
        <time>2026-07-12T17:28:02.000Z</time>
      </trkpt>
      <trkpt lat="43.36514" lon="-1.76978">
        <ele>5</ele>
        <time>2026-07-12T17:28:03.000Z</time>
      </trkpt>
      <trkpt lat="43.36516" lon="-1.76996">
        <ele>3</ele>
        <time>2026-07-12T17:28:05.000Z</time>
      </trkpt>
      <trkpt lat="43.36505" lon="-1.76999">
        <ele>2</ele>
        <time>2026-07-12T17:28:07.000Z</time>
      </trkpt>
      <trkpt lat="43.36492" lon="-1.77005">
        <ele>3</ele>
        <time>2026-07-12T17:28:09.000Z</time>
      </trkpt>
      <trkpt lat="43.36479" lon="-1.77012">
        <ele>5</ele>
        <time>2026-07-12T17:28:12.000Z</time>
      </trkpt>
      <trkpt lat="43.36465" lon="-1.77022">
        <ele>6</ele>
        <time>2026-07-12T17:28:15.000Z</time>
      </trkpt>
      <trkpt lat="43.36454" lon="-1.77034">
        <ele>7</ele>
        <time>2026-07-12T17:28:17.000Z</time>
      </trkpt>
      <trkpt lat="43.36444" lon="-1.77047">
        <ele>7</ele>
        <time>2026-07-12T17:28:20.000Z</time>
      </trkpt>
      <trkpt lat="43.36435" lon="-1.77062">
        <ele>7</ele>
        <time>2026-07-12T17:28:22.000Z</time>
      </trkpt>
      <trkpt lat="43.36427" lon="-1.7708">
        <ele>6</ele>
        <time>2026-07-12T17:28:25.000Z</time>
      </trkpt>
      <trkpt lat="43.36419" lon="-1.77104">
        <ele>5</ele>
        <time>2026-07-12T17:28:28.000Z</time>
      </trkpt>
      <trkpt lat="43.36408" lon="-1.77136">
        <ele>5</ele>
        <time>2026-07-12T17:28:33.000Z</time>
      </trkpt>
      <trkpt lat="43.36399" lon="-1.77162">
        <ele>5</ele>
        <time>2026-07-12T17:28:37.000Z</time>
      </trkpt>
      <trkpt lat="43.36392" lon="-1.7718">
        <ele>5</ele>
        <time>2026-07-12T17:28:39.000Z</time>
      </trkpt>
      <trkpt lat="43.36386" lon="-1.77192">
        <ele>5</ele>
        <time>2026-07-12T17:28:41.000Z</time>
      </trkpt>
      <trkpt lat="43.36373" lon="-1.77215">
        <ele>5</ele>
        <time>2026-07-12T17:28:45.000Z</time>
      </trkpt>
      <trkpt lat="43.36357" lon="-1.77239">
        <ele>4</ele>
        <time>2026-07-12T17:28:49.000Z</time>
      </trkpt>
      <trkpt lat="43.36341" lon="-1.77259">
        <ele>3</ele>
        <time>2026-07-12T17:28:53.000Z</time>
      </trkpt>
      <trkpt lat="43.36324" lon="-1.77278">
        <ele>3</ele>
        <time>2026-07-12T17:28:57.000Z</time>
      </trkpt>
      <trkpt lat="43.36305" lon="-1.77294">
        <ele>2</ele>
        <time>2026-07-12T17:29:01.000Z</time>
      </trkpt>
      <trkpt lat="43.36278" lon="-1.77311">
        <ele>2</ele>
        <time>2026-07-12T17:29:06.000Z</time>
      </trkpt>
      <trkpt lat="43.36271" lon="-1.77315">
        <ele>2</ele>
        <time>2026-07-12T17:29:07.000Z</time>
      </trkpt>
      <trkpt lat="43.36248" lon="-1.77328">
        <ele>2</ele>
        <time>2026-07-12T17:29:12.000Z</time>
      </trkpt>
      <trkpt lat="43.3624" lon="-1.7733">
        <ele>3</ele>
        <time>2026-07-12T17:29:13.000Z</time>
      </trkpt>
      <trkpt lat="43.36229" lon="-1.77329">
        <ele>3</ele>
        <time>2026-07-12T17:29:15.000Z</time>
      </trkpt>
      <trkpt lat="43.36217" lon="-1.77325">
        <ele>4</ele>
        <time>2026-07-12T17:29:17.000Z</time>
      </trkpt>
      <trkpt lat="43.36204" lon="-1.77319">
        <ele>5</ele>
        <time>2026-07-12T17:29:20.000Z</time>
      </trkpt>
      <trkpt lat="43.36195" lon="-1.77313">
        <ele>6</ele>
        <time>2026-07-12T17:29:22.000Z</time>
      </trkpt>
      <trkpt lat="43.36182" lon="-1.77305">
        <ele>7</ele>
        <time>2026-07-12T17:29:24.000Z</time>
      </trkpt>
      <trkpt lat="43.36168" lon="-1.77298">
        <ele>8</ele>
        <time>2026-07-12T17:29:27.000Z</time>
      </trkpt>
      <trkpt lat="43.36168" lon="-1.77298">
        <ele>8</ele>
        <time>2026-07-12T17:29:27.000Z</time>
      </trkpt>
      <trkpt lat="43.3618" lon="-1.7731">
        <ele>7</ele>
        <time>2026-07-12T17:29:29.000Z</time>
      </trkpt>
      <trkpt lat="43.36185" lon="-1.77313">
        <ele>6</ele>
        <time>2026-07-12T17:29:30.000Z</time>
      </trkpt>
      <trkpt lat="43.362" lon="-1.77323">
        <ele>5</ele>
        <time>2026-07-12T17:29:33.000Z</time>
      </trkpt>
      <trkpt lat="43.36215" lon="-1.77329">
        <ele>4</ele>
        <time>2026-07-12T17:29:36.000Z</time>
      </trkpt>
      <trkpt lat="43.36226" lon="-1.77334">
        <ele>3</ele>
        <time>2026-07-12T17:29:38.000Z</time>
      </trkpt>
      <trkpt lat="43.36235" lon="-1.77338">
        <ele>3</ele>
        <time>2026-07-12T17:29:40.000Z</time>
      </trkpt>
      <trkpt lat="43.36228" lon="-1.77342">
        <ele>3</ele>
        <time>2026-07-12T17:29:41.000Z</time>
      </trkpt>
      <trkpt lat="43.36222" lon="-1.77344">
        <ele>3</ele>
        <time>2026-07-12T17:29:42.000Z</time>
      </trkpt>
      <trkpt lat="43.36157" lon="-1.77369">
        <ele>7</ele>
        <time>2026-07-12T17:29:54.000Z</time>
      </trkpt>
      <trkpt lat="43.36154" lon="-1.77372">
        <ele>7</ele>
        <time>2026-07-12T17:29:55.000Z</time>
      </trkpt>
      <trkpt lat="43.36151" lon="-1.77374">
        <ele>7</ele>
        <time>2026-07-12T17:29:56.000Z</time>
      </trkpt>
      <trkpt lat="43.3615" lon="-1.77377">
        <ele>7</ele>
        <time>2026-07-12T17:29:56.000Z</time>
      </trkpt>
      <trkpt lat="43.36147" lon="-1.7739">
        <ele>8</ele>
        <time>2026-07-12T17:29:58.000Z</time>
      </trkpt>
      <trkpt lat="43.36147" lon="-1.77392">
        <ele>8</ele>
        <time>2026-07-12T17:29:58.000Z</time>
      </trkpt>
      <trkpt lat="43.36148" lon="-1.77395">
        <ele>8</ele>
        <time>2026-07-12T17:29:59.000Z</time>
      </trkpt>
      <trkpt lat="43.3615" lon="-1.77398">
        <ele>7</ele>
        <time>2026-07-12T17:29:59.000Z</time>
      </trkpt>
      <trkpt lat="43.3615" lon="-1.77401">
        <ele>7</ele>
        <time>2026-07-12T17:29:59.000Z</time>
      </trkpt>
      <trkpt lat="43.3615" lon="-1.77403">
        <ele>7</ele>
        <time>2026-07-12T17:30:00.000Z</time>
      </trkpt>
      <trkpt lat="43.36149" lon="-1.77406">
        <ele>8</ele>
        <time>2026-07-12T17:30:00.000Z</time>
      </trkpt>
      <trkpt lat="43.36148" lon="-1.77408">
        <ele>8</ele>
        <time>2026-07-12T17:30:00.000Z</time>
      </trkpt>
      <trkpt lat="43.36147" lon="-1.7741">
        <ele>8</ele>
        <time>2026-07-12T17:30:01.000Z</time>
      </trkpt>
      <trkpt lat="43.36145" lon="-1.77412">
        <ele>8</ele>
        <time>2026-07-12T17:30:01.000Z</time>
      </trkpt>
      <trkpt lat="43.36143" lon="-1.77413">
        <ele>8</ele>
        <time>2026-07-12T17:30:02.000Z</time>
      </trkpt>
      <trkpt lat="43.36141" lon="-1.77413">
        <ele>9</ele>
        <time>2026-07-12T17:30:02.000Z</time>
      </trkpt>
      <trkpt lat="43.3614" lon="-1.77415">
        <ele>9</ele>
        <time>2026-07-12T17:30:02.000Z</time>
      </trkpt>
      <trkpt lat="43.36135" lon="-1.77429">
        <ele>9</ele>
        <time>2026-07-12T17:30:04.000Z</time>
      </trkpt>
      <trkpt lat="43.36134" lon="-1.77433">
        <ele>9</ele>
        <time>2026-07-12T17:30:05.000Z</time>
      </trkpt>
      <trkpt lat="43.36129" lon="-1.77461">
        <ele>10</ele>
        <time>2026-07-12T17:30:09.000Z</time>
      </trkpt>
      <trkpt lat="43.36123" lon="-1.77497">
        <ele>10</ele>
        <time>2026-07-12T17:30:13.000Z</time>
      </trkpt>
      <trkpt lat="43.36122" lon="-1.77498">
        <ele>10</ele>
        <time>2026-07-12T17:30:14.000Z</time>
      </trkpt>
      <trkpt lat="43.36121" lon="-1.77499">
        <ele>10</ele>
        <time>2026-07-12T17:30:14.000Z</time>
      </trkpt>
      <trkpt lat="43.36119" lon="-1.77498">
        <ele>11</ele>
        <time>2026-07-12T17:30:14.000Z</time>
      </trkpt>
      <trkpt lat="43.36115" lon="-1.77497">
        <ele>11</ele>
        <time>2026-07-12T17:30:15.000Z</time>
      </trkpt>
      <trkpt lat="43.36114" lon="-1.77497">
        <ele>12</ele>
        <time>2026-07-12T17:30:15.000Z</time>
      </trkpt>
      <trkpt lat="43.36112" lon="-1.77499">
        <ele>12</ele>
        <time>2026-07-12T17:30:15.000Z</time>
      </trkpt>
      <trkpt lat="43.36099" lon="-1.77528">
        <ele>12</ele>
        <time>2026-07-12T17:30:20.000Z</time>
      </trkpt>
      <trkpt lat="43.36098" lon="-1.7753">
        <ele>12</ele>
        <time>2026-07-12T17:30:20.000Z</time>
      </trkpt>
      <trkpt lat="43.36099" lon="-1.77531">
        <ele>12</ele>
        <time>2026-07-12T17:30:20.000Z</time>
      </trkpt>
      <trkpt lat="43.36102" lon="-1.77534">
        <ele>11</ele>
        <time>2026-07-12T17:30:21.000Z</time>
      </trkpt>
      <trkpt lat="43.36103" lon="-1.77537">
        <ele>11</ele>
        <time>2026-07-12T17:30:22.000Z</time>
      </trkpt>
      <trkpt lat="43.36104" lon="-1.7754">
        <ele>11</ele>
        <time>2026-07-12T17:30:22.000Z</time>
      </trkpt>
      <trkpt lat="43.36103" lon="-1.77543">
        <ele>11</ele>
        <time>2026-07-12T17:30:22.000Z</time>
      </trkpt>
      <trkpt lat="43.36094" lon="-1.77565">
        <ele>10</ele>
        <time>2026-07-12T17:30:26.000Z</time>
      </trkpt>
      <trkpt lat="43.36094" lon="-1.77565">
        <ele>10</ele>
        <time>2026-07-12T17:30:26.000Z</time>
      </trkpt>
      <trkpt lat="43.36075" lon="-1.77551">
        <ele>14</ele>
        <time>2026-07-12T17:30:29.000Z</time>
      </trkpt>
      <trkpt lat="43.36075" lon="-1.77551">
        <ele>14</ele>
        <time>2026-07-12T17:30:29.000Z</time>
      </trkpt>
      <trkpt lat="43.36068" lon="-1.77564">
        <ele>14</ele>
        <time>2026-07-12T17:30:32.000Z</time>
      </trkpt>
      <trkpt lat="43.36064" lon="-1.77569">
        <ele>14</ele>
        <time>2026-07-12T17:30:33.000Z</time>
      </trkpt>
      <trkpt lat="43.3606" lon="-1.77573">
        <ele>14</ele>
        <time>2026-07-12T17:30:33.000Z</time>
      </trkpt>
      <trkpt lat="43.36051" lon="-1.77579">
        <ele>15</ele>
        <time>2026-07-12T17:30:35.000Z</time>
      </trkpt>
      <trkpt lat="43.36042" lon="-1.77582">
        <ele>17</ele>
        <time>2026-07-12T17:30:37.000Z</time>
      </trkpt>
      <trkpt lat="43.36033" lon="-1.77582">
        <ele>18</ele>
        <time>2026-07-12T17:30:38.000Z</time>
      </trkpt>
      <trkpt lat="43.36021" lon="-1.77571">
        <ele>20</ele>
        <time>2026-07-12T17:30:41.000Z</time>
      </trkpt>
      <trkpt lat="43.36021" lon="-1.77571">
        <ele>20</ele>
        <time>2026-07-12T17:30:41.000Z</time>
      </trkpt>
      <trkpt lat="43.36017" lon="-1.77561">
        <ele>21</ele>
        <time>2026-07-12T17:30:42.000Z</time>
      </trkpt>
      <trkpt lat="43.36012" lon="-1.77547">
        <ele>22</ele>
        <time>2026-07-12T17:30:44.000Z</time>
      </trkpt>
      <trkpt lat="43.36012" lon="-1.77547">
        <ele>22</ele>
        <time>2026-07-12T17:30:44.000Z</time>
      </trkpt>
      <trkpt lat="43.36011" lon="-1.77548">
        <ele>22</ele>
        <time>2026-07-12T17:30:45.000Z</time>
      </trkpt>
      <trkpt lat="43.3601" lon="-1.77548">
        <ele>23</ele>
        <time>2026-07-12T17:30:45.000Z</time>
      </trkpt>
      <trkpt lat="43.36009" lon="-1.77548">
        <ele>23</ele>
        <time>2026-07-12T17:30:45.000Z</time>
      </trkpt>
      <trkpt lat="43.36008" lon="-1.77548">
        <ele>23</ele>
        <time>2026-07-12T17:30:45.000Z</time>
      </trkpt>
      <trkpt lat="43.36007" lon="-1.77548">
        <ele>23</ele>
        <time>2026-07-12T17:30:45.000Z</time>
      </trkpt>
      <trkpt lat="43.36006" lon="-1.77548">
        <ele>23</ele>
        <time>2026-07-12T17:30:46.000Z</time>
      </trkpt>
      <trkpt lat="43.36005" lon="-1.77548">
        <ele>23</ele>
        <time>2026-07-12T17:30:46.000Z</time>
      </trkpt>
      <trkpt lat="43.36004" lon="-1.77547">
        <ele>23</ele>
        <time>2026-07-12T17:30:46.000Z</time>
      </trkpt>
      <trkpt lat="43.36003" lon="-1.77547">
        <ele>23</ele>
        <time>2026-07-12T17:30:46.000Z</time>
      </trkpt>
      <trkpt lat="43.35996" lon="-1.77551">
        <ele>24</ele>
        <time>2026-07-12T17:30:48.000Z</time>
      </trkpt>
      <trkpt lat="43.35992" lon="-1.77553">
        <ele>24</ele>
        <time>2026-07-12T17:30:48.000Z</time>
      </trkpt>
      <trkpt lat="43.35987" lon="-1.77554">
        <ele>25</ele>
        <time>2026-07-12T17:30:49.000Z</time>
      </trkpt>
      <trkpt lat="43.35978" lon="-1.77556">
        <ele>25</ele>
        <time>2026-07-12T17:30:51.000Z</time>
      </trkpt>
      <trkpt lat="43.35948" lon="-1.7757">
        <ele>27</ele>
        <time>2026-07-12T17:30:56.000Z</time>
      </trkpt>
      <trkpt lat="43.3594" lon="-1.77573">
        <ele>27</ele>
        <time>2026-07-12T17:30:58.000Z</time>
      </trkpt>
      <trkpt lat="43.35904" lon="-1.77592">
        <ele>27</ele>
        <time>2026-07-12T17:31:05.000Z</time>
      </trkpt>
      <trkpt lat="43.35886" lon="-1.77599">
        <ele>26</ele>
        <time>2026-07-12T17:31:08.000Z</time>
      </trkpt>
      <trkpt lat="43.35873" lon="-1.77603">
        <ele>26</ele>
        <time>2026-07-12T17:31:10.000Z</time>
      </trkpt>
      <trkpt lat="43.35873" lon="-1.77603">
        <ele>26</ele>
        <time>2026-07-12T17:31:10.000Z</time>
      </trkpt>
      <trkpt lat="43.35874" lon="-1.77614">
        <ele>25</ele>
        <time>2026-07-12T17:31:12.000Z</time>
      </trkpt>
      <trkpt lat="43.35875" lon="-1.7762">
        <ele>24</ele>
        <time>2026-07-12T17:31:13.000Z</time>
      </trkpt>
      <trkpt lat="43.35876" lon="-1.77628">
        <ele>24</ele>
        <time>2026-07-12T17:31:14.000Z</time>
      </trkpt>
      <trkpt lat="43.35877" lon="-1.77638">
        <ele>23</ele>
        <time>2026-07-12T17:31:15.000Z</time>
      </trkpt>
      <trkpt lat="43.35879" lon="-1.77652">
        <ele>22</ele>
        <time>2026-07-12T17:31:17.000Z</time>
      </trkpt>
      <trkpt lat="43.3588" lon="-1.77661">
        <ele>21</ele>
        <time>2026-07-12T17:31:18.000Z</time>
      </trkpt>
      <trkpt lat="43.35882" lon="-1.7768">
        <ele>19</ele>
        <time>2026-07-12T17:31:21.000Z</time>
      </trkpt>
      <trkpt lat="43.35882" lon="-1.7768">
        <ele>19</ele>
        <time>2026-07-12T17:31:21.000Z</time>
      </trkpt>
      <trkpt lat="43.35879" lon="-1.77684">
        <ele>19</ele>
        <time>2026-07-12T17:31:21.000Z</time>
      </trkpt>
      <trkpt lat="43.35873" lon="-1.77694">
        <ele>18</ele>
        <time>2026-07-12T17:31:23.000Z</time>
      </trkpt>
      <trkpt lat="43.35873" lon="-1.77694">
        <ele>18</ele>
        <time>2026-07-12T17:31:23.000Z</time>
      </trkpt>
      <trkpt lat="43.35882" lon="-1.77718">
        <ele>16</ele>
        <time>2026-07-12T17:31:27.000Z</time>
      </trkpt>
      <trkpt lat="43.35887" lon="-1.77732">
        <ele>15</ele>
        <time>2026-07-12T17:31:29.000Z</time>
      </trkpt>
      <trkpt lat="43.35886" lon="-1.77736">
        <ele>14</ele>
        <time>2026-07-12T17:31:29.000Z</time>
      </trkpt>
      <trkpt lat="43.35885" lon="-1.77742">
        <ele>14</ele>
        <time>2026-07-12T17:31:30.000Z</time>
      </trkpt>
      <trkpt lat="43.35882" lon="-1.77747">
        <ele>14</ele>
        <time>2026-07-12T17:31:31.000Z</time>
      </trkpt>
      <trkpt lat="43.3588" lon="-1.77749">
        <ele>13</ele>
        <time>2026-07-12T17:31:31.000Z</time>
      </trkpt>
      <trkpt lat="43.35878" lon="-1.77751">
        <ele>13</ele>
        <time>2026-07-12T17:31:32.000Z</time>
      </trkpt>
      <trkpt lat="43.35871" lon="-1.77756">
        <ele>13</ele>
        <time>2026-07-12T17:31:33.000Z</time>
      </trkpt>
      <trkpt lat="43.35857" lon="-1.77763">
        <ele>13</ele>
        <time>2026-07-12T17:31:36.000Z</time>
      </trkpt>
      <trkpt lat="43.35852" lon="-1.77767">
        <ele>12</ele>
        <time>2026-07-12T17:31:37.000Z</time>
      </trkpt>
      <trkpt lat="43.35849" lon="-1.77772">
        <ele>12</ele>
        <time>2026-07-12T17:31:38.000Z</time>
      </trkpt>
      <trkpt lat="43.35848" lon="-1.77777">
        <ele>11</ele>
        <time>2026-07-12T17:31:38.000Z</time>
      </trkpt>
      <trkpt lat="43.35848" lon="-1.7778">
        <ele>11</ele>
        <time>2026-07-12T17:31:39.000Z</time>
      </trkpt>
      <trkpt lat="43.35848" lon="-1.7778">
        <ele>11</ele>
        <time>2026-07-12T17:31:39.000Z</time>
      </trkpt>
      <trkpt lat="43.35829" lon="-1.77788">
        <ele>11</ele>
        <time>2026-07-12T17:31:42.000Z</time>
      </trkpt>
      <trkpt lat="43.3581" lon="-1.77795">
        <ele>10</ele>
        <time>2026-07-12T17:31:46.000Z</time>
      </trkpt>
      <trkpt lat="43.35807" lon="-1.77797">
        <ele>10</ele>
        <time>2026-07-12T17:31:46.000Z</time>
      </trkpt>
      <trkpt lat="43.35806" lon="-1.778">
        <ele>10</ele>
        <time>2026-07-12T17:31:47.000Z</time>
      </trkpt>
      <trkpt lat="43.35807" lon="-1.77805">
        <ele>9</ele>
        <time>2026-07-12T17:31:47.000Z</time>
      </trkpt>
      <trkpt lat="43.35815" lon="-1.77838">
        <ele>7</ele>
        <time>2026-07-12T17:31:52.000Z</time>
      </trkpt>
      <trkpt lat="43.35815" lon="-1.77845">
        <ele>7</ele>
        <time>2026-07-12T17:31:53.000Z</time>
      </trkpt>
      <trkpt lat="43.35816" lon="-1.77852">
        <ele>7</ele>
        <time>2026-07-12T17:31:54.000Z</time>
      </trkpt>
      <trkpt lat="43.35817" lon="-1.77858">
        <ele>7</ele>
        <time>2026-07-12T17:31:54.000Z</time>
      </trkpt>
      <trkpt lat="43.35852" lon="-1.77983">
        <ele>5</ele>
        <time>2026-07-12T17:32:12.000Z</time>
      </trkpt>
      <trkpt lat="43.35854" lon="-1.77993">
        <ele>5</ele>
        <time>2026-07-12T17:32:13.000Z</time>
      </trkpt>
      <trkpt lat="43.35856" lon="-1.78002">
        <ele>5</ele>
        <time>2026-07-12T17:32:14.000Z</time>
      </trkpt>
      <trkpt lat="43.35857" lon="-1.78013">
        <ele>4</ele>
        <time>2026-07-12T17:32:16.000Z</time>
      </trkpt>
      <trkpt lat="43.35856" lon="-1.78022">
        <ele>4</ele>
        <time>2026-07-12T17:32:17.000Z</time>
      </trkpt>
      <trkpt lat="43.3585" lon="-1.78037">
        <ele>4</ele>
        <time>2026-07-12T17:32:19.000Z</time>
      </trkpt>
      <trkpt lat="43.35848" lon="-1.78041">
        <ele>4</ele>
        <time>2026-07-12T17:32:20.000Z</time>
      </trkpt>
      <trkpt lat="43.35828" lon="-1.78072">
        <ele>3</ele>
        <time>2026-07-12T17:32:25.000Z</time>
      </trkpt>
      <trkpt lat="43.35787" lon="-1.78139">
        <ele>3</ele>
        <time>2026-07-12T17:32:36.000Z</time>
      </trkpt>
      <trkpt lat="43.35744" lon="-1.78211">
        <ele>2</ele>
        <time>2026-07-12T17:32:49.000Z</time>
      </trkpt>
      <trkpt lat="43.35704" lon="-1.78277">
        <ele>3</ele>
        <time>2026-07-12T17:33:00.000Z</time>
      </trkpt>
      <trkpt lat="43.35689" lon="-1.783">
        <ele>3</ele>
        <time>2026-07-12T17:33:04.000Z</time>
      </trkpt>
      <trkpt lat="43.3567" lon="-1.78325">
        <ele>2</ele>
        <time>2026-07-12T17:33:08.000Z</time>
      </trkpt>
      <trkpt lat="43.35649" lon="-1.7835">
        <ele>2</ele>
        <time>2026-07-12T17:33:13.000Z</time>
      </trkpt>
      <trkpt lat="43.35626" lon="-1.78377">
        <ele>2</ele>
        <time>2026-07-12T17:33:19.000Z</time>
      </trkpt>
      <trkpt lat="43.35602" lon="-1.78402">
        <ele>2</ele>
        <time>2026-07-12T17:33:24.000Z</time>
      </trkpt>
      <trkpt lat="43.35574" lon="-1.78429">
        <ele>1</ele>
        <time>2026-07-12T17:33:30.000Z</time>
      </trkpt>
      <trkpt lat="43.35546" lon="-1.78453">
        <ele>2</ele>
        <time>2026-07-12T17:33:36.000Z</time>
      </trkpt>
      <trkpt lat="43.35518" lon="-1.78474">
        <ele>2</ele>
        <time>2026-07-12T17:33:42.000Z</time>
      </trkpt>
      <trkpt lat="43.35488" lon="-1.78497">
        <ele>2</ele>
        <time>2026-07-12T17:33:48.000Z</time>
      </trkpt>
      <trkpt lat="43.35459" lon="-1.78515">
        <ele>2</ele>
        <time>2026-07-12T17:33:53.000Z</time>
      </trkpt>
      <trkpt lat="43.35428" lon="-1.78532">
        <ele>3</ele>
        <time>2026-07-12T17:33:59.000Z</time>
      </trkpt>
      <trkpt lat="43.35397" lon="-1.78546">
        <ele>3</ele>
        <time>2026-07-12T17:34:05.000Z</time>
      </trkpt>
      <trkpt lat="43.35365" lon="-1.78559">
        <ele>3</ele>
        <time>2026-07-12T17:34:11.000Z</time>
      </trkpt>
      <trkpt lat="43.35331" lon="-1.7857">
        <ele>3</ele>
        <time>2026-07-12T17:34:17.000Z</time>
      </trkpt>
      <trkpt lat="43.35301" lon="-1.78579">
        <ele>2</ele>
        <time>2026-07-12T17:34:23.000Z</time>
      </trkpt>
      <trkpt lat="43.35287" lon="-1.78581">
        <ele>2</ele>
        <time>2026-07-12T17:34:25.000Z</time>
      </trkpt>
      <trkpt lat="43.3528" lon="-1.78583">
        <ele>1</ele>
        <time>2026-07-12T17:34:27.000Z</time>
      </trkpt>
      <trkpt lat="43.35232" lon="-1.78596">
        <ele>1</ele>
        <time>2026-07-12T17:34:35.000Z</time>
      </trkpt>
      <trkpt lat="43.35228" lon="-1.78598">
        <ele>1</ele>
        <time>2026-07-12T17:34:36.000Z</time>
      </trkpt>
      <trkpt lat="43.35219" lon="-1.78599">
        <ele>1</ele>
        <time>2026-07-12T17:34:38.000Z</time>
      </trkpt>
      <trkpt lat="43.35218" lon="-1.78599">
        <ele>1</ele>
        <time>2026-07-12T17:34:38.000Z</time>
      </trkpt>
      <trkpt lat="43.35182" lon="-1.78598">
        <ele>1</ele>
        <time>2026-07-12T17:34:44.000Z</time>
      </trkpt>
      <trkpt lat="43.35179" lon="-1.78599">
        <ele>1</ele>
        <time>2026-07-12T17:34:45.000Z</time>
      </trkpt>
      <trkpt lat="43.35166" lon="-1.78606">
        <ele>1</ele>
        <time>2026-07-12T17:34:47.000Z</time>
      </trkpt>
      <trkpt lat="43.35159" lon="-1.7861">
        <ele>1</ele>
        <time>2026-07-12T17:34:49.000Z</time>
      </trkpt>
      <trkpt lat="43.35151" lon="-1.78615">
        <ele>1</ele>
        <time>2026-07-12T17:34:50.000Z</time>
      </trkpt>
      <trkpt lat="43.35149" lon="-1.78617">
        <ele>1</ele>
        <time>2026-07-12T17:34:51.000Z</time>
      </trkpt>
      <trkpt lat="43.35147" lon="-1.78617">
        <ele>1</ele>
        <time>2026-07-12T17:34:51.000Z</time>
      </trkpt>
      <trkpt lat="43.35137" lon="-1.78615">
        <ele>1</ele>
        <time>2026-07-12T17:34:53.000Z</time>
      </trkpt>
      <trkpt lat="43.35124" lon="-1.78614">
        <ele>1</ele>
        <time>2026-07-12T17:34:55.000Z</time>
      </trkpt>
      <trkpt lat="43.35119" lon="-1.78612">
        <ele>1</ele>
        <time>2026-07-12T17:34:56.000Z</time>
      </trkpt>
      <trkpt lat="43.35113" lon="-1.78609">
        <ele>1</ele>
        <time>2026-07-12T17:34:57.000Z</time>
      </trkpt>
      <trkpt lat="43.35103" lon="-1.786">
        <ele>1</ele>
        <time>2026-07-12T17:34:59.000Z</time>
      </trkpt>
      <trkpt lat="43.35086" lon="-1.78583">
        <ele>1</ele>
        <time>2026-07-12T17:35:03.000Z</time>
      </trkpt>
      <trkpt lat="43.3507" lon="-1.78564">
        <ele>2</ele>
        <time>2026-07-12T17:35:07.000Z</time>
      </trkpt>
      <trkpt lat="43.35042" lon="-1.78526">
        <ele>3</ele>
        <time>2026-07-12T17:35:14.000Z</time>
      </trkpt>
      <trkpt lat="43.35031" lon="-1.78509">
        <ele>3</ele>
        <time>2026-07-12T17:35:17.000Z</time>
      </trkpt>
      <trkpt lat="43.35031" lon="-1.78509">
        <ele>3</ele>
        <time>2026-07-12T17:35:17.000Z</time>
      </trkpt>
      <trkpt lat="43.35032" lon="-1.78508">
        <ele>4</ele>
        <time>2026-07-12T17:35:17.000Z</time>
      </trkpt>
      <trkpt lat="43.35035" lon="-1.78503">
        <ele>4</ele>
        <time>2026-07-12T17:35:18.000Z</time>
      </trkpt>
      <trkpt lat="43.35037" lon="-1.78501">
        <ele>4</ele>
        <time>2026-07-12T17:35:18.000Z</time>
      </trkpt>
      <trkpt lat="43.35039" lon="-1.78498">
        <ele>4</ele>
        <time>2026-07-12T17:35:19.000Z</time>
      </trkpt>
      <trkpt lat="43.3504" lon="-1.78496">
        <ele>4</ele>
        <time>2026-07-12T17:35:19.000Z</time>
      </trkpt>
      <trkpt lat="43.35041" lon="-1.78492">
        <ele>4</ele>
        <time>2026-07-12T17:35:20.000Z</time>
      </trkpt>
      <trkpt lat="43.3504" lon="-1.78489">
        <ele>5</ele>
        <time>2026-07-12T17:35:20.000Z</time>
      </trkpt>
      <trkpt lat="43.3504" lon="-1.78488">
        <ele>5</ele>
        <time>2026-07-12T17:35:20.000Z</time>
      </trkpt>
      <trkpt lat="43.35039" lon="-1.78486">
        <ele>5</ele>
        <time>2026-07-12T17:35:20.000Z</time>
      </trkpt>
      <trkpt lat="43.35036" lon="-1.78483">
        <ele>5</ele>
        <time>2026-07-12T17:35:21.000Z</time>
      </trkpt>
      <trkpt lat="43.35036" lon="-1.78483">
        <ele>5</ele>
        <time>2026-07-12T17:35:21.000Z</time>
      </trkpt>
      <trkpt lat="43.35015" lon="-1.7851">
        <ele>3</ele>
        <time>2026-07-12T17:35:26.000Z</time>
      </trkpt>
      <trkpt lat="43.34993" lon="-1.78539">
        <ele>2</ele>
        <time>2026-07-12T17:35:32.000Z</time>
      </trkpt>
      <trkpt lat="43.34993" lon="-1.78539">
        <ele>2</ele>
        <time>2026-07-12T17:35:32.000Z</time>
      </trkpt>
      <trkpt lat="43.34962" lon="-1.78582">
        <ele>3</ele>
        <time>2026-07-12T17:35:39.000Z</time>
      </trkpt>
      <trkpt lat="43.34957" lon="-1.78588">
        <ele>3</ele>
        <time>2026-07-12T17:35:41.000Z</time>
      </trkpt>
      <trkpt lat="43.34944" lon="-1.78601">
        <ele>4</ele>
        <time>2026-07-12T17:35:43.000Z</time>
      </trkpt>
      <trkpt lat="43.34934" lon="-1.78607">
        <ele>5</ele>
        <time>2026-07-12T17:35:45.000Z</time>
      </trkpt>
      <trkpt lat="43.34925" lon="-1.78614">
        <ele>5</ele>
        <time>2026-07-12T17:35:47.000Z</time>
      </trkpt>
      <trkpt lat="43.34919" lon="-1.78618">
        <ele>6</ele>
        <time>2026-07-12T17:35:48.000Z</time>
      </trkpt>
      <trkpt lat="43.34908" lon="-1.78624">
        <ele>6</ele>
        <time>2026-07-12T17:35:51.000Z</time>
      </trkpt>
      <trkpt lat="43.34838" lon="-1.78657">
        <ele>7</ele>
        <time>2026-07-12T17:36:04.000Z</time>
      </trkpt>
      <trkpt lat="43.34832" lon="-1.78659">
        <ele>7</ele>
        <time>2026-07-12T17:36:05.000Z</time>
      </trkpt>
      <trkpt lat="43.34831" lon="-1.78659">
        <ele>7</ele>
        <time>2026-07-12T17:36:05.000Z</time>
      </trkpt>
      <trkpt lat="43.34824" lon="-1.78662">
        <ele>7</ele>
        <time>2026-07-12T17:36:06.000Z</time>
      </trkpt>
      <trkpt lat="43.34821" lon="-1.78664">
        <ele>7</ele>
        <time>2026-07-12T17:36:07.000Z</time>
      </trkpt>
      <trkpt lat="43.3482" lon="-1.78664">
        <ele>7</ele>
        <time>2026-07-12T17:36:07.000Z</time>
      </trkpt>
      <trkpt lat="43.34816" lon="-1.78671">
        <ele>6</ele>
        <time>2026-07-12T17:36:08.000Z</time>
      </trkpt>
      <trkpt lat="43.34814" lon="-1.78675">
        <ele>6</ele>
        <time>2026-07-12T17:36:09.000Z</time>
      </trkpt>
      <trkpt lat="43.34812" lon="-1.78678">
        <ele>6</ele>
        <time>2026-07-12T17:36:09.000Z</time>
      </trkpt>
      <trkpt lat="43.34811" lon="-1.78681">
        <ele>6</ele>
        <time>2026-07-12T17:36:10.000Z</time>
      </trkpt>
      <trkpt lat="43.34811" lon="-1.78685">
        <ele>6</ele>
        <time>2026-07-12T17:36:10.000Z</time>
      </trkpt>
      <trkpt lat="43.3481" lon="-1.78689">
        <ele>6</ele>
        <time>2026-07-12T17:36:11.000Z</time>
      </trkpt>
      <trkpt lat="43.3481" lon="-1.78693">
        <ele>6</ele>
        <time>2026-07-12T17:36:11.000Z</time>
      </trkpt>
      <trkpt lat="43.34808" lon="-1.78699">
        <ele>6</ele>
        <time>2026-07-12T17:36:12.000Z</time>
      </trkpt>
      <trkpt lat="43.34804" lon="-1.78701">
        <ele>6</ele>
        <time>2026-07-12T17:36:13.000Z</time>
      </trkpt>
      <trkpt lat="43.34803" lon="-1.78701">
        <ele>5</ele>
        <time>2026-07-12T17:36:13.000Z</time>
      </trkpt>
      <trkpt lat="43.34802" lon="-1.78702">
        <ele>5</ele>
        <time>2026-07-12T17:36:13.000Z</time>
      </trkpt>
      <trkpt lat="43.34801" lon="-1.78704">
        <ele>5</ele>
        <time>2026-07-12T17:36:14.000Z</time>
      </trkpt>
      <trkpt lat="43.34799" lon="-1.78707">
        <ele>5</ele>
        <time>2026-07-12T17:36:14.000Z</time>
      </trkpt>
      <trkpt lat="43.34798" lon="-1.7871">
        <ele>5</ele>
        <time>2026-07-12T17:36:15.000Z</time>
      </trkpt>
      <trkpt lat="43.34796" lon="-1.78713">
        <ele>5</ele>
        <time>2026-07-12T17:36:15.000Z</time>
      </trkpt>
      <trkpt lat="43.34795" lon="-1.78714">
        <ele>5</ele>
        <time>2026-07-12T17:36:15.000Z</time>
      </trkpt>
      <trkpt lat="43.34793" lon="-1.78717">
        <ele>5</ele>
        <time>2026-07-12T17:36:16.000Z</time>
      </trkpt>
      <trkpt lat="43.34791" lon="-1.78719">
        <ele>5</ele>
        <time>2026-07-12T17:36:16.000Z</time>
      </trkpt>
      <trkpt lat="43.34787" lon="-1.78722">
        <ele>5</ele>
        <time>2026-07-12T17:36:17.000Z</time>
      </trkpt>
      <trkpt lat="43.34787" lon="-1.78722">
        <ele>5</ele>
        <time>2026-07-12T17:36:17.000Z</time>
      </trkpt>
      <trkpt lat="43.34784" lon="-1.78719">
        <ele>5</ele>
        <time>2026-07-12T17:36:18.000Z</time>
      </trkpt>
      <trkpt lat="43.34777" lon="-1.78707">
        <ele>4</ele>
        <time>2026-07-12T17:36:20.000Z</time>
      </trkpt>
      <trkpt lat="43.34777" lon="-1.78707">
        <ele>4</ele>
        <time>2026-07-12T17:36:20.000Z</time>
      </trkpt>
      <trkpt lat="43.34775" lon="-1.78707">
        <ele>4</ele>
        <time>2026-07-12T17:36:20.000Z</time>
      </trkpt>
      <trkpt lat="43.34773" lon="-1.78707">
        <ele>4</ele>
        <time>2026-07-12T17:36:21.000Z</time>
      </trkpt>
      <trkpt lat="43.34772" lon="-1.78706">
        <ele>4</ele>
        <time>2026-07-12T17:36:21.000Z</time>
      </trkpt>
      <trkpt lat="43.3477" lon="-1.78706">
        <ele>4</ele>
        <time>2026-07-12T17:36:21.000Z</time>
      </trkpt>
      <trkpt lat="43.34768" lon="-1.78705">
        <ele>4</ele>
        <time>2026-07-12T17:36:22.000Z</time>
      </trkpt>
      <trkpt lat="43.34767" lon="-1.78704">
        <ele>4</ele>
        <time>2026-07-12T17:36:22.000Z</time>
      </trkpt>
      <trkpt lat="43.34766" lon="-1.78703">
        <ele>4</ele>
        <time>2026-07-12T17:36:22.000Z</time>
      </trkpt>
      <trkpt lat="43.34764" lon="-1.78702">
        <ele>4</ele>
        <time>2026-07-12T17:36:22.000Z</time>
      </trkpt>
      <trkpt lat="43.34758" lon="-1.78703">
        <ele>4</ele>
        <time>2026-07-12T17:36:23.000Z</time>
      </trkpt>
      <trkpt lat="43.34751" lon="-1.78703">
        <ele>4</ele>
        <time>2026-07-12T17:36:25.000Z</time>
      </trkpt>
      <trkpt lat="43.34747" lon="-1.78705">
        <ele>3</ele>
        <time>2026-07-12T17:36:25.000Z</time>
      </trkpt>
      <trkpt lat="43.34737" lon="-1.78709">
        <ele>3</ele>
        <time>2026-07-12T17:36:27.000Z</time>
      </trkpt>
      <trkpt lat="43.34733" lon="-1.78711">
        <ele>3</ele>
        <time>2026-07-12T17:36:28.000Z</time>
      </trkpt>
      <trkpt lat="43.34718" lon="-1.78718">
        <ele>3</ele>
        <time>2026-07-12T17:36:31.000Z</time>
      </trkpt>
      <trkpt lat="43.3469" lon="-1.78731">
        <ele>2</ele>
        <time>2026-07-12T17:36:36.000Z</time>
      </trkpt>
      <trkpt lat="43.34678" lon="-1.78738">
        <ele>2</ele>
        <time>2026-07-12T17:36:38.000Z</time>
      </trkpt>
      <trkpt lat="43.34662" lon="-1.78745">
        <ele>2</ele>
        <time>2026-07-12T17:36:41.000Z</time>
      </trkpt>
      <trkpt lat="43.34653" lon="-1.78749">
        <ele>2</ele>
        <time>2026-07-12T17:36:43.000Z</time>
      </trkpt>
      <trkpt lat="43.34597" lon="-1.78777">
        <ele>3</ele>
        <time>2026-07-12T17:36:54.000Z</time>
      </trkpt>
      <trkpt lat="43.34585" lon="-1.78783">
        <ele>3</ele>
        <time>2026-07-12T17:36:56.000Z</time>
      </trkpt>
      <trkpt lat="43.34572" lon="-1.7879">
        <ele>3</ele>
        <time>2026-07-12T17:36:58.000Z</time>
      </trkpt>
      <trkpt lat="43.34572" lon="-1.7879">
        <ele>3</ele>
        <time>2026-07-12T17:36:58.000Z</time>
      </trkpt>
      <trkpt lat="43.34572" lon="-1.78793">
        <ele>3</ele>
        <time>2026-07-12T17:36:59.000Z</time>
      </trkpt>
      <trkpt lat="43.34572" lon="-1.78795">
        <ele>3</ele>
        <time>2026-07-12T17:36:59.000Z</time>
      </trkpt>
      <trkpt lat="43.34572" lon="-1.78798">
        <ele>3</ele>
        <time>2026-07-12T17:36:59.000Z</time>
      </trkpt>
      <trkpt lat="43.34572" lon="-1.788">
        <ele>3</ele>
        <time>2026-07-12T17:37:00.000Z</time>
      </trkpt>
      <trkpt lat="43.34571" lon="-1.78802">
        <ele>3</ele>
        <time>2026-07-12T17:37:00.000Z</time>
      </trkpt>
      <trkpt lat="43.34571" lon="-1.78805">
        <ele>3</ele>
        <time>2026-07-12T17:37:00.000Z</time>
      </trkpt>
      <trkpt lat="43.3457" lon="-1.78807">
        <ele>3</ele>
        <time>2026-07-12T17:37:01.000Z</time>
      </trkpt>
      <trkpt lat="43.34569" lon="-1.78809">
        <ele>3</ele>
        <time>2026-07-12T17:37:01.000Z</time>
      </trkpt>
      <trkpt lat="43.34568" lon="-1.78811">
        <ele>3</ele>
        <time>2026-07-12T17:37:01.000Z</time>
      </trkpt>
      <trkpt lat="43.34567" lon="-1.78813">
        <ele>3</ele>
        <time>2026-07-12T17:37:02.000Z</time>
      </trkpt>
      <trkpt lat="43.34566" lon="-1.78814">
        <ele>3</ele>
        <time>2026-07-12T17:37:02.000Z</time>
      </trkpt>
      <trkpt lat="43.34564" lon="-1.78816">
        <ele>3</ele>
        <time>2026-07-12T17:37:02.000Z</time>
      </trkpt>
      <trkpt lat="43.34563" lon="-1.78817">
        <ele>3</ele>
        <time>2026-07-12T17:37:03.000Z</time>
      </trkpt>
      <trkpt lat="43.34561" lon="-1.78819">
        <ele>3</ele>
        <time>2026-07-12T17:37:03.000Z</time>
      </trkpt>
      <trkpt lat="43.3456" lon="-1.7882">
        <ele>3</ele>
        <time>2026-07-12T17:37:03.000Z</time>
      </trkpt>
      <trkpt lat="43.34558" lon="-1.7882">
        <ele>3</ele>
        <time>2026-07-12T17:37:04.000Z</time>
      </trkpt>
      <trkpt lat="43.34556" lon="-1.78821">
        <ele>3</ele>
        <time>2026-07-12T17:37:04.000Z</time>
      </trkpt>
      <trkpt lat="43.34554" lon="-1.78821">
        <ele>3</ele>
        <time>2026-07-12T17:37:04.000Z</time>
      </trkpt>
      <trkpt lat="43.34551" lon="-1.78831">
        <ele>3</ele>
        <time>2026-07-12T17:37:06.000Z</time>
      </trkpt>
      <trkpt lat="43.34549" lon="-1.78837">
        <ele>3</ele>
        <time>2026-07-12T17:37:07.000Z</time>
      </trkpt>
      <trkpt lat="43.34547" lon="-1.78843">
        <ele>3</ele>
        <time>2026-07-12T17:37:07.000Z</time>
      </trkpt>
      <trkpt lat="43.34546" lon="-1.78845">
        <ele>3</ele>
        <time>2026-07-12T17:37:08.000Z</time>
      </trkpt>
      <trkpt lat="43.34543" lon="-1.78854">
        <ele>4</ele>
        <time>2026-07-12T17:37:09.000Z</time>
      </trkpt>
      <trkpt lat="43.34541" lon="-1.78858">
        <ele>4</ele>
        <time>2026-07-12T17:37:10.000Z</time>
      </trkpt>
      <trkpt lat="43.3454" lon="-1.78862">
        <ele>4</ele>
        <time>2026-07-12T17:37:10.000Z</time>
      </trkpt>
      <trkpt lat="43.34537" lon="-1.78867">
        <ele>4</ele>
        <time>2026-07-12T17:37:11.000Z</time>
      </trkpt>
      <trkpt lat="43.34534" lon="-1.78871">
        <ele>4</ele>
        <time>2026-07-12T17:37:12.000Z</time>
      </trkpt>
      <trkpt lat="43.34528" lon="-1.7888">
        <ele>4</ele>
        <time>2026-07-12T17:37:13.000Z</time>
      </trkpt>
      <trkpt lat="43.34523" lon="-1.78887">
        <ele>5</ele>
        <time>2026-07-12T17:37:15.000Z</time>
      </trkpt>
      <trkpt lat="43.34516" lon="-1.78896">
        <ele>5</ele>
        <time>2026-07-12T17:37:16.000Z</time>
      </trkpt>
      <trkpt lat="43.34512" lon="-1.78901">
        <ele>5</ele>
        <time>2026-07-12T17:37:17.000Z</time>
      </trkpt>
      <trkpt lat="43.3451" lon="-1.78905">
        <ele>5</ele>
        <time>2026-07-12T17:37:18.000Z</time>
      </trkpt>
      <trkpt lat="43.34507" lon="-1.78907">
        <ele>6</ele>
        <time>2026-07-12T17:37:19.000Z</time>
      </trkpt>
      <trkpt lat="43.34494" lon="-1.7892">
        <ele>6</ele>
        <time>2026-07-12T17:37:21.000Z</time>
      </trkpt>
      <trkpt lat="43.34486" lon="-1.78926">
        <ele>7</ele>
        <time>2026-07-12T17:37:23.000Z</time>
      </trkpt>
      <trkpt lat="43.3448" lon="-1.7893">
        <ele>7</ele>
        <time>2026-07-12T17:37:24.000Z</time>
      </trkpt>
      <trkpt lat="43.34476" lon="-1.78932">
        <ele>7</ele>
        <time>2026-07-12T17:37:25.000Z</time>
      </trkpt>
      <trkpt lat="43.34473" lon="-1.78933">
        <ele>7</ele>
        <time>2026-07-12T17:37:25.000Z</time>
      </trkpt>
      <trkpt lat="43.34468" lon="-1.78937">
        <ele>7</ele>
        <time>2026-07-12T17:37:27.000Z</time>
      </trkpt>
      <trkpt lat="43.34462" lon="-1.78941">
        <ele>8</ele>
        <time>2026-07-12T17:37:28.000Z</time>
      </trkpt>
      <trkpt lat="43.34449" lon="-1.78946">
        <ele>8</ele>
        <time>2026-07-12T17:37:30.000Z</time>
      </trkpt>
      <trkpt lat="43.34445" lon="-1.78948">
        <ele>9</ele>
        <time>2026-07-12T17:37:31.000Z</time>
      </trkpt>
      <trkpt lat="43.3444" lon="-1.78952">
        <ele>9</ele>
        <time>2026-07-12T17:37:32.000Z</time>
      </trkpt>
      <trkpt lat="43.34431" lon="-1.78959">
        <ele>9</ele>
        <time>2026-07-12T17:37:34.000Z</time>
      </trkpt>
      <trkpt lat="43.34427" lon="-1.78964">
        <ele>10</ele>
        <time>2026-07-12T17:37:35.000Z</time>
      </trkpt>
      <trkpt lat="43.34424" lon="-1.7897">
        <ele>10</ele>
        <time>2026-07-12T17:37:36.000Z</time>
      </trkpt>
      <trkpt lat="43.34421" lon="-1.78976">
        <ele>10</ele>
        <time>2026-07-12T17:37:37.000Z</time>
      </trkpt>
      <trkpt lat="43.34421" lon="-1.78976">
        <ele>10</ele>
        <time>2026-07-12T17:37:37.000Z</time>
      </trkpt>
      <trkpt lat="43.34417" lon="-1.78984">
        <ele>11</ele>
        <time>2026-07-12T17:37:38.000Z</time>
      </trkpt>
      <trkpt lat="43.34415" lon="-1.78989">
        <ele>11</ele>
        <time>2026-07-12T17:37:39.000Z</time>
      </trkpt>
      <trkpt lat="43.34414" lon="-1.78992">
        <ele>11</ele>
        <time>2026-07-12T17:37:39.000Z</time>
      </trkpt>
      <trkpt lat="43.34413" lon="-1.78995">
        <ele>11</ele>
        <time>2026-07-12T17:37:39.000Z</time>
      </trkpt>
      <trkpt lat="43.34411" lon="-1.79001">
        <ele>11</ele>
        <time>2026-07-12T17:37:40.000Z</time>
      </trkpt>
      <trkpt lat="43.3441" lon="-1.79009">
        <ele>12</ele>
        <time>2026-07-12T17:37:41.000Z</time>
      </trkpt>
      <trkpt lat="43.34407" lon="-1.79021">
        <ele>12</ele>
        <time>2026-07-12T17:37:43.000Z</time>
      </trkpt>
      <trkpt lat="43.34407" lon="-1.79021">
        <ele>12</ele>
        <time>2026-07-12T17:37:43.000Z</time>
      </trkpt>
      <trkpt lat="43.34409" lon="-1.79177">
        <ele>17</ele>
        <time>2026-07-12T17:38:03.000Z</time>
      </trkpt>
      <trkpt lat="43.34413" lon="-1.79191">
        <ele>17</ele>
        <time>2026-07-12T17:38:05.000Z</time>
      </trkpt>
      <trkpt lat="43.34416" lon="-1.79208">
        <ele>18</ele>
        <time>2026-07-12T17:38:07.000Z</time>
      </trkpt>
      <trkpt lat="43.34422" lon="-1.79229">
        <ele>18</ele>
        <time>2026-07-12T17:38:10.000Z</time>
      </trkpt>
      <trkpt lat="43.34425" lon="-1.79241">
        <ele>18</ele>
        <time>2026-07-12T17:38:12.000Z</time>
      </trkpt>
      <trkpt lat="43.34434" lon="-1.79265">
        <ele>17</ele>
        <time>2026-07-12T17:38:15.000Z</time>
      </trkpt>
      <trkpt lat="43.34439" lon="-1.79276">
        <ele>16</ele>
        <time>2026-07-12T17:38:17.000Z</time>
      </trkpt>
      <trkpt lat="43.34443" lon="-1.79285">
        <ele>15</ele>
        <time>2026-07-12T17:38:18.000Z</time>
      </trkpt>
      <trkpt lat="43.34452" lon="-1.79297">
        <ele>14</ele>
        <time>2026-07-12T17:38:21.000Z</time>
      </trkpt>
      <trkpt lat="43.34464" lon="-1.79313">
        <ele>12</ele>
        <time>2026-07-12T17:38:24.000Z</time>
      </trkpt>
      <trkpt lat="43.34474" lon="-1.79325">
        <ele>11</ele>
        <time>2026-07-12T17:38:26.000Z</time>
      </trkpt>
      <trkpt lat="43.34482" lon="-1.79335">
        <ele>10</ele>
        <time>2026-07-12T17:38:28.000Z</time>
      </trkpt>
      <trkpt lat="43.34493" lon="-1.7935">
        <ele>9</ele>
        <time>2026-07-12T17:38:31.000Z</time>
      </trkpt>
      <trkpt lat="43.34498" lon="-1.79358">
        <ele>9</ele>
        <time>2026-07-12T17:38:32.000Z</time>
      </trkpt>
      <trkpt lat="43.34502" lon="-1.79368">
        <ele>9</ele>
        <time>2026-07-12T17:38:34.000Z</time>
      </trkpt>
      <trkpt lat="43.34506" lon="-1.79375">
        <ele>9</ele>
        <time>2026-07-12T17:38:35.000Z</time>
      </trkpt>
      <trkpt lat="43.34509" lon="-1.79384">
        <ele>10</ele>
        <time>2026-07-12T17:38:36.000Z</time>
      </trkpt>
      <trkpt lat="43.34512" lon="-1.79397">
        <ele>10</ele>
        <time>2026-07-12T17:38:38.000Z</time>
      </trkpt>
      <trkpt lat="43.34514" lon="-1.79405">
        <ele>10</ele>
        <time>2026-07-12T17:38:39.000Z</time>
      </trkpt>
      <trkpt lat="43.34515" lon="-1.79416">
        <ele>10</ele>
        <time>2026-07-12T17:38:40.000Z</time>
      </trkpt>
      <trkpt lat="43.34515" lon="-1.79431">
        <ele>10</ele>
        <time>2026-07-12T17:38:42.000Z</time>
      </trkpt>
      <trkpt lat="43.34515" lon="-1.79446">
        <ele>11</ele>
        <time>2026-07-12T17:38:44.000Z</time>
      </trkpt>
      <trkpt lat="43.34515" lon="-1.79461">
        <ele>11</ele>
        <time>2026-07-12T17:38:46.000Z</time>
      </trkpt>
      <trkpt lat="43.34514" lon="-1.79474">
        <ele>11</ele>
        <time>2026-07-12T17:38:48.000Z</time>
      </trkpt>
      <trkpt lat="43.34513" lon="-1.79481">
        <ele>11</ele>
        <time>2026-07-12T17:38:49.000Z</time>
      </trkpt>
      <trkpt lat="43.3451" lon="-1.795">
        <ele>12</ele>
        <time>2026-07-12T17:38:51.000Z</time>
      </trkpt>
      <trkpt lat="43.34505" lon="-1.79536">
        <ele>10</ele>
        <time>2026-07-12T17:38:56.000Z</time>
      </trkpt>
      <trkpt lat="43.34503" lon="-1.79551">
        <ele>9</ele>
        <time>2026-07-12T17:38:58.000Z</time>
      </trkpt>
      <trkpt lat="43.34497" lon="-1.79604">
        <ele>7</ele>
        <time>2026-07-12T17:39:05.000Z</time>
      </trkpt>
      <trkpt lat="43.34495" lon="-1.79617">
        <ele>7</ele>
        <time>2026-07-12T17:39:07.000Z</time>
      </trkpt>
      <trkpt lat="43.34495" lon="-1.79618">
        <ele>7</ele>
        <time>2026-07-12T17:39:07.000Z</time>
      </trkpt>
      <trkpt lat="43.34493" lon="-1.7963">
        <ele>7</ele>
        <time>2026-07-12T17:39:08.000Z</time>
      </trkpt>
      <trkpt lat="43.34493" lon="-1.79638">
        <ele>7</ele>
        <time>2026-07-12T17:39:09.000Z</time>
      </trkpt>
      <trkpt lat="43.34491" lon="-1.79651">
        <ele>7</ele>
        <time>2026-07-12T17:39:11.000Z</time>
      </trkpt>
      <trkpt lat="43.34491" lon="-1.79661">
        <ele>7</ele>
        <time>2026-07-12T17:39:12.000Z</time>
      </trkpt>
      <trkpt lat="43.34489" lon="-1.79682">
        <ele>7</ele>
        <time>2026-07-12T17:39:15.000Z</time>
      </trkpt>
      <trkpt lat="43.34489" lon="-1.79692">
        <ele>7</ele>
        <time>2026-07-12T17:39:16.000Z</time>
      </trkpt>
      <trkpt lat="43.34489" lon="-1.79705">
        <ele>7</ele>
        <time>2026-07-12T17:39:18.000Z</time>
      </trkpt>
      <trkpt lat="43.34489" lon="-1.79716">
        <ele>7</ele>
        <time>2026-07-12T17:39:20.000Z</time>
      </trkpt>
      <trkpt lat="43.34489" lon="-1.79723">
        <ele>7</ele>
        <time>2026-07-12T17:39:20.000Z</time>
      </trkpt>
      <trkpt lat="43.3449" lon="-1.79727">
        <ele>7</ele>
        <time>2026-07-12T17:39:21.000Z</time>
      </trkpt>
      <trkpt lat="43.34491" lon="-1.79743">
        <ele>8</ele>
        <time>2026-07-12T17:39:23.000Z</time>
      </trkpt>
      <trkpt lat="43.34493" lon="-1.79754">
        <ele>8</ele>
        <time>2026-07-12T17:39:25.000Z</time>
      </trkpt>
      <trkpt lat="43.34494" lon="-1.79765">
        <ele>8</ele>
        <time>2026-07-12T17:39:26.000Z</time>
      </trkpt>
      <trkpt lat="43.34496" lon="-1.79778">
        <ele>8</ele>
        <time>2026-07-12T17:39:28.000Z</time>
      </trkpt>
      <trkpt lat="43.34499" lon="-1.7979">
        <ele>8</ele>
        <time>2026-07-12T17:39:29.000Z</time>
      </trkpt>
      <trkpt lat="43.34501" lon="-1.79797">
        <ele>8</ele>
        <time>2026-07-12T17:39:30.000Z</time>
      </trkpt>
      <trkpt lat="43.34503" lon="-1.79806">
        <ele>8</ele>
        <time>2026-07-12T17:39:32.000Z</time>
      </trkpt>
      <trkpt lat="43.34503" lon="-1.79808">
        <ele>8</ele>
        <time>2026-07-12T17:39:32.000Z</time>
      </trkpt>
      <trkpt lat="43.34506" lon="-1.79816">
        <ele>8</ele>
        <time>2026-07-12T17:39:33.000Z</time>
      </trkpt>
      <trkpt lat="43.34509" lon="-1.79826">
        <ele>8</ele>
        <time>2026-07-12T17:39:34.000Z</time>
      </trkpt>
      <trkpt lat="43.34512" lon="-1.79835">
        <ele>8</ele>
        <time>2026-07-12T17:39:36.000Z</time>
      </trkpt>
      <trkpt lat="43.34517" lon="-1.79849">
        <ele>8</ele>
        <time>2026-07-12T17:39:38.000Z</time>
      </trkpt>
      <trkpt lat="43.34522" lon="-1.79861">
        <ele>8</ele>
        <time>2026-07-12T17:39:39.000Z</time>
      </trkpt>
      <trkpt lat="43.34529" lon="-1.79879">
        <ele>8</ele>
        <time>2026-07-12T17:39:42.000Z</time>
      </trkpt>
      <trkpt lat="43.34534" lon="-1.79893">
        <ele>8</ele>
        <time>2026-07-12T17:39:44.000Z</time>
      </trkpt>
      <trkpt lat="43.34535" lon="-1.79895">
        <ele>8</ele>
        <time>2026-07-12T17:39:44.000Z</time>
      </trkpt>
      <trkpt lat="43.34539" lon="-1.79909">
        <ele>8</ele>
        <time>2026-07-12T17:39:46.000Z</time>
      </trkpt>
      <trkpt lat="43.34544" lon="-1.7992">
        <ele>8</ele>
        <time>2026-07-12T17:39:48.000Z</time>
      </trkpt>
      <trkpt lat="43.34545" lon="-1.79925">
        <ele>8</ele>
        <time>2026-07-12T17:39:49.000Z</time>
      </trkpt>
      <trkpt lat="43.3455" lon="-1.7994">
        <ele>7</ele>
        <time>2026-07-12T17:39:51.000Z</time>
      </trkpt>
      <trkpt lat="43.3455" lon="-1.7994">
        <ele>7</ele>
        <time>2026-07-12T17:39:51.000Z</time>
      </trkpt>
      <trkpt lat="43.34553" lon="-1.79943">
        <ele>7</ele>
        <time>2026-07-12T17:39:52.000Z</time>
      </trkpt>
      <trkpt lat="43.34555" lon="-1.79945">
        <ele>6</ele>
        <time>2026-07-12T17:39:52.000Z</time>
      </trkpt>
      <trkpt lat="43.34556" lon="-1.79947">
        <ele>6</ele>
        <time>2026-07-12T17:39:52.000Z</time>
      </trkpt>
      <trkpt lat="43.34558" lon="-1.7995">
        <ele>6</ele>
        <time>2026-07-12T17:39:53.000Z</time>
      </trkpt>
      <trkpt lat="43.34559" lon="-1.79954">
        <ele>6</ele>
        <time>2026-07-12T17:39:53.000Z</time>
      </trkpt>
      <trkpt lat="43.34562" lon="-1.79962">
        <ele>6</ele>
        <time>2026-07-12T17:39:54.000Z</time>
      </trkpt>
      <trkpt lat="43.34566" lon="-1.79973">
        <ele>5</ele>
        <time>2026-07-12T17:39:56.000Z</time>
      </trkpt>
      <trkpt lat="43.3457" lon="-1.79985">
        <ele>5</ele>
        <time>2026-07-12T17:39:58.000Z</time>
      </trkpt>
      <trkpt lat="43.34574" lon="-1.79992">
        <ele>5</ele>
        <time>2026-07-12T17:39:59.000Z</time>
      </trkpt>
      <trkpt lat="43.34577" lon="-1.79997">
        <ele>5</ele>
        <time>2026-07-12T17:40:00.000Z</time>
      </trkpt>
      <trkpt lat="43.34577" lon="-1.79997">
        <ele>5</ele>
        <time>2026-07-12T17:40:00.000Z</time>
      </trkpt>
      <trkpt lat="43.34579" lon="-1.80001">
        <ele>4</ele>
        <time>2026-07-12T17:40:00.000Z</time>
      </trkpt>
      <trkpt lat="43.34583" lon="-1.80008">
        <ele>4</ele>
        <time>2026-07-12T17:40:02.000Z</time>
      </trkpt>
      <trkpt lat="43.34586" lon="-1.80014">
        <ele>4</ele>
        <time>2026-07-12T17:40:03.000Z</time>
      </trkpt>
      <trkpt lat="43.34588" lon="-1.80019">
        <ele>4</ele>
        <time>2026-07-12T17:40:03.000Z</time>
      </trkpt>
      <trkpt lat="43.3459" lon="-1.80023">
        <ele>4</ele>
        <time>2026-07-12T17:40:04.000Z</time>
      </trkpt>
      <trkpt lat="43.34591" lon="-1.80026">
        <ele>4</ele>
        <time>2026-07-12T17:40:04.000Z</time>
      </trkpt>
      <trkpt lat="43.34591" lon="-1.80028">
        <ele>4</ele>
        <time>2026-07-12T17:40:05.000Z</time>
      </trkpt>
      <trkpt lat="43.34591" lon="-1.80031">
        <ele>4</ele>
        <time>2026-07-12T17:40:05.000Z</time>
      </trkpt>
      <trkpt lat="43.34591" lon="-1.80034">
        <ele>4</ele>
        <time>2026-07-12T17:40:05.000Z</time>
      </trkpt>
      <trkpt lat="43.34591" lon="-1.80039">
        <ele>4</ele>
        <time>2026-07-12T17:40:06.000Z</time>
      </trkpt>
      <trkpt lat="43.34589" lon="-1.80043">
        <ele>4</ele>
        <time>2026-07-12T17:40:07.000Z</time>
      </trkpt>
      <trkpt lat="43.34588" lon="-1.80046">
        <ele>4</ele>
        <time>2026-07-12T17:40:07.000Z</time>
      </trkpt>
      <trkpt lat="43.34584" lon="-1.80053">
        <ele>4</ele>
        <time>2026-07-12T17:40:08.000Z</time>
      </trkpt>
      <trkpt lat="43.3458" lon="-1.80059">
        <ele>4</ele>
        <time>2026-07-12T17:40:09.000Z</time>
      </trkpt>
      <trkpt lat="43.34577" lon="-1.80062">
        <ele>4</ele>
        <time>2026-07-12T17:40:10.000Z</time>
      </trkpt>
      <trkpt lat="43.34573" lon="-1.80067">
        <ele>5</ele>
        <time>2026-07-12T17:40:11.000Z</time>
      </trkpt>
      <trkpt lat="43.34567" lon="-1.80076">
        <ele>5</ele>
        <time>2026-07-12T17:40:12.000Z</time>
      </trkpt>
      <trkpt lat="43.34565" lon="-1.80077">
        <ele>5</ele>
        <time>2026-07-12T17:40:13.000Z</time>
      </trkpt>
      <trkpt lat="43.34554" lon="-1.80092">
        <ele>6</ele>
        <time>2026-07-12T17:40:16.000Z</time>
      </trkpt>
      <trkpt lat="43.34546" lon="-1.80107">
        <ele>6</ele>
        <time>2026-07-12T17:40:18.000Z</time>
      </trkpt>
      <trkpt lat="43.34545" lon="-1.80112">
        <ele>6</ele>
        <time>2026-07-12T17:40:19.000Z</time>
      </trkpt>
      <trkpt lat="43.34545" lon="-1.80115">
        <ele>6</ele>
        <time>2026-07-12T17:40:19.000Z</time>
      </trkpt>
      <trkpt lat="43.34546" lon="-1.80119">
        <ele>6</ele>
        <time>2026-07-12T17:40:20.000Z</time>
      </trkpt>
      <trkpt lat="43.34546" lon="-1.80122">
        <ele>6</ele>
        <time>2026-07-12T17:40:20.000Z</time>
      </trkpt>
      <trkpt lat="43.34546" lon="-1.80125">
        <ele>6</ele>
        <time>2026-07-12T17:40:20.000Z</time>
      </trkpt>
      <trkpt lat="43.34546" lon="-1.80128">
        <ele>6</ele>
        <time>2026-07-12T17:40:21.000Z</time>
      </trkpt>
      <trkpt lat="43.34546" lon="-1.80131">
        <ele>6</ele>
        <time>2026-07-12T17:40:21.000Z</time>
      </trkpt>
      <trkpt lat="43.34545" lon="-1.80134">
        <ele>6</ele>
        <time>2026-07-12T17:40:22.000Z</time>
      </trkpt>
      <trkpt lat="43.34544" lon="-1.80138">
        <ele>6</ele>
        <time>2026-07-12T17:40:22.000Z</time>
      </trkpt>
      <trkpt lat="43.34543" lon="-1.8014">
        <ele>6</ele>
        <time>2026-07-12T17:40:22.000Z</time>
      </trkpt>
      <trkpt lat="43.34542" lon="-1.80142">
        <ele>6</ele>
        <time>2026-07-12T17:40:23.000Z</time>
      </trkpt>
      <trkpt lat="43.34541" lon="-1.80145">
        <ele>6</ele>
        <time>2026-07-12T17:40:23.000Z</time>
      </trkpt>
      <trkpt lat="43.3454" lon="-1.80147">
        <ele>6</ele>
        <time>2026-07-12T17:40:23.000Z</time>
      </trkpt>
      <trkpt lat="43.34539" lon="-1.80149">
        <ele>6</ele>
        <time>2026-07-12T17:40:24.000Z</time>
      </trkpt>
      <trkpt lat="43.34537" lon="-1.80151">
        <ele>6</ele>
        <time>2026-07-12T17:40:24.000Z</time>
      </trkpt>
      <trkpt lat="43.34536" lon="-1.80153">
        <ele>6</ele>
        <time>2026-07-12T17:40:25.000Z</time>
      </trkpt>
      <trkpt lat="43.34534" lon="-1.80154">
        <ele>6</ele>
        <time>2026-07-12T17:40:25.000Z</time>
      </trkpt>
      <trkpt lat="43.34533" lon="-1.80155">
        <ele>6</ele>
        <time>2026-07-12T17:40:25.000Z</time>
      </trkpt>
      <trkpt lat="43.34532" lon="-1.80156">
        <ele>6</ele>
        <time>2026-07-12T17:40:25.000Z</time>
      </trkpt>
      <trkpt lat="43.34531" lon="-1.80157">
        <ele>6</ele>
        <time>2026-07-12T17:40:26.000Z</time>
      </trkpt>
      <trkpt lat="43.3453" lon="-1.80158">
        <ele>6</ele>
        <time>2026-07-12T17:40:26.000Z</time>
      </trkpt>
      <trkpt lat="43.34528" lon="-1.80158">
        <ele>6</ele>
        <time>2026-07-12T17:40:26.000Z</time>
      </trkpt>
      <trkpt lat="43.34527" lon="-1.80159">
        <ele>6</ele>
        <time>2026-07-12T17:40:26.000Z</time>
      </trkpt>
      <trkpt lat="43.34526" lon="-1.80159">
        <ele>6</ele>
        <time>2026-07-12T17:40:27.000Z</time>
      </trkpt>
      <trkpt lat="43.34525" lon="-1.8016">
        <ele>6</ele>
        <time>2026-07-12T17:40:27.000Z</time>
      </trkpt>
      <trkpt lat="43.34521" lon="-1.80165">
        <ele>6</ele>
        <time>2026-07-12T17:40:28.000Z</time>
      </trkpt>
      <trkpt lat="43.34519" lon="-1.80169">
        <ele>6</ele>
        <time>2026-07-12T17:40:28.000Z</time>
      </trkpt>
      <trkpt lat="43.34518" lon="-1.80172">
        <ele>6</ele>
        <time>2026-07-12T17:40:29.000Z</time>
      </trkpt>
      <trkpt lat="43.34515" lon="-1.80179">
        <ele>6</ele>
        <time>2026-07-12T17:40:30.000Z</time>
      </trkpt>
      <trkpt lat="43.34514" lon="-1.80182">
        <ele>6</ele>
        <time>2026-07-12T17:40:30.000Z</time>
      </trkpt>
      <trkpt lat="43.34513" lon="-1.80186">
        <ele>6</ele>
        <time>2026-07-12T17:40:31.000Z</time>
      </trkpt>
      <trkpt lat="43.34502" lon="-1.80219">
        <ele>6</ele>
        <time>2026-07-12T17:40:36.000Z</time>
      </trkpt>
      <trkpt lat="43.34495" lon="-1.80241">
        <ele>6</ele>
        <time>2026-07-12T17:40:39.000Z</time>
      </trkpt>
      <trkpt lat="43.34488" lon="-1.80268">
        <ele>6</ele>
        <time>2026-07-12T17:40:42.000Z</time>
      </trkpt>
      <trkpt lat="43.34478" lon="-1.80307">
        <ele>8</ele>
        <time>2026-07-12T17:40:48.000Z</time>
      </trkpt>
      <trkpt lat="43.34476" lon="-1.80315">
        <ele>8</ele>
        <time>2026-07-12T17:40:49.000Z</time>
      </trkpt>
      <trkpt lat="43.34474" lon="-1.80324">
        <ele>8</ele>
        <time>2026-07-12T17:40:50.000Z</time>
      </trkpt>
      <trkpt lat="43.34467" lon="-1.80354">
        <ele>9</ele>
        <time>2026-07-12T17:40:54.000Z</time>
      </trkpt>
      <trkpt lat="43.34452" lon="-1.8041">
        <ele>10</ele>
        <time>2026-07-12T17:41:02.000Z</time>
      </trkpt>
      <trkpt lat="43.34446" lon="-1.80428">
        <ele>11</ele>
        <time>2026-07-12T17:41:04.000Z</time>
      </trkpt>
      <trkpt lat="43.34439" lon="-1.80446">
        <ele>11</ele>
        <time>2026-07-12T17:41:07.000Z</time>
      </trkpt>
      <trkpt lat="43.3443" lon="-1.80465">
        <ele>12</ele>
        <time>2026-07-12T17:41:10.000Z</time>
      </trkpt>
      <trkpt lat="43.34427" lon="-1.80472">
        <ele>12</ele>
        <time>2026-07-12T17:41:11.000Z</time>
      </trkpt>
      <trkpt lat="43.34425" lon="-1.80476">
        <ele>12</ele>
        <time>2026-07-12T17:41:12.000Z</time>
      </trkpt>
      <trkpt lat="43.34421" lon="-1.80484">
        <ele>12</ele>
        <time>2026-07-12T17:41:13.000Z</time>
      </trkpt>
      <trkpt lat="43.34416" lon="-1.80492">
        <ele>13</ele>
        <time>2026-07-12T17:41:14.000Z</time>
      </trkpt>
      <trkpt lat="43.34412" lon="-1.80497">
        <ele>13</ele>
        <time>2026-07-12T17:41:15.000Z</time>
      </trkpt>
      <trkpt lat="43.34408" lon="-1.80504">
        <ele>13</ele>
        <time>2026-07-12T17:41:16.000Z</time>
      </trkpt>
      <trkpt lat="43.34405" lon="-1.8051">
        <ele>13</ele>
        <time>2026-07-12T17:41:17.000Z</time>
      </trkpt>
      <trkpt lat="43.34401" lon="-1.8052">
        <ele>13</ele>
        <time>2026-07-12T17:41:19.000Z</time>
      </trkpt>
      <trkpt lat="43.34401" lon="-1.80523">
        <ele>13</ele>
        <time>2026-07-12T17:41:19.000Z</time>
      </trkpt>
      <trkpt lat="43.344" lon="-1.80525">
        <ele>13</ele>
        <time>2026-07-12T17:41:19.000Z</time>
      </trkpt>
      <trkpt lat="43.344" lon="-1.80527">
        <ele>13</ele>
        <time>2026-07-12T17:41:20.000Z</time>
      </trkpt>
      <trkpt lat="43.34399" lon="-1.80529">
        <ele>13</ele>
        <time>2026-07-12T17:41:20.000Z</time>
      </trkpt>
      <trkpt lat="43.34398" lon="-1.80531">
        <ele>13</ele>
        <time>2026-07-12T17:41:20.000Z</time>
      </trkpt>
      <trkpt lat="43.34397" lon="-1.80532">
        <ele>13</ele>
        <time>2026-07-12T17:41:21.000Z</time>
      </trkpt>
      <trkpt lat="43.34396" lon="-1.80534">
        <ele>13</ele>
        <time>2026-07-12T17:41:21.000Z</time>
      </trkpt>
      <trkpt lat="43.34394" lon="-1.80535">
        <ele>13</ele>
        <time>2026-07-12T17:41:21.000Z</time>
      </trkpt>
      <trkpt lat="43.34393" lon="-1.80537">
        <ele>13</ele>
        <time>2026-07-12T17:41:22.000Z</time>
      </trkpt>
      <trkpt lat="43.34392" lon="-1.80538">
        <ele>13</ele>
        <time>2026-07-12T17:41:22.000Z</time>
      </trkpt>
      <trkpt lat="43.3439" lon="-1.80539">
        <ele>13</ele>
        <time>2026-07-12T17:41:22.000Z</time>
      </trkpt>
      <trkpt lat="43.34389" lon="-1.8054">
        <ele>13</ele>
        <time>2026-07-12T17:41:22.000Z</time>
      </trkpt>
      <trkpt lat="43.34387" lon="-1.8054">
        <ele>13</ele>
        <time>2026-07-12T17:41:23.000Z</time>
      </trkpt>
      <trkpt lat="43.34385" lon="-1.80541">
        <ele>13</ele>
        <time>2026-07-12T17:41:23.000Z</time>
      </trkpt>
      <trkpt lat="43.34384" lon="-1.80541">
        <ele>13</ele>
        <time>2026-07-12T17:41:23.000Z</time>
      </trkpt>
      <trkpt lat="43.34382" lon="-1.80541">
        <ele>13</ele>
        <time>2026-07-12T17:41:24.000Z</time>
      </trkpt>
      <trkpt lat="43.34383" lon="-1.80544">
        <ele>13</ele>
        <time>2026-07-12T17:41:24.000Z</time>
      </trkpt>
      <trkpt lat="43.34383" lon="-1.80547">
        <ele>13</ele>
        <time>2026-07-12T17:41:24.000Z</time>
      </trkpt>
      <trkpt lat="43.34383" lon="-1.80549">
        <ele>13</ele>
        <time>2026-07-12T17:41:25.000Z</time>
      </trkpt>
      <trkpt lat="43.34382" lon="-1.80552">
        <ele>13</ele>
        <time>2026-07-12T17:41:25.000Z</time>
      </trkpt>
      <trkpt lat="43.3438" lon="-1.80557">
        <ele>13</ele>
        <time>2026-07-12T17:41:26.000Z</time>
      </trkpt>
      <trkpt lat="43.34363" lon="-1.80588">
        <ele>14</ele>
        <time>2026-07-12T17:41:31.000Z</time>
      </trkpt>
      <trkpt lat="43.34349" lon="-1.80613">
        <ele>14</ele>
        <time>2026-07-12T17:41:35.000Z</time>
      </trkpt>
      <trkpt lat="43.34308" lon="-1.80685">
        <ele>13</ele>
        <time>2026-07-12T17:41:47.000Z</time>
      </trkpt>
      <trkpt lat="43.34263" lon="-1.80762">
        <ele>12</ele>
        <time>2026-07-12T17:42:00.000Z</time>
      </trkpt>
      <trkpt lat="43.34253" lon="-1.80781">
        <ele>13</ele>
        <time>2026-07-12T17:42:03.000Z</time>
      </trkpt>
      <trkpt lat="43.34235" lon="-1.80809">
        <ele>16</ele>
        <time>2026-07-12T17:42:08.000Z</time>
      </trkpt>
      <trkpt lat="43.34229" lon="-1.80819">
        <ele>17</ele>
        <time>2026-07-12T17:42:09.000Z</time>
      </trkpt>
      <trkpt lat="43.34204" lon="-1.80855">
        <ele>18</ele>
        <time>2026-07-12T17:42:16.000Z</time>
      </trkpt>
      <trkpt lat="43.3419" lon="-1.80874">
        <ele>18</ele>
        <time>2026-07-12T17:42:19.000Z</time>
      </trkpt>
      <trkpt lat="43.34156" lon="-1.80918">
        <ele>17</ele>
        <time>2026-07-12T17:42:27.000Z</time>
      </trkpt>
      <trkpt lat="43.34136" lon="-1.80942">
        <ele>19</ele>
        <time>2026-07-12T17:42:32.000Z</time>
      </trkpt>
      <trkpt lat="43.34111" lon="-1.80973">
        <ele>21</ele>
        <time>2026-07-12T17:42:38.000Z</time>
      </trkpt>
      <trkpt lat="43.34081" lon="-1.81006">
        <ele>23</ele>
        <time>2026-07-12T17:42:45.000Z</time>
      </trkpt>
      <trkpt lat="43.34062" lon="-1.81026">
        <ele>24</ele>
        <time>2026-07-12T17:42:49.000Z</time>
      </trkpt>
      <trkpt lat="43.34044" lon="-1.81044">
        <ele>25</ele>
        <time>2026-07-12T17:42:53.000Z</time>
      </trkpt>
      <trkpt lat="43.34042" lon="-1.81047">
        <ele>25</ele>
        <time>2026-07-12T17:42:54.000Z</time>
      </trkpt>
      <trkpt lat="43.34003" lon="-1.81082">
        <ele>25</ele>
        <time>2026-07-12T17:43:02.000Z</time>
      </trkpt>
      <trkpt lat="43.33985" lon="-1.811">
        <ele>26</ele>
        <time>2026-07-12T17:43:06.000Z</time>
      </trkpt>
      <trkpt lat="43.33985" lon="-1.81102">
        <ele>26</ele>
        <time>2026-07-12T17:43:06.000Z</time>
      </trkpt>
      <trkpt lat="43.33986" lon="-1.81104">
        <ele>26</ele>
        <time>2026-07-12T17:43:07.000Z</time>
      </trkpt>
      <trkpt lat="43.33986" lon="-1.81106">
        <ele>26</ele>
        <time>2026-07-12T17:43:07.000Z</time>
      </trkpt>
      <trkpt lat="43.33986" lon="-1.81108">
        <ele>26</ele>
        <time>2026-07-12T17:43:07.000Z</time>
      </trkpt>
      <trkpt lat="43.33986" lon="-1.8111">
        <ele>26</ele>
        <time>2026-07-12T17:43:07.000Z</time>
      </trkpt>
      <trkpt lat="43.33986" lon="-1.81113">
        <ele>26</ele>
        <time>2026-07-12T17:43:08.000Z</time>
      </trkpt>
      <trkpt lat="43.33986" lon="-1.81115">
        <ele>26</ele>
        <time>2026-07-12T17:43:08.000Z</time>
      </trkpt>
      <trkpt lat="43.33986" lon="-1.81117">
        <ele>26</ele>
        <time>2026-07-12T17:43:08.000Z</time>
      </trkpt>
      <trkpt lat="43.33985" lon="-1.81123">
        <ele>27</ele>
        <time>2026-07-12T17:43:09.000Z</time>
      </trkpt>
      <trkpt lat="43.33984" lon="-1.81125">
        <ele>27</ele>
        <time>2026-07-12T17:43:09.000Z</time>
      </trkpt>
      <trkpt lat="43.33982" lon="-1.81128">
        <ele>27</ele>
        <time>2026-07-12T17:43:10.000Z</time>
      </trkpt>
      <trkpt lat="43.33981" lon="-1.81131">
        <ele>27</ele>
        <time>2026-07-12T17:43:10.000Z</time>
      </trkpt>
      <trkpt lat="43.33979" lon="-1.81133">
        <ele>27</ele>
        <time>2026-07-12T17:43:11.000Z</time>
      </trkpt>
      <trkpt lat="43.33978" lon="-1.81135">
        <ele>27</ele>
        <time>2026-07-12T17:43:11.000Z</time>
      </trkpt>
      <trkpt lat="43.33976" lon="-1.81137">
        <ele>27</ele>
        <time>2026-07-12T17:43:11.000Z</time>
      </trkpt>
      <trkpt lat="43.33974" lon="-1.81138">
        <ele>27</ele>
        <time>2026-07-12T17:43:12.000Z</time>
      </trkpt>
      <trkpt lat="43.33972" lon="-1.81139">
        <ele>27</ele>
        <time>2026-07-12T17:43:12.000Z</time>
      </trkpt>
      <trkpt lat="43.3397" lon="-1.8114">
        <ele>27</ele>
        <time>2026-07-12T17:43:13.000Z</time>
      </trkpt>
      <trkpt lat="43.33968" lon="-1.81141">
        <ele>27</ele>
        <time>2026-07-12T17:43:13.000Z</time>
      </trkpt>
      <trkpt lat="43.33965" lon="-1.81141">
        <ele>27</ele>
        <time>2026-07-12T17:43:14.000Z</time>
      </trkpt>
      <trkpt lat="43.33963" lon="-1.81141">
        <ele>28</ele>
        <time>2026-07-12T17:43:14.000Z</time>
      </trkpt>
      <trkpt lat="43.33961" lon="-1.81141">
        <ele>28</ele>
        <time>2026-07-12T17:43:14.000Z</time>
      </trkpt>
      <trkpt lat="43.3396" lon="-1.81141">
        <ele>28</ele>
        <time>2026-07-12T17:43:14.000Z</time>
      </trkpt>
      <trkpt lat="43.33957" lon="-1.8114">
        <ele>28</ele>
        <time>2026-07-12T17:43:15.000Z</time>
      </trkpt>
      <trkpt lat="43.33956" lon="-1.8114">
        <ele>28</ele>
        <time>2026-07-12T17:43:15.000Z</time>
      </trkpt>
      <trkpt lat="43.33955" lon="-1.81139">
        <ele>28</ele>
        <time>2026-07-12T17:43:15.000Z</time>
      </trkpt>
      <trkpt lat="43.33953" lon="-1.81138">
        <ele>28</ele>
        <time>2026-07-12T17:43:16.000Z</time>
      </trkpt>
      <trkpt lat="43.33952" lon="-1.81137">
        <ele>28</ele>
        <time>2026-07-12T17:43:16.000Z</time>
      </trkpt>
      <trkpt lat="43.33951" lon="-1.81136">
        <ele>28</ele>
        <time>2026-07-12T17:43:16.000Z</time>
      </trkpt>
      <trkpt lat="43.3395" lon="-1.81135">
        <ele>28</ele>
        <time>2026-07-12T17:43:16.000Z</time>
      </trkpt>
      <trkpt lat="43.33948" lon="-1.81134">
        <ele>28</ele>
        <time>2026-07-12T17:43:17.000Z</time>
      </trkpt>
      <trkpt lat="43.33948" lon="-1.81132">
        <ele>28</ele>
        <time>2026-07-12T17:43:17.000Z</time>
      </trkpt>
      <trkpt lat="43.33947" lon="-1.81131">
        <ele>28</ele>
        <time>2026-07-12T17:43:17.000Z</time>
      </trkpt>
      <trkpt lat="43.33946" lon="-1.81129">
        <ele>28</ele>
        <time>2026-07-12T17:43:18.000Z</time>
      </trkpt>
      <trkpt lat="43.33945" lon="-1.81128">
        <ele>28</ele>
        <time>2026-07-12T17:43:18.000Z</time>
      </trkpt>
      <trkpt lat="43.33944" lon="-1.81126">
        <ele>28</ele>
        <time>2026-07-12T17:43:18.000Z</time>
      </trkpt>
      <trkpt lat="43.33944" lon="-1.81124">
        <ele>28</ele>
        <time>2026-07-12T17:43:18.000Z</time>
      </trkpt>
      <trkpt lat="43.33943" lon="-1.81123">
        <ele>28</ele>
        <time>2026-07-12T17:43:19.000Z</time>
      </trkpt>
      <trkpt lat="43.33943" lon="-1.81121">
        <ele>28</ele>
        <time>2026-07-12T17:43:19.000Z</time>
      </trkpt>
      <trkpt lat="43.33942" lon="-1.81119">
        <ele>28</ele>
        <time>2026-07-12T17:43:19.000Z</time>
      </trkpt>
      <trkpt lat="43.33942" lon="-1.81118">
        <ele>28</ele>
        <time>2026-07-12T17:43:19.000Z</time>
      </trkpt>
      <trkpt lat="43.33942" lon="-1.81116">
        <ele>28</ele>
        <time>2026-07-12T17:43:20.000Z</time>
      </trkpt>
      <trkpt lat="43.33941" lon="-1.81114">
        <ele>28</ele>
        <time>2026-07-12T17:43:20.000Z</time>
      </trkpt>
      <trkpt lat="43.33941" lon="-1.81112">
        <ele>28</ele>
        <time>2026-07-12T17:43:20.000Z</time>
      </trkpt>
      <trkpt lat="43.33941" lon="-1.8111">
        <ele>28</ele>
        <time>2026-07-12T17:43:20.000Z</time>
      </trkpt>
      <trkpt lat="43.33941" lon="-1.81109">
        <ele>28</ele>
        <time>2026-07-12T17:43:21.000Z</time>
      </trkpt>
      <trkpt lat="43.33942" lon="-1.81105">
        <ele>28</ele>
        <time>2026-07-12T17:43:21.000Z</time>
      </trkpt>
      <trkpt lat="43.33942" lon="-1.81104">
        <ele>28</ele>
        <time>2026-07-12T17:43:21.000Z</time>
      </trkpt>
      <trkpt lat="43.33942" lon="-1.81101">
        <ele>28</ele>
        <time>2026-07-12T17:43:22.000Z</time>
      </trkpt>
      <trkpt lat="43.33943" lon="-1.81098">
        <ele>28</ele>
        <time>2026-07-12T17:43:22.000Z</time>
      </trkpt>
      <trkpt lat="43.33944" lon="-1.81095">
        <ele>28</ele>
        <time>2026-07-12T17:43:22.000Z</time>
      </trkpt>
      <trkpt lat="43.33945" lon="-1.81093">
        <ele>28</ele>
        <time>2026-07-12T17:43:23.000Z</time>
      </trkpt>
      <trkpt lat="43.33947" lon="-1.8109">
        <ele>28</ele>
        <time>2026-07-12T17:43:23.000Z</time>
      </trkpt>
      <trkpt lat="43.33948" lon="-1.81088">
        <ele>28</ele>
        <time>2026-07-12T17:43:24.000Z</time>
      </trkpt>
      <trkpt lat="43.3395" lon="-1.81086">
        <ele>27</ele>
        <time>2026-07-12T17:43:24.000Z</time>
      </trkpt>
      <trkpt lat="43.33952" lon="-1.81084">
        <ele>27</ele>
        <time>2026-07-12T17:43:24.000Z</time>
      </trkpt>
      <trkpt lat="43.33954" lon="-1.81083">
        <ele>27</ele>
        <time>2026-07-12T17:43:25.000Z</time>
      </trkpt>
      <trkpt lat="43.33958" lon="-1.81081">
        <ele>27</ele>
        <time>2026-07-12T17:43:26.000Z</time>
      </trkpt>
      <trkpt lat="43.33959" lon="-1.8108">
        <ele>27</ele>
        <time>2026-07-12T17:43:26.000Z</time>
      </trkpt>
      <trkpt lat="43.3396" lon="-1.8108">
        <ele>27</ele>
        <time>2026-07-12T17:43:26.000Z</time>
      </trkpt>
      <trkpt lat="43.33961" lon="-1.8108">
        <ele>27</ele>
        <time>2026-07-12T17:43:26.000Z</time>
      </trkpt>
      <trkpt lat="43.33962" lon="-1.8108">
        <ele>27</ele>
        <time>2026-07-12T17:43:26.000Z</time>
      </trkpt>
      <trkpt lat="43.33963" lon="-1.8108">
        <ele>27</ele>
        <time>2026-07-12T17:43:27.000Z</time>
      </trkpt>
      <trkpt lat="43.33964" lon="-1.8108">
        <ele>27</ele>
        <time>2026-07-12T17:43:27.000Z</time>
      </trkpt>
      <trkpt lat="43.33965" lon="-1.81079">
        <ele>27</ele>
        <time>2026-07-12T17:43:27.000Z</time>
      </trkpt>
      <trkpt lat="43.33966" lon="-1.81079">
        <ele>27</ele>
        <time>2026-07-12T17:43:27.000Z</time>
      </trkpt>
      <trkpt lat="43.33968" lon="-1.8108">
        <ele>26</ele>
        <time>2026-07-12T17:43:28.000Z</time>
      </trkpt>
      <trkpt lat="43.3397" lon="-1.8108">
        <ele>26</ele>
        <time>2026-07-12T17:43:28.000Z</time>
      </trkpt>
      <trkpt lat="43.33971" lon="-1.8108">
        <ele>26</ele>
        <time>2026-07-12T17:43:28.000Z</time>
      </trkpt>
      <trkpt lat="43.33973" lon="-1.81081">
        <ele>26</ele>
        <time>2026-07-12T17:43:28.000Z</time>
      </trkpt>
      <trkpt lat="43.33974" lon="-1.81082">
        <ele>26</ele>
        <time>2026-07-12T17:43:29.000Z</time>
      </trkpt>
      <trkpt lat="43.33976" lon="-1.81084">
        <ele>26</ele>
        <time>2026-07-12T17:43:29.000Z</time>
      </trkpt>
      <trkpt lat="43.33977" lon="-1.81085">
        <ele>26</ele>
        <time>2026-07-12T17:43:29.000Z</time>
      </trkpt>
      <trkpt lat="43.33978" lon="-1.81087">
        <ele>26</ele>
        <time>2026-07-12T17:43:30.000Z</time>
      </trkpt>
      <trkpt lat="43.33979" lon="-1.81088">
        <ele>26</ele>
        <time>2026-07-12T17:43:30.000Z</time>
      </trkpt>
      <trkpt lat="43.3398" lon="-1.8109">
        <ele>26</ele>
        <time>2026-07-12T17:43:30.000Z</time>
      </trkpt>
      <trkpt lat="43.33981" lon="-1.81092">
        <ele>26</ele>
        <time>2026-07-12T17:43:30.000Z</time>
      </trkpt>
      <trkpt lat="43.33982" lon="-1.81094">
        <ele>26</ele>
        <time>2026-07-12T17:43:31.000Z</time>
      </trkpt>
      <trkpt lat="43.33983" lon="-1.81096">
        <ele>26</ele>
        <time>2026-07-12T17:43:31.000Z</time>
      </trkpt>
      <trkpt lat="43.33984" lon="-1.81098">
        <ele>26</ele>
        <time>2026-07-12T17:43:31.000Z</time>
      </trkpt>
      <trkpt lat="43.33985" lon="-1.811">
        <ele>26</ele>
        <time>2026-07-12T17:43:32.000Z</time>
      </trkpt>
      <trkpt lat="43.33985" lon="-1.81102">
        <ele>26</ele>
        <time>2026-07-12T17:43:32.000Z</time>
      </trkpt>
      <trkpt lat="43.33986" lon="-1.81104">
        <ele>26</ele>
        <time>2026-07-12T17:43:32.000Z</time>
      </trkpt>
      <trkpt lat="43.33986" lon="-1.81106">
        <ele>26</ele>
        <time>2026-07-12T17:43:33.000Z</time>
      </trkpt>
      <trkpt lat="43.33986" lon="-1.81108">
        <ele>26</ele>
        <time>2026-07-12T17:43:33.000Z</time>
      </trkpt>
      <trkpt lat="43.33986" lon="-1.8111">
        <ele>26</ele>
        <time>2026-07-12T17:43:33.000Z</time>
      </trkpt>
      <trkpt lat="43.33986" lon="-1.81113">
        <ele>26</ele>
        <time>2026-07-12T17:43:33.000Z</time>
      </trkpt>
      <trkpt lat="43.33986" lon="-1.81115">
        <ele>26</ele>
        <time>2026-07-12T17:43:34.000Z</time>
      </trkpt>
      <trkpt lat="43.33986" lon="-1.81117">
        <ele>26</ele>
        <time>2026-07-12T17:43:34.000Z</time>
      </trkpt>
      <trkpt lat="43.33985" lon="-1.81123">
        <ele>27</ele>
        <time>2026-07-12T17:43:35.000Z</time>
      </trkpt>
      <trkpt lat="43.33984" lon="-1.81125">
        <ele>27</ele>
        <time>2026-07-12T17:43:35.000Z</time>
      </trkpt>
      <trkpt lat="43.33982" lon="-1.81128">
        <ele>27</ele>
        <time>2026-07-12T17:43:36.000Z</time>
      </trkpt>
      <trkpt lat="43.33981" lon="-1.81131">
        <ele>27</ele>
        <time>2026-07-12T17:43:36.000Z</time>
      </trkpt>
      <trkpt lat="43.33979" lon="-1.81133">
        <ele>27</ele>
        <time>2026-07-12T17:43:36.000Z</time>
      </trkpt>
      <trkpt lat="43.33978" lon="-1.81135">
        <ele>27</ele>
        <time>2026-07-12T17:43:37.000Z</time>
      </trkpt>
      <trkpt lat="43.33976" lon="-1.81137">
        <ele>27</ele>
        <time>2026-07-12T17:43:37.000Z</time>
      </trkpt>
      <trkpt lat="43.33974" lon="-1.81138">
        <ele>27</ele>
        <time>2026-07-12T17:43:38.000Z</time>
      </trkpt>
      <trkpt lat="43.33972" lon="-1.81139">
        <ele>27</ele>
        <time>2026-07-12T17:43:38.000Z</time>
      </trkpt>
      <trkpt lat="43.3397" lon="-1.8114">
        <ele>27</ele>
        <time>2026-07-12T17:43:38.000Z</time>
      </trkpt>
      <trkpt lat="43.33968" lon="-1.81141">
        <ele>27</ele>
        <time>2026-07-12T17:43:39.000Z</time>
      </trkpt>
      <trkpt lat="43.33965" lon="-1.81141">
        <ele>27</ele>
        <time>2026-07-12T17:43:39.000Z</time>
      </trkpt>
      <trkpt lat="43.33963" lon="-1.81141">
        <ele>28</ele>
        <time>2026-07-12T17:43:40.000Z</time>
      </trkpt>
      <trkpt lat="43.33961" lon="-1.81141">
        <ele>28</ele>
        <time>2026-07-12T17:43:40.000Z</time>
      </trkpt>
      <trkpt lat="43.3396" lon="-1.81141">
        <ele>28</ele>
        <time>2026-07-12T17:43:40.000Z</time>
      </trkpt>
      <trkpt lat="43.33957" lon="-1.8114">
        <ele>28</ele>
        <time>2026-07-12T17:43:41.000Z</time>
      </trkpt>
      <trkpt lat="43.33956" lon="-1.8114">
        <ele>28</ele>
        <time>2026-07-12T17:43:41.000Z</time>
      </trkpt>
      <trkpt lat="43.33955" lon="-1.81139">
        <ele>28</ele>
        <time>2026-07-12T17:43:41.000Z</time>
      </trkpt>
      <trkpt lat="43.33953" lon="-1.81138">
        <ele>28</ele>
        <time>2026-07-12T17:43:41.000Z</time>
      </trkpt>
      <trkpt lat="43.33952" lon="-1.81137">
        <ele>28</ele>
        <time>2026-07-12T17:43:42.000Z</time>
      </trkpt>
      <trkpt lat="43.33951" lon="-1.81136">
        <ele>28</ele>
        <time>2026-07-12T17:43:42.000Z</time>
      </trkpt>
      <trkpt lat="43.3395" lon="-1.81135">
        <ele>28</ele>
        <time>2026-07-12T17:43:42.000Z</time>
      </trkpt>
      <trkpt lat="43.33948" lon="-1.81134">
        <ele>28</ele>
        <time>2026-07-12T17:43:43.000Z</time>
      </trkpt>
      <trkpt lat="43.33932" lon="-1.81148">
        <ele>29</ele>
        <time>2026-07-12T17:43:46.000Z</time>
      </trkpt>
      <trkpt lat="43.33867" lon="-1.81207">
        <ele>28</ele>
        <time>2026-07-12T17:44:00.000Z</time>
      </trkpt>
      <trkpt lat="43.33819" lon="-1.8125">
        <ele>26</ele>
        <time>2026-07-12T17:44:10.000Z</time>
      </trkpt>
      <trkpt lat="43.33801" lon="-1.81268">
        <ele>25</ele>
        <time>2026-07-12T17:44:14.000Z</time>
      </trkpt>
      <trkpt lat="43.33801" lon="-1.81268">
        <ele>25</ele>
        <time>2026-07-12T17:44:14.000Z</time>
      </trkpt>
      <trkpt lat="43.33801" lon="-1.81274">
        <ele>24</ele>
        <time>2026-07-12T17:44:15.000Z</time>
      </trkpt>
      <trkpt lat="43.33801" lon="-1.81279">
        <ele>24</ele>
        <time>2026-07-12T17:44:15.000Z</time>
      </trkpt>
      <trkpt lat="43.33801" lon="-1.81283">
        <ele>24</ele>
        <time>2026-07-12T17:44:16.000Z</time>
      </trkpt>
      <trkpt lat="43.33801" lon="-1.81284">
        <ele>24</ele>
        <time>2026-07-12T17:44:16.000Z</time>
      </trkpt>
      <trkpt lat="43.338" lon="-1.81289">
        <ele>24</ele>
        <time>2026-07-12T17:44:17.000Z</time>
      </trkpt>
      <trkpt lat="43.33799" lon="-1.81293">
        <ele>24</ele>
        <time>2026-07-12T17:44:17.000Z</time>
      </trkpt>
      <trkpt lat="43.33797" lon="-1.81296">
        <ele>24</ele>
        <time>2026-07-12T17:44:18.000Z</time>
      </trkpt>
      <trkpt lat="43.33795" lon="-1.813">
        <ele>23</ele>
        <time>2026-07-12T17:44:18.000Z</time>
      </trkpt>
      <trkpt lat="43.33792" lon="-1.81302">
        <ele>23</ele>
        <time>2026-07-12T17:44:19.000Z</time>
      </trkpt>
      <trkpt lat="43.33788" lon="-1.81304">
        <ele>23</ele>
        <time>2026-07-12T17:44:20.000Z</time>
      </trkpt>
      <trkpt lat="43.33785" lon="-1.81306">
        <ele>23</ele>
        <time>2026-07-12T17:44:20.000Z</time>
      </trkpt>
      <trkpt lat="43.33784" lon="-1.81306">
        <ele>23</ele>
        <time>2026-07-12T17:44:20.000Z</time>
      </trkpt>
      <trkpt lat="43.3378" lon="-1.81308">
        <ele>22</ele>
        <time>2026-07-12T17:44:21.000Z</time>
      </trkpt>
      <trkpt lat="43.33776" lon="-1.8131">
        <ele>22</ele>
        <time>2026-07-12T17:44:22.000Z</time>
      </trkpt>
      <trkpt lat="43.33772" lon="-1.81314">
        <ele>22</ele>
        <time>2026-07-12T17:44:23.000Z</time>
      </trkpt>
      <trkpt lat="43.33606" lon="-1.81466">
        <ele>16</ele>
        <time>2026-07-12T17:44:58.000Z</time>
      </trkpt>
      <trkpt lat="43.33594" lon="-1.81479">
        <ele>16</ele>
        <time>2026-07-12T17:45:01.000Z</time>
      </trkpt>
      <trkpt lat="43.33594" lon="-1.81479">
        <ele>16</ele>
        <time>2026-07-12T17:45:01.000Z</time>
      </trkpt>
      <trkpt lat="43.33619" lon="-1.81525">
        <ele>15</ele>
        <time>2026-07-12T17:45:09.000Z</time>
      </trkpt>
      <trkpt lat="43.3362" lon="-1.81527">
        <ele>15</ele>
        <time>2026-07-12T17:45:09.000Z</time>
      </trkpt>
      <trkpt lat="43.33621" lon="-1.81529">
        <ele>15</ele>
        <time>2026-07-12T17:45:09.000Z</time>
      </trkpt>
      <trkpt lat="43.33622" lon="-1.81531">
        <ele>15</ele>
        <time>2026-07-12T17:45:09.000Z</time>
      </trkpt>
      <trkpt lat="43.33622" lon="-1.81532">
        <ele>15</ele>
        <time>2026-07-12T17:45:10.000Z</time>
      </trkpt>
      <trkpt lat="43.33622" lon="-1.81534">
        <ele>15</ele>
        <time>2026-07-12T17:45:10.000Z</time>
      </trkpt>
      <trkpt lat="43.33622" lon="-1.81535">
        <ele>15</ele>
        <time>2026-07-12T17:45:10.000Z</time>
      </trkpt>
      <trkpt lat="43.33622" lon="-1.81536">
        <ele>15</ele>
        <time>2026-07-12T17:45:10.000Z</time>
      </trkpt>
      <trkpt lat="43.33622" lon="-1.81537">
        <ele>15</ele>
        <time>2026-07-12T17:45:10.000Z</time>
      </trkpt>
      <trkpt lat="43.33622" lon="-1.81538">
        <ele>15</ele>
        <time>2026-07-12T17:45:10.000Z</time>
      </trkpt>
      <trkpt lat="43.33621" lon="-1.8154">
        <ele>15</ele>
        <time>2026-07-12T17:45:11.000Z</time>
      </trkpt>
      <trkpt lat="43.33621" lon="-1.81541">
        <ele>15</ele>
        <time>2026-07-12T17:45:11.000Z</time>
      </trkpt>
      <trkpt lat="43.3362" lon="-1.81542">
        <ele>15</ele>
        <time>2026-07-12T17:45:11.000Z</time>
      </trkpt>
      <trkpt lat="43.33619" lon="-1.81544">
        <ele>15</ele>
        <time>2026-07-12T17:45:11.000Z</time>
      </trkpt>
      <trkpt lat="43.33618" lon="-1.81545">
        <ele>15</ele>
        <time>2026-07-12T17:45:12.000Z</time>
      </trkpt>
      <trkpt lat="43.33612" lon="-1.81552">
        <ele>15</ele>
        <time>2026-07-12T17:45:13.000Z</time>
      </trkpt>
      <trkpt lat="43.33554" lon="-1.81622">
        <ele>17</ele>
        <time>2026-07-12T17:45:27.000Z</time>
      </trkpt>
      <trkpt lat="43.33527" lon="-1.81649">
        <ele>18</ele>
        <time>2026-07-12T17:45:33.000Z</time>
      </trkpt>
      <trkpt lat="43.33499" lon="-1.8168">
        <ele>20</ele>
        <time>2026-07-12T17:45:39.000Z</time>
      </trkpt>
      <trkpt lat="43.33499" lon="-1.8168">
        <ele>20</ele>
        <time>2026-07-12T17:45:39.000Z</time>
      </trkpt>
      <trkpt lat="43.335" lon="-1.81686">
        <ele>20</ele>
        <time>2026-07-12T17:45:40.000Z</time>
      </trkpt>
      <trkpt lat="43.33503" lon="-1.81697">
        <ele>20</ele>
        <time>2026-07-12T17:45:41.000Z</time>
      </trkpt>
      <trkpt lat="43.33507" lon="-1.81706">
        <ele>19</ele>
        <time>2026-07-12T17:45:43.000Z</time>
      </trkpt>
      <trkpt lat="43.33509" lon="-1.8171">
        <ele>19</ele>
        <time>2026-07-12T17:45:43.000Z</time>
      </trkpt>
      <trkpt lat="43.33511" lon="-1.81715">
        <ele>19</ele>
        <time>2026-07-12T17:45:44.000Z</time>
      </trkpt>
      <trkpt lat="43.33511" lon="-1.81715">
        <ele>19</ele>
        <time>2026-07-12T17:45:44.000Z</time>
      </trkpt>
      <trkpt lat="43.33508" lon="-1.81721">
        <ele>19</ele>
        <time>2026-07-12T17:45:45.000Z</time>
      </trkpt>
      <trkpt lat="43.33505" lon="-1.81724">
        <ele>20</ele>
        <time>2026-07-12T17:45:46.000Z</time>
      </trkpt>
      <trkpt lat="43.33503" lon="-1.81728">
        <ele>20</ele>
        <time>2026-07-12T17:45:46.000Z</time>
      </trkpt>
      <trkpt lat="43.33499" lon="-1.81732">
        <ele>20</ele>
        <time>2026-07-12T17:45:47.000Z</time>
      </trkpt>
      <trkpt lat="43.33496" lon="-1.81735">
        <ele>20</ele>
        <time>2026-07-12T17:45:48.000Z</time>
      </trkpt>
      <trkpt lat="43.33493" lon="-1.81738">
        <ele>21</ele>
        <time>2026-07-12T17:45:49.000Z</time>
      </trkpt>
      <trkpt lat="43.33488" lon="-1.81741">
        <ele>21</ele>
        <time>2026-07-12T17:45:49.000Z</time>
      </trkpt>
      <trkpt lat="43.33483" lon="-1.81745">
        <ele>22</ele>
        <time>2026-07-12T17:45:51.000Z</time>
      </trkpt>
      <trkpt lat="43.33481" lon="-1.81746">
        <ele>22</ele>
        <time>2026-07-12T17:45:51.000Z</time>
      </trkpt>
      <trkpt lat="43.33477" lon="-1.81748">
        <ele>22</ele>
        <time>2026-07-12T17:45:52.000Z</time>
      </trkpt>
      <trkpt lat="43.33474" lon="-1.8175">
        <ele>22</ele>
        <time>2026-07-12T17:45:52.000Z</time>
      </trkpt>
      <trkpt lat="43.3347" lon="-1.81751">
        <ele>23</ele>
        <time>2026-07-12T17:45:53.000Z</time>
      </trkpt>
      <trkpt lat="43.33466" lon="-1.81753">
        <ele>23</ele>
        <time>2026-07-12T17:45:54.000Z</time>
      </trkpt>
      <trkpt lat="43.33463" lon="-1.81754">
        <ele>24</ele>
        <time>2026-07-12T17:45:54.000Z</time>
      </trkpt>
      <trkpt lat="43.33456" lon="-1.81756">
        <ele>24</ele>
        <time>2026-07-12T17:45:56.000Z</time>
      </trkpt>
      <trkpt lat="43.3345" lon="-1.81756">
        <ele>25</ele>
        <time>2026-07-12T17:45:57.000Z</time>
      </trkpt>
      <trkpt lat="43.33437" lon="-1.81758">
        <ele>26</ele>
        <time>2026-07-12T17:45:59.000Z</time>
      </trkpt>
      <trkpt lat="43.33434" lon="-1.81758">
        <ele>27</ele>
        <time>2026-07-12T17:45:59.000Z</time>
      </trkpt>
      <trkpt lat="43.33431" lon="-1.81758">
        <ele>27</ele>
        <time>2026-07-12T17:46:00.000Z</time>
      </trkpt>
      <trkpt lat="43.33427" lon="-1.81757">
        <ele>27</ele>
        <time>2026-07-12T17:46:01.000Z</time>
      </trkpt>
      <trkpt lat="43.33422" lon="-1.81756">
        <ele>28</ele>
        <time>2026-07-12T17:46:02.000Z</time>
      </trkpt>
      <trkpt lat="43.33416" lon="-1.81755">
        <ele>28</ele>
        <time>2026-07-12T17:46:03.000Z</time>
      </trkpt>
      <trkpt lat="43.33397" lon="-1.81748">
        <ele>28</ele>
        <time>2026-07-12T17:46:06.000Z</time>
      </trkpt>
      <trkpt lat="43.3337" lon="-1.81745">
        <ele>28</ele>
        <time>2026-07-12T17:46:11.000Z</time>
      </trkpt>
      <trkpt lat="43.33364" lon="-1.81749">
        <ele>28</ele>
        <time>2026-07-12T17:46:12.000Z</time>
      </trkpt>
      <trkpt lat="43.33363" lon="-1.8175">
        <ele>28</ele>
        <time>2026-07-12T17:46:12.000Z</time>
      </trkpt>
      <trkpt lat="43.33362" lon="-1.8175">
        <ele>28</ele>
        <time>2026-07-12T17:46:13.000Z</time>
      </trkpt>
      <trkpt lat="43.33358" lon="-1.81751">
        <ele>28</ele>
        <time>2026-07-12T17:46:13.000Z</time>
      </trkpt>
      <trkpt lat="43.33358" lon="-1.81751">
        <ele>28</ele>
        <time>2026-07-12T17:46:13.000Z</time>
      </trkpt>
      <trkpt lat="43.33354" lon="-1.81747">
        <ele>28</ele>
        <time>2026-07-12T17:46:14.000Z</time>
      </trkpt>
      <trkpt lat="43.33354" lon="-1.81746">
        <ele>28</ele>
        <time>2026-07-12T17:46:14.000Z</time>
      </trkpt>
      <trkpt lat="43.3335" lon="-1.81739">
        <ele>28</ele>
        <time>2026-07-12T17:46:15.000Z</time>
      </trkpt>
      <trkpt lat="43.33338" lon="-1.81718">
        <ele>28</ele>
        <time>2026-07-12T17:46:19.000Z</time>
      </trkpt>
      <trkpt lat="43.33338" lon="-1.81718">
        <ele>28</ele>
        <time>2026-07-12T17:46:19.000Z</time>
      </trkpt>
      <trkpt lat="43.33335" lon="-1.81718">
        <ele>28</ele>
        <time>2026-07-12T17:46:19.000Z</time>
      </trkpt>
      <trkpt lat="43.33332" lon="-1.81719">
        <ele>28</ele>
        <time>2026-07-12T17:46:20.000Z</time>
      </trkpt>
      <trkpt lat="43.3333" lon="-1.81719">
        <ele>28</ele>
        <time>2026-07-12T17:46:20.000Z</time>
      </trkpt>
      <trkpt lat="43.33328" lon="-1.81719">
        <ele>28</ele>
        <time>2026-07-12T17:46:21.000Z</time>
      </trkpt>
      <trkpt lat="43.33325" lon="-1.81718">
        <ele>28</ele>
        <time>2026-07-12T17:46:21.000Z</time>
      </trkpt>
      <trkpt lat="43.33323" lon="-1.81717">
        <ele>28</ele>
        <time>2026-07-12T17:46:22.000Z</time>
      </trkpt>
      <trkpt lat="43.33321" lon="-1.81716">
        <ele>27</ele>
        <time>2026-07-12T17:46:22.000Z</time>
      </trkpt>
      <trkpt lat="43.33319" lon="-1.81715">
        <ele>27</ele>
        <time>2026-07-12T17:46:22.000Z</time>
      </trkpt>
      <trkpt lat="43.33317" lon="-1.81713">
        <ele>27</ele>
        <time>2026-07-12T17:46:23.000Z</time>
      </trkpt>
      <trkpt lat="43.33298" lon="-1.81724">
        <ele>27</ele>
        <time>2026-07-12T17:46:27.000Z</time>
      </trkpt>
      <trkpt lat="43.33235" lon="-1.81779">
        <ele>26</ele>
        <time>2026-07-12T17:46:40.000Z</time>
      </trkpt>
      <trkpt lat="43.33205" lon="-1.81804">
        <ele>25</ele>
        <time>2026-07-12T17:46:46.000Z</time>
      </trkpt>
      <trkpt lat="43.33176" lon="-1.8183">
        <ele>24</ele>
        <time>2026-07-12T17:46:52.000Z</time>
      </trkpt>
      <trkpt lat="43.33174" lon="-1.81832">
        <ele>24</ele>
        <time>2026-07-12T17:46:53.000Z</time>
      </trkpt>
      <trkpt lat="43.33155" lon="-1.81856">
        <ele>24</ele>
        <time>2026-07-12T17:46:57.000Z</time>
      </trkpt>
      <trkpt lat="43.33137" lon="-1.81883">
        <ele>24</ele>
        <time>2026-07-12T17:47:02.000Z</time>
      </trkpt>
      <trkpt lat="43.33122" lon="-1.81914">
        <ele>24</ele>
        <time>2026-07-12T17:47:07.000Z</time>
      </trkpt>
      <trkpt lat="43.3312" lon="-1.81918">
        <ele>24</ele>
        <time>2026-07-12T17:47:07.000Z</time>
      </trkpt>
      <trkpt lat="43.33111" lon="-1.8194">
        <ele>24</ele>
        <time>2026-07-12T17:47:11.000Z</time>
      </trkpt>
      <trkpt lat="43.33099" lon="-1.81977">
        <ele>24</ele>
        <time>2026-07-12T17:47:16.000Z</time>
      </trkpt>
      <trkpt lat="43.33093" lon="-1.82001">
        <ele>23</ele>
        <time>2026-07-12T17:47:19.000Z</time>
      </trkpt>
      <trkpt lat="43.33083" lon="-1.82047">
        <ele>22</ele>
        <time>2026-07-12T17:47:25.000Z</time>
      </trkpt>
      <trkpt lat="43.33084" lon="-1.82049">
        <ele>22</ele>
        <time>2026-07-12T17:47:26.000Z</time>
      </trkpt>
      <trkpt lat="43.33086" lon="-1.82051">
        <ele>22</ele>
        <time>2026-07-12T17:47:26.000Z</time>
      </trkpt>
      <trkpt lat="43.33088" lon="-1.82053">
        <ele>22</ele>
        <time>2026-07-12T17:47:27.000Z</time>
      </trkpt>
      <trkpt lat="43.33089" lon="-1.82056">
        <ele>22</ele>
        <time>2026-07-12T17:47:27.000Z</time>
      </trkpt>
      <trkpt lat="43.3309" lon="-1.82059">
        <ele>22</ele>
        <time>2026-07-12T17:47:27.000Z</time>
      </trkpt>
      <trkpt lat="43.33091" lon="-1.82062">
        <ele>22</ele>
        <time>2026-07-12T17:47:28.000Z</time>
      </trkpt>
      <trkpt lat="43.33092" lon="-1.82065">
        <ele>22</ele>
        <time>2026-07-12T17:47:28.000Z</time>
      </trkpt>
      <trkpt lat="43.33092" lon="-1.82068">
        <ele>22</ele>
        <time>2026-07-12T17:47:29.000Z</time>
      </trkpt>
      <trkpt lat="43.33092" lon="-1.82072">
        <ele>22</ele>
        <time>2026-07-12T17:47:29.000Z</time>
      </trkpt>
      <trkpt lat="43.33092" lon="-1.82075">
        <ele>22</ele>
        <time>2026-07-12T17:47:30.000Z</time>
      </trkpt>
      <trkpt lat="43.33092" lon="-1.82078">
        <ele>22</ele>
        <time>2026-07-12T17:47:30.000Z</time>
      </trkpt>
      <trkpt lat="43.33091" lon="-1.82081">
        <ele>22</ele>
        <time>2026-07-12T17:47:30.000Z</time>
      </trkpt>
      <trkpt lat="43.33091" lon="-1.82085">
        <ele>22</ele>
        <time>2026-07-12T17:47:31.000Z</time>
      </trkpt>
      <trkpt lat="43.3309" lon="-1.82088">
        <ele>22</ele>
        <time>2026-07-12T17:47:31.000Z</time>
      </trkpt>
      <trkpt lat="43.33088" lon="-1.8209">
        <ele>22</ele>
        <time>2026-07-12T17:47:32.000Z</time>
      </trkpt>
      <trkpt lat="43.33087" lon="-1.82093">
        <ele>22</ele>
        <time>2026-07-12T17:47:32.000Z</time>
      </trkpt>
      <trkpt lat="43.33085" lon="-1.82096">
        <ele>22</ele>
        <time>2026-07-12T17:47:33.000Z</time>
      </trkpt>
      <trkpt lat="43.33084" lon="-1.82098">
        <ele>21</ele>
        <time>2026-07-12T17:47:33.000Z</time>
      </trkpt>
      <trkpt lat="43.33082" lon="-1.821">
        <ele>21</ele>
        <time>2026-07-12T17:47:34.000Z</time>
      </trkpt>
      <trkpt lat="43.3308" lon="-1.82101">
        <ele>22</ele>
        <time>2026-07-12T17:47:34.000Z</time>
      </trkpt>
      <trkpt lat="43.33077" lon="-1.82103">
        <ele>22</ele>
        <time>2026-07-12T17:47:35.000Z</time>
      </trkpt>
      <trkpt lat="43.33075" lon="-1.82104">
        <ele>22</ele>
        <time>2026-07-12T17:47:35.000Z</time>
      </trkpt>
      <trkpt lat="43.33073" lon="-1.82104">
        <ele>22</ele>
        <time>2026-07-12T17:47:35.000Z</time>
      </trkpt>
      <trkpt lat="43.33069" lon="-1.82105">
        <ele>22</ele>
        <time>2026-07-12T17:47:36.000Z</time>
      </trkpt>
      <trkpt lat="43.32997" lon="-1.82419">
        <ele>13</ele>
        <time>2026-07-12T17:48:19.000Z</time>
      </trkpt>
      <trkpt lat="43.32997" lon="-1.82419">
        <ele>13</ele>
        <time>2026-07-12T17:48:19.000Z</time>
      </trkpt>
      <trkpt lat="43.32999" lon="-1.82421">
        <ele>13</ele>
        <time>2026-07-12T17:48:19.000Z</time>
      </trkpt>
      <trkpt lat="43.33" lon="-1.82423">
        <ele>13</ele>
        <time>2026-07-12T17:48:19.000Z</time>
      </trkpt>
      <trkpt lat="43.33002" lon="-1.82426">
        <ele>12</ele>
        <time>2026-07-12T17:48:20.000Z</time>
      </trkpt>
      <trkpt lat="43.33004" lon="-1.82428">
        <ele>12</ele>
        <time>2026-07-12T17:48:20.000Z</time>
      </trkpt>
      <trkpt lat="43.33005" lon="-1.82431">
        <ele>12</ele>
        <time>2026-07-12T17:48:21.000Z</time>
      </trkpt>
      <trkpt lat="43.33006" lon="-1.82434">
        <ele>12</ele>
        <time>2026-07-12T17:48:21.000Z</time>
      </trkpt>
      <trkpt lat="43.33007" lon="-1.82438">
        <ele>12</ele>
        <time>2026-07-12T17:48:22.000Z</time>
      </trkpt>
      <trkpt lat="43.33008" lon="-1.82442">
        <ele>11</ele>
        <time>2026-07-12T17:48:22.000Z</time>
      </trkpt>
      <trkpt lat="43.33008" lon="-1.82443">
        <ele>11</ele>
        <time>2026-07-12T17:48:22.000Z</time>
      </trkpt>
      <trkpt lat="43.33008" lon="-1.82446">
        <ele>11</ele>
        <time>2026-07-12T17:48:23.000Z</time>
      </trkpt>
      <trkpt lat="43.33008" lon="-1.82448">
        <ele>11</ele>
        <time>2026-07-12T17:48:23.000Z</time>
      </trkpt>
      <trkpt lat="43.33008" lon="-1.8245">
        <ele>11</ele>
        <time>2026-07-12T17:48:23.000Z</time>
      </trkpt>
      <trkpt lat="43.33008" lon="-1.82453">
        <ele>11</ele>
        <time>2026-07-12T17:48:24.000Z</time>
      </trkpt>
      <trkpt lat="43.33007" lon="-1.82455">
        <ele>11</ele>
        <time>2026-07-12T17:48:24.000Z</time>
      </trkpt>
      <trkpt lat="43.33007" lon="-1.82457">
        <ele>11</ele>
        <time>2026-07-12T17:48:24.000Z</time>
      </trkpt>
      <trkpt lat="43.33006" lon="-1.82459">
        <ele>10</ele>
        <time>2026-07-12T17:48:25.000Z</time>
      </trkpt>
      <trkpt lat="43.33005" lon="-1.82463">
        <ele>10</ele>
        <time>2026-07-12T17:48:25.000Z</time>
      </trkpt>
      <trkpt lat="43.33004" lon="-1.82466">
        <ele>10</ele>
        <time>2026-07-12T17:48:26.000Z</time>
      </trkpt>
      <trkpt lat="43.33002" lon="-1.82469">
        <ele>10</ele>
        <time>2026-07-12T17:48:26.000Z</time>
      </trkpt>
      <trkpt lat="43.33" lon="-1.82471">
        <ele>10</ele>
        <time>2026-07-12T17:48:26.000Z</time>
      </trkpt>
      <trkpt lat="43.32998" lon="-1.82474">
        <ele>10</ele>
        <time>2026-07-12T17:48:27.000Z</time>
      </trkpt>
      <trkpt lat="43.32996" lon="-1.82476">
        <ele>10</ele>
        <time>2026-07-12T17:48:27.000Z</time>
      </trkpt>
      <trkpt lat="43.32994" lon="-1.82477">
        <ele>10</ele>
        <time>2026-07-12T17:48:28.000Z</time>
      </trkpt>
      <trkpt lat="43.32992" lon="-1.82479">
        <ele>10</ele>
        <time>2026-07-12T17:48:28.000Z</time>
      </trkpt>
      <trkpt lat="43.32989" lon="-1.8248">
        <ele>10</ele>
        <time>2026-07-12T17:48:29.000Z</time>
      </trkpt>
      <trkpt lat="43.32984" lon="-1.82481">
        <ele>10</ele>
        <time>2026-07-12T17:48:30.000Z</time>
      </trkpt>
      <trkpt lat="43.32982" lon="-1.8248">
        <ele>10</ele>
        <time>2026-07-12T17:48:30.000Z</time>
      </trkpt>
      <trkpt lat="43.3298" lon="-1.8248">
        <ele>10</ele>
        <time>2026-07-12T17:48:30.000Z</time>
      </trkpt>
      <trkpt lat="43.32977" lon="-1.82479">
        <ele>11</ele>
        <time>2026-07-12T17:48:31.000Z</time>
      </trkpt>
      <trkpt lat="43.32975" lon="-1.82478">
        <ele>11</ele>
        <time>2026-07-12T17:48:31.000Z</time>
      </trkpt>
      <trkpt lat="43.32973" lon="-1.82477">
        <ele>11</ele>
        <time>2026-07-12T17:48:32.000Z</time>
      </trkpt>
      <trkpt lat="43.32971" lon="-1.82476">
        <ele>11</ele>
        <time>2026-07-12T17:48:32.000Z</time>
      </trkpt>
      <trkpt lat="43.32969" lon="-1.82474">
        <ele>12</ele>
        <time>2026-07-12T17:48:33.000Z</time>
      </trkpt>
      <trkpt lat="43.32968" lon="-1.82472">
        <ele>12</ele>
        <time>2026-07-12T17:48:33.000Z</time>
      </trkpt>
      <trkpt lat="43.32966" lon="-1.82471">
        <ele>12</ele>
        <time>2026-07-12T17:48:33.000Z</time>
      </trkpt>
      <trkpt lat="43.32965" lon="-1.82469">
        <ele>12</ele>
        <time>2026-07-12T17:48:34.000Z</time>
      </trkpt>
      <trkpt lat="43.32964" lon="-1.82467">
        <ele>12</ele>
        <time>2026-07-12T17:48:34.000Z</time>
      </trkpt>
      <trkpt lat="43.32963" lon="-1.82465">
        <ele>13</ele>
        <time>2026-07-12T17:48:34.000Z</time>
      </trkpt>
      <trkpt lat="43.32962" lon="-1.82463">
        <ele>13</ele>
        <time>2026-07-12T17:48:35.000Z</time>
      </trkpt>
      <trkpt lat="43.32962" lon="-1.82461">
        <ele>13</ele>
        <time>2026-07-12T17:48:35.000Z</time>
      </trkpt>
      <trkpt lat="43.32961" lon="-1.82459">
        <ele>13</ele>
        <time>2026-07-12T17:48:35.000Z</time>
      </trkpt>
      <trkpt lat="43.3296" lon="-1.82457">
        <ele>13</ele>
        <time>2026-07-12T17:48:35.000Z</time>
      </trkpt>
      <trkpt lat="43.32941" lon="-1.82455">
        <ele>15</ele>
        <time>2026-07-12T17:48:39.000Z</time>
      </trkpt>
      <trkpt lat="43.32935" lon="-1.82451">
        <ele>15</ele>
        <time>2026-07-12T17:48:40.000Z</time>
      </trkpt>
      <trkpt lat="43.32926" lon="-1.82454">
        <ele>16</ele>
        <time>2026-07-12T17:48:42.000Z</time>
      </trkpt>
      <trkpt lat="43.32923" lon="-1.82454">
        <ele>16</ele>
        <time>2026-07-12T17:48:42.000Z</time>
      </trkpt>
      <trkpt lat="43.32916" lon="-1.82454">
        <ele>16</ele>
        <time>2026-07-12T17:48:43.000Z</time>
      </trkpt>
      <trkpt lat="43.32907" lon="-1.82453">
        <ele>16</ele>
        <time>2026-07-12T17:48:45.000Z</time>
      </trkpt>
      <trkpt lat="43.32894" lon="-1.8245">
        <ele>16</ele>
        <time>2026-07-12T17:48:47.000Z</time>
      </trkpt>
      <trkpt lat="43.32884" lon="-1.82446">
        <ele>16</ele>
        <time>2026-07-12T17:48:49.000Z</time>
      </trkpt>
      <trkpt lat="43.32875" lon="-1.82439">
        <ele>16</ele>
        <time>2026-07-12T17:48:51.000Z</time>
      </trkpt>
      <trkpt lat="43.32859" lon="-1.82422">
        <ele>16</ele>
        <time>2026-07-12T17:48:55.000Z</time>
      </trkpt>
      <trkpt lat="43.32857" lon="-1.8242">
        <ele>16</ele>
        <time>2026-07-12T17:48:55.000Z</time>
      </trkpt>
      <trkpt lat="43.32851" lon="-1.8241">
        <ele>16</ele>
        <time>2026-07-12T17:48:57.000Z</time>
      </trkpt>
      <trkpt lat="43.32844" lon="-1.82397">
        <ele>16</ele>
        <time>2026-07-12T17:48:59.000Z</time>
      </trkpt>
      <trkpt lat="43.32829" lon="-1.82361">
        <ele>16</ele>
        <time>2026-07-12T17:49:04.000Z</time>
      </trkpt>
      <trkpt lat="43.32811" lon="-1.82311">
        <ele>17</ele>
        <time>2026-07-12T17:49:11.000Z</time>
      </trkpt>
      <trkpt lat="43.32802" lon="-1.82288">
        <ele>18</ele>
        <time>2026-07-12T17:49:15.000Z</time>
      </trkpt>
      <trkpt lat="43.32798" lon="-1.82278">
        <ele>18</ele>
        <time>2026-07-12T17:49:16.000Z</time>
      </trkpt>
      <trkpt lat="43.3279" lon="-1.82261">
        <ele>18</ele>
        <time>2026-07-12T17:49:19.000Z</time>
      </trkpt>
      <trkpt lat="43.3278" lon="-1.82244">
        <ele>19</ele>
        <time>2026-07-12T17:49:22.000Z</time>
      </trkpt>
      <trkpt lat="43.32772" lon="-1.82232">
        <ele>20</ele>
        <time>2026-07-12T17:49:24.000Z</time>
      </trkpt>
      <trkpt lat="43.32766" lon="-1.82225">
        <ele>20</ele>
        <time>2026-07-12T17:49:25.000Z</time>
      </trkpt>
      <trkpt lat="43.32734" lon="-1.82191">
        <ele>22</ele>
        <time>2026-07-12T17:49:32.000Z</time>
      </trkpt>
      <trkpt lat="43.32716" lon="-1.82172">
        <ele>23</ele>
        <time>2026-07-12T17:49:37.000Z</time>
      </trkpt>
      <trkpt lat="43.32701" lon="-1.82156">
        <ele>23</ele>
        <time>2026-07-12T17:49:40.000Z</time>
      </trkpt>
      <trkpt lat="43.32698" lon="-1.82153">
        <ele>24</ele>
        <time>2026-07-12T17:49:41.000Z</time>
      </trkpt>
      <trkpt lat="43.32684" lon="-1.82145">
        <ele>24</ele>
        <time>2026-07-12T17:49:43.000Z</time>
      </trkpt>
      <trkpt lat="43.32684" lon="-1.82145">
        <ele>24</ele>
        <time>2026-07-12T17:49:43.000Z</time>
      </trkpt>
      <trkpt lat="43.32683" lon="-1.82146">
        <ele>24</ele>
        <time>2026-07-12T17:49:43.000Z</time>
      </trkpt>
      <trkpt lat="43.32682" lon="-1.82147">
        <ele>24</ele>
        <time>2026-07-12T17:49:44.000Z</time>
      </trkpt>
      <trkpt lat="43.32681" lon="-1.82147">
        <ele>24</ele>
        <time>2026-07-12T17:49:44.000Z</time>
      </trkpt>
      <trkpt lat="43.32679" lon="-1.82148">
        <ele>24</ele>
        <time>2026-07-12T17:49:44.000Z</time>
      </trkpt>
      <trkpt lat="43.32678" lon="-1.82149">
        <ele>24</ele>
        <time>2026-07-12T17:49:44.000Z</time>
      </trkpt>
      <trkpt lat="43.32677" lon="-1.82149">
        <ele>24</ele>
        <time>2026-07-12T17:49:45.000Z</time>
      </trkpt>
      <trkpt lat="43.32676" lon="-1.8215">
        <ele>24</ele>
        <time>2026-07-12T17:49:45.000Z</time>
      </trkpt>
      <trkpt lat="43.32675" lon="-1.8215">
        <ele>24</ele>
        <time>2026-07-12T17:49:45.000Z</time>
      </trkpt>
      <trkpt lat="43.32673" lon="-1.8215">
        <ele>24</ele>
        <time>2026-07-12T17:49:45.000Z</time>
      </trkpt>
      <trkpt lat="43.32672" lon="-1.8215">
        <ele>24</ele>
        <time>2026-07-12T17:49:46.000Z</time>
      </trkpt>
      <trkpt lat="43.32671" lon="-1.8215">
        <ele>24</ele>
        <time>2026-07-12T17:49:46.000Z</time>
      </trkpt>
      <trkpt lat="43.32669" lon="-1.8215">
        <ele>24</ele>
        <time>2026-07-12T17:49:46.000Z</time>
      </trkpt>
      <trkpt lat="43.32668" lon="-1.8215">
        <ele>24</ele>
        <time>2026-07-12T17:49:46.000Z</time>
      </trkpt>
      <trkpt lat="43.32667" lon="-1.82149">
        <ele>24</ele>
        <time>2026-07-12T17:49:47.000Z</time>
      </trkpt>
      <trkpt lat="43.32666" lon="-1.82149">
        <ele>24</ele>
        <time>2026-07-12T17:49:47.000Z</time>
      </trkpt>
      <trkpt lat="43.32664" lon="-1.82149">
        <ele>24</ele>
        <time>2026-07-12T17:49:47.000Z</time>
      </trkpt>
      <trkpt lat="43.32651" lon="-1.82164">
        <ele>24</ele>
        <time>2026-07-12T17:49:50.000Z</time>
      </trkpt>
      <trkpt lat="43.3265" lon="-1.82167">
        <ele>24</ele>
        <time>2026-07-12T17:49:50.000Z</time>
      </trkpt>
      <trkpt lat="43.32623" lon="-1.82212">
        <ele>26</ele>
        <time>2026-07-12T17:49:58.000Z</time>
      </trkpt>
      <trkpt lat="43.32617" lon="-1.82223">
        <ele>26</ele>
        <time>2026-07-12T17:50:00.000Z</time>
      </trkpt>
      <trkpt lat="43.32585" lon="-1.82275">
        <ele>28</ele>
        <time>2026-07-12T17:50:09.000Z</time>
      </trkpt>
      <trkpt lat="43.32579" lon="-1.82284">
        <ele>29</ele>
        <time>2026-07-12T17:50:10.000Z</time>
      </trkpt>
      <trkpt lat="43.32564" lon="-1.82298">
        <ele>32</ele>
        <time>2026-07-12T17:50:13.000Z</time>
      </trkpt>
      <trkpt lat="43.32558" lon="-1.82302">
        <ele>33</ele>
        <time>2026-07-12T17:50:15.000Z</time>
      </trkpt>
      <trkpt lat="43.32551" lon="-1.82306">
        <ele>33</ele>
        <time>2026-07-12T17:50:16.000Z</time>
      </trkpt>
      <trkpt lat="43.32546" lon="-1.82308">
        <ele>34</ele>
        <time>2026-07-12T17:50:17.000Z</time>
      </trkpt>
      <trkpt lat="43.32542" lon="-1.82308">
        <ele>34</ele>
        <time>2026-07-12T17:50:18.000Z</time>
      </trkpt>
      <trkpt lat="43.32537" lon="-1.82308">
        <ele>35</ele>
        <time>2026-07-12T17:50:19.000Z</time>
      </trkpt>
      <trkpt lat="43.32497" lon="-1.8231">
        <ele>39</ele>
        <time>2026-07-12T17:50:26.000Z</time>
      </trkpt>
      <trkpt lat="43.32491" lon="-1.82311">
        <ele>39</ele>
        <time>2026-07-12T17:50:27.000Z</time>
      </trkpt>
      <trkpt lat="43.32487" lon="-1.82312">
        <ele>39</ele>
        <time>2026-07-12T17:50:27.000Z</time>
      </trkpt>
      <trkpt lat="43.32483" lon="-1.82314">
        <ele>39</ele>
        <time>2026-07-12T17:50:28.000Z</time>
      </trkpt>
      <trkpt lat="43.32474" lon="-1.82322">
        <ele>40</ele>
        <time>2026-07-12T17:50:30.000Z</time>
      </trkpt>
      <trkpt lat="43.32472" lon="-1.82326">
        <ele>40</ele>
        <time>2026-07-12T17:50:31.000Z</time>
      </trkpt>
      <trkpt lat="43.32455" lon="-1.82364">
        <ele>41</ele>
        <time>2026-07-12T17:50:37.000Z</time>
      </trkpt>
      <trkpt lat="43.32434" lon="-1.824">
        <ele>43</ele>
        <time>2026-07-12T17:50:42.000Z</time>
      </trkpt>
      <trkpt lat="43.32431" lon="-1.82405">
        <ele>43</ele>
        <time>2026-07-12T17:50:43.000Z</time>
      </trkpt>
      <trkpt lat="43.32386" lon="-1.82482">
        <ele>48</ele>
        <time>2026-07-12T17:50:56.000Z</time>
      </trkpt>
      <trkpt lat="43.32372" lon="-1.82504">
        <ele>50</ele>
        <time>2026-07-12T17:51:00.000Z</time>
      </trkpt>
      <trkpt lat="43.32343" lon="-1.82549">
        <ele>53</ele>
        <time>2026-07-12T17:51:08.000Z</time>
      </trkpt>
      <trkpt lat="43.3227" lon="-1.82659">
        <ele>59</ele>
        <time>2026-07-12T17:51:27.000Z</time>
      </trkpt>
      <trkpt lat="43.32244" lon="-1.82699">
        <ele>63</ele>
        <time>2026-07-12T17:51:34.000Z</time>
      </trkpt>
      <trkpt lat="43.32234" lon="-1.82713">
        <ele>64</ele>
        <time>2026-07-12T17:51:36.000Z</time>
      </trkpt>
      <trkpt lat="43.32209" lon="-1.82753">
        <ele>71</ele>
        <time>2026-07-12T17:51:43.000Z</time>
      </trkpt>
      <trkpt lat="43.32206" lon="-1.82757">
        <ele>71</ele>
        <time>2026-07-12T17:51:44.000Z</time>
      </trkpt>
      <trkpt lat="43.32146" lon="-1.82847">
        <ele>82</ele>
        <time>2026-07-12T17:52:00.000Z</time>
      </trkpt>
      <trkpt lat="43.32145" lon="-1.82849">
        <ele>82</ele>
        <time>2026-07-12T17:52:00.000Z</time>
      </trkpt>
      <trkpt lat="43.32128" lon="-1.8286">
        <ele>81</ele>
        <time>2026-07-12T17:52:03.000Z</time>
      </trkpt>
      <trkpt lat="43.3211" lon="-1.82869">
        <ele>80</ele>
        <time>2026-07-12T17:52:07.000Z</time>
      </trkpt>
      <trkpt lat="43.32106" lon="-1.82869">
        <ele>79</ele>
        <time>2026-07-12T17:52:08.000Z</time>
      </trkpt>
      <trkpt lat="43.32098" lon="-1.82872">
        <ele>79</ele>
        <time>2026-07-12T17:52:09.000Z</time>
      </trkpt>
      <trkpt lat="43.32089" lon="-1.82874">
        <ele>78</ele>
        <time>2026-07-12T17:52:11.000Z</time>
      </trkpt>
      <trkpt lat="43.3207" lon="-1.82876">
        <ele>77</ele>
        <time>2026-07-12T17:52:14.000Z</time>
      </trkpt>
      <trkpt lat="43.3202" lon="-1.82881">
        <ele>72</ele>
        <time>2026-07-12T17:52:23.000Z</time>
      </trkpt>
      <trkpt lat="43.32003" lon="-1.82884">
        <ele>70</ele>
        <time>2026-07-12T17:52:26.000Z</time>
      </trkpt>
      <trkpt lat="43.31993" lon="-1.82884">
        <ele>71</ele>
        <time>2026-07-12T17:52:28.000Z</time>
      </trkpt>
      <trkpt lat="43.31992" lon="-1.82885">
        <ele>71</ele>
        <time>2026-07-12T17:52:28.000Z</time>
      </trkpt>
      <trkpt lat="43.31984" lon="-1.82885">
        <ele>72</ele>
        <time>2026-07-12T17:52:29.000Z</time>
      </trkpt>
      <trkpt lat="43.31983" lon="-1.82885">
        <ele>72</ele>
        <time>2026-07-12T17:52:30.000Z</time>
      </trkpt>
      <trkpt lat="43.31981" lon="-1.82886">
        <ele>72</ele>
        <time>2026-07-12T17:52:30.000Z</time>
      </trkpt>
      <trkpt lat="43.31957" lon="-1.82889">
        <ele>75</ele>
        <time>2026-07-12T17:52:34.000Z</time>
      </trkpt>
      <trkpt lat="43.31941" lon="-1.82892">
        <ele>77</ele>
        <time>2026-07-12T17:52:37.000Z</time>
      </trkpt>
      <trkpt lat="43.31933" lon="-1.82893">
        <ele>78</ele>
        <time>2026-07-12T17:52:39.000Z</time>
      </trkpt>
      <trkpt lat="43.31926" lon="-1.82897">
        <ele>79</ele>
        <time>2026-07-12T17:52:40.000Z</time>
      </trkpt>
      <trkpt lat="43.31919" lon="-1.82903">
        <ele>80</ele>
        <time>2026-07-12T17:52:41.000Z</time>
      </trkpt>
      <trkpt lat="43.31906" lon="-1.82919">
        <ele>83</ele>
        <time>2026-07-12T17:52:45.000Z</time>
      </trkpt>
      <trkpt lat="43.31904" lon="-1.82922">
        <ele>83</ele>
        <time>2026-07-12T17:52:45.000Z</time>
      </trkpt>
      <trkpt lat="43.31903" lon="-1.82926">
        <ele>83</ele>
        <time>2026-07-12T17:52:46.000Z</time>
      </trkpt>
      <trkpt lat="43.31878" lon="-1.82992">
        <ele>87</ele>
        <time>2026-07-12T17:52:55.000Z</time>
      </trkpt>
      <trkpt lat="43.3187" lon="-1.83009">
        <ele>88</ele>
        <time>2026-07-12T17:52:58.000Z</time>
      </trkpt>
      <trkpt lat="43.31869" lon="-1.8301">
        <ele>88</ele>
        <time>2026-07-12T17:52:58.000Z</time>
      </trkpt>
      <trkpt lat="43.31856" lon="-1.83024">
        <ele>89</ele>
        <time>2026-07-12T17:53:01.000Z</time>
      </trkpt>
      <trkpt lat="43.31854" lon="-1.83025">
        <ele>89</ele>
        <time>2026-07-12T17:53:01.000Z</time>
      </trkpt>
      <trkpt lat="43.31833" lon="-1.83037">
        <ele>91</ele>
        <time>2026-07-12T17:53:05.000Z</time>
      </trkpt>
      <trkpt lat="43.31809" lon="-1.83051">
        <ele>92</ele>
        <time>2026-07-12T17:53:10.000Z</time>
      </trkpt>
      <trkpt lat="43.31804" lon="-1.83055">
        <ele>92</ele>
        <time>2026-07-12T17:53:11.000Z</time>
      </trkpt>
      <trkpt lat="43.31797" lon="-1.83061">
        <ele>93</ele>
        <time>2026-07-12T17:53:13.000Z</time>
      </trkpt>
      <trkpt lat="43.31787" lon="-1.83075">
        <ele>93</ele>
        <time>2026-07-12T17:53:15.000Z</time>
      </trkpt>
      <trkpt lat="43.31776" lon="-1.83088">
        <ele>95</ele>
        <time>2026-07-12T17:53:18.000Z</time>
      </trkpt>
      <trkpt lat="43.31766" lon="-1.83107">
        <ele>96</ele>
        <time>2026-07-12T17:53:21.000Z</time>
      </trkpt>
      <trkpt lat="43.31764" lon="-1.83114">
        <ele>96</ele>
        <time>2026-07-12T17:53:22.000Z</time>
      </trkpt>
      <trkpt lat="43.31744" lon="-1.83172">
        <ele>98</ele>
        <time>2026-07-12T17:53:30.000Z</time>
      </trkpt>
      <trkpt lat="43.31728" lon="-1.83222">
        <ele>101</ele>
        <time>2026-07-12T17:53:37.000Z</time>
      </trkpt>
      <trkpt lat="43.31709" lon="-1.83299">
        <ele>107</ele>
        <time>2026-07-12T17:53:48.000Z</time>
      </trkpt>
      <trkpt lat="43.31709" lon="-1.83301">
        <ele>107</ele>
        <time>2026-07-12T17:53:48.000Z</time>
      </trkpt>
      <trkpt lat="43.31692" lon="-1.83378">
        <ele>114</ele>
        <time>2026-07-12T17:53:58.000Z</time>
      </trkpt>
      <trkpt lat="43.31686" lon="-1.83419">
        <ele>117</ele>
        <time>2026-07-12T17:54:04.000Z</time>
      </trkpt>
      <trkpt lat="43.31684" lon="-1.83434">
        <ele>118</ele>
        <time>2026-07-12T17:54:06.000Z</time>
      </trkpt>
      <trkpt lat="43.31675" lon="-1.8349">
        <ele>121</ele>
        <time>2026-07-12T17:54:13.000Z</time>
      </trkpt>
      <trkpt lat="43.31673" lon="-1.83503">
        <ele>122</ele>
        <time>2026-07-12T17:54:15.000Z</time>
      </trkpt>
      <trkpt lat="43.31665" lon="-1.83528">
        <ele>120</ele>
        <time>2026-07-12T17:54:18.000Z</time>
      </trkpt>
      <trkpt lat="43.31662" lon="-1.83533">
        <ele>120</ele>
        <time>2026-07-12T17:54:19.000Z</time>
      </trkpt>
      <trkpt lat="43.31554" lon="-1.83712">
        <ele>123</ele>
        <time>2026-07-12T17:54:49.000Z</time>
      </trkpt>
      <trkpt lat="43.31552" lon="-1.83715">
        <ele>124</ele>
        <time>2026-07-12T17:54:50.000Z</time>
      </trkpt>
      <trkpt lat="43.3152" lon="-1.83767">
        <ele>130</ele>
        <time>2026-07-12T17:54:59.000Z</time>
      </trkpt>
      <trkpt lat="43.31489" lon="-1.83817">
        <ele>137</ele>
        <time>2026-07-12T17:55:07.000Z</time>
      </trkpt>
      <trkpt lat="43.31472" lon="-1.83845">
        <ele>139</ele>
        <time>2026-07-12T17:55:12.000Z</time>
      </trkpt>
      <trkpt lat="43.31465" lon="-1.83857">
        <ele>139</ele>
        <time>2026-07-12T17:55:14.000Z</time>
      </trkpt>
      <trkpt lat="43.31459" lon="-1.83866">
        <ele>139</ele>
        <time>2026-07-12T17:55:15.000Z</time>
      </trkpt>
      <trkpt lat="43.31456" lon="-1.83871">
        <ele>139</ele>
        <time>2026-07-12T17:55:16.000Z</time>
      </trkpt>
      <trkpt lat="43.31448" lon="-1.8388">
        <ele>139</ele>
        <time>2026-07-12T17:55:18.000Z</time>
      </trkpt>
      <trkpt lat="43.31444" lon="-1.83883">
        <ele>139</ele>
        <time>2026-07-12T17:55:19.000Z</time>
      </trkpt>
      <trkpt lat="43.31439" lon="-1.83888">
        <ele>139</ele>
        <time>2026-07-12T17:55:20.000Z</time>
      </trkpt>
      <trkpt lat="43.31403" lon="-1.83925">
        <ele>141</ele>
        <time>2026-07-12T17:55:28.000Z</time>
      </trkpt>
      <trkpt lat="43.3137" lon="-1.83958">
        <ele>144</ele>
        <time>2026-07-12T17:55:35.000Z</time>
      </trkpt>
      <trkpt lat="43.3136" lon="-1.83968">
        <ele>145</ele>
        <time>2026-07-12T17:55:37.000Z</time>
      </trkpt>
      <trkpt lat="43.31359" lon="-1.83969">
        <ele>146</ele>
        <time>2026-07-12T17:55:38.000Z</time>
      </trkpt>
      <trkpt lat="43.31348" lon="-1.8398">
        <ele>148</ele>
        <time>2026-07-12T17:55:40.000Z</time>
      </trkpt>
      <trkpt lat="43.3132" lon="-1.84008">
        <ele>153</ele>
        <time>2026-07-12T17:55:46.000Z</time>
      </trkpt>
      <trkpt lat="43.31293" lon="-1.84034">
        <ele>156</ele>
        <time>2026-07-12T17:55:52.000Z</time>
      </trkpt>
      <trkpt lat="43.31291" lon="-1.84036">
        <ele>156</ele>
        <time>2026-07-12T17:55:53.000Z</time>
      </trkpt>
      <trkpt lat="43.31288" lon="-1.84039">
        <ele>157</ele>
        <time>2026-07-12T17:55:53.000Z</time>
      </trkpt>
      <trkpt lat="43.31283" lon="-1.84042">
        <ele>157</ele>
        <time>2026-07-12T17:55:54.000Z</time>
      </trkpt>
      <trkpt lat="43.31277" lon="-1.84045">
        <ele>158</ele>
        <time>2026-07-12T17:55:55.000Z</time>
      </trkpt>
      <trkpt lat="43.31272" lon="-1.84047">
        <ele>158</ele>
        <time>2026-07-12T17:55:56.000Z</time>
      </trkpt>
      <trkpt lat="43.31267" lon="-1.84049">
        <ele>159</ele>
        <time>2026-07-12T17:55:57.000Z</time>
      </trkpt>
      <trkpt lat="43.31262" lon="-1.8405">
        <ele>159</ele>
        <time>2026-07-12T17:55:58.000Z</time>
      </trkpt>
      <trkpt lat="43.31256" lon="-1.8405">
        <ele>159</ele>
        <time>2026-07-12T17:55:59.000Z</time>
      </trkpt>
      <trkpt lat="43.31223" lon="-1.8405">
        <ele>159</ele>
        <time>2026-07-12T17:56:05.000Z</time>
      </trkpt>
      <trkpt lat="43.31208" lon="-1.8405">
        <ele>158</ele>
        <time>2026-07-12T17:56:08.000Z</time>
      </trkpt>
      <trkpt lat="43.31203" lon="-1.8405">
        <ele>158</ele>
        <time>2026-07-12T17:56:09.000Z</time>
      </trkpt>
      <trkpt lat="43.31194" lon="-1.84051">
        <ele>158</ele>
        <time>2026-07-12T17:56:10.000Z</time>
      </trkpt>
      <trkpt lat="43.3118" lon="-1.84056">
        <ele>158</ele>
        <time>2026-07-12T17:56:13.000Z</time>
      </trkpt>
      <trkpt lat="43.31165" lon="-1.84065">
        <ele>159</ele>
        <time>2026-07-12T17:56:16.000Z</time>
      </trkpt>
      <trkpt lat="43.31157" lon="-1.84072">
        <ele>159</ele>
        <time>2026-07-12T17:56:17.000Z</time>
      </trkpt>
      <trkpt lat="43.31131" lon="-1.84093">
        <ele>160</ele>
        <time>2026-07-12T17:56:23.000Z</time>
      </trkpt>
      <trkpt lat="43.31115" lon="-1.84106">
        <ele>161</ele>
        <time>2026-07-12T17:56:26.000Z</time>
      </trkpt>
      <trkpt lat="43.31102" lon="-1.84117">
        <ele>161</ele>
        <time>2026-07-12T17:56:29.000Z</time>
      </trkpt>
      <trkpt lat="43.31095" lon="-1.84121">
        <ele>161</ele>
        <time>2026-07-12T17:56:30.000Z</time>
      </trkpt>
      <trkpt lat="43.31092" lon="-1.84124">
        <ele>161</ele>
        <time>2026-07-12T17:56:31.000Z</time>
      </trkpt>
      <trkpt lat="43.31086" lon="-1.84128">
        <ele>161</ele>
        <time>2026-07-12T17:56:32.000Z</time>
      </trkpt>
      <trkpt lat="43.31058" lon="-1.84142">
        <ele>160</ele>
        <time>2026-07-12T17:56:37.000Z</time>
      </trkpt>
      <trkpt lat="43.31027" lon="-1.84157">
        <ele>159</ele>
        <time>2026-07-12T17:56:43.000Z</time>
      </trkpt>
      <trkpt lat="43.31017" lon="-1.84163">
        <ele>159</ele>
        <time>2026-07-12T17:56:45.000Z</time>
      </trkpt>
      <trkpt lat="43.31009" lon="-1.8417">
        <ele>159</ele>
        <time>2026-07-12T17:56:47.000Z</time>
      </trkpt>
      <trkpt lat="43.31006" lon="-1.84174">
        <ele>159</ele>
        <time>2026-07-12T17:56:47.000Z</time>
      </trkpt>
      <trkpt lat="43.31001" lon="-1.84183">
        <ele>159</ele>
        <time>2026-07-12T17:56:49.000Z</time>
      </trkpt>
      <trkpt lat="43.30998" lon="-1.84192">
        <ele>159</ele>
        <time>2026-07-12T17:56:50.000Z</time>
      </trkpt>
      <trkpt lat="43.30987" lon="-1.84221">
        <ele>160</ele>
        <time>2026-07-12T17:56:54.000Z</time>
      </trkpt>
      <trkpt lat="43.30968" lon="-1.84267">
        <ele>161</ele>
        <time>2026-07-12T17:57:01.000Z</time>
      </trkpt>
      <trkpt lat="43.30968" lon="-1.84269">
        <ele>161</ele>
        <time>2026-07-12T17:57:02.000Z</time>
      </trkpt>
      <trkpt lat="43.30966" lon="-1.84274">
        <ele>161</ele>
        <time>2026-07-12T17:57:02.000Z</time>
      </trkpt>
      <trkpt lat="43.30957" lon="-1.84293">
        <ele>162</ele>
        <time>2026-07-12T17:57:05.000Z</time>
      </trkpt>
      <trkpt lat="43.30957" lon="-1.84294">
        <ele>162</ele>
        <time>2026-07-12T17:57:05.000Z</time>
      </trkpt>
      <trkpt lat="43.30957" lon="-1.84295">
        <ele>162</ele>
        <time>2026-07-12T17:57:06.000Z</time>
      </trkpt>
      <trkpt lat="43.30958" lon="-1.84295">
        <ele>162</ele>
        <time>2026-07-12T17:57:06.000Z</time>
      </trkpt>
      <trkpt lat="43.30958" lon="-1.84296">
        <ele>162</ele>
        <time>2026-07-12T17:57:06.000Z</time>
      </trkpt>
      <trkpt lat="43.30958" lon="-1.84297">
        <ele>162</ele>
        <time>2026-07-12T17:57:06.000Z</time>
      </trkpt>
      <trkpt lat="43.30958" lon="-1.84298">
        <ele>162</ele>
        <time>2026-07-12T17:57:06.000Z</time>
      </trkpt>
      <trkpt lat="43.30959" lon="-1.84298">
        <ele>162</ele>
        <time>2026-07-12T17:57:06.000Z</time>
      </trkpt>
      <trkpt lat="43.30959" lon="-1.84299">
        <ele>162</ele>
        <time>2026-07-12T17:57:06.000Z</time>
      </trkpt>
      <trkpt lat="43.30959" lon="-1.843">
        <ele>162</ele>
        <time>2026-07-12T17:57:07.000Z</time>
      </trkpt>
      <trkpt lat="43.30959" lon="-1.84301">
        <ele>162</ele>
        <time>2026-07-12T17:57:07.000Z</time>
      </trkpt>
      <trkpt lat="43.30959" lon="-1.84302">
        <ele>162</ele>
        <time>2026-07-12T17:57:07.000Z</time>
      </trkpt>
      <trkpt lat="43.30959" lon="-1.84303">
        <ele>162</ele>
        <time>2026-07-12T17:57:07.000Z</time>
      </trkpt>
      <trkpt lat="43.30959" lon="-1.84304">
        <ele>162</ele>
        <time>2026-07-12T17:57:07.000Z</time>
      </trkpt>
      <trkpt lat="43.30959" lon="-1.84305">
        <ele>162</ele>
        <time>2026-07-12T17:57:07.000Z</time>
      </trkpt>
      <trkpt lat="43.30958" lon="-1.84305">
        <ele>162</ele>
        <time>2026-07-12T17:57:07.000Z</time>
      </trkpt>
      <trkpt lat="43.30958" lon="-1.84306">
        <ele>162</ele>
        <time>2026-07-12T17:57:07.000Z</time>
      </trkpt>
      <trkpt lat="43.30958" lon="-1.84307">
        <ele>162</ele>
        <time>2026-07-12T17:57:08.000Z</time>
      </trkpt>
      <trkpt lat="43.30958" lon="-1.84308">
        <ele>162</ele>
        <time>2026-07-12T17:57:08.000Z</time>
      </trkpt>
      <trkpt lat="43.30957" lon="-1.84309">
        <ele>162</ele>
        <time>2026-07-12T17:57:08.000Z</time>
      </trkpt>
      <trkpt lat="43.30957" lon="-1.8431">
        <ele>163</ele>
        <time>2026-07-12T17:57:08.000Z</time>
      </trkpt>
      <trkpt lat="43.30956" lon="-1.84311">
        <ele>163</ele>
        <time>2026-07-12T17:57:08.000Z</time>
      </trkpt>
      <trkpt lat="43.30956" lon="-1.84312">
        <ele>163</ele>
        <time>2026-07-12T17:57:08.000Z</time>
      </trkpt>
      <trkpt lat="43.30955" lon="-1.84312">
        <ele>163</ele>
        <time>2026-07-12T17:57:09.000Z</time>
      </trkpt>
      <trkpt lat="43.30955" lon="-1.84313">
        <ele>163</ele>
        <time>2026-07-12T17:57:09.000Z</time>
      </trkpt>
      <trkpt lat="43.30954" lon="-1.84313">
        <ele>163</ele>
        <time>2026-07-12T17:57:09.000Z</time>
      </trkpt>
      <trkpt lat="43.30954" lon="-1.84314">
        <ele>163</ele>
        <time>2026-07-12T17:57:09.000Z</time>
      </trkpt>
      <trkpt lat="43.30953" lon="-1.84314">
        <ele>163</ele>
        <time>2026-07-12T17:57:09.000Z</time>
      </trkpt>
      <trkpt lat="43.30952" lon="-1.84315">
        <ele>163</ele>
        <time>2026-07-12T17:57:09.000Z</time>
      </trkpt>
      <trkpt lat="43.30951" lon="-1.84315">
        <ele>163</ele>
        <time>2026-07-12T17:57:10.000Z</time>
      </trkpt>
      <trkpt lat="43.3095" lon="-1.84315">
        <ele>163</ele>
        <time>2026-07-12T17:57:10.000Z</time>
      </trkpt>
      <trkpt lat="43.30942" lon="-1.8434">
        <ele>163</ele>
        <time>2026-07-12T17:57:13.000Z</time>
      </trkpt>
      <trkpt lat="43.30941" lon="-1.84342">
        <ele>163</ele>
        <time>2026-07-12T17:57:14.000Z</time>
      </trkpt>
      <trkpt lat="43.30935" lon="-1.8435">
        <ele>163</ele>
        <time>2026-07-12T17:57:15.000Z</time>
      </trkpt>
      <trkpt lat="43.30926" lon="-1.84376">
        <ele>161</ele>
        <time>2026-07-12T17:57:19.000Z</time>
      </trkpt>
      <trkpt lat="43.3091" lon="-1.84415">
        <ele>160</ele>
        <time>2026-07-12T17:57:25.000Z</time>
      </trkpt>
      <trkpt lat="43.30861" lon="-1.84544">
        <ele>165</ele>
        <time>2026-07-12T17:57:44.000Z</time>
      </trkpt>
      <trkpt lat="43.30849" lon="-1.84576">
        <ele>165</ele>
        <time>2026-07-12T17:57:48.000Z</time>
      </trkpt>
      <trkpt lat="43.30846" lon="-1.84583">
        <ele>165</ele>
        <time>2026-07-12T17:57:49.000Z</time>
      </trkpt>
      <trkpt lat="43.30843" lon="-1.84588">
        <ele>164</ele>
        <time>2026-07-12T17:57:50.000Z</time>
      </trkpt>
      <trkpt lat="43.30838" lon="-1.84594">
        <ele>165</ele>
        <time>2026-07-12T17:57:51.000Z</time>
      </trkpt>
      <trkpt lat="43.30832" lon="-1.84601">
        <ele>165</ele>
        <time>2026-07-12T17:57:53.000Z</time>
      </trkpt>
      <trkpt lat="43.30826" lon="-1.84607">
        <ele>164</ele>
        <time>2026-07-12T17:57:54.000Z</time>
      </trkpt>
      <trkpt lat="43.30816" lon="-1.84615">
        <ele>164</ele>
        <time>2026-07-12T17:57:56.000Z</time>
      </trkpt>
      <trkpt lat="43.30805" lon="-1.84624">
        <ele>164</ele>
        <time>2026-07-12T17:57:58.000Z</time>
      </trkpt>
      <trkpt lat="43.30798" lon="-1.8463">
        <ele>163</ele>
        <time>2026-07-12T17:58:00.000Z</time>
      </trkpt>
      <trkpt lat="43.30778" lon="-1.84645">
        <ele>162</ele>
        <time>2026-07-12T17:58:04.000Z</time>
      </trkpt>
      <trkpt lat="43.30765" lon="-1.84655">
        <ele>162</ele>
        <time>2026-07-12T17:58:06.000Z</time>
      </trkpt>
      <trkpt lat="43.30756" lon="-1.84661">
        <ele>162</ele>
        <time>2026-07-12T17:58:08.000Z</time>
      </trkpt>
      <trkpt lat="43.30748" lon="-1.84665">
        <ele>161</ele>
        <time>2026-07-12T17:58:10.000Z</time>
      </trkpt>
      <trkpt lat="43.30737" lon="-1.84671">
        <ele>161</ele>
        <time>2026-07-12T17:58:12.000Z</time>
      </trkpt>
      <trkpt lat="43.30667" lon="-1.84707">
        <ele>161</ele>
        <time>2026-07-12T17:58:25.000Z</time>
      </trkpt>
      <trkpt lat="43.30643" lon="-1.8472">
        <ele>160</ele>
        <time>2026-07-12T17:58:30.000Z</time>
      </trkpt>
      <trkpt lat="43.30607" lon="-1.84738">
        <ele>157</ele>
        <time>2026-07-12T17:58:37.000Z</time>
      </trkpt>
      <trkpt lat="43.306" lon="-1.84742">
        <ele>157</ele>
        <time>2026-07-12T17:58:38.000Z</time>
      </trkpt>
      <trkpt lat="43.30597" lon="-1.84744">
        <ele>156</ele>
        <time>2026-07-12T17:58:39.000Z</time>
      </trkpt>
      <trkpt lat="43.30594" lon="-1.84749">
        <ele>155</ele>
        <time>2026-07-12T17:58:39.000Z</time>
      </trkpt>
      <trkpt lat="43.30584" lon="-1.8476">
        <ele>154</ele>
        <time>2026-07-12T17:58:42.000Z</time>
      </trkpt>
      <trkpt lat="43.30571" lon="-1.84778">
        <ele>152</ele>
        <time>2026-07-12T17:58:45.000Z</time>
      </trkpt>
      <trkpt lat="43.30562" lon="-1.8479">
        <ele>152</ele>
        <time>2026-07-12T17:58:47.000Z</time>
      </trkpt>
      <trkpt lat="43.30542" lon="-1.84828">
        <ele>149</ele>
        <time>2026-07-12T17:58:53.000Z</time>
      </trkpt>
      <trkpt lat="43.30538" lon="-1.84835">
        <ele>148</ele>
        <time>2026-07-12T17:58:54.000Z</time>
      </trkpt>
      <trkpt lat="43.30533" lon="-1.84847">
        <ele>147</ele>
        <time>2026-07-12T17:58:56.000Z</time>
      </trkpt>
      <trkpt lat="43.30494" lon="-1.84927">
        <ele>141</ele>
        <time>2026-07-12T17:59:09.000Z</time>
      </trkpt>
      <trkpt lat="43.30484" lon="-1.84946">
        <ele>140</ele>
        <time>2026-07-12T17:59:12.000Z</time>
      </trkpt>
      <trkpt lat="43.30481" lon="-1.84951">
        <ele>139</ele>
        <time>2026-07-12T17:59:13.000Z</time>
      </trkpt>
      <trkpt lat="43.30476" lon="-1.84956">
        <ele>139</ele>
        <time>2026-07-12T17:59:14.000Z</time>
      </trkpt>
      <trkpt lat="43.30472" lon="-1.84961">
        <ele>138</ele>
        <time>2026-07-12T17:59:15.000Z</time>
      </trkpt>
      <trkpt lat="43.30467" lon="-1.84965">
        <ele>138</ele>
        <time>2026-07-12T17:59:16.000Z</time>
      </trkpt>
      <trkpt lat="43.30456" lon="-1.84972">
        <ele>137</ele>
        <time>2026-07-12T17:59:18.000Z</time>
      </trkpt>
      <trkpt lat="43.30437" lon="-1.84983">
        <ele>135</ele>
        <time>2026-07-12T17:59:21.000Z</time>
      </trkpt>
      <trkpt lat="43.30437" lon="-1.84983">
        <ele>135</ele>
        <time>2026-07-12T17:59:21.000Z</time>
      </trkpt>
      <trkpt lat="43.30436" lon="-1.84971">
        <ele>136</ele>
        <time>2026-07-12T17:59:23.000Z</time>
      </trkpt>
      <trkpt lat="43.30434" lon="-1.84962">
        <ele>137</ele>
        <time>2026-07-12T17:59:24.000Z</time>
      </trkpt>
      <trkpt lat="43.3043" lon="-1.84955">
        <ele>138</ele>
        <time>2026-07-12T17:59:25.000Z</time>
      </trkpt>
      <trkpt lat="43.30426" lon="-1.84949">
        <ele>138</ele>
        <time>2026-07-12T17:59:26.000Z</time>
      </trkpt>
      <trkpt lat="43.30412" lon="-1.84933">
        <ele>139</ele>
        <time>2026-07-12T17:59:30.000Z</time>
      </trkpt>
      <trkpt lat="43.30405" lon="-1.84924">
        <ele>139</ele>
        <time>2026-07-12T17:59:31.000Z</time>
      </trkpt>
      <trkpt lat="43.30397" lon="-1.84918">
        <ele>139</ele>
        <time>2026-07-12T17:59:33.000Z</time>
      </trkpt>
      <trkpt lat="43.30387" lon="-1.84912">
        <ele>138</ele>
        <time>2026-07-12T17:59:35.000Z</time>
      </trkpt>
      <trkpt lat="43.30375" lon="-1.84906">
        <ele>138</ele>
        <time>2026-07-12T17:59:37.000Z</time>
      </trkpt>
      <trkpt lat="43.30366" lon="-1.84904">
        <ele>138</ele>
        <time>2026-07-12T17:59:39.000Z</time>
      </trkpt>
      <trkpt lat="43.30357" lon="-1.84901">
        <ele>137</ele>
        <time>2026-07-12T17:59:40.000Z</time>
      </trkpt>
      <trkpt lat="43.3035" lon="-1.84901">
        <ele>137</ele>
        <time>2026-07-12T17:59:42.000Z</time>
      </trkpt>
      <trkpt lat="43.30344" lon="-1.84902">
        <ele>136</ele>
        <time>2026-07-12T17:59:43.000Z</time>
      </trkpt>
      <trkpt lat="43.30335" lon="-1.84904">
        <ele>134</ele>
        <time>2026-07-12T17:59:44.000Z</time>
      </trkpt>
      <trkpt lat="43.30319" lon="-1.84909">
        <ele>131</ele>
        <time>2026-07-12T17:59:47.000Z</time>
      </trkpt>
      <trkpt lat="43.30298" lon="-1.84914">
        <ele>128</ele>
        <time>2026-07-12T17:59:51.000Z</time>
      </trkpt>
      <trkpt lat="43.30284" lon="-1.84918">
        <ele>125</ele>
        <time>2026-07-12T17:59:54.000Z</time>
      </trkpt>
      <trkpt lat="43.30271" lon="-1.84922">
        <ele>123</ele>
        <time>2026-07-12T17:59:56.000Z</time>
      </trkpt>
      <trkpt lat="43.30261" lon="-1.84925">
        <ele>121</ele>
        <time>2026-07-12T17:59:58.000Z</time>
      </trkpt>
      <trkpt lat="43.30253" lon="-1.84926">
        <ele>120</ele>
        <time>2026-07-12T17:59:59.000Z</time>
      </trkpt>
      <trkpt lat="43.30244" lon="-1.84926">
        <ele>119</ele>
        <time>2026-07-12T18:00:01.000Z</time>
      </trkpt>
      <trkpt lat="43.30237" lon="-1.84925">
        <ele>118</ele>
        <time>2026-07-12T18:00:02.000Z</time>
      </trkpt>
      <trkpt lat="43.3023" lon="-1.84923">
        <ele>118</ele>
        <time>2026-07-12T18:00:03.000Z</time>
      </trkpt>
      <trkpt lat="43.30224" lon="-1.8492">
        <ele>117</ele>
        <time>2026-07-12T18:00:05.000Z</time>
      </trkpt>
      <trkpt lat="43.30216" lon="-1.84914">
        <ele>117</ele>
        <time>2026-07-12T18:00:06.000Z</time>
      </trkpt>
      <trkpt lat="43.30205" lon="-1.84902">
        <ele>118</ele>
        <time>2026-07-12T18:00:09.000Z</time>
      </trkpt>
      <trkpt lat="43.30198" lon="-1.84895">
        <ele>119</ele>
        <time>2026-07-12T18:00:10.000Z</time>
      </trkpt>
      <trkpt lat="43.30193" lon="-1.84887">
        <ele>120</ele>
        <time>2026-07-12T18:00:12.000Z</time>
      </trkpt>
      <trkpt lat="43.3019" lon="-1.84883">
        <ele>120</ele>
        <time>2026-07-12T18:00:12.000Z</time>
      </trkpt>
      <trkpt lat="43.30187" lon="-1.84878">
        <ele>121</ele>
        <time>2026-07-12T18:00:13.000Z</time>
      </trkpt>
      <trkpt lat="43.30184" lon="-1.84875">
        <ele>121</ele>
        <time>2026-07-12T18:00:14.000Z</time>
      </trkpt>
      <trkpt lat="43.30178" lon="-1.84873">
        <ele>120</ele>
        <time>2026-07-12T18:00:15.000Z</time>
      </trkpt>
      <trkpt lat="43.30171" lon="-1.8487">
        <ele>119</ele>
        <time>2026-07-12T18:00:16.000Z</time>
      </trkpt>
      <trkpt lat="43.30163" lon="-1.84867">
        <ele>118</ele>
        <time>2026-07-12T18:00:18.000Z</time>
      </trkpt>
      <trkpt lat="43.30151" lon="-1.84864">
        <ele>117</ele>
        <time>2026-07-12T18:00:20.000Z</time>
      </trkpt>
      <trkpt lat="43.30138" lon="-1.84862">
        <ele>114</ele>
        <time>2026-07-12T18:00:22.000Z</time>
      </trkpt>
      <trkpt lat="43.30128" lon="-1.8486">
        <ele>113</ele>
        <time>2026-07-12T18:00:24.000Z</time>
      </trkpt>
      <trkpt lat="43.30122" lon="-1.84859">
        <ele>112</ele>
        <time>2026-07-12T18:00:25.000Z</time>
      </trkpt>
      <trkpt lat="43.3012" lon="-1.84859">
        <ele>111</ele>
        <time>2026-07-12T18:00:25.000Z</time>
      </trkpt>
      <trkpt lat="43.30117" lon="-1.84858">
        <ele>111</ele>
        <time>2026-07-12T18:00:26.000Z</time>
      </trkpt>
      <trkpt lat="43.30111" lon="-1.84855">
        <ele>110</ele>
        <time>2026-07-12T18:00:27.000Z</time>
      </trkpt>
      <trkpt lat="43.30103" lon="-1.84851">
        <ele>109</ele>
        <time>2026-07-12T18:00:29.000Z</time>
      </trkpt>
      <trkpt lat="43.30093" lon="-1.84845">
        <ele>108</ele>
        <time>2026-07-12T18:00:31.000Z</time>
      </trkpt>
      <trkpt lat="43.30086" lon="-1.84839">
        <ele>107</ele>
        <time>2026-07-12T18:00:32.000Z</time>
      </trkpt>
      <trkpt lat="43.30074" lon="-1.84828">
        <ele>106</ele>
        <time>2026-07-12T18:00:35.000Z</time>
      </trkpt>
      <trkpt lat="43.30068" lon="-1.84823">
        <ele>105</ele>
        <time>2026-07-12T18:00:36.000Z</time>
      </trkpt>
      <trkpt lat="43.30067" lon="-1.84821">
        <ele>105</ele>
        <time>2026-07-12T18:00:36.000Z</time>
      </trkpt>
      <trkpt lat="43.30059" lon="-1.84813">
        <ele>104</ele>
        <time>2026-07-12T18:00:38.000Z</time>
      </trkpt>
      <trkpt lat="43.30053" lon="-1.84806">
        <ele>104</ele>
        <time>2026-07-12T18:00:39.000Z</time>
      </trkpt>
      <trkpt lat="43.3005" lon="-1.84801">
        <ele>104</ele>
        <time>2026-07-12T18:00:40.000Z</time>
      </trkpt>
      <trkpt lat="43.30041" lon="-1.84792">
        <ele>102</ele>
        <time>2026-07-12T18:00:42.000Z</time>
      </trkpt>
      <trkpt lat="43.3003" lon="-1.84782">
        <ele>100</ele>
        <time>2026-07-12T18:00:45.000Z</time>
      </trkpt>
      <trkpt lat="43.30022" lon="-1.84777">
        <ele>98</ele>
        <time>2026-07-12T18:00:46.000Z</time>
      </trkpt>
      <trkpt lat="43.30015" lon="-1.84774">
        <ele>96</ele>
        <time>2026-07-12T18:00:47.000Z</time>
      </trkpt>
      <trkpt lat="43.30007" lon="-1.84771">
        <ele>94</ele>
        <time>2026-07-12T18:00:49.000Z</time>
      </trkpt>
      <trkpt lat="43.29999" lon="-1.84772">
        <ele>92</ele>
        <time>2026-07-12T18:00:50.000Z</time>
      </trkpt>
      <trkpt lat="43.29992" lon="-1.84776">
        <ele>92</ele>
        <time>2026-07-12T18:00:52.000Z</time>
      </trkpt>
      <trkpt lat="43.29981" lon="-1.84783">
        <ele>91</ele>
        <time>2026-07-12T18:00:54.000Z</time>
      </trkpt>
      <trkpt lat="43.29978" lon="-1.84786">
        <ele>91</ele>
        <time>2026-07-12T18:00:54.000Z</time>
      </trkpt>
      <trkpt lat="43.29972" lon="-1.84791">
        <ele>90</ele>
        <time>2026-07-12T18:00:56.000Z</time>
      </trkpt>
      <trkpt lat="43.2996" lon="-1.84802">
        <ele>90</ele>
        <time>2026-07-12T18:00:58.000Z</time>
      </trkpt>
      <trkpt lat="43.29946" lon="-1.84813">
        <ele>90</ele>
        <time>2026-07-12T18:01:01.000Z</time>
      </trkpt>
      <trkpt lat="43.29924" lon="-1.84831">
        <ele>90</ele>
        <time>2026-07-12T18:01:06.000Z</time>
      </trkpt>
      <trkpt lat="43.29914" lon="-1.84836">
        <ele>90</ele>
        <time>2026-07-12T18:01:08.000Z</time>
      </trkpt>
      <trkpt lat="43.29905" lon="-1.8484">
        <ele>89</ele>
        <time>2026-07-12T18:01:09.000Z</time>
      </trkpt>
      <trkpt lat="43.29896" lon="-1.84842">
        <ele>88</ele>
        <time>2026-07-12T18:01:11.000Z</time>
      </trkpt>
      <trkpt lat="43.29892" lon="-1.84843">
        <ele>87</ele>
        <time>2026-07-12T18:01:12.000Z</time>
      </trkpt>
      <trkpt lat="43.29888" lon="-1.84843">
        <ele>87</ele>
        <time>2026-07-12T18:01:12.000Z</time>
      </trkpt>
      <trkpt lat="43.29884" lon="-1.84843">
        <ele>87</ele>
        <time>2026-07-12T18:01:13.000Z</time>
      </trkpt>
      <trkpt lat="43.29879" lon="-1.84841">
        <ele>87</ele>
        <time>2026-07-12T18:01:14.000Z</time>
      </trkpt>
      <trkpt lat="43.29872" lon="-1.8484">
        <ele>86</ele>
        <time>2026-07-12T18:01:15.000Z</time>
      </trkpt>
      <trkpt lat="43.29862" lon="-1.84835">
        <ele>86</ele>
        <time>2026-07-12T18:01:17.000Z</time>
      </trkpt>
      <trkpt lat="43.29859" lon="-1.84836">
        <ele>86</ele>
        <time>2026-07-12T18:01:18.000Z</time>
      </trkpt>
      <trkpt lat="43.29855" lon="-1.84838">
        <ele>85</ele>
        <time>2026-07-12T18:01:18.000Z</time>
      </trkpt>
      <trkpt lat="43.29852" lon="-1.8484">
        <ele>85</ele>
        <time>2026-07-12T18:01:19.000Z</time>
      </trkpt>
      <trkpt lat="43.29848" lon="-1.84841">
        <ele>85</ele>
        <time>2026-07-12T18:01:20.000Z</time>
      </trkpt>
      <trkpt lat="43.29847" lon="-1.84842">
        <ele>84</ele>
        <time>2026-07-12T18:01:20.000Z</time>
      </trkpt>
      <trkpt lat="43.29829" lon="-1.84854">
        <ele>82</ele>
        <time>2026-07-12T18:01:24.000Z</time>
      </trkpt>
      <trkpt lat="43.29809" lon="-1.84867">
        <ele>80</ele>
        <time>2026-07-12T18:01:27.000Z</time>
      </trkpt>
      <trkpt lat="43.29802" lon="-1.84872">
        <ele>79</ele>
        <time>2026-07-12T18:01:29.000Z</time>
      </trkpt>
      <trkpt lat="43.29781" lon="-1.84888">
        <ele>76</ele>
        <time>2026-07-12T18:01:33.000Z</time>
      </trkpt>
      <trkpt lat="43.29763" lon="-1.84899">
        <ele>74</ele>
        <time>2026-07-12T18:01:37.000Z</time>
      </trkpt>
      <trkpt lat="43.29756" lon="-1.84903">
        <ele>74</ele>
        <time>2026-07-12T18:01:38.000Z</time>
      </trkpt>
      <trkpt lat="43.29746" lon="-1.84906">
        <ele>73</ele>
        <time>2026-07-12T18:01:40.000Z</time>
      </trkpt>
      <trkpt lat="43.29737" lon="-1.84908">
        <ele>73</ele>
        <time>2026-07-12T18:01:41.000Z</time>
      </trkpt>
      <trkpt lat="43.29736" lon="-1.84909">
        <ele>73</ele>
        <time>2026-07-12T18:01:42.000Z</time>
      </trkpt>
      <trkpt lat="43.2972" lon="-1.84911">
        <ele>72</ele>
        <time>2026-07-12T18:01:45.000Z</time>
      </trkpt>
      <trkpt lat="43.29704" lon="-1.84914">
        <ele>71</ele>
        <time>2026-07-12T18:01:47.000Z</time>
      </trkpt>
      <trkpt lat="43.29696" lon="-1.84916">
        <ele>71</ele>
        <time>2026-07-12T18:01:49.000Z</time>
      </trkpt>
      <trkpt lat="43.29682" lon="-1.84924">
        <ele>70</ele>
        <time>2026-07-12T18:01:52.000Z</time>
      </trkpt>
      <trkpt lat="43.2967" lon="-1.84931">
        <ele>69</ele>
        <time>2026-07-12T18:01:54.000Z</time>
      </trkpt>
      <trkpt lat="43.29665" lon="-1.84934">
        <ele>69</ele>
        <time>2026-07-12T18:01:55.000Z</time>
      </trkpt>
      <trkpt lat="43.29654" lon="-1.84941">
        <ele>67</ele>
        <time>2026-07-12T18:01:57.000Z</time>
      </trkpt>
      <trkpt lat="43.29649" lon="-1.84947">
        <ele>67</ele>
        <time>2026-07-12T18:01:58.000Z</time>
      </trkpt>
      <trkpt lat="43.29642" lon="-1.84954">
        <ele>66</ele>
        <time>2026-07-12T18:02:00.000Z</time>
      </trkpt>
      <trkpt lat="43.29637" lon="-1.84963">
        <ele>65</ele>
        <time>2026-07-12T18:02:01.000Z</time>
      </trkpt>
      <trkpt lat="43.2963" lon="-1.84978">
        <ele>64</ele>
        <time>2026-07-12T18:02:03.000Z</time>
      </trkpt>
      <trkpt lat="43.29622" lon="-1.84998">
        <ele>63</ele>
        <time>2026-07-12T18:02:06.000Z</time>
      </trkpt>
      <trkpt lat="43.29615" lon="-1.85017">
        <ele>61</ele>
        <time>2026-07-12T18:02:09.000Z</time>
      </trkpt>
      <trkpt lat="43.29609" lon="-1.8504">
        <ele>59</ele>
        <time>2026-07-12T18:02:12.000Z</time>
      </trkpt>
      <trkpt lat="43.29607" lon="-1.8505">
        <ele>58</ele>
        <time>2026-07-12T18:02:14.000Z</time>
      </trkpt>
      <trkpt lat="43.29606" lon="-1.85057">
        <ele>57</ele>
        <time>2026-07-12T18:02:15.000Z</time>
      </trkpt>
      <trkpt lat="43.29602" lon="-1.85083">
        <ele>55</ele>
        <time>2026-07-12T18:02:18.000Z</time>
      </trkpt>
      <trkpt lat="43.29602" lon="-1.85109">
        <ele>53</ele>
        <time>2026-07-12T18:02:21.000Z</time>
      </trkpt>
      <trkpt lat="43.29602" lon="-1.85129">
        <ele>51</ele>
        <time>2026-07-12T18:02:24.000Z</time>
      </trkpt>
      <trkpt lat="43.29602" lon="-1.85134">
        <ele>50</ele>
        <time>2026-07-12T18:02:25.000Z</time>
      </trkpt>
      <trkpt lat="43.29599" lon="-1.85141">
        <ele>50</ele>
        <time>2026-07-12T18:02:26.000Z</time>
      </trkpt>
      <trkpt lat="43.29593" lon="-1.85151">
        <ele>49</ele>
        <time>2026-07-12T18:02:27.000Z</time>
      </trkpt>
      <trkpt lat="43.2958" lon="-1.85163">
        <ele>48</ele>
        <time>2026-07-12T18:02:30.000Z</time>
      </trkpt>
      <trkpt lat="43.2958" lon="-1.85163">
        <ele>48</ele>
        <time>2026-07-12T18:02:30.000Z</time>
      </trkpt>
      <trkpt lat="43.29575" lon="-1.85158">
        <ele>48</ele>
        <time>2026-07-12T18:02:31.000Z</time>
      </trkpt>
      <trkpt lat="43.29575" lon="-1.85158">
        <ele>48</ele>
        <time>2026-07-12T18:02:31.000Z</time>
      </trkpt>
      <trkpt lat="43.29573" lon="-1.85159">
        <ele>48</ele>
        <time>2026-07-12T18:02:32.000Z</time>
      </trkpt>
      <trkpt lat="43.29571" lon="-1.85161">
        <ele>47</ele>
        <time>2026-07-12T18:02:32.000Z</time>
      </trkpt>
      <trkpt lat="43.29568" lon="-1.85163">
        <ele>47</ele>
        <time>2026-07-12T18:02:33.000Z</time>
      </trkpt>
      <trkpt lat="43.29555" lon="-1.8517">
        <ele>45</ele>
        <time>2026-07-12T18:02:35.000Z</time>
      </trkpt>
      <trkpt lat="43.2955" lon="-1.85172">
        <ele>45</ele>
        <time>2026-07-12T18:02:36.000Z</time>
      </trkpt>
      <trkpt lat="43.29544" lon="-1.85173">
        <ele>44</ele>
        <time>2026-07-12T18:02:37.000Z</time>
      </trkpt>
      <trkpt lat="43.29533" lon="-1.85173">
        <ele>43</ele>
        <time>2026-07-12T18:02:39.000Z</time>
      </trkpt>
      <trkpt lat="43.29527" lon="-1.85174">
        <ele>43</ele>
        <time>2026-07-12T18:02:40.000Z</time>
      </trkpt>
      <trkpt lat="43.29524" lon="-1.85175">
        <ele>43</ele>
        <time>2026-07-12T18:02:41.000Z</time>
      </trkpt>
      <trkpt lat="43.29522" lon="-1.85176">
        <ele>42</ele>
        <time>2026-07-12T18:02:41.000Z</time>
      </trkpt>
      <trkpt lat="43.2949" lon="-1.85198">
        <ele>39</ele>
        <time>2026-07-12T18:02:48.000Z</time>
      </trkpt>
      <trkpt lat="43.29485" lon="-1.85202">
        <ele>39</ele>
        <time>2026-07-12T18:02:49.000Z</time>
      </trkpt>
      <trkpt lat="43.29482" lon="-1.85206">
        <ele>38</ele>
        <time>2026-07-12T18:02:49.000Z</time>
      </trkpt>
      <trkpt lat="43.2948" lon="-1.85208">
        <ele>38</ele>
        <time>2026-07-12T18:02:50.000Z</time>
      </trkpt>
      <trkpt lat="43.29479" lon="-1.85211">
        <ele>38</ele>
        <time>2026-07-12T18:02:50.000Z</time>
      </trkpt>
      <trkpt lat="43.29478" lon="-1.85215">
        <ele>38</ele>
        <time>2026-07-12T18:02:51.000Z</time>
      </trkpt>
      <trkpt lat="43.29477" lon="-1.85219">
        <ele>38</ele>
        <time>2026-07-12T18:02:51.000Z</time>
      </trkpt>
      <trkpt lat="43.29476" lon="-1.85223">
        <ele>38</ele>
        <time>2026-07-12T18:02:52.000Z</time>
      </trkpt>
      <trkpt lat="43.29476" lon="-1.8523">
        <ele>37</ele>
        <time>2026-07-12T18:02:53.000Z</time>
      </trkpt>
      <trkpt lat="43.29476" lon="-1.85234">
        <ele>37</ele>
        <time>2026-07-12T18:02:53.000Z</time>
      </trkpt>
      <trkpt lat="43.29476" lon="-1.85238">
        <ele>37</ele>
        <time>2026-07-12T18:02:54.000Z</time>
      </trkpt>
      <trkpt lat="43.29476" lon="-1.85245">
        <ele>37</ele>
        <time>2026-07-12T18:02:55.000Z</time>
      </trkpt>
      <trkpt lat="43.29476" lon="-1.85259">
        <ele>37</ele>
        <time>2026-07-12T18:02:56.000Z</time>
      </trkpt>
      <trkpt lat="43.29477" lon="-1.8527">
        <ele>37</ele>
        <time>2026-07-12T18:02:58.000Z</time>
      </trkpt>
      <trkpt lat="43.29477" lon="-1.85273">
        <ele>37</ele>
        <time>2026-07-12T18:02:58.000Z</time>
      </trkpt>
      <trkpt lat="43.29477" lon="-1.85276">
        <ele>37</ele>
        <time>2026-07-12T18:02:59.000Z</time>
      </trkpt>
      <trkpt lat="43.29476" lon="-1.85278">
        <ele>37</ele>
        <time>2026-07-12T18:02:59.000Z</time>
      </trkpt>
      <trkpt lat="43.29476" lon="-1.8528">
        <ele>37</ele>
        <time>2026-07-12T18:02:59.000Z</time>
      </trkpt>
      <trkpt lat="43.29473" lon="-1.8529">
        <ele>37</ele>
        <time>2026-07-12T18:03:01.000Z</time>
      </trkpt>
      <trkpt lat="43.29468" lon="-1.85306">
        <ele>36</ele>
        <time>2026-07-12T18:03:03.000Z</time>
      </trkpt>
      <trkpt lat="43.29466" lon="-1.85315">
        <ele>36</ele>
        <time>2026-07-12T18:03:04.000Z</time>
      </trkpt>
      <trkpt lat="43.29462" lon="-1.85329">
        <ele>36</ele>
        <time>2026-07-12T18:03:06.000Z</time>
      </trkpt>
      <trkpt lat="43.29461" lon="-1.85334">
        <ele>36</ele>
        <time>2026-07-12T18:03:07.000Z</time>
      </trkpt>
      <trkpt lat="43.2946" lon="-1.85339">
        <ele>36</ele>
        <time>2026-07-12T18:03:07.000Z</time>
      </trkpt>
      <trkpt lat="43.29459" lon="-1.85345">
        <ele>36</ele>
        <time>2026-07-12T18:03:08.000Z</time>
      </trkpt>
      <trkpt lat="43.29459" lon="-1.85348">
        <ele>36</ele>
        <time>2026-07-12T18:03:09.000Z</time>
      </trkpt>
      <trkpt lat="43.29458" lon="-1.8535">
        <ele>36</ele>
        <time>2026-07-12T18:03:09.000Z</time>
      </trkpt>
      <trkpt lat="43.29458" lon="-1.85352">
        <ele>36</ele>
        <time>2026-07-12T18:03:09.000Z</time>
      </trkpt>
      <trkpt lat="43.29457" lon="-1.85354">
        <ele>36</ele>
        <time>2026-07-12T18:03:09.000Z</time>
      </trkpt>
      <trkpt lat="43.29457" lon="-1.85355">
        <ele>36</ele>
        <time>2026-07-12T18:03:10.000Z</time>
      </trkpt>
      <trkpt lat="43.29454" lon="-1.8536">
        <ele>36</ele>
        <time>2026-07-12T18:03:10.000Z</time>
      </trkpt>
      <trkpt lat="43.29454" lon="-1.8536">
        <ele>36</ele>
        <time>2026-07-12T18:03:10.000Z</time>
      </trkpt>
      <trkpt lat="43.29453" lon="-1.85365">
        <ele>36</ele>
        <time>2026-07-12T18:03:11.000Z</time>
      </trkpt>
      <trkpt lat="43.29452" lon="-1.85369">
        <ele>35</ele>
        <time>2026-07-12T18:03:12.000Z</time>
      </trkpt>
      <trkpt lat="43.29451" lon="-1.85373">
        <ele>35</ele>
        <time>2026-07-12T18:03:12.000Z</time>
      </trkpt>
      <trkpt lat="43.29442" lon="-1.85399">
        <ele>35</ele>
        <time>2026-07-12T18:03:16.000Z</time>
      </trkpt>
      <trkpt lat="43.2944" lon="-1.85404">
        <ele>35</ele>
        <time>2026-07-12T18:03:17.000Z</time>
      </trkpt>
      <trkpt lat="43.29431" lon="-1.85431">
        <ele>34</ele>
        <time>2026-07-12T18:03:21.000Z</time>
      </trkpt>
      <trkpt lat="43.29427" lon="-1.85443">
        <ele>34</ele>
        <time>2026-07-12T18:03:22.000Z</time>
      </trkpt>
      <trkpt lat="43.29427" lon="-1.85443">
        <ele>34</ele>
        <time>2026-07-12T18:03:22.000Z</time>
      </trkpt>
      <trkpt lat="43.29425" lon="-1.85445">
        <ele>33</ele>
        <time>2026-07-12T18:03:23.000Z</time>
      </trkpt>
      <trkpt lat="43.29424" lon="-1.85446">
        <ele>33</ele>
        <time>2026-07-12T18:03:23.000Z</time>
      </trkpt>
      <trkpt lat="43.29422" lon="-1.85447">
        <ele>33</ele>
        <time>2026-07-12T18:03:23.000Z</time>
      </trkpt>
      <trkpt lat="43.2942" lon="-1.85449">
        <ele>33</ele>
        <time>2026-07-12T18:03:24.000Z</time>
      </trkpt>
      <trkpt lat="43.29417" lon="-1.85453">
        <ele>33</ele>
        <time>2026-07-12T18:03:24.000Z</time>
      </trkpt>
      <trkpt lat="43.29415" lon="-1.85456">
        <ele>33</ele>
        <time>2026-07-12T18:03:25.000Z</time>
      </trkpt>
      <trkpt lat="43.29412" lon="-1.85459">
        <ele>33</ele>
        <time>2026-07-12T18:03:26.000Z</time>
      </trkpt>
      <trkpt lat="43.29411" lon="-1.85462">
        <ele>33</ele>
        <time>2026-07-12T18:03:26.000Z</time>
      </trkpt>
      <trkpt lat="43.29408" lon="-1.85469">
        <ele>33</ele>
        <time>2026-07-12T18:03:27.000Z</time>
      </trkpt>
      <trkpt lat="43.29406" lon="-1.85474">
        <ele>33</ele>
        <time>2026-07-12T18:03:28.000Z</time>
      </trkpt>
      <trkpt lat="43.29399" lon="-1.85495">
        <ele>33</ele>
        <time>2026-07-12T18:03:31.000Z</time>
      </trkpt>
      <trkpt lat="43.29395" lon="-1.85507">
        <ele>32</ele>
        <time>2026-07-12T18:03:33.000Z</time>
      </trkpt>
      <trkpt lat="43.29393" lon="-1.85518">
        <ele>32</ele>
        <time>2026-07-12T18:03:34.000Z</time>
      </trkpt>
      <trkpt lat="43.29393" lon="-1.85518">
        <ele>32</ele>
        <time>2026-07-12T18:03:34.000Z</time>
      </trkpt>
      <trkpt lat="43.29392" lon="-1.85519">
        <ele>32</ele>
        <time>2026-07-12T18:03:34.000Z</time>
      </trkpt>
      <trkpt lat="43.29392" lon="-1.8552">
        <ele>32</ele>
        <time>2026-07-12T18:03:34.000Z</time>
      </trkpt>
      <trkpt lat="43.29391" lon="-1.85522">
        <ele>32</ele>
        <time>2026-07-12T18:03:35.000Z</time>
      </trkpt>
      <trkpt lat="43.29387" lon="-1.85528">
        <ele>32</ele>
        <time>2026-07-12T18:03:36.000Z</time>
      </trkpt>
      <trkpt lat="43.29374" lon="-1.8555">
        <ele>32</ele>
        <time>2026-07-12T18:03:39.000Z</time>
      </trkpt>
      <trkpt lat="43.29357" lon="-1.85574">
        <ele>32</ele>
        <time>2026-07-12T18:03:44.000Z</time>
      </trkpt>
      <trkpt lat="43.29357" lon="-1.85575">
        <ele>32</ele>
        <time>2026-07-12T18:03:44.000Z</time>
      </trkpt>
      <trkpt lat="43.29356" lon="-1.85576">
        <ele>32</ele>
        <time>2026-07-12T18:03:44.000Z</time>
      </trkpt>
      <trkpt lat="43.29355" lon="-1.85577">
        <ele>32</ele>
        <time>2026-07-12T18:03:44.000Z</time>
      </trkpt>
      <trkpt lat="43.29354" lon="-1.85578">
        <ele>32</ele>
        <time>2026-07-12T18:03:45.000Z</time>
      </trkpt>
      <trkpt lat="43.29353" lon="-1.85578">
        <ele>32</ele>
        <time>2026-07-12T18:03:45.000Z</time>
      </trkpt>
      <trkpt lat="43.29351" lon="-1.85578">
        <ele>33</ele>
        <time>2026-07-12T18:03:45.000Z</time>
      </trkpt>
      <trkpt lat="43.29351" lon="-1.85578">
        <ele>33</ele>
        <time>2026-07-12T18:03:45.000Z</time>
      </trkpt>
      <trkpt lat="43.2935" lon="-1.85578">
        <ele>33</ele>
        <time>2026-07-12T18:03:45.000Z</time>
      </trkpt>
      <trkpt lat="43.29349" lon="-1.85578">
        <ele>33</ele>
        <time>2026-07-12T18:03:45.000Z</time>
      </trkpt>
      <trkpt lat="43.29347" lon="-1.85577">
        <ele>33</ele>
        <time>2026-07-12T18:03:46.000Z</time>
      </trkpt>
      <trkpt lat="43.29346" lon="-1.85576">
        <ele>33</ele>
        <time>2026-07-12T18:03:46.000Z</time>
      </trkpt>
      <trkpt lat="43.29338" lon="-1.85571">
        <ele>33</ele>
        <time>2026-07-12T18:03:48.000Z</time>
      </trkpt>
      <trkpt lat="43.29335" lon="-1.8557">
        <ele>33</ele>
        <time>2026-07-12T18:03:48.000Z</time>
      </trkpt>
      <trkpt lat="43.29332" lon="-1.85568">
        <ele>33</ele>
        <time>2026-07-12T18:03:49.000Z</time>
      </trkpt>
      <trkpt lat="43.29329" lon="-1.85567">
        <ele>33</ele>
        <time>2026-07-12T18:03:49.000Z</time>
      </trkpt>
      <trkpt lat="43.29323" lon="-1.85565">
        <ele>33</ele>
        <time>2026-07-12T18:03:50.000Z</time>
      </trkpt>
      <trkpt lat="43.29303" lon="-1.85559">
        <ele>33</ele>
        <time>2026-07-12T18:03:54.000Z</time>
      </trkpt>
      <trkpt lat="43.29301" lon="-1.85559">
        <ele>33</ele>
        <time>2026-07-12T18:03:54.000Z</time>
      </trkpt>
      <trkpt lat="43.293" lon="-1.85559">
        <ele>33</ele>
        <time>2026-07-12T18:03:55.000Z</time>
      </trkpt>
      <trkpt lat="43.29298" lon="-1.85559">
        <ele>33</ele>
        <time>2026-07-12T18:03:55.000Z</time>
      </trkpt>
      <trkpt lat="43.29297" lon="-1.85559">
        <ele>33</ele>
        <time>2026-07-12T18:03:55.000Z</time>
      </trkpt>
      <trkpt lat="43.29295" lon="-1.85559">
        <ele>33</ele>
        <time>2026-07-12T18:03:55.000Z</time>
      </trkpt>
      <trkpt lat="43.29291" lon="-1.85559">
        <ele>33</ele>
        <time>2026-07-12T18:03:56.000Z</time>
      </trkpt>
      <trkpt lat="43.29291" lon="-1.85559">
        <ele>33</ele>
        <time>2026-07-12T18:03:56.000Z</time>
      </trkpt>
      <trkpt lat="43.29287" lon="-1.85561">
        <ele>33</ele>
        <time>2026-07-12T18:03:57.000Z</time>
      </trkpt>
      <trkpt lat="43.29283" lon="-1.85564">
        <ele>33</ele>
        <time>2026-07-12T18:03:58.000Z</time>
      </trkpt>
      <trkpt lat="43.29278" lon="-1.85568">
        <ele>34</ele>
        <time>2026-07-12T18:03:59.000Z</time>
      </trkpt>
      <trkpt lat="43.29273" lon="-1.85573">
        <ele>34</ele>
        <time>2026-07-12T18:04:00.000Z</time>
      </trkpt>
      <trkpt lat="43.29249" lon="-1.85596">
        <ele>34</ele>
        <time>2026-07-12T18:04:05.000Z</time>
      </trkpt>
      <trkpt lat="43.29247" lon="-1.85598">
        <ele>34</ele>
        <time>2026-07-12T18:04:06.000Z</time>
      </trkpt>
      <trkpt lat="43.29246" lon="-1.856">
        <ele>34</ele>
        <time>2026-07-12T18:04:06.000Z</time>
      </trkpt>
      <trkpt lat="43.29244" lon="-1.85603">
        <ele>35</ele>
        <time>2026-07-12T18:04:06.000Z</time>
      </trkpt>
      <trkpt lat="43.29243" lon="-1.85606">
        <ele>35</ele>
        <time>2026-07-12T18:04:07.000Z</time>
      </trkpt>
      <trkpt lat="43.29242" lon="-1.8561">
        <ele>35</ele>
        <time>2026-07-12T18:04:07.000Z</time>
      </trkpt>
      <trkpt lat="43.2924" lon="-1.85623">
        <ele>35</ele>
        <time>2026-07-12T18:04:09.000Z</time>
      </trkpt>
      <trkpt lat="43.29237" lon="-1.85649">
        <ele>36</ele>
        <time>2026-07-12T18:04:12.000Z</time>
      </trkpt>
      <trkpt lat="43.29237" lon="-1.85649">
        <ele>36</ele>
        <time>2026-07-12T18:04:12.000Z</time>
      </trkpt>
      <trkpt lat="43.29226" lon="-1.8565">
        <ele>36</ele>
        <time>2026-07-12T18:04:14.000Z</time>
      </trkpt>
      <trkpt lat="43.29222" lon="-1.8565">
        <ele>36</ele>
        <time>2026-07-12T18:04:15.000Z</time>
      </trkpt>
      <trkpt lat="43.2922" lon="-1.8565">
        <ele>36</ele>
        <time>2026-07-12T18:04:16.000Z</time>
      </trkpt>
      <trkpt lat="43.29217" lon="-1.85651">
        <ele>36</ele>
        <time>2026-07-12T18:04:16.000Z</time>
      </trkpt>
      <trkpt lat="43.29213" lon="-1.85651">
        <ele>36</ele>
        <time>2026-07-12T18:04:17.000Z</time>
      </trkpt>
      <trkpt lat="43.29211" lon="-1.85652">
        <ele>36</ele>
        <time>2026-07-12T18:04:17.000Z</time>
      </trkpt>
      <trkpt lat="43.29209" lon="-1.85652">
        <ele>36</ele>
        <time>2026-07-12T18:04:18.000Z</time>
      </trkpt>
      <trkpt lat="43.29207" lon="-1.85653">
        <ele>36</ele>
        <time>2026-07-12T18:04:18.000Z</time>
      </trkpt>
      <trkpt lat="43.29205" lon="-1.85655">
        <ele>36</ele>
        <time>2026-07-12T18:04:18.000Z</time>
      </trkpt>
      <trkpt lat="43.292" lon="-1.85659">
        <ele>36</ele>
        <time>2026-07-12T18:04:19.000Z</time>
      </trkpt>
      <trkpt lat="43.292" lon="-1.85659">
        <ele>36</ele>
        <time>2026-07-12T18:04:19.000Z</time>
      </trkpt>
      <trkpt lat="43.29195" lon="-1.85656">
        <ele>36</ele>
        <time>2026-07-12T18:04:20.000Z</time>
      </trkpt>
      <trkpt lat="43.29192" lon="-1.85655">
        <ele>36</ele>
        <time>2026-07-12T18:04:21.000Z</time>
      </trkpt>
      <trkpt lat="43.29189" lon="-1.85654">
        <ele>36</ele>
        <time>2026-07-12T18:04:21.000Z</time>
      </trkpt>
      <trkpt lat="43.29186" lon="-1.85654">
        <ele>36</ele>
        <time>2026-07-12T18:04:22.000Z</time>
      </trkpt>
      <trkpt lat="43.29184" lon="-1.85654">
        <ele>36</ele>
        <time>2026-07-12T18:04:22.000Z</time>
      </trkpt>
      <trkpt lat="43.29181" lon="-1.85654">
        <ele>37</ele>
        <time>2026-07-12T18:04:23.000Z</time>
      </trkpt>
      <trkpt lat="43.29179" lon="-1.85654">
        <ele>37</ele>
        <time>2026-07-12T18:04:23.000Z</time>
      </trkpt>
      <trkpt lat="43.29176" lon="-1.85654">
        <ele>37</ele>
        <time>2026-07-12T18:04:24.000Z</time>
      </trkpt>
      <trkpt lat="43.29172" lon="-1.85655">
        <ele>37</ele>
        <time>2026-07-12T18:04:24.000Z</time>
      </trkpt>
      <trkpt lat="43.29162" lon="-1.85657">
        <ele>37</ele>
        <time>2026-07-12T18:04:26.000Z</time>
      </trkpt>
      <trkpt lat="43.29135" lon="-1.85663">
        <ele>38</ele>
        <time>2026-07-12T18:04:31.000Z</time>
      </trkpt>
      <trkpt lat="43.2913" lon="-1.85664">
        <ele>38</ele>
        <time>2026-07-12T18:04:32.000Z</time>
      </trkpt>
      <trkpt lat="43.29125" lon="-1.85665">
        <ele>38</ele>
        <time>2026-07-12T18:04:33.000Z</time>
      </trkpt>
      <trkpt lat="43.2912" lon="-1.85665">
        <ele>39</ele>
        <time>2026-07-12T18:04:34.000Z</time>
      </trkpt>
      <trkpt lat="43.29113" lon="-1.85664">
        <ele>39</ele>
        <time>2026-07-12T18:04:35.000Z</time>
      </trkpt>
      <trkpt lat="43.2911" lon="-1.85663">
        <ele>39</ele>
        <time>2026-07-12T18:04:36.000Z</time>
      </trkpt>
      <trkpt lat="43.29105" lon="-1.85661">
        <ele>39</ele>
        <time>2026-07-12T18:04:37.000Z</time>
      </trkpt>
      <trkpt lat="43.29099" lon="-1.85659">
        <ele>39</ele>
        <time>2026-07-12T18:04:38.000Z</time>
      </trkpt>
      <trkpt lat="43.29095" lon="-1.85658">
        <ele>39</ele>
        <time>2026-07-12T18:04:38.000Z</time>
      </trkpt>
      <trkpt lat="43.29092" lon="-1.85657">
        <ele>39</ele>
        <time>2026-07-12T18:04:39.000Z</time>
      </trkpt>
      <trkpt lat="43.29088" lon="-1.85655">
        <ele>39</ele>
        <time>2026-07-12T18:04:40.000Z</time>
      </trkpt>
      <trkpt lat="43.29084" lon="-1.85655">
        <ele>40</ele>
        <time>2026-07-12T18:04:40.000Z</time>
      </trkpt>
      <trkpt lat="43.29079" lon="-1.85654">
        <ele>40</ele>
        <time>2026-07-12T18:04:41.000Z</time>
      </trkpt>
      <trkpt lat="43.28986" lon="-1.85646">
        <ele>44</ele>
        <time>2026-07-12T18:04:58.000Z</time>
      </trkpt>
      <trkpt lat="43.28956" lon="-1.85643">
        <ele>46</ele>
        <time>2026-07-12T18:05:03.000Z</time>
      </trkpt>
      <trkpt lat="43.28952" lon="-1.85642">
        <ele>46</ele>
        <time>2026-07-12T18:05:04.000Z</time>
      </trkpt>
      <trkpt lat="43.28949" lon="-1.85643">
        <ele>46</ele>
        <time>2026-07-12T18:05:04.000Z</time>
      </trkpt>
      <trkpt lat="43.28945" lon="-1.85643">
        <ele>46</ele>
        <time>2026-07-12T18:05:05.000Z</time>
      </trkpt>
      <trkpt lat="43.28941" lon="-1.85644">
        <ele>47</ele>
        <time>2026-07-12T18:05:06.000Z</time>
      </trkpt>
      <trkpt lat="43.28937" lon="-1.85645">
        <ele>47</ele>
        <time>2026-07-12T18:05:07.000Z</time>
      </trkpt>
      <trkpt lat="43.28934" lon="-1.85646">
        <ele>47</ele>
        <time>2026-07-12T18:05:07.000Z</time>
      </trkpt>
      <trkpt lat="43.28931" lon="-1.85648">
        <ele>47</ele>
        <time>2026-07-12T18:05:08.000Z</time>
      </trkpt>
      <trkpt lat="43.28913" lon="-1.85658">
        <ele>50</ele>
        <time>2026-07-12T18:05:11.000Z</time>
      </trkpt>
      <trkpt lat="43.28907" lon="-1.85662">
        <ele>52</ele>
        <time>2026-07-12T18:05:12.000Z</time>
      </trkpt>
      <trkpt lat="43.28903" lon="-1.85664">
        <ele>53</ele>
        <time>2026-07-12T18:05:13.000Z</time>
      </trkpt>
      <trkpt lat="43.289" lon="-1.85666">
        <ele>54</ele>
        <time>2026-07-12T18:05:14.000Z</time>
      </trkpt>
      <trkpt lat="43.28895" lon="-1.85666">
        <ele>55</ele>
        <time>2026-07-12T18:05:15.000Z</time>
      </trkpt>
      <trkpt lat="43.2889" lon="-1.85667">
        <ele>57</ele>
        <time>2026-07-12T18:05:16.000Z</time>
      </trkpt>
      <trkpt lat="43.28882" lon="-1.85667">
        <ele>58</ele>
        <time>2026-07-12T18:05:17.000Z</time>
      </trkpt>
      <trkpt lat="43.28874" lon="-1.85666">
        <ele>60</ele>
        <time>2026-07-12T18:05:18.000Z</time>
      </trkpt>
      <trkpt lat="43.28869" lon="-1.85665">
        <ele>61</ele>
        <time>2026-07-12T18:05:19.000Z</time>
      </trkpt>
      <trkpt lat="43.28864" lon="-1.85663">
        <ele>62</ele>
        <time>2026-07-12T18:05:20.000Z</time>
      </trkpt>
      <trkpt lat="43.28856" lon="-1.8566">
        <ele>63</ele>
        <time>2026-07-12T18:05:22.000Z</time>
      </trkpt>
      <trkpt lat="43.28851" lon="-1.85658">
        <ele>64</ele>
        <time>2026-07-12T18:05:23.000Z</time>
      </trkpt>
      <trkpt lat="43.28846" lon="-1.85655">
        <ele>65</ele>
        <time>2026-07-12T18:05:24.000Z</time>
      </trkpt>
      <trkpt lat="43.28842" lon="-1.85652">
        <ele>65</ele>
        <time>2026-07-12T18:05:24.000Z</time>
      </trkpt>
      <trkpt lat="43.28835" lon="-1.85647">
        <ele>65</ele>
        <time>2026-07-12T18:05:26.000Z</time>
      </trkpt>
      <trkpt lat="43.2881" lon="-1.85623">
        <ele>68</ele>
        <time>2026-07-12T18:05:31.000Z</time>
      </trkpt>
      <trkpt lat="43.28799" lon="-1.85612">
        <ele>68</ele>
        <time>2026-07-12T18:05:34.000Z</time>
      </trkpt>
      <trkpt lat="43.2879" lon="-1.85602">
        <ele>67</ele>
        <time>2026-07-12T18:05:36.000Z</time>
      </trkpt>
      <trkpt lat="43.2878" lon="-1.85589">
        <ele>65</ele>
        <time>2026-07-12T18:05:38.000Z</time>
      </trkpt>
      <trkpt lat="43.28777" lon="-1.85584">
        <ele>64</ele>
        <time>2026-07-12T18:05:39.000Z</time>
      </trkpt>
      <trkpt lat="43.28758" lon="-1.8555">
        <ele>65</ele>
        <time>2026-07-12T18:05:45.000Z</time>
      </trkpt>
      <trkpt lat="43.28753" lon="-1.8554">
        <ele>65</ele>
        <time>2026-07-12T18:05:46.000Z</time>
      </trkpt>
      <trkpt lat="43.28748" lon="-1.85532">
        <ele>65</ele>
        <time>2026-07-12T18:05:48.000Z</time>
      </trkpt>
      <trkpt lat="43.28744" lon="-1.85524">
        <ele>64</ele>
        <time>2026-07-12T18:05:49.000Z</time>
      </trkpt>
      <trkpt lat="43.28736" lon="-1.85515">
        <ele>64</ele>
        <time>2026-07-12T18:05:51.000Z</time>
      </trkpt>
      <trkpt lat="43.28731" lon="-1.85509">
        <ele>64</ele>
        <time>2026-07-12T18:05:52.000Z</time>
      </trkpt>
      <trkpt lat="43.28725" lon="-1.85506">
        <ele>64</ele>
        <time>2026-07-12T18:05:53.000Z</time>
      </trkpt>
      <trkpt lat="43.28719" lon="-1.85503">
        <ele>63</ele>
        <time>2026-07-12T18:05:54.000Z</time>
      </trkpt>
      <trkpt lat="43.2869" lon="-1.85492">
        <ele>65</ele>
        <time>2026-07-12T18:05:59.000Z</time>
      </trkpt>
      <trkpt lat="43.28682" lon="-1.8549">
        <ele>65</ele>
        <time>2026-07-12T18:06:01.000Z</time>
      </trkpt>
      <trkpt lat="43.28674" lon="-1.85488">
        <ele>66</ele>
        <time>2026-07-12T18:06:02.000Z</time>
      </trkpt>
      <trkpt lat="43.28665" lon="-1.85488">
        <ele>66</ele>
        <time>2026-07-12T18:06:04.000Z</time>
      </trkpt>
      <trkpt lat="43.28654" lon="-1.85488">
        <ele>66</ele>
        <time>2026-07-12T18:06:06.000Z</time>
      </trkpt>
      <trkpt lat="43.28649" lon="-1.85488">
        <ele>66</ele>
        <time>2026-07-12T18:06:07.000Z</time>
      </trkpt>
      <trkpt lat="43.28641" lon="-1.85488">
        <ele>66</ele>
        <time>2026-07-12T18:06:08.000Z</time>
      </trkpt>
      <trkpt lat="43.28637" lon="-1.85489">
        <ele>66</ele>
        <time>2026-07-12T18:06:09.000Z</time>
      </trkpt>
      <trkpt lat="43.28627" lon="-1.85491">
        <ele>66</ele>
        <time>2026-07-12T18:06:11.000Z</time>
      </trkpt>
      <trkpt lat="43.28623" lon="-1.85492">
        <ele>65</ele>
        <time>2026-07-12T18:06:11.000Z</time>
      </trkpt>
      <trkpt lat="43.28621" lon="-1.85493">
        <ele>65</ele>
        <time>2026-07-12T18:06:12.000Z</time>
      </trkpt>
      <trkpt lat="43.28618" lon="-1.85495">
        <ele>65</ele>
        <time>2026-07-12T18:06:12.000Z</time>
      </trkpt>
      <trkpt lat="43.28616" lon="-1.85497">
        <ele>65</ele>
        <time>2026-07-12T18:06:13.000Z</time>
      </trkpt>
      <trkpt lat="43.28614" lon="-1.85498">
        <ele>65</ele>
        <time>2026-07-12T18:06:13.000Z</time>
      </trkpt>
      <trkpt lat="43.28611" lon="-1.855">
        <ele>65</ele>
        <time>2026-07-12T18:06:14.000Z</time>
      </trkpt>
      <trkpt lat="43.28608" lon="-1.85503">
        <ele>66</ele>
        <time>2026-07-12T18:06:14.000Z</time>
      </trkpt>
      <trkpt lat="43.28603" lon="-1.85507">
        <ele>67</ele>
        <time>2026-07-12T18:06:16.000Z</time>
      </trkpt>
      <trkpt lat="43.28599" lon="-1.8551">
        <ele>68</ele>
        <time>2026-07-12T18:06:16.000Z</time>
      </trkpt>
      <trkpt lat="43.2859" lon="-1.8552">
        <ele>71</ele>
        <time>2026-07-12T18:06:18.000Z</time>
      </trkpt>
      <trkpt lat="43.28587" lon="-1.85523">
        <ele>72</ele>
        <time>2026-07-12T18:06:19.000Z</time>
      </trkpt>
      <trkpt lat="43.28582" lon="-1.85527">
        <ele>73</ele>
        <time>2026-07-12T18:06:20.000Z</time>
      </trkpt>
      <trkpt lat="43.28579" lon="-1.8553">
        <ele>73</ele>
        <time>2026-07-12T18:06:21.000Z</time>
      </trkpt>
      <trkpt lat="43.28573" lon="-1.85534">
        <ele>74</ele>
        <time>2026-07-12T18:06:22.000Z</time>
      </trkpt>
      <trkpt lat="43.28567" lon="-1.85537">
        <ele>75</ele>
        <time>2026-07-12T18:06:23.000Z</time>
      </trkpt>
      <trkpt lat="43.28562" lon="-1.8554">
        <ele>75</ele>
        <time>2026-07-12T18:06:24.000Z</time>
      </trkpt>
      <trkpt lat="43.28556" lon="-1.85544">
        <ele>76</ele>
        <time>2026-07-12T18:06:25.000Z</time>
      </trkpt>
      <trkpt lat="43.28551" lon="-1.85547">
        <ele>77</ele>
        <time>2026-07-12T18:06:26.000Z</time>
      </trkpt>
      <trkpt lat="43.28547" lon="-1.8555">
        <ele>77</ele>
        <time>2026-07-12T18:06:27.000Z</time>
      </trkpt>
      <trkpt lat="43.28543" lon="-1.85553">
        <ele>78</ele>
        <time>2026-07-12T18:06:28.000Z</time>
      </trkpt>
      <trkpt lat="43.28541" lon="-1.85555">
        <ele>78</ele>
        <time>2026-07-12T18:06:28.000Z</time>
      </trkpt>
      <trkpt lat="43.2854" lon="-1.85557">
        <ele>78</ele>
        <time>2026-07-12T18:06:29.000Z</time>
      </trkpt>
      <trkpt lat="43.28538" lon="-1.8556">
        <ele>79</ele>
        <time>2026-07-12T18:06:29.000Z</time>
      </trkpt>
      <trkpt lat="43.28534" lon="-1.85566">
        <ele>80</ele>
        <time>2026-07-12T18:06:30.000Z</time>
      </trkpt>
      <trkpt lat="43.28527" lon="-1.85576">
        <ele>82</ele>
        <time>2026-07-12T18:06:32.000Z</time>
      </trkpt>
      <trkpt lat="43.28524" lon="-1.85581">
        <ele>83</ele>
        <time>2026-07-12T18:06:33.000Z</time>
      </trkpt>
      <trkpt lat="43.2852" lon="-1.85585">
        <ele>83</ele>
        <time>2026-07-12T18:06:34.000Z</time>
      </trkpt>
      <trkpt lat="43.28517" lon="-1.85589">
        <ele>84</ele>
        <time>2026-07-12T18:06:34.000Z</time>
      </trkpt>
      <trkpt lat="43.2851" lon="-1.85595">
        <ele>84</ele>
        <time>2026-07-12T18:06:36.000Z</time>
      </trkpt>
      <trkpt lat="43.28506" lon="-1.85599">
        <ele>84</ele>
        <time>2026-07-12T18:06:37.000Z</time>
      </trkpt>
      <trkpt lat="43.28494" lon="-1.85603">
        <ele>85</ele>
        <time>2026-07-12T18:06:39.000Z</time>
      </trkpt>
      <trkpt lat="43.28468" lon="-1.8561">
        <ele>88</ele>
        <time>2026-07-12T18:06:44.000Z</time>
      </trkpt>
      <trkpt lat="43.2846" lon="-1.85612">
        <ele>89</ele>
        <time>2026-07-12T18:06:45.000Z</time>
      </trkpt>
      <trkpt lat="43.28454" lon="-1.85613">
        <ele>89</ele>
        <time>2026-07-12T18:06:46.000Z</time>
      </trkpt>
      <trkpt lat="43.2845" lon="-1.85614">
        <ele>90</ele>
        <time>2026-07-12T18:06:47.000Z</time>
      </trkpt>
      <trkpt lat="43.28446" lon="-1.85614">
        <ele>90</ele>
        <time>2026-07-12T18:06:48.000Z</time>
      </trkpt>
      <trkpt lat="43.28442" lon="-1.85613">
        <ele>90</ele>
        <time>2026-07-12T18:06:48.000Z</time>
      </trkpt>
      <trkpt lat="43.28438" lon="-1.85612">
        <ele>90</ele>
        <time>2026-07-12T18:06:49.000Z</time>
      </trkpt>
      <trkpt lat="43.28435" lon="-1.85611">
        <ele>90</ele>
        <time>2026-07-12T18:06:50.000Z</time>
      </trkpt>
      <trkpt lat="43.28431" lon="-1.85609">
        <ele>90</ele>
        <time>2026-07-12T18:06:50.000Z</time>
      </trkpt>
      <trkpt lat="43.28428" lon="-1.85607">
        <ele>90</ele>
        <time>2026-07-12T18:06:51.000Z</time>
      </trkpt>
      <trkpt lat="43.28425" lon="-1.85605">
        <ele>89</ele>
        <time>2026-07-12T18:06:52.000Z</time>
      </trkpt>
      <trkpt lat="43.28419" lon="-1.856">
        <ele>89</ele>
        <time>2026-07-12T18:06:53.000Z</time>
      </trkpt>
      <trkpt lat="43.28411" lon="-1.85592">
        <ele>87</ele>
        <time>2026-07-12T18:06:55.000Z</time>
      </trkpt>
      <trkpt lat="43.28403" lon="-1.85585">
        <ele>86</ele>
        <time>2026-07-12T18:06:56.000Z</time>
      </trkpt>
      <trkpt lat="43.28395" lon="-1.85579">
        <ele>86</ele>
        <time>2026-07-12T18:06:58.000Z</time>
      </trkpt>
      <trkpt lat="43.28391" lon="-1.85576">
        <ele>85</ele>
        <time>2026-07-12T18:06:59.000Z</time>
      </trkpt>
      <trkpt lat="43.28386" lon="-1.85574">
        <ele>85</ele>
        <time>2026-07-12T18:07:00.000Z</time>
      </trkpt>
      <trkpt lat="43.28379" lon="-1.85571">
        <ele>85</ele>
        <time>2026-07-12T18:07:01.000Z</time>
      </trkpt>
      <trkpt lat="43.28375" lon="-1.8557">
        <ele>85</ele>
        <time>2026-07-12T18:07:02.000Z</time>
      </trkpt>
      <trkpt lat="43.2837" lon="-1.85569">
        <ele>85</ele>
        <time>2026-07-12T18:07:03.000Z</time>
      </trkpt>
      <trkpt lat="43.28364" lon="-1.85569">
        <ele>86</ele>
        <time>2026-07-12T18:07:04.000Z</time>
      </trkpt>
      <trkpt lat="43.28329" lon="-1.8557">
        <ele>88</ele>
        <time>2026-07-12T18:07:10.000Z</time>
      </trkpt>
      <trkpt lat="43.28316" lon="-1.8557">
        <ele>90</ele>
        <time>2026-07-12T18:07:12.000Z</time>
      </trkpt>
      <trkpt lat="43.28307" lon="-1.85571">
        <ele>91</ele>
        <time>2026-07-12T18:07:14.000Z</time>
      </trkpt>
      <trkpt lat="43.28301" lon="-1.85572">
        <ele>91</ele>
        <time>2026-07-12T18:07:15.000Z</time>
      </trkpt>
      <trkpt lat="43.28296" lon="-1.85573">
        <ele>92</ele>
        <time>2026-07-12T18:07:16.000Z</time>
      </trkpt>
      <trkpt lat="43.28294" lon="-1.85574">
        <ele>92</ele>
        <time>2026-07-12T18:07:16.000Z</time>
      </trkpt>
      <trkpt lat="43.28291" lon="-1.85575">
        <ele>92</ele>
        <time>2026-07-12T18:07:17.000Z</time>
      </trkpt>
      <trkpt lat="43.28288" lon="-1.85577">
        <ele>93</ele>
        <time>2026-07-12T18:07:17.000Z</time>
      </trkpt>
      <trkpt lat="43.28283" lon="-1.8558">
        <ele>94</ele>
        <time>2026-07-12T18:07:18.000Z</time>
      </trkpt>
      <trkpt lat="43.28279" lon="-1.85583">
        <ele>94</ele>
        <time>2026-07-12T18:07:19.000Z</time>
      </trkpt>
      <trkpt lat="43.28276" lon="-1.85586">
        <ele>95</ele>
        <time>2026-07-12T18:07:20.000Z</time>
      </trkpt>
      <trkpt lat="43.28273" lon="-1.85589">
        <ele>96</ele>
        <time>2026-07-12T18:07:20.000Z</time>
      </trkpt>
      <trkpt lat="43.28261" lon="-1.85601">
        <ele>98</ele>
        <time>2026-07-12T18:07:23.000Z</time>
      </trkpt>
      <trkpt lat="43.28257" lon="-1.85604">
        <ele>99</ele>
        <time>2026-07-12T18:07:24.000Z</time>
      </trkpt>
      <trkpt lat="43.28255" lon="-1.85607">
        <ele>100</ele>
        <time>2026-07-12T18:07:24.000Z</time>
      </trkpt>
      <trkpt lat="43.28253" lon="-1.85608">
        <ele>100</ele>
        <time>2026-07-12T18:07:25.000Z</time>
      </trkpt>
      <trkpt lat="43.28252" lon="-1.85608">
        <ele>100</ele>
        <time>2026-07-12T18:07:25.000Z</time>
      </trkpt>
      <trkpt lat="43.2825" lon="-1.85609">
        <ele>100</ele>
        <time>2026-07-12T18:07:25.000Z</time>
      </trkpt>
      <trkpt lat="43.28248" lon="-1.8561">
        <ele>101</ele>
        <time>2026-07-12T18:07:26.000Z</time>
      </trkpt>
      <trkpt lat="43.28246" lon="-1.8561">
        <ele>101</ele>
        <time>2026-07-12T18:07:26.000Z</time>
      </trkpt>
      <trkpt lat="43.28244" lon="-1.8561">
        <ele>102</ele>
        <time>2026-07-12T18:07:26.000Z</time>
      </trkpt>
      <trkpt lat="43.28243" lon="-1.8561">
        <ele>102</ele>
        <time>2026-07-12T18:07:27.000Z</time>
      </trkpt>
      <trkpt lat="43.28241" lon="-1.8561">
        <ele>102</ele>
        <time>2026-07-12T18:07:27.000Z</time>
      </trkpt>
      <trkpt lat="43.2824" lon="-1.85609">
        <ele>102</ele>
        <time>2026-07-12T18:07:27.000Z</time>
      </trkpt>
      <trkpt lat="43.28238" lon="-1.85609">
        <ele>103</ele>
        <time>2026-07-12T18:07:27.000Z</time>
      </trkpt>
      <trkpt lat="43.28237" lon="-1.85608">
        <ele>103</ele>
        <time>2026-07-12T18:07:28.000Z</time>
      </trkpt>
      <trkpt lat="43.28235" lon="-1.85606">
        <ele>103</ele>
        <time>2026-07-12T18:07:28.000Z</time>
      </trkpt>
      <trkpt lat="43.28233" lon="-1.85604">
        <ele>103</ele>
        <time>2026-07-12T18:07:29.000Z</time>
      </trkpt>
      <trkpt lat="43.28232" lon="-1.85603">
        <ele>103</ele>
        <time>2026-07-12T18:07:29.000Z</time>
      </trkpt>
      <trkpt lat="43.28231" lon="-1.85601">
        <ele>103</ele>
        <time>2026-07-12T18:07:29.000Z</time>
      </trkpt>
      <trkpt lat="43.2823" lon="-1.85599">
        <ele>103</ele>
        <time>2026-07-12T18:07:29.000Z</time>
      </trkpt>
      <trkpt lat="43.28229" lon="-1.85596">
        <ele>103</ele>
        <time>2026-07-12T18:07:30.000Z</time>
      </trkpt>
      <trkpt lat="43.28228" lon="-1.85593">
        <ele>103</ele>
        <time>2026-07-12T18:07:30.000Z</time>
      </trkpt>
      <trkpt lat="43.28227" lon="-1.8559">
        <ele>102</ele>
        <time>2026-07-12T18:07:31.000Z</time>
      </trkpt>
      <trkpt lat="43.28227" lon="-1.85586">
        <ele>102</ele>
        <time>2026-07-12T18:07:31.000Z</time>
      </trkpt>
      <trkpt lat="43.28227" lon="-1.85583">
        <ele>101</ele>
        <time>2026-07-12T18:07:32.000Z</time>
      </trkpt>
      <trkpt lat="43.28227" lon="-1.85579">
        <ele>101</ele>
        <time>2026-07-12T18:07:32.000Z</time>
      </trkpt>
      <trkpt lat="43.28228" lon="-1.85576">
        <ele>100</ele>
        <time>2026-07-12T18:07:33.000Z</time>
      </trkpt>
      <trkpt lat="43.2823" lon="-1.85569">
        <ele>99</ele>
        <time>2026-07-12T18:07:34.000Z</time>
      </trkpt>
      <trkpt lat="43.28243" lon="-1.85524">
        <ele>94</ele>
        <time>2026-07-12T18:07:40.000Z</time>
      </trkpt>
      <trkpt lat="43.28243" lon="-1.85522">
        <ele>94</ele>
        <time>2026-07-12T18:07:40.000Z</time>
      </trkpt>
      <trkpt lat="43.28244" lon="-1.85518">
        <ele>93</ele>
        <time>2026-07-12T18:07:41.000Z</time>
      </trkpt>
      <trkpt lat="43.28244" lon="-1.85514">
        <ele>93</ele>
        <time>2026-07-12T18:07:41.000Z</time>
      </trkpt>
      <trkpt lat="43.28244" lon="-1.85508">
        <ele>93</ele>
        <time>2026-07-12T18:07:42.000Z</time>
      </trkpt>
      <trkpt lat="43.28244" lon="-1.85504">
        <ele>92</ele>
        <time>2026-07-12T18:07:42.000Z</time>
      </trkpt>
      <trkpt lat="43.28243" lon="-1.855">
        <ele>92</ele>
        <time>2026-07-12T18:07:43.000Z</time>
      </trkpt>
      <trkpt lat="43.28241" lon="-1.85496">
        <ele>92</ele>
        <time>2026-07-12T18:07:44.000Z</time>
      </trkpt>
      <trkpt lat="43.28239" lon="-1.85492">
        <ele>91</ele>
        <time>2026-07-12T18:07:44.000Z</time>
      </trkpt>
      <trkpt lat="43.28237" lon="-1.85489">
        <ele>91</ele>
        <time>2026-07-12T18:07:45.000Z</time>
      </trkpt>
      <trkpt lat="43.28235" lon="-1.85486">
        <ele>91</ele>
        <time>2026-07-12T18:07:45.000Z</time>
      </trkpt>
      <trkpt lat="43.28232" lon="-1.85484">
        <ele>91</ele>
        <time>2026-07-12T18:07:46.000Z</time>
      </trkpt>
      <trkpt lat="43.2823" lon="-1.85482">
        <ele>91</ele>
        <time>2026-07-12T18:07:46.000Z</time>
      </trkpt>
      <trkpt lat="43.28219" lon="-1.85475">
        <ele>92</ele>
        <time>2026-07-12T18:07:48.000Z</time>
      </trkpt>
      <trkpt lat="43.28204" lon="-1.85468">
        <ele>93</ele>
        <time>2026-07-12T18:07:51.000Z</time>
      </trkpt>
      <trkpt lat="43.282" lon="-1.85467">
        <ele>93</ele>
        <time>2026-07-12T18:07:52.000Z</time>
      </trkpt>
      <trkpt lat="43.28196" lon="-1.85466">
        <ele>94</ele>
        <time>2026-07-12T18:07:53.000Z</time>
      </trkpt>
      <trkpt lat="43.28193" lon="-1.85465">
        <ele>94</ele>
        <time>2026-07-12T18:07:53.000Z</time>
      </trkpt>
      <trkpt lat="43.2819" lon="-1.85465">
        <ele>94</ele>
        <time>2026-07-12T18:07:54.000Z</time>
      </trkpt>
      <trkpt lat="43.28188" lon="-1.85465">
        <ele>95</ele>
        <time>2026-07-12T18:07:54.000Z</time>
      </trkpt>
      <trkpt lat="43.28185" lon="-1.85466">
        <ele>95</ele>
        <time>2026-07-12T18:07:55.000Z</time>
      </trkpt>
      <trkpt lat="43.28183" lon="-1.85466">
        <ele>96</ele>
        <time>2026-07-12T18:07:55.000Z</time>
      </trkpt>
      <trkpt lat="43.28179" lon="-1.85467">
        <ele>97</ele>
        <time>2026-07-12T18:07:56.000Z</time>
      </trkpt>
      <trkpt lat="43.28176" lon="-1.85468">
        <ele>97</ele>
        <time>2026-07-12T18:07:56.000Z</time>
      </trkpt>
      <trkpt lat="43.28172" lon="-1.8547">
        <ele>98</ele>
        <time>2026-07-12T18:07:57.000Z</time>
      </trkpt>
      <trkpt lat="43.28165" lon="-1.85473">
        <ele>100</ele>
        <time>2026-07-12T18:07:58.000Z</time>
      </trkpt>
      <trkpt lat="43.28151" lon="-1.8548">
        <ele>103</ele>
        <time>2026-07-12T18:08:01.000Z</time>
      </trkpt>
      <trkpt lat="43.2814" lon="-1.85486">
        <ele>105</ele>
        <time>2026-07-12T18:08:03.000Z</time>
      </trkpt>
      <trkpt lat="43.28132" lon="-1.8549">
        <ele>107</ele>
        <time>2026-07-12T18:08:05.000Z</time>
      </trkpt>
      <trkpt lat="43.28128" lon="-1.85494">
        <ele>108</ele>
        <time>2026-07-12T18:08:06.000Z</time>
      </trkpt>
      <trkpt lat="43.28125" lon="-1.85497">
        <ele>109</ele>
        <time>2026-07-12T18:08:06.000Z</time>
      </trkpt>
      <trkpt lat="43.28119" lon="-1.85503">
        <ele>110</ele>
        <time>2026-07-12T18:08:08.000Z</time>
      </trkpt>
      <trkpt lat="43.28115" lon="-1.85507">
        <ele>111</ele>
        <time>2026-07-12T18:08:08.000Z</time>
      </trkpt>
      <trkpt lat="43.28115" lon="-1.85508">
        <ele>111</ele>
        <time>2026-07-12T18:08:09.000Z</time>
      </trkpt>
      <trkpt lat="43.28111" lon="-1.85514">
        <ele>111</ele>
        <time>2026-07-12T18:08:10.000Z</time>
      </trkpt>
      <trkpt lat="43.28108" lon="-1.8552">
        <ele>112</ele>
        <time>2026-07-12T18:08:11.000Z</time>
      </trkpt>
      <trkpt lat="43.28103" lon="-1.8553">
        <ele>113</ele>
        <time>2026-07-12T18:08:12.000Z</time>
      </trkpt>
      <trkpt lat="43.28093" lon="-1.85555">
        <ele>116</ele>
        <time>2026-07-12T18:08:16.000Z</time>
      </trkpt>
      <trkpt lat="43.28085" lon="-1.85576">
        <ele>117</ele>
        <time>2026-07-12T18:08:19.000Z</time>
      </trkpt>
      <trkpt lat="43.28081" lon="-1.85587">
        <ele>119</ele>
        <time>2026-07-12T18:08:20.000Z</time>
      </trkpt>
      <trkpt lat="43.28076" lon="-1.85602">
        <ele>121</ele>
        <time>2026-07-12T18:08:23.000Z</time>
      </trkpt>
      <trkpt lat="43.28072" lon="-1.85617">
        <ele>123</ele>
        <time>2026-07-12T18:08:25.000Z</time>
      </trkpt>
      <trkpt lat="43.28069" lon="-1.85629">
        <ele>124</ele>
        <time>2026-07-12T18:08:26.000Z</time>
      </trkpt>
      <trkpt lat="43.28066" lon="-1.85641">
        <ele>126</ele>
        <time>2026-07-12T18:08:28.000Z</time>
      </trkpt>
      <trkpt lat="43.28065" lon="-1.85647">
        <ele>126</ele>
        <time>2026-07-12T18:08:29.000Z</time>
      </trkpt>
      <trkpt lat="43.28061" lon="-1.8566">
        <ele>128</ele>
        <time>2026-07-12T18:08:31.000Z</time>
      </trkpt>
      <trkpt lat="43.2805" lon="-1.85711">
        <ele>131</ele>
        <time>2026-07-12T18:08:37.000Z</time>
      </trkpt>
      <trkpt lat="43.28043" lon="-1.85744">
        <ele>133</ele>
        <time>2026-07-12T18:08:42.000Z</time>
      </trkpt>
      <trkpt lat="43.28037" lon="-1.85774">
        <ele>135</ele>
        <time>2026-07-12T18:08:46.000Z</time>
      </trkpt>
      <trkpt lat="43.28035" lon="-1.85781">
        <ele>136</ele>
        <time>2026-07-12T18:08:47.000Z</time>
      </trkpt>
      <trkpt lat="43.28034" lon="-1.85788">
        <ele>136</ele>
        <time>2026-07-12T18:08:48.000Z</time>
      </trkpt>
      <trkpt lat="43.28032" lon="-1.85795">
        <ele>136</ele>
        <time>2026-07-12T18:08:49.000Z</time>
      </trkpt>
      <trkpt lat="43.2803" lon="-1.858">
        <ele>137</ele>
        <time>2026-07-12T18:08:50.000Z</time>
      </trkpt>
      <trkpt lat="43.28027" lon="-1.85805">
        <ele>137</ele>
        <time>2026-07-12T18:08:50.000Z</time>
      </trkpt>
      <trkpt lat="43.28025" lon="-1.8581">
        <ele>137</ele>
        <time>2026-07-12T18:08:51.000Z</time>
      </trkpt>
      <trkpt lat="43.28023" lon="-1.85814">
        <ele>137</ele>
        <time>2026-07-12T18:08:52.000Z</time>
      </trkpt>
      <trkpt lat="43.2802" lon="-1.85818">
        <ele>137</ele>
        <time>2026-07-12T18:08:53.000Z</time>
      </trkpt>
      <trkpt lat="43.28018" lon="-1.85821">
        <ele>137</ele>
        <time>2026-07-12T18:08:53.000Z</time>
      </trkpt>
      <trkpt lat="43.28015" lon="-1.85823">
        <ele>137</ele>
        <time>2026-07-12T18:08:54.000Z</time>
      </trkpt>
      <trkpt lat="43.28012" lon="-1.85825">
        <ele>137</ele>
        <time>2026-07-12T18:08:54.000Z</time>
      </trkpt>
      <trkpt lat="43.28008" lon="-1.85828">
        <ele>137</ele>
        <time>2026-07-12T18:08:55.000Z</time>
      </trkpt>
      <trkpt lat="43.28003" lon="-1.85831">
        <ele>137</ele>
        <time>2026-07-12T18:08:56.000Z</time>
      </trkpt>
      <trkpt lat="43.27997" lon="-1.85832">
        <ele>137</ele>
        <time>2026-07-12T18:08:57.000Z</time>
      </trkpt>
      <trkpt lat="43.27991" lon="-1.85833">
        <ele>138</ele>
        <time>2026-07-12T18:08:58.000Z</time>
      </trkpt>
      <trkpt lat="43.27985" lon="-1.85832">
        <ele>139</ele>
        <time>2026-07-12T18:08:59.000Z</time>
      </trkpt>
      <trkpt lat="43.27978" lon="-1.8583">
        <ele>140</ele>
        <time>2026-07-12T18:09:01.000Z</time>
      </trkpt>
      <trkpt lat="43.27972" lon="-1.85827">
        <ele>140</ele>
        <time>2026-07-12T18:09:02.000Z</time>
      </trkpt>
      <trkpt lat="43.27967" lon="-1.85823">
        <ele>141</ele>
        <time>2026-07-12T18:09:03.000Z</time>
      </trkpt>
      <trkpt lat="43.27963" lon="-1.8582">
        <ele>141</ele>
        <time>2026-07-12T18:09:04.000Z</time>
      </trkpt>
      <trkpt lat="43.27958" lon="-1.85814">
        <ele>141</ele>
        <time>2026-07-12T18:09:05.000Z</time>
      </trkpt>
      <trkpt lat="43.27956" lon="-1.8581">
        <ele>142</ele>
        <time>2026-07-12T18:09:05.000Z</time>
      </trkpt>
      <trkpt lat="43.27952" lon="-1.85803">
        <ele>142</ele>
        <time>2026-07-12T18:09:06.000Z</time>
      </trkpt>
      <trkpt lat="43.2795" lon="-1.85798">
        <ele>142</ele>
        <time>2026-07-12T18:09:07.000Z</time>
      </trkpt>
      <trkpt lat="43.27948" lon="-1.85791">
        <ele>142</ele>
        <time>2026-07-12T18:09:08.000Z</time>
      </trkpt>
      <trkpt lat="43.27946" lon="-1.85785">
        <ele>141</ele>
        <time>2026-07-12T18:09:09.000Z</time>
      </trkpt>
      <trkpt lat="43.27945" lon="-1.85779">
        <ele>141</ele>
        <time>2026-07-12T18:09:10.000Z</time>
      </trkpt>
      <trkpt lat="43.27945" lon="-1.85773">
        <ele>141</ele>
        <time>2026-07-12T18:09:11.000Z</time>
      </trkpt>
      <trkpt lat="43.27946" lon="-1.85767">
        <ele>140</ele>
        <time>2026-07-12T18:09:11.000Z</time>
      </trkpt>
      <trkpt lat="43.27947" lon="-1.85759">
        <ele>140</ele>
        <time>2026-07-12T18:09:12.000Z</time>
      </trkpt>
      <trkpt lat="43.2795" lon="-1.85752">
        <ele>139</ele>
        <time>2026-07-12T18:09:14.000Z</time>
      </trkpt>
      <trkpt lat="43.27953" lon="-1.85745">
        <ele>139</ele>
        <time>2026-07-12T18:09:15.000Z</time>
      </trkpt>
      <trkpt lat="43.27963" lon="-1.85721">
        <ele>137</ele>
        <time>2026-07-12T18:09:18.000Z</time>
      </trkpt>
      <trkpt lat="43.27966" lon="-1.85714">
        <ele>137</ele>
        <time>2026-07-12T18:09:19.000Z</time>
      </trkpt>
      <trkpt lat="43.27968" lon="-1.85707">
        <ele>137</ele>
        <time>2026-07-12T18:09:20.000Z</time>
      </trkpt>
      <trkpt lat="43.27971" lon="-1.85699">
        <ele>136</ele>
        <time>2026-07-12T18:09:21.000Z</time>
      </trkpt>
      <trkpt lat="43.27972" lon="-1.85691">
        <ele>136</ele>
        <time>2026-07-12T18:09:22.000Z</time>
      </trkpt>
      <trkpt lat="43.27973" lon="-1.85683">
        <ele>136</ele>
        <time>2026-07-12T18:09:23.000Z</time>
      </trkpt>
      <trkpt lat="43.27973" lon="-1.85677">
        <ele>136</ele>
        <time>2026-07-12T18:09:24.000Z</time>
      </trkpt>
      <trkpt lat="43.27973" lon="-1.85671">
        <ele>136</ele>
        <time>2026-07-12T18:09:25.000Z</time>
      </trkpt>
      <trkpt lat="43.27973" lon="-1.85664">
        <ele>136</ele>
        <time>2026-07-12T18:09:26.000Z</time>
      </trkpt>
      <trkpt lat="43.27972" lon="-1.85656">
        <ele>136</ele>
        <time>2026-07-12T18:09:27.000Z</time>
      </trkpt>
      <trkpt lat="43.2797" lon="-1.85647">
        <ele>136</ele>
        <time>2026-07-12T18:09:28.000Z</time>
      </trkpt>
      <trkpt lat="43.27968" lon="-1.85637">
        <ele>136</ele>
        <time>2026-07-12T18:09:30.000Z</time>
      </trkpt>
      <trkpt lat="43.27966" lon="-1.85632">
        <ele>137</ele>
        <time>2026-07-12T18:09:30.000Z</time>
      </trkpt>
      <trkpt lat="43.27965" lon="-1.85628">
        <ele>137</ele>
        <time>2026-07-12T18:09:31.000Z</time>
      </trkpt>
      <trkpt lat="43.27963" lon="-1.85624">
        <ele>137</ele>
        <time>2026-07-12T18:09:31.000Z</time>
      </trkpt>
      <trkpt lat="43.27954" lon="-1.85605">
        <ele>139</ele>
        <time>2026-07-12T18:09:34.000Z</time>
      </trkpt>
      <trkpt lat="43.27931" lon="-1.85561">
        <ele>142</ele>
        <time>2026-07-12T18:09:41.000Z</time>
      </trkpt>
      <trkpt lat="43.27926" lon="-1.85549">
        <ele>142</ele>
        <time>2026-07-12T18:09:43.000Z</time>
      </trkpt>
      <trkpt lat="43.27921" lon="-1.85538">
        <ele>142</ele>
        <time>2026-07-12T18:09:45.000Z</time>
      </trkpt>
      <trkpt lat="43.27919" lon="-1.85533">
        <ele>143</ele>
        <time>2026-07-12T18:09:46.000Z</time>
      </trkpt>
      <trkpt lat="43.27917" lon="-1.85528">
        <ele>143</ele>
        <time>2026-07-12T18:09:46.000Z</time>
      </trkpt>
      <trkpt lat="43.27915" lon="-1.85522">
        <ele>143</ele>
        <time>2026-07-12T18:09:47.000Z</time>
      </trkpt>
      <trkpt lat="43.27913" lon="-1.85515">
        <ele>143</ele>
        <time>2026-07-12T18:09:48.000Z</time>
      </trkpt>
      <trkpt lat="43.27909" lon="-1.85499">
        <ele>143</ele>
        <time>2026-07-12T18:09:50.000Z</time>
      </trkpt>
      <trkpt lat="43.27906" lon="-1.85484">
        <ele>141</ele>
        <time>2026-07-12T18:09:52.000Z</time>
      </trkpt>
      <trkpt lat="43.27905" lon="-1.85477">
        <ele>141</ele>
        <time>2026-07-12T18:09:53.000Z</time>
      </trkpt>
      <trkpt lat="43.27902" lon="-1.85471">
        <ele>140</ele>
        <time>2026-07-12T18:09:54.000Z</time>
      </trkpt>
      <trkpt lat="43.279" lon="-1.85467">
        <ele>140</ele>
        <time>2026-07-12T18:09:55.000Z</time>
      </trkpt>
      <trkpt lat="43.27898" lon="-1.85465">
        <ele>140</ele>
        <time>2026-07-12T18:09:55.000Z</time>
      </trkpt>
      <trkpt lat="43.27895" lon="-1.85463">
        <ele>141</ele>
        <time>2026-07-12T18:09:56.000Z</time>
      </trkpt>
      <trkpt lat="43.27892" lon="-1.85461">
        <ele>141</ele>
        <time>2026-07-12T18:09:56.000Z</time>
      </trkpt>
      <trkpt lat="43.27886" lon="-1.85459">
        <ele>141</ele>
        <time>2026-07-12T18:09:58.000Z</time>
      </trkpt>
      <trkpt lat="43.27879" lon="-1.85456">
        <ele>142</ele>
        <time>2026-07-12T18:09:59.000Z</time>
      </trkpt>
      <trkpt lat="43.27874" lon="-1.85454">
        <ele>142</ele>
        <time>2026-07-12T18:10:00.000Z</time>
      </trkpt>
      <trkpt lat="43.27869" lon="-1.85454">
        <ele>143</ele>
        <time>2026-07-12T18:10:01.000Z</time>
      </trkpt>
      <trkpt lat="43.27865" lon="-1.85453">
        <ele>144</ele>
        <time>2026-07-12T18:10:01.000Z</time>
      </trkpt>
      <trkpt lat="43.27861" lon="-1.85453">
        <ele>144</ele>
        <time>2026-07-12T18:10:02.000Z</time>
      </trkpt>
      <trkpt lat="43.27857" lon="-1.85453">
        <ele>145</ele>
        <time>2026-07-12T18:10:03.000Z</time>
      </trkpt>
      <trkpt lat="43.27847" lon="-1.85454">
        <ele>146</ele>
        <time>2026-07-12T18:10:05.000Z</time>
      </trkpt>
      <trkpt lat="43.27843" lon="-1.85455">
        <ele>147</ele>
        <time>2026-07-12T18:10:05.000Z</time>
      </trkpt>
      <trkpt lat="43.27838" lon="-1.85455">
        <ele>148</ele>
        <time>2026-07-12T18:10:06.000Z</time>
      </trkpt>
      <trkpt lat="43.27835" lon="-1.85456">
        <ele>149</ele>
        <time>2026-07-12T18:10:07.000Z</time>
      </trkpt>
      <trkpt lat="43.2783" lon="-1.85457">
        <ele>150</ele>
        <time>2026-07-12T18:10:08.000Z</time>
      </trkpt>
      <trkpt lat="43.27816" lon="-1.85466">
        <ele>154</ele>
        <time>2026-07-12T18:10:10.000Z</time>
      </trkpt>
      <trkpt lat="43.27809" lon="-1.85471">
        <ele>156</ele>
        <time>2026-07-12T18:10:12.000Z</time>
      </trkpt>
      <trkpt lat="43.27803" lon="-1.85476">
        <ele>158</ele>
        <time>2026-07-12T18:10:13.000Z</time>
      </trkpt>
      <trkpt lat="43.27791" lon="-1.85486">
        <ele>162</ele>
        <time>2026-07-12T18:10:16.000Z</time>
      </trkpt>
      <trkpt lat="43.27783" lon="-1.85494">
        <ele>164</ele>
        <time>2026-07-12T18:10:17.000Z</time>
      </trkpt>
      <trkpt lat="43.27747" lon="-1.85529">
        <ele>176</ele>
        <time>2026-07-12T18:10:25.000Z</time>
      </trkpt>
      <trkpt lat="43.27741" lon="-1.85534">
        <ele>179</ele>
        <time>2026-07-12T18:10:26.000Z</time>
      </trkpt>
      <trkpt lat="43.27738" lon="-1.85535">
        <ele>180</ele>
        <time>2026-07-12T18:10:27.000Z</time>
      </trkpt>
      <trkpt lat="43.27736" lon="-1.85536">
        <ele>181</ele>
        <time>2026-07-12T18:10:27.000Z</time>
      </trkpt>
      <trkpt lat="43.27734" lon="-1.85536">
        <ele>181</ele>
        <time>2026-07-12T18:10:28.000Z</time>
      </trkpt>
      <trkpt lat="43.27732" lon="-1.85536">
        <ele>182</ele>
        <time>2026-07-12T18:10:28.000Z</time>
      </trkpt>
      <trkpt lat="43.2773" lon="-1.85536">
        <ele>183</ele>
        <time>2026-07-12T18:10:28.000Z</time>
      </trkpt>
      <trkpt lat="43.27728" lon="-1.85535">
        <ele>183</ele>
        <time>2026-07-12T18:10:29.000Z</time>
      </trkpt>
      <trkpt lat="43.27725" lon="-1.85534">
        <ele>184</ele>
        <time>2026-07-12T18:10:29.000Z</time>
      </trkpt>
      <trkpt lat="43.27724" lon="-1.85533">
        <ele>184</ele>
        <time>2026-07-12T18:10:30.000Z</time>
      </trkpt>
      <trkpt lat="43.27722" lon="-1.85531">
        <ele>184</ele>
        <time>2026-07-12T18:10:30.000Z</time>
      </trkpt>
      <trkpt lat="43.27721" lon="-1.85529">
        <ele>184</ele>
        <time>2026-07-12T18:10:30.000Z</time>
      </trkpt>
      <trkpt lat="43.2772" lon="-1.85527">
        <ele>184</ele>
        <time>2026-07-12T18:10:31.000Z</time>
      </trkpt>
      <trkpt lat="43.2772" lon="-1.85526">
        <ele>184</ele>
        <time>2026-07-12T18:10:31.000Z</time>
      </trkpt>
      <trkpt lat="43.2772" lon="-1.85524">
        <ele>184</ele>
        <time>2026-07-12T18:10:31.000Z</time>
      </trkpt>
      <trkpt lat="43.2772" lon="-1.85521">
        <ele>183</ele>
        <time>2026-07-12T18:10:31.000Z</time>
      </trkpt>
      <trkpt lat="43.2772" lon="-1.85517">
        <ele>183</ele>
        <time>2026-07-12T18:10:32.000Z</time>
      </trkpt>
      <trkpt lat="43.2772" lon="-1.85512">
        <ele>182</ele>
        <time>2026-07-12T18:10:33.000Z</time>
      </trkpt>
      <trkpt lat="43.27723" lon="-1.85476">
        <ele>177</ele>
        <time>2026-07-12T18:10:37.000Z</time>
      </trkpt>
      <trkpt lat="43.27723" lon="-1.85468">
        <ele>177</ele>
        <time>2026-07-12T18:10:38.000Z</time>
      </trkpt>
      <trkpt lat="43.27728" lon="-1.85441">
        <ele>174</ele>
        <time>2026-07-12T18:10:42.000Z</time>
      </trkpt>
      <trkpt lat="43.27732" lon="-1.85414">
        <ele>171</ele>
        <time>2026-07-12T18:10:46.000Z</time>
      </trkpt>
      <trkpt lat="43.27734" lon="-1.854">
        <ele>170</ele>
        <time>2026-07-12T18:10:47.000Z</time>
      </trkpt>
      <trkpt lat="43.27735" lon="-1.85394">
        <ele>169</ele>
        <time>2026-07-12T18:10:48.000Z</time>
      </trkpt>
      <trkpt lat="43.27735" lon="-1.8539">
        <ele>169</ele>
        <time>2026-07-12T18:10:49.000Z</time>
      </trkpt>
      <trkpt lat="43.27735" lon="-1.85385">
        <ele>169</ele>
        <time>2026-07-12T18:10:49.000Z</time>
      </trkpt>
      <trkpt lat="43.27735" lon="-1.85381">
        <ele>169</ele>
        <time>2026-07-12T18:10:50.000Z</time>
      </trkpt>
      <trkpt lat="43.27734" lon="-1.85377">
        <ele>169</ele>
        <time>2026-07-12T18:10:50.000Z</time>
      </trkpt>
      <trkpt lat="43.27733" lon="-1.85373">
        <ele>169</ele>
        <time>2026-07-12T18:10:51.000Z</time>
      </trkpt>
      <trkpt lat="43.27731" lon="-1.8537">
        <ele>170</ele>
        <time>2026-07-12T18:10:51.000Z</time>
      </trkpt>
      <trkpt lat="43.27722" lon="-1.8535">
        <ele>173</ele>
        <time>2026-07-12T18:10:55.000Z</time>
      </trkpt>
      <trkpt lat="43.27721" lon="-1.85346">
        <ele>173</ele>
        <time>2026-07-12T18:10:55.000Z</time>
      </trkpt>
      <trkpt lat="43.2772" lon="-1.85343">
        <ele>173</ele>
        <time>2026-07-12T18:10:55.000Z</time>
      </trkpt>
      <trkpt lat="43.2772" lon="-1.85339">
        <ele>173</ele>
        <time>2026-07-12T18:10:56.000Z</time>
      </trkpt>
      <trkpt lat="43.2772" lon="-1.85336">
        <ele>173</ele>
        <time>2026-07-12T18:10:56.000Z</time>
      </trkpt>
      <trkpt lat="43.27721" lon="-1.85329">
        <ele>172</ele>
        <time>2026-07-12T18:10:57.000Z</time>
      </trkpt>
      <trkpt lat="43.27724" lon="-1.85316">
        <ele>169</ele>
        <time>2026-07-12T18:10:59.000Z</time>
      </trkpt>
      <trkpt lat="43.27732" lon="-1.85293">
        <ele>163</ele>
        <time>2026-07-12T18:11:02.000Z</time>
      </trkpt>
      <trkpt lat="43.27732" lon="-1.8529">
        <ele>162</ele>
        <time>2026-07-12T18:11:03.000Z</time>
      </trkpt>
      <trkpt lat="43.27733" lon="-1.85286">
        <ele>162</ele>
        <time>2026-07-12T18:11:03.000Z</time>
      </trkpt>
      <trkpt lat="43.27733" lon="-1.85283">
        <ele>161</ele>
        <time>2026-07-12T18:11:04.000Z</time>
      </trkpt>
      <trkpt lat="43.27732" lon="-1.8528">
        <ele>161</ele>
        <time>2026-07-12T18:11:04.000Z</time>
      </trkpt>
      <trkpt lat="43.27731" lon="-1.85276">
        <ele>161</ele>
        <time>2026-07-12T18:11:05.000Z</time>
      </trkpt>
      <trkpt lat="43.2773" lon="-1.85272">
        <ele>161</ele>
        <time>2026-07-12T18:11:05.000Z</time>
      </trkpt>
      <trkpt lat="43.27727" lon="-1.85269">
        <ele>161</ele>
        <time>2026-07-12T18:11:06.000Z</time>
      </trkpt>
      <trkpt lat="43.27723" lon="-1.85265">
        <ele>162</ele>
        <time>2026-07-12T18:11:07.000Z</time>
      </trkpt>
      <trkpt lat="43.2772" lon="-1.85264">
        <ele>162</ele>
        <time>2026-07-12T18:11:07.000Z</time>
      </trkpt>
      <trkpt lat="43.27717" lon="-1.85262">
        <ele>163</ele>
        <time>2026-07-12T18:11:08.000Z</time>
      </trkpt>
      <trkpt lat="43.27714" lon="-1.85261">
        <ele>163</ele>
        <time>2026-07-12T18:11:08.000Z</time>
      </trkpt>
      <trkpt lat="43.27701" lon="-1.85259">
        <ele>166</ele>
        <time>2026-07-12T18:11:11.000Z</time>
      </trkpt>
      <trkpt lat="43.27686" lon="-1.85258">
        <ele>170</ele>
        <time>2026-07-12T18:11:13.000Z</time>
      </trkpt>
      <trkpt lat="43.27677" lon="-1.85258">
        <ele>172</ele>
        <time>2026-07-12T18:11:15.000Z</time>
      </trkpt>
      <trkpt lat="43.27671" lon="-1.85259">
        <ele>174</ele>
        <time>2026-07-12T18:11:16.000Z</time>
      </trkpt>
      <trkpt lat="43.27664" lon="-1.85262">
        <ele>176</ele>
        <time>2026-07-12T18:11:17.000Z</time>
      </trkpt>
      <trkpt lat="43.27651" lon="-1.85269">
        <ele>178</ele>
        <time>2026-07-12T18:11:20.000Z</time>
      </trkpt>
      <trkpt lat="43.27643" lon="-1.85274">
        <ele>180</ele>
        <time>2026-07-12T18:11:22.000Z</time>
      </trkpt>
      <trkpt lat="43.27632" lon="-1.85283">
        <ele>183</ele>
        <time>2026-07-12T18:11:24.000Z</time>
      </trkpt>
      <trkpt lat="43.27617" lon="-1.85292">
        <ele>185</ele>
        <time>2026-07-12T18:11:27.000Z</time>
      </trkpt>
      <trkpt lat="43.27595" lon="-1.85308">
        <ele>190</ele>
        <time>2026-07-12T18:11:31.000Z</time>
      </trkpt>
      <trkpt lat="43.27579" lon="-1.85319">
        <ele>195</ele>
        <time>2026-07-12T18:11:34.000Z</time>
      </trkpt>
      <trkpt lat="43.27564" lon="-1.85328">
        <ele>200</ele>
        <time>2026-07-12T18:11:37.000Z</time>
      </trkpt>
      <trkpt lat="43.27552" lon="-1.85334">
        <ele>204</ele>
        <time>2026-07-12T18:11:39.000Z</time>
      </trkpt>
      <trkpt lat="43.27541" lon="-1.85336">
        <ele>207</ele>
        <time>2026-07-12T18:11:41.000Z</time>
      </trkpt>
      <trkpt lat="43.27534" lon="-1.85335">
        <ele>208</ele>
        <time>2026-07-12T18:11:43.000Z</time>
      </trkpt>
      <trkpt lat="43.27526" lon="-1.85327">
        <ele>208</ele>
        <time>2026-07-12T18:11:44.000Z</time>
      </trkpt>
      <trkpt lat="43.27521" lon="-1.85313">
        <ele>206</ele>
        <time>2026-07-12T18:11:46.000Z</time>
      </trkpt>
      <trkpt lat="43.27512" lon="-1.85283">
        <ele>202</ele>
        <time>2026-07-12T18:11:51.000Z</time>
      </trkpt>
      <trkpt lat="43.27508" lon="-1.85265">
        <ele>200</ele>
        <time>2026-07-12T18:11:53.000Z</time>
      </trkpt>
      <trkpt lat="43.27506" lon="-1.85253">
        <ele>198</ele>
        <time>2026-07-12T18:11:55.000Z</time>
      </trkpt>
      <trkpt lat="43.27508" lon="-1.8524">
        <ele>198</ele>
        <time>2026-07-12T18:11:56.000Z</time>
      </trkpt>
      <trkpt lat="43.27517" lon="-1.85217">
        <ele>197</ele>
        <time>2026-07-12T18:12:00.000Z</time>
      </trkpt>
      <trkpt lat="43.27533" lon="-1.85188">
        <ele>194</ele>
        <time>2026-07-12T18:12:05.000Z</time>
      </trkpt>
      <trkpt lat="43.27545" lon="-1.85164">
        <ele>192</ele>
        <time>2026-07-12T18:12:08.000Z</time>
      </trkpt>
      <trkpt lat="43.27552" lon="-1.85146">
        <ele>193</ele>
        <time>2026-07-12T18:12:11.000Z</time>
      </trkpt>
      <trkpt lat="43.27555" lon="-1.85133">
        <ele>195</ele>
        <time>2026-07-12T18:12:13.000Z</time>
      </trkpt>
      <trkpt lat="43.27556" lon="-1.85126">
        <ele>196</ele>
        <time>2026-07-12T18:12:14.000Z</time>
      </trkpt>
      <trkpt lat="43.27557" lon="-1.85121">
        <ele>197</ele>
        <time>2026-07-12T18:12:14.000Z</time>
      </trkpt>
      <trkpt lat="43.27559" lon="-1.85116">
        <ele>198</ele>
        <time>2026-07-12T18:12:15.000Z</time>
      </trkpt>
      <trkpt lat="43.27561" lon="-1.85112">
        <ele>198</ele>
        <time>2026-07-12T18:12:16.000Z</time>
      </trkpt>
      <trkpt lat="43.27578" lon="-1.85087">
        <ele>196</ele>
        <time>2026-07-12T18:12:20.000Z</time>
      </trkpt>
      <trkpt lat="43.27596" lon="-1.85063">
        <ele>193</ele>
        <time>2026-07-12T18:12:25.000Z</time>
      </trkpt>
      <trkpt lat="43.27608" lon="-1.85047">
        <ele>190</ele>
        <time>2026-07-12T18:12:28.000Z</time>
      </trkpt>
      <trkpt lat="43.27617" lon="-1.85031">
        <ele>189</ele>
        <time>2026-07-12T18:12:30.000Z</time>
      </trkpt>
      <trkpt lat="43.27619" lon="-1.85025">
        <ele>189</ele>
        <time>2026-07-12T18:12:31.000Z</time>
      </trkpt>
      <trkpt lat="43.27621" lon="-1.85021">
        <ele>189</ele>
        <time>2026-07-12T18:12:32.000Z</time>
      </trkpt>
      <trkpt lat="43.27622" lon="-1.85014">
        <ele>190</ele>
        <time>2026-07-12T18:12:33.000Z</time>
      </trkpt>
      <trkpt lat="43.27623" lon="-1.8501">
        <ele>190</ele>
        <time>2026-07-12T18:12:33.000Z</time>
      </trkpt>
      <trkpt lat="43.27622" lon="-1.85002">
        <ele>192</ele>
        <time>2026-07-12T18:12:34.000Z</time>
      </trkpt>
      <trkpt lat="43.27622" lon="-1.84997">
        <ele>192</ele>
        <time>2026-07-12T18:12:35.000Z</time>
      </trkpt>
      <trkpt lat="43.2762" lon="-1.84991">
        <ele>192</ele>
        <time>2026-07-12T18:12:36.000Z</time>
      </trkpt>
      <trkpt lat="43.27618" lon="-1.84986">
        <ele>192</ele>
        <time>2026-07-12T18:12:36.000Z</time>
      </trkpt>
      <trkpt lat="43.27615" lon="-1.84981">
        <ele>192</ele>
        <time>2026-07-12T18:12:37.000Z</time>
      </trkpt>
      <trkpt lat="43.27608" lon="-1.84972">
        <ele>194</ele>
        <time>2026-07-12T18:12:39.000Z</time>
      </trkpt>
      <trkpt lat="43.27601" lon="-1.84965">
        <ele>195</ele>
        <time>2026-07-12T18:12:41.000Z</time>
      </trkpt>
      <trkpt lat="43.27596" lon="-1.84959">
        <ele>196</ele>
        <time>2026-07-12T18:12:42.000Z</time>
      </trkpt>
      <trkpt lat="43.27581" lon="-1.84947">
        <ele>200</ele>
        <time>2026-07-12T18:12:45.000Z</time>
      </trkpt>
      <trkpt lat="43.27568" lon="-1.84937">
        <ele>203</ele>
        <time>2026-07-12T18:12:47.000Z</time>
      </trkpt>
      <trkpt lat="43.27558" lon="-1.84932">
        <ele>206</ele>
        <time>2026-07-12T18:12:49.000Z</time>
      </trkpt>
      <trkpt lat="43.27545" lon="-1.84928">
        <ele>209</ele>
        <time>2026-07-12T18:12:52.000Z</time>
      </trkpt>
      <trkpt lat="43.27529" lon="-1.84925">
        <ele>213</ele>
        <time>2026-07-12T18:12:55.000Z</time>
      </trkpt>
      <trkpt lat="43.27522" lon="-1.84922">
        <ele>215</ele>
        <time>2026-07-12T18:12:56.000Z</time>
      </trkpt>
      <trkpt lat="43.27516" lon="-1.8492">
        <ele>216</ele>
        <time>2026-07-12T18:12:57.000Z</time>
      </trkpt>
      <trkpt lat="43.27513" lon="-1.84917">
        <ele>216</ele>
        <time>2026-07-12T18:12:58.000Z</time>
      </trkpt>
      <trkpt lat="43.27509" lon="-1.84913">
        <ele>216</ele>
        <time>2026-07-12T18:12:59.000Z</time>
      </trkpt>
      <trkpt lat="43.27503" lon="-1.84904">
        <ele>215</ele>
        <time>2026-07-12T18:13:00.000Z</time>
      </trkpt>
      <trkpt lat="43.27502" lon="-1.84902">
        <ele>214</ele>
        <time>2026-07-12T18:13:00.000Z</time>
      </trkpt>
      <trkpt lat="43.275" lon="-1.84899">
        <ele>214</ele>
        <time>2026-07-12T18:13:01.000Z</time>
      </trkpt>
      <trkpt lat="43.27491" lon="-1.84887">
        <ele>213</ele>
        <time>2026-07-12T18:13:03.000Z</time>
      </trkpt>
      <trkpt lat="43.27487" lon="-1.84882">
        <ele>213</ele>
        <time>2026-07-12T18:13:04.000Z</time>
      </trkpt>
      <trkpt lat="43.27483" lon="-1.84878">
        <ele>213</ele>
        <time>2026-07-12T18:13:05.000Z</time>
      </trkpt>
      <trkpt lat="43.27472" lon="-1.84872">
        <ele>214</ele>
        <time>2026-07-12T18:13:07.000Z</time>
      </trkpt>
      <trkpt lat="43.27461" lon="-1.8487">
        <ele>218</ele>
        <time>2026-07-12T18:13:09.000Z</time>
      </trkpt>
      <trkpt lat="43.2745" lon="-1.84871">
        <ele>222</ele>
        <time>2026-07-12T18:13:11.000Z</time>
      </trkpt>
      <trkpt lat="43.27443" lon="-1.84872">
        <ele>224</ele>
        <time>2026-07-12T18:13:12.000Z</time>
      </trkpt>
      <trkpt lat="43.27429" lon="-1.8487">
        <ele>228</ele>
        <time>2026-07-12T18:13:15.000Z</time>
      </trkpt>
      <trkpt lat="43.27424" lon="-1.84869">
        <ele>230</ele>
        <time>2026-07-12T18:13:16.000Z</time>
      </trkpt>
      <trkpt lat="43.27418" lon="-1.84866">
        <ele>231</ele>
        <time>2026-07-12T18:13:17.000Z</time>
      </trkpt>
      <trkpt lat="43.27409" lon="-1.84855">
        <ele>232</ele>
        <time>2026-07-12T18:13:19.000Z</time>
      </trkpt>
      <trkpt lat="43.27399" lon="-1.84841">
        <ele>232</ele>
        <time>2026-07-12T18:13:22.000Z</time>
      </trkpt>
      <trkpt lat="43.27394" lon="-1.84834">
        <ele>232</ele>
        <time>2026-07-12T18:13:23.000Z</time>
      </trkpt>
      <trkpt lat="43.27389" lon="-1.84828">
        <ele>234</ele>
        <time>2026-07-12T18:13:24.000Z</time>
      </trkpt>
      <trkpt lat="43.27381" lon="-1.8482">
        <ele>236</ele>
        <time>2026-07-12T18:13:26.000Z</time>
      </trkpt>
      <trkpt lat="43.27378" lon="-1.84817">
        <ele>237</ele>
        <time>2026-07-12T18:13:26.000Z</time>
      </trkpt>
      <trkpt lat="43.27375" lon="-1.84812">
        <ele>238</ele>
        <time>2026-07-12T18:13:27.000Z</time>
      </trkpt>
      <trkpt lat="43.27373" lon="-1.84809">
        <ele>238</ele>
        <time>2026-07-12T18:13:28.000Z</time>
      </trkpt>
      <trkpt lat="43.27372" lon="-1.84804">
        <ele>238</ele>
        <time>2026-07-12T18:13:28.000Z</time>
      </trkpt>
      <trkpt lat="43.2737" lon="-1.84799">
        <ele>239</ele>
        <time>2026-07-12T18:13:29.000Z</time>
      </trkpt>
      <trkpt lat="43.27369" lon="-1.84794">
        <ele>238</ele>
        <time>2026-07-12T18:13:30.000Z</time>
      </trkpt>
      <trkpt lat="43.27368" lon="-1.84786">
        <ele>238</ele>
        <time>2026-07-12T18:13:31.000Z</time>
      </trkpt>
      <trkpt lat="43.27368" lon="-1.84781">
        <ele>237</ele>
        <time>2026-07-12T18:13:32.000Z</time>
      </trkpt>
      <trkpt lat="43.27371" lon="-1.8477">
        <ele>235</ele>
        <time>2026-07-12T18:13:33.000Z</time>
      </trkpt>
      <trkpt lat="43.27377" lon="-1.84745">
        <ele>230</ele>
        <time>2026-07-12T18:13:36.000Z</time>
      </trkpt>
      <trkpt lat="43.27381" lon="-1.84728">
        <ele>229</ele>
        <time>2026-07-12T18:13:39.000Z</time>
      </trkpt>
      <trkpt lat="43.27392" lon="-1.8469">
        <ele>226</ele>
        <time>2026-07-12T18:13:44.000Z</time>
      </trkpt>
      <trkpt lat="43.27399" lon="-1.84665">
        <ele>224</ele>
        <time>2026-07-12T18:13:48.000Z</time>
      </trkpt>
      <trkpt lat="43.27406" lon="-1.84636">
        <ele>221</ele>
        <time>2026-07-12T18:13:52.000Z</time>
      </trkpt>
      <trkpt lat="43.27407" lon="-1.84622">
        <ele>221</ele>
        <time>2026-07-12T18:13:53.000Z</time>
      </trkpt>
      <trkpt lat="43.27407" lon="-1.84617">
        <ele>221</ele>
        <time>2026-07-12T18:13:54.000Z</time>
      </trkpt>
      <trkpt lat="43.27406" lon="-1.84609">
        <ele>221</ele>
        <time>2026-07-12T18:13:55.000Z</time>
      </trkpt>
      <trkpt lat="43.27405" lon="-1.84603">
        <ele>221</ele>
        <time>2026-07-12T18:13:56.000Z</time>
      </trkpt>
      <trkpt lat="43.274" lon="-1.84587">
        <ele>223</ele>
        <time>2026-07-12T18:13:58.000Z</time>
      </trkpt>
      <trkpt lat="43.27389" lon="-1.8456">
        <ele>223</ele>
        <time>2026-07-12T18:14:02.000Z</time>
      </trkpt>
      <trkpt lat="43.27378" lon="-1.84533">
        <ele>221</ele>
        <time>2026-07-12T18:14:06.000Z</time>
      </trkpt>
      <trkpt lat="43.27369" lon="-1.84516">
        <ele>220</ele>
        <time>2026-07-12T18:14:09.000Z</time>
      </trkpt>
      <trkpt lat="43.27361" lon="-1.84505">
        <ele>220</ele>
        <time>2026-07-12T18:14:11.000Z</time>
      </trkpt>
      <trkpt lat="43.27356" lon="-1.84501">
        <ele>220</ele>
        <time>2026-07-12T18:14:12.000Z</time>
      </trkpt>
      <trkpt lat="43.2735" lon="-1.84498">
        <ele>221</ele>
        <time>2026-07-12T18:14:13.000Z</time>
      </trkpt>
      <trkpt lat="43.27345" lon="-1.84498">
        <ele>223</ele>
        <time>2026-07-12T18:14:14.000Z</time>
      </trkpt>
      <trkpt lat="43.27341" lon="-1.84498">
        <ele>224</ele>
        <time>2026-07-12T18:14:15.000Z</time>
      </trkpt>
      <trkpt lat="43.27335" lon="-1.84501">
        <ele>227</ele>
        <time>2026-07-12T18:14:16.000Z</time>
      </trkpt>
      <trkpt lat="43.27314" lon="-1.84511">
        <ele>232</ele>
        <time>2026-07-12T18:14:20.000Z</time>
      </trkpt>
      <trkpt lat="43.27301" lon="-1.84519">
        <ele>236</ele>
        <time>2026-07-12T18:14:22.000Z</time>
      </trkpt>
      <trkpt lat="43.27295" lon="-1.84522">
        <ele>238</ele>
        <time>2026-07-12T18:14:23.000Z</time>
      </trkpt>
      <trkpt lat="43.27292" lon="-1.84523">
        <ele>238</ele>
        <time>2026-07-12T18:14:24.000Z</time>
      </trkpt>
      <trkpt lat="43.27285" lon="-1.84524">
        <ele>240</ele>
        <time>2026-07-12T18:14:25.000Z</time>
      </trkpt>
      <trkpt lat="43.27274" lon="-1.84522">
        <ele>240</ele>
        <time>2026-07-12T18:14:27.000Z</time>
      </trkpt>
      <trkpt lat="43.27264" lon="-1.84517">
        <ele>240</ele>
        <time>2026-07-12T18:14:29.000Z</time>
      </trkpt>
      <trkpt lat="43.27253" lon="-1.84513">
        <ele>241</ele>
        <time>2026-07-12T18:14:31.000Z</time>
      </trkpt>
      <trkpt lat="43.27245" lon="-1.84512">
        <ele>241</ele>
        <time>2026-07-12T18:14:33.000Z</time>
      </trkpt>
      <trkpt lat="43.27241" lon="-1.84511">
        <ele>240</ele>
        <time>2026-07-12T18:14:33.000Z</time>
      </trkpt>
      <trkpt lat="43.27236" lon="-1.84511">
        <ele>240</ele>
        <time>2026-07-12T18:14:34.000Z</time>
      </trkpt>
      <trkpt lat="43.2723" lon="-1.84511">
        <ele>240</ele>
        <time>2026-07-12T18:14:35.000Z</time>
      </trkpt>
      <trkpt lat="43.27218" lon="-1.84512">
        <ele>241</ele>
        <time>2026-07-12T18:14:37.000Z</time>
      </trkpt>
      <trkpt lat="43.27205" lon="-1.84515">
        <ele>242</ele>
        <time>2026-07-12T18:14:40.000Z</time>
      </trkpt>
      <trkpt lat="43.27184" lon="-1.84519">
        <ele>243</ele>
        <time>2026-07-12T18:14:43.000Z</time>
      </trkpt>
      <trkpt lat="43.27176" lon="-1.84523">
        <ele>244</ele>
        <time>2026-07-12T18:14:45.000Z</time>
      </trkpt>
      <trkpt lat="43.27168" lon="-1.84526">
        <ele>245</ele>
        <time>2026-07-12T18:14:46.000Z</time>
      </trkpt>
      <trkpt lat="43.27157" lon="-1.84535">
        <ele>247</ele>
        <time>2026-07-12T18:14:49.000Z</time>
      </trkpt>
      <trkpt lat="43.27149" lon="-1.8454">
        <ele>248</ele>
        <time>2026-07-12T18:14:50.000Z</time>
      </trkpt>
      <trkpt lat="43.27142" lon="-1.84547">
        <ele>250</ele>
        <time>2026-07-12T18:14:52.000Z</time>
      </trkpt>
      <trkpt lat="43.27136" lon="-1.84559">
        <ele>253</ele>
        <time>2026-07-12T18:14:54.000Z</time>
      </trkpt>
      <trkpt lat="43.27129" lon="-1.84581">
        <ele>258</ele>
        <time>2026-07-12T18:14:57.000Z</time>
      </trkpt>
      <trkpt lat="43.27123" lon="-1.846">
        <ele>263</ele>
        <time>2026-07-12T18:14:59.000Z</time>
      </trkpt>
      <trkpt lat="43.27119" lon="-1.84612">
        <ele>266</ele>
        <time>2026-07-12T18:15:01.000Z</time>
      </trkpt>
      <trkpt lat="43.27114" lon="-1.84622">
        <ele>268</ele>
        <time>2026-07-12T18:15:03.000Z</time>
      </trkpt>
      <trkpt lat="43.27109" lon="-1.8463">
        <ele>270</ele>
        <time>2026-07-12T18:15:04.000Z</time>
      </trkpt>
      <trkpt lat="43.27104" lon="-1.84637">
        <ele>271</ele>
        <time>2026-07-12T18:15:05.000Z</time>
      </trkpt>
      <trkpt lat="43.27099" lon="-1.84642">
        <ele>272</ele>
        <time>2026-07-12T18:15:07.000Z</time>
      </trkpt>
      <trkpt lat="43.27094" lon="-1.84644">
        <ele>272</ele>
        <time>2026-07-12T18:15:07.000Z</time>
      </trkpt>
      <trkpt lat="43.27091" lon="-1.84644">
        <ele>272</ele>
        <time>2026-07-12T18:15:08.000Z</time>
      </trkpt>
      <trkpt lat="43.27083" lon="-1.84644">
        <ele>272</ele>
        <time>2026-07-12T18:15:09.000Z</time>
      </trkpt>
      <trkpt lat="43.27079" lon="-1.84642">
        <ele>273</ele>
        <time>2026-07-12T18:15:10.000Z</time>
      </trkpt>
      <trkpt lat="43.27073" lon="-1.84636">
        <ele>273</ele>
        <time>2026-07-12T18:15:11.000Z</time>
      </trkpt>
      <trkpt lat="43.27067" lon="-1.84628">
        <ele>273</ele>
        <time>2026-07-12T18:15:13.000Z</time>
      </trkpt>
      <trkpt lat="43.2706" lon="-1.84615">
        <ele>273</ele>
        <time>2026-07-12T18:15:15.000Z</time>
      </trkpt>
      <trkpt lat="43.27052" lon="-1.84599">
        <ele>272</ele>
        <time>2026-07-12T18:15:18.000Z</time>
      </trkpt>
      <trkpt lat="43.27043" lon="-1.84587">
        <ele>272</ele>
        <time>2026-07-12T18:15:20.000Z</time>
      </trkpt>
      <trkpt lat="43.27035" lon="-1.84574">
        <ele>273</ele>
        <time>2026-07-12T18:15:22.000Z</time>
      </trkpt>
      <trkpt lat="43.27029" lon="-1.84567">
        <ele>273</ele>
        <time>2026-07-12T18:15:23.000Z</time>
      </trkpt>
      <trkpt lat="43.27018" lon="-1.84543">
        <ele>273</ele>
        <time>2026-07-12T18:15:27.000Z</time>
      </trkpt>
      <trkpt lat="43.27007" lon="-1.8452">
        <ele>272</ele>
        <time>2026-07-12T18:15:31.000Z</time>
      </trkpt>
      <trkpt lat="43.27" lon="-1.84498">
        <ele>270</ele>
        <time>2026-07-12T18:15:34.000Z</time>
      </trkpt>
      <trkpt lat="43.26993" lon="-1.84477">
        <ele>264</ele>
        <time>2026-07-12T18:15:37.000Z</time>
      </trkpt>
      <trkpt lat="43.26989" lon="-1.84469">
        <ele>261</ele>
        <time>2026-07-12T18:15:38.000Z</time>
      </trkpt>
      <trkpt lat="43.26985" lon="-1.84459">
        <ele>258</ele>
        <time>2026-07-12T18:15:39.000Z</time>
      </trkpt>
      <trkpt lat="43.26982" lon="-1.84453">
        <ele>256</ele>
        <time>2026-07-12T18:15:40.000Z</time>
      </trkpt>
      <trkpt lat="43.26978" lon="-1.84449">
        <ele>255</ele>
        <time>2026-07-12T18:15:41.000Z</time>
      </trkpt>
      <trkpt lat="43.26971" lon="-1.84446">
        <ele>254</ele>
        <time>2026-07-12T18:15:43.000Z</time>
      </trkpt>
      <trkpt lat="43.2696" lon="-1.84444">
        <ele>252</ele>
        <time>2026-07-12T18:15:45.000Z</time>
      </trkpt>
      <trkpt lat="43.2695" lon="-1.84445">
        <ele>252</ele>
        <time>2026-07-12T18:15:46.000Z</time>
      </trkpt>
      <trkpt lat="43.26935" lon="-1.84451">
        <ele>253</ele>
        <time>2026-07-12T18:15:49.000Z</time>
      </trkpt>
      <trkpt lat="43.26924" lon="-1.84457">
        <ele>254</ele>
        <time>2026-07-12T18:15:51.000Z</time>
      </trkpt>
      <trkpt lat="43.26919" lon="-1.84461">
        <ele>255</ele>
        <time>2026-07-12T18:15:52.000Z</time>
      </trkpt>
      <trkpt lat="43.26909" lon="-1.84479">
        <ele>257</ele>
        <time>2026-07-12T18:15:55.000Z</time>
      </trkpt>
      <trkpt lat="43.26896" lon="-1.8452">
        <ele>262</ele>
        <time>2026-07-12T18:16:01.000Z</time>
      </trkpt>
      <trkpt lat="43.26893" lon="-1.8453">
        <ele>263</ele>
        <time>2026-07-12T18:16:02.000Z</time>
      </trkpt>
      <trkpt lat="43.2689" lon="-1.84541">
        <ele>264</ele>
        <time>2026-07-12T18:16:04.000Z</time>
      </trkpt>
      <trkpt lat="43.26885" lon="-1.84559">
        <ele>265</ele>
        <time>2026-07-12T18:16:06.000Z</time>
      </trkpt>
      <trkpt lat="43.26882" lon="-1.84577">
        <ele>267</ele>
        <time>2026-07-12T18:16:09.000Z</time>
      </trkpt>
      <trkpt lat="43.26878" lon="-1.84591">
        <ele>267</ele>
        <time>2026-07-12T18:16:11.000Z</time>
      </trkpt>
      <trkpt lat="43.26872" lon="-1.84617">
        <ele>267</ele>
        <time>2026-07-12T18:16:14.000Z</time>
      </trkpt>
      <trkpt lat="43.2687" lon="-1.84635">
        <ele>268</ele>
        <time>2026-07-12T18:16:17.000Z</time>
      </trkpt>
      <trkpt lat="43.26869" lon="-1.84655">
        <ele>269</ele>
        <time>2026-07-12T18:16:19.000Z</time>
      </trkpt>
      <trkpt lat="43.2687" lon="-1.8476">
        <ele>284</ele>
        <time>2026-07-12T18:16:33.000Z</time>
      </trkpt>
      <trkpt lat="43.26869" lon="-1.84789">
        <ele>289</ele>
        <time>2026-07-12T18:16:37.000Z</time>
      </trkpt>
      <trkpt lat="43.26868" lon="-1.84802">
        <ele>291</ele>
        <time>2026-07-12T18:16:38.000Z</time>
      </trkpt>
      <trkpt lat="43.26866" lon="-1.84813">
        <ele>292</ele>
        <time>2026-07-12T18:16:40.000Z</time>
      </trkpt>
      <trkpt lat="43.26864" lon="-1.84825">
        <ele>293</ele>
        <time>2026-07-12T18:16:41.000Z</time>
      </trkpt>
      <trkpt lat="43.26861" lon="-1.84842">
        <ele>294</ele>
        <time>2026-07-12T18:16:44.000Z</time>
      </trkpt>
      <trkpt lat="43.26856" lon="-1.84862">
        <ele>294</ele>
        <time>2026-07-12T18:16:46.000Z</time>
      </trkpt>
      <trkpt lat="43.26855" lon="-1.84871">
        <ele>294</ele>
        <time>2026-07-12T18:16:48.000Z</time>
      </trkpt>
      <trkpt lat="43.26853" lon="-1.84882">
        <ele>294</ele>
        <time>2026-07-12T18:16:49.000Z</time>
      </trkpt>
      <trkpt lat="43.26852" lon="-1.8489">
        <ele>294</ele>
        <time>2026-07-12T18:16:50.000Z</time>
      </trkpt>
      <trkpt lat="43.26851" lon="-1.84906">
        <ele>295</ele>
        <time>2026-07-12T18:16:52.000Z</time>
      </trkpt>
      <trkpt lat="43.26852" lon="-1.84914">
        <ele>296</ele>
        <time>2026-07-12T18:16:53.000Z</time>
      </trkpt>
      <trkpt lat="43.26853" lon="-1.84921">
        <ele>296</ele>
        <time>2026-07-12T18:16:54.000Z</time>
      </trkpt>
      <trkpt lat="43.26857" lon="-1.84929">
        <ele>297</ele>
        <time>2026-07-12T18:16:55.000Z</time>
      </trkpt>
      <trkpt lat="43.26861" lon="-1.84936">
        <ele>298</ele>
        <time>2026-07-12T18:16:57.000Z</time>
      </trkpt>
      <trkpt lat="43.2687" lon="-1.84953">
        <ele>300</ele>
        <time>2026-07-12T18:16:59.000Z</time>
      </trkpt>
      <trkpt lat="43.26875" lon="-1.84963">
        <ele>300</ele>
        <time>2026-07-12T18:17:01.000Z</time>
      </trkpt>
      <trkpt lat="43.26877" lon="-1.8497">
        <ele>300</ele>
        <time>2026-07-12T18:17:02.000Z</time>
      </trkpt>
      <trkpt lat="43.26877" lon="-1.84977">
        <ele>300</ele>
        <time>2026-07-12T18:17:03.000Z</time>
      </trkpt>
      <trkpt lat="43.26875" lon="-1.84983">
        <ele>300</ele>
        <time>2026-07-12T18:17:04.000Z</time>
      </trkpt>
      <trkpt lat="43.26872" lon="-1.84989">
        <ele>300</ele>
        <time>2026-07-12T18:17:05.000Z</time>
      </trkpt>
      <trkpt lat="43.26867" lon="-1.84994">
        <ele>300</ele>
        <time>2026-07-12T18:17:06.000Z</time>
      </trkpt>
      <trkpt lat="43.26862" lon="-1.84996">
        <ele>300</ele>
        <time>2026-07-12T18:17:07.000Z</time>
      </trkpt>
      <trkpt lat="43.26857" lon="-1.84996">
        <ele>299</ele>
        <time>2026-07-12T18:17:07.000Z</time>
      </trkpt>
      <trkpt lat="43.26846" lon="-1.84992">
        <ele>299</ele>
        <time>2026-07-12T18:17:09.000Z</time>
      </trkpt>
      <trkpt lat="43.26828" lon="-1.8498">
        <ele>298</ele>
        <time>2026-07-12T18:17:13.000Z</time>
      </trkpt>
      <trkpt lat="43.26814" lon="-1.84969">
        <ele>300</ele>
        <time>2026-07-12T18:17:16.000Z</time>
      </trkpt>
      <trkpt lat="43.26801" lon="-1.84953">
        <ele>302</ele>
        <time>2026-07-12T18:17:19.000Z</time>
      </trkpt>
      <trkpt lat="43.26796" lon="-1.84947">
        <ele>302</ele>
        <time>2026-07-12T18:17:20.000Z</time>
      </trkpt>
      <trkpt lat="43.26793" lon="-1.84942">
        <ele>303</ele>
        <time>2026-07-12T18:17:21.000Z</time>
      </trkpt>
      <trkpt lat="43.26789" lon="-1.84932">
        <ele>304</ele>
        <time>2026-07-12T18:17:23.000Z</time>
      </trkpt>
      <trkpt lat="43.26787" lon="-1.84925">
        <ele>304</ele>
        <time>2026-07-12T18:17:23.000Z</time>
      </trkpt>
      <trkpt lat="43.26783" lon="-1.84909">
        <ele>304</ele>
        <time>2026-07-12T18:17:26.000Z</time>
      </trkpt>
      <trkpt lat="43.2678" lon="-1.84901">
        <ele>304</ele>
        <time>2026-07-12T18:17:27.000Z</time>
      </trkpt>
      <trkpt lat="43.26773" lon="-1.84887">
        <ele>303</ele>
        <time>2026-07-12T18:17:29.000Z</time>
      </trkpt>
      <trkpt lat="43.26765" lon="-1.84876">
        <ele>303</ele>
        <time>2026-07-12T18:17:31.000Z</time>
      </trkpt>
      <trkpt lat="43.26753" lon="-1.84863">
        <ele>303</ele>
        <time>2026-07-12T18:17:34.000Z</time>
      </trkpt>
      <trkpt lat="43.26745" lon="-1.84857">
        <ele>304</ele>
        <time>2026-07-12T18:17:35.000Z</time>
      </trkpt>
      <trkpt lat="43.26735" lon="-1.84849">
        <ele>305</ele>
        <time>2026-07-12T18:17:37.000Z</time>
      </trkpt>
      <trkpt lat="43.26725" lon="-1.84846">
        <ele>307</ele>
        <time>2026-07-12T18:17:39.000Z</time>
      </trkpt>
      <trkpt lat="43.26717" lon="-1.84844">
        <ele>309</ele>
        <time>2026-07-12T18:17:41.000Z</time>
      </trkpt>
      <trkpt lat="43.26711" lon="-1.84844">
        <ele>311</ele>
        <time>2026-07-12T18:17:42.000Z</time>
      </trkpt>
      <trkpt lat="43.26702" lon="-1.84844">
        <ele>313</ele>
        <time>2026-07-12T18:17:43.000Z</time>
      </trkpt>
      <trkpt lat="43.26692" lon="-1.84844">
        <ele>316</ele>
        <time>2026-07-12T18:17:45.000Z</time>
      </trkpt>
      <trkpt lat="43.26686" lon="-1.84844">
        <ele>317</ele>
        <time>2026-07-12T18:17:46.000Z</time>
      </trkpt>
      <trkpt lat="43.2668" lon="-1.84844">
        <ele>319</ele>
        <time>2026-07-12T18:17:47.000Z</time>
      </trkpt>
      <trkpt lat="43.2667" lon="-1.84842">
        <ele>321</ele>
        <time>2026-07-12T18:17:49.000Z</time>
      </trkpt>
      <trkpt lat="43.26656" lon="-1.84836">
        <ele>324</ele>
        <time>2026-07-12T18:17:52.000Z</time>
      </trkpt>
      <trkpt lat="43.26646" lon="-1.84826">
        <ele>323</ele>
        <time>2026-07-12T18:17:54.000Z</time>
      </trkpt>
      <trkpt lat="43.26636" lon="-1.84812">
        <ele>322</ele>
        <time>2026-07-12T18:17:56.000Z</time>
      </trkpt>
      <trkpt lat="43.26628" lon="-1.84798">
        <ele>320</ele>
        <time>2026-07-12T18:17:59.000Z</time>
      </trkpt>
      <trkpt lat="43.2662" lon="-1.84779">
        <ele>318</ele>
        <time>2026-07-12T18:18:02.000Z</time>
      </trkpt>
      <trkpt lat="43.26615" lon="-1.84762">
        <ele>315</ele>
        <time>2026-07-12T18:18:04.000Z</time>
      </trkpt>
      <trkpt lat="43.2661" lon="-1.84752">
        <ele>314</ele>
        <time>2026-07-12T18:18:06.000Z</time>
      </trkpt>
      <trkpt lat="43.26605" lon="-1.84744">
        <ele>313</ele>
        <time>2026-07-12T18:18:07.000Z</time>
      </trkpt>
      <trkpt lat="43.26601" lon="-1.84741">
        <ele>314</ele>
        <time>2026-07-12T18:18:08.000Z</time>
      </trkpt>
      <trkpt lat="43.26598" lon="-1.8474">
        <ele>314</ele>
        <time>2026-07-12T18:18:08.000Z</time>
      </trkpt>
      <trkpt lat="43.26594" lon="-1.8474">
        <ele>315</ele>
        <time>2026-07-12T18:18:09.000Z</time>
      </trkpt>
      <trkpt lat="43.2659" lon="-1.84741">
        <ele>317</ele>
        <time>2026-07-12T18:18:10.000Z</time>
      </trkpt>
      <trkpt lat="43.26587" lon="-1.84743">
        <ele>318</ele>
        <time>2026-07-12T18:18:10.000Z</time>
      </trkpt>
      <trkpt lat="43.26578" lon="-1.8475">
        <ele>321</ele>
        <time>2026-07-12T18:18:12.000Z</time>
      </trkpt>
      <trkpt lat="43.26562" lon="-1.84764">
        <ele>324</ele>
        <time>2026-07-12T18:18:16.000Z</time>
      </trkpt>
      <trkpt lat="43.26556" lon="-1.84768">
        <ele>325</ele>
        <time>2026-07-12T18:18:17.000Z</time>
      </trkpt>
      <trkpt lat="43.26547" lon="-1.84775">
        <ele>326</ele>
        <time>2026-07-12T18:18:19.000Z</time>
      </trkpt>
      <trkpt lat="43.2654" lon="-1.84779">
        <ele>327</ele>
        <time>2026-07-12T18:18:20.000Z</time>
      </trkpt>
      <trkpt lat="43.26525" lon="-1.84787">
        <ele>330</ele>
        <time>2026-07-12T18:18:23.000Z</time>
      </trkpt>
      <trkpt lat="43.265" lon="-1.84795">
        <ele>332</ele>
        <time>2026-07-12T18:18:27.000Z</time>
      </trkpt>
      <trkpt lat="43.26476" lon="-1.84801">
        <ele>336</ele>
        <time>2026-07-12T18:18:32.000Z</time>
      </trkpt>
      <trkpt lat="43.26464" lon="-1.84804">
        <ele>338</ele>
        <time>2026-07-12T18:18:34.000Z</time>
      </trkpt>
      <trkpt lat="43.26457" lon="-1.84806">
        <ele>339</ele>
        <time>2026-07-12T18:18:35.000Z</time>
      </trkpt>
      <trkpt lat="43.26453" lon="-1.84807">
        <ele>339</ele>
        <time>2026-07-12T18:18:36.000Z</time>
      </trkpt>
      <trkpt lat="43.26435" lon="-1.84809">
        <ele>341</ele>
        <time>2026-07-12T18:18:39.000Z</time>
      </trkpt>
      <trkpt lat="43.26424" lon="-1.8481">
        <ele>341</ele>
        <time>2026-07-12T18:18:41.000Z</time>
      </trkpt>
      <trkpt lat="43.26411" lon="-1.84811">
        <ele>344</ele>
        <time>2026-07-12T18:18:43.000Z</time>
      </trkpt>
      <trkpt lat="43.26403" lon="-1.84811">
        <ele>346</ele>
        <time>2026-07-12T18:18:45.000Z</time>
      </trkpt>
      <trkpt lat="43.26394" lon="-1.8481">
        <ele>349</ele>
        <time>2026-07-12T18:18:46.000Z</time>
      </trkpt>
      <trkpt lat="43.26388" lon="-1.84805">
        <ele>350</ele>
        <time>2026-07-12T18:18:48.000Z</time>
      </trkpt>
      <trkpt lat="43.26384" lon="-1.848">
        <ele>350</ele>
        <time>2026-07-12T18:18:49.000Z</time>
      </trkpt>
      <trkpt lat="43.26381" lon="-1.84794">
        <ele>350</ele>
        <time>2026-07-12T18:18:50.000Z</time>
      </trkpt>
      <trkpt lat="43.26378" lon="-1.84784">
        <ele>350</ele>
        <time>2026-07-12T18:18:51.000Z</time>
      </trkpt>
      <trkpt lat="43.26376" lon="-1.84765">
        <ele>348</ele>
        <time>2026-07-12T18:18:53.000Z</time>
      </trkpt>
      <trkpt lat="43.2637" lon="-1.84721">
        <ele>341</ele>
        <time>2026-07-12T18:18:59.000Z</time>
      </trkpt>
      <trkpt lat="43.26367" lon="-1.84709">
        <ele>340</ele>
        <time>2026-07-12T18:19:01.000Z</time>
      </trkpt>
      <trkpt lat="43.26365" lon="-1.84701">
        <ele>339</ele>
        <time>2026-07-12T18:19:02.000Z</time>
      </trkpt>
      <trkpt lat="43.26363" lon="-1.84694">
        <ele>338</ele>
        <time>2026-07-12T18:19:03.000Z</time>
      </trkpt>
      <trkpt lat="43.26356" lon="-1.84686">
        <ele>338</ele>
        <time>2026-07-12T18:19:05.000Z</time>
      </trkpt>
      <trkpt lat="43.26345" lon="-1.84676">
        <ele>339</ele>
        <time>2026-07-12T18:19:07.000Z</time>
      </trkpt>
      <trkpt lat="43.26335" lon="-1.84671">
        <ele>340</ele>
        <time>2026-07-12T18:19:09.000Z</time>
      </trkpt>
      <trkpt lat="43.26321" lon="-1.84666">
        <ele>338</ele>
        <time>2026-07-12T18:19:11.000Z</time>
      </trkpt>
      <trkpt lat="43.26309" lon="-1.84665">
        <ele>337</ele>
        <time>2026-07-12T18:19:13.000Z</time>
      </trkpt>
      <trkpt lat="43.26298" lon="-1.84665">
        <ele>336</ele>
        <time>2026-07-12T18:19:15.000Z</time>
      </trkpt>
      <trkpt lat="43.26289" lon="-1.84668">
        <ele>337</ele>
        <time>2026-07-12T18:19:17.000Z</time>
      </trkpt>
      <trkpt lat="43.2628" lon="-1.84672">
        <ele>337</ele>
        <time>2026-07-12T18:19:19.000Z</time>
      </trkpt>
      <trkpt lat="43.26273" lon="-1.84678">
        <ele>338</ele>
        <time>2026-07-12T18:19:20.000Z</time>
      </trkpt>
      <trkpt lat="43.26266" lon="-1.8469">
        <ele>341</ele>
        <time>2026-07-12T18:19:22.000Z</time>
      </trkpt>
      <trkpt lat="43.26261" lon="-1.84703">
        <ele>345</ele>
        <time>2026-07-12T18:19:24.000Z</time>
      </trkpt>
      <trkpt lat="43.26255" lon="-1.84722">
        <ele>349</ele>
        <time>2026-07-12T18:19:27.000Z</time>
      </trkpt>
      <trkpt lat="43.26249" lon="-1.84745">
        <ele>355</ele>
        <time>2026-07-12T18:19:30.000Z</time>
      </trkpt>
      <trkpt lat="43.26243" lon="-1.84764">
        <ele>358</ele>
        <time>2026-07-12T18:19:33.000Z</time>
      </trkpt>
      <trkpt lat="43.26234" lon="-1.84777">
        <ele>359</ele>
        <time>2026-07-12T18:19:35.000Z</time>
      </trkpt>
      <trkpt lat="43.26223" lon="-1.84789">
        <ele>359</ele>
        <time>2026-07-12T18:19:38.000Z</time>
      </trkpt>
      <trkpt lat="43.26207" lon="-1.84806">
        <ele>359</ele>
        <time>2026-07-12T18:19:41.000Z</time>
      </trkpt>
      <trkpt lat="43.26196" lon="-1.84821">
        <ele>361</ele>
        <time>2026-07-12T18:19:44.000Z</time>
      </trkpt>
      <trkpt lat="43.26183" lon="-1.84843">
        <ele>364</ele>
        <time>2026-07-12T18:19:48.000Z</time>
      </trkpt>
      <trkpt lat="43.26174" lon="-1.84857">
        <ele>366</ele>
        <time>2026-07-12T18:19:50.000Z</time>
      </trkpt>
      <trkpt lat="43.26163" lon="-1.84867">
        <ele>367</ele>
        <time>2026-07-12T18:19:52.000Z</time>
      </trkpt>
      <trkpt lat="43.26153" lon="-1.84874">
        <ele>367</ele>
        <time>2026-07-12T18:19:54.000Z</time>
      </trkpt>
      <trkpt lat="43.26146" lon="-1.84878">
        <ele>368</ele>
        <time>2026-07-12T18:19:56.000Z</time>
      </trkpt>
      <trkpt lat="43.2614" lon="-1.84879">
        <ele>367</ele>
        <time>2026-07-12T18:19:57.000Z</time>
      </trkpt>
      <trkpt lat="43.26132" lon="-1.84877">
        <ele>365</ele>
        <time>2026-07-12T18:19:58.000Z</time>
      </trkpt>
      <trkpt lat="43.26126" lon="-1.84875">
        <ele>364</ele>
        <time>2026-07-12T18:19:59.000Z</time>
      </trkpt>
      <trkpt lat="43.26118" lon="-1.84875">
        <ele>363</ele>
        <time>2026-07-12T18:20:01.000Z</time>
      </trkpt>
      <trkpt lat="43.26111" lon="-1.84877">
        <ele>362</ele>
        <time>2026-07-12T18:20:02.000Z</time>
      </trkpt>
      <trkpt lat="43.26102" lon="-1.84884">
        <ele>364</ele>
        <time>2026-07-12T18:20:04.000Z</time>
      </trkpt>
      <trkpt lat="43.26092" lon="-1.84892">
        <ele>365</ele>
        <time>2026-07-12T18:20:06.000Z</time>
      </trkpt>
      <trkpt lat="43.26078" lon="-1.84901">
        <ele>367</ele>
        <time>2026-07-12T18:20:09.000Z</time>
      </trkpt>
      <trkpt lat="43.26066" lon="-1.84908">
        <ele>370</ele>
        <time>2026-07-12T18:20:11.000Z</time>
      </trkpt>
      <trkpt lat="43.26057" lon="-1.84911">
        <ele>371</ele>
        <time>2026-07-12T18:20:13.000Z</time>
      </trkpt>
      <trkpt lat="43.26046" lon="-1.84913">
        <ele>372</ele>
        <time>2026-07-12T18:20:15.000Z</time>
      </trkpt>
      <trkpt lat="43.2603" lon="-1.84916">
        <ele>373</ele>
        <time>2026-07-12T18:20:17.000Z</time>
      </trkpt>
      <trkpt lat="43.2602" lon="-1.8492">
        <ele>374</ele>
        <time>2026-07-12T18:20:19.000Z</time>
      </trkpt>
      <trkpt lat="43.26013" lon="-1.84926">
        <ele>375</ele>
        <time>2026-07-12T18:20:21.000Z</time>
      </trkpt>
      <trkpt lat="43.26002" lon="-1.84936">
        <ele>378</ele>
        <time>2026-07-12T18:20:23.000Z</time>
      </trkpt>
      <trkpt lat="43.25993" lon="-1.84943">
        <ele>379</ele>
        <time>2026-07-12T18:20:25.000Z</time>
      </trkpt>
      <trkpt lat="43.25982" lon="-1.84945">
        <ele>380</ele>
        <time>2026-07-12T18:20:27.000Z</time>
      </trkpt>
      <trkpt lat="43.25956" lon="-1.8494">
        <ele>378</ele>
        <time>2026-07-12T18:20:32.000Z</time>
      </trkpt>
      <trkpt lat="43.25947" lon="-1.84942">
        <ele>379</ele>
        <time>2026-07-12T18:20:33.000Z</time>
      </trkpt>
      <trkpt lat="43.25936" lon="-1.84947">
        <ele>381</ele>
        <time>2026-07-12T18:20:35.000Z</time>
      </trkpt>
      <trkpt lat="43.2593" lon="-1.8495">
        <ele>382</ele>
        <time>2026-07-12T18:20:36.000Z</time>
      </trkpt>
      <trkpt lat="43.25914" lon="-1.84963">
        <ele>386</ele>
        <time>2026-07-12T18:20:40.000Z</time>
      </trkpt>
      <trkpt lat="43.25896" lon="-1.84977">
        <ele>390</ele>
        <time>2026-07-12T18:20:43.000Z</time>
      </trkpt>
      <trkpt lat="43.25876" lon="-1.84988">
        <ele>393</ele>
        <time>2026-07-12T18:20:47.000Z</time>
      </trkpt>
      <trkpt lat="43.25862" lon="-1.84996">
        <ele>395</ele>
        <time>2026-07-12T18:20:50.000Z</time>
      </trkpt>
      <trkpt lat="43.25849" lon="-1.84998">
        <ele>395</ele>
        <time>2026-07-12T18:20:52.000Z</time>
      </trkpt>
      <trkpt lat="43.25839" lon="-1.84997">
        <ele>394</ele>
        <time>2026-07-12T18:20:54.000Z</time>
      </trkpt>
      <trkpt lat="43.2583" lon="-1.84998">
        <ele>394</ele>
        <time>2026-07-12T18:20:56.000Z</time>
      </trkpt>
      <trkpt lat="43.25817" lon="-1.85003">
        <ele>398</ele>
        <time>2026-07-12T18:20:58.000Z</time>
      </trkpt>
      <trkpt lat="43.25811" lon="-1.85006">
        <ele>399</ele>
        <time>2026-07-12T18:20:59.000Z</time>
      </trkpt>
      <trkpt lat="43.25806" lon="-1.85007">
        <ele>400</ele>
        <time>2026-07-12T18:21:00.000Z</time>
      </trkpt>
      <trkpt lat="43.25801" lon="-1.85008">
        <ele>401</ele>
        <time>2026-07-12T18:21:01.000Z</time>
      </trkpt>
      <trkpt lat="43.25793" lon="-1.85007">
        <ele>402</ele>
        <time>2026-07-12T18:21:02.000Z</time>
      </trkpt>
      <trkpt lat="43.25789" lon="-1.85007">
        <ele>402</ele>
        <time>2026-07-12T18:21:03.000Z</time>
      </trkpt>
      <trkpt lat="43.25786" lon="-1.85006">
        <ele>403</ele>
        <time>2026-07-12T18:21:04.000Z</time>
      </trkpt>
      <trkpt lat="43.25777" lon="-1.84999">
        <ele>402</ele>
        <time>2026-07-12T18:21:06.000Z</time>
      </trkpt>
      <trkpt lat="43.25768" lon="-1.84993">
        <ele>400</ele>
        <time>2026-07-12T18:21:07.000Z</time>
      </trkpt>
      <trkpt lat="43.25765" lon="-1.84992">
        <ele>400</ele>
        <time>2026-07-12T18:21:08.000Z</time>
      </trkpt>
      <trkpt lat="43.2576" lon="-1.84991">
        <ele>400</ele>
        <time>2026-07-12T18:21:09.000Z</time>
      </trkpt>
      <trkpt lat="43.25755" lon="-1.84992">
        <ele>401</ele>
        <time>2026-07-12T18:21:10.000Z</time>
      </trkpt>
      <trkpt lat="43.2575" lon="-1.84992">
        <ele>402</ele>
        <time>2026-07-12T18:21:11.000Z</time>
      </trkpt>
      <trkpt lat="43.25736" lon="-1.84998">
        <ele>407</ele>
        <time>2026-07-12T18:21:13.000Z</time>
      </trkpt>
      <trkpt lat="43.25719" lon="-1.84999">
        <ele>411</ele>
        <time>2026-07-12T18:21:16.000Z</time>
      </trkpt>
      <trkpt lat="43.25709" lon="-1.84996">
        <ele>411</ele>
        <time>2026-07-12T18:21:18.000Z</time>
      </trkpt>
      <trkpt lat="43.25699" lon="-1.84991">
        <ele>411</ele>
        <time>2026-07-12T18:21:20.000Z</time>
      </trkpt>
      <trkpt lat="43.25691" lon="-1.84988">
        <ele>411</ele>
        <time>2026-07-12T18:21:21.000Z</time>
      </trkpt>
      <trkpt lat="43.25663" lon="-1.84989">
        <ele>416</ele>
        <time>2026-07-12T18:21:26.000Z</time>
      </trkpt>
      <trkpt lat="43.25657" lon="-1.84989">
        <ele>417</ele>
        <time>2026-07-12T18:21:27.000Z</time>
      </trkpt>
      <trkpt lat="43.25648" lon="-1.84983">
        <ele>417</ele>
        <time>2026-07-12T18:21:29.000Z</time>
      </trkpt>
      <trkpt lat="43.25639" lon="-1.84973">
        <ele>415</ele>
        <time>2026-07-12T18:21:31.000Z</time>
      </trkpt>
      <trkpt lat="43.25633" lon="-1.84963">
        <ele>412</ele>
        <time>2026-07-12T18:21:33.000Z</time>
      </trkpt>
      <trkpt lat="43.25629" lon="-1.84949">
        <ele>408</ele>
        <time>2026-07-12T18:21:35.000Z</time>
      </trkpt>
      <trkpt lat="43.2562" lon="-1.84924">
        <ele>400</ele>
        <time>2026-07-12T18:21:38.000Z</time>
      </trkpt>
      <trkpt lat="43.25618" lon="-1.84921">
        <ele>400</ele>
        <time>2026-07-12T18:21:39.000Z</time>
      </trkpt>
      <trkpt lat="43.25615" lon="-1.84919">
        <ele>399</ele>
        <time>2026-07-12T18:21:40.000Z</time>
      </trkpt>
      <trkpt lat="43.25613" lon="-1.84918">
        <ele>399</ele>
        <time>2026-07-12T18:21:40.000Z</time>
      </trkpt>
      <trkpt lat="43.25609" lon="-1.84917">
        <ele>400</ele>
        <time>2026-07-12T18:21:41.000Z</time>
      </trkpt>
      <trkpt lat="43.25606" lon="-1.84918">
        <ele>401</ele>
        <time>2026-07-12T18:21:41.000Z</time>
      </trkpt>
      <trkpt lat="43.256" lon="-1.8492">
        <ele>403</ele>
        <time>2026-07-12T18:21:42.000Z</time>
      </trkpt>
      <trkpt lat="43.25596" lon="-1.84922">
        <ele>404</ele>
        <time>2026-07-12T18:21:43.000Z</time>
      </trkpt>
      <trkpt lat="43.2559" lon="-1.84927">
        <ele>407</ele>
        <time>2026-07-12T18:21:44.000Z</time>
      </trkpt>
      <trkpt lat="43.25578" lon="-1.84944">
        <ele>414</ele>
        <time>2026-07-12T18:21:47.000Z</time>
      </trkpt>
      <trkpt lat="43.25573" lon="-1.84951">
        <ele>416</ele>
        <time>2026-07-12T18:21:49.000Z</time>
      </trkpt>
      <trkpt lat="43.25567" lon="-1.84958">
        <ele>419</ele>
        <time>2026-07-12T18:21:50.000Z</time>
      </trkpt>
      <trkpt lat="43.25553" lon="-1.84977">
        <ele>426</ele>
        <time>2026-07-12T18:21:54.000Z</time>
      </trkpt>
      <trkpt lat="43.25542" lon="-1.84987">
        <ele>429</ele>
        <time>2026-07-12T18:21:56.000Z</time>
      </trkpt>
      <trkpt lat="43.25537" lon="-1.84988">
        <ele>430</ele>
        <time>2026-07-12T18:21:57.000Z</time>
      </trkpt>
      <trkpt lat="43.25527" lon="-1.84986">
        <ele>429</ele>
        <time>2026-07-12T18:21:59.000Z</time>
      </trkpt>
      <trkpt lat="43.25518" lon="-1.84982">
        <ele>427</ele>
        <time>2026-07-12T18:22:00.000Z</time>
      </trkpt>
      <trkpt lat="43.25514" lon="-1.84979">
        <ele>426</ele>
        <time>2026-07-12T18:22:01.000Z</time>
      </trkpt>
      <trkpt lat="43.25504" lon="-1.84972">
        <ele>423</ele>
        <time>2026-07-12T18:22:03.000Z</time>
      </trkpt>
      <trkpt lat="43.25494" lon="-1.84967">
        <ele>420</ele>
        <time>2026-07-12T18:22:05.000Z</time>
      </trkpt>
      <trkpt lat="43.25487" lon="-1.84966">
        <ele>420</ele>
        <time>2026-07-12T18:22:06.000Z</time>
      </trkpt>
      <trkpt lat="43.25479" lon="-1.84966">
        <ele>420</ele>
        <time>2026-07-12T18:22:08.000Z</time>
      </trkpt>
      <trkpt lat="43.25461" lon="-1.84969">
        <ele>421</ele>
        <time>2026-07-12T18:22:11.000Z</time>
      </trkpt>
      <trkpt lat="43.25442" lon="-1.84977">
        <ele>424</ele>
        <time>2026-07-12T18:22:14.000Z</time>
      </trkpt>
      <trkpt lat="43.25421" lon="-1.84991">
        <ele>429</ele>
        <time>2026-07-12T18:22:19.000Z</time>
      </trkpt>
      <trkpt lat="43.2541" lon="-1.85">
        <ele>434</ele>
        <time>2026-07-12T18:22:21.000Z</time>
      </trkpt>
      <trkpt lat="43.2539" lon="-1.85017">
        <ele>441</ele>
        <time>2026-07-12T18:22:25.000Z</time>
      </trkpt>
      <trkpt lat="43.25378" lon="-1.85026">
        <ele>445</ele>
        <time>2026-07-12T18:22:28.000Z</time>
      </trkpt>
      <trkpt lat="43.25369" lon="-1.85028">
        <ele>446</ele>
        <time>2026-07-12T18:22:29.000Z</time>
      </trkpt>
      <trkpt lat="43.25363" lon="-1.85026">
        <ele>446</ele>
        <time>2026-07-12T18:22:30.000Z</time>
      </trkpt>
      <trkpt lat="43.25359" lon="-1.85021">
        <ele>446</ele>
        <time>2026-07-12T18:22:31.000Z</time>
      </trkpt>
      <trkpt lat="43.25343" lon="-1.84997">
        <ele>443</ele>
        <time>2026-07-12T18:22:35.000Z</time>
      </trkpt>
      <trkpt lat="43.25332" lon="-1.84986">
        <ele>440</ele>
        <time>2026-07-12T18:22:38.000Z</time>
      </trkpt>
      <trkpt lat="43.25323" lon="-1.84979">
        <ele>440</ele>
        <time>2026-07-12T18:22:40.000Z</time>
      </trkpt>
      <trkpt lat="43.2532" lon="-1.84977">
        <ele>441</ele>
        <time>2026-07-12T18:22:40.000Z</time>
      </trkpt>
      <trkpt lat="43.25313" lon="-1.84977">
        <ele>443</ele>
        <time>2026-07-12T18:22:42.000Z</time>
      </trkpt>
      <trkpt lat="43.25297" lon="-1.84978">
        <ele>448</ele>
        <time>2026-07-12T18:22:44.000Z</time>
      </trkpt>
      <trkpt lat="43.25286" lon="-1.84979">
        <ele>451</ele>
        <time>2026-07-12T18:22:46.000Z</time>
      </trkpt>
      <trkpt lat="43.25281" lon="-1.84977">
        <ele>452</ele>
        <time>2026-07-12T18:22:47.000Z</time>
      </trkpt>
      <trkpt lat="43.25274" lon="-1.84974">
        <ele>454</ele>
        <time>2026-07-12T18:22:49.000Z</time>
      </trkpt>
      <trkpt lat="43.2527" lon="-1.84968">
        <ele>454</ele>
        <time>2026-07-12T18:22:50.000Z</time>
      </trkpt>
      <trkpt lat="43.25265" lon="-1.84924">
        <ele>448</ele>
        <time>2026-07-12T18:22:55.000Z</time>
      </trkpt>
      <trkpt lat="43.25264" lon="-1.84921">
        <ele>447</ele>
        <time>2026-07-12T18:22:56.000Z</time>
      </trkpt>
      <trkpt lat="43.25262" lon="-1.84917">
        <ele>448</ele>
        <time>2026-07-12T18:22:56.000Z</time>
      </trkpt>
      <trkpt lat="43.25254" lon="-1.84911">
        <ele>450</ele>
        <time>2026-07-12T18:22:58.000Z</time>
      </trkpt>
      <trkpt lat="43.25248" lon="-1.84907">
        <ele>451</ele>
        <time>2026-07-12T18:22:59.000Z</time>
      </trkpt>
      <trkpt lat="43.25238" lon="-1.84903">
        <ele>452</ele>
        <time>2026-07-12T18:23:01.000Z</time>
      </trkpt>
      <trkpt lat="43.25227" lon="-1.84901">
        <ele>453</ele>
        <time>2026-07-12T18:23:03.000Z</time>
      </trkpt>
      <trkpt lat="43.25207" lon="-1.84902">
        <ele>458</ele>
        <time>2026-07-12T18:23:07.000Z</time>
      </trkpt>
      <trkpt lat="43.25185" lon="-1.84905">
        <ele>463</ele>
        <time>2026-07-12T18:23:11.000Z</time>
      </trkpt>
      <trkpt lat="43.25165" lon="-1.8491">
        <ele>468</ele>
        <time>2026-07-12T18:23:14.000Z</time>
      </trkpt>
      <trkpt lat="43.25157" lon="-1.8491">
        <ele>470</ele>
        <time>2026-07-12T18:23:16.000Z</time>
      </trkpt>
      <trkpt lat="43.25152" lon="-1.8491">
        <ele>471</ele>
        <time>2026-07-12T18:23:17.000Z</time>
      </trkpt>
      <trkpt lat="43.25148" lon="-1.84908">
        <ele>472</ele>
        <time>2026-07-12T18:23:17.000Z</time>
      </trkpt>
      <trkpt lat="43.25145" lon="-1.84904">
        <ele>472</ele>
        <time>2026-07-12T18:23:18.000Z</time>
      </trkpt>
      <trkpt lat="43.25142" lon="-1.84897">
        <ele>472</ele>
        <time>2026-07-12T18:23:19.000Z</time>
      </trkpt>
      <trkpt lat="43.2514" lon="-1.84889">
        <ele>471</ele>
        <time>2026-07-12T18:23:20.000Z</time>
      </trkpt>
      <trkpt lat="43.25142" lon="-1.84878">
        <ele>469</ele>
        <time>2026-07-12T18:23:22.000Z</time>
      </trkpt>
      <trkpt lat="43.25147" lon="-1.84868">
        <ele>467</ele>
        <time>2026-07-12T18:23:23.000Z</time>
      </trkpt>
      <trkpt lat="43.25149" lon="-1.84861">
        <ele>465</ele>
        <time>2026-07-12T18:23:24.000Z</time>
      </trkpt>
      <trkpt lat="43.25148" lon="-1.84852">
        <ele>464</ele>
        <time>2026-07-12T18:23:25.000Z</time>
      </trkpt>
      <trkpt lat="43.25146" lon="-1.84844">
        <ele>463</ele>
        <time>2026-07-12T18:23:26.000Z</time>
      </trkpt>
      <trkpt lat="43.25143" lon="-1.84833">
        <ele>463</ele>
        <time>2026-07-12T18:23:28.000Z</time>
      </trkpt>
      <trkpt lat="43.25143" lon="-1.84818">
        <ele>465</ele>
        <time>2026-07-12T18:23:30.000Z</time>
      </trkpt>
      <trkpt lat="43.25144" lon="-1.84808">
        <ele>466</ele>
        <time>2026-07-12T18:23:31.000Z</time>
      </trkpt>
      <trkpt lat="43.25148" lon="-1.84799">
        <ele>465</ele>
        <time>2026-07-12T18:23:33.000Z</time>
      </trkpt>
      <trkpt lat="43.25151" lon="-1.84794">
        <ele>465</ele>
        <time>2026-07-12T18:23:33.000Z</time>
      </trkpt>
      <trkpt lat="43.25165" lon="-1.84782">
        <ele>462</ele>
        <time>2026-07-12T18:23:36.000Z</time>
      </trkpt>
      <trkpt lat="43.2518" lon="-1.84772">
        <ele>459</ele>
        <time>2026-07-12T18:23:39.000Z</time>
      </trkpt>
      <trkpt lat="43.25187" lon="-1.84765">
        <ele>458</ele>
        <time>2026-07-12T18:23:41.000Z</time>
      </trkpt>
      <trkpt lat="43.25205" lon="-1.84745">
        <ele>457</ele>
        <time>2026-07-12T18:23:45.000Z</time>
      </trkpt>
      <trkpt lat="43.25229" lon="-1.84721">
        <ele>454</ele>
        <time>2026-07-12T18:23:50.000Z</time>
      </trkpt>
      <trkpt lat="43.25243" lon="-1.84712">
        <ele>452</ele>
        <time>2026-07-12T18:23:53.000Z</time>
      </trkpt>
      <trkpt lat="43.25251" lon="-1.84706">
        <ele>452</ele>
        <time>2026-07-12T18:23:55.000Z</time>
      </trkpt>
      <trkpt lat="43.25256" lon="-1.84699">
        <ele>452</ele>
        <time>2026-07-12T18:23:56.000Z</time>
      </trkpt>
      <trkpt lat="43.25258" lon="-1.84695">
        <ele>452</ele>
        <time>2026-07-12T18:23:57.000Z</time>
      </trkpt>
      <trkpt lat="43.25261" lon="-1.8469">
        <ele>452</ele>
        <time>2026-07-12T18:23:57.000Z</time>
      </trkpt>
      <trkpt lat="43.25261" lon="-1.84684">
        <ele>453</ele>
        <time>2026-07-12T18:23:58.000Z</time>
      </trkpt>
      <trkpt lat="43.25261" lon="-1.84674">
        <ele>455</ele>
        <time>2026-07-12T18:23:59.000Z</time>
      </trkpt>
      <trkpt lat="43.25258" lon="-1.84662">
        <ele>456</ele>
        <time>2026-07-12T18:24:01.000Z</time>
      </trkpt>
      <trkpt lat="43.25256" lon="-1.84658">
        <ele>456</ele>
        <time>2026-07-12T18:24:02.000Z</time>
      </trkpt>
      <trkpt lat="43.25253" lon="-1.84651">
        <ele>456</ele>
        <time>2026-07-12T18:24:03.000Z</time>
      </trkpt>
      <trkpt lat="43.25245" lon="-1.84642">
        <ele>456</ele>
        <time>2026-07-12T18:24:05.000Z</time>
      </trkpt>
      <trkpt lat="43.25237" lon="-1.84638">
        <ele>457</ele>
        <time>2026-07-12T18:24:06.000Z</time>
      </trkpt>
      <trkpt lat="43.25228" lon="-1.84636">
        <ele>459</ele>
        <time>2026-07-12T18:24:08.000Z</time>
      </trkpt>
      <trkpt lat="43.25196" lon="-1.84631">
        <ele>464</ele>
        <time>2026-07-12T18:24:13.000Z</time>
      </trkpt>
      <trkpt lat="43.25183" lon="-1.84627">
        <ele>466</ele>
        <time>2026-07-12T18:24:16.000Z</time>
      </trkpt>
      <trkpt lat="43.25172" lon="-1.84622">
        <ele>468</ele>
        <time>2026-07-12T18:24:18.000Z</time>
      </trkpt>
      <trkpt lat="43.25146" lon="-1.84613">
        <ele>472</ele>
        <time>2026-07-12T18:24:23.000Z</time>
      </trkpt>
      <trkpt lat="43.25126" lon="-1.84606">
        <ele>476</ele>
        <time>2026-07-12T18:24:26.000Z</time>
      </trkpt>
      <trkpt lat="43.25108" lon="-1.84597">
        <ele>478</ele>
        <time>2026-07-12T18:24:30.000Z</time>
      </trkpt>
      <trkpt lat="43.25093" lon="-1.84583">
        <ele>479</ele>
        <time>2026-07-12T18:24:33.000Z</time>
      </trkpt>
      <trkpt lat="43.25073" lon="-1.8456">
        <ele>476</ele>
        <time>2026-07-12T18:24:38.000Z</time>
      </trkpt>
      <trkpt lat="43.25056" lon="-1.84545">
        <ele>474</ele>
        <time>2026-07-12T18:24:41.000Z</time>
      </trkpt>
      <trkpt lat="43.25045" lon="-1.84541">
        <ele>474</ele>
        <time>2026-07-12T18:24:43.000Z</time>
      </trkpt>
      <trkpt lat="43.25038" lon="-1.84539">
        <ele>474</ele>
        <time>2026-07-12T18:24:45.000Z</time>
      </trkpt>
      <trkpt lat="43.25029" lon="-1.84538">
        <ele>475</ele>
        <time>2026-07-12T18:24:46.000Z</time>
      </trkpt>
      <trkpt lat="43.2502" lon="-1.8454">
        <ele>476</ele>
        <time>2026-07-12T18:24:48.000Z</time>
      </trkpt>
      <trkpt lat="43.25015" lon="-1.84541">
        <ele>477</ele>
        <time>2026-07-12T18:24:49.000Z</time>
      </trkpt>
      <trkpt lat="43.25005" lon="-1.84545">
        <ele>479</ele>
        <time>2026-07-12T18:24:51.000Z</time>
      </trkpt>
      <trkpt lat="43.24998" lon="-1.84551">
        <ele>480</ele>
        <time>2026-07-12T18:24:52.000Z</time>
      </trkpt>
      <trkpt lat="43.24991" lon="-1.84559">
        <ele>482</ele>
        <time>2026-07-12T18:24:54.000Z</time>
      </trkpt>
      <trkpt lat="43.24989" lon="-1.84565">
        <ele>483</ele>
        <time>2026-07-12T18:24:54.000Z</time>
      </trkpt>
      <trkpt lat="43.24988" lon="-1.84572">
        <ele>484</ele>
        <time>2026-07-12T18:24:55.000Z</time>
      </trkpt>
      <trkpt lat="43.24986" lon="-1.84581">
        <ele>486</ele>
        <time>2026-07-12T18:24:57.000Z</time>
      </trkpt>
      <trkpt lat="43.24985" lon="-1.84588">
        <ele>487</ele>
        <time>2026-07-12T18:24:58.000Z</time>
      </trkpt>
      <trkpt lat="43.24984" lon="-1.84594">
        <ele>489</ele>
        <time>2026-07-12T18:24:58.000Z</time>
      </trkpt>
      <trkpt lat="43.24983" lon="-1.84596">
        <ele>489</ele>
        <time>2026-07-12T18:24:59.000Z</time>
      </trkpt>
      <trkpt lat="43.24979" lon="-1.84602">
        <ele>490</ele>
        <time>2026-07-12T18:25:00.000Z</time>
      </trkpt>
      <trkpt lat="43.24973" lon="-1.84608">
        <ele>491</ele>
        <time>2026-07-12T18:25:01.000Z</time>
      </trkpt>
      <trkpt lat="43.24963" lon="-1.84614">
        <ele>491</ele>
        <time>2026-07-12T18:25:03.000Z</time>
      </trkpt>
      <trkpt lat="43.24947" lon="-1.84625">
        <ele>492</ele>
        <time>2026-07-12T18:25:06.000Z</time>
      </trkpt>
      <trkpt lat="43.24933" lon="-1.84637">
        <ele>494</ele>
        <time>2026-07-12T18:25:09.000Z</time>
      </trkpt>
      <trkpt lat="43.24905" lon="-1.84655">
        <ele>496</ele>
        <time>2026-07-12T18:25:15.000Z</time>
      </trkpt>
      <trkpt lat="43.24893" lon="-1.84664">
        <ele>497</ele>
        <time>2026-07-12T18:25:17.000Z</time>
      </trkpt>
      <trkpt lat="43.24884" lon="-1.84671">
        <ele>498</ele>
        <time>2026-07-12T18:25:19.000Z</time>
      </trkpt>
      <trkpt lat="43.24875" lon="-1.84679">
        <ele>499</ele>
        <time>2026-07-12T18:25:21.000Z</time>
      </trkpt>
      <trkpt lat="43.24867" lon="-1.84688">
        <ele>500</ele>
        <time>2026-07-12T18:25:23.000Z</time>
      </trkpt>
      <trkpt lat="43.2486" lon="-1.84693">
        <ele>500</ele>
        <time>2026-07-12T18:25:24.000Z</time>
      </trkpt>
      <trkpt lat="43.24856" lon="-1.84696">
        <ele>500</ele>
        <time>2026-07-12T18:25:25.000Z</time>
      </trkpt>
      <trkpt lat="43.24851" lon="-1.84703">
        <ele>501</ele>
        <time>2026-07-12T18:25:26.000Z</time>
      </trkpt>
      <trkpt lat="43.24849" lon="-1.84708">
        <ele>502</ele>
        <time>2026-07-12T18:25:27.000Z</time>
      </trkpt>
      <trkpt lat="43.24847" lon="-1.84713">
        <ele>503</ele>
        <time>2026-07-12T18:25:28.000Z</time>
      </trkpt>
      <trkpt lat="43.24844" lon="-1.8472">
        <ele>504</ele>
        <time>2026-07-12T18:25:29.000Z</time>
      </trkpt>
      <trkpt lat="43.24841" lon="-1.84734">
        <ele>506</ele>
        <time>2026-07-12T18:25:31.000Z</time>
      </trkpt>
      <trkpt lat="43.24839" lon="-1.84753">
        <ele>510</ele>
        <time>2026-07-12T18:25:33.000Z</time>
      </trkpt>
      <trkpt lat="43.24837" lon="-1.84765">
        <ele>510</ele>
        <time>2026-07-12T18:25:35.000Z</time>
      </trkpt>
      <trkpt lat="43.24836" lon="-1.84777">
        <ele>511</ele>
        <time>2026-07-12T18:25:36.000Z</time>
      </trkpt>
      <trkpt lat="43.24835" lon="-1.84781">
        <ele>512</ele>
        <time>2026-07-12T18:25:37.000Z</time>
      </trkpt>
      <trkpt lat="43.24834" lon="-1.84783">
        <ele>512</ele>
        <time>2026-07-12T18:25:37.000Z</time>
      </trkpt>
      <trkpt lat="43.24832" lon="-1.84786">
        <ele>512</ele>
        <time>2026-07-12T18:25:38.000Z</time>
      </trkpt>
      <trkpt lat="43.2483" lon="-1.84788">
        <ele>513</ele>
        <time>2026-07-12T18:25:38.000Z</time>
      </trkpt>
      <trkpt lat="43.24824" lon="-1.84791">
        <ele>514</ele>
        <time>2026-07-12T18:25:39.000Z</time>
      </trkpt>
      <trkpt lat="43.24821" lon="-1.84792">
        <ele>515</ele>
        <time>2026-07-12T18:25:40.000Z</time>
      </trkpt>
      <trkpt lat="43.24817" lon="-1.84791">
        <ele>515</ele>
        <time>2026-07-12T18:25:40.000Z</time>
      </trkpt>
      <trkpt lat="43.24813" lon="-1.84791">
        <ele>516</ele>
        <time>2026-07-12T18:25:41.000Z</time>
      </trkpt>
      <trkpt lat="43.24806" lon="-1.84787">
        <ele>517</ele>
        <time>2026-07-12T18:25:42.000Z</time>
      </trkpt>
      <trkpt lat="43.24803" lon="-1.84784">
        <ele>517</ele>
        <time>2026-07-12T18:25:43.000Z</time>
      </trkpt>
      <trkpt lat="43.24799" lon="-1.84779">
        <ele>517</ele>
        <time>2026-07-12T18:25:44.000Z</time>
      </trkpt>
      <trkpt lat="43.24795" lon="-1.84773">
        <ele>517</ele>
        <time>2026-07-12T18:25:45.000Z</time>
      </trkpt>
      <trkpt lat="43.24791" lon="-1.84766">
        <ele>517</ele>
        <time>2026-07-12T18:25:46.000Z</time>
      </trkpt>
      <trkpt lat="43.24783" lon="-1.84752">
        <ele>517</ele>
        <time>2026-07-12T18:25:49.000Z</time>
      </trkpt>
      <trkpt lat="43.2478" lon="-1.84747">
        <ele>517</ele>
        <time>2026-07-12T18:25:49.000Z</time>
      </trkpt>
      <trkpt lat="43.24774" lon="-1.84736">
        <ele>516</ele>
        <time>2026-07-12T18:25:51.000Z</time>
      </trkpt>
      <trkpt lat="43.2477" lon="-1.84726">
        <ele>516</ele>
        <time>2026-07-12T18:25:53.000Z</time>
      </trkpt>
      <trkpt lat="43.24765" lon="-1.84714">
        <ele>515</ele>
        <time>2026-07-12T18:25:54.000Z</time>
      </trkpt>
      <trkpt lat="43.24761" lon="-1.84704">
        <ele>515</ele>
        <time>2026-07-12T18:25:56.000Z</time>
      </trkpt>
      <trkpt lat="43.24755" lon="-1.84682">
        <ele>514</ele>
        <time>2026-07-12T18:25:59.000Z</time>
      </trkpt>
      <trkpt lat="43.24751" lon="-1.8467">
        <ele>513</ele>
        <time>2026-07-12T18:26:01.000Z</time>
      </trkpt>
      <trkpt lat="43.24748" lon="-1.84664">
        <ele>514</ele>
        <time>2026-07-12T18:26:02.000Z</time>
      </trkpt>
      <trkpt lat="43.24743" lon="-1.84658">
        <ele>515</ele>
        <time>2026-07-12T18:26:03.000Z</time>
      </trkpt>
      <trkpt lat="43.24739" lon="-1.84654">
        <ele>516</ele>
        <time>2026-07-12T18:26:04.000Z</time>
      </trkpt>
      <trkpt lat="43.24726" lon="-1.84641">
        <ele>520</ele>
        <time>2026-07-12T18:26:07.000Z</time>
      </trkpt>
      <trkpt lat="43.24722" lon="-1.84637">
        <ele>521</ele>
        <time>2026-07-12T18:26:07.000Z</time>
      </trkpt>
      <trkpt lat="43.24718" lon="-1.84631">
        <ele>521</ele>
        <time>2026-07-12T18:26:09.000Z</time>
      </trkpt>
      <trkpt lat="43.24717" lon="-1.84627">
        <ele>521</ele>
        <time>2026-07-12T18:26:09.000Z</time>
      </trkpt>
      <trkpt lat="43.24716" lon="-1.84622">
        <ele>521</ele>
        <time>2026-07-12T18:26:10.000Z</time>
      </trkpt>
      <trkpt lat="43.24718" lon="-1.84613">
        <ele>520</ele>
        <time>2026-07-12T18:26:11.000Z</time>
      </trkpt>
      <trkpt lat="43.24721" lon="-1.846">
        <ele>518</ele>
        <time>2026-07-12T18:26:13.000Z</time>
      </trkpt>
      <trkpt lat="43.24722" lon="-1.8459">
        <ele>516</ele>
        <time>2026-07-12T18:26:14.000Z</time>
      </trkpt>
      <trkpt lat="43.24722" lon="-1.84583">
        <ele>516</ele>
        <time>2026-07-12T18:26:15.000Z</time>
      </trkpt>
      <trkpt lat="43.24721" lon="-1.84577">
        <ele>515</ele>
        <time>2026-07-12T18:26:16.000Z</time>
      </trkpt>
      <trkpt lat="43.2472" lon="-1.84571">
        <ele>515</ele>
        <time>2026-07-12T18:26:17.000Z</time>
      </trkpt>
      <trkpt lat="43.24717" lon="-1.84566">
        <ele>515</ele>
        <time>2026-07-12T18:26:17.000Z</time>
      </trkpt>
      <trkpt lat="43.24714" lon="-1.84561">
        <ele>515</ele>
        <time>2026-07-12T18:26:18.000Z</time>
      </trkpt>
      <trkpt lat="43.2471" lon="-1.84555">
        <ele>516</ele>
        <time>2026-07-12T18:26:19.000Z</time>
      </trkpt>
      <trkpt lat="43.24706" lon="-1.84548">
        <ele>516</ele>
        <time>2026-07-12T18:26:20.000Z</time>
      </trkpt>
      <trkpt lat="43.24698" lon="-1.84538">
        <ele>516</ele>
        <time>2026-07-12T18:26:22.000Z</time>
      </trkpt>
      <trkpt lat="43.24692" lon="-1.8453">
        <ele>516</ele>
        <time>2026-07-12T18:26:24.000Z</time>
      </trkpt>
      <trkpt lat="43.24688" lon="-1.84524">
        <ele>516</ele>
        <time>2026-07-12T18:26:25.000Z</time>
      </trkpt>
      <trkpt lat="43.24683" lon="-1.84519">
        <ele>516</ele>
        <time>2026-07-12T18:26:26.000Z</time>
      </trkpt>
      <trkpt lat="43.24677" lon="-1.84513">
        <ele>516</ele>
        <time>2026-07-12T18:26:27.000Z</time>
      </trkpt>
      <trkpt lat="43.24672" lon="-1.84508">
        <ele>516</ele>
        <time>2026-07-12T18:26:28.000Z</time>
      </trkpt>
      <trkpt lat="43.24665" lon="-1.84504">
        <ele>517</ele>
        <time>2026-07-12T18:26:30.000Z</time>
      </trkpt>
      <trkpt lat="43.24659" lon="-1.845">
        <ele>516</ele>
        <time>2026-07-12T18:26:31.000Z</time>
      </trkpt>
      <trkpt lat="43.24653" lon="-1.84498">
        <ele>516</ele>
        <time>2026-07-12T18:26:32.000Z</time>
      </trkpt>
      <trkpt lat="43.24647" lon="-1.84495">
        <ele>515</ele>
        <time>2026-07-12T18:26:33.000Z</time>
      </trkpt>
      <trkpt lat="43.24642" lon="-1.84494">
        <ele>515</ele>
        <time>2026-07-12T18:26:34.000Z</time>
      </trkpt>
      <trkpt lat="43.24637" lon="-1.84493">
        <ele>515</ele>
        <time>2026-07-12T18:26:35.000Z</time>
      </trkpt>
      <trkpt lat="43.24623" lon="-1.84492">
        <ele>515</ele>
        <time>2026-07-12T18:26:37.000Z</time>
      </trkpt>
      <trkpt lat="43.24614" lon="-1.84493">
        <ele>516</ele>
        <time>2026-07-12T18:26:39.000Z</time>
      </trkpt>
      <trkpt lat="43.24609" lon="-1.84494">
        <ele>516</ele>
        <time>2026-07-12T18:26:40.000Z</time>
      </trkpt>
      <trkpt lat="43.24606" lon="-1.84495">
        <ele>516</ele>
        <time>2026-07-12T18:26:41.000Z</time>
      </trkpt>
      <trkpt lat="43.24601" lon="-1.84499">
        <ele>517</ele>
        <time>2026-07-12T18:26:42.000Z</time>
      </trkpt>
      <trkpt lat="43.24599" lon="-1.84502">
        <ele>517</ele>
        <time>2026-07-12T18:26:42.000Z</time>
      </trkpt>
      <trkpt lat="43.24595" lon="-1.8451">
        <ele>519</ele>
        <time>2026-07-12T18:26:43.000Z</time>
      </trkpt>
      <trkpt lat="43.24583" lon="-1.84541">
        <ele>524</ele>
        <time>2026-07-12T18:26:48.000Z</time>
      </trkpt>
      <trkpt lat="43.24569" lon="-1.84578">
        <ele>531</ele>
        <time>2026-07-12T18:26:53.000Z</time>
      </trkpt>
      <trkpt lat="43.24563" lon="-1.8459">
        <ele>533</ele>
        <time>2026-07-12T18:26:55.000Z</time>
      </trkpt>
      <trkpt lat="43.24551" lon="-1.84613">
        <ele>538</ele>
        <time>2026-07-12T18:26:59.000Z</time>
      </trkpt>
      <trkpt lat="43.24536" lon="-1.84639">
        <ele>542</ele>
        <time>2026-07-12T18:27:03.000Z</time>
      </trkpt>
      <trkpt lat="43.2453" lon="-1.84646">
        <ele>543</ele>
        <time>2026-07-12T18:27:05.000Z</time>
      </trkpt>
      <trkpt lat="43.24528" lon="-1.84648">
        <ele>544</ele>
        <time>2026-07-12T18:27:05.000Z</time>
      </trkpt>
      <trkpt lat="43.24526" lon="-1.84648">
        <ele>543</ele>
        <time>2026-07-12T18:27:05.000Z</time>
      </trkpt>
      <trkpt lat="43.24524" lon="-1.84648">
        <ele>543</ele>
        <time>2026-07-12T18:27:06.000Z</time>
      </trkpt>
      <trkpt lat="43.24519" lon="-1.84648">
        <ele>543</ele>
        <time>2026-07-12T18:27:07.000Z</time>
      </trkpt>
      <trkpt lat="43.24516" lon="-1.84647">
        <ele>543</ele>
        <time>2026-07-12T18:27:07.000Z</time>
      </trkpt>
      <trkpt lat="43.24513" lon="-1.84645">
        <ele>543</ele>
        <time>2026-07-12T18:27:08.000Z</time>
      </trkpt>
      <trkpt lat="43.24508" lon="-1.8464">
        <ele>542</ele>
        <time>2026-07-12T18:27:09.000Z</time>
      </trkpt>
      <trkpt lat="43.24505" lon="-1.84635">
        <ele>541</ele>
        <time>2026-07-12T18:27:10.000Z</time>
      </trkpt>
      <trkpt lat="43.24502" lon="-1.84631">
        <ele>541</ele>
        <time>2026-07-12T18:27:10.000Z</time>
      </trkpt>
      <trkpt lat="43.24494" lon="-1.84615">
        <ele>541</ele>
        <time>2026-07-12T18:27:13.000Z</time>
      </trkpt>
      <trkpt lat="43.24492" lon="-1.84604">
        <ele>541</ele>
        <time>2026-07-12T18:27:14.000Z</time>
      </trkpt>
      <trkpt lat="43.24491" lon="-1.84596">
        <ele>541</ele>
        <time>2026-07-12T18:27:15.000Z</time>
      </trkpt>
      <trkpt lat="43.24491" lon="-1.84581">
        <ele>539</ele>
        <time>2026-07-12T18:27:17.000Z</time>
      </trkpt>
      <trkpt lat="43.24494" lon="-1.84549">
        <ele>538</ele>
        <time>2026-07-12T18:27:22.000Z</time>
      </trkpt>
      <trkpt lat="43.24495" lon="-1.84532">
        <ele>538</ele>
        <time>2026-07-12T18:27:24.000Z</time>
      </trkpt>
      <trkpt lat="43.24495" lon="-1.84526">
        <ele>538</ele>
        <time>2026-07-12T18:27:25.000Z</time>
      </trkpt>
      <trkpt lat="43.24494" lon="-1.84523">
        <ele>538</ele>
        <time>2026-07-12T18:27:25.000Z</time>
      </trkpt>
      <trkpt lat="43.24493" lon="-1.84518">
        <ele>539</ele>
        <time>2026-07-12T18:27:26.000Z</time>
      </trkpt>
      <trkpt lat="43.24491" lon="-1.84514">
        <ele>540</ele>
        <time>2026-07-12T18:27:26.000Z</time>
      </trkpt>
      <trkpt lat="43.24482" lon="-1.84502">
        <ele>544</ele>
        <time>2026-07-12T18:27:29.000Z</time>
      </trkpt>
      <trkpt lat="43.24467" lon="-1.84484">
        <ele>550</ele>
        <time>2026-07-12T18:27:32.000Z</time>
      </trkpt>
      <trkpt lat="43.24455" lon="-1.84469">
        <ele>554</ele>
        <time>2026-07-12T18:27:35.000Z</time>
      </trkpt>
      <trkpt lat="43.24451" lon="-1.84461">
        <ele>555</ele>
        <time>2026-07-12T18:27:36.000Z</time>
      </trkpt>
      <trkpt lat="43.24448" lon="-1.84453">
        <ele>556</ele>
        <time>2026-07-12T18:27:37.000Z</time>
      </trkpt>
      <trkpt lat="43.24448" lon="-1.84446">
        <ele>556</ele>
        <time>2026-07-12T18:27:38.000Z</time>
      </trkpt>
      <trkpt lat="43.24448" lon="-1.84441">
        <ele>555</ele>
        <time>2026-07-12T18:27:39.000Z</time>
      </trkpt>
      <trkpt lat="43.2445" lon="-1.84428">
        <ele>554</ele>
        <time>2026-07-12T18:27:41.000Z</time>
      </trkpt>
      <trkpt lat="43.24455" lon="-1.84409">
        <ele>551</ele>
        <time>2026-07-12T18:27:43.000Z</time>
      </trkpt>
      <trkpt lat="43.24456" lon="-1.84401">
        <ele>550</ele>
        <time>2026-07-12T18:27:44.000Z</time>
      </trkpt>
      <trkpt lat="43.24456" lon="-1.84391">
        <ele>549</ele>
        <time>2026-07-12T18:27:46.000Z</time>
      </trkpt>
      <trkpt lat="43.24456" lon="-1.8438">
        <ele>549</ele>
        <time>2026-07-12T18:27:47.000Z</time>
      </trkpt>
      <trkpt lat="43.24454" lon="-1.84366">
        <ele>549</ele>
        <time>2026-07-12T18:27:49.000Z</time>
      </trkpt>
      <trkpt lat="43.24449" lon="-1.84347">
        <ele>550</ele>
        <time>2026-07-12T18:27:52.000Z</time>
      </trkpt>
      <trkpt lat="43.24445" lon="-1.84334">
        <ele>551</ele>
        <time>2026-07-12T18:27:53.000Z</time>
      </trkpt>
      <trkpt lat="43.24439" lon="-1.84322">
        <ele>551</ele>
        <time>2026-07-12T18:27:55.000Z</time>
      </trkpt>
      <trkpt lat="43.2443" lon="-1.84311">
        <ele>553</ele>
        <time>2026-07-12T18:27:57.000Z</time>
      </trkpt>
      <trkpt lat="43.2442" lon="-1.84301">
        <ele>554</ele>
        <time>2026-07-12T18:28:00.000Z</time>
      </trkpt>
      <trkpt lat="43.24404" lon="-1.84289">
        <ele>556</ele>
        <time>2026-07-12T18:28:03.000Z</time>
      </trkpt>
      <trkpt lat="43.24383" lon="-1.84273">
        <ele>556</ele>
        <time>2026-07-12T18:28:07.000Z</time>
      </trkpt>
      <trkpt lat="43.24375" lon="-1.84268">
        <ele>556</ele>
        <time>2026-07-12T18:28:09.000Z</time>
      </trkpt>
      <trkpt lat="43.24368" lon="-1.84264">
        <ele>557</ele>
        <time>2026-07-12T18:28:10.000Z</time>
      </trkpt>
      <trkpt lat="43.24352" lon="-1.84262">
        <ele>558</ele>
        <time>2026-07-12T18:28:13.000Z</time>
      </trkpt>
      <trkpt lat="43.24336" lon="-1.84258">
        <ele>560</ele>
        <time>2026-07-12T18:28:16.000Z</time>
      </trkpt>
      <trkpt lat="43.24327" lon="-1.84253">
        <ele>559</ele>
        <time>2026-07-12T18:28:18.000Z</time>
      </trkpt>
      <trkpt lat="43.24322" lon="-1.84248">
        <ele>559</ele>
        <time>2026-07-12T18:28:19.000Z</time>
      </trkpt>
      <trkpt lat="43.24318" lon="-1.84241">
        <ele>558</ele>
        <time>2026-07-12T18:28:20.000Z</time>
      </trkpt>
      <trkpt lat="43.24304" lon="-1.84221">
        <ele>557</ele>
        <time>2026-07-12T18:28:23.000Z</time>
      </trkpt>
      <trkpt lat="43.2428" lon="-1.8419">
        <ele>556</ele>
        <time>2026-07-12T18:28:29.000Z</time>
      </trkpt>
      <trkpt lat="43.24257" lon="-1.8416">
        <ele>556</ele>
        <time>2026-07-12T18:28:35.000Z</time>
      </trkpt>
      <trkpt lat="43.24233" lon="-1.84127">
        <ele>558</ele>
        <time>2026-07-12T18:28:41.000Z</time>
      </trkpt>
      <trkpt lat="43.24213" lon="-1.84102">
        <ele>558</ele>
        <time>2026-07-12T18:28:46.000Z</time>
      </trkpt>
      <trkpt lat="43.24212" lon="-1.84101">
        <ele>558</ele>
        <time>2026-07-12T18:28:46.000Z</time>
      </trkpt>
      <trkpt lat="43.24207" lon="-1.84096">
        <ele>558</ele>
        <time>2026-07-12T18:28:47.000Z</time>
      </trkpt>
      <trkpt lat="43.24205" lon="-1.84088">
        <ele>559</ele>
        <time>2026-07-12T18:28:48.000Z</time>
      </trkpt>
      <trkpt lat="43.24205" lon="-1.84088">
        <ele>559</ele>
        <time>2026-07-12T18:28:48.000Z</time>
      </trkpt>
      <trkpt lat="43.24222" lon="-1.84082">
        <ele>559</ele>
        <time>2026-07-12T18:28:51.000Z</time>
      </trkpt>
      <trkpt lat="43.24246" lon="-1.84085">
        <ele>560</ele>
        <time>2026-07-12T18:28:56.000Z</time>
      </trkpt>
      <trkpt lat="43.24267" lon="-1.84087">
        <ele>557</ele>
        <time>2026-07-12T18:28:59.000Z</time>
      </trkpt>
      <trkpt lat="43.24277" lon="-1.84088">
        <ele>555</ele>
        <time>2026-07-12T18:29:01.000Z</time>
      </trkpt>
      <trkpt lat="43.24284" lon="-1.84091">
        <ele>553</ele>
        <time>2026-07-12T18:29:02.000Z</time>
      </trkpt>
      <trkpt lat="43.24291" lon="-1.84104">
        <ele>552</ele>
        <time>2026-07-12T18:29:04.000Z</time>
      </trkpt>
      <trkpt lat="43.243" lon="-1.8413">
        <ele>550</ele>
        <time>2026-07-12T18:29:08.000Z</time>
      </trkpt>
      <trkpt lat="43.2431" lon="-1.84168">
        <ele>548</ele>
        <time>2026-07-12T18:29:13.000Z</time>
      </trkpt>
      <trkpt lat="43.24321" lon="-1.84199">
        <ele>551</ele>
        <time>2026-07-12T18:29:18.000Z</time>
      </trkpt>
      <trkpt lat="43.24329" lon="-1.84215">
        <ele>553</ele>
        <time>2026-07-12T18:29:20.000Z</time>
      </trkpt>
      <trkpt lat="43.24338" lon="-1.84227">
        <ele>553</ele>
        <time>2026-07-12T18:29:23.000Z</time>
      </trkpt>
      <trkpt lat="43.24347" lon="-1.84234">
        <ele>553</ele>
        <time>2026-07-12T18:29:25.000Z</time>
      </trkpt>
      <trkpt lat="43.24355" lon="-1.84237">
        <ele>553</ele>
        <time>2026-07-12T18:29:26.000Z</time>
      </trkpt>
      <trkpt lat="43.24365" lon="-1.84238">
        <ele>551</ele>
        <time>2026-07-12T18:29:28.000Z</time>
      </trkpt>
      <trkpt lat="43.24375" lon="-1.84239">
        <ele>550</ele>
        <time>2026-07-12T18:29:30.000Z</time>
      </trkpt>
      <trkpt lat="43.24392" lon="-1.84245">
        <ele>549</ele>
        <time>2026-07-12T18:29:33.000Z</time>
      </trkpt>
      <trkpt lat="43.24414" lon="-1.84259">
        <ele>549</ele>
        <time>2026-07-12T18:29:37.000Z</time>
      </trkpt>
      <trkpt lat="43.24436" lon="-1.84275">
        <ele>545</ele>
        <time>2026-07-12T18:29:41.000Z</time>
      </trkpt>
      <trkpt lat="43.24455" lon="-1.84291">
        <ele>541</ele>
        <time>2026-07-12T18:29:45.000Z</time>
      </trkpt>
      <trkpt lat="43.24463" lon="-1.84298">
        <ele>540</ele>
        <time>2026-07-12T18:29:47.000Z</time>
      </trkpt>
      <trkpt lat="43.24471" lon="-1.84308">
        <ele>539</ele>
        <time>2026-07-12T18:29:49.000Z</time>
      </trkpt>
      <trkpt lat="43.24475" lon="-1.84318">
        <ele>539</ele>
        <time>2026-07-12T18:29:50.000Z</time>
      </trkpt>
      <trkpt lat="43.24488" lon="-1.84384">
        <ele>537</ele>
        <time>2026-07-12T18:29:59.000Z</time>
      </trkpt>
      <trkpt lat="43.24494" lon="-1.84421">
        <ele>536</ele>
        <time>2026-07-12T18:30:04.000Z</time>
      </trkpt>
      <trkpt lat="43.24495" lon="-1.84437">
        <ele>536</ele>
        <time>2026-07-12T18:30:06.000Z</time>
      </trkpt>
      <trkpt lat="43.24495" lon="-1.84446">
        <ele>536</ele>
        <time>2026-07-12T18:30:07.000Z</time>
      </trkpt>
      <trkpt lat="43.24494" lon="-1.84458">
        <ele>537</ele>
        <time>2026-07-12T18:30:09.000Z</time>
      </trkpt>
      <trkpt lat="43.24494" lon="-1.84468">
        <ele>537</ele>
        <time>2026-07-12T18:30:10.000Z</time>
      </trkpt>
      <trkpt lat="43.24497" lon="-1.84475">
        <ele>536</ele>
        <time>2026-07-12T18:30:11.000Z</time>
      </trkpt>
      <trkpt lat="43.24502" lon="-1.84483">
        <ele>535</ele>
        <time>2026-07-12T18:30:13.000Z</time>
      </trkpt>
      <trkpt lat="43.24508" lon="-1.84489">
        <ele>534</ele>
        <time>2026-07-12T18:30:14.000Z</time>
      </trkpt>
      <trkpt lat="43.24512" lon="-1.84492">
        <ele>533</ele>
        <time>2026-07-12T18:30:15.000Z</time>
      </trkpt>
      <trkpt lat="43.24516" lon="-1.84493">
        <ele>532</ele>
        <time>2026-07-12T18:30:16.000Z</time>
      </trkpt>
      <trkpt lat="43.24519" lon="-1.84495">
        <ele>531</ele>
        <time>2026-07-12T18:30:16.000Z</time>
      </trkpt>
      <trkpt lat="43.24522" lon="-1.84501">
        <ele>531</ele>
        <time>2026-07-12T18:30:17.000Z</time>
      </trkpt>
      <trkpt lat="43.24524" lon="-1.84508">
        <ele>531</ele>
        <time>2026-07-12T18:30:18.000Z</time>
      </trkpt>
      <trkpt lat="43.24526" lon="-1.84516">
        <ele>531</ele>
        <time>2026-07-12T18:30:19.000Z</time>
      </trkpt>
      <trkpt lat="43.24527" lon="-1.84526">
        <ele>531</ele>
        <time>2026-07-12T18:30:21.000Z</time>
      </trkpt>
      <trkpt lat="43.24527" lon="-1.84534">
        <ele>531</ele>
        <time>2026-07-12T18:30:22.000Z</time>
      </trkpt>
      <trkpt lat="43.24527" lon="-1.84544">
        <ele>532</ele>
        <time>2026-07-12T18:30:23.000Z</time>
      </trkpt>
      <trkpt lat="43.24526" lon="-1.8455">
        <ele>532</ele>
        <time>2026-07-12T18:30:24.000Z</time>
      </trkpt>
      <trkpt lat="43.24527" lon="-1.84554">
        <ele>532</ele>
        <time>2026-07-12T18:30:24.000Z</time>
      </trkpt>
      <trkpt lat="43.24528" lon="-1.84556">
        <ele>532</ele>
        <time>2026-07-12T18:30:25.000Z</time>
      </trkpt>
      <trkpt lat="43.2453" lon="-1.84557">
        <ele>532</ele>
        <time>2026-07-12T18:30:25.000Z</time>
      </trkpt>
      <trkpt lat="43.24538" lon="-1.84558">
        <ele>531</ele>
        <time>2026-07-12T18:30:26.000Z</time>
      </trkpt>
      <trkpt lat="43.24538" lon="-1.84558">
        <ele>531</ele>
        <time>2026-07-12T18:30:26.000Z</time>
      </trkpt>
      <trkpt lat="43.24543" lon="-1.84558">
        <ele>531</ele>
        <time>2026-07-12T18:30:27.000Z</time>
      </trkpt>
      <trkpt lat="43.24544" lon="-1.84558">
        <ele>531</ele>
        <time>2026-07-12T18:30:27.000Z</time>
      </trkpt>
      <trkpt lat="43.24546" lon="-1.84557">
        <ele>530</ele>
        <time>2026-07-12T18:30:28.000Z</time>
      </trkpt>
      <trkpt lat="43.24548" lon="-1.84556">
        <ele>530</ele>
        <time>2026-07-12T18:30:28.000Z</time>
      </trkpt>
      <trkpt lat="43.24551" lon="-1.84555">
        <ele>530</ele>
        <time>2026-07-12T18:30:29.000Z</time>
      </trkpt>
      <trkpt lat="43.24553" lon="-1.84553">
        <ele>529</ele>
        <time>2026-07-12T18:30:29.000Z</time>
      </trkpt>
      <trkpt lat="43.24556" lon="-1.8455">
        <ele>529</ele>
        <time>2026-07-12T18:30:30.000Z</time>
      </trkpt>
      <trkpt lat="43.24557" lon="-1.84548">
        <ele>528</ele>
        <time>2026-07-12T18:30:30.000Z</time>
      </trkpt>
      <trkpt lat="43.24558" lon="-1.84545">
        <ele>528</ele>
        <time>2026-07-12T18:30:31.000Z</time>
      </trkpt>
      <trkpt lat="43.24582" lon="-1.84502">
        <ele>518</ele>
        <time>2026-07-12T18:30:38.000Z</time>
      </trkpt>
      <trkpt lat="43.24586" lon="-1.84495">
        <ele>516</ele>
        <time>2026-07-12T18:30:39.000Z</time>
      </trkpt>
      <trkpt lat="43.24589" lon="-1.84492">
        <ele>516</ele>
        <time>2026-07-12T18:30:39.000Z</time>
      </trkpt>
      <trkpt lat="43.24594" lon="-1.84488">
        <ele>515</ele>
        <time>2026-07-12T18:30:40.000Z</time>
      </trkpt>
      <trkpt lat="43.24597" lon="-1.84486">
        <ele>515</ele>
        <time>2026-07-12T18:30:41.000Z</time>
      </trkpt>
      <trkpt lat="43.24604" lon="-1.84483">
        <ele>515</ele>
        <time>2026-07-12T18:30:42.000Z</time>
      </trkpt>
      <trkpt lat="43.24607" lon="-1.84482">
        <ele>514</ele>
        <time>2026-07-12T18:30:43.000Z</time>
      </trkpt>
      <trkpt lat="43.24615" lon="-1.8448">
        <ele>514</ele>
        <time>2026-07-12T18:30:44.000Z</time>
      </trkpt>
      <trkpt lat="43.2462" lon="-1.8448">
        <ele>514</ele>
        <time>2026-07-12T18:30:45.000Z</time>
      </trkpt>
      <trkpt lat="43.24625" lon="-1.84481">
        <ele>514</ele>
        <time>2026-07-12T18:30:46.000Z</time>
      </trkpt>
      <trkpt lat="43.24629" lon="-1.84482">
        <ele>514</ele>
        <time>2026-07-12T18:30:47.000Z</time>
      </trkpt>
      <trkpt lat="43.24632" lon="-1.84484">
        <ele>514</ele>
        <time>2026-07-12T18:30:47.000Z</time>
      </trkpt>
      <trkpt lat="43.24634" lon="-1.84486">
        <ele>514</ele>
        <time>2026-07-12T18:30:48.000Z</time>
      </trkpt>
      <trkpt lat="43.24635" lon="-1.84489">
        <ele>515</ele>
        <time>2026-07-12T18:30:48.000Z</time>
      </trkpt>
      <trkpt lat="43.24637" lon="-1.84493">
        <ele>515</ele>
        <time>2026-07-12T18:30:49.000Z</time>
      </trkpt>
      <trkpt lat="43.24642" lon="-1.84494">
        <ele>515</ele>
        <time>2026-07-12T18:30:50.000Z</time>
      </trkpt>
      <trkpt lat="43.24647" lon="-1.84495">
        <ele>515</ele>
        <time>2026-07-12T18:30:51.000Z</time>
      </trkpt>
      <trkpt lat="43.24653" lon="-1.84498">
        <ele>516</ele>
        <time>2026-07-12T18:30:52.000Z</time>
      </trkpt>
      <trkpt lat="43.24659" lon="-1.845">
        <ele>516</ele>
        <time>2026-07-12T18:30:53.000Z</time>
      </trkpt>
      <trkpt lat="43.24665" lon="-1.84504">
        <ele>517</ele>
        <time>2026-07-12T18:30:54.000Z</time>
      </trkpt>
      <trkpt lat="43.24672" lon="-1.84508">
        <ele>516</ele>
        <time>2026-07-12T18:30:56.000Z</time>
      </trkpt>
      <trkpt lat="43.24677" lon="-1.84513">
        <ele>516</ele>
        <time>2026-07-12T18:30:57.000Z</time>
      </trkpt>
      <trkpt lat="43.24683" lon="-1.84519">
        <ele>516</ele>
        <time>2026-07-12T18:30:58.000Z</time>
      </trkpt>
      <trkpt lat="43.24688" lon="-1.84524">
        <ele>516</ele>
        <time>2026-07-12T18:30:59.000Z</time>
      </trkpt>
      <trkpt lat="43.24692" lon="-1.8453">
        <ele>516</ele>
        <time>2026-07-12T18:31:00.000Z</time>
      </trkpt>
      <trkpt lat="43.24698" lon="-1.84538">
        <ele>516</ele>
        <time>2026-07-12T18:31:02.000Z</time>
      </trkpt>
      <trkpt lat="43.24706" lon="-1.84548">
        <ele>516</ele>
        <time>2026-07-12T18:31:04.000Z</time>
      </trkpt>
      <trkpt lat="43.2471" lon="-1.84555">
        <ele>516</ele>
        <time>2026-07-12T18:31:05.000Z</time>
      </trkpt>
      <trkpt lat="43.24714" lon="-1.84561">
        <ele>515</ele>
        <time>2026-07-12T18:31:06.000Z</time>
      </trkpt>
      <trkpt lat="43.24717" lon="-1.84566">
        <ele>515</ele>
        <time>2026-07-12T18:31:07.000Z</time>
      </trkpt>
      <trkpt lat="43.2472" lon="-1.84571">
        <ele>515</ele>
        <time>2026-07-12T18:31:07.000Z</time>
      </trkpt>
      <trkpt lat="43.24721" lon="-1.84577">
        <ele>515</ele>
        <time>2026-07-12T18:31:08.000Z</time>
      </trkpt>
      <trkpt lat="43.24722" lon="-1.84583">
        <ele>516</ele>
        <time>2026-07-12T18:31:09.000Z</time>
      </trkpt>
      <trkpt lat="43.24722" lon="-1.8459">
        <ele>516</ele>
        <time>2026-07-12T18:31:10.000Z</time>
      </trkpt>
      <trkpt lat="43.24721" lon="-1.846">
        <ele>518</ele>
        <time>2026-07-12T18:31:11.000Z</time>
      </trkpt>
      <trkpt lat="43.24718" lon="-1.84613">
        <ele>520</ele>
        <time>2026-07-12T18:31:13.000Z</time>
      </trkpt>
      <trkpt lat="43.24716" lon="-1.84622">
        <ele>521</ele>
        <time>2026-07-12T18:31:14.000Z</time>
      </trkpt>
      <trkpt lat="43.24717" lon="-1.84627">
        <ele>521</ele>
        <time>2026-07-12T18:31:15.000Z</time>
      </trkpt>
      <trkpt lat="43.24718" lon="-1.84631">
        <ele>521</ele>
        <time>2026-07-12T18:31:15.000Z</time>
      </trkpt>
      <trkpt lat="43.24722" lon="-1.84637">
        <ele>521</ele>
        <time>2026-07-12T18:31:16.000Z</time>
      </trkpt>
      <trkpt lat="43.24726" lon="-1.84641">
        <ele>520</ele>
        <time>2026-07-12T18:31:17.000Z</time>
      </trkpt>
      <trkpt lat="43.24739" lon="-1.84654">
        <ele>516</ele>
        <time>2026-07-12T18:31:20.000Z</time>
      </trkpt>
      <trkpt lat="43.24743" lon="-1.84658">
        <ele>515</ele>
        <time>2026-07-12T18:31:21.000Z</time>
      </trkpt>
      <trkpt lat="43.24748" lon="-1.84664">
        <ele>514</ele>
        <time>2026-07-12T18:31:22.000Z</time>
      </trkpt>
      <trkpt lat="43.24751" lon="-1.8467">
        <ele>513</ele>
        <time>2026-07-12T18:31:23.000Z</time>
      </trkpt>
      <trkpt lat="43.24755" lon="-1.84682">
        <ele>514</ele>
        <time>2026-07-12T18:31:25.000Z</time>
      </trkpt>
      <trkpt lat="43.24761" lon="-1.84704">
        <ele>515</ele>
        <time>2026-07-12T18:31:28.000Z</time>
      </trkpt>
      <trkpt lat="43.24765" lon="-1.84714">
        <ele>515</ele>
        <time>2026-07-12T18:31:29.000Z</time>
      </trkpt>
      <trkpt lat="43.2477" lon="-1.84726">
        <ele>516</ele>
        <time>2026-07-12T18:31:31.000Z</time>
      </trkpt>
      <trkpt lat="43.24774" lon="-1.84736">
        <ele>516</ele>
        <time>2026-07-12T18:31:33.000Z</time>
      </trkpt>
      <trkpt lat="43.2478" lon="-1.84747">
        <ele>517</ele>
        <time>2026-07-12T18:31:34.000Z</time>
      </trkpt>
      <trkpt lat="43.24783" lon="-1.84752">
        <ele>517</ele>
        <time>2026-07-12T18:31:35.000Z</time>
      </trkpt>
      <trkpt lat="43.24791" lon="-1.84766">
        <ele>517</ele>
        <time>2026-07-12T18:31:38.000Z</time>
      </trkpt>
      <trkpt lat="43.24795" lon="-1.84773">
        <ele>517</ele>
        <time>2026-07-12T18:31:39.000Z</time>
      </trkpt>
      <trkpt lat="43.24799" lon="-1.84779">
        <ele>517</ele>
        <time>2026-07-12T18:31:40.000Z</time>
      </trkpt>
      <trkpt lat="43.24803" lon="-1.84784">
        <ele>517</ele>
        <time>2026-07-12T18:31:41.000Z</time>
      </trkpt>
      <trkpt lat="43.24806" lon="-1.84787">
        <ele>517</ele>
        <time>2026-07-12T18:31:41.000Z</time>
      </trkpt>
      <trkpt lat="43.24813" lon="-1.84791">
        <ele>516</ele>
        <time>2026-07-12T18:31:43.000Z</time>
      </trkpt>
      <trkpt lat="43.24817" lon="-1.84791">
        <ele>515</ele>
        <time>2026-07-12T18:31:44.000Z</time>
      </trkpt>
      <trkpt lat="43.24821" lon="-1.84792">
        <ele>515</ele>
        <time>2026-07-12T18:31:44.000Z</time>
      </trkpt>
      <trkpt lat="43.24824" lon="-1.84791">
        <ele>514</ele>
        <time>2026-07-12T18:31:45.000Z</time>
      </trkpt>
      <trkpt lat="43.2483" lon="-1.84788">
        <ele>513</ele>
        <time>2026-07-12T18:31:46.000Z</time>
      </trkpt>
      <trkpt lat="43.24832" lon="-1.84786">
        <ele>512</ele>
        <time>2026-07-12T18:31:46.000Z</time>
      </trkpt>
      <trkpt lat="43.24834" lon="-1.84783">
        <ele>512</ele>
        <time>2026-07-12T18:31:47.000Z</time>
      </trkpt>
      <trkpt lat="43.24835" lon="-1.84781">
        <ele>512</ele>
        <time>2026-07-12T18:31:47.000Z</time>
      </trkpt>
      <trkpt lat="43.24836" lon="-1.84777">
        <ele>511</ele>
        <time>2026-07-12T18:31:48.000Z</time>
      </trkpt>
      <trkpt lat="43.24837" lon="-1.84765">
        <ele>510</ele>
        <time>2026-07-12T18:31:49.000Z</time>
      </trkpt>
      <trkpt lat="43.24839" lon="-1.84753">
        <ele>510</ele>
        <time>2026-07-12T18:31:51.000Z</time>
      </trkpt>
      <trkpt lat="43.24841" lon="-1.84734">
        <ele>506</ele>
        <time>2026-07-12T18:31:53.000Z</time>
      </trkpt>
      <trkpt lat="43.24844" lon="-1.8472">
        <ele>504</ele>
        <time>2026-07-12T18:31:55.000Z</time>
      </trkpt>
      <trkpt lat="43.24847" lon="-1.84713">
        <ele>503</ele>
        <time>2026-07-12T18:31:56.000Z</time>
      </trkpt>
      <trkpt lat="43.24849" lon="-1.84708">
        <ele>502</ele>
        <time>2026-07-12T18:31:57.000Z</time>
      </trkpt>
      <trkpt lat="43.24851" lon="-1.84703">
        <ele>501</ele>
        <time>2026-07-12T18:31:58.000Z</time>
      </trkpt>
      <trkpt lat="43.24856" lon="-1.84696">
        <ele>500</ele>
        <time>2026-07-12T18:31:59.000Z</time>
      </trkpt>
      <trkpt lat="43.2486" lon="-1.84693">
        <ele>500</ele>
        <time>2026-07-12T18:32:00.000Z</time>
      </trkpt>
      <trkpt lat="43.24867" lon="-1.84688">
        <ele>500</ele>
        <time>2026-07-12T18:32:01.000Z</time>
      </trkpt>
      <trkpt lat="43.24875" lon="-1.84679">
        <ele>499</ele>
        <time>2026-07-12T18:32:03.000Z</time>
      </trkpt>
      <trkpt lat="43.24884" lon="-1.84671">
        <ele>498</ele>
        <time>2026-07-12T18:32:05.000Z</time>
      </trkpt>
      <trkpt lat="43.24893" lon="-1.84664">
        <ele>497</ele>
        <time>2026-07-12T18:32:07.000Z</time>
      </trkpt>
      <trkpt lat="43.24905" lon="-1.84655">
        <ele>496</ele>
        <time>2026-07-12T18:32:09.000Z</time>
      </trkpt>
      <trkpt lat="43.24933" lon="-1.84637">
        <ele>494</ele>
        <time>2026-07-12T18:32:15.000Z</time>
      </trkpt>
      <trkpt lat="43.24947" lon="-1.84625">
        <ele>492</ele>
        <time>2026-07-12T18:32:18.000Z</time>
      </trkpt>
      <trkpt lat="43.24963" lon="-1.84614">
        <ele>491</ele>
        <time>2026-07-12T18:32:21.000Z</time>
      </trkpt>
      <trkpt lat="43.24973" lon="-1.84608">
        <ele>491</ele>
        <time>2026-07-12T18:32:23.000Z</time>
      </trkpt>
      <trkpt lat="43.24979" lon="-1.84602">
        <ele>490</ele>
        <time>2026-07-12T18:32:24.000Z</time>
      </trkpt>
      <trkpt lat="43.24983" lon="-1.84596">
        <ele>489</ele>
        <time>2026-07-12T18:32:25.000Z</time>
      </trkpt>
      <trkpt lat="43.24984" lon="-1.84594">
        <ele>489</ele>
        <time>2026-07-12T18:32:26.000Z</time>
      </trkpt>
      <trkpt lat="43.24985" lon="-1.84588">
        <ele>487</ele>
        <time>2026-07-12T18:32:26.000Z</time>
      </trkpt>
      <trkpt lat="43.24986" lon="-1.84581">
        <ele>486</ele>
        <time>2026-07-12T18:32:27.000Z</time>
      </trkpt>
      <trkpt lat="43.24988" lon="-1.84572">
        <ele>484</ele>
        <time>2026-07-12T18:32:29.000Z</time>
      </trkpt>
      <trkpt lat="43.24989" lon="-1.84565">
        <ele>483</ele>
        <time>2026-07-12T18:32:29.000Z</time>
      </trkpt>
      <trkpt lat="43.24991" lon="-1.84559">
        <ele>482</ele>
        <time>2026-07-12T18:32:30.000Z</time>
      </trkpt>
      <trkpt lat="43.24998" lon="-1.84551">
        <ele>480</ele>
        <time>2026-07-12T18:32:32.000Z</time>
      </trkpt>
      <trkpt lat="43.25005" lon="-1.84545">
        <ele>479</ele>
        <time>2026-07-12T18:32:33.000Z</time>
      </trkpt>
      <trkpt lat="43.25015" lon="-1.84541">
        <ele>477</ele>
        <time>2026-07-12T18:32:35.000Z</time>
      </trkpt>
      <trkpt lat="43.2502" lon="-1.8454">
        <ele>476</ele>
        <time>2026-07-12T18:32:36.000Z</time>
      </trkpt>
      <trkpt lat="43.25029" lon="-1.84538">
        <ele>475</ele>
        <time>2026-07-12T18:32:38.000Z</time>
      </trkpt>
      <trkpt lat="43.25038" lon="-1.84539">
        <ele>474</ele>
        <time>2026-07-12T18:32:39.000Z</time>
      </trkpt>
      <trkpt lat="43.25045" lon="-1.84541">
        <ele>474</ele>
        <time>2026-07-12T18:32:41.000Z</time>
      </trkpt>
      <trkpt lat="43.25056" lon="-1.84545">
        <ele>474</ele>
        <time>2026-07-12T18:32:43.000Z</time>
      </trkpt>
      <trkpt lat="43.25073" lon="-1.8456">
        <ele>476</ele>
        <time>2026-07-12T18:32:46.000Z</time>
      </trkpt>
      <trkpt lat="43.25093" lon="-1.84583">
        <ele>479</ele>
        <time>2026-07-12T18:32:51.000Z</time>
      </trkpt>
      <trkpt lat="43.25108" lon="-1.84597">
        <ele>478</ele>
        <time>2026-07-12T18:32:54.000Z</time>
      </trkpt>
      <trkpt lat="43.25126" lon="-1.84606">
        <ele>476</ele>
        <time>2026-07-12T18:32:58.000Z</time>
      </trkpt>
      <trkpt lat="43.25146" lon="-1.84613">
        <ele>472</ele>
        <time>2026-07-12T18:33:01.000Z</time>
      </trkpt>
      <trkpt lat="43.25172" lon="-1.84622">
        <ele>468</ele>
        <time>2026-07-12T18:33:06.000Z</time>
      </trkpt>
      <trkpt lat="43.25183" lon="-1.84627">
        <ele>466</ele>
        <time>2026-07-12T18:33:08.000Z</time>
      </trkpt>
      <trkpt lat="43.25196" lon="-1.84631">
        <ele>464</ele>
        <time>2026-07-12T18:33:10.000Z</time>
      </trkpt>
      <trkpt lat="43.25228" lon="-1.84636">
        <ele>459</ele>
        <time>2026-07-12T18:33:16.000Z</time>
      </trkpt>
      <trkpt lat="43.25237" lon="-1.84638">
        <ele>457</ele>
        <time>2026-07-12T18:33:18.000Z</time>
      </trkpt>
      <trkpt lat="43.25245" lon="-1.84642">
        <ele>456</ele>
        <time>2026-07-12T18:33:19.000Z</time>
      </trkpt>
      <trkpt lat="43.25253" lon="-1.84651">
        <ele>456</ele>
        <time>2026-07-12T18:33:21.000Z</time>
      </trkpt>
      <trkpt lat="43.25256" lon="-1.84658">
        <ele>456</ele>
        <time>2026-07-12T18:33:22.000Z</time>
      </trkpt>
      <trkpt lat="43.25258" lon="-1.84662">
        <ele>456</ele>
        <time>2026-07-12T18:33:23.000Z</time>
      </trkpt>
      <trkpt lat="43.25261" lon="-1.84674">
        <ele>455</ele>
        <time>2026-07-12T18:33:24.000Z</time>
      </trkpt>
      <trkpt lat="43.25261" lon="-1.84684">
        <ele>453</ele>
        <time>2026-07-12T18:33:26.000Z</time>
      </trkpt>
      <trkpt lat="43.25261" lon="-1.8469">
        <ele>452</ele>
        <time>2026-07-12T18:33:27.000Z</time>
      </trkpt>
      <trkpt lat="43.25258" lon="-1.84695">
        <ele>452</ele>
        <time>2026-07-12T18:33:27.000Z</time>
      </trkpt>
      <trkpt lat="43.25256" lon="-1.84699">
        <ele>452</ele>
        <time>2026-07-12T18:33:28.000Z</time>
      </trkpt>
      <trkpt lat="43.25251" lon="-1.84706">
        <ele>452</ele>
        <time>2026-07-12T18:33:29.000Z</time>
      </trkpt>
      <trkpt lat="43.25243" lon="-1.84712">
        <ele>452</ele>
        <time>2026-07-12T18:33:31.000Z</time>
      </trkpt>
      <trkpt lat="43.25229" lon="-1.84721">
        <ele>454</ele>
        <time>2026-07-12T18:33:34.000Z</time>
      </trkpt>
      <trkpt lat="43.25205" lon="-1.84745">
        <ele>457</ele>
        <time>2026-07-12T18:33:39.000Z</time>
      </trkpt>
      <trkpt lat="43.25187" lon="-1.84765">
        <ele>458</ele>
        <time>2026-07-12T18:33:43.000Z</time>
      </trkpt>
      <trkpt lat="43.2518" lon="-1.84772">
        <ele>459</ele>
        <time>2026-07-12T18:33:45.000Z</time>
      </trkpt>
      <trkpt lat="43.25165" lon="-1.84782">
        <ele>462</ele>
        <time>2026-07-12T18:33:48.000Z</time>
      </trkpt>
      <trkpt lat="43.25151" lon="-1.84794">
        <ele>465</ele>
        <time>2026-07-12T18:33:50.000Z</time>
      </trkpt>
      <trkpt lat="43.25148" lon="-1.84799">
        <ele>465</ele>
        <time>2026-07-12T18:33:51.000Z</time>
      </trkpt>
      <trkpt lat="43.25144" lon="-1.84808">
        <ele>466</ele>
        <time>2026-07-12T18:33:53.000Z</time>
      </trkpt>
      <trkpt lat="43.25143" lon="-1.84818">
        <ele>465</ele>
        <time>2026-07-12T18:33:54.000Z</time>
      </trkpt>
      <trkpt lat="43.25143" lon="-1.84833">
        <ele>463</ele>
        <time>2026-07-12T18:33:56.000Z</time>
      </trkpt>
      <trkpt lat="43.25146" lon="-1.84844">
        <ele>463</ele>
        <time>2026-07-12T18:33:57.000Z</time>
      </trkpt>
      <trkpt lat="43.25148" lon="-1.84852">
        <ele>464</ele>
        <time>2026-07-12T18:33:59.000Z</time>
      </trkpt>
      <trkpt lat="43.25149" lon="-1.84861">
        <ele>465</ele>
        <time>2026-07-12T18:34:00.000Z</time>
      </trkpt>
      <trkpt lat="43.25147" lon="-1.84868">
        <ele>467</ele>
        <time>2026-07-12T18:34:01.000Z</time>
      </trkpt>
      <trkpt lat="43.25142" lon="-1.84878">
        <ele>469</ele>
        <time>2026-07-12T18:34:02.000Z</time>
      </trkpt>
      <trkpt lat="43.2514" lon="-1.84889">
        <ele>471</ele>
        <time>2026-07-12T18:34:04.000Z</time>
      </trkpt>
      <trkpt lat="43.25142" lon="-1.84897">
        <ele>472</ele>
        <time>2026-07-12T18:34:05.000Z</time>
      </trkpt>
      <trkpt lat="43.25145" lon="-1.84904">
        <ele>472</ele>
        <time>2026-07-12T18:34:06.000Z</time>
      </trkpt>
      <trkpt lat="43.25148" lon="-1.84908">
        <ele>472</ele>
        <time>2026-07-12T18:34:07.000Z</time>
      </trkpt>
      <trkpt lat="43.25152" lon="-1.8491">
        <ele>471</ele>
        <time>2026-07-12T18:34:07.000Z</time>
      </trkpt>
      <trkpt lat="43.25157" lon="-1.8491">
        <ele>470</ele>
        <time>2026-07-12T18:34:08.000Z</time>
      </trkpt>
      <trkpt lat="43.25165" lon="-1.8491">
        <ele>468</ele>
        <time>2026-07-12T18:34:10.000Z</time>
      </trkpt>
      <trkpt lat="43.25185" lon="-1.84905">
        <ele>463</ele>
        <time>2026-07-12T18:34:13.000Z</time>
      </trkpt>
      <trkpt lat="43.25207" lon="-1.84902">
        <ele>458</ele>
        <time>2026-07-12T18:34:17.000Z</time>
      </trkpt>
      <trkpt lat="43.25227" lon="-1.84901">
        <ele>453</ele>
        <time>2026-07-12T18:34:21.000Z</time>
      </trkpt>
      <trkpt lat="43.25238" lon="-1.84903">
        <ele>452</ele>
        <time>2026-07-12T18:34:23.000Z</time>
      </trkpt>
      <trkpt lat="43.25248" lon="-1.84907">
        <ele>451</ele>
        <time>2026-07-12T18:34:25.000Z</time>
      </trkpt>
      <trkpt lat="43.25254" lon="-1.84911">
        <ele>450</ele>
        <time>2026-07-12T18:34:26.000Z</time>
      </trkpt>
      <trkpt lat="43.25262" lon="-1.84917">
        <ele>448</ele>
        <time>2026-07-12T18:34:27.000Z</time>
      </trkpt>
      <trkpt lat="43.25264" lon="-1.84921">
        <ele>447</ele>
        <time>2026-07-12T18:34:28.000Z</time>
      </trkpt>
      <trkpt lat="43.25265" lon="-1.84924">
        <ele>448</ele>
        <time>2026-07-12T18:34:29.000Z</time>
      </trkpt>
      <trkpt lat="43.2527" lon="-1.84968">
        <ele>454</ele>
        <time>2026-07-12T18:34:34.000Z</time>
      </trkpt>
      <trkpt lat="43.25274" lon="-1.84974">
        <ele>454</ele>
        <time>2026-07-12T18:34:35.000Z</time>
      </trkpt>
      <trkpt lat="43.25281" lon="-1.84977">
        <ele>452</ele>
        <time>2026-07-12T18:34:37.000Z</time>
      </trkpt>
      <trkpt lat="43.25286" lon="-1.84979">
        <ele>451</ele>
        <time>2026-07-12T18:34:38.000Z</time>
      </trkpt>
      <trkpt lat="43.25297" lon="-1.84978">
        <ele>448</ele>
        <time>2026-07-12T18:34:40.000Z</time>
      </trkpt>
      <trkpt lat="43.25313" lon="-1.84977">
        <ele>443</ele>
        <time>2026-07-12T18:34:42.000Z</time>
      </trkpt>
      <trkpt lat="43.2532" lon="-1.84977">
        <ele>441</ele>
        <time>2026-07-12T18:34:44.000Z</time>
      </trkpt>
      <trkpt lat="43.25323" lon="-1.84979">
        <ele>440</ele>
        <time>2026-07-12T18:34:44.000Z</time>
      </trkpt>
      <trkpt lat="43.25332" lon="-1.84986">
        <ele>440</ele>
        <time>2026-07-12T18:34:46.000Z</time>
      </trkpt>
      <trkpt lat="43.25343" lon="-1.84997">
        <ele>443</ele>
        <time>2026-07-12T18:34:49.000Z</time>
      </trkpt>
      <trkpt lat="43.25359" lon="-1.85021">
        <ele>446</ele>
        <time>2026-07-12T18:34:53.000Z</time>
      </trkpt>
      <trkpt lat="43.25363" lon="-1.85026">
        <ele>446</ele>
        <time>2026-07-12T18:34:54.000Z</time>
      </trkpt>
      <trkpt lat="43.25369" lon="-1.85028">
        <ele>446</ele>
        <time>2026-07-12T18:34:55.000Z</time>
      </trkpt>
      <trkpt lat="43.25378" lon="-1.85026">
        <ele>445</ele>
        <time>2026-07-12T18:34:56.000Z</time>
      </trkpt>
      <trkpt lat="43.2539" lon="-1.85017">
        <ele>441</ele>
        <time>2026-07-12T18:34:59.000Z</time>
      </trkpt>
      <trkpt lat="43.2541" lon="-1.85">
        <ele>434</ele>
        <time>2026-07-12T18:35:03.000Z</time>
      </trkpt>
      <trkpt lat="43.25421" lon="-1.84991">
        <ele>429</ele>
        <time>2026-07-12T18:35:05.000Z</time>
      </trkpt>
      <trkpt lat="43.25442" lon="-1.84977">
        <ele>424</ele>
        <time>2026-07-12T18:35:09.000Z</time>
      </trkpt>
      <trkpt lat="43.25461" lon="-1.84969">
        <ele>421</ele>
        <time>2026-07-12T18:35:13.000Z</time>
      </trkpt>
      <trkpt lat="43.25479" lon="-1.84966">
        <ele>420</ele>
        <time>2026-07-12T18:35:16.000Z</time>
      </trkpt>
      <trkpt lat="43.25487" lon="-1.84966">
        <ele>420</ele>
        <time>2026-07-12T18:35:18.000Z</time>
      </trkpt>
      <trkpt lat="43.25494" lon="-1.84967">
        <ele>420</ele>
        <time>2026-07-12T18:35:19.000Z</time>
      </trkpt>
      <trkpt lat="43.25504" lon="-1.84972">
        <ele>423</ele>
        <time>2026-07-12T18:35:21.000Z</time>
      </trkpt>
      <trkpt lat="43.25514" lon="-1.84979">
        <ele>426</ele>
        <time>2026-07-12T18:35:23.000Z</time>
      </trkpt>
      <trkpt lat="43.25518" lon="-1.84982">
        <ele>427</ele>
        <time>2026-07-12T18:35:24.000Z</time>
      </trkpt>
      <trkpt lat="43.25527" lon="-1.84986">
        <ele>429</ele>
        <time>2026-07-12T18:35:25.000Z</time>
      </trkpt>
      <trkpt lat="43.25537" lon="-1.84988">
        <ele>430</ele>
        <time>2026-07-12T18:35:27.000Z</time>
      </trkpt>
      <trkpt lat="43.25542" lon="-1.84987">
        <ele>429</ele>
        <time>2026-07-12T18:35:28.000Z</time>
      </trkpt>
      <trkpt lat="43.25553" lon="-1.84977">
        <ele>426</ele>
        <time>2026-07-12T18:35:30.000Z</time>
      </trkpt>
      <trkpt lat="43.25567" lon="-1.84958">
        <ele>419</ele>
        <time>2026-07-12T18:35:34.000Z</time>
      </trkpt>
      <trkpt lat="43.25573" lon="-1.84951">
        <ele>416</ele>
        <time>2026-07-12T18:35:35.000Z</time>
      </trkpt>
      <trkpt lat="43.25578" lon="-1.84944">
        <ele>414</ele>
        <time>2026-07-12T18:35:36.000Z</time>
      </trkpt>
      <trkpt lat="43.2559" lon="-1.84927">
        <ele>407</ele>
        <time>2026-07-12T18:35:40.000Z</time>
      </trkpt>
      <trkpt lat="43.25596" lon="-1.84922">
        <ele>404</ele>
        <time>2026-07-12T18:35:41.000Z</time>
      </trkpt>
      <trkpt lat="43.256" lon="-1.8492">
        <ele>403</ele>
        <time>2026-07-12T18:35:42.000Z</time>
      </trkpt>
      <trkpt lat="43.25606" lon="-1.84918">
        <ele>401</ele>
        <time>2026-07-12T18:35:43.000Z</time>
      </trkpt>
      <trkpt lat="43.25609" lon="-1.84917">
        <ele>400</ele>
        <time>2026-07-12T18:35:43.000Z</time>
      </trkpt>
      <trkpt lat="43.25613" lon="-1.84918">
        <ele>399</ele>
        <time>2026-07-12T18:35:44.000Z</time>
      </trkpt>
      <trkpt lat="43.25615" lon="-1.84919">
        <ele>399</ele>
        <time>2026-07-12T18:35:44.000Z</time>
      </trkpt>
      <trkpt lat="43.25618" lon="-1.84921">
        <ele>400</ele>
        <time>2026-07-12T18:35:45.000Z</time>
      </trkpt>
      <trkpt lat="43.2562" lon="-1.84924">
        <ele>400</ele>
        <time>2026-07-12T18:35:45.000Z</time>
      </trkpt>
      <trkpt lat="43.25629" lon="-1.84949">
        <ele>408</ele>
        <time>2026-07-12T18:35:49.000Z</time>
      </trkpt>
      <trkpt lat="43.25633" lon="-1.84963">
        <ele>412</ele>
        <time>2026-07-12T18:35:51.000Z</time>
      </trkpt>
      <trkpt lat="43.25639" lon="-1.84973">
        <ele>415</ele>
        <time>2026-07-12T18:35:53.000Z</time>
      </trkpt>
      <trkpt lat="43.25648" lon="-1.84983">
        <ele>417</ele>
        <time>2026-07-12T18:35:55.000Z</time>
      </trkpt>
      <trkpt lat="43.25657" lon="-1.84989">
        <ele>417</ele>
        <time>2026-07-12T18:35:57.000Z</time>
      </trkpt>
      <trkpt lat="43.25663" lon="-1.84989">
        <ele>416</ele>
        <time>2026-07-12T18:35:58.000Z</time>
      </trkpt>
      <trkpt lat="43.25691" lon="-1.84988">
        <ele>411</ele>
        <time>2026-07-12T18:36:03.000Z</time>
      </trkpt>
      <trkpt lat="43.25699" lon="-1.84991">
        <ele>411</ele>
        <time>2026-07-12T18:36:04.000Z</time>
      </trkpt>
      <trkpt lat="43.25709" lon="-1.84996">
        <ele>411</ele>
        <time>2026-07-12T18:36:06.000Z</time>
      </trkpt>
      <trkpt lat="43.25719" lon="-1.84999">
        <ele>411</ele>
        <time>2026-07-12T18:36:08.000Z</time>
      </trkpt>
      <trkpt lat="43.25736" lon="-1.84998">
        <ele>407</ele>
        <time>2026-07-12T18:36:11.000Z</time>
      </trkpt>
      <trkpt lat="43.2575" lon="-1.84992">
        <ele>402</ele>
        <time>2026-07-12T18:36:13.000Z</time>
      </trkpt>
      <trkpt lat="43.25755" lon="-1.84992">
        <ele>401</ele>
        <time>2026-07-12T18:36:14.000Z</time>
      </trkpt>
      <trkpt lat="43.2576" lon="-1.84991">
        <ele>400</ele>
        <time>2026-07-12T18:36:15.000Z</time>
      </trkpt>
      <trkpt lat="43.25765" lon="-1.84992">
        <ele>400</ele>
        <time>2026-07-12T18:36:16.000Z</time>
      </trkpt>
      <trkpt lat="43.25768" lon="-1.84993">
        <ele>400</ele>
        <time>2026-07-12T18:36:17.000Z</time>
      </trkpt>
      <trkpt lat="43.25777" lon="-1.84999">
        <ele>402</ele>
        <time>2026-07-12T18:36:18.000Z</time>
      </trkpt>
      <trkpt lat="43.25786" lon="-1.85006">
        <ele>403</ele>
        <time>2026-07-12T18:36:20.000Z</time>
      </trkpt>
      <trkpt lat="43.25789" lon="-1.85007">
        <ele>402</ele>
        <time>2026-07-12T18:36:21.000Z</time>
      </trkpt>
      <trkpt lat="43.25793" lon="-1.85007">
        <ele>402</ele>
        <time>2026-07-12T18:36:22.000Z</time>
      </trkpt>
      <trkpt lat="43.25801" lon="-1.85008">
        <ele>401</ele>
        <time>2026-07-12T18:36:23.000Z</time>
      </trkpt>
      <trkpt lat="43.25806" lon="-1.85007">
        <ele>400</ele>
        <time>2026-07-12T18:36:24.000Z</time>
      </trkpt>
      <trkpt lat="43.25811" lon="-1.85006">
        <ele>399</ele>
        <time>2026-07-12T18:36:25.000Z</time>
      </trkpt>
      <trkpt lat="43.25817" lon="-1.85003">
        <ele>398</ele>
        <time>2026-07-12T18:36:26.000Z</time>
      </trkpt>
      <trkpt lat="43.2583" lon="-1.84998">
        <ele>394</ele>
        <time>2026-07-12T18:36:28.000Z</time>
      </trkpt>
      <trkpt lat="43.25839" lon="-1.84997">
        <ele>394</ele>
        <time>2026-07-12T18:36:30.000Z</time>
      </trkpt>
      <trkpt lat="43.25849" lon="-1.84998">
        <ele>395</ele>
        <time>2026-07-12T18:36:32.000Z</time>
      </trkpt>
      <trkpt lat="43.25862" lon="-1.84996">
        <ele>395</ele>
        <time>2026-07-12T18:36:34.000Z</time>
      </trkpt>
      <trkpt lat="43.25876" lon="-1.84988">
        <ele>393</ele>
        <time>2026-07-12T18:36:37.000Z</time>
      </trkpt>
      <trkpt lat="43.25896" lon="-1.84977">
        <ele>390</ele>
        <time>2026-07-12T18:36:41.000Z</time>
      </trkpt>
      <trkpt lat="43.25914" lon="-1.84963">
        <ele>386</ele>
        <time>2026-07-12T18:36:44.000Z</time>
      </trkpt>
      <trkpt lat="43.2593" lon="-1.8495">
        <ele>382</ele>
        <time>2026-07-12T18:36:48.000Z</time>
      </trkpt>
      <trkpt lat="43.25936" lon="-1.84947">
        <ele>381</ele>
        <time>2026-07-12T18:36:49.000Z</time>
      </trkpt>
      <trkpt lat="43.25947" lon="-1.84942">
        <ele>379</ele>
        <time>2026-07-12T18:36:51.000Z</time>
      </trkpt>
      <trkpt lat="43.25956" lon="-1.8494">
        <ele>378</ele>
        <time>2026-07-12T18:36:52.000Z</time>
      </trkpt>
      <trkpt lat="43.25982" lon="-1.84945">
        <ele>380</ele>
        <time>2026-07-12T18:36:57.000Z</time>
      </trkpt>
      <trkpt lat="43.25993" lon="-1.84943">
        <ele>379</ele>
        <time>2026-07-12T18:36:59.000Z</time>
      </trkpt>
      <trkpt lat="43.26002" lon="-1.84936">
        <ele>378</ele>
        <time>2026-07-12T18:37:01.000Z</time>
      </trkpt>
      <trkpt lat="43.26013" lon="-1.84926">
        <ele>375</ele>
        <time>2026-07-12T18:37:03.000Z</time>
      </trkpt>
      <trkpt lat="43.2602" lon="-1.8492">
        <ele>374</ele>
        <time>2026-07-12T18:37:05.000Z</time>
      </trkpt>
      <trkpt lat="43.2603" lon="-1.84916">
        <ele>373</ele>
        <time>2026-07-12T18:37:07.000Z</time>
      </trkpt>
      <trkpt lat="43.26046" lon="-1.84913">
        <ele>372</ele>
        <time>2026-07-12T18:37:09.000Z</time>
      </trkpt>
      <trkpt lat="43.26057" lon="-1.84911">
        <ele>371</ele>
        <time>2026-07-12T18:37:11.000Z</time>
      </trkpt>
      <trkpt lat="43.26066" lon="-1.84908">
        <ele>370</ele>
        <time>2026-07-12T18:37:13.000Z</time>
      </trkpt>
      <trkpt lat="43.26078" lon="-1.84901">
        <ele>367</ele>
        <time>2026-07-12T18:37:15.000Z</time>
      </trkpt>
      <trkpt lat="43.26092" lon="-1.84892">
        <ele>365</ele>
        <time>2026-07-12T18:37:18.000Z</time>
      </trkpt>
      <trkpt lat="43.26102" lon="-1.84884">
        <ele>364</ele>
        <time>2026-07-12T18:37:20.000Z</time>
      </trkpt>
      <trkpt lat="43.26111" lon="-1.84877">
        <ele>362</ele>
        <time>2026-07-12T18:37:22.000Z</time>
      </trkpt>
      <trkpt lat="43.26118" lon="-1.84875">
        <ele>363</ele>
        <time>2026-07-12T18:37:23.000Z</time>
      </trkpt>
      <trkpt lat="43.26126" lon="-1.84875">
        <ele>364</ele>
        <time>2026-07-12T18:37:25.000Z</time>
      </trkpt>
      <trkpt lat="43.26132" lon="-1.84877">
        <ele>365</ele>
        <time>2026-07-12T18:37:26.000Z</time>
      </trkpt>
      <trkpt lat="43.2614" lon="-1.84879">
        <ele>367</ele>
        <time>2026-07-12T18:37:27.000Z</time>
      </trkpt>
      <trkpt lat="43.26146" lon="-1.84878">
        <ele>368</ele>
        <time>2026-07-12T18:37:28.000Z</time>
      </trkpt>
      <trkpt lat="43.26153" lon="-1.84874">
        <ele>367</ele>
        <time>2026-07-12T18:37:30.000Z</time>
      </trkpt>
      <trkpt lat="43.26163" lon="-1.84867">
        <ele>367</ele>
        <time>2026-07-12T18:37:32.000Z</time>
      </trkpt>
      <trkpt lat="43.26174" lon="-1.84857">
        <ele>366</ele>
        <time>2026-07-12T18:37:34.000Z</time>
      </trkpt>
      <trkpt lat="43.26183" lon="-1.84843">
        <ele>364</ele>
        <time>2026-07-12T18:37:36.000Z</time>
      </trkpt>
      <trkpt lat="43.26196" lon="-1.84821">
        <ele>361</ele>
        <time>2026-07-12T18:37:40.000Z</time>
      </trkpt>
      <trkpt lat="43.26207" lon="-1.84806">
        <ele>359</ele>
        <time>2026-07-12T18:37:43.000Z</time>
      </trkpt>
      <trkpt lat="43.26223" lon="-1.84789">
        <ele>359</ele>
        <time>2026-07-12T18:37:46.000Z</time>
      </trkpt>
      <trkpt lat="43.26234" lon="-1.84777">
        <ele>359</ele>
        <time>2026-07-12T18:37:49.000Z</time>
      </trkpt>
      <trkpt lat="43.26243" lon="-1.84764">
        <ele>358</ele>
        <time>2026-07-12T18:37:51.000Z</time>
      </trkpt>
      <trkpt lat="43.26249" lon="-1.84745">
        <ele>355</ele>
        <time>2026-07-12T18:37:54.000Z</time>
      </trkpt>
      <trkpt lat="43.26255" lon="-1.84722">
        <ele>349</ele>
        <time>2026-07-12T18:37:57.000Z</time>
      </trkpt>
      <trkpt lat="43.26261" lon="-1.84703">
        <ele>345</ele>
        <time>2026-07-12T18:38:00.000Z</time>
      </trkpt>
      <trkpt lat="43.26266" lon="-1.8469">
        <ele>341</ele>
        <time>2026-07-12T18:38:02.000Z</time>
      </trkpt>
      <trkpt lat="43.26273" lon="-1.84678">
        <ele>338</ele>
        <time>2026-07-12T18:38:04.000Z</time>
      </trkpt>
      <trkpt lat="43.2628" lon="-1.84672">
        <ele>337</ele>
        <time>2026-07-12T18:38:05.000Z</time>
      </trkpt>
      <trkpt lat="43.26289" lon="-1.84668">
        <ele>337</ele>
        <time>2026-07-12T18:38:07.000Z</time>
      </trkpt>
      <trkpt lat="43.26298" lon="-1.84665">
        <ele>336</ele>
        <time>2026-07-12T18:38:08.000Z</time>
      </trkpt>
      <trkpt lat="43.26309" lon="-1.84665">
        <ele>337</ele>
        <time>2026-07-12T18:38:10.000Z</time>
      </trkpt>
      <trkpt lat="43.26321" lon="-1.84666">
        <ele>338</ele>
        <time>2026-07-12T18:38:13.000Z</time>
      </trkpt>
      <trkpt lat="43.26335" lon="-1.84671">
        <ele>340</ele>
        <time>2026-07-12T18:38:15.000Z</time>
      </trkpt>
      <trkpt lat="43.26345" lon="-1.84676">
        <ele>339</ele>
        <time>2026-07-12T18:38:17.000Z</time>
      </trkpt>
      <trkpt lat="43.26356" lon="-1.84686">
        <ele>338</ele>
        <time>2026-07-12T18:38:19.000Z</time>
      </trkpt>
      <trkpt lat="43.26363" lon="-1.84694">
        <ele>338</ele>
        <time>2026-07-12T18:38:21.000Z</time>
      </trkpt>
      <trkpt lat="43.26365" lon="-1.84701">
        <ele>339</ele>
        <time>2026-07-12T18:38:22.000Z</time>
      </trkpt>
      <trkpt lat="43.26367" lon="-1.84709">
        <ele>340</ele>
        <time>2026-07-12T18:38:23.000Z</time>
      </trkpt>
      <trkpt lat="43.2637" lon="-1.84721">
        <ele>341</ele>
        <time>2026-07-12T18:38:25.000Z</time>
      </trkpt>
      <trkpt lat="43.26376" lon="-1.84765">
        <ele>348</ele>
        <time>2026-07-12T18:38:31.000Z</time>
      </trkpt>
      <trkpt lat="43.26378" lon="-1.84784">
        <ele>350</ele>
        <time>2026-07-12T18:38:33.000Z</time>
      </trkpt>
      <trkpt lat="43.26381" lon="-1.84794">
        <ele>350</ele>
        <time>2026-07-12T18:38:34.000Z</time>
      </trkpt>
      <trkpt lat="43.26384" lon="-1.848">
        <ele>350</ele>
        <time>2026-07-12T18:38:35.000Z</time>
      </trkpt>
      <trkpt lat="43.26388" lon="-1.84805">
        <ele>350</ele>
        <time>2026-07-12T18:38:36.000Z</time>
      </trkpt>
      <trkpt lat="43.26394" lon="-1.8481">
        <ele>349</ele>
        <time>2026-07-12T18:38:38.000Z</time>
      </trkpt>
      <trkpt lat="43.26403" lon="-1.84811">
        <ele>346</ele>
        <time>2026-07-12T18:38:39.000Z</time>
      </trkpt>
      <trkpt lat="43.26411" lon="-1.84811">
        <ele>344</ele>
        <time>2026-07-12T18:38:41.000Z</time>
      </trkpt>
      <trkpt lat="43.26424" lon="-1.8481">
        <ele>341</ele>
        <time>2026-07-12T18:38:43.000Z</time>
      </trkpt>
      <trkpt lat="43.26435" lon="-1.84809">
        <ele>341</ele>
        <time>2026-07-12T18:38:45.000Z</time>
      </trkpt>
      <trkpt lat="43.26453" lon="-1.84807">
        <ele>339</ele>
        <time>2026-07-12T18:38:48.000Z</time>
      </trkpt>
      <trkpt lat="43.26457" lon="-1.84806">
        <ele>339</ele>
        <time>2026-07-12T18:38:49.000Z</time>
      </trkpt>
      <trkpt lat="43.26464" lon="-1.84804">
        <ele>338</ele>
        <time>2026-07-12T18:38:50.000Z</time>
      </trkpt>
      <trkpt lat="43.26476" lon="-1.84801">
        <ele>336</ele>
        <time>2026-07-12T18:38:52.000Z</time>
      </trkpt>
      <trkpt lat="43.2649" lon="-1.84797">
        <ele>334</ele>
        <time>2026-07-12T18:38:55.000Z</time>
      </trkpt>
      <trkpt lat="43.2649" lon="-1.84797">
        <ele>334</ele>
        <time>2026-07-12T18:38:55.000Z</time>
      </trkpt>
      <trkpt lat="43.265" lon="-1.84795">
        <ele>332</ele>
        <time>2026-07-12T18:38:57.000Z</time>
      </trkpt>
      <trkpt lat="43.26525" lon="-1.84787">
        <ele>330</ele>
        <time>2026-07-12T18:39:01.000Z</time>
      </trkpt>
      <trkpt lat="43.2654" lon="-1.84779">
        <ele>327</ele>
        <time>2026-07-12T18:39:04.000Z</time>
      </trkpt>
      <trkpt lat="43.26547" lon="-1.84775">
        <ele>326</ele>
        <time>2026-07-12T18:39:05.000Z</time>
      </trkpt>
      <trkpt lat="43.26556" lon="-1.84768">
        <ele>325</ele>
        <time>2026-07-12T18:39:07.000Z</time>
      </trkpt>
      <trkpt lat="43.26556" lon="-1.84768">
        <ele>325</ele>
        <time>2026-07-12T18:39:07.000Z</time>
      </trkpt>
      <trkpt lat="43.2658" lon="-1.84767">
        <ele>324</ele>
        <time>2026-07-12T18:39:11.000Z</time>
      </trkpt>
      <trkpt lat="43.26585" lon="-1.84768">
        <ele>324</ele>
        <time>2026-07-12T18:39:12.000Z</time>
      </trkpt>
      <trkpt lat="43.26589" lon="-1.8477">
        <ele>324</ele>
        <time>2026-07-12T18:39:13.000Z</time>
      </trkpt>
      <trkpt lat="43.26597" lon="-1.84778">
        <ele>323</ele>
        <time>2026-07-12T18:39:15.000Z</time>
      </trkpt>
      <trkpt lat="43.26607" lon="-1.84789">
        <ele>323</ele>
        <time>2026-07-12T18:39:17.000Z</time>
      </trkpt>
      <trkpt lat="43.26616" lon="-1.84803">
        <ele>324</ele>
        <time>2026-07-12T18:39:20.000Z</time>
      </trkpt>
      <trkpt lat="43.26623" lon="-1.84816">
        <ele>326</ele>
        <time>2026-07-12T18:39:22.000Z</time>
      </trkpt>
      <trkpt lat="43.2663" lon="-1.84836">
        <ele>329</ele>
        <time>2026-07-12T18:39:25.000Z</time>
      </trkpt>
      <trkpt lat="43.26642" lon="-1.84856">
        <ele>329</ele>
        <time>2026-07-12T18:39:28.000Z</time>
      </trkpt>
      <trkpt lat="43.26665" lon="-1.84884">
        <ele>329</ele>
        <time>2026-07-12T18:39:33.000Z</time>
      </trkpt>
      <trkpt lat="43.26672" lon="-1.84889">
        <ele>328</ele>
        <time>2026-07-12T18:39:35.000Z</time>
      </trkpt>
      <trkpt lat="43.26678" lon="-1.84892">
        <ele>327</ele>
        <time>2026-07-12T18:39:36.000Z</time>
      </trkpt>
      <trkpt lat="43.26687" lon="-1.84897">
        <ele>326</ele>
        <time>2026-07-12T18:39:38.000Z</time>
      </trkpt>
      <trkpt lat="43.26691" lon="-1.84899">
        <ele>325</ele>
        <time>2026-07-12T18:39:38.000Z</time>
      </trkpt>
      <trkpt lat="43.26695" lon="-1.84899">
        <ele>324</ele>
        <time>2026-07-12T18:39:39.000Z</time>
      </trkpt>
      <trkpt lat="43.26701" lon="-1.84901">
        <ele>323</ele>
        <time>2026-07-12T18:39:40.000Z</time>
      </trkpt>
      <trkpt lat="43.26703" lon="-1.84903">
        <ele>323</ele>
        <time>2026-07-12T18:39:41.000Z</time>
      </trkpt>
      <trkpt lat="43.26704" lon="-1.84905">
        <ele>323</ele>
        <time>2026-07-12T18:39:41.000Z</time>
      </trkpt>
      <trkpt lat="43.26706" lon="-1.84909">
        <ele>323</ele>
        <time>2026-07-12T18:39:42.000Z</time>
      </trkpt>
      <trkpt lat="43.26705" lon="-1.84915">
        <ele>325</ele>
        <time>2026-07-12T18:39:42.000Z</time>
      </trkpt>
      <trkpt lat="43.26702" lon="-1.84927">
        <ele>324</ele>
        <time>2026-07-12T18:39:44.000Z</time>
      </trkpt>
      <trkpt lat="43.26701" lon="-1.84944">
        <ele>323</ele>
        <time>2026-07-12T18:39:46.000Z</time>
      </trkpt>
      <trkpt lat="43.267" lon="-1.84952">
        <ele>322</ele>
        <time>2026-07-12T18:39:47.000Z</time>
      </trkpt>
      <trkpt lat="43.267" lon="-1.84962">
        <ele>321</ele>
        <time>2026-07-12T18:39:49.000Z</time>
      </trkpt>
      <trkpt lat="43.26703" lon="-1.8497">
        <ele>319</ele>
        <time>2026-07-12T18:39:50.000Z</time>
      </trkpt>
      <trkpt lat="43.26711" lon="-1.84979">
        <ele>317</ele>
        <time>2026-07-12T18:39:52.000Z</time>
      </trkpt>
      <trkpt lat="43.26718" lon="-1.84985">
        <ele>315</ele>
        <time>2026-07-12T18:39:53.000Z</time>
      </trkpt>
      <trkpt lat="43.26724" lon="-1.84988">
        <ele>314</ele>
        <time>2026-07-12T18:39:54.000Z</time>
      </trkpt>
      <trkpt lat="43.26752" lon="-1.84997">
        <ele>309</ele>
        <time>2026-07-12T18:39:59.000Z</time>
      </trkpt>
      <trkpt lat="43.26773" lon="-1.85005">
        <ele>305</ele>
        <time>2026-07-12T18:40:03.000Z</time>
      </trkpt>
      <trkpt lat="43.26776" lon="-1.85007">
        <ele>305</ele>
        <time>2026-07-12T18:40:04.000Z</time>
      </trkpt>
      <trkpt lat="43.26783" lon="-1.85012">
        <ele>304</ele>
        <time>2026-07-12T18:40:05.000Z</time>
      </trkpt>
      <trkpt lat="43.26786" lon="-1.85015">
        <ele>303</ele>
        <time>2026-07-12T18:40:06.000Z</time>
      </trkpt>
      <trkpt lat="43.26791" lon="-1.8502">
        <ele>302</ele>
        <time>2026-07-12T18:40:07.000Z</time>
      </trkpt>
      <trkpt lat="43.26791" lon="-1.8502">
        <ele>302</ele>
        <time>2026-07-12T18:40:07.000Z</time>
      </trkpt>
      <trkpt lat="43.2679" lon="-1.85026">
        <ele>302</ele>
        <time>2026-07-12T18:40:08.000Z</time>
      </trkpt>
      <trkpt lat="43.2679" lon="-1.85026">
        <ele>302</ele>
        <time>2026-07-12T18:40:08.000Z</time>
      </trkpt>
      <trkpt lat="43.26795" lon="-1.85034">
        <ele>301</ele>
        <time>2026-07-12T18:40:09.000Z</time>
      </trkpt>
      <trkpt lat="43.26801" lon="-1.85043">
        <ele>301</ele>
        <time>2026-07-12T18:40:11.000Z</time>
      </trkpt>
      <trkpt lat="43.26807" lon="-1.85055">
        <ele>301</ele>
        <time>2026-07-12T18:40:13.000Z</time>
      </trkpt>
      <trkpt lat="43.26814" lon="-1.85074">
        <ele>302</ele>
        <time>2026-07-12T18:40:15.000Z</time>
      </trkpt>
      <trkpt lat="43.2682" lon="-1.85097">
        <ele>303</ele>
        <time>2026-07-12T18:40:19.000Z</time>
      </trkpt>
      <trkpt lat="43.26822" lon="-1.85108">
        <ele>304</ele>
        <time>2026-07-12T18:40:20.000Z</time>
      </trkpt>
      <trkpt lat="43.26822" lon="-1.85118">
        <ele>305</ele>
        <time>2026-07-12T18:40:21.000Z</time>
      </trkpt>
      <trkpt lat="43.2682" lon="-1.8513">
        <ele>304</ele>
        <time>2026-07-12T18:40:23.000Z</time>
      </trkpt>
      <trkpt lat="43.26812" lon="-1.85152">
        <ele>301</ele>
        <time>2026-07-12T18:40:26.000Z</time>
      </trkpt>
      <trkpt lat="43.26804" lon="-1.85174">
        <ele>298</ele>
        <time>2026-07-12T18:40:29.000Z</time>
      </trkpt>
      <trkpt lat="43.26796" lon="-1.85197">
        <ele>297</ele>
        <time>2026-07-12T18:40:33.000Z</time>
      </trkpt>
      <trkpt lat="43.26792" lon="-1.85217">
        <ele>296</ele>
        <time>2026-07-12T18:40:35.000Z</time>
      </trkpt>
      <trkpt lat="43.2679" lon="-1.85239">
        <ele>297</ele>
        <time>2026-07-12T18:40:38.000Z</time>
      </trkpt>
      <trkpt lat="43.2679" lon="-1.85287">
        <ele>300</ele>
        <time>2026-07-12T18:40:44.000Z</time>
      </trkpt>
      <trkpt lat="43.26789" lon="-1.85295">
        <ele>300</ele>
        <time>2026-07-12T18:40:45.000Z</time>
      </trkpt>
      <trkpt lat="43.26781" lon="-1.85337">
        <ele>297</ele>
        <time>2026-07-12T18:40:51.000Z</time>
      </trkpt>
      <trkpt lat="43.26777" lon="-1.85361">
        <ele>295</ele>
        <time>2026-07-12T18:40:54.000Z</time>
      </trkpt>
      <trkpt lat="43.26775" lon="-1.85386">
        <ele>295</ele>
        <time>2026-07-12T18:40:57.000Z</time>
      </trkpt>
      <trkpt lat="43.26774" lon="-1.85413">
        <ele>295</ele>
        <time>2026-07-12T18:41:01.000Z</time>
      </trkpt>
      <trkpt lat="43.26774" lon="-1.85426">
        <ele>294</ele>
        <time>2026-07-12T18:41:03.000Z</time>
      </trkpt>
      <trkpt lat="43.26774" lon="-1.85446">
        <ele>292</ele>
        <time>2026-07-12T18:41:05.000Z</time>
      </trkpt>
      <trkpt lat="43.26779" lon="-1.8547">
        <ele>292</ele>
        <time>2026-07-12T18:41:08.000Z</time>
      </trkpt>
      <trkpt lat="43.26789" lon="-1.85498">
        <ele>294</ele>
        <time>2026-07-12T18:41:13.000Z</time>
      </trkpt>
      <trkpt lat="43.26799" lon="-1.85519">
        <ele>292</ele>
        <time>2026-07-12T18:41:16.000Z</time>
      </trkpt>
      <trkpt lat="43.26813" lon="-1.85538">
        <ele>292</ele>
        <time>2026-07-12T18:41:19.000Z</time>
      </trkpt>
      <trkpt lat="43.2682" lon="-1.85545">
        <ele>293</ele>
        <time>2026-07-12T18:41:21.000Z</time>
      </trkpt>
      <trkpt lat="43.26837" lon="-1.85556">
        <ele>295</ele>
        <time>2026-07-12T18:41:24.000Z</time>
      </trkpt>
      <trkpt lat="43.2685" lon="-1.85565">
        <ele>292</ele>
        <time>2026-07-12T18:41:27.000Z</time>
      </trkpt>
      <trkpt lat="43.2686" lon="-1.85567">
        <ele>292</ele>
        <time>2026-07-12T18:41:29.000Z</time>
      </trkpt>
      <trkpt lat="43.26874" lon="-1.85566">
        <ele>292</ele>
        <time>2026-07-12T18:41:31.000Z</time>
      </trkpt>
      <trkpt lat="43.26891" lon="-1.85563">
        <ele>294</ele>
        <time>2026-07-12T18:41:34.000Z</time>
      </trkpt>
      <trkpt lat="43.2691" lon="-1.8556">
        <ele>296</ele>
        <time>2026-07-12T18:41:38.000Z</time>
      </trkpt>
      <trkpt lat="43.2693" lon="-1.85552">
        <ele>298</ele>
        <time>2026-07-12T18:41:41.000Z</time>
      </trkpt>
      <trkpt lat="43.26955" lon="-1.8554">
        <ele>300</ele>
        <time>2026-07-12T18:41:46.000Z</time>
      </trkpt>
      <trkpt lat="43.26973" lon="-1.8553">
        <ele>302</ele>
        <time>2026-07-12T18:41:49.000Z</time>
      </trkpt>
      <trkpt lat="43.26988" lon="-1.85525">
        <ele>303</ele>
        <time>2026-07-12T18:41:52.000Z</time>
      </trkpt>
      <trkpt lat="43.26999" lon="-1.85522">
        <ele>303</ele>
        <time>2026-07-12T18:41:54.000Z</time>
      </trkpt>
      <trkpt lat="43.27012" lon="-1.85522">
        <ele>303</ele>
        <time>2026-07-12T18:41:56.000Z</time>
      </trkpt>
      <trkpt lat="43.2702" lon="-1.85523">
        <ele>303</ele>
        <time>2026-07-12T18:41:58.000Z</time>
      </trkpt>
      <trkpt lat="43.27032" lon="-1.85524">
        <ele>304</ele>
        <time>2026-07-12T18:42:00.000Z</time>
      </trkpt>
      <trkpt lat="43.27038" lon="-1.85527">
        <ele>303</ele>
        <time>2026-07-12T18:42:01.000Z</time>
      </trkpt>
      <trkpt lat="43.27052" lon="-1.85545">
        <ele>297</ele>
        <time>2026-07-12T18:42:05.000Z</time>
      </trkpt>
      <trkpt lat="43.27062" lon="-1.85555">
        <ele>294</ele>
        <time>2026-07-12T18:42:07.000Z</time>
      </trkpt>
      <trkpt lat="43.27077" lon="-1.85569">
        <ele>290</ele>
        <time>2026-07-12T18:42:10.000Z</time>
      </trkpt>
      <trkpt lat="43.27091" lon="-1.85582">
        <ele>287</ele>
        <time>2026-07-12T18:42:13.000Z</time>
      </trkpt>
      <trkpt lat="43.27102" lon="-1.85595">
        <ele>286</ele>
        <time>2026-07-12T18:42:16.000Z</time>
      </trkpt>
      <trkpt lat="43.27113" lon="-1.85611">
        <ele>284</ele>
        <time>2026-07-12T18:42:18.000Z</time>
      </trkpt>
      <trkpt lat="43.27123" lon="-1.85625">
        <ele>283</ele>
        <time>2026-07-12T18:42:21.000Z</time>
      </trkpt>
      <trkpt lat="43.27126" lon="-1.85631">
        <ele>282</ele>
        <time>2026-07-12T18:42:22.000Z</time>
      </trkpt>
      <trkpt lat="43.2713" lon="-1.85638">
        <ele>282</ele>
        <time>2026-07-12T18:42:23.000Z</time>
      </trkpt>
      <trkpt lat="43.2713" lon="-1.85638">
        <ele>282</ele>
        <time>2026-07-12T18:42:23.000Z</time>
      </trkpt>
      <trkpt lat="43.2713" lon="-1.85643">
        <ele>281</ele>
        <time>2026-07-12T18:42:24.000Z</time>
      </trkpt>
      <trkpt lat="43.27132" lon="-1.85656">
        <ele>278</ele>
        <time>2026-07-12T18:42:25.000Z</time>
      </trkpt>
      <trkpt lat="43.27133" lon="-1.85668">
        <ele>276</ele>
        <time>2026-07-12T18:42:27.000Z</time>
      </trkpt>
      <trkpt lat="43.27136" lon="-1.8568">
        <ele>276</ele>
        <time>2026-07-12T18:42:29.000Z</time>
      </trkpt>
      <trkpt lat="43.27139" lon="-1.85692">
        <ele>275</ele>
        <time>2026-07-12T18:42:30.000Z</time>
      </trkpt>
      <trkpt lat="43.27142" lon="-1.85703">
        <ele>275</ele>
        <time>2026-07-12T18:42:32.000Z</time>
      </trkpt>
      <trkpt lat="43.27146" lon="-1.8572">
        <ele>275</ele>
        <time>2026-07-12T18:42:34.000Z</time>
      </trkpt>
      <trkpt lat="43.27149" lon="-1.85742">
        <ele>274</ele>
        <time>2026-07-12T18:42:37.000Z</time>
      </trkpt>
      <trkpt lat="43.27153" lon="-1.85766">
        <ele>273</ele>
        <time>2026-07-12T18:42:40.000Z</time>
      </trkpt>
      <trkpt lat="43.27154" lon="-1.85777">
        <ele>272</ele>
        <time>2026-07-12T18:42:42.000Z</time>
      </trkpt>
      <trkpt lat="43.27155" lon="-1.85786">
        <ele>271</ele>
        <time>2026-07-12T18:42:43.000Z</time>
      </trkpt>
      <trkpt lat="43.27157" lon="-1.85797">
        <ele>271</ele>
        <time>2026-07-12T18:42:44.000Z</time>
      </trkpt>
      <trkpt lat="43.2716" lon="-1.85808">
        <ele>270</ele>
        <time>2026-07-12T18:42:46.000Z</time>
      </trkpt>
      <trkpt lat="43.27162" lon="-1.85818">
        <ele>270</ele>
        <time>2026-07-12T18:42:47.000Z</time>
      </trkpt>
      <trkpt lat="43.27165" lon="-1.85829">
        <ele>269</ele>
        <time>2026-07-12T18:42:49.000Z</time>
      </trkpt>
      <trkpt lat="43.2717" lon="-1.85842">
        <ele>268</ele>
        <time>2026-07-12T18:42:51.000Z</time>
      </trkpt>
      <trkpt lat="43.27176" lon="-1.85851">
        <ele>268</ele>
        <time>2026-07-12T18:42:52.000Z</time>
      </trkpt>
      <trkpt lat="43.27192" lon="-1.85881">
        <ele>266</ele>
        <time>2026-07-12T18:42:57.000Z</time>
      </trkpt>
      <trkpt lat="43.27207" lon="-1.85904">
        <ele>265</ele>
        <time>2026-07-12T18:43:01.000Z</time>
      </trkpt>
      <trkpt lat="43.27214" lon="-1.85914">
        <ele>265</ele>
        <time>2026-07-12T18:43:03.000Z</time>
      </trkpt>
      <trkpt lat="43.27222" lon="-1.85922">
        <ele>264</ele>
        <time>2026-07-12T18:43:05.000Z</time>
      </trkpt>
      <trkpt lat="43.27233" lon="-1.85929">
        <ele>265</ele>
        <time>2026-07-12T18:43:07.000Z</time>
      </trkpt>
      <trkpt lat="43.2724" lon="-1.85933">
        <ele>265</ele>
        <time>2026-07-12T18:43:08.000Z</time>
      </trkpt>
      <trkpt lat="43.27248" lon="-1.85941">
        <ele>264</ele>
        <time>2026-07-12T18:43:10.000Z</time>
      </trkpt>
      <trkpt lat="43.27271" lon="-1.85966">
        <ele>261</ele>
        <time>2026-07-12T18:43:15.000Z</time>
      </trkpt>
      <trkpt lat="43.27282" lon="-1.85981">
        <ele>258</ele>
        <time>2026-07-12T18:43:18.000Z</time>
      </trkpt>
      <trkpt lat="43.2729" lon="-1.85993">
        <ele>256</ele>
        <time>2026-07-12T18:43:20.000Z</time>
      </trkpt>
      <trkpt lat="43.27299" lon="-1.86003">
        <ele>254</ele>
        <time>2026-07-12T18:43:22.000Z</time>
      </trkpt>
      <trkpt lat="43.27308" lon="-1.86009">
        <ele>254</ele>
        <time>2026-07-12T18:43:24.000Z</time>
      </trkpt>
      <trkpt lat="43.27317" lon="-1.86012">
        <ele>254</ele>
        <time>2026-07-12T18:43:25.000Z</time>
      </trkpt>
      <trkpt lat="43.27326" lon="-1.86013">
        <ele>256</ele>
        <time>2026-07-12T18:43:27.000Z</time>
      </trkpt>
      <trkpt lat="43.27343" lon="-1.86013">
        <ele>259</ele>
        <time>2026-07-12T18:43:30.000Z</time>
      </trkpt>
      <trkpt lat="43.2735" lon="-1.86013">
        <ele>261</ele>
        <time>2026-07-12T18:43:31.000Z</time>
      </trkpt>
      <trkpt lat="43.27362" lon="-1.86015">
        <ele>262</ele>
        <time>2026-07-12T18:43:33.000Z</time>
      </trkpt>
      <trkpt lat="43.27376" lon="-1.86023">
        <ele>261</ele>
        <time>2026-07-12T18:43:36.000Z</time>
      </trkpt>
      <trkpt lat="43.27386" lon="-1.8603">
        <ele>260</ele>
        <time>2026-07-12T18:43:38.000Z</time>
      </trkpt>
      <trkpt lat="43.27394" lon="-1.86037">
        <ele>259</ele>
        <time>2026-07-12T18:43:40.000Z</time>
      </trkpt>
      <trkpt lat="43.27405" lon="-1.86051">
        <ele>257</ele>
        <time>2026-07-12T18:43:42.000Z</time>
      </trkpt>
      <trkpt lat="43.27416" lon="-1.8606">
        <ele>256</ele>
        <time>2026-07-12T18:43:45.000Z</time>
      </trkpt>
      <trkpt lat="43.27425" lon="-1.86065">
        <ele>254</ele>
        <time>2026-07-12T18:43:46.000Z</time>
      </trkpt>
      <trkpt lat="43.27434" lon="-1.86068">
        <ele>252</ele>
        <time>2026-07-12T18:43:48.000Z</time>
      </trkpt>
      <trkpt lat="43.27445" lon="-1.86071">
        <ele>250</ele>
        <time>2026-07-12T18:43:50.000Z</time>
      </trkpt>
      <trkpt lat="43.27453" lon="-1.8607">
        <ele>250</ele>
        <time>2026-07-12T18:43:52.000Z</time>
      </trkpt>
      <trkpt lat="43.27465" lon="-1.86066">
        <ele>250</ele>
        <time>2026-07-12T18:43:54.000Z</time>
      </trkpt>
      <trkpt lat="43.27477" lon="-1.86061">
        <ele>251</ele>
        <time>2026-07-12T18:43:56.000Z</time>
      </trkpt>
      <trkpt lat="43.27488" lon="-1.86055">
        <ele>252</ele>
        <time>2026-07-12T18:43:58.000Z</time>
      </trkpt>
      <trkpt lat="43.27508" lon="-1.86044">
        <ele>255</ele>
        <time>2026-07-12T18:44:02.000Z</time>
      </trkpt>
      <trkpt lat="43.27519" lon="-1.8604">
        <ele>256</ele>
        <time>2026-07-12T18:44:04.000Z</time>
      </trkpt>
      <trkpt lat="43.27525" lon="-1.86041">
        <ele>255</ele>
        <time>2026-07-12T18:44:05.000Z</time>
      </trkpt>
      <trkpt lat="43.2753" lon="-1.86042">
        <ele>255</ele>
        <time>2026-07-12T18:44:06.000Z</time>
      </trkpt>
      <trkpt lat="43.27534" lon="-1.86044">
        <ele>254</ele>
        <time>2026-07-12T18:44:07.000Z</time>
      </trkpt>
      <trkpt lat="43.2754" lon="-1.8605">
        <ele>252</ele>
        <time>2026-07-12T18:44:08.000Z</time>
      </trkpt>
      <trkpt lat="43.27636" lon="-1.86168">
        <ele>232</ele>
        <time>2026-07-12T18:44:31.000Z</time>
      </trkpt>
      <trkpt lat="43.27637" lon="-1.86169">
        <ele>232</ele>
        <time>2026-07-12T18:44:31.000Z</time>
      </trkpt>
      <trkpt lat="43.27638" lon="-1.8617">
        <ele>232</ele>
        <time>2026-07-12T18:44:31.000Z</time>
      </trkpt>
      <trkpt lat="43.2764" lon="-1.86172">
        <ele>232</ele>
        <time>2026-07-12T18:44:32.000Z</time>
      </trkpt>
      <trkpt lat="43.27647" lon="-1.86175">
        <ele>233</ele>
        <time>2026-07-12T18:44:33.000Z</time>
      </trkpt>
      <trkpt lat="43.2765" lon="-1.86176">
        <ele>233</ele>
        <time>2026-07-12T18:44:34.000Z</time>
      </trkpt>
      <trkpt lat="43.27652" lon="-1.86177">
        <ele>233</ele>
        <time>2026-07-12T18:44:34.000Z</time>
      </trkpt>
      <trkpt lat="43.27654" lon="-1.86178">
        <ele>233</ele>
        <time>2026-07-12T18:44:34.000Z</time>
      </trkpt>
      <trkpt lat="43.27656" lon="-1.8618">
        <ele>233</ele>
        <time>2026-07-12T18:44:35.000Z</time>
      </trkpt>
      <trkpt lat="43.27657" lon="-1.86182">
        <ele>233</ele>
        <time>2026-07-12T18:44:35.000Z</time>
      </trkpt>
      <trkpt lat="43.2766" lon="-1.86186">
        <ele>233</ele>
        <time>2026-07-12T18:44:36.000Z</time>
      </trkpt>
      <trkpt lat="43.27662" lon="-1.86191">
        <ele>232</ele>
        <time>2026-07-12T18:44:37.000Z</time>
      </trkpt>
      <trkpt lat="43.27665" lon="-1.86195">
        <ele>232</ele>
        <time>2026-07-12T18:44:37.000Z</time>
      </trkpt>
      <trkpt lat="43.27667" lon="-1.86198">
        <ele>232</ele>
        <time>2026-07-12T18:44:38.000Z</time>
      </trkpt>
      <trkpt lat="43.27669" lon="-1.86201">
        <ele>231</ele>
        <time>2026-07-12T18:44:38.000Z</time>
      </trkpt>
      <trkpt lat="43.27671" lon="-1.86203">
        <ele>230</ele>
        <time>2026-07-12T18:44:39.000Z</time>
      </trkpt>
      <trkpt lat="43.27682" lon="-1.8621">
        <ele>229</ele>
        <time>2026-07-12T18:44:41.000Z</time>
      </trkpt>
      <trkpt lat="43.27691" lon="-1.86216">
        <ele>228</ele>
        <time>2026-07-12T18:44:43.000Z</time>
      </trkpt>
      <trkpt lat="43.27696" lon="-1.86219">
        <ele>227</ele>
        <time>2026-07-12T18:44:44.000Z</time>
      </trkpt>
      <trkpt lat="43.27701" lon="-1.86221">
        <ele>226</ele>
        <time>2026-07-12T18:44:45.000Z</time>
      </trkpt>
      <trkpt lat="43.27708" lon="-1.86224">
        <ele>226</ele>
        <time>2026-07-12T18:44:46.000Z</time>
      </trkpt>
      <trkpt lat="43.27724" lon="-1.86229">
        <ele>225</ele>
        <time>2026-07-12T18:44:49.000Z</time>
      </trkpt>
      <trkpt lat="43.27749" lon="-1.86239">
        <ele>223</ele>
        <time>2026-07-12T18:44:54.000Z</time>
      </trkpt>
      <trkpt lat="43.27765" lon="-1.86246">
        <ele>222</ele>
        <time>2026-07-12T18:44:57.000Z</time>
      </trkpt>
      <trkpt lat="43.2778" lon="-1.86253">
        <ele>220</ele>
        <time>2026-07-12T18:44:59.000Z</time>
      </trkpt>
      <trkpt lat="43.278" lon="-1.86262">
        <ele>217</ele>
        <time>2026-07-12T18:45:03.000Z</time>
      </trkpt>
      <trkpt lat="43.27813" lon="-1.86267">
        <ele>216</ele>
        <time>2026-07-12T18:45:06.000Z</time>
      </trkpt>
      <trkpt lat="43.2782" lon="-1.86269">
        <ele>215</ele>
        <time>2026-07-12T18:45:07.000Z</time>
      </trkpt>
      <trkpt lat="43.27826" lon="-1.86271">
        <ele>215</ele>
        <time>2026-07-12T18:45:08.000Z</time>
      </trkpt>
      <trkpt lat="43.27831" lon="-1.86272">
        <ele>214</ele>
        <time>2026-07-12T18:45:09.000Z</time>
      </trkpt>
      <trkpt lat="43.27834" lon="-1.86272">
        <ele>214</ele>
        <time>2026-07-12T18:45:09.000Z</time>
      </trkpt>
      <trkpt lat="43.27838" lon="-1.86272">
        <ele>214</ele>
        <time>2026-07-12T18:45:10.000Z</time>
      </trkpt>
      <trkpt lat="43.27841" lon="-1.86272">
        <ele>213</ele>
        <time>2026-07-12T18:45:11.000Z</time>
      </trkpt>
      <trkpt lat="43.27844" lon="-1.86271">
        <ele>213</ele>
        <time>2026-07-12T18:45:11.000Z</time>
      </trkpt>
      <trkpt lat="43.27847" lon="-1.8627">
        <ele>213</ele>
        <time>2026-07-12T18:45:12.000Z</time>
      </trkpt>
      <trkpt lat="43.27851" lon="-1.86267">
        <ele>213</ele>
        <time>2026-07-12T18:45:12.000Z</time>
      </trkpt>
      <trkpt lat="43.2786" lon="-1.86262">
        <ele>212</ele>
        <time>2026-07-12T18:45:14.000Z</time>
      </trkpt>
      <trkpt lat="43.27868" lon="-1.86256">
        <ele>212</ele>
        <time>2026-07-12T18:45:16.000Z</time>
      </trkpt>
      <trkpt lat="43.27873" lon="-1.86253">
        <ele>211</ele>
        <time>2026-07-12T18:45:17.000Z</time>
      </trkpt>
      <trkpt lat="43.27877" lon="-1.86252">
        <ele>211</ele>
        <time>2026-07-12T18:45:18.000Z</time>
      </trkpt>
      <trkpt lat="43.27881" lon="-1.8625">
        <ele>211</ele>
        <time>2026-07-12T18:45:18.000Z</time>
      </trkpt>
      <trkpt lat="43.27885" lon="-1.86249">
        <ele>210</ele>
        <time>2026-07-12T18:45:19.000Z</time>
      </trkpt>
      <trkpt lat="43.2789" lon="-1.86248">
        <ele>209</ele>
        <time>2026-07-12T18:45:20.000Z</time>
      </trkpt>
      <trkpt lat="43.27895" lon="-1.86247">
        <ele>208</ele>
        <time>2026-07-12T18:45:21.000Z</time>
      </trkpt>
      <trkpt lat="43.27947" lon="-1.86243">
        <ele>200</ele>
        <time>2026-07-12T18:45:30.000Z</time>
      </trkpt>
      <trkpt lat="43.27955" lon="-1.86243">
        <ele>198</ele>
        <time>2026-07-12T18:45:31.000Z</time>
      </trkpt>
      <trkpt lat="43.27964" lon="-1.86242">
        <ele>197</ele>
        <time>2026-07-12T18:45:33.000Z</time>
      </trkpt>
      <trkpt lat="43.27973" lon="-1.86242">
        <ele>195</ele>
        <time>2026-07-12T18:45:35.000Z</time>
      </trkpt>
      <trkpt lat="43.27996" lon="-1.86241">
        <ele>192</ele>
        <time>2026-07-12T18:45:39.000Z</time>
      </trkpt>
      <trkpt lat="43.28002" lon="-1.86242">
        <ele>191</ele>
        <time>2026-07-12T18:45:40.000Z</time>
      </trkpt>
      <trkpt lat="43.28007" lon="-1.86242">
        <ele>190</ele>
        <time>2026-07-12T18:45:41.000Z</time>
      </trkpt>
      <trkpt lat="43.28011" lon="-1.86243">
        <ele>190</ele>
        <time>2026-07-12T18:45:41.000Z</time>
      </trkpt>
      <trkpt lat="43.28014" lon="-1.86244">
        <ele>189</ele>
        <time>2026-07-12T18:45:42.000Z</time>
      </trkpt>
      <trkpt lat="43.28024" lon="-1.86246">
        <ele>188</ele>
        <time>2026-07-12T18:45:44.000Z</time>
      </trkpt>
      <trkpt lat="43.28026" lon="-1.86247">
        <ele>188</ele>
        <time>2026-07-12T18:45:44.000Z</time>
      </trkpt>
      <trkpt lat="43.28029" lon="-1.86247">
        <ele>188</ele>
        <time>2026-07-12T18:45:45.000Z</time>
      </trkpt>
      <trkpt lat="43.28032" lon="-1.86247">
        <ele>187</ele>
        <time>2026-07-12T18:45:45.000Z</time>
      </trkpt>
      <trkpt lat="43.28035" lon="-1.86247">
        <ele>187</ele>
        <time>2026-07-12T18:45:46.000Z</time>
      </trkpt>
      <trkpt lat="43.2804" lon="-1.86246">
        <ele>186</ele>
        <time>2026-07-12T18:45:47.000Z</time>
      </trkpt>
      <trkpt lat="43.28041" lon="-1.86246">
        <ele>186</ele>
        <time>2026-07-12T18:45:47.000Z</time>
      </trkpt>
      <trkpt lat="43.28043" lon="-1.86245">
        <ele>186</ele>
        <time>2026-07-12T18:45:47.000Z</time>
      </trkpt>
      <trkpt lat="43.28046" lon="-1.86244">
        <ele>185</ele>
        <time>2026-07-12T18:45:48.000Z</time>
      </trkpt>
      <trkpt lat="43.28048" lon="-1.86242">
        <ele>185</ele>
        <time>2026-07-12T18:45:48.000Z</time>
      </trkpt>
      <trkpt lat="43.2805" lon="-1.8624">
        <ele>184</ele>
        <time>2026-07-12T18:45:49.000Z</time>
      </trkpt>
      <trkpt lat="43.28051" lon="-1.86238">
        <ele>184</ele>
        <time>2026-07-12T18:45:49.000Z</time>
      </trkpt>
      <trkpt lat="43.28054" lon="-1.86236">
        <ele>184</ele>
        <time>2026-07-12T18:45:50.000Z</time>
      </trkpt>
      <trkpt lat="43.28056" lon="-1.86232">
        <ele>183</ele>
        <time>2026-07-12T18:45:50.000Z</time>
      </trkpt>
      <trkpt lat="43.28059" lon="-1.86228">
        <ele>183</ele>
        <time>2026-07-12T18:45:51.000Z</time>
      </trkpt>
      <trkpt lat="43.28062" lon="-1.86222">
        <ele>183</ele>
        <time>2026-07-12T18:45:52.000Z</time>
      </trkpt>
      <trkpt lat="43.28066" lon="-1.86214">
        <ele>182</ele>
        <time>2026-07-12T18:45:53.000Z</time>
      </trkpt>
      <trkpt lat="43.28072" lon="-1.86202">
        <ele>181</ele>
        <time>2026-07-12T18:45:55.000Z</time>
      </trkpt>
      <trkpt lat="43.2809" lon="-1.8616">
        <ele>180</ele>
        <time>2026-07-12T18:46:01.000Z</time>
      </trkpt>
      <trkpt lat="43.28092" lon="-1.86157">
        <ele>179</ele>
        <time>2026-07-12T18:46:02.000Z</time>
      </trkpt>
      <trkpt lat="43.28093" lon="-1.86154">
        <ele>179</ele>
        <time>2026-07-12T18:46:02.000Z</time>
      </trkpt>
      <trkpt lat="43.28094" lon="-1.86151">
        <ele>179</ele>
        <time>2026-07-12T18:46:03.000Z</time>
      </trkpt>
      <trkpt lat="43.28095" lon="-1.86148">
        <ele>179</ele>
        <time>2026-07-12T18:46:03.000Z</time>
      </trkpt>
      <trkpt lat="43.28096" lon="-1.86143">
        <ele>178</ele>
        <time>2026-07-12T18:46:04.000Z</time>
      </trkpt>
      <trkpt lat="43.28098" lon="-1.86137">
        <ele>178</ele>
        <time>2026-07-12T18:46:05.000Z</time>
      </trkpt>
      <trkpt lat="43.28099" lon="-1.86127">
        <ele>178</ele>
        <time>2026-07-12T18:46:06.000Z</time>
      </trkpt>
      <trkpt lat="43.28099" lon="-1.86111">
        <ele>177</ele>
        <time>2026-07-12T18:46:08.000Z</time>
      </trkpt>
      <trkpt lat="43.281" lon="-1.86079">
        <ele>176</ele>
        <time>2026-07-12T18:46:12.000Z</time>
      </trkpt>
      <trkpt lat="43.281" lon="-1.86074">
        <ele>176</ele>
        <time>2026-07-12T18:46:13.000Z</time>
      </trkpt>
      <trkpt lat="43.281" lon="-1.86067">
        <ele>175</ele>
        <time>2026-07-12T18:46:14.000Z</time>
      </trkpt>
      <trkpt lat="43.28101" lon="-1.86063">
        <ele>175</ele>
        <time>2026-07-12T18:46:14.000Z</time>
      </trkpt>
      <trkpt lat="43.28101" lon="-1.8606">
        <ele>175</ele>
        <time>2026-07-12T18:46:15.000Z</time>
      </trkpt>
      <trkpt lat="43.28106" lon="-1.86046">
        <ele>173</ele>
        <time>2026-07-12T18:46:17.000Z</time>
      </trkpt>
      <trkpt lat="43.28109" lon="-1.86034">
        <ele>172</ele>
        <time>2026-07-12T18:46:18.000Z</time>
      </trkpt>
      <trkpt lat="43.28112" lon="-1.86025">
        <ele>172</ele>
        <time>2026-07-12T18:46:20.000Z</time>
      </trkpt>
      <trkpt lat="43.28117" lon="-1.86013">
        <ele>171</ele>
        <time>2026-07-12T18:46:21.000Z</time>
      </trkpt>
      <trkpt lat="43.28125" lon="-1.85996">
        <ele>170</ele>
        <time>2026-07-12T18:46:24.000Z</time>
      </trkpt>
      <trkpt lat="43.2813" lon="-1.85985">
        <ele>169</ele>
        <time>2026-07-12T18:46:26.000Z</time>
      </trkpt>
      <trkpt lat="43.28134" lon="-1.85978">
        <ele>169</ele>
        <time>2026-07-12T18:46:27.000Z</time>
      </trkpt>
      <trkpt lat="43.28138" lon="-1.85971">
        <ele>168</ele>
        <time>2026-07-12T18:46:28.000Z</time>
      </trkpt>
      <trkpt lat="43.28144" lon="-1.85963">
        <ele>168</ele>
        <time>2026-07-12T18:46:30.000Z</time>
      </trkpt>
      <trkpt lat="43.28155" lon="-1.85947">
        <ele>167</ele>
        <time>2026-07-12T18:46:32.000Z</time>
      </trkpt>
      <trkpt lat="43.28159" lon="-1.85942">
        <ele>167</ele>
        <time>2026-07-12T18:46:33.000Z</time>
      </trkpt>
      <trkpt lat="43.28162" lon="-1.85937">
        <ele>167</ele>
        <time>2026-07-12T18:46:34.000Z</time>
      </trkpt>
      <trkpt lat="43.28163" lon="-1.85934">
        <ele>167</ele>
        <time>2026-07-12T18:46:35.000Z</time>
      </trkpt>
      <trkpt lat="43.28164" lon="-1.85931">
        <ele>166</ele>
        <time>2026-07-12T18:46:35.000Z</time>
      </trkpt>
      <trkpt lat="43.28165" lon="-1.85928">
        <ele>166</ele>
        <time>2026-07-12T18:46:35.000Z</time>
      </trkpt>
      <trkpt lat="43.28166" lon="-1.85925">
        <ele>166</ele>
        <time>2026-07-12T18:46:36.000Z</time>
      </trkpt>
      <trkpt lat="43.28166" lon="-1.85921">
        <ele>165</ele>
        <time>2026-07-12T18:46:36.000Z</time>
      </trkpt>
      <trkpt lat="43.28166" lon="-1.85912">
        <ele>164</ele>
        <time>2026-07-12T18:46:38.000Z</time>
      </trkpt>
      <trkpt lat="43.28166" lon="-1.85905">
        <ele>163</ele>
        <time>2026-07-12T18:46:39.000Z</time>
      </trkpt>
      <trkpt lat="43.28165" lon="-1.85899">
        <ele>162</ele>
        <time>2026-07-12T18:46:39.000Z</time>
      </trkpt>
      <trkpt lat="43.28161" lon="-1.85865">
        <ele>157</ele>
        <time>2026-07-12T18:46:44.000Z</time>
      </trkpt>
      <trkpt lat="43.28153" lon="-1.85823">
        <ele>151</ele>
        <time>2026-07-12T18:46:49.000Z</time>
      </trkpt>
      <trkpt lat="43.2815" lon="-1.85801">
        <ele>147</ele>
        <time>2026-07-12T18:46:52.000Z</time>
      </trkpt>
      <trkpt lat="43.28146" lon="-1.85779">
        <ele>144</ele>
        <time>2026-07-12T18:46:55.000Z</time>
      </trkpt>
      <trkpt lat="43.28144" lon="-1.85773">
        <ele>143</ele>
        <time>2026-07-12T18:46:56.000Z</time>
      </trkpt>
      <trkpt lat="43.28143" lon="-1.85768">
        <ele>142</ele>
        <time>2026-07-12T18:46:57.000Z</time>
      </trkpt>
      <trkpt lat="43.28142" lon="-1.85765">
        <ele>142</ele>
        <time>2026-07-12T18:46:57.000Z</time>
      </trkpt>
      <trkpt lat="43.28142" lon="-1.85763">
        <ele>141</ele>
        <time>2026-07-12T18:46:57.000Z</time>
      </trkpt>
      <trkpt lat="43.28141" lon="-1.85761">
        <ele>141</ele>
        <time>2026-07-12T18:46:58.000Z</time>
      </trkpt>
      <trkpt lat="43.2814" lon="-1.85759">
        <ele>141</ele>
        <time>2026-07-12T18:46:58.000Z</time>
      </trkpt>
      <trkpt lat="43.28139" lon="-1.85757">
        <ele>140</ele>
        <time>2026-07-12T18:46:58.000Z</time>
      </trkpt>
      <trkpt lat="43.28137" lon="-1.85755">
        <ele>140</ele>
        <time>2026-07-12T18:46:59.000Z</time>
      </trkpt>
      <trkpt lat="43.28134" lon="-1.85752">
        <ele>139</ele>
        <time>2026-07-12T18:46:59.000Z</time>
      </trkpt>
      <trkpt lat="43.28116" lon="-1.85738">
        <ele>136</ele>
        <time>2026-07-12T18:47:03.000Z</time>
      </trkpt>
      <trkpt lat="43.28107" lon="-1.85731">
        <ele>134</ele>
        <time>2026-07-12T18:47:05.000Z</time>
      </trkpt>
      <trkpt lat="43.28105" lon="-1.85729">
        <ele>134</ele>
        <time>2026-07-12T18:47:05.000Z</time>
      </trkpt>
      <trkpt lat="43.28103" lon="-1.85727">
        <ele>133</ele>
        <time>2026-07-12T18:47:06.000Z</time>
      </trkpt>
      <trkpt lat="43.28102" lon="-1.85725">
        <ele>133</ele>
        <time>2026-07-12T18:47:06.000Z</time>
      </trkpt>
      <trkpt lat="43.28102" lon="-1.85723">
        <ele>133</ele>
        <time>2026-07-12T18:47:06.000Z</time>
      </trkpt>
      <trkpt lat="43.28101" lon="-1.85721">
        <ele>133</ele>
        <time>2026-07-12T18:47:07.000Z</time>
      </trkpt>
      <trkpt lat="43.28101" lon="-1.85718">
        <ele>132</ele>
        <time>2026-07-12T18:47:07.000Z</time>
      </trkpt>
      <trkpt lat="43.28101" lon="-1.85715">
        <ele>132</ele>
        <time>2026-07-12T18:47:08.000Z</time>
      </trkpt>
      <trkpt lat="43.28101" lon="-1.85712">
        <ele>132</ele>
        <time>2026-07-12T18:47:08.000Z</time>
      </trkpt>
      <trkpt lat="43.28102" lon="-1.85709">
        <ele>131</ele>
        <time>2026-07-12T18:47:08.000Z</time>
      </trkpt>
      <trkpt lat="43.28102" lon="-1.85706">
        <ele>131</ele>
        <time>2026-07-12T18:47:09.000Z</time>
      </trkpt>
      <trkpt lat="43.28103" lon="-1.85703">
        <ele>131</ele>
        <time>2026-07-12T18:47:09.000Z</time>
      </trkpt>
      <trkpt lat="43.28104" lon="-1.85701">
        <ele>130</ele>
        <time>2026-07-12T18:47:10.000Z</time>
      </trkpt>
      <trkpt lat="43.28106" lon="-1.85698">
        <ele>130</ele>
        <time>2026-07-12T18:47:10.000Z</time>
      </trkpt>
      <trkpt lat="43.28107" lon="-1.85695">
        <ele>130</ele>
        <time>2026-07-12T18:47:10.000Z</time>
      </trkpt>
      <trkpt lat="43.28116" lon="-1.85682">
        <ele>128</ele>
        <time>2026-07-12T18:47:13.000Z</time>
      </trkpt>
      <trkpt lat="43.28118" lon="-1.85678">
        <ele>128</ele>
        <time>2026-07-12T18:47:13.000Z</time>
      </trkpt>
      <trkpt lat="43.28119" lon="-1.85677">
        <ele>128</ele>
        <time>2026-07-12T18:47:14.000Z</time>
      </trkpt>
      <trkpt lat="43.2812" lon="-1.85675">
        <ele>127</ele>
        <time>2026-07-12T18:47:14.000Z</time>
      </trkpt>
      <trkpt lat="43.28121" lon="-1.85673">
        <ele>127</ele>
        <time>2026-07-12T18:47:14.000Z</time>
      </trkpt>
      <trkpt lat="43.28122" lon="-1.85671">
        <ele>127</ele>
        <time>2026-07-12T18:47:15.000Z</time>
      </trkpt>
      <trkpt lat="43.28122" lon="-1.85668">
        <ele>126</ele>
        <time>2026-07-12T18:47:15.000Z</time>
      </trkpt>
      <trkpt lat="43.28123" lon="-1.85666">
        <ele>126</ele>
        <time>2026-07-12T18:47:15.000Z</time>
      </trkpt>
      <trkpt lat="43.28122" lon="-1.85664">
        <ele>126</ele>
        <time>2026-07-12T18:47:16.000Z</time>
      </trkpt>
      <trkpt lat="43.28122" lon="-1.85662">
        <ele>126</ele>
        <time>2026-07-12T18:47:16.000Z</time>
      </trkpt>
      <trkpt lat="43.28121" lon="-1.85659">
        <ele>125</ele>
        <time>2026-07-12T18:47:16.000Z</time>
      </trkpt>
      <trkpt lat="43.28121" lon="-1.85657">
        <ele>125</ele>
        <time>2026-07-12T18:47:17.000Z</time>
      </trkpt>
      <trkpt lat="43.2812" lon="-1.85656">
        <ele>125</ele>
        <time>2026-07-12T18:47:17.000Z</time>
      </trkpt>
      <trkpt lat="43.28119" lon="-1.85653">
        <ele>125</ele>
        <time>2026-07-12T18:47:17.000Z</time>
      </trkpt>
      <trkpt lat="43.28114" lon="-1.85646">
        <ele>124</ele>
        <time>2026-07-12T18:47:18.000Z</time>
      </trkpt>
      <trkpt lat="43.28103" lon="-1.85632">
        <ele>123</ele>
        <time>2026-07-12T18:47:21.000Z</time>
      </trkpt>
      <trkpt lat="43.281" lon="-1.85629">
        <ele>122</ele>
        <time>2026-07-12T18:47:22.000Z</time>
      </trkpt>
      <trkpt lat="43.28099" lon="-1.85628">
        <ele>122</ele>
        <time>2026-07-12T18:47:22.000Z</time>
      </trkpt>
      <trkpt lat="43.28097" lon="-1.85627">
        <ele>122</ele>
        <time>2026-07-12T18:47:22.000Z</time>
      </trkpt>
      <trkpt lat="43.28096" lon="-1.85626">
        <ele>122</ele>
        <time>2026-07-12T18:47:23.000Z</time>
      </trkpt>
      <trkpt lat="43.28095" lon="-1.85626">
        <ele>122</ele>
        <time>2026-07-12T18:47:23.000Z</time>
      </trkpt>
      <trkpt lat="43.28093" lon="-1.85626">
        <ele>122</ele>
        <time>2026-07-12T18:47:23.000Z</time>
      </trkpt>
      <trkpt lat="43.28092" lon="-1.85626">
        <ele>122</ele>
        <time>2026-07-12T18:47:23.000Z</time>
      </trkpt>
      <trkpt lat="43.28091" lon="-1.85627">
        <ele>122</ele>
        <time>2026-07-12T18:47:24.000Z</time>
      </trkpt>
      <trkpt lat="43.28089" lon="-1.85629">
        <ele>123</ele>
        <time>2026-07-12T18:47:24.000Z</time>
      </trkpt>
      <trkpt lat="43.28086" lon="-1.85632">
        <ele>123</ele>
        <time>2026-07-12T18:47:25.000Z</time>
      </trkpt>
      <trkpt lat="43.28085" lon="-1.85634">
        <ele>123</ele>
        <time>2026-07-12T18:47:25.000Z</time>
      </trkpt>
      <trkpt lat="43.28082" lon="-1.85639">
        <ele>124</ele>
        <time>2026-07-12T18:47:26.000Z</time>
      </trkpt>
      <trkpt lat="43.2808" lon="-1.85641">
        <ele>125</ele>
        <time>2026-07-12T18:47:26.000Z</time>
      </trkpt>
      <trkpt lat="43.28079" lon="-1.85642">
        <ele>125</ele>
        <time>2026-07-12T18:47:26.000Z</time>
      </trkpt>
      <trkpt lat="43.28079" lon="-1.85643">
        <ele>125</ele>
        <time>2026-07-12T18:47:27.000Z</time>
      </trkpt>
      <trkpt lat="43.28078" lon="-1.85643">
        <ele>125</ele>
        <time>2026-07-12T18:47:27.000Z</time>
      </trkpt>
      <trkpt lat="43.28077" lon="-1.85643">
        <ele>125</ele>
        <time>2026-07-12T18:47:27.000Z</time>
      </trkpt>
      <trkpt lat="43.28076" lon="-1.85643">
        <ele>125</ele>
        <time>2026-07-12T18:47:27.000Z</time>
      </trkpt>
      <trkpt lat="43.28074" lon="-1.85643">
        <ele>125</ele>
        <time>2026-07-12T18:47:27.000Z</time>
      </trkpt>
      <trkpt lat="43.28066" lon="-1.85641">
        <ele>126</ele>
        <time>2026-07-12T18:47:29.000Z</time>
      </trkpt>
      <trkpt lat="43.28066" lon="-1.85641">
        <ele>126</ele>
        <time>2026-07-12T18:47:29.000Z</time>
      </trkpt>
      <trkpt lat="43.28069" lon="-1.85629">
        <ele>124</ele>
        <time>2026-07-12T18:47:31.000Z</time>
      </trkpt>
      <trkpt lat="43.28072" lon="-1.85617">
        <ele>123</ele>
        <time>2026-07-12T18:47:32.000Z</time>
      </trkpt>
      <trkpt lat="43.28076" lon="-1.85602">
        <ele>121</ele>
        <time>2026-07-12T18:47:34.000Z</time>
      </trkpt>
      <trkpt lat="43.28081" lon="-1.85587">
        <ele>119</ele>
        <time>2026-07-12T18:47:36.000Z</time>
      </trkpt>
      <trkpt lat="43.28085" lon="-1.85576">
        <ele>117</ele>
        <time>2026-07-12T18:47:38.000Z</time>
      </trkpt>
      <trkpt lat="43.28093" lon="-1.85555">
        <ele>116</ele>
        <time>2026-07-12T18:47:41.000Z</time>
      </trkpt>
      <trkpt lat="43.28103" lon="-1.8553">
        <ele>113</ele>
        <time>2026-07-12T18:47:45.000Z</time>
      </trkpt>
      <trkpt lat="43.28108" lon="-1.8552">
        <ele>112</ele>
        <time>2026-07-12T18:47:46.000Z</time>
      </trkpt>
      <trkpt lat="43.28111" lon="-1.85514">
        <ele>111</ele>
        <time>2026-07-12T18:47:47.000Z</time>
      </trkpt>
      <trkpt lat="43.28115" lon="-1.85508">
        <ele>111</ele>
        <time>2026-07-12T18:47:48.000Z</time>
      </trkpt>
      <trkpt lat="43.28115" lon="-1.85507">
        <ele>111</ele>
        <time>2026-07-12T18:47:48.000Z</time>
      </trkpt>
      <trkpt lat="43.28119" lon="-1.85503">
        <ele>110</ele>
        <time>2026-07-12T18:47:49.000Z</time>
      </trkpt>
      <trkpt lat="43.28125" lon="-1.85497">
        <ele>109</ele>
        <time>2026-07-12T18:47:51.000Z</time>
      </trkpt>
      <trkpt lat="43.28128" lon="-1.85494">
        <ele>108</ele>
        <time>2026-07-12T18:47:51.000Z</time>
      </trkpt>
      <trkpt lat="43.28132" lon="-1.8549">
        <ele>107</ele>
        <time>2026-07-12T18:47:52.000Z</time>
      </trkpt>
      <trkpt lat="43.2814" lon="-1.85486">
        <ele>105</ele>
        <time>2026-07-12T18:47:54.000Z</time>
      </trkpt>
      <trkpt lat="43.28151" lon="-1.8548">
        <ele>103</ele>
        <time>2026-07-12T18:47:56.000Z</time>
      </trkpt>
      <trkpt lat="43.28165" lon="-1.85473">
        <ele>100</ele>
        <time>2026-07-12T18:47:58.000Z</time>
      </trkpt>
      <trkpt lat="43.28172" lon="-1.8547">
        <ele>98</ele>
        <time>2026-07-12T18:48:00.000Z</time>
      </trkpt>
      <trkpt lat="43.28176" lon="-1.85468">
        <ele>97</ele>
        <time>2026-07-12T18:48:01.000Z</time>
      </trkpt>
      <trkpt lat="43.28179" lon="-1.85467">
        <ele>97</ele>
        <time>2026-07-12T18:48:01.000Z</time>
      </trkpt>
      <trkpt lat="43.28183" lon="-1.85466">
        <ele>96</ele>
        <time>2026-07-12T18:48:02.000Z</time>
      </trkpt>
      <trkpt lat="43.28185" lon="-1.85466">
        <ele>95</ele>
        <time>2026-07-12T18:48:02.000Z</time>
      </trkpt>
      <trkpt lat="43.28188" lon="-1.85465">
        <ele>95</ele>
        <time>2026-07-12T18:48:03.000Z</time>
      </trkpt>
      <trkpt lat="43.2819" lon="-1.85465">
        <ele>94</ele>
        <time>2026-07-12T18:48:03.000Z</time>
      </trkpt>
      <trkpt lat="43.28193" lon="-1.85465">
        <ele>94</ele>
        <time>2026-07-12T18:48:04.000Z</time>
      </trkpt>
      <trkpt lat="43.28196" lon="-1.85466">
        <ele>94</ele>
        <time>2026-07-12T18:48:04.000Z</time>
      </trkpt>
      <trkpt lat="43.282" lon="-1.85467">
        <ele>93</ele>
        <time>2026-07-12T18:48:05.000Z</time>
      </trkpt>
      <trkpt lat="43.28204" lon="-1.85468">
        <ele>93</ele>
        <time>2026-07-12T18:48:06.000Z</time>
      </trkpt>
      <trkpt lat="43.28219" lon="-1.85475">
        <ele>92</ele>
        <time>2026-07-12T18:48:08.000Z</time>
      </trkpt>
      <trkpt lat="43.2823" lon="-1.85482">
        <ele>91</ele>
        <time>2026-07-12T18:48:11.000Z</time>
      </trkpt>
      <trkpt lat="43.28232" lon="-1.85484">
        <ele>91</ele>
        <time>2026-07-12T18:48:11.000Z</time>
      </trkpt>
      <trkpt lat="43.28235" lon="-1.85486">
        <ele>91</ele>
        <time>2026-07-12T18:48:12.000Z</time>
      </trkpt>
      <trkpt lat="43.28237" lon="-1.85489">
        <ele>91</ele>
        <time>2026-07-12T18:48:12.000Z</time>
      </trkpt>
      <trkpt lat="43.28239" lon="-1.85492">
        <ele>91</ele>
        <time>2026-07-12T18:48:13.000Z</time>
      </trkpt>
      <trkpt lat="43.28241" lon="-1.85496">
        <ele>92</ele>
        <time>2026-07-12T18:48:13.000Z</time>
      </trkpt>
      <trkpt lat="43.28243" lon="-1.855">
        <ele>92</ele>
        <time>2026-07-12T18:48:14.000Z</time>
      </trkpt>
      <trkpt lat="43.28244" lon="-1.85504">
        <ele>92</ele>
        <time>2026-07-12T18:48:14.000Z</time>
      </trkpt>
      <trkpt lat="43.28244" lon="-1.85508">
        <ele>93</ele>
        <time>2026-07-12T18:48:15.000Z</time>
      </trkpt>
      <trkpt lat="43.28244" lon="-1.85514">
        <ele>93</ele>
        <time>2026-07-12T18:48:16.000Z</time>
      </trkpt>
      <trkpt lat="43.28244" lon="-1.85518">
        <ele>93</ele>
        <time>2026-07-12T18:48:16.000Z</time>
      </trkpt>
      <trkpt lat="43.28243" lon="-1.85522">
        <ele>94</ele>
        <time>2026-07-12T18:48:17.000Z</time>
      </trkpt>
      <trkpt lat="43.28243" lon="-1.85524">
        <ele>94</ele>
        <time>2026-07-12T18:48:17.000Z</time>
      </trkpt>
      <trkpt lat="43.2823" lon="-1.85569">
        <ele>99</ele>
        <time>2026-07-12T18:48:23.000Z</time>
      </trkpt>
      <trkpt lat="43.28228" lon="-1.85576">
        <ele>100</ele>
        <time>2026-07-12T18:48:24.000Z</time>
      </trkpt>
      <trkpt lat="43.28227" lon="-1.85579">
        <ele>101</ele>
        <time>2026-07-12T18:48:25.000Z</time>
      </trkpt>
      <trkpt lat="43.28227" lon="-1.85583">
        <ele>101</ele>
        <time>2026-07-12T18:48:25.000Z</time>
      </trkpt>
      <trkpt lat="43.28227" lon="-1.85586">
        <ele>102</ele>
        <time>2026-07-12T18:48:26.000Z</time>
      </trkpt>
      <trkpt lat="43.28227" lon="-1.8559">
        <ele>102</ele>
        <time>2026-07-12T18:48:26.000Z</time>
      </trkpt>
      <trkpt lat="43.28228" lon="-1.85593">
        <ele>103</ele>
        <time>2026-07-12T18:48:27.000Z</time>
      </trkpt>
      <trkpt lat="43.28229" lon="-1.85596">
        <ele>103</ele>
        <time>2026-07-12T18:48:27.000Z</time>
      </trkpt>
      <trkpt lat="43.2823" lon="-1.85599">
        <ele>103</ele>
        <time>2026-07-12T18:48:27.000Z</time>
      </trkpt>
      <trkpt lat="43.28231" lon="-1.85601">
        <ele>103</ele>
        <time>2026-07-12T18:48:28.000Z</time>
      </trkpt>
      <trkpt lat="43.28232" lon="-1.85603">
        <ele>103</ele>
        <time>2026-07-12T18:48:28.000Z</time>
      </trkpt>
      <trkpt lat="43.28233" lon="-1.85604">
        <ele>103</ele>
        <time>2026-07-12T18:48:28.000Z</time>
      </trkpt>
      <trkpt lat="43.28235" lon="-1.85606">
        <ele>103</ele>
        <time>2026-07-12T18:48:29.000Z</time>
      </trkpt>
      <trkpt lat="43.28237" lon="-1.85608">
        <ele>103</ele>
        <time>2026-07-12T18:48:29.000Z</time>
      </trkpt>
      <trkpt lat="43.28238" lon="-1.85609">
        <ele>103</ele>
        <time>2026-07-12T18:48:29.000Z</time>
      </trkpt>
      <trkpt lat="43.2824" lon="-1.85609">
        <ele>102</ele>
        <time>2026-07-12T18:48:30.000Z</time>
      </trkpt>
      <trkpt lat="43.28241" lon="-1.8561">
        <ele>102</ele>
        <time>2026-07-12T18:48:30.000Z</time>
      </trkpt>
      <trkpt lat="43.28243" lon="-1.8561">
        <ele>102</ele>
        <time>2026-07-12T18:48:30.000Z</time>
      </trkpt>
      <trkpt lat="43.28244" lon="-1.8561">
        <ele>102</ele>
        <time>2026-07-12T18:48:31.000Z</time>
      </trkpt>
      <trkpt lat="43.28246" lon="-1.8561">
        <ele>101</ele>
        <time>2026-07-12T18:48:31.000Z</time>
      </trkpt>
      <trkpt lat="43.28248" lon="-1.8561">
        <ele>101</ele>
        <time>2026-07-12T18:48:31.000Z</time>
      </trkpt>
      <trkpt lat="43.2825" lon="-1.85609">
        <ele>100</ele>
        <time>2026-07-12T18:48:32.000Z</time>
      </trkpt>
      <trkpt lat="43.28252" lon="-1.85608">
        <ele>100</ele>
        <time>2026-07-12T18:48:32.000Z</time>
      </trkpt>
      <trkpt lat="43.28253" lon="-1.85608">
        <ele>100</ele>
        <time>2026-07-12T18:48:32.000Z</time>
      </trkpt>
      <trkpt lat="43.28255" lon="-1.85607">
        <ele>100</ele>
        <time>2026-07-12T18:48:33.000Z</time>
      </trkpt>
      <trkpt lat="43.28257" lon="-1.85604">
        <ele>99</ele>
        <time>2026-07-12T18:48:33.000Z</time>
      </trkpt>
      <trkpt lat="43.28261" lon="-1.85601">
        <ele>98</ele>
        <time>2026-07-12T18:48:34.000Z</time>
      </trkpt>
      <trkpt lat="43.28273" lon="-1.85589">
        <ele>96</ele>
        <time>2026-07-12T18:48:37.000Z</time>
      </trkpt>
      <trkpt lat="43.28276" lon="-1.85586">
        <ele>95</ele>
        <time>2026-07-12T18:48:37.000Z</time>
      </trkpt>
      <trkpt lat="43.28279" lon="-1.85583">
        <ele>94</ele>
        <time>2026-07-12T18:48:38.000Z</time>
      </trkpt>
      <trkpt lat="43.28283" lon="-1.8558">
        <ele>94</ele>
        <time>2026-07-12T18:48:39.000Z</time>
      </trkpt>
      <trkpt lat="43.28288" lon="-1.85577">
        <ele>93</ele>
        <time>2026-07-12T18:48:40.000Z</time>
      </trkpt>
      <trkpt lat="43.28291" lon="-1.85575">
        <ele>92</ele>
        <time>2026-07-12T18:48:40.000Z</time>
      </trkpt>
      <trkpt lat="43.28294" lon="-1.85574">
        <ele>92</ele>
        <time>2026-07-12T18:48:41.000Z</time>
      </trkpt>
      <trkpt lat="43.28296" lon="-1.85573">
        <ele>92</ele>
        <time>2026-07-12T18:48:41.000Z</time>
      </trkpt>
      <trkpt lat="43.28301" lon="-1.85572">
        <ele>91</ele>
        <time>2026-07-12T18:48:42.000Z</time>
      </trkpt>
      <trkpt lat="43.28307" lon="-1.85571">
        <ele>91</ele>
        <time>2026-07-12T18:48:43.000Z</time>
      </trkpt>
      <trkpt lat="43.28316" lon="-1.8557">
        <ele>90</ele>
        <time>2026-07-12T18:48:45.000Z</time>
      </trkpt>
      <trkpt lat="43.28329" lon="-1.8557">
        <ele>88</ele>
        <time>2026-07-12T18:48:47.000Z</time>
      </trkpt>
      <trkpt lat="43.28364" lon="-1.85569">
        <ele>86</ele>
        <time>2026-07-12T18:48:53.000Z</time>
      </trkpt>
      <trkpt lat="43.2837" lon="-1.85569">
        <ele>85</ele>
        <time>2026-07-12T18:48:54.000Z</time>
      </trkpt>
      <trkpt lat="43.28375" lon="-1.8557">
        <ele>85</ele>
        <time>2026-07-12T18:48:55.000Z</time>
      </trkpt>
      <trkpt lat="43.28379" lon="-1.85571">
        <ele>85</ele>
        <time>2026-07-12T18:48:56.000Z</time>
      </trkpt>
      <trkpt lat="43.28386" lon="-1.85574">
        <ele>85</ele>
        <time>2026-07-12T18:48:57.000Z</time>
      </trkpt>
      <trkpt lat="43.28391" lon="-1.85576">
        <ele>85</ele>
        <time>2026-07-12T18:48:58.000Z</time>
      </trkpt>
      <trkpt lat="43.28395" lon="-1.85579">
        <ele>86</ele>
        <time>2026-07-12T18:48:59.000Z</time>
      </trkpt>
      <trkpt lat="43.28403" lon="-1.85585">
        <ele>86</ele>
        <time>2026-07-12T18:49:01.000Z</time>
      </trkpt>
      <trkpt lat="43.28411" lon="-1.85592">
        <ele>87</ele>
        <time>2026-07-12T18:49:02.000Z</time>
      </trkpt>
      <trkpt lat="43.28419" lon="-1.856">
        <ele>89</ele>
        <time>2026-07-12T18:49:04.000Z</time>
      </trkpt>
      <trkpt lat="43.28425" lon="-1.85605">
        <ele>89</ele>
        <time>2026-07-12T18:49:05.000Z</time>
      </trkpt>
      <trkpt lat="43.28428" lon="-1.85607">
        <ele>90</ele>
        <time>2026-07-12T18:49:06.000Z</time>
      </trkpt>
      <trkpt lat="43.28431" lon="-1.85609">
        <ele>90</ele>
        <time>2026-07-12T18:49:07.000Z</time>
      </trkpt>
      <trkpt lat="43.28435" lon="-1.85611">
        <ele>90</ele>
        <time>2026-07-12T18:49:07.000Z</time>
      </trkpt>
      <trkpt lat="43.28438" lon="-1.85612">
        <ele>90</ele>
        <time>2026-07-12T18:49:08.000Z</time>
      </trkpt>
      <trkpt lat="43.28442" lon="-1.85613">
        <ele>90</ele>
        <time>2026-07-12T18:49:09.000Z</time>
      </trkpt>
      <trkpt lat="43.28446" lon="-1.85614">
        <ele>90</ele>
        <time>2026-07-12T18:49:09.000Z</time>
      </trkpt>
      <trkpt lat="43.2845" lon="-1.85614">
        <ele>90</ele>
        <time>2026-07-12T18:49:10.000Z</time>
      </trkpt>
      <trkpt lat="43.28454" lon="-1.85613">
        <ele>89</ele>
        <time>2026-07-12T18:49:11.000Z</time>
      </trkpt>
      <trkpt lat="43.2846" lon="-1.85612">
        <ele>89</ele>
        <time>2026-07-12T18:49:12.000Z</time>
      </trkpt>
      <trkpt lat="43.28468" lon="-1.8561">
        <ele>88</ele>
        <time>2026-07-12T18:49:13.000Z</time>
      </trkpt>
      <trkpt lat="43.28494" lon="-1.85603">
        <ele>85</ele>
        <time>2026-07-12T18:49:18.000Z</time>
      </trkpt>
      <trkpt lat="43.28506" lon="-1.85599">
        <ele>84</ele>
        <time>2026-07-12T18:49:20.000Z</time>
      </trkpt>
      <trkpt lat="43.2851" lon="-1.85595">
        <ele>84</ele>
        <time>2026-07-12T18:49:21.000Z</time>
      </trkpt>
      <trkpt lat="43.28517" lon="-1.85589">
        <ele>84</ele>
        <time>2026-07-12T18:49:22.000Z</time>
      </trkpt>
      <trkpt lat="43.2852" lon="-1.85585">
        <ele>83</ele>
        <time>2026-07-12T18:49:23.000Z</time>
      </trkpt>
      <trkpt lat="43.28524" lon="-1.85581">
        <ele>83</ele>
        <time>2026-07-12T18:49:24.000Z</time>
      </trkpt>
      <trkpt lat="43.28527" lon="-1.85576">
        <ele>82</ele>
        <time>2026-07-12T18:49:25.000Z</time>
      </trkpt>
      <trkpt lat="43.28534" lon="-1.85566">
        <ele>80</ele>
        <time>2026-07-12T18:49:27.000Z</time>
      </trkpt>
      <trkpt lat="43.28538" lon="-1.8556">
        <ele>79</ele>
        <time>2026-07-12T18:49:28.000Z</time>
      </trkpt>
      <trkpt lat="43.2854" lon="-1.85557">
        <ele>78</ele>
        <time>2026-07-12T18:49:28.000Z</time>
      </trkpt>
      <trkpt lat="43.28541" lon="-1.85555">
        <ele>78</ele>
        <time>2026-07-12T18:49:29.000Z</time>
      </trkpt>
      <trkpt lat="43.28543" lon="-1.85553">
        <ele>78</ele>
        <time>2026-07-12T18:49:29.000Z</time>
      </trkpt>
      <trkpt lat="43.28547" lon="-1.8555">
        <ele>77</ele>
        <time>2026-07-12T18:49:30.000Z</time>
      </trkpt>
      <trkpt lat="43.28551" lon="-1.85547">
        <ele>77</ele>
        <time>2026-07-12T18:49:31.000Z</time>
      </trkpt>
      <trkpt lat="43.28556" lon="-1.85544">
        <ele>76</ele>
        <time>2026-07-12T18:49:32.000Z</time>
      </trkpt>
      <trkpt lat="43.28562" lon="-1.8554">
        <ele>75</ele>
        <time>2026-07-12T18:49:33.000Z</time>
      </trkpt>
      <trkpt lat="43.28567" lon="-1.85537">
        <ele>75</ele>
        <time>2026-07-12T18:49:34.000Z</time>
      </trkpt>
      <trkpt lat="43.28573" lon="-1.85534">
        <ele>74</ele>
        <time>2026-07-12T18:49:35.000Z</time>
      </trkpt>
      <trkpt lat="43.28579" lon="-1.8553">
        <ele>73</ele>
        <time>2026-07-12T18:49:36.000Z</time>
      </trkpt>
      <trkpt lat="43.28582" lon="-1.85527">
        <ele>73</ele>
        <time>2026-07-12T18:49:37.000Z</time>
      </trkpt>
      <trkpt lat="43.28587" lon="-1.85523">
        <ele>72</ele>
        <time>2026-07-12T18:49:38.000Z</time>
      </trkpt>
      <trkpt lat="43.2859" lon="-1.8552">
        <ele>71</ele>
        <time>2026-07-12T18:49:39.000Z</time>
      </trkpt>
      <trkpt lat="43.28599" lon="-1.8551">
        <ele>68</ele>
        <time>2026-07-12T18:49:41.000Z</time>
      </trkpt>
      <trkpt lat="43.28603" lon="-1.85507">
        <ele>67</ele>
        <time>2026-07-12T18:49:41.000Z</time>
      </trkpt>
      <trkpt lat="43.28608" lon="-1.85503">
        <ele>66</ele>
        <time>2026-07-12T18:49:42.000Z</time>
      </trkpt>
      <trkpt lat="43.28611" lon="-1.855">
        <ele>65</ele>
        <time>2026-07-12T18:49:43.000Z</time>
      </trkpt>
      <trkpt lat="43.28614" lon="-1.85498">
        <ele>65</ele>
        <time>2026-07-12T18:49:44.000Z</time>
      </trkpt>
      <trkpt lat="43.28616" lon="-1.85497">
        <ele>65</ele>
        <time>2026-07-12T18:49:44.000Z</time>
      </trkpt>
      <trkpt lat="43.28618" lon="-1.85495">
        <ele>65</ele>
        <time>2026-07-12T18:49:44.000Z</time>
      </trkpt>
      <trkpt lat="43.28621" lon="-1.85493">
        <ele>65</ele>
        <time>2026-07-12T18:49:45.000Z</time>
      </trkpt>
      <trkpt lat="43.28623" lon="-1.85492">
        <ele>65</ele>
        <time>2026-07-12T18:49:45.000Z</time>
      </trkpt>
      <trkpt lat="43.28627" lon="-1.85491">
        <ele>66</ele>
        <time>2026-07-12T18:49:46.000Z</time>
      </trkpt>
      <trkpt lat="43.28637" lon="-1.85489">
        <ele>66</ele>
        <time>2026-07-12T18:49:48.000Z</time>
      </trkpt>
      <trkpt lat="43.28641" lon="-1.85488">
        <ele>66</ele>
        <time>2026-07-12T18:49:49.000Z</time>
      </trkpt>
      <trkpt lat="43.28649" lon="-1.85488">
        <ele>66</ele>
        <time>2026-07-12T18:49:50.000Z</time>
      </trkpt>
      <trkpt lat="43.28654" lon="-1.85488">
        <ele>66</ele>
        <time>2026-07-12T18:49:51.000Z</time>
      </trkpt>
      <trkpt lat="43.28665" lon="-1.85488">
        <ele>66</ele>
        <time>2026-07-12T18:49:53.000Z</time>
      </trkpt>
      <trkpt lat="43.28674" lon="-1.85488">
        <ele>66</ele>
        <time>2026-07-12T18:49:55.000Z</time>
      </trkpt>
      <trkpt lat="43.28682" lon="-1.8549">
        <ele>65</ele>
        <time>2026-07-12T18:49:56.000Z</time>
      </trkpt>
      <trkpt lat="43.2869" lon="-1.85492">
        <ele>65</ele>
        <time>2026-07-12T18:49:57.000Z</time>
      </trkpt>
      <trkpt lat="43.28719" lon="-1.85503">
        <ele>63</ele>
        <time>2026-07-12T18:50:03.000Z</time>
      </trkpt>
      <trkpt lat="43.28725" lon="-1.85506">
        <ele>64</ele>
        <time>2026-07-12T18:50:04.000Z</time>
      </trkpt>
      <trkpt lat="43.28731" lon="-1.85509">
        <ele>64</ele>
        <time>2026-07-12T18:50:05.000Z</time>
      </trkpt>
      <trkpt lat="43.28736" lon="-1.85515">
        <ele>64</ele>
        <time>2026-07-12T18:50:06.000Z</time>
      </trkpt>
      <trkpt lat="43.28744" lon="-1.85524">
        <ele>64</ele>
        <time>2026-07-12T18:50:08.000Z</time>
      </trkpt>
      <trkpt lat="43.28748" lon="-1.85532">
        <ele>65</ele>
        <time>2026-07-12T18:50:09.000Z</time>
      </trkpt>
      <trkpt lat="43.28753" lon="-1.8554">
        <ele>65</ele>
        <time>2026-07-12T18:50:11.000Z</time>
      </trkpt>
      <trkpt lat="43.28758" lon="-1.8555">
        <ele>65</ele>
        <time>2026-07-12T18:50:12.000Z</time>
      </trkpt>
      <trkpt lat="43.28777" lon="-1.85584">
        <ele>64</ele>
        <time>2026-07-12T18:50:18.000Z</time>
      </trkpt>
      <trkpt lat="43.2878" lon="-1.85589">
        <ele>65</ele>
        <time>2026-07-12T18:50:19.000Z</time>
      </trkpt>
      <trkpt lat="43.2879" lon="-1.85602">
        <ele>67</ele>
        <time>2026-07-12T18:50:21.000Z</time>
      </trkpt>
      <trkpt lat="43.28799" lon="-1.85612">
        <ele>68</ele>
        <time>2026-07-12T18:50:23.000Z</time>
      </trkpt>
      <trkpt lat="43.2881" lon="-1.85623">
        <ele>68</ele>
        <time>2026-07-12T18:50:26.000Z</time>
      </trkpt>
      <trkpt lat="43.28835" lon="-1.85647">
        <ele>65</ele>
        <time>2026-07-12T18:50:31.000Z</time>
      </trkpt>
      <trkpt lat="43.28842" lon="-1.85652">
        <ele>65</ele>
        <time>2026-07-12T18:50:32.000Z</time>
      </trkpt>
      <trkpt lat="43.28846" lon="-1.85655">
        <ele>65</ele>
        <time>2026-07-12T18:50:33.000Z</time>
      </trkpt>
      <trkpt lat="43.28851" lon="-1.85658">
        <ele>64</ele>
        <time>2026-07-12T18:50:34.000Z</time>
      </trkpt>
      <trkpt lat="43.28856" lon="-1.8566">
        <ele>63</ele>
        <time>2026-07-12T18:50:35.000Z</time>
      </trkpt>
      <trkpt lat="43.28864" lon="-1.85663">
        <ele>62</ele>
        <time>2026-07-12T18:50:37.000Z</time>
      </trkpt>
      <trkpt lat="43.28869" lon="-1.85665">
        <ele>61</ele>
        <time>2026-07-12T18:50:38.000Z</time>
      </trkpt>
      <trkpt lat="43.28874" lon="-1.85666">
        <ele>60</ele>
        <time>2026-07-12T18:50:38.000Z</time>
      </trkpt>
      <trkpt lat="43.28882" lon="-1.85667">
        <ele>58</ele>
        <time>2026-07-12T18:50:40.000Z</time>
      </trkpt>
      <trkpt lat="43.2889" lon="-1.85667">
        <ele>57</ele>
        <time>2026-07-12T18:50:41.000Z</time>
      </trkpt>
      <trkpt lat="43.28895" lon="-1.85666">
        <ele>55</ele>
        <time>2026-07-12T18:50:42.000Z</time>
      </trkpt>
      <trkpt lat="43.289" lon="-1.85666">
        <ele>54</ele>
        <time>2026-07-12T18:50:43.000Z</time>
      </trkpt>
      <trkpt lat="43.28903" lon="-1.85664">
        <ele>53</ele>
        <time>2026-07-12T18:50:44.000Z</time>
      </trkpt>
      <trkpt lat="43.28907" lon="-1.85662">
        <ele>52</ele>
        <time>2026-07-12T18:50:44.000Z</time>
      </trkpt>
      <trkpt lat="43.28913" lon="-1.85658">
        <ele>50</ele>
        <time>2026-07-12T18:50:46.000Z</time>
      </trkpt>
      <trkpt lat="43.28931" lon="-1.85648">
        <ele>47</ele>
        <time>2026-07-12T18:50:49.000Z</time>
      </trkpt>
      <trkpt lat="43.28934" lon="-1.85646">
        <ele>47</ele>
        <time>2026-07-12T18:50:50.000Z</time>
      </trkpt>
      <trkpt lat="43.28937" lon="-1.85645">
        <ele>47</ele>
        <time>2026-07-12T18:50:50.000Z</time>
      </trkpt>
      <trkpt lat="43.28941" lon="-1.85644">
        <ele>47</ele>
        <time>2026-07-12T18:50:51.000Z</time>
      </trkpt>
      <trkpt lat="43.28945" lon="-1.85643">
        <ele>46</ele>
        <time>2026-07-12T18:50:52.000Z</time>
      </trkpt>
      <trkpt lat="43.28949" lon="-1.85643">
        <ele>46</ele>
        <time>2026-07-12T18:50:52.000Z</time>
      </trkpt>
      <trkpt lat="43.28952" lon="-1.85642">
        <ele>46</ele>
        <time>2026-07-12T18:50:53.000Z</time>
      </trkpt>
      <trkpt lat="43.28956" lon="-1.85643">
        <ele>46</ele>
        <time>2026-07-12T18:50:54.000Z</time>
      </trkpt>
      <trkpt lat="43.28986" lon="-1.85646">
        <ele>44</ele>
        <time>2026-07-12T18:50:59.000Z</time>
      </trkpt>
      <trkpt lat="43.29079" lon="-1.85654">
        <ele>40</ele>
        <time>2026-07-12T18:51:16.000Z</time>
      </trkpt>
      <trkpt lat="43.29084" lon="-1.85655">
        <ele>40</ele>
        <time>2026-07-12T18:51:17.000Z</time>
      </trkpt>
      <trkpt lat="43.29088" lon="-1.85655">
        <ele>39</ele>
        <time>2026-07-12T18:51:17.000Z</time>
      </trkpt>
      <trkpt lat="43.29092" lon="-1.85657">
        <ele>39</ele>
        <time>2026-07-12T18:51:18.000Z</time>
      </trkpt>
      <trkpt lat="43.29095" lon="-1.85658">
        <ele>39</ele>
        <time>2026-07-12T18:51:19.000Z</time>
      </trkpt>
      <trkpt lat="43.29099" lon="-1.85659">
        <ele>39</ele>
        <time>2026-07-12T18:51:19.000Z</time>
      </trkpt>
      <trkpt lat="43.29105" lon="-1.85661">
        <ele>39</ele>
        <time>2026-07-12T18:51:20.000Z</time>
      </trkpt>
      <trkpt lat="43.2911" lon="-1.85663">
        <ele>39</ele>
        <time>2026-07-12T18:51:21.000Z</time>
      </trkpt>
      <trkpt lat="43.29113" lon="-1.85664">
        <ele>39</ele>
        <time>2026-07-12T18:51:22.000Z</time>
      </trkpt>
      <trkpt lat="43.2912" lon="-1.85665">
        <ele>39</ele>
        <time>2026-07-12T18:51:23.000Z</time>
      </trkpt>
      <trkpt lat="43.29125" lon="-1.85665">
        <ele>38</ele>
        <time>2026-07-12T18:51:24.000Z</time>
      </trkpt>
      <trkpt lat="43.2913" lon="-1.85664">
        <ele>38</ele>
        <time>2026-07-12T18:51:25.000Z</time>
      </trkpt>
      <trkpt lat="43.29135" lon="-1.85663">
        <ele>38</ele>
        <time>2026-07-12T18:51:26.000Z</time>
      </trkpt>
      <trkpt lat="43.29162" lon="-1.85657">
        <ele>37</ele>
        <time>2026-07-12T18:51:31.000Z</time>
      </trkpt>
      <trkpt lat="43.29172" lon="-1.85655">
        <ele>37</ele>
        <time>2026-07-12T18:51:32.000Z</time>
      </trkpt>
      <trkpt lat="43.29176" lon="-1.85654">
        <ele>37</ele>
        <time>2026-07-12T18:51:33.000Z</time>
      </trkpt>
      <trkpt lat="43.29179" lon="-1.85654">
        <ele>37</ele>
        <time>2026-07-12T18:51:34.000Z</time>
      </trkpt>
      <trkpt lat="43.29181" lon="-1.85654">
        <ele>37</ele>
        <time>2026-07-12T18:51:34.000Z</time>
      </trkpt>
      <trkpt lat="43.29184" lon="-1.85654">
        <ele>36</ele>
        <time>2026-07-12T18:51:35.000Z</time>
      </trkpt>
      <trkpt lat="43.29186" lon="-1.85654">
        <ele>36</ele>
        <time>2026-07-12T18:51:35.000Z</time>
      </trkpt>
      <trkpt lat="43.29189" lon="-1.85654">
        <ele>36</ele>
        <time>2026-07-12T18:51:35.000Z</time>
      </trkpt>
      <trkpt lat="43.29192" lon="-1.85655">
        <ele>36</ele>
        <time>2026-07-12T18:51:36.000Z</time>
      </trkpt>
      <trkpt lat="43.29195" lon="-1.85656">
        <ele>36</ele>
        <time>2026-07-12T18:51:37.000Z</time>
      </trkpt>
      <trkpt lat="43.292" lon="-1.85659">
        <ele>36</ele>
        <time>2026-07-12T18:51:38.000Z</time>
      </trkpt>
      <trkpt lat="43.292" lon="-1.85659">
        <ele>36</ele>
        <time>2026-07-12T18:51:38.000Z</time>
      </trkpt>
      <trkpt lat="43.29205" lon="-1.85655">
        <ele>36</ele>
        <time>2026-07-12T18:51:39.000Z</time>
      </trkpt>
      <trkpt lat="43.29207" lon="-1.85653">
        <ele>36</ele>
        <time>2026-07-12T18:51:39.000Z</time>
      </trkpt>
      <trkpt lat="43.29209" lon="-1.85652">
        <ele>36</ele>
        <time>2026-07-12T18:51:39.000Z</time>
      </trkpt>
      <trkpt lat="43.29211" lon="-1.85652">
        <ele>36</ele>
        <time>2026-07-12T18:51:40.000Z</time>
      </trkpt>
      <trkpt lat="43.29213" lon="-1.85651">
        <ele>36</ele>
        <time>2026-07-12T18:51:40.000Z</time>
      </trkpt>
      <trkpt lat="43.29217" lon="-1.85651">
        <ele>36</ele>
        <time>2026-07-12T18:51:41.000Z</time>
      </trkpt>
      <trkpt lat="43.2922" lon="-1.8565">
        <ele>36</ele>
        <time>2026-07-12T18:51:41.000Z</time>
      </trkpt>
      <trkpt lat="43.29222" lon="-1.8565">
        <ele>36</ele>
        <time>2026-07-12T18:51:42.000Z</time>
      </trkpt>
      <trkpt lat="43.29226" lon="-1.8565">
        <ele>36</ele>
        <time>2026-07-12T18:51:42.000Z</time>
      </trkpt>
      <trkpt lat="43.29237" lon="-1.85649">
        <ele>36</ele>
        <time>2026-07-12T18:51:44.000Z</time>
      </trkpt>
      <trkpt lat="43.29237" lon="-1.85649">
        <ele>36</ele>
        <time>2026-07-12T18:51:44.000Z</time>
      </trkpt>
      <trkpt lat="43.2924" lon="-1.85623">
        <ele>35</ele>
        <time>2026-07-12T18:51:48.000Z</time>
      </trkpt>
      <trkpt lat="43.29242" lon="-1.8561">
        <ele>35</ele>
        <time>2026-07-12T18:51:50.000Z</time>
      </trkpt>
      <trkpt lat="43.29243" lon="-1.85606">
        <ele>35</ele>
        <time>2026-07-12T18:51:50.000Z</time>
      </trkpt>
      <trkpt lat="43.29244" lon="-1.85603">
        <ele>35</ele>
        <time>2026-07-12T18:51:51.000Z</time>
      </trkpt>
      <trkpt lat="43.29246" lon="-1.856">
        <ele>34</ele>
        <time>2026-07-12T18:51:51.000Z</time>
      </trkpt>
      <trkpt lat="43.29247" lon="-1.85598">
        <ele>34</ele>
        <time>2026-07-12T18:51:51.000Z</time>
      </trkpt>
      <trkpt lat="43.29249" lon="-1.85596">
        <ele>34</ele>
        <time>2026-07-12T18:51:52.000Z</time>
      </trkpt>
      <trkpt lat="43.29273" lon="-1.85573">
        <ele>34</ele>
        <time>2026-07-12T18:51:57.000Z</time>
      </trkpt>
      <trkpt lat="43.29278" lon="-1.85568">
        <ele>34</ele>
        <time>2026-07-12T18:51:58.000Z</time>
      </trkpt>
      <trkpt lat="43.29283" lon="-1.85564">
        <ele>33</ele>
        <time>2026-07-12T18:51:59.000Z</time>
      </trkpt>
      <trkpt lat="43.29287" lon="-1.85561">
        <ele>33</ele>
        <time>2026-07-12T18:52:00.000Z</time>
      </trkpt>
      <trkpt lat="43.29291" lon="-1.85559">
        <ele>33</ele>
        <time>2026-07-12T18:52:01.000Z</time>
      </trkpt>
      <trkpt lat="43.29291" lon="-1.85559">
        <ele>33</ele>
        <time>2026-07-12T18:52:01.000Z</time>
      </trkpt>
      <trkpt lat="43.29295" lon="-1.85559">
        <ele>33</ele>
        <time>2026-07-12T18:52:01.000Z</time>
      </trkpt>
      <trkpt lat="43.29297" lon="-1.85559">
        <ele>33</ele>
        <time>2026-07-12T18:52:02.000Z</time>
      </trkpt>
      <trkpt lat="43.29298" lon="-1.85559">
        <ele>33</ele>
        <time>2026-07-12T18:52:02.000Z</time>
      </trkpt>
      <trkpt lat="43.293" lon="-1.85559">
        <ele>33</ele>
        <time>2026-07-12T18:52:02.000Z</time>
      </trkpt>
      <trkpt lat="43.29301" lon="-1.85559">
        <ele>33</ele>
        <time>2026-07-12T18:52:02.000Z</time>
      </trkpt>
      <trkpt lat="43.29303" lon="-1.85559">
        <ele>33</ele>
        <time>2026-07-12T18:52:03.000Z</time>
      </trkpt>
      <trkpt lat="43.29323" lon="-1.85565">
        <ele>33</ele>
        <time>2026-07-12T18:52:06.000Z</time>
      </trkpt>
      <trkpt lat="43.29329" lon="-1.85567">
        <ele>33</ele>
        <time>2026-07-12T18:52:08.000Z</time>
      </trkpt>
      <trkpt lat="43.29332" lon="-1.85568">
        <ele>33</ele>
        <time>2026-07-12T18:52:08.000Z</time>
      </trkpt>
      <trkpt lat="43.29335" lon="-1.8557">
        <ele>33</ele>
        <time>2026-07-12T18:52:09.000Z</time>
      </trkpt>
      <trkpt lat="43.29338" lon="-1.85571">
        <ele>33</ele>
        <time>2026-07-12T18:52:09.000Z</time>
      </trkpt>
      <trkpt lat="43.29346" lon="-1.85576">
        <ele>33</ele>
        <time>2026-07-12T18:52:11.000Z</time>
      </trkpt>
      <trkpt lat="43.29347" lon="-1.85577">
        <ele>33</ele>
        <time>2026-07-12T18:52:11.000Z</time>
      </trkpt>
      <trkpt lat="43.29349" lon="-1.85578">
        <ele>33</ele>
        <time>2026-07-12T18:52:11.000Z</time>
      </trkpt>
      <trkpt lat="43.2935" lon="-1.85578">
        <ele>33</ele>
        <time>2026-07-12T18:52:12.000Z</time>
      </trkpt>
      <trkpt lat="43.29351" lon="-1.85578">
        <ele>33</ele>
        <time>2026-07-12T18:52:12.000Z</time>
      </trkpt>
      <trkpt lat="43.29351" lon="-1.85578">
        <ele>33</ele>
        <time>2026-07-12T18:52:12.000Z</time>
      </trkpt>
      <trkpt lat="43.29353" lon="-1.85578">
        <ele>32</ele>
        <time>2026-07-12T18:52:12.000Z</time>
      </trkpt>
      <trkpt lat="43.29354" lon="-1.85578">
        <ele>32</ele>
        <time>2026-07-12T18:52:12.000Z</time>
      </trkpt>
      <trkpt lat="43.29355" lon="-1.85577">
        <ele>32</ele>
        <time>2026-07-12T18:52:13.000Z</time>
      </trkpt>
      <trkpt lat="43.29356" lon="-1.85576">
        <ele>32</ele>
        <time>2026-07-12T18:52:13.000Z</time>
      </trkpt>
      <trkpt lat="43.29357" lon="-1.85575">
        <ele>32</ele>
        <time>2026-07-12T18:52:13.000Z</time>
      </trkpt>
      <trkpt lat="43.29357" lon="-1.85574">
        <ele>32</ele>
        <time>2026-07-12T18:52:13.000Z</time>
      </trkpt>
      <trkpt lat="43.29374" lon="-1.8555">
        <ele>32</ele>
        <time>2026-07-12T18:52:17.000Z</time>
      </trkpt>
      <trkpt lat="43.29387" lon="-1.85528">
        <ele>32</ele>
        <time>2026-07-12T18:52:21.000Z</time>
      </trkpt>
      <trkpt lat="43.29391" lon="-1.85522">
        <ele>32</ele>
        <time>2026-07-12T18:52:22.000Z</time>
      </trkpt>
      <trkpt lat="43.29392" lon="-1.8552">
        <ele>32</ele>
        <time>2026-07-12T18:52:23.000Z</time>
      </trkpt>
      <trkpt lat="43.29392" lon="-1.85519">
        <ele>32</ele>
        <time>2026-07-12T18:52:23.000Z</time>
      </trkpt>
      <trkpt lat="43.29393" lon="-1.85518">
        <ele>32</ele>
        <time>2026-07-12T18:52:23.000Z</time>
      </trkpt>
      <trkpt lat="43.29393" lon="-1.85518">
        <ele>32</ele>
        <time>2026-07-12T18:52:23.000Z</time>
      </trkpt>
      <trkpt lat="43.29395" lon="-1.85507">
        <ele>32</ele>
        <time>2026-07-12T18:52:24.000Z</time>
      </trkpt>
      <trkpt lat="43.29399" lon="-1.85495">
        <ele>33</ele>
        <time>2026-07-12T18:52:26.000Z</time>
      </trkpt>
      <trkpt lat="43.29406" lon="-1.85474">
        <ele>33</ele>
        <time>2026-07-12T18:52:29.000Z</time>
      </trkpt>
      <trkpt lat="43.29408" lon="-1.85469">
        <ele>33</ele>
        <time>2026-07-12T18:52:30.000Z</time>
      </trkpt>
      <trkpt lat="43.29411" lon="-1.85462">
        <ele>33</ele>
        <time>2026-07-12T18:52:31.000Z</time>
      </trkpt>
      <trkpt lat="43.29412" lon="-1.85459">
        <ele>33</ele>
        <time>2026-07-12T18:52:31.000Z</time>
      </trkpt>
      <trkpt lat="43.29415" lon="-1.85456">
        <ele>33</ele>
        <time>2026-07-12T18:52:32.000Z</time>
      </trkpt>
      <trkpt lat="43.29417" lon="-1.85453">
        <ele>33</ele>
        <time>2026-07-12T18:52:32.000Z</time>
      </trkpt>
      <trkpt lat="43.2942" lon="-1.85449">
        <ele>33</ele>
        <time>2026-07-12T18:52:33.000Z</time>
      </trkpt>
      <trkpt lat="43.29422" lon="-1.85447">
        <ele>33</ele>
        <time>2026-07-12T18:52:34.000Z</time>
      </trkpt>
      <trkpt lat="43.29424" lon="-1.85446">
        <ele>33</ele>
        <time>2026-07-12T18:52:34.000Z</time>
      </trkpt>
      <trkpt lat="43.29425" lon="-1.85445">
        <ele>33</ele>
        <time>2026-07-12T18:52:34.000Z</time>
      </trkpt>
      <trkpt lat="43.29427" lon="-1.85443">
        <ele>34</ele>
        <time>2026-07-12T18:52:35.000Z</time>
      </trkpt>
      <trkpt lat="43.29431" lon="-1.85431">
        <ele>34</ele>
        <time>2026-07-12T18:52:36.000Z</time>
      </trkpt>
      <trkpt lat="43.2944" lon="-1.85404">
        <ele>35</ele>
        <time>2026-07-12T18:52:40.000Z</time>
      </trkpt>
      <trkpt lat="43.29442" lon="-1.85399">
        <ele>35</ele>
        <time>2026-07-12T18:52:41.000Z</time>
      </trkpt>
      <trkpt lat="43.29451" lon="-1.85373">
        <ele>35</ele>
        <time>2026-07-12T18:52:45.000Z</time>
      </trkpt>
      <trkpt lat="43.29452" lon="-1.85369">
        <ele>35</ele>
        <time>2026-07-12T18:52:45.000Z</time>
      </trkpt>
      <trkpt lat="43.29453" lon="-1.85365">
        <ele>36</ele>
        <time>2026-07-12T18:52:46.000Z</time>
      </trkpt>
      <trkpt lat="43.29454" lon="-1.8536">
        <ele>36</ele>
        <time>2026-07-12T18:52:46.000Z</time>
      </trkpt>
      <trkpt lat="43.29454" lon="-1.8536">
        <ele>36</ele>
        <time>2026-07-12T18:52:46.000Z</time>
      </trkpt>
      <trkpt lat="43.29457" lon="-1.85355">
        <ele>36</ele>
        <time>2026-07-12T18:52:47.000Z</time>
      </trkpt>
      <trkpt lat="43.29457" lon="-1.85354">
        <ele>36</ele>
        <time>2026-07-12T18:52:47.000Z</time>
      </trkpt>
      <trkpt lat="43.29458" lon="-1.85352">
        <ele>36</ele>
        <time>2026-07-12T18:52:48.000Z</time>
      </trkpt>
      <trkpt lat="43.29458" lon="-1.8535">
        <ele>36</ele>
        <time>2026-07-12T18:52:48.000Z</time>
      </trkpt>
      <trkpt lat="43.29459" lon="-1.85348">
        <ele>36</ele>
        <time>2026-07-12T18:52:48.000Z</time>
      </trkpt>
      <trkpt lat="43.29459" lon="-1.85345">
        <ele>36</ele>
        <time>2026-07-12T18:52:49.000Z</time>
      </trkpt>
      <trkpt lat="43.2946" lon="-1.85339">
        <ele>36</ele>
        <time>2026-07-12T18:52:49.000Z</time>
      </trkpt>
      <trkpt lat="43.29461" lon="-1.85334">
        <ele>36</ele>
        <time>2026-07-12T18:52:50.000Z</time>
      </trkpt>
      <trkpt lat="43.29462" lon="-1.85329">
        <ele>36</ele>
        <time>2026-07-12T18:52:51.000Z</time>
      </trkpt>
      <trkpt lat="43.29466" lon="-1.85315">
        <ele>36</ele>
        <time>2026-07-12T18:52:53.000Z</time>
      </trkpt>
      <trkpt lat="43.29468" lon="-1.85306">
        <ele>36</ele>
        <time>2026-07-12T18:52:54.000Z</time>
      </trkpt>
      <trkpt lat="43.29473" lon="-1.8529">
        <ele>37</ele>
        <time>2026-07-12T18:52:56.000Z</time>
      </trkpt>
      <trkpt lat="43.29476" lon="-1.8528">
        <ele>37</ele>
        <time>2026-07-12T18:52:58.000Z</time>
      </trkpt>
      <trkpt lat="43.29476" lon="-1.85278">
        <ele>37</ele>
        <time>2026-07-12T18:52:58.000Z</time>
      </trkpt>
      <trkpt lat="43.29477" lon="-1.85276">
        <ele>37</ele>
        <time>2026-07-12T18:52:58.000Z</time>
      </trkpt>
      <trkpt lat="43.29477" lon="-1.85273">
        <ele>37</ele>
        <time>2026-07-12T18:52:59.000Z</time>
      </trkpt>
      <trkpt lat="43.29477" lon="-1.8527">
        <ele>37</ele>
        <time>2026-07-12T18:52:59.000Z</time>
      </trkpt>
      <trkpt lat="43.29476" lon="-1.85259">
        <ele>37</ele>
        <time>2026-07-12T18:53:00.000Z</time>
      </trkpt>
      <trkpt lat="43.29476" lon="-1.85245">
        <ele>37</ele>
        <time>2026-07-12T18:53:02.000Z</time>
      </trkpt>
      <trkpt lat="43.29476" lon="-1.85238">
        <ele>37</ele>
        <time>2026-07-12T18:53:03.000Z</time>
      </trkpt>
      <trkpt lat="43.29476" lon="-1.85234">
        <ele>37</ele>
        <time>2026-07-12T18:53:04.000Z</time>
      </trkpt>
      <trkpt lat="43.29476" lon="-1.8523">
        <ele>37</ele>
        <time>2026-07-12T18:53:04.000Z</time>
      </trkpt>
      <trkpt lat="43.29476" lon="-1.85223">
        <ele>38</ele>
        <time>2026-07-12T18:53:05.000Z</time>
      </trkpt>
      <trkpt lat="43.29477" lon="-1.85219">
        <ele>38</ele>
        <time>2026-07-12T18:53:06.000Z</time>
      </trkpt>
      <trkpt lat="43.29478" lon="-1.85215">
        <ele>38</ele>
        <time>2026-07-12T18:53:06.000Z</time>
      </trkpt>
      <trkpt lat="43.29479" lon="-1.85211">
        <ele>38</ele>
        <time>2026-07-12T18:53:07.000Z</time>
      </trkpt>
      <trkpt lat="43.2948" lon="-1.85208">
        <ele>38</ele>
        <time>2026-07-12T18:53:07.000Z</time>
      </trkpt>
      <trkpt lat="43.29482" lon="-1.85206">
        <ele>38</ele>
        <time>2026-07-12T18:53:08.000Z</time>
      </trkpt>
      <trkpt lat="43.29485" lon="-1.85202">
        <ele>39</ele>
        <time>2026-07-12T18:53:08.000Z</time>
      </trkpt>
      <trkpt lat="43.2949" lon="-1.85198">
        <ele>39</ele>
        <time>2026-07-12T18:53:09.000Z</time>
      </trkpt>
      <trkpt lat="43.29522" lon="-1.85176">
        <ele>42</ele>
        <time>2026-07-12T18:53:16.000Z</time>
      </trkpt>
      <trkpt lat="43.29524" lon="-1.85175">
        <ele>43</ele>
        <time>2026-07-12T18:53:16.000Z</time>
      </trkpt>
      <trkpt lat="43.29527" lon="-1.85174">
        <ele>43</ele>
        <time>2026-07-12T18:53:17.000Z</time>
      </trkpt>
      <trkpt lat="43.29533" lon="-1.85173">
        <ele>43</ele>
        <time>2026-07-12T18:53:18.000Z</time>
      </trkpt>
      <trkpt lat="43.29544" lon="-1.85173">
        <ele>44</ele>
        <time>2026-07-12T18:53:20.000Z</time>
      </trkpt>
      <trkpt lat="43.2955" lon="-1.85172">
        <ele>45</ele>
        <time>2026-07-12T18:53:21.000Z</time>
      </trkpt>
      <trkpt lat="43.29555" lon="-1.8517">
        <ele>45</ele>
        <time>2026-07-12T18:53:22.000Z</time>
      </trkpt>
      <trkpt lat="43.29568" lon="-1.85163">
        <ele>47</ele>
        <time>2026-07-12T18:53:24.000Z</time>
      </trkpt>
      <trkpt lat="43.29571" lon="-1.85161">
        <ele>47</ele>
        <time>2026-07-12T18:53:25.000Z</time>
      </trkpt>
      <trkpt lat="43.29573" lon="-1.85159">
        <ele>48</ele>
        <time>2026-07-12T18:53:25.000Z</time>
      </trkpt>
      <trkpt lat="43.29575" lon="-1.85158">
        <ele>48</ele>
        <time>2026-07-12T18:53:26.000Z</time>
      </trkpt>
      <trkpt lat="43.29575" lon="-1.85158">
        <ele>48</ele>
        <time>2026-07-12T18:53:26.000Z</time>
      </trkpt>
      <trkpt lat="43.2958" lon="-1.85163">
        <ele>48</ele>
        <time>2026-07-12T18:53:27.000Z</time>
      </trkpt>
      <trkpt lat="43.2958" lon="-1.85163">
        <ele>48</ele>
        <time>2026-07-12T18:53:27.000Z</time>
      </trkpt>
      <trkpt lat="43.29593" lon="-1.85151">
        <ele>49</ele>
        <time>2026-07-12T18:53:29.000Z</time>
      </trkpt>
      <trkpt lat="43.29599" lon="-1.85141">
        <ele>50</ele>
        <time>2026-07-12T18:53:31.000Z</time>
      </trkpt>
      <trkpt lat="43.29602" lon="-1.85134">
        <ele>50</ele>
        <time>2026-07-12T18:53:32.000Z</time>
      </trkpt>
      <trkpt lat="43.29602" lon="-1.85129">
        <ele>51</ele>
        <time>2026-07-12T18:53:33.000Z</time>
      </trkpt>
      <trkpt lat="43.29602" lon="-1.85109">
        <ele>53</ele>
        <time>2026-07-12T18:53:35.000Z</time>
      </trkpt>
      <trkpt lat="43.29602" lon="-1.85083">
        <ele>55</ele>
        <time>2026-07-12T18:53:39.000Z</time>
      </trkpt>
      <trkpt lat="43.29606" lon="-1.85057">
        <ele>57</ele>
        <time>2026-07-12T18:53:42.000Z</time>
      </trkpt>
      <trkpt lat="43.29607" lon="-1.8505">
        <ele>58</ele>
        <time>2026-07-12T18:53:43.000Z</time>
      </trkpt>
      <trkpt lat="43.29609" lon="-1.8504">
        <ele>59</ele>
        <time>2026-07-12T18:53:45.000Z</time>
      </trkpt>
      <trkpt lat="43.29615" lon="-1.85017">
        <ele>61</ele>
        <time>2026-07-12T18:53:48.000Z</time>
      </trkpt>
      <trkpt lat="43.29622" lon="-1.84998">
        <ele>63</ele>
        <time>2026-07-12T18:53:50.000Z</time>
      </trkpt>
      <trkpt lat="43.2963" lon="-1.84978">
        <ele>64</ele>
        <time>2026-07-12T18:53:53.000Z</time>
      </trkpt>
      <trkpt lat="43.29637" lon="-1.84963">
        <ele>65</ele>
        <time>2026-07-12T18:53:56.000Z</time>
      </trkpt>
      <trkpt lat="43.29642" lon="-1.84954">
        <ele>66</ele>
        <time>2026-07-12T18:53:57.000Z</time>
      </trkpt>
      <trkpt lat="43.29649" lon="-1.84947">
        <ele>67</ele>
        <time>2026-07-12T18:53:59.000Z</time>
      </trkpt>
      <trkpt lat="43.29654" lon="-1.84941">
        <ele>67</ele>
        <time>2026-07-12T18:54:00.000Z</time>
      </trkpt>
      <trkpt lat="43.29665" lon="-1.84934">
        <ele>69</ele>
        <time>2026-07-12T18:54:02.000Z</time>
      </trkpt>
      <trkpt lat="43.2967" lon="-1.84931">
        <ele>69</ele>
        <time>2026-07-12T18:54:03.000Z</time>
      </trkpt>
      <trkpt lat="43.29682" lon="-1.84924">
        <ele>70</ele>
        <time>2026-07-12T18:54:05.000Z</time>
      </trkpt>
      <trkpt lat="43.29696" lon="-1.84916">
        <ele>71</ele>
        <time>2026-07-12T18:54:08.000Z</time>
      </trkpt>
      <trkpt lat="43.29704" lon="-1.84914">
        <ele>71</ele>
        <time>2026-07-12T18:54:10.000Z</time>
      </trkpt>
      <trkpt lat="43.2972" lon="-1.84911">
        <ele>72</ele>
        <time>2026-07-12T18:54:12.000Z</time>
      </trkpt>
      <trkpt lat="43.29736" lon="-1.84909">
        <ele>73</ele>
        <time>2026-07-12T18:54:15.000Z</time>
      </trkpt>
      <trkpt lat="43.29737" lon="-1.84908">
        <ele>73</ele>
        <time>2026-07-12T18:54:15.000Z</time>
      </trkpt>
      <trkpt lat="43.29746" lon="-1.84906">
        <ele>73</ele>
        <time>2026-07-12T18:54:17.000Z</time>
      </trkpt>
      <trkpt lat="43.29756" lon="-1.84903">
        <ele>74</ele>
        <time>2026-07-12T18:54:19.000Z</time>
      </trkpt>
      <trkpt lat="43.29763" lon="-1.84899">
        <ele>74</ele>
        <time>2026-07-12T18:54:20.000Z</time>
      </trkpt>
      <trkpt lat="43.29781" lon="-1.84888">
        <ele>76</ele>
        <time>2026-07-12T18:54:24.000Z</time>
      </trkpt>
      <trkpt lat="43.29802" lon="-1.84872">
        <ele>79</ele>
        <time>2026-07-12T18:54:28.000Z</time>
      </trkpt>
      <trkpt lat="43.29809" lon="-1.84867">
        <ele>80</ele>
        <time>2026-07-12T18:54:29.000Z</time>
      </trkpt>
      <trkpt lat="43.29809" lon="-1.84867">
        <ele>80</ele>
        <time>2026-07-12T18:54:29.000Z</time>
      </trkpt>
      <trkpt lat="43.29823" lon="-1.84872">
        <ele>81</ele>
        <time>2026-07-12T18:54:32.000Z</time>
      </trkpt>
      <trkpt lat="43.29829" lon="-1.84873">
        <ele>81</ele>
        <time>2026-07-12T18:54:33.000Z</time>
      </trkpt>
      <trkpt lat="43.29829" lon="-1.84873">
        <ele>81</ele>
        <time>2026-07-12T18:54:33.000Z</time>
      </trkpt>
      <trkpt lat="43.29841" lon="-1.84863">
        <ele>83</ele>
        <time>2026-07-12T18:54:36.000Z</time>
      </trkpt>
      <trkpt lat="43.29844" lon="-1.84859">
        <ele>83</ele>
        <time>2026-07-12T18:54:36.000Z</time>
      </trkpt>
      <trkpt lat="43.29846" lon="-1.84856">
        <ele>83</ele>
        <time>2026-07-12T18:54:37.000Z</time>
      </trkpt>
      <trkpt lat="43.29847" lon="-1.84853">
        <ele>84</ele>
        <time>2026-07-12T18:54:37.000Z</time>
      </trkpt>
      <trkpt lat="43.29848" lon="-1.8485">
        <ele>84</ele>
        <time>2026-07-12T18:54:38.000Z</time>
      </trkpt>
      <trkpt lat="43.29848" lon="-1.84848">
        <ele>84</ele>
        <time>2026-07-12T18:54:38.000Z</time>
      </trkpt>
      <trkpt lat="43.29847" lon="-1.84842">
        <ele>84</ele>
        <time>2026-07-12T18:54:39.000Z</time>
      </trkpt>
      <trkpt lat="43.29847" lon="-1.84842">
        <ele>84</ele>
        <time>2026-07-12T18:54:39.000Z</time>
      </trkpt>
      <trkpt lat="43.29848" lon="-1.84841">
        <ele>85</ele>
        <time>2026-07-12T18:54:39.000Z</time>
      </trkpt>
      <trkpt lat="43.29852" lon="-1.8484">
        <ele>85</ele>
        <time>2026-07-12T18:54:40.000Z</time>
      </trkpt>
      <trkpt lat="43.29855" lon="-1.84838">
        <ele>85</ele>
        <time>2026-07-12T18:54:40.000Z</time>
      </trkpt>
      <trkpt lat="43.29859" lon="-1.84836">
        <ele>86</ele>
        <time>2026-07-12T18:54:41.000Z</time>
      </trkpt>
      <trkpt lat="43.29862" lon="-1.84835">
        <ele>86</ele>
        <time>2026-07-12T18:54:42.000Z</time>
      </trkpt>
      <trkpt lat="43.29872" lon="-1.8484">
        <ele>86</ele>
        <time>2026-07-12T18:54:43.000Z</time>
      </trkpt>
      <trkpt lat="43.29879" lon="-1.84841">
        <ele>87</ele>
        <time>2026-07-12T18:54:45.000Z</time>
      </trkpt>
      <trkpt lat="43.29884" lon="-1.84843">
        <ele>87</ele>
        <time>2026-07-12T18:54:46.000Z</time>
      </trkpt>
      <trkpt lat="43.29888" lon="-1.84843">
        <ele>87</ele>
        <time>2026-07-12T18:54:46.000Z</time>
      </trkpt>
      <trkpt lat="43.29892" lon="-1.84843">
        <ele>87</ele>
        <time>2026-07-12T18:54:47.000Z</time>
      </trkpt>
      <trkpt lat="43.29896" lon="-1.84842">
        <ele>88</ele>
        <time>2026-07-12T18:54:48.000Z</time>
      </trkpt>
      <trkpt lat="43.29905" lon="-1.8484">
        <ele>89</ele>
        <time>2026-07-12T18:54:49.000Z</time>
      </trkpt>
      <trkpt lat="43.29914" lon="-1.84836">
        <ele>90</ele>
        <time>2026-07-12T18:54:51.000Z</time>
      </trkpt>
      <trkpt lat="43.29924" lon="-1.84831">
        <ele>90</ele>
        <time>2026-07-12T18:54:53.000Z</time>
      </trkpt>
      <trkpt lat="43.29946" lon="-1.84813">
        <ele>90</ele>
        <time>2026-07-12T18:54:58.000Z</time>
      </trkpt>
      <trkpt lat="43.2996" lon="-1.84802">
        <ele>90</ele>
        <time>2026-07-12T18:55:00.000Z</time>
      </trkpt>
      <trkpt lat="43.29972" lon="-1.84791">
        <ele>90</ele>
        <time>2026-07-12T18:55:03.000Z</time>
      </trkpt>
      <trkpt lat="43.29978" lon="-1.84786">
        <ele>91</ele>
        <time>2026-07-12T18:55:04.000Z</time>
      </trkpt>
      <trkpt lat="43.29981" lon="-1.84783">
        <ele>91</ele>
        <time>2026-07-12T18:55:05.000Z</time>
      </trkpt>
      <trkpt lat="43.29992" lon="-1.84776">
        <ele>92</ele>
        <time>2026-07-12T18:55:07.000Z</time>
      </trkpt>
      <trkpt lat="43.29999" lon="-1.84772">
        <ele>92</ele>
        <time>2026-07-12T18:55:08.000Z</time>
      </trkpt>
      <trkpt lat="43.30007" lon="-1.84771">
        <ele>94</ele>
        <time>2026-07-12T18:55:10.000Z</time>
      </trkpt>
      <trkpt lat="43.30015" lon="-1.84774">
        <ele>96</ele>
        <time>2026-07-12T18:55:11.000Z</time>
      </trkpt>
      <trkpt lat="43.30022" lon="-1.84777">
        <ele>98</ele>
        <time>2026-07-12T18:55:13.000Z</time>
      </trkpt>
      <trkpt lat="43.3003" lon="-1.84782">
        <ele>100</ele>
        <time>2026-07-12T18:55:14.000Z</time>
      </trkpt>
      <trkpt lat="43.30041" lon="-1.84792">
        <ele>102</ele>
        <time>2026-07-12T18:55:17.000Z</time>
      </trkpt>
      <trkpt lat="43.3005" lon="-1.84801">
        <ele>104</ele>
        <time>2026-07-12T18:55:19.000Z</time>
      </trkpt>
      <trkpt lat="43.30053" lon="-1.84806">
        <ele>104</ele>
        <time>2026-07-12T18:55:19.000Z</time>
      </trkpt>
      <trkpt lat="43.30059" lon="-1.84813">
        <ele>104</ele>
        <time>2026-07-12T18:55:21.000Z</time>
      </trkpt>
      <trkpt lat="43.30067" lon="-1.84821">
        <ele>105</ele>
        <time>2026-07-12T18:55:23.000Z</time>
      </trkpt>
      <trkpt lat="43.30068" lon="-1.84823">
        <ele>105</ele>
        <time>2026-07-12T18:55:23.000Z</time>
      </trkpt>
      <trkpt lat="43.30074" lon="-1.84828">
        <ele>106</ele>
        <time>2026-07-12T18:55:24.000Z</time>
      </trkpt>
      <trkpt lat="43.30086" lon="-1.84839">
        <ele>107</ele>
        <time>2026-07-12T18:55:27.000Z</time>
      </trkpt>
      <trkpt lat="43.30093" lon="-1.84845">
        <ele>108</ele>
        <time>2026-07-12T18:55:28.000Z</time>
      </trkpt>
      <trkpt lat="43.30103" lon="-1.84851">
        <ele>109</ele>
        <time>2026-07-12T18:55:30.000Z</time>
      </trkpt>
      <trkpt lat="43.30111" lon="-1.84855">
        <ele>110</ele>
        <time>2026-07-12T18:55:32.000Z</time>
      </trkpt>
      <trkpt lat="43.30117" lon="-1.84858">
        <ele>111</ele>
        <time>2026-07-12T18:55:33.000Z</time>
      </trkpt>
      <trkpt lat="43.3012" lon="-1.84859">
        <ele>111</ele>
        <time>2026-07-12T18:55:33.000Z</time>
      </trkpt>
      <trkpt lat="43.30122" lon="-1.84859">
        <ele>112</ele>
        <time>2026-07-12T18:55:34.000Z</time>
      </trkpt>
      <trkpt lat="43.30128" lon="-1.8486">
        <ele>113</ele>
        <time>2026-07-12T18:55:35.000Z</time>
      </trkpt>
      <trkpt lat="43.30138" lon="-1.84862">
        <ele>114</ele>
        <time>2026-07-12T18:55:36.000Z</time>
      </trkpt>
      <trkpt lat="43.30151" lon="-1.84864">
        <ele>117</ele>
        <time>2026-07-12T18:55:39.000Z</time>
      </trkpt>
      <trkpt lat="43.30163" lon="-1.84867">
        <ele>118</ele>
        <time>2026-07-12T18:55:41.000Z</time>
      </trkpt>
      <trkpt lat="43.30171" lon="-1.8487">
        <ele>119</ele>
        <time>2026-07-12T18:55:42.000Z</time>
      </trkpt>
      <trkpt lat="43.30178" lon="-1.84873">
        <ele>120</ele>
        <time>2026-07-12T18:55:44.000Z</time>
      </trkpt>
      <trkpt lat="43.30184" lon="-1.84875">
        <ele>121</ele>
        <time>2026-07-12T18:55:45.000Z</time>
      </trkpt>
      <trkpt lat="43.30187" lon="-1.84878">
        <ele>121</ele>
        <time>2026-07-12T18:55:46.000Z</time>
      </trkpt>
      <trkpt lat="43.3019" lon="-1.84883">
        <ele>120</ele>
        <time>2026-07-12T18:55:46.000Z</time>
      </trkpt>
      <trkpt lat="43.30193" lon="-1.84887">
        <ele>120</ele>
        <time>2026-07-12T18:55:47.000Z</time>
      </trkpt>
      <trkpt lat="43.30198" lon="-1.84895">
        <ele>119</ele>
        <time>2026-07-12T18:55:48.000Z</time>
      </trkpt>
      <trkpt lat="43.30205" lon="-1.84902">
        <ele>118</ele>
        <time>2026-07-12T18:55:50.000Z</time>
      </trkpt>
      <trkpt lat="43.30216" lon="-1.84914">
        <ele>117</ele>
        <time>2026-07-12T18:55:53.000Z</time>
      </trkpt>
      <trkpt lat="43.30224" lon="-1.8492">
        <ele>117</ele>
        <time>2026-07-12T18:55:54.000Z</time>
      </trkpt>
      <trkpt lat="43.3023" lon="-1.84923">
        <ele>118</ele>
        <time>2026-07-12T18:55:55.000Z</time>
      </trkpt>
      <trkpt lat="43.30237" lon="-1.84925">
        <ele>118</ele>
        <time>2026-07-12T18:55:57.000Z</time>
      </trkpt>
      <trkpt lat="43.30244" lon="-1.84926">
        <ele>119</ele>
        <time>2026-07-12T18:55:58.000Z</time>
      </trkpt>
      <trkpt lat="43.30253" lon="-1.84926">
        <ele>120</ele>
        <time>2026-07-12T18:55:59.000Z</time>
      </trkpt>
      <trkpt lat="43.30261" lon="-1.84925">
        <ele>121</ele>
        <time>2026-07-12T18:56:01.000Z</time>
      </trkpt>
      <trkpt lat="43.30271" lon="-1.84922">
        <ele>123</ele>
        <time>2026-07-12T18:56:03.000Z</time>
      </trkpt>
      <trkpt lat="43.30284" lon="-1.84918">
        <ele>125</ele>
        <time>2026-07-12T18:56:05.000Z</time>
      </trkpt>
      <trkpt lat="43.30298" lon="-1.84914">
        <ele>128</ele>
        <time>2026-07-12T18:56:08.000Z</time>
      </trkpt>
      <trkpt lat="43.30319" lon="-1.84909">
        <ele>131</ele>
        <time>2026-07-12T18:56:11.000Z</time>
      </trkpt>
      <trkpt lat="43.30335" lon="-1.84904">
        <ele>134</ele>
        <time>2026-07-12T18:56:14.000Z</time>
      </trkpt>
      <trkpt lat="43.30344" lon="-1.84902">
        <ele>136</ele>
        <time>2026-07-12T18:56:16.000Z</time>
      </trkpt>
      <trkpt lat="43.3035" lon="-1.84901">
        <ele>137</ele>
        <time>2026-07-12T18:56:17.000Z</time>
      </trkpt>
      <trkpt lat="43.30357" lon="-1.84901">
        <ele>137</ele>
        <time>2026-07-12T18:56:18.000Z</time>
      </trkpt>
      <trkpt lat="43.30366" lon="-1.84904">
        <ele>138</ele>
        <time>2026-07-12T18:56:20.000Z</time>
      </trkpt>
      <trkpt lat="43.30375" lon="-1.84906">
        <ele>138</ele>
        <time>2026-07-12T18:56:21.000Z</time>
      </trkpt>
      <trkpt lat="43.30387" lon="-1.84912">
        <ele>138</ele>
        <time>2026-07-12T18:56:24.000Z</time>
      </trkpt>
      <trkpt lat="43.30397" lon="-1.84918">
        <ele>139</ele>
        <time>2026-07-12T18:56:26.000Z</time>
      </trkpt>
      <trkpt lat="43.30405" lon="-1.84924">
        <ele>139</ele>
        <time>2026-07-12T18:56:27.000Z</time>
      </trkpt>
      <trkpt lat="43.30412" lon="-1.84933">
        <ele>139</ele>
        <time>2026-07-12T18:56:29.000Z</time>
      </trkpt>
      <trkpt lat="43.30426" lon="-1.84949">
        <ele>138</ele>
        <time>2026-07-12T18:56:32.000Z</time>
      </trkpt>
      <trkpt lat="43.3043" lon="-1.84955">
        <ele>138</ele>
        <time>2026-07-12T18:56:33.000Z</time>
      </trkpt>
      <trkpt lat="43.30434" lon="-1.84962">
        <ele>137</ele>
        <time>2026-07-12T18:56:34.000Z</time>
      </trkpt>
      <trkpt lat="43.30436" lon="-1.84971">
        <ele>136</ele>
        <time>2026-07-12T18:56:36.000Z</time>
      </trkpt>
      <trkpt lat="43.30437" lon="-1.84983">
        <ele>135</ele>
        <time>2026-07-12T18:56:37.000Z</time>
      </trkpt>
      <trkpt lat="43.30437" lon="-1.84983">
        <ele>135</ele>
        <time>2026-07-12T18:56:37.000Z</time>
      </trkpt>
      <trkpt lat="43.30456" lon="-1.84972">
        <ele>137</ele>
        <time>2026-07-12T18:56:41.000Z</time>
      </trkpt>
      <trkpt lat="43.30467" lon="-1.84965">
        <ele>138</ele>
        <time>2026-07-12T18:56:43.000Z</time>
      </trkpt>
      <trkpt lat="43.30472" lon="-1.84961">
        <ele>138</ele>
        <time>2026-07-12T18:56:44.000Z</time>
      </trkpt>
      <trkpt lat="43.30476" lon="-1.84956">
        <ele>139</ele>
        <time>2026-07-12T18:56:45.000Z</time>
      </trkpt>
      <trkpt lat="43.30481" lon="-1.84951">
        <ele>139</ele>
        <time>2026-07-12T18:56:46.000Z</time>
      </trkpt>
      <trkpt lat="43.30484" lon="-1.84946">
        <ele>140</ele>
        <time>2026-07-12T18:56:47.000Z</time>
      </trkpt>
      <trkpt lat="43.30494" lon="-1.84927">
        <ele>141</ele>
        <time>2026-07-12T18:56:50.000Z</time>
      </trkpt>
      <trkpt lat="43.30533" lon="-1.84847">
        <ele>147</ele>
        <time>2026-07-12T18:57:03.000Z</time>
      </trkpt>
      <trkpt lat="43.30538" lon="-1.84835">
        <ele>148</ele>
        <time>2026-07-12T18:57:04.000Z</time>
      </trkpt>
      <trkpt lat="43.30542" lon="-1.84828">
        <ele>149</ele>
        <time>2026-07-12T18:57:05.000Z</time>
      </trkpt>
      <trkpt lat="43.30562" lon="-1.8479">
        <ele>152</ele>
        <time>2026-07-12T18:57:12.000Z</time>
      </trkpt>
      <trkpt lat="43.30571" lon="-1.84778">
        <ele>152</ele>
        <time>2026-07-12T18:57:14.000Z</time>
      </trkpt>
      <trkpt lat="43.30584" lon="-1.8476">
        <ele>154</ele>
        <time>2026-07-12T18:57:17.000Z</time>
      </trkpt>
      <trkpt lat="43.30594" lon="-1.84749">
        <ele>155</ele>
        <time>2026-07-12T18:57:19.000Z</time>
      </trkpt>
      <trkpt lat="43.30597" lon="-1.84744">
        <ele>156</ele>
        <time>2026-07-12T18:57:20.000Z</time>
      </trkpt>
      <trkpt lat="43.306" lon="-1.84742">
        <ele>157</ele>
        <time>2026-07-12T18:57:21.000Z</time>
      </trkpt>
      <trkpt lat="43.30607" lon="-1.84738">
        <ele>157</ele>
        <time>2026-07-12T18:57:22.000Z</time>
      </trkpt>
      <trkpt lat="43.30643" lon="-1.8472">
        <ele>160</ele>
        <time>2026-07-12T18:57:29.000Z</time>
      </trkpt>
      <trkpt lat="43.30667" lon="-1.84707">
        <ele>161</ele>
        <time>2026-07-12T18:57:34.000Z</time>
      </trkpt>
      <trkpt lat="43.30737" lon="-1.84671">
        <ele>161</ele>
        <time>2026-07-12T18:57:47.000Z</time>
      </trkpt>
      <trkpt lat="43.30748" lon="-1.84665">
        <ele>161</ele>
        <time>2026-07-12T18:57:49.000Z</time>
      </trkpt>
      <trkpt lat="43.30756" lon="-1.84661">
        <ele>162</ele>
        <time>2026-07-12T18:57:50.000Z</time>
      </trkpt>
      <trkpt lat="43.30765" lon="-1.84655">
        <ele>162</ele>
        <time>2026-07-12T18:57:52.000Z</time>
      </trkpt>
      <trkpt lat="43.30778" lon="-1.84645">
        <ele>162</ele>
        <time>2026-07-12T18:57:55.000Z</time>
      </trkpt>
      <trkpt lat="43.30798" lon="-1.8463">
        <ele>163</ele>
        <time>2026-07-12T18:57:59.000Z</time>
      </trkpt>
      <trkpt lat="43.30805" lon="-1.84624">
        <ele>164</ele>
        <time>2026-07-12T18:58:00.000Z</time>
      </trkpt>
      <trkpt lat="43.30816" lon="-1.84615">
        <ele>164</ele>
        <time>2026-07-12T18:58:03.000Z</time>
      </trkpt>
      <trkpt lat="43.30826" lon="-1.84607">
        <ele>164</ele>
        <time>2026-07-12T18:58:05.000Z</time>
      </trkpt>
      <trkpt lat="43.30832" lon="-1.84601">
        <ele>165</ele>
        <time>2026-07-12T18:58:06.000Z</time>
      </trkpt>
      <trkpt lat="43.30838" lon="-1.84594">
        <ele>165</ele>
        <time>2026-07-12T18:58:07.000Z</time>
      </trkpt>
      <trkpt lat="43.30843" lon="-1.84588">
        <ele>164</ele>
        <time>2026-07-12T18:58:09.000Z</time>
      </trkpt>
      <trkpt lat="43.30846" lon="-1.84583">
        <ele>165</ele>
        <time>2026-07-12T18:58:09.000Z</time>
      </trkpt>
      <trkpt lat="43.30849" lon="-1.84576">
        <ele>165</ele>
        <time>2026-07-12T18:58:11.000Z</time>
      </trkpt>
      <trkpt lat="43.30861" lon="-1.84544">
        <ele>165</ele>
        <time>2026-07-12T18:58:15.000Z</time>
      </trkpt>
      <trkpt lat="43.3091" lon="-1.84415">
        <ele>160</ele>
        <time>2026-07-12T18:58:34.000Z</time>
      </trkpt>
      <trkpt lat="43.30926" lon="-1.84376">
        <ele>161</ele>
        <time>2026-07-12T18:58:40.000Z</time>
      </trkpt>
      <trkpt lat="43.30935" lon="-1.8435">
        <ele>163</ele>
        <time>2026-07-12T18:58:44.000Z</time>
      </trkpt>
      <trkpt lat="43.30937" lon="-1.84337">
        <ele>164</ele>
        <time>2026-07-12T18:58:45.000Z</time>
      </trkpt>
      <trkpt lat="43.30942" lon="-1.84312">
        <ele>163</ele>
        <time>2026-07-12T18:58:49.000Z</time>
      </trkpt>
      <trkpt lat="43.30942" lon="-1.84311">
        <ele>162</ele>
        <time>2026-07-12T18:58:49.000Z</time>
      </trkpt>
      <trkpt lat="43.30941" lon="-1.84311">
        <ele>162</ele>
        <time>2026-07-12T18:58:49.000Z</time>
      </trkpt>
      <trkpt lat="43.30941" lon="-1.8431">
        <ele>162</ele>
        <time>2026-07-12T18:58:49.000Z</time>
      </trkpt>
      <trkpt lat="43.3094" lon="-1.8431">
        <ele>162</ele>
        <time>2026-07-12T18:58:49.000Z</time>
      </trkpt>
      <trkpt lat="43.3094" lon="-1.84309">
        <ele>162</ele>
        <time>2026-07-12T18:58:49.000Z</time>
      </trkpt>
      <trkpt lat="43.3094" lon="-1.84308">
        <ele>162</ele>
        <time>2026-07-12T18:58:50.000Z</time>
      </trkpt>
      <trkpt lat="43.30939" lon="-1.84307">
        <ele>162</ele>
        <time>2026-07-12T18:58:50.000Z</time>
      </trkpt>
      <trkpt lat="43.30939" lon="-1.84306">
        <ele>162</ele>
        <time>2026-07-12T18:58:50.000Z</time>
      </trkpt>
      <trkpt lat="43.30939" lon="-1.84305">
        <ele>162</ele>
        <time>2026-07-12T18:58:50.000Z</time>
      </trkpt>
      <trkpt lat="43.30939" lon="-1.84304">
        <ele>162</ele>
        <time>2026-07-12T18:58:50.000Z</time>
      </trkpt>
      <trkpt lat="43.30939" lon="-1.84303">
        <ele>162</ele>
        <time>2026-07-12T18:58:50.000Z</time>
      </trkpt>
      <trkpt lat="43.30939" lon="-1.84302">
        <ele>162</ele>
        <time>2026-07-12T18:58:50.000Z</time>
      </trkpt>
      <trkpt lat="43.30939" lon="-1.84301">
        <ele>162</ele>
        <time>2026-07-12T18:58:51.000Z</time>
      </trkpt>
      <trkpt lat="43.30939" lon="-1.843">
        <ele>162</ele>
        <time>2026-07-12T18:58:51.000Z</time>
      </trkpt>
      <trkpt lat="43.30939" lon="-1.84299">
        <ele>162</ele>
        <time>2026-07-12T18:58:51.000Z</time>
      </trkpt>
      <trkpt lat="43.30939" lon="-1.84298">
        <ele>162</ele>
        <time>2026-07-12T18:58:51.000Z</time>
      </trkpt>
      <trkpt lat="43.30939" lon="-1.84297">
        <ele>162</ele>
        <time>2026-07-12T18:58:51.000Z</time>
      </trkpt>
      <trkpt lat="43.30939" lon="-1.84296">
        <ele>162</ele>
        <time>2026-07-12T18:58:51.000Z</time>
      </trkpt>
      <trkpt lat="43.3094" lon="-1.84295">
        <ele>162</ele>
        <time>2026-07-12T18:58:51.000Z</time>
      </trkpt>
      <trkpt lat="43.3094" lon="-1.84294">
        <ele>162</ele>
        <time>2026-07-12T18:58:52.000Z</time>
      </trkpt>
      <trkpt lat="43.30941" lon="-1.84294">
        <ele>162</ele>
        <time>2026-07-12T18:58:52.000Z</time>
      </trkpt>
      <trkpt lat="43.30941" lon="-1.84293">
        <ele>162</ele>
        <time>2026-07-12T18:58:52.000Z</time>
      </trkpt>
      <trkpt lat="43.30941" lon="-1.84292">
        <ele>161</ele>
        <time>2026-07-12T18:58:52.000Z</time>
      </trkpt>
      <trkpt lat="43.30942" lon="-1.84292">
        <ele>161</ele>
        <time>2026-07-12T18:58:52.000Z</time>
      </trkpt>
      <trkpt lat="43.30942" lon="-1.84291">
        <ele>161</ele>
        <time>2026-07-12T18:58:52.000Z</time>
      </trkpt>
      <trkpt lat="43.30943" lon="-1.84291">
        <ele>161</ele>
        <time>2026-07-12T18:58:52.000Z</time>
      </trkpt>
      <trkpt lat="43.30943" lon="-1.8429">
        <ele>161</ele>
        <time>2026-07-12T18:58:53.000Z</time>
      </trkpt>
      <trkpt lat="43.30944" lon="-1.8429">
        <ele>161</ele>
        <time>2026-07-12T18:58:53.000Z</time>
      </trkpt>
      <trkpt lat="43.30944" lon="-1.84289">
        <ele>161</ele>
        <time>2026-07-12T18:58:53.000Z</time>
      </trkpt>
      <trkpt lat="43.30945" lon="-1.84289">
        <ele>161</ele>
        <time>2026-07-12T18:58:53.000Z</time>
      </trkpt>
      <trkpt lat="43.30946" lon="-1.84289">
        <ele>161</ele>
        <time>2026-07-12T18:58:53.000Z</time>
      </trkpt>
      <trkpt lat="43.30946" lon="-1.84288">
        <ele>161</ele>
        <time>2026-07-12T18:58:53.000Z</time>
      </trkpt>
      <trkpt lat="43.30947" lon="-1.84288">
        <ele>161</ele>
        <time>2026-07-12T18:58:54.000Z</time>
      </trkpt>
      <trkpt lat="43.30948" lon="-1.84288">
        <ele>161</ele>
        <time>2026-07-12T18:58:54.000Z</time>
      </trkpt>
      <trkpt lat="43.30949" lon="-1.84288">
        <ele>161</ele>
        <time>2026-07-12T18:58:54.000Z</time>
      </trkpt>
      <trkpt lat="43.3095" lon="-1.84288">
        <ele>161</ele>
        <time>2026-07-12T18:58:54.000Z</time>
      </trkpt>
      <trkpt lat="43.30958" lon="-1.84278">
        <ele>161</ele>
        <time>2026-07-12T18:58:56.000Z</time>
      </trkpt>
      <trkpt lat="43.30967" lon="-1.84268">
        <ele>161</ele>
        <time>2026-07-12T18:58:58.000Z</time>
      </trkpt>
      <trkpt lat="43.30968" lon="-1.84267">
        <ele>161</ele>
        <time>2026-07-12T18:58:58.000Z</time>
      </trkpt>
      <trkpt lat="43.30987" lon="-1.84221">
        <ele>160</ele>
        <time>2026-07-12T18:59:05.000Z</time>
      </trkpt>
      <trkpt lat="43.30998" lon="-1.84192">
        <ele>159</ele>
        <time>2026-07-12T18:59:09.000Z</time>
      </trkpt>
      <trkpt lat="43.31001" lon="-1.84183">
        <ele>159</ele>
        <time>2026-07-12T18:59:11.000Z</time>
      </trkpt>
      <trkpt lat="43.31006" lon="-1.84174">
        <ele>159</ele>
        <time>2026-07-12T18:59:12.000Z</time>
      </trkpt>
      <trkpt lat="43.31009" lon="-1.8417">
        <ele>159</ele>
        <time>2026-07-12T18:59:13.000Z</time>
      </trkpt>
      <trkpt lat="43.31017" lon="-1.84163">
        <ele>159</ele>
        <time>2026-07-12T18:59:15.000Z</time>
      </trkpt>
      <trkpt lat="43.31027" lon="-1.84157">
        <ele>159</ele>
        <time>2026-07-12T18:59:16.000Z</time>
      </trkpt>
      <trkpt lat="43.31058" lon="-1.84142">
        <ele>160</ele>
        <time>2026-07-12T18:59:22.000Z</time>
      </trkpt>
      <trkpt lat="43.31086" lon="-1.84128">
        <ele>161</ele>
        <time>2026-07-12T18:59:28.000Z</time>
      </trkpt>
      <trkpt lat="43.31092" lon="-1.84124">
        <ele>161</ele>
        <time>2026-07-12T18:59:29.000Z</time>
      </trkpt>
      <trkpt lat="43.31095" lon="-1.84121">
        <ele>161</ele>
        <time>2026-07-12T18:59:29.000Z</time>
      </trkpt>
      <trkpt lat="43.31102" lon="-1.84117">
        <ele>161</ele>
        <time>2026-07-12T18:59:31.000Z</time>
      </trkpt>
      <trkpt lat="43.31115" lon="-1.84106">
        <ele>161</ele>
        <time>2026-07-12T18:59:34.000Z</time>
      </trkpt>
      <trkpt lat="43.31131" lon="-1.84093">
        <ele>160</ele>
        <time>2026-07-12T18:59:37.000Z</time>
      </trkpt>
      <trkpt lat="43.31157" lon="-1.84072">
        <ele>159</ele>
        <time>2026-07-12T18:59:42.000Z</time>
      </trkpt>
      <trkpt lat="43.31165" lon="-1.84065">
        <ele>159</ele>
        <time>2026-07-12T18:59:44.000Z</time>
      </trkpt>
      <trkpt lat="43.3118" lon="-1.84056">
        <ele>158</ele>
        <time>2026-07-12T18:59:47.000Z</time>
      </trkpt>
      <trkpt lat="43.31194" lon="-1.84051">
        <ele>158</ele>
        <time>2026-07-12T18:59:49.000Z</time>
      </trkpt>
      <trkpt lat="43.31203" lon="-1.8405">
        <ele>158</ele>
        <time>2026-07-12T18:59:51.000Z</time>
      </trkpt>
      <trkpt lat="43.31208" lon="-1.8405">
        <ele>158</ele>
        <time>2026-07-12T18:59:52.000Z</time>
      </trkpt>
      <trkpt lat="43.31223" lon="-1.8405">
        <ele>159</ele>
        <time>2026-07-12T18:59:55.000Z</time>
      </trkpt>
      <trkpt lat="43.31256" lon="-1.8405">
        <ele>159</ele>
        <time>2026-07-12T19:00:00.000Z</time>
      </trkpt>
      <trkpt lat="43.31262" lon="-1.8405">
        <ele>159</ele>
        <time>2026-07-12T19:00:02.000Z</time>
      </trkpt>
      <trkpt lat="43.31267" lon="-1.84049">
        <ele>159</ele>
        <time>2026-07-12T19:00:02.000Z</time>
      </trkpt>
      <trkpt lat="43.31272" lon="-1.84047">
        <ele>158</ele>
        <time>2026-07-12T19:00:03.000Z</time>
      </trkpt>
      <trkpt lat="43.31277" lon="-1.84045">
        <ele>158</ele>
        <time>2026-07-12T19:00:04.000Z</time>
      </trkpt>
      <trkpt lat="43.31283" lon="-1.84042">
        <ele>157</ele>
        <time>2026-07-12T19:00:05.000Z</time>
      </trkpt>
      <trkpt lat="43.31288" lon="-1.84039">
        <ele>157</ele>
        <time>2026-07-12T19:00:06.000Z</time>
      </trkpt>
      <trkpt lat="43.31291" lon="-1.84036">
        <ele>156</ele>
        <time>2026-07-12T19:00:07.000Z</time>
      </trkpt>
      <trkpt lat="43.31293" lon="-1.84034">
        <ele>156</ele>
        <time>2026-07-12T19:00:07.000Z</time>
      </trkpt>
      <trkpt lat="43.3132" lon="-1.84008">
        <ele>153</ele>
        <time>2026-07-12T19:00:13.000Z</time>
      </trkpt>
      <trkpt lat="43.31348" lon="-1.8398">
        <ele>148</ele>
        <time>2026-07-12T19:00:19.000Z</time>
      </trkpt>
      <trkpt lat="43.31359" lon="-1.83969">
        <ele>146</ele>
        <time>2026-07-12T19:00:22.000Z</time>
      </trkpt>
      <trkpt lat="43.3136" lon="-1.83968">
        <ele>145</ele>
        <time>2026-07-12T19:00:22.000Z</time>
      </trkpt>
      <trkpt lat="43.3137" lon="-1.83958">
        <ele>144</ele>
        <time>2026-07-12T19:00:24.000Z</time>
      </trkpt>
      <trkpt lat="43.31403" lon="-1.83925">
        <ele>141</ele>
        <time>2026-07-12T19:00:32.000Z</time>
      </trkpt>
      <trkpt lat="43.31439" lon="-1.83888">
        <ele>139</ele>
        <time>2026-07-12T19:00:40.000Z</time>
      </trkpt>
      <trkpt lat="43.31444" lon="-1.83883">
        <ele>139</ele>
        <time>2026-07-12T19:00:41.000Z</time>
      </trkpt>
      <trkpt lat="43.31448" lon="-1.8388">
        <ele>139</ele>
        <time>2026-07-12T19:00:42.000Z</time>
      </trkpt>
      <trkpt lat="43.31456" lon="-1.83871">
        <ele>139</ele>
        <time>2026-07-12T19:00:43.000Z</time>
      </trkpt>
      <trkpt lat="43.31459" lon="-1.83866">
        <ele>139</ele>
        <time>2026-07-12T19:00:44.000Z</time>
      </trkpt>
      <trkpt lat="43.31465" lon="-1.83857">
        <ele>139</ele>
        <time>2026-07-12T19:00:46.000Z</time>
      </trkpt>
      <trkpt lat="43.31472" lon="-1.83845">
        <ele>139</ele>
        <time>2026-07-12T19:00:48.000Z</time>
      </trkpt>
      <trkpt lat="43.31489" lon="-1.83817">
        <ele>137</ele>
        <time>2026-07-12T19:00:52.000Z</time>
      </trkpt>
      <trkpt lat="43.3152" lon="-1.83767">
        <ele>130</ele>
        <time>2026-07-12T19:01:01.000Z</time>
      </trkpt>
      <trkpt lat="43.31552" lon="-1.83715">
        <ele>124</ele>
        <time>2026-07-12T19:01:10.000Z</time>
      </trkpt>
      <trkpt lat="43.31554" lon="-1.83712">
        <ele>123</ele>
        <time>2026-07-12T19:01:10.000Z</time>
      </trkpt>
      <trkpt lat="43.31662" lon="-1.83533">
        <ele>120</ele>
        <time>2026-07-12T19:01:40.000Z</time>
      </trkpt>
      <trkpt lat="43.31665" lon="-1.83528">
        <ele>120</ele>
        <time>2026-07-12T19:01:41.000Z</time>
      </trkpt>
      <trkpt lat="43.31673" lon="-1.83503">
        <ele>122</ele>
        <time>2026-07-12T19:01:45.000Z</time>
      </trkpt>
      <trkpt lat="43.31675" lon="-1.8349">
        <ele>121</ele>
        <time>2026-07-12T19:01:47.000Z</time>
      </trkpt>
      <trkpt lat="43.31684" lon="-1.83434">
        <ele>118</ele>
        <time>2026-07-12T19:01:54.000Z</time>
      </trkpt>
      <trkpt lat="43.31686" lon="-1.83419">
        <ele>117</ele>
        <time>2026-07-12T19:01:56.000Z</time>
      </trkpt>
      <trkpt lat="43.31692" lon="-1.83378">
        <ele>114</ele>
        <time>2026-07-12T19:02:01.000Z</time>
      </trkpt>
      <trkpt lat="43.31709" lon="-1.83301">
        <ele>107</ele>
        <time>2026-07-12T19:02:12.000Z</time>
      </trkpt>
      <trkpt lat="43.31709" lon="-1.83299">
        <ele>107</ele>
        <time>2026-07-12T19:02:12.000Z</time>
      </trkpt>
      <trkpt lat="43.31728" lon="-1.83222">
        <ele>101</ele>
        <time>2026-07-12T19:02:23.000Z</time>
      </trkpt>
      <trkpt lat="43.31744" lon="-1.83172">
        <ele>98</ele>
        <time>2026-07-12T19:02:30.000Z</time>
      </trkpt>
      <trkpt lat="43.31764" lon="-1.83114">
        <ele>96</ele>
        <time>2026-07-12T19:02:38.000Z</time>
      </trkpt>
      <trkpt lat="43.31766" lon="-1.83107">
        <ele>96</ele>
        <time>2026-07-12T19:02:39.000Z</time>
      </trkpt>
      <trkpt lat="43.31776" lon="-1.83088">
        <ele>95</ele>
        <time>2026-07-12T19:02:42.000Z</time>
      </trkpt>
      <trkpt lat="43.31787" lon="-1.83075">
        <ele>93</ele>
        <time>2026-07-12T19:02:45.000Z</time>
      </trkpt>
      <trkpt lat="43.31797" lon="-1.83061">
        <ele>93</ele>
        <time>2026-07-12T19:02:47.000Z</time>
      </trkpt>
      <trkpt lat="43.31804" lon="-1.83055">
        <ele>92</ele>
        <time>2026-07-12T19:02:49.000Z</time>
      </trkpt>
      <trkpt lat="43.31809" lon="-1.83051">
        <ele>92</ele>
        <time>2026-07-12T19:02:50.000Z</time>
      </trkpt>
      <trkpt lat="43.31833" lon="-1.83037">
        <ele>91</ele>
        <time>2026-07-12T19:02:54.000Z</time>
      </trkpt>
      <trkpt lat="43.31854" lon="-1.83025">
        <ele>89</ele>
        <time>2026-07-12T19:02:58.000Z</time>
      </trkpt>
      <trkpt lat="43.31856" lon="-1.83024">
        <ele>89</ele>
        <time>2026-07-12T19:02:59.000Z</time>
      </trkpt>
      <trkpt lat="43.31869" lon="-1.8301">
        <ele>88</ele>
        <time>2026-07-12T19:03:02.000Z</time>
      </trkpt>
      <trkpt lat="43.3187" lon="-1.83009">
        <ele>88</ele>
        <time>2026-07-12T19:03:02.000Z</time>
      </trkpt>
      <trkpt lat="43.31878" lon="-1.82992">
        <ele>87</ele>
        <time>2026-07-12T19:03:04.000Z</time>
      </trkpt>
      <trkpt lat="43.31903" lon="-1.82926">
        <ele>83</ele>
        <time>2026-07-12T19:03:14.000Z</time>
      </trkpt>
      <trkpt lat="43.31904" lon="-1.82922">
        <ele>83</ele>
        <time>2026-07-12T19:03:15.000Z</time>
      </trkpt>
      <trkpt lat="43.31906" lon="-1.82919">
        <ele>83</ele>
        <time>2026-07-12T19:03:15.000Z</time>
      </trkpt>
      <trkpt lat="43.31919" lon="-1.82903">
        <ele>80</ele>
        <time>2026-07-12T19:03:18.000Z</time>
      </trkpt>
      <trkpt lat="43.31926" lon="-1.82897">
        <ele>79</ele>
        <time>2026-07-12T19:03:20.000Z</time>
      </trkpt>
      <trkpt lat="43.31933" lon="-1.82893">
        <ele>78</ele>
        <time>2026-07-12T19:03:21.000Z</time>
      </trkpt>
      <trkpt lat="43.31941" lon="-1.82892">
        <ele>77</ele>
        <time>2026-07-12T19:03:22.000Z</time>
      </trkpt>
      <trkpt lat="43.31957" lon="-1.82889">
        <ele>75</ele>
        <time>2026-07-12T19:03:25.000Z</time>
      </trkpt>
      <trkpt lat="43.31981" lon="-1.82886">
        <ele>72</ele>
        <time>2026-07-12T19:03:30.000Z</time>
      </trkpt>
      <trkpt lat="43.31983" lon="-1.82885">
        <ele>72</ele>
        <time>2026-07-12T19:03:30.000Z</time>
      </trkpt>
      <trkpt lat="43.31984" lon="-1.82885">
        <ele>72</ele>
        <time>2026-07-12T19:03:30.000Z</time>
      </trkpt>
      <trkpt lat="43.31992" lon="-1.82885">
        <ele>71</ele>
        <time>2026-07-12T19:03:32.000Z</time>
      </trkpt>
      <trkpt lat="43.31993" lon="-1.82884">
        <ele>71</ele>
        <time>2026-07-12T19:03:32.000Z</time>
      </trkpt>
      <trkpt lat="43.32003" lon="-1.82884">
        <ele>70</ele>
        <time>2026-07-12T19:03:34.000Z</time>
      </trkpt>
      <trkpt lat="43.3202" lon="-1.82881">
        <ele>72</ele>
        <time>2026-07-12T19:03:37.000Z</time>
      </trkpt>
      <trkpt lat="43.3207" lon="-1.82876">
        <ele>77</ele>
        <time>2026-07-12T19:03:46.000Z</time>
      </trkpt>
      <trkpt lat="43.32089" lon="-1.82874">
        <ele>78</ele>
        <time>2026-07-12T19:03:49.000Z</time>
      </trkpt>
      <trkpt lat="43.32098" lon="-1.82872">
        <ele>79</ele>
        <time>2026-07-12T19:03:51.000Z</time>
      </trkpt>
      <trkpt lat="43.32106" lon="-1.82869">
        <ele>79</ele>
        <time>2026-07-12T19:03:52.000Z</time>
      </trkpt>
      <trkpt lat="43.3211" lon="-1.82869">
        <ele>80</ele>
        <time>2026-07-12T19:03:53.000Z</time>
      </trkpt>
      <trkpt lat="43.32128" lon="-1.8286">
        <ele>81</ele>
        <time>2026-07-12T19:03:56.000Z</time>
      </trkpt>
      <trkpt lat="43.32145" lon="-1.82849">
        <ele>82</ele>
        <time>2026-07-12T19:04:00.000Z</time>
      </trkpt>
      <trkpt lat="43.32146" lon="-1.82847">
        <ele>82</ele>
        <time>2026-07-12T19:04:00.000Z</time>
      </trkpt>
      <trkpt lat="43.32206" lon="-1.82757">
        <ele>71</ele>
        <time>2026-07-12T19:04:16.000Z</time>
      </trkpt>
      <trkpt lat="43.32209" lon="-1.82753">
        <ele>71</ele>
        <time>2026-07-12T19:04:16.000Z</time>
      </trkpt>
      <trkpt lat="43.32234" lon="-1.82713">
        <ele>64</ele>
        <time>2026-07-12T19:04:23.000Z</time>
      </trkpt>
      <trkpt lat="43.32244" lon="-1.82699">
        <ele>63</ele>
        <time>2026-07-12T19:04:26.000Z</time>
      </trkpt>
      <trkpt lat="43.3227" lon="-1.82659">
        <ele>59</ele>
        <time>2026-07-12T19:04:33.000Z</time>
      </trkpt>
      <trkpt lat="43.32343" lon="-1.82549">
        <ele>53</ele>
        <time>2026-07-12T19:04:52.000Z</time>
      </trkpt>
      <trkpt lat="43.32372" lon="-1.82504">
        <ele>50</ele>
        <time>2026-07-12T19:05:00.000Z</time>
      </trkpt>
      <trkpt lat="43.32386" lon="-1.82482">
        <ele>48</ele>
        <time>2026-07-12T19:05:04.000Z</time>
      </trkpt>
      <trkpt lat="43.32431" lon="-1.82405">
        <ele>43</ele>
        <time>2026-07-12T19:05:16.000Z</time>
      </trkpt>
      <trkpt lat="43.32434" lon="-1.824">
        <ele>43</ele>
        <time>2026-07-12T19:05:17.000Z</time>
      </trkpt>
      <trkpt lat="43.32455" lon="-1.82364">
        <ele>41</ele>
        <time>2026-07-12T19:05:23.000Z</time>
      </trkpt>
      <trkpt lat="43.32472" lon="-1.82326">
        <ele>40</ele>
        <time>2026-07-12T19:05:29.000Z</time>
      </trkpt>
      <trkpt lat="43.32474" lon="-1.82322">
        <ele>40</ele>
        <time>2026-07-12T19:05:30.000Z</time>
      </trkpt>
      <trkpt lat="43.32483" lon="-1.82314">
        <ele>39</ele>
        <time>2026-07-12T19:05:31.000Z</time>
      </trkpt>
      <trkpt lat="43.32487" lon="-1.82312">
        <ele>39</ele>
        <time>2026-07-12T19:05:32.000Z</time>
      </trkpt>
      <trkpt lat="43.32491" lon="-1.82311">
        <ele>39</ele>
        <time>2026-07-12T19:05:33.000Z</time>
      </trkpt>
      <trkpt lat="43.32497" lon="-1.8231">
        <ele>39</ele>
        <time>2026-07-12T19:05:34.000Z</time>
      </trkpt>
      <trkpt lat="43.32537" lon="-1.82308">
        <ele>35</ele>
        <time>2026-07-12T19:05:41.000Z</time>
      </trkpt>
      <trkpt lat="43.32542" lon="-1.82308">
        <ele>34</ele>
        <time>2026-07-12T19:05:42.000Z</time>
      </trkpt>
      <trkpt lat="43.32546" lon="-1.82308">
        <ele>34</ele>
        <time>2026-07-12T19:05:43.000Z</time>
      </trkpt>
      <trkpt lat="43.32551" lon="-1.82306">
        <ele>33</ele>
        <time>2026-07-12T19:05:44.000Z</time>
      </trkpt>
      <trkpt lat="43.32558" lon="-1.82302">
        <ele>33</ele>
        <time>2026-07-12T19:05:45.000Z</time>
      </trkpt>
      <trkpt lat="43.32564" lon="-1.82298">
        <ele>32</ele>
        <time>2026-07-12T19:05:46.000Z</time>
      </trkpt>
      <trkpt lat="43.32579" lon="-1.82284">
        <ele>29</ele>
        <time>2026-07-12T19:05:49.000Z</time>
      </trkpt>
      <trkpt lat="43.32585" lon="-1.82275">
        <ele>28</ele>
        <time>2026-07-12T19:05:51.000Z</time>
      </trkpt>
      <trkpt lat="43.32617" lon="-1.82223">
        <ele>26</ele>
        <time>2026-07-12T19:06:00.000Z</time>
      </trkpt>
      <trkpt lat="43.32623" lon="-1.82212">
        <ele>26</ele>
        <time>2026-07-12T19:06:02.000Z</time>
      </trkpt>
      <trkpt lat="43.3265" lon="-1.82167">
        <ele>24</ele>
        <time>2026-07-12T19:06:09.000Z</time>
      </trkpt>
      <trkpt lat="43.32651" lon="-1.82164">
        <ele>24</ele>
        <time>2026-07-12T19:06:10.000Z</time>
      </trkpt>
      <trkpt lat="43.32657" lon="-1.82141">
        <ele>24</ele>
        <time>2026-07-12T19:06:13.000Z</time>
      </trkpt>
      <trkpt lat="43.32657" lon="-1.82141">
        <ele>24</ele>
        <time>2026-07-12T19:06:13.000Z</time>
      </trkpt>
      <trkpt lat="43.32656" lon="-1.82139">
        <ele>24</ele>
        <time>2026-07-12T19:06:13.000Z</time>
      </trkpt>
      <trkpt lat="43.32655" lon="-1.82137">
        <ele>24</ele>
        <time>2026-07-12T19:06:13.000Z</time>
      </trkpt>
      <trkpt lat="43.32654" lon="-1.82135">
        <ele>24</ele>
        <time>2026-07-12T19:06:14.000Z</time>
      </trkpt>
      <trkpt lat="43.32653" lon="-1.82133">
        <ele>24</ele>
        <time>2026-07-12T19:06:14.000Z</time>
      </trkpt>
      <trkpt lat="43.32653" lon="-1.82131">
        <ele>24</ele>
        <time>2026-07-12T19:06:14.000Z</time>
      </trkpt>
      <trkpt lat="43.32652" lon="-1.82129">
        <ele>24</ele>
        <time>2026-07-12T19:06:15.000Z</time>
      </trkpt>
      <trkpt lat="43.32652" lon="-1.82126">
        <ele>24</ele>
        <time>2026-07-12T19:06:15.000Z</time>
      </trkpt>
      <trkpt lat="43.32652" lon="-1.82124">
        <ele>24</ele>
        <time>2026-07-12T19:06:15.000Z</time>
      </trkpt>
      <trkpt lat="43.32652" lon="-1.82122">
        <ele>24</ele>
        <time>2026-07-12T19:06:15.000Z</time>
      </trkpt>
      <trkpt lat="43.32652" lon="-1.82119">
        <ele>24</ele>
        <time>2026-07-12T19:06:16.000Z</time>
      </trkpt>
      <trkpt lat="43.32653" lon="-1.82117">
        <ele>24</ele>
        <time>2026-07-12T19:06:16.000Z</time>
      </trkpt>
      <trkpt lat="43.32653" lon="-1.82115">
        <ele>24</ele>
        <time>2026-07-12T19:06:16.000Z</time>
      </trkpt>
      <trkpt lat="43.32654" lon="-1.82112">
        <ele>24</ele>
        <time>2026-07-12T19:06:17.000Z</time>
      </trkpt>
      <trkpt lat="43.32654" lon="-1.8211">
        <ele>24</ele>
        <time>2026-07-12T19:06:17.000Z</time>
      </trkpt>
      <trkpt lat="43.32655" lon="-1.82108">
        <ele>24</ele>
        <time>2026-07-12T19:06:17.000Z</time>
      </trkpt>
      <trkpt lat="43.32656" lon="-1.82106">
        <ele>24</ele>
        <time>2026-07-12T19:06:18.000Z</time>
      </trkpt>
      <trkpt lat="43.32657" lon="-1.82105">
        <ele>24</ele>
        <time>2026-07-12T19:06:18.000Z</time>
      </trkpt>
      <trkpt lat="43.32659" lon="-1.82103">
        <ele>24</ele>
        <time>2026-07-12T19:06:18.000Z</time>
      </trkpt>
      <trkpt lat="43.3266" lon="-1.82102">
        <ele>24</ele>
        <time>2026-07-12T19:06:19.000Z</time>
      </trkpt>
      <trkpt lat="43.32661" lon="-1.821">
        <ele>24</ele>
        <time>2026-07-12T19:06:19.000Z</time>
      </trkpt>
      <trkpt lat="43.32663" lon="-1.82099">
        <ele>24</ele>
        <time>2026-07-12T19:06:19.000Z</time>
      </trkpt>
      <trkpt lat="43.32665" lon="-1.82098">
        <ele>24</ele>
        <time>2026-07-12T19:06:20.000Z</time>
      </trkpt>
      <trkpt lat="43.32666" lon="-1.82097">
        <ele>24</ele>
        <time>2026-07-12T19:06:20.000Z</time>
      </trkpt>
      <trkpt lat="43.32668" lon="-1.82097">
        <ele>24</ele>
        <time>2026-07-12T19:06:20.000Z</time>
      </trkpt>
      <trkpt lat="43.32669" lon="-1.82096">
        <ele>24</ele>
        <time>2026-07-12T19:06:20.000Z</time>
      </trkpt>
      <trkpt lat="43.32671" lon="-1.82096">
        <ele>24</ele>
        <time>2026-07-12T19:06:21.000Z</time>
      </trkpt>
      <trkpt lat="43.32673" lon="-1.82096">
        <ele>24</ele>
        <time>2026-07-12T19:06:21.000Z</time>
      </trkpt>
      <trkpt lat="43.32675" lon="-1.82097">
        <ele>24</ele>
        <time>2026-07-12T19:06:22.000Z</time>
      </trkpt>
      <trkpt lat="43.32676" lon="-1.82097">
        <ele>24</ele>
        <time>2026-07-12T19:06:22.000Z</time>
      </trkpt>
      <trkpt lat="43.32678" lon="-1.82098">
        <ele>24</ele>
        <time>2026-07-12T19:06:22.000Z</time>
      </trkpt>
      <trkpt lat="43.3268" lon="-1.82099">
        <ele>24</ele>
        <time>2026-07-12T19:06:23.000Z</time>
      </trkpt>
      <trkpt lat="43.32681" lon="-1.82099">
        <ele>24</ele>
        <time>2026-07-12T19:06:23.000Z</time>
      </trkpt>
      <trkpt lat="43.32682" lon="-1.821">
        <ele>24</ele>
        <time>2026-07-12T19:06:23.000Z</time>
      </trkpt>
      <trkpt lat="43.32683" lon="-1.82101">
        <ele>24</ele>
        <time>2026-07-12T19:06:23.000Z</time>
      </trkpt>
      <trkpt lat="43.32684" lon="-1.82102">
        <ele>24</ele>
        <time>2026-07-12T19:06:23.000Z</time>
      </trkpt>
      <trkpt lat="43.32684" lon="-1.82103">
        <ele>24</ele>
        <time>2026-07-12T19:06:23.000Z</time>
      </trkpt>
      <trkpt lat="43.32685" lon="-1.82104">
        <ele>24</ele>
        <time>2026-07-12T19:06:24.000Z</time>
      </trkpt>
      <trkpt lat="43.32686" lon="-1.82104">
        <ele>24</ele>
        <time>2026-07-12T19:06:24.000Z</time>
      </trkpt>
      <trkpt lat="43.32686" lon="-1.82105">
        <ele>24</ele>
        <time>2026-07-12T19:06:24.000Z</time>
      </trkpt>
      <trkpt lat="43.32687" lon="-1.82107">
        <ele>24</ele>
        <time>2026-07-12T19:06:24.000Z</time>
      </trkpt>
      <trkpt lat="43.32689" lon="-1.8211">
        <ele>24</ele>
        <time>2026-07-12T19:06:25.000Z</time>
      </trkpt>
      <trkpt lat="43.32689" lon="-1.82112">
        <ele>24</ele>
        <time>2026-07-12T19:06:25.000Z</time>
      </trkpt>
      <trkpt lat="43.3269" lon="-1.82114">
        <ele>24</ele>
        <time>2026-07-12T19:06:25.000Z</time>
      </trkpt>
      <trkpt lat="43.32691" lon="-1.82116">
        <ele>24</ele>
        <time>2026-07-12T19:06:26.000Z</time>
      </trkpt>
      <trkpt lat="43.32691" lon="-1.82119">
        <ele>24</ele>
        <time>2026-07-12T19:06:26.000Z</time>
      </trkpt>
      <trkpt lat="43.32691" lon="-1.82121">
        <ele>24</ele>
        <time>2026-07-12T19:06:26.000Z</time>
      </trkpt>
      <trkpt lat="43.32691" lon="-1.82123">
        <ele>24</ele>
        <time>2026-07-12T19:06:27.000Z</time>
      </trkpt>
      <trkpt lat="43.32691" lon="-1.82126">
        <ele>24</ele>
        <time>2026-07-12T19:06:27.000Z</time>
      </trkpt>
      <trkpt lat="43.32691" lon="-1.82128">
        <ele>24</ele>
        <time>2026-07-12T19:06:27.000Z</time>
      </trkpt>
      <trkpt lat="43.32691" lon="-1.8213">
        <ele>24</ele>
        <time>2026-07-12T19:06:28.000Z</time>
      </trkpt>
      <trkpt lat="43.3269" lon="-1.82133">
        <ele>24</ele>
        <time>2026-07-12T19:06:28.000Z</time>
      </trkpt>
      <trkpt lat="43.32689" lon="-1.82135">
        <ele>24</ele>
        <time>2026-07-12T19:06:28.000Z</time>
      </trkpt>
      <trkpt lat="43.32698" lon="-1.82153">
        <ele>24</ele>
        <time>2026-07-12T19:06:31.000Z</time>
      </trkpt>
      <trkpt lat="43.32701" lon="-1.82156">
        <ele>23</ele>
        <time>2026-07-12T19:06:32.000Z</time>
      </trkpt>
      <trkpt lat="43.32716" lon="-1.82172">
        <ele>23</ele>
        <time>2026-07-12T19:06:35.000Z</time>
      </trkpt>
      <trkpt lat="43.32734" lon="-1.82191">
        <ele>22</ele>
        <time>2026-07-12T19:06:39.000Z</time>
      </trkpt>
      <trkpt lat="43.32766" lon="-1.82225">
        <ele>20</ele>
        <time>2026-07-12T19:06:46.000Z</time>
      </trkpt>
      <trkpt lat="43.32772" lon="-1.82232">
        <ele>20</ele>
        <time>2026-07-12T19:06:48.000Z</time>
      </trkpt>
      <trkpt lat="43.3278" lon="-1.82244">
        <ele>19</ele>
        <time>2026-07-12T19:06:50.000Z</time>
      </trkpt>
      <trkpt lat="43.3279" lon="-1.82261">
        <ele>18</ele>
        <time>2026-07-12T19:06:53.000Z</time>
      </trkpt>
      <trkpt lat="43.32798" lon="-1.82278">
        <ele>18</ele>
        <time>2026-07-12T19:06:55.000Z</time>
      </trkpt>
      <trkpt lat="43.32802" lon="-1.82288">
        <ele>18</ele>
        <time>2026-07-12T19:06:57.000Z</time>
      </trkpt>
      <trkpt lat="43.32811" lon="-1.82311">
        <ele>17</ele>
        <time>2026-07-12T19:07:00.000Z</time>
      </trkpt>
      <trkpt lat="43.32829" lon="-1.82361">
        <ele>16</ele>
        <time>2026-07-12T19:07:07.000Z</time>
      </trkpt>
      <trkpt lat="43.32844" lon="-1.82397">
        <ele>16</ele>
        <time>2026-07-12T19:07:13.000Z</time>
      </trkpt>
      <trkpt lat="43.32851" lon="-1.8241">
        <ele>16</ele>
        <time>2026-07-12T19:07:15.000Z</time>
      </trkpt>
      <trkpt lat="43.32857" lon="-1.8242">
        <ele>16</ele>
        <time>2026-07-12T19:07:17.000Z</time>
      </trkpt>
      <trkpt lat="43.32859" lon="-1.82422">
        <ele>16</ele>
        <time>2026-07-12T19:07:17.000Z</time>
      </trkpt>
      <trkpt lat="43.32875" lon="-1.82439">
        <ele>16</ele>
        <time>2026-07-12T19:07:21.000Z</time>
      </trkpt>
      <trkpt lat="43.32884" lon="-1.82446">
        <ele>16</ele>
        <time>2026-07-12T19:07:22.000Z</time>
      </trkpt>
      <trkpt lat="43.32894" lon="-1.8245">
        <ele>16</ele>
        <time>2026-07-12T19:07:24.000Z</time>
      </trkpt>
      <trkpt lat="43.32907" lon="-1.82453">
        <ele>16</ele>
        <time>2026-07-12T19:07:27.000Z</time>
      </trkpt>
      <trkpt lat="43.32916" lon="-1.82454">
        <ele>16</ele>
        <time>2026-07-12T19:07:28.000Z</time>
      </trkpt>
      <trkpt lat="43.32923" lon="-1.82454">
        <ele>16</ele>
        <time>2026-07-12T19:07:29.000Z</time>
      </trkpt>
      <trkpt lat="43.32926" lon="-1.82454">
        <ele>16</ele>
        <time>2026-07-12T19:07:30.000Z</time>
      </trkpt>
      <trkpt lat="43.32935" lon="-1.82451">
        <ele>15</ele>
        <time>2026-07-12T19:07:32.000Z</time>
      </trkpt>
      <trkpt lat="43.3294" lon="-1.82447">
        <ele>15</ele>
        <time>2026-07-12T19:07:33.000Z</time>
      </trkpt>
      <trkpt lat="43.3296" lon="-1.82439">
        <ele>14</ele>
        <time>2026-07-12T19:07:36.000Z</time>
      </trkpt>
      <trkpt lat="43.3296" lon="-1.82439">
        <ele>14</ele>
        <time>2026-07-12T19:07:36.000Z</time>
      </trkpt>
      <trkpt lat="43.32962" lon="-1.82433">
        <ele>15</ele>
        <time>2026-07-12T19:07:37.000Z</time>
      </trkpt>
      <trkpt lat="43.32963" lon="-1.8243">
        <ele>15</ele>
        <time>2026-07-12T19:07:38.000Z</time>
      </trkpt>
      <trkpt lat="43.32964" lon="-1.82427">
        <ele>15</ele>
        <time>2026-07-12T19:07:38.000Z</time>
      </trkpt>
      <trkpt lat="43.32966" lon="-1.82424">
        <ele>15</ele>
        <time>2026-07-12T19:07:39.000Z</time>
      </trkpt>
      <trkpt lat="43.32968" lon="-1.82421">
        <ele>15</ele>
        <time>2026-07-12T19:07:39.000Z</time>
      </trkpt>
      <trkpt lat="43.3297" lon="-1.82419">
        <ele>15</ele>
        <time>2026-07-12T19:07:40.000Z</time>
      </trkpt>
      <trkpt lat="43.32972" lon="-1.82418">
        <ele>15</ele>
        <time>2026-07-12T19:07:40.000Z</time>
      </trkpt>
      <trkpt lat="43.32975" lon="-1.82416">
        <ele>15</ele>
        <time>2026-07-12T19:07:41.000Z</time>
      </trkpt>
      <trkpt lat="43.32977" lon="-1.82415">
        <ele>15</ele>
        <time>2026-07-12T19:07:41.000Z</time>
      </trkpt>
      <trkpt lat="43.3298" lon="-1.82414">
        <ele>15</ele>
        <time>2026-07-12T19:07:42.000Z</time>
      </trkpt>
      <trkpt lat="43.32983" lon="-1.82414">
        <ele>14</ele>
        <time>2026-07-12T19:07:42.000Z</time>
      </trkpt>
      <trkpt lat="43.33056" lon="-1.821">
        <ele>23</ele>
        <time>2026-07-12T19:08:25.000Z</time>
      </trkpt>
      <trkpt lat="43.33053" lon="-1.82096">
        <ele>23</ele>
        <time>2026-07-12T19:08:25.000Z</time>
      </trkpt>
      <trkpt lat="43.33052" lon="-1.82094">
        <ele>23</ele>
        <time>2026-07-12T19:08:26.000Z</time>
      </trkpt>
      <trkpt lat="43.3305" lon="-1.82091">
        <ele>23</ele>
        <time>2026-07-12T19:08:26.000Z</time>
      </trkpt>
      <trkpt lat="43.33049" lon="-1.82088">
        <ele>23</ele>
        <time>2026-07-12T19:08:27.000Z</time>
      </trkpt>
      <trkpt lat="43.33048" lon="-1.82086">
        <ele>23</ele>
        <time>2026-07-12T19:08:27.000Z</time>
      </trkpt>
      <trkpt lat="43.33047" lon="-1.82082">
        <ele>23</ele>
        <time>2026-07-12T19:08:28.000Z</time>
      </trkpt>
      <trkpt lat="43.33046" lon="-1.82079">
        <ele>23</ele>
        <time>2026-07-12T19:08:28.000Z</time>
      </trkpt>
      <trkpt lat="43.33045" lon="-1.82076">
        <ele>23</ele>
        <time>2026-07-12T19:08:28.000Z</time>
      </trkpt>
      <trkpt lat="43.33046" lon="-1.82069">
        <ele>24</ele>
        <time>2026-07-12T19:08:29.000Z</time>
      </trkpt>
      <trkpt lat="43.33046" lon="-1.82066">
        <ele>24</ele>
        <time>2026-07-12T19:08:30.000Z</time>
      </trkpt>
      <trkpt lat="43.33047" lon="-1.82063">
        <ele>24</ele>
        <time>2026-07-12T19:08:30.000Z</time>
      </trkpt>
      <trkpt lat="43.33048" lon="-1.8206">
        <ele>24</ele>
        <time>2026-07-12T19:08:31.000Z</time>
      </trkpt>
      <trkpt lat="43.33049" lon="-1.82057">
        <ele>24</ele>
        <time>2026-07-12T19:08:31.000Z</time>
      </trkpt>
      <trkpt lat="43.3305" lon="-1.82054">
        <ele>24</ele>
        <time>2026-07-12T19:08:31.000Z</time>
      </trkpt>
      <trkpt lat="43.33052" lon="-1.82051">
        <ele>24</ele>
        <time>2026-07-12T19:08:32.000Z</time>
      </trkpt>
      <trkpt lat="43.33053" lon="-1.82049">
        <ele>24</ele>
        <time>2026-07-12T19:08:32.000Z</time>
      </trkpt>
      <trkpt lat="43.33055" lon="-1.82047">
        <ele>23</ele>
        <time>2026-07-12T19:08:33.000Z</time>
      </trkpt>
      <trkpt lat="43.33057" lon="-1.82046">
        <ele>23</ele>
        <time>2026-07-12T19:08:33.000Z</time>
      </trkpt>
      <trkpt lat="43.33059" lon="-1.82044">
        <ele>23</ele>
        <time>2026-07-12T19:08:34.000Z</time>
      </trkpt>
      <trkpt lat="43.33061" lon="-1.82043">
        <ele>23</ele>
        <time>2026-07-12T19:08:34.000Z</time>
      </trkpt>
      <trkpt lat="43.33063" lon="-1.82042">
        <ele>23</ele>
        <time>2026-07-12T19:08:34.000Z</time>
      </trkpt>
      <trkpt lat="43.33065" lon="-1.82041">
        <ele>23</ele>
        <time>2026-07-12T19:08:35.000Z</time>
      </trkpt>
      <trkpt lat="43.33067" lon="-1.82041">
        <ele>23</ele>
        <time>2026-07-12T19:08:35.000Z</time>
      </trkpt>
      <trkpt lat="43.33069" lon="-1.82041">
        <ele>23</ele>
        <time>2026-07-12T19:08:35.000Z</time>
      </trkpt>
      <trkpt lat="43.33082" lon="-1.81989">
        <ele>23</ele>
        <time>2026-07-12T19:08:43.000Z</time>
      </trkpt>
      <trkpt lat="43.33084" lon="-1.81981">
        <ele>23</ele>
        <time>2026-07-12T19:08:44.000Z</time>
      </trkpt>
      <trkpt lat="43.33111" lon="-1.81911">
        <ele>24</ele>
        <time>2026-07-12T19:08:54.000Z</time>
      </trkpt>
      <trkpt lat="43.33113" lon="-1.81906">
        <ele>24</ele>
        <time>2026-07-12T19:08:55.000Z</time>
      </trkpt>
      <trkpt lat="43.33139" lon="-1.81861">
        <ele>24</ele>
        <time>2026-07-12T19:09:02.000Z</time>
      </trkpt>
      <trkpt lat="43.33145" lon="-1.81852">
        <ele>24</ele>
        <time>2026-07-12T19:09:04.000Z</time>
      </trkpt>
      <trkpt lat="43.33171" lon="-1.8182">
        <ele>24</ele>
        <time>2026-07-12T19:09:10.000Z</time>
      </trkpt>
      <trkpt lat="43.332" lon="-1.81793">
        <ele>25</ele>
        <time>2026-07-12T19:09:16.000Z</time>
      </trkpt>
      <trkpt lat="43.3323" lon="-1.81768">
        <ele>26</ele>
        <time>2026-07-12T19:09:22.000Z</time>
      </trkpt>
      <trkpt lat="43.33292" lon="-1.81713">
        <ele>27</ele>
        <time>2026-07-12T19:09:35.000Z</time>
      </trkpt>
      <trkpt lat="43.33307" lon="-1.81694">
        <ele>27</ele>
        <time>2026-07-12T19:09:39.000Z</time>
      </trkpt>
      <trkpt lat="43.33307" lon="-1.8169">
        <ele>27</ele>
        <time>2026-07-12T19:09:40.000Z</time>
      </trkpt>
      <trkpt lat="43.33307" lon="-1.81687">
        <ele>27</ele>
        <time>2026-07-12T19:09:40.000Z</time>
      </trkpt>
      <trkpt lat="43.33307" lon="-1.81684">
        <ele>27</ele>
        <time>2026-07-12T19:09:40.000Z</time>
      </trkpt>
      <trkpt lat="43.33307" lon="-1.8168">
        <ele>27</ele>
        <time>2026-07-12T19:09:41.000Z</time>
      </trkpt>
      <trkpt lat="43.33308" lon="-1.81677">
        <ele>27</ele>
        <time>2026-07-12T19:09:41.000Z</time>
      </trkpt>
      <trkpt lat="43.33309" lon="-1.81674">
        <ele>27</ele>
        <time>2026-07-12T19:09:42.000Z</time>
      </trkpt>
      <trkpt lat="43.3331" lon="-1.81671">
        <ele>27</ele>
        <time>2026-07-12T19:09:42.000Z</time>
      </trkpt>
      <trkpt lat="43.33311" lon="-1.81669">
        <ele>27</ele>
        <time>2026-07-12T19:09:42.000Z</time>
      </trkpt>
      <trkpt lat="43.33313" lon="-1.81666">
        <ele>27</ele>
        <time>2026-07-12T19:09:43.000Z</time>
      </trkpt>
      <trkpt lat="43.33314" lon="-1.81664">
        <ele>27</ele>
        <time>2026-07-12T19:09:43.000Z</time>
      </trkpt>
      <trkpt lat="43.33316" lon="-1.81661">
        <ele>27</ele>
        <time>2026-07-12T19:09:44.000Z</time>
      </trkpt>
      <trkpt lat="43.33318" lon="-1.8166">
        <ele>27</ele>
        <time>2026-07-12T19:09:44.000Z</time>
      </trkpt>
      <trkpt lat="43.33319" lon="-1.81659">
        <ele>27</ele>
        <time>2026-07-12T19:09:44.000Z</time>
      </trkpt>
      <trkpt lat="43.3332" lon="-1.81658">
        <ele>27</ele>
        <time>2026-07-12T19:09:45.000Z</time>
      </trkpt>
      <trkpt lat="43.33321" lon="-1.81657">
        <ele>27</ele>
        <time>2026-07-12T19:09:45.000Z</time>
      </trkpt>
      <trkpt lat="43.33323" lon="-1.81656">
        <ele>27</ele>
        <time>2026-07-12T19:09:45.000Z</time>
      </trkpt>
      <trkpt lat="43.33324" lon="-1.81655">
        <ele>27</ele>
        <time>2026-07-12T19:09:45.000Z</time>
      </trkpt>
      <trkpt lat="43.33325" lon="-1.81655">
        <ele>27</ele>
        <time>2026-07-12T19:09:46.000Z</time>
      </trkpt>
      <trkpt lat="43.33327" lon="-1.81653">
        <ele>27</ele>
        <time>2026-07-12T19:09:46.000Z</time>
      </trkpt>
      <trkpt lat="43.33331" lon="-1.81654">
        <ele>27</ele>
        <time>2026-07-12T19:09:47.000Z</time>
      </trkpt>
      <trkpt lat="43.33333" lon="-1.81654">
        <ele>27</ele>
        <time>2026-07-12T19:09:47.000Z</time>
      </trkpt>
      <trkpt lat="43.33335" lon="-1.81654">
        <ele>27</ele>
        <time>2026-07-12T19:09:48.000Z</time>
      </trkpt>
      <trkpt lat="43.33337" lon="-1.81655">
        <ele>27</ele>
        <time>2026-07-12T19:09:48.000Z</time>
      </trkpt>
      <trkpt lat="43.33339" lon="-1.81657">
        <ele>27</ele>
        <time>2026-07-12T19:09:48.000Z</time>
      </trkpt>
      <trkpt lat="43.33341" lon="-1.81658">
        <ele>27</ele>
        <time>2026-07-12T19:09:49.000Z</time>
      </trkpt>
      <trkpt lat="43.33343" lon="-1.8166">
        <ele>27</ele>
        <time>2026-07-12T19:09:49.000Z</time>
      </trkpt>
      <trkpt lat="43.33344" lon="-1.81662">
        <ele>27</ele>
        <time>2026-07-12T19:09:49.000Z</time>
      </trkpt>
      <trkpt lat="43.33381" lon="-1.81633">
        <ele>25</ele>
        <time>2026-07-12T19:09:57.000Z</time>
      </trkpt>
      <trkpt lat="43.33386" lon="-1.81629">
        <ele>25</ele>
        <time>2026-07-12T19:09:58.000Z</time>
      </trkpt>
      <trkpt lat="43.33423" lon="-1.81595">
        <ele>23</ele>
        <time>2026-07-12T19:10:06.000Z</time>
      </trkpt>
      <trkpt lat="43.33443" lon="-1.81576">
        <ele>22</ele>
        <time>2026-07-12T19:10:10.000Z</time>
      </trkpt>
      <trkpt lat="43.33643" lon="-1.81393">
        <ele>16</ele>
        <time>2026-07-12T19:10:53.000Z</time>
      </trkpt>
      <trkpt lat="43.33739" lon="-1.81306">
        <ele>20</ele>
        <time>2026-07-12T19:11:14.000Z</time>
      </trkpt>
      <trkpt lat="43.3378" lon="-1.81269">
        <ele>23</ele>
        <time>2026-07-12T19:11:22.000Z</time>
      </trkpt>
      <trkpt lat="43.33797" lon="-1.81254">
        <ele>25</ele>
        <time>2026-07-12T19:11:26.000Z</time>
      </trkpt>
      <trkpt lat="43.33837" lon="-1.81218">
        <ele>27</ele>
        <time>2026-07-12T19:11:34.000Z</time>
      </trkpt>
      <trkpt lat="43.33876" lon="-1.81182">
        <ele>28</ele>
        <time>2026-07-12T19:11:43.000Z</time>
      </trkpt>
      <trkpt lat="43.33916" lon="-1.81146">
        <ele>29</ele>
        <time>2026-07-12T19:11:51.000Z</time>
      </trkpt>
      <trkpt lat="43.33926" lon="-1.81136">
        <ele>29</ele>
        <time>2026-07-12T19:11:53.000Z</time>
      </trkpt>
      <trkpt lat="43.33931" lon="-1.81132">
        <ele>29</ele>
        <time>2026-07-12T19:11:54.000Z</time>
      </trkpt>
      <trkpt lat="43.33943" lon="-1.81121">
        <ele>28</ele>
        <time>2026-07-12T19:11:57.000Z</time>
      </trkpt>
      <trkpt lat="43.33942" lon="-1.81119">
        <ele>28</ele>
        <time>2026-07-12T19:11:57.000Z</time>
      </trkpt>
      <trkpt lat="43.33942" lon="-1.81118">
        <ele>28</ele>
        <time>2026-07-12T19:11:57.000Z</time>
      </trkpt>
      <trkpt lat="43.33942" lon="-1.81116">
        <ele>28</ele>
        <time>2026-07-12T19:11:58.000Z</time>
      </trkpt>
      <trkpt lat="43.33941" lon="-1.81114">
        <ele>28</ele>
        <time>2026-07-12T19:11:58.000Z</time>
      </trkpt>
      <trkpt lat="43.33941" lon="-1.81112">
        <ele>28</ele>
        <time>2026-07-12T19:11:58.000Z</time>
      </trkpt>
      <trkpt lat="43.33941" lon="-1.8111">
        <ele>28</ele>
        <time>2026-07-12T19:11:59.000Z</time>
      </trkpt>
      <trkpt lat="43.33941" lon="-1.81109">
        <ele>28</ele>
        <time>2026-07-12T19:11:59.000Z</time>
      </trkpt>
      <trkpt lat="43.33942" lon="-1.81105">
        <ele>28</ele>
        <time>2026-07-12T19:11:59.000Z</time>
      </trkpt>
      <trkpt lat="43.33942" lon="-1.81104">
        <ele>28</ele>
        <time>2026-07-12T19:11:59.000Z</time>
      </trkpt>
      <trkpt lat="43.33942" lon="-1.81101">
        <ele>28</ele>
        <time>2026-07-12T19:12:00.000Z</time>
      </trkpt>
      <trkpt lat="43.33943" lon="-1.81098">
        <ele>28</ele>
        <time>2026-07-12T19:12:00.000Z</time>
      </trkpt>
      <trkpt lat="43.33944" lon="-1.81095">
        <ele>28</ele>
        <time>2026-07-12T19:12:01.000Z</time>
      </trkpt>
      <trkpt lat="43.33945" lon="-1.81093">
        <ele>28</ele>
        <time>2026-07-12T19:12:01.000Z</time>
      </trkpt>
      <trkpt lat="43.33947" lon="-1.8109">
        <ele>28</ele>
        <time>2026-07-12T19:12:01.000Z</time>
      </trkpt>
      <trkpt lat="43.33948" lon="-1.81088">
        <ele>28</ele>
        <time>2026-07-12T19:12:02.000Z</time>
      </trkpt>
      <trkpt lat="43.3395" lon="-1.81086">
        <ele>27</ele>
        <time>2026-07-12T19:12:02.000Z</time>
      </trkpt>
      <trkpt lat="43.33952" lon="-1.81084">
        <ele>27</ele>
        <time>2026-07-12T19:12:03.000Z</time>
      </trkpt>
      <trkpt lat="43.33954" lon="-1.81083">
        <ele>27</ele>
        <time>2026-07-12T19:12:03.000Z</time>
      </trkpt>
      <trkpt lat="43.33958" lon="-1.81081">
        <ele>27</ele>
        <time>2026-07-12T19:12:04.000Z</time>
      </trkpt>
      <trkpt lat="43.33959" lon="-1.8108">
        <ele>27</ele>
        <time>2026-07-12T19:12:04.000Z</time>
      </trkpt>
      <trkpt lat="43.3396" lon="-1.8108">
        <ele>27</ele>
        <time>2026-07-12T19:12:04.000Z</time>
      </trkpt>
      <trkpt lat="43.33961" lon="-1.8108">
        <ele>27</ele>
        <time>2026-07-12T19:12:04.000Z</time>
      </trkpt>
      <trkpt lat="43.33962" lon="-1.8108">
        <ele>27</ele>
        <time>2026-07-12T19:12:05.000Z</time>
      </trkpt>
      <trkpt lat="43.33963" lon="-1.8108">
        <ele>27</ele>
        <time>2026-07-12T19:12:05.000Z</time>
      </trkpt>
      <trkpt lat="43.33964" lon="-1.8108">
        <ele>27</ele>
        <time>2026-07-12T19:12:05.000Z</time>
      </trkpt>
      <trkpt lat="43.33965" lon="-1.81079">
        <ele>27</ele>
        <time>2026-07-12T19:12:05.000Z</time>
      </trkpt>
      <trkpt lat="43.33966" lon="-1.81079">
        <ele>27</ele>
        <time>2026-07-12T19:12:05.000Z</time>
      </trkpt>
      <trkpt lat="43.33968" lon="-1.8108">
        <ele>26</ele>
        <time>2026-07-12T19:12:06.000Z</time>
      </trkpt>
      <trkpt lat="43.3397" lon="-1.8108">
        <ele>26</ele>
        <time>2026-07-12T19:12:06.000Z</time>
      </trkpt>
      <trkpt lat="43.33971" lon="-1.8108">
        <ele>26</ele>
        <time>2026-07-12T19:12:06.000Z</time>
      </trkpt>
      <trkpt lat="43.33973" lon="-1.81081">
        <ele>26</ele>
        <time>2026-07-12T19:12:07.000Z</time>
      </trkpt>
      <trkpt lat="43.33974" lon="-1.81082">
        <ele>26</ele>
        <time>2026-07-12T19:12:07.000Z</time>
      </trkpt>
      <trkpt lat="43.33976" lon="-1.81084">
        <ele>26</ele>
        <time>2026-07-12T19:12:07.000Z</time>
      </trkpt>
      <trkpt lat="43.33977" lon="-1.81085">
        <ele>26</ele>
        <time>2026-07-12T19:12:07.000Z</time>
      </trkpt>
      <trkpt lat="43.34001" lon="-1.81067">
        <ele>25</ele>
        <time>2026-07-12T19:12:12.000Z</time>
      </trkpt>
      <trkpt lat="43.3401" lon="-1.81059">
        <ele>25</ele>
        <time>2026-07-12T19:12:14.000Z</time>
      </trkpt>
      <trkpt lat="43.34027" lon="-1.81042">
        <ele>25</ele>
        <time>2026-07-12T19:12:18.000Z</time>
      </trkpt>
      <trkpt lat="43.3403" lon="-1.8104">
        <ele>24</ele>
        <time>2026-07-12T19:12:19.000Z</time>
      </trkpt>
      <trkpt lat="43.3405" lon="-1.81021">
        <ele>24</ele>
        <time>2026-07-12T19:12:23.000Z</time>
      </trkpt>
      <trkpt lat="43.34085" lon="-1.80983">
        <ele>22</ele>
        <time>2026-07-12T19:12:31.000Z</time>
      </trkpt>
      <trkpt lat="43.34096" lon="-1.80971">
        <ele>22</ele>
        <time>2026-07-12T19:12:33.000Z</time>
      </trkpt>
      <trkpt lat="43.34099" lon="-1.80967">
        <ele>21</ele>
        <time>2026-07-12T19:12:34.000Z</time>
      </trkpt>
      <trkpt lat="43.34103" lon="-1.80962">
        <ele>21</ele>
        <time>2026-07-12T19:12:35.000Z</time>
      </trkpt>
      <trkpt lat="43.3413" lon="-1.80932">
        <ele>19</ele>
        <time>2026-07-12T19:12:41.000Z</time>
      </trkpt>
      <trkpt lat="43.34146" lon="-1.80914">
        <ele>17</ele>
        <time>2026-07-12T19:12:45.000Z</time>
      </trkpt>
      <trkpt lat="43.34163" lon="-1.80894">
        <ele>17</ele>
        <time>2026-07-12T19:12:49.000Z</time>
      </trkpt>
      <trkpt lat="43.3418" lon="-1.80871">
        <ele>17</ele>
        <time>2026-07-12T19:12:53.000Z</time>
      </trkpt>
      <trkpt lat="43.34192" lon="-1.80854">
        <ele>18</ele>
        <time>2026-07-12T19:12:56.000Z</time>
      </trkpt>
      <trkpt lat="43.34204" lon="-1.80837">
        <ele>18</ele>
        <time>2026-07-12T19:12:59.000Z</time>
      </trkpt>
      <trkpt lat="43.34223" lon="-1.80809">
        <ele>16</ele>
        <time>2026-07-12T19:13:04.000Z</time>
      </trkpt>
      <trkpt lat="43.34227" lon="-1.80801">
        <ele>16</ele>
        <time>2026-07-12T19:13:05.000Z</time>
      </trkpt>
      <trkpt lat="43.34249" lon="-1.80766">
        <ele>12</ele>
        <time>2026-07-12T19:13:11.000Z</time>
      </trkpt>
      <trkpt lat="43.34257" lon="-1.80753">
        <ele>11</ele>
        <time>2026-07-12T19:13:14.000Z</time>
      </trkpt>
      <trkpt lat="43.34282" lon="-1.80709">
        <ele>11</ele>
        <time>2026-07-12T19:13:21.000Z</time>
      </trkpt>
      <trkpt lat="43.34328" lon="-1.8063">
        <ele>14</ele>
        <time>2026-07-12T19:13:34.000Z</time>
      </trkpt>
      <trkpt lat="43.34356" lon="-1.80582">
        <ele>14</ele>
        <time>2026-07-12T19:13:42.000Z</time>
      </trkpt>
      <trkpt lat="43.34366" lon="-1.80565">
        <ele>14</ele>
        <time>2026-07-12T19:13:45.000Z</time>
      </trkpt>
      <trkpt lat="43.34372" lon="-1.80555">
        <ele>13</ele>
        <time>2026-07-12T19:13:46.000Z</time>
      </trkpt>
      <trkpt lat="43.34374" lon="-1.80549">
        <ele>13</ele>
        <time>2026-07-12T19:13:47.000Z</time>
      </trkpt>
      <trkpt lat="43.34374" lon="-1.80545">
        <ele>13</ele>
        <time>2026-07-12T19:13:48.000Z</time>
      </trkpt>
      <trkpt lat="43.34374" lon="-1.80538">
        <ele>13</ele>
        <time>2026-07-12T19:13:49.000Z</time>
      </trkpt>
      <trkpt lat="43.34373" lon="-1.80537">
        <ele>13</ele>
        <time>2026-07-12T19:13:49.000Z</time>
      </trkpt>
      <trkpt lat="43.34372" lon="-1.80536">
        <ele>13</ele>
        <time>2026-07-12T19:13:49.000Z</time>
      </trkpt>
      <trkpt lat="43.34371" lon="-1.80535">
        <ele>13</ele>
        <time>2026-07-12T19:13:49.000Z</time>
      </trkpt>
      <trkpt lat="43.3437" lon="-1.80534">
        <ele>13</ele>
        <time>2026-07-12T19:13:50.000Z</time>
      </trkpt>
      <trkpt lat="43.34369" lon="-1.80533">
        <ele>13</ele>
        <time>2026-07-12T19:13:50.000Z</time>
      </trkpt>
      <trkpt lat="43.34368" lon="-1.80532">
        <ele>13</ele>
        <time>2026-07-12T19:13:50.000Z</time>
      </trkpt>
      <trkpt lat="43.34367" lon="-1.8053">
        <ele>13</ele>
        <time>2026-07-12T19:13:50.000Z</time>
      </trkpt>
      <trkpt lat="43.34366" lon="-1.80529">
        <ele>13</ele>
        <time>2026-07-12T19:13:51.000Z</time>
      </trkpt>
      <trkpt lat="43.34365" lon="-1.80527">
        <ele>12</ele>
        <time>2026-07-12T19:13:51.000Z</time>
      </trkpt>
      <trkpt lat="43.34365" lon="-1.80525">
        <ele>12</ele>
        <time>2026-07-12T19:13:51.000Z</time>
      </trkpt>
      <trkpt lat="43.34364" lon="-1.80522">
        <ele>12</ele>
        <time>2026-07-12T19:13:52.000Z</time>
      </trkpt>
      <trkpt lat="43.34364" lon="-1.8052">
        <ele>12</ele>
        <time>2026-07-12T19:13:52.000Z</time>
      </trkpt>
      <trkpt lat="43.34363" lon="-1.80518">
        <ele>12</ele>
        <time>2026-07-12T19:13:52.000Z</time>
      </trkpt>
      <trkpt lat="43.34363" lon="-1.80516">
        <ele>12</ele>
        <time>2026-07-12T19:13:52.000Z</time>
      </trkpt>
      <trkpt lat="43.34363" lon="-1.80513">
        <ele>12</ele>
        <time>2026-07-12T19:13:53.000Z</time>
      </trkpt>
      <trkpt lat="43.34363" lon="-1.80511">
        <ele>12</ele>
        <time>2026-07-12T19:13:53.000Z</time>
      </trkpt>
      <trkpt lat="43.34364" lon="-1.80509">
        <ele>12</ele>
        <time>2026-07-12T19:13:53.000Z</time>
      </trkpt>
      <trkpt lat="43.34364" lon="-1.80507">
        <ele>12</ele>
        <time>2026-07-12T19:13:54.000Z</time>
      </trkpt>
      <trkpt lat="43.34365" lon="-1.80505">
        <ele>12</ele>
        <time>2026-07-12T19:13:54.000Z</time>
      </trkpt>
      <trkpt lat="43.34365" lon="-1.80503">
        <ele>12</ele>
        <time>2026-07-12T19:13:54.000Z</time>
      </trkpt>
      <trkpt lat="43.34366" lon="-1.80501">
        <ele>12</ele>
        <time>2026-07-12T19:13:54.000Z</time>
      </trkpt>
      <trkpt lat="43.34367" lon="-1.80499">
        <ele>12</ele>
        <time>2026-07-12T19:13:55.000Z</time>
      </trkpt>
      <trkpt lat="43.34368" lon="-1.80497">
        <ele>12</ele>
        <time>2026-07-12T19:13:55.000Z</time>
      </trkpt>
      <trkpt lat="43.3437" lon="-1.80495">
        <ele>12</ele>
        <time>2026-07-12T19:13:56.000Z</time>
      </trkpt>
      <trkpt lat="43.34371" lon="-1.80494">
        <ele>12</ele>
        <time>2026-07-12T19:13:56.000Z</time>
      </trkpt>
      <trkpt lat="43.34372" lon="-1.80493">
        <ele>12</ele>
        <time>2026-07-12T19:13:56.000Z</time>
      </trkpt>
      <trkpt lat="43.34373" lon="-1.80492">
        <ele>12</ele>
        <time>2026-07-12T19:13:56.000Z</time>
      </trkpt>
      <trkpt lat="43.34374" lon="-1.80491">
        <ele>12</ele>
        <time>2026-07-12T19:13:56.000Z</time>
      </trkpt>
      <trkpt lat="43.34375" lon="-1.8049">
        <ele>12</ele>
        <time>2026-07-12T19:13:57.000Z</time>
      </trkpt>
      <trkpt lat="43.34376" lon="-1.8049">
        <ele>12</ele>
        <time>2026-07-12T19:13:57.000Z</time>
      </trkpt>
      <trkpt lat="43.34377" lon="-1.80489">
        <ele>12</ele>
        <time>2026-07-12T19:13:57.000Z</time>
      </trkpt>
      <trkpt lat="43.34378" lon="-1.80489">
        <ele>12</ele>
        <time>2026-07-12T19:13:57.000Z</time>
      </trkpt>
      <trkpt lat="43.3438" lon="-1.80488">
        <ele>12</ele>
        <time>2026-07-12T19:13:58.000Z</time>
      </trkpt>
      <trkpt lat="43.34381" lon="-1.80488">
        <ele>12</ele>
        <time>2026-07-12T19:13:58.000Z</time>
      </trkpt>
      <trkpt lat="43.34383" lon="-1.80488">
        <ele>12</ele>
        <time>2026-07-12T19:13:58.000Z</time>
      </trkpt>
      <trkpt lat="43.34384" lon="-1.80488">
        <ele>12</ele>
        <time>2026-07-12T19:13:58.000Z</time>
      </trkpt>
      <trkpt lat="43.34386" lon="-1.80488">
        <ele>12</ele>
        <time>2026-07-12T19:13:59.000Z</time>
      </trkpt>
      <trkpt lat="43.34388" lon="-1.80489">
        <ele>12</ele>
        <time>2026-07-12T19:13:59.000Z</time>
      </trkpt>
      <trkpt lat="43.34389" lon="-1.8049">
        <ele>12</ele>
        <time>2026-07-12T19:13:59.000Z</time>
      </trkpt>
      <trkpt lat="43.34391" lon="-1.8049">
        <ele>12</ele>
        <time>2026-07-12T19:14:00.000Z</time>
      </trkpt>
      <trkpt lat="43.34402" lon="-1.80487">
        <ele>12</ele>
        <time>2026-07-12T19:14:02.000Z</time>
      </trkpt>
      <trkpt lat="43.34408" lon="-1.80484">
        <ele>12</ele>
        <time>2026-07-12T19:14:03.000Z</time>
      </trkpt>
      <trkpt lat="43.34411" lon="-1.80481">
        <ele>12</ele>
        <time>2026-07-12T19:14:03.000Z</time>
      </trkpt>
      <trkpt lat="43.34415" lon="-1.80477">
        <ele>12</ele>
        <time>2026-07-12T19:14:04.000Z</time>
      </trkpt>
      <trkpt lat="43.3442" lon="-1.80466">
        <ele>11</ele>
        <time>2026-07-12T19:14:06.000Z</time>
      </trkpt>
      <trkpt lat="43.34421" lon="-1.80465">
        <ele>11</ele>
        <time>2026-07-12T19:14:06.000Z</time>
      </trkpt>
      <trkpt lat="43.34427" lon="-1.80452">
        <ele>11</ele>
        <time>2026-07-12T19:14:08.000Z</time>
      </trkpt>
      <trkpt lat="43.3443" lon="-1.80443">
        <ele>11</ele>
        <time>2026-07-12T19:14:09.000Z</time>
      </trkpt>
      <trkpt lat="43.34436" lon="-1.80428">
        <ele>10</ele>
        <time>2026-07-12T19:14:12.000Z</time>
      </trkpt>
      <trkpt lat="43.34441" lon="-1.80414">
        <ele>10</ele>
        <time>2026-07-12T19:14:14.000Z</time>
      </trkpt>
      <trkpt lat="43.34445" lon="-1.80403">
        <ele>10</ele>
        <time>2026-07-12T19:14:15.000Z</time>
      </trkpt>
      <trkpt lat="43.3445" lon="-1.80387">
        <ele>9</ele>
        <time>2026-07-12T19:14:18.000Z</time>
      </trkpt>
      <trkpt lat="43.34454" lon="-1.80373">
        <ele>9</ele>
        <time>2026-07-12T19:14:20.000Z</time>
      </trkpt>
      <trkpt lat="43.34458" lon="-1.80356">
        <ele>8</ele>
        <time>2026-07-12T19:14:22.000Z</time>
      </trkpt>
      <trkpt lat="43.34464" lon="-1.80333">
        <ele>8</ele>
        <time>2026-07-12T19:14:25.000Z</time>
      </trkpt>
      <trkpt lat="43.34468" lon="-1.80316">
        <ele>7</ele>
        <time>2026-07-12T19:14:27.000Z</time>
      </trkpt>
      <trkpt lat="43.34471" lon="-1.80304">
        <ele>7</ele>
        <time>2026-07-12T19:14:29.000Z</time>
      </trkpt>
      <trkpt lat="43.34478" lon="-1.80275">
        <ele>6</ele>
        <time>2026-07-12T19:14:33.000Z</time>
      </trkpt>
      <trkpt lat="43.34483" lon="-1.80257">
        <ele>5</ele>
        <time>2026-07-12T19:14:35.000Z</time>
      </trkpt>
      <trkpt lat="43.34488" lon="-1.80234">
        <ele>5</ele>
        <time>2026-07-12T19:14:38.000Z</time>
      </trkpt>
      <trkpt lat="43.34494" lon="-1.80212">
        <ele>6</ele>
        <time>2026-07-12T19:14:42.000Z</time>
      </trkpt>
      <trkpt lat="43.34502" lon="-1.80179">
        <ele>6</ele>
        <time>2026-07-12T19:14:46.000Z</time>
      </trkpt>
      <trkpt lat="43.34502" lon="-1.80175">
        <ele>6</ele>
        <time>2026-07-12T19:14:47.000Z</time>
      </trkpt>
      <trkpt lat="43.34503" lon="-1.80171">
        <ele>6</ele>
        <time>2026-07-12T19:14:47.000Z</time>
      </trkpt>
      <trkpt lat="43.34503" lon="-1.80164">
        <ele>6</ele>
        <time>2026-07-12T19:14:48.000Z</time>
      </trkpt>
      <trkpt lat="43.34503" lon="-1.80159">
        <ele>6</ele>
        <time>2026-07-12T19:14:49.000Z</time>
      </trkpt>
      <trkpt lat="43.34503" lon="-1.80151">
        <ele>7</ele>
        <time>2026-07-12T19:14:50.000Z</time>
      </trkpt>
      <trkpt lat="43.34502" lon="-1.80148">
        <ele>7</ele>
        <time>2026-07-12T19:14:50.000Z</time>
      </trkpt>
      <trkpt lat="43.345" lon="-1.80146">
        <ele>7</ele>
        <time>2026-07-12T19:14:51.000Z</time>
      </trkpt>
      <trkpt lat="43.34499" lon="-1.80144">
        <ele>7</ele>
        <time>2026-07-12T19:14:51.000Z</time>
      </trkpt>
      <trkpt lat="43.34498" lon="-1.80141">
        <ele>7</ele>
        <time>2026-07-12T19:14:51.000Z</time>
      </trkpt>
      <trkpt lat="43.34497" lon="-1.80138">
        <ele>7</ele>
        <time>2026-07-12T19:14:52.000Z</time>
      </trkpt>
      <trkpt lat="43.34496" lon="-1.80136">
        <ele>7</ele>
        <time>2026-07-12T19:14:52.000Z</time>
      </trkpt>
      <trkpt lat="43.34496" lon="-1.80133">
        <ele>7</ele>
        <time>2026-07-12T19:14:52.000Z</time>
      </trkpt>
      <trkpt lat="43.34495" lon="-1.80131">
        <ele>7</ele>
        <time>2026-07-12T19:14:53.000Z</time>
      </trkpt>
      <trkpt lat="43.34495" lon="-1.80129">
        <ele>8</ele>
        <time>2026-07-12T19:14:53.000Z</time>
      </trkpt>
      <trkpt lat="43.34495" lon="-1.80128">
        <ele>8</ele>
        <time>2026-07-12T19:14:53.000Z</time>
      </trkpt>
      <trkpt lat="43.34495" lon="-1.80126">
        <ele>8</ele>
        <time>2026-07-12T19:14:53.000Z</time>
      </trkpt>
      <trkpt lat="43.34495" lon="-1.80125">
        <ele>8</ele>
        <time>2026-07-12T19:14:54.000Z</time>
      </trkpt>
      <trkpt lat="43.34495" lon="-1.80124">
        <ele>8</ele>
        <time>2026-07-12T19:14:54.000Z</time>
      </trkpt>
      <trkpt lat="43.34495" lon="-1.80123">
        <ele>8</ele>
        <time>2026-07-12T19:14:54.000Z</time>
      </trkpt>
      <trkpt lat="43.34495" lon="-1.80122">
        <ele>8</ele>
        <time>2026-07-12T19:14:54.000Z</time>
      </trkpt>
      <trkpt lat="43.34495" lon="-1.8012">
        <ele>8</ele>
        <time>2026-07-12T19:14:54.000Z</time>
      </trkpt>
      <trkpt lat="43.34495" lon="-1.80118">
        <ele>8</ele>
        <time>2026-07-12T19:14:54.000Z</time>
      </trkpt>
      <trkpt lat="43.34495" lon="-1.80116">
        <ele>8</ele>
        <time>2026-07-12T19:14:55.000Z</time>
      </trkpt>
      <trkpt lat="43.34495" lon="-1.80114">
        <ele>8</ele>
        <time>2026-07-12T19:14:55.000Z</time>
      </trkpt>
      <trkpt lat="43.34496" lon="-1.80113">
        <ele>8</ele>
        <time>2026-07-12T19:14:55.000Z</time>
      </trkpt>
      <trkpt lat="43.34496" lon="-1.80111">
        <ele>8</ele>
        <time>2026-07-12T19:14:55.000Z</time>
      </trkpt>
      <trkpt lat="43.34496" lon="-1.80109">
        <ele>8</ele>
        <time>2026-07-12T19:14:56.000Z</time>
      </trkpt>
      <trkpt lat="43.34497" lon="-1.80107">
        <ele>8</ele>
        <time>2026-07-12T19:14:56.000Z</time>
      </trkpt>
      <trkpt lat="43.34498" lon="-1.80106">
        <ele>8</ele>
        <time>2026-07-12T19:14:56.000Z</time>
      </trkpt>
      <trkpt lat="43.34498" lon="-1.80104">
        <ele>8</ele>
        <time>2026-07-12T19:14:56.000Z</time>
      </trkpt>
      <trkpt lat="43.34499" lon="-1.80103">
        <ele>8</ele>
        <time>2026-07-12T19:14:57.000Z</time>
      </trkpt>
      <trkpt lat="43.34501" lon="-1.801">
        <ele>8</ele>
        <time>2026-07-12T19:14:57.000Z</time>
      </trkpt>
      <trkpt lat="43.34502" lon="-1.801">
        <ele>8</ele>
        <time>2026-07-12T19:14:57.000Z</time>
      </trkpt>
      <trkpt lat="43.34502" lon="-1.80099">
        <ele>8</ele>
        <time>2026-07-12T19:14:58.000Z</time>
      </trkpt>
      <trkpt lat="43.34503" lon="-1.80098">
        <ele>8</ele>
        <time>2026-07-12T19:14:58.000Z</time>
      </trkpt>
      <trkpt lat="43.34504" lon="-1.80097">
        <ele>8</ele>
        <time>2026-07-12T19:14:58.000Z</time>
      </trkpt>
      <trkpt lat="43.34505" lon="-1.80097">
        <ele>8</ele>
        <time>2026-07-12T19:14:58.000Z</time>
      </trkpt>
      <trkpt lat="43.34505" lon="-1.80096">
        <ele>8</ele>
        <time>2026-07-12T19:14:58.000Z</time>
      </trkpt>
      <trkpt lat="43.34505" lon="-1.80083">
        <ele>9</ele>
        <time>2026-07-12T19:15:00.000Z</time>
      </trkpt>
      <trkpt lat="43.34504" lon="-1.80074">
        <ele>9</ele>
        <time>2026-07-12T19:15:01.000Z</time>
      </trkpt>
      <trkpt lat="43.34504" lon="-1.80069">
        <ele>9</ele>
        <time>2026-07-12T19:15:02.000Z</time>
      </trkpt>
      <trkpt lat="43.34505" lon="-1.80064">
        <ele>9</ele>
        <time>2026-07-12T19:15:02.000Z</time>
      </trkpt>
      <trkpt lat="43.34506" lon="-1.80057">
        <ele>10</ele>
        <time>2026-07-12T19:15:03.000Z</time>
      </trkpt>
      <trkpt lat="43.34507" lon="-1.80051">
        <ele>10</ele>
        <time>2026-07-12T19:15:04.000Z</time>
      </trkpt>
      <trkpt lat="43.34511" lon="-1.8004">
        <ele>10</ele>
        <time>2026-07-12T19:15:06.000Z</time>
      </trkpt>
      <trkpt lat="43.34515" lon="-1.80024">
        <ele>10</ele>
        <time>2026-07-12T19:15:08.000Z</time>
      </trkpt>
      <trkpt lat="43.34517" lon="-1.80017">
        <ele>10</ele>
        <time>2026-07-12T19:15:09.000Z</time>
      </trkpt>
      <trkpt lat="43.34523" lon="-1.8001">
        <ele>10</ele>
        <time>2026-07-12T19:15:10.000Z</time>
      </trkpt>
      <trkpt lat="43.34526" lon="-1.80008">
        <ele>9</ele>
        <time>2026-07-12T19:15:11.000Z</time>
      </trkpt>
      <trkpt lat="43.3453" lon="-1.80006">
        <ele>9</ele>
        <time>2026-07-12T19:15:12.000Z</time>
      </trkpt>
      <trkpt lat="43.3454" lon="-1.80002">
        <ele>8</ele>
        <time>2026-07-12T19:15:14.000Z</time>
      </trkpt>
      <trkpt lat="43.34545" lon="-1.79999">
        <ele>8</ele>
        <time>2026-07-12T19:15:14.000Z</time>
      </trkpt>
      <trkpt lat="43.34546" lon="-1.79998">
        <ele>8</ele>
        <time>2026-07-12T19:15:15.000Z</time>
      </trkpt>
      <trkpt lat="43.34548" lon="-1.79996">
        <ele>7</ele>
        <time>2026-07-12T19:15:15.000Z</time>
      </trkpt>
      <trkpt lat="43.34551" lon="-1.79993">
        <ele>7</ele>
        <time>2026-07-12T19:15:16.000Z</time>
      </trkpt>
      <trkpt lat="43.34552" lon="-1.79991">
        <ele>7</ele>
        <time>2026-07-12T19:15:16.000Z</time>
      </trkpt>
      <trkpt lat="43.34553" lon="-1.79989">
        <ele>7</ele>
        <time>2026-07-12T19:15:16.000Z</time>
      </trkpt>
      <trkpt lat="43.34554" lon="-1.79986">
        <ele>7</ele>
        <time>2026-07-12T19:15:17.000Z</time>
      </trkpt>
      <trkpt lat="43.34555" lon="-1.79981">
        <ele>7</ele>
        <time>2026-07-12T19:15:18.000Z</time>
      </trkpt>
      <trkpt lat="43.34555" lon="-1.79979">
        <ele>7</ele>
        <time>2026-07-12T19:15:18.000Z</time>
      </trkpt>
      <trkpt lat="43.34555" lon="-1.79977">
        <ele>7</ele>
        <time>2026-07-12T19:15:18.000Z</time>
      </trkpt>
      <trkpt lat="43.34554" lon="-1.79972">
        <ele>7</ele>
        <time>2026-07-12T19:15:19.000Z</time>
      </trkpt>
      <trkpt lat="43.34549" lon="-1.79955">
        <ele>7</ele>
        <time>2026-07-12T19:15:21.000Z</time>
      </trkpt>
      <trkpt lat="43.34546" lon="-1.79942">
        <ele>7</ele>
        <time>2026-07-12T19:15:23.000Z</time>
      </trkpt>
      <trkpt lat="43.34545" lon="-1.79938">
        <ele>8</ele>
        <time>2026-07-12T19:15:23.000Z</time>
      </trkpt>
      <trkpt lat="43.34544" lon="-1.79933">
        <ele>8</ele>
        <time>2026-07-12T19:15:24.000Z</time>
      </trkpt>
      <trkpt lat="43.34545" lon="-1.7993">
        <ele>8</ele>
        <time>2026-07-12T19:15:24.000Z</time>
      </trkpt>
      <trkpt lat="43.34545" lon="-1.79925">
        <ele>8</ele>
        <time>2026-07-12T19:15:25.000Z</time>
      </trkpt>
      <trkpt lat="43.34545" lon="-1.79925">
        <ele>8</ele>
        <time>2026-07-12T19:15:25.000Z</time>
      </trkpt>
      <trkpt lat="43.34544" lon="-1.7992">
        <ele>8</ele>
        <time>2026-07-12T19:15:26.000Z</time>
      </trkpt>
      <trkpt lat="43.34539" lon="-1.79909">
        <ele>8</ele>
        <time>2026-07-12T19:15:27.000Z</time>
      </trkpt>
      <trkpt lat="43.34535" lon="-1.79895">
        <ele>8</ele>
        <time>2026-07-12T19:15:29.000Z</time>
      </trkpt>
      <trkpt lat="43.34534" lon="-1.79893">
        <ele>8</ele>
        <time>2026-07-12T19:15:30.000Z</time>
      </trkpt>
      <trkpt lat="43.34529" lon="-1.79879">
        <ele>8</ele>
        <time>2026-07-12T19:15:32.000Z</time>
      </trkpt>
      <trkpt lat="43.34522" lon="-1.79861">
        <ele>8</ele>
        <time>2026-07-12T19:15:34.000Z</time>
      </trkpt>
      <trkpt lat="43.34517" lon="-1.79849">
        <ele>8</ele>
        <time>2026-07-12T19:15:36.000Z</time>
      </trkpt>
      <trkpt lat="43.34512" lon="-1.79835">
        <ele>8</ele>
        <time>2026-07-12T19:15:38.000Z</time>
      </trkpt>
      <trkpt lat="43.34509" lon="-1.79826">
        <ele>8</ele>
        <time>2026-07-12T19:15:39.000Z</time>
      </trkpt>
      <trkpt lat="43.34506" lon="-1.79816">
        <ele>8</ele>
        <time>2026-07-12T19:15:41.000Z</time>
      </trkpt>
      <trkpt lat="43.34503" lon="-1.79808">
        <ele>8</ele>
        <time>2026-07-12T19:15:42.000Z</time>
      </trkpt>
      <trkpt lat="43.34503" lon="-1.79806">
        <ele>8</ele>
        <time>2026-07-12T19:15:42.000Z</time>
      </trkpt>
      <trkpt lat="43.34501" lon="-1.79797">
        <ele>8</ele>
        <time>2026-07-12T19:15:44.000Z</time>
      </trkpt>
      <trkpt lat="43.34499" lon="-1.7979">
        <ele>8</ele>
        <time>2026-07-12T19:15:45.000Z</time>
      </trkpt>
      <trkpt lat="43.34496" lon="-1.79778">
        <ele>8</ele>
        <time>2026-07-12T19:15:46.000Z</time>
      </trkpt>
      <trkpt lat="43.34494" lon="-1.79765">
        <ele>8</ele>
        <time>2026-07-12T19:15:48.000Z</time>
      </trkpt>
      <trkpt lat="43.34493" lon="-1.79754">
        <ele>8</ele>
        <time>2026-07-12T19:15:49.000Z</time>
      </trkpt>
      <trkpt lat="43.34491" lon="-1.79743">
        <ele>8</ele>
        <time>2026-07-12T19:15:51.000Z</time>
      </trkpt>
      <trkpt lat="43.3449" lon="-1.79727">
        <ele>7</ele>
        <time>2026-07-12T19:15:53.000Z</time>
      </trkpt>
      <trkpt lat="43.34489" lon="-1.79723">
        <ele>7</ele>
        <time>2026-07-12T19:15:53.000Z</time>
      </trkpt>
      <trkpt lat="43.34489" lon="-1.79716">
        <ele>7</ele>
        <time>2026-07-12T19:15:54.000Z</time>
      </trkpt>
      <trkpt lat="43.34489" lon="-1.79705">
        <ele>7</ele>
        <time>2026-07-12T19:15:56.000Z</time>
      </trkpt>
      <trkpt lat="43.34489" lon="-1.79692">
        <ele>7</ele>
        <time>2026-07-12T19:15:57.000Z</time>
      </trkpt>
      <trkpt lat="43.34489" lon="-1.79682">
        <ele>7</ele>
        <time>2026-07-12T19:15:59.000Z</time>
      </trkpt>
      <trkpt lat="43.34491" lon="-1.79661">
        <ele>7</ele>
        <time>2026-07-12T19:16:01.000Z</time>
      </trkpt>
      <trkpt lat="43.34491" lon="-1.79651">
        <ele>7</ele>
        <time>2026-07-12T19:16:03.000Z</time>
      </trkpt>
      <trkpt lat="43.34493" lon="-1.79638">
        <ele>7</ele>
        <time>2026-07-12T19:16:04.000Z</time>
      </trkpt>
      <trkpt lat="43.34493" lon="-1.7963">
        <ele>7</ele>
        <time>2026-07-12T19:16:05.000Z</time>
      </trkpt>
      <trkpt lat="43.34495" lon="-1.79618">
        <ele>7</ele>
        <time>2026-07-12T19:16:07.000Z</time>
      </trkpt>
      <trkpt lat="43.34495" lon="-1.79617">
        <ele>7</ele>
        <time>2026-07-12T19:16:07.000Z</time>
      </trkpt>
      <trkpt lat="43.34497" lon="-1.79604">
        <ele>7</ele>
        <time>2026-07-12T19:16:09.000Z</time>
      </trkpt>
      <trkpt lat="43.34503" lon="-1.79551">
        <ele>9</ele>
        <time>2026-07-12T19:16:16.000Z</time>
      </trkpt>
      <trkpt lat="43.34505" lon="-1.79536">
        <ele>10</ele>
        <time>2026-07-12T19:16:18.000Z</time>
      </trkpt>
      <trkpt lat="43.3451" lon="-1.795">
        <ele>12</ele>
        <time>2026-07-12T19:16:23.000Z</time>
      </trkpt>
      <trkpt lat="43.34513" lon="-1.79481">
        <ele>11</ele>
        <time>2026-07-12T19:16:25.000Z</time>
      </trkpt>
      <trkpt lat="43.34514" lon="-1.79474">
        <ele>11</ele>
        <time>2026-07-12T19:16:26.000Z</time>
      </trkpt>
      <trkpt lat="43.34515" lon="-1.79461">
        <ele>11</ele>
        <time>2026-07-12T19:16:28.000Z</time>
      </trkpt>
      <trkpt lat="43.34515" lon="-1.79446">
        <ele>11</ele>
        <time>2026-07-12T19:16:30.000Z</time>
      </trkpt>
      <trkpt lat="43.34515" lon="-1.79431">
        <ele>10</ele>
        <time>2026-07-12T19:16:32.000Z</time>
      </trkpt>
      <trkpt lat="43.34515" lon="-1.79416">
        <ele>10</ele>
        <time>2026-07-12T19:16:34.000Z</time>
      </trkpt>
      <trkpt lat="43.34514" lon="-1.79405">
        <ele>10</ele>
        <time>2026-07-12T19:16:35.000Z</time>
      </trkpt>
      <trkpt lat="43.34512" lon="-1.79397">
        <ele>10</ele>
        <time>2026-07-12T19:16:36.000Z</time>
      </trkpt>
      <trkpt lat="43.34509" lon="-1.79384">
        <ele>10</ele>
        <time>2026-07-12T19:16:38.000Z</time>
      </trkpt>
      <trkpt lat="43.34506" lon="-1.79375">
        <ele>9</ele>
        <time>2026-07-12T19:16:39.000Z</time>
      </trkpt>
      <trkpt lat="43.34502" lon="-1.79368">
        <ele>9</ele>
        <time>2026-07-12T19:16:40.000Z</time>
      </trkpt>
      <trkpt lat="43.34498" lon="-1.79358">
        <ele>9</ele>
        <time>2026-07-12T19:16:42.000Z</time>
      </trkpt>
      <trkpt lat="43.34493" lon="-1.7935">
        <ele>9</ele>
        <time>2026-07-12T19:16:43.000Z</time>
      </trkpt>
      <trkpt lat="43.34482" lon="-1.79335">
        <ele>10</ele>
        <time>2026-07-12T19:16:46.000Z</time>
      </trkpt>
      <trkpt lat="43.34474" lon="-1.79325">
        <ele>11</ele>
        <time>2026-07-12T19:16:48.000Z</time>
      </trkpt>
      <trkpt lat="43.34464" lon="-1.79313">
        <ele>12</ele>
        <time>2026-07-12T19:16:50.000Z</time>
      </trkpt>
      <trkpt lat="43.34452" lon="-1.79297">
        <ele>14</ele>
        <time>2026-07-12T19:16:53.000Z</time>
      </trkpt>
      <trkpt lat="43.34443" lon="-1.79285">
        <ele>15</ele>
        <time>2026-07-12T19:16:55.000Z</time>
      </trkpt>
      <trkpt lat="43.34439" lon="-1.79276">
        <ele>16</ele>
        <time>2026-07-12T19:16:57.000Z</time>
      </trkpt>
      <trkpt lat="43.34434" lon="-1.79265">
        <ele>17</ele>
        <time>2026-07-12T19:16:58.000Z</time>
      </trkpt>
      <trkpt lat="43.34425" lon="-1.79241">
        <ele>18</ele>
        <time>2026-07-12T19:17:02.000Z</time>
      </trkpt>
      <trkpt lat="43.34422" lon="-1.79229">
        <ele>18</ele>
        <time>2026-07-12T19:17:04.000Z</time>
      </trkpt>
      <trkpt lat="43.34416" lon="-1.79208">
        <ele>18</ele>
        <time>2026-07-12T19:17:06.000Z</time>
      </trkpt>
      <trkpt lat="43.34413" lon="-1.79191">
        <ele>17</ele>
        <time>2026-07-12T19:17:09.000Z</time>
      </trkpt>
      <trkpt lat="43.34409" lon="-1.79177">
        <ele>17</ele>
        <time>2026-07-12T19:17:11.000Z</time>
      </trkpt>
      <trkpt lat="43.34407" lon="-1.79021">
        <ele>12</ele>
        <time>2026-07-12T19:17:31.000Z</time>
      </trkpt>
      <trkpt lat="43.34405" lon="-1.78943">
        <ele>10</ele>
        <time>2026-07-12T19:17:41.000Z</time>
      </trkpt>
      <trkpt lat="43.34401" lon="-1.78886">
        <ele>7</ele>
        <time>2026-07-12T19:17:48.000Z</time>
      </trkpt>
      <trkpt lat="43.344" lon="-1.78868">
        <ele>6</ele>
        <time>2026-07-12T19:17:51.000Z</time>
      </trkpt>
      <trkpt lat="43.344" lon="-1.78866">
        <ele>6</ele>
        <time>2026-07-12T19:17:51.000Z</time>
      </trkpt>
      <trkpt lat="43.34399" lon="-1.7885">
        <ele>5</ele>
        <time>2026-07-12T19:17:53.000Z</time>
      </trkpt>
      <trkpt lat="43.34393" lon="-1.78817">
        <ele>4</ele>
        <time>2026-07-12T19:17:57.000Z</time>
      </trkpt>
      <trkpt lat="43.34387" lon="-1.78783">
        <ele>4</ele>
        <time>2026-07-12T19:18:02.000Z</time>
      </trkpt>
      <trkpt lat="43.34386" lon="-1.7878">
        <ele>4</ele>
        <time>2026-07-12T19:18:02.000Z</time>
      </trkpt>
      <trkpt lat="43.34381" lon="-1.78754">
        <ele>4</ele>
        <time>2026-07-12T19:18:06.000Z</time>
      </trkpt>
      <trkpt lat="43.34373" lon="-1.78726">
        <ele>4</ele>
        <time>2026-07-12T19:18:10.000Z</time>
      </trkpt>
      <trkpt lat="43.34364" lon="-1.78699">
        <ele>3</ele>
        <time>2026-07-12T19:18:14.000Z</time>
      </trkpt>
      <trkpt lat="43.34359" lon="-1.78686">
        <ele>3</ele>
        <time>2026-07-12T19:18:16.000Z</time>
      </trkpt>
      <trkpt lat="43.34352" lon="-1.7867">
        <ele>3</ele>
        <time>2026-07-12T19:18:18.000Z</time>
      </trkpt>
      <trkpt lat="43.34345" lon="-1.78655">
        <ele>3</ele>
        <time>2026-07-12T19:18:20.000Z</time>
      </trkpt>
      <trkpt lat="43.34332" lon="-1.78628">
        <ele>2</ele>
        <time>2026-07-12T19:18:24.000Z</time>
      </trkpt>
      <trkpt lat="43.3432" lon="-1.786">
        <ele>2</ele>
        <time>2026-07-12T19:18:29.000Z</time>
      </trkpt>
      <trkpt lat="43.34319" lon="-1.78596">
        <ele>2</ele>
        <time>2026-07-12T19:18:29.000Z</time>
      </trkpt>
      <trkpt lat="43.34313" lon="-1.78585">
        <ele>2</ele>
        <time>2026-07-12T19:18:31.000Z</time>
      </trkpt>
      <trkpt lat="43.34304" lon="-1.78563">
        <ele>2</ele>
        <time>2026-07-12T19:18:34.000Z</time>
      </trkpt>
      <trkpt lat="43.343" lon="-1.78554">
        <ele>2</ele>
        <time>2026-07-12T19:18:36.000Z</time>
      </trkpt>
      <trkpt lat="43.34297" lon="-1.78549">
        <ele>2</ele>
        <time>2026-07-12T19:18:36.000Z</time>
      </trkpt>
      <trkpt lat="43.34283" lon="-1.78518">
        <ele>2</ele>
        <time>2026-07-12T19:18:41.000Z</time>
      </trkpt>
      <trkpt lat="43.34247" lon="-1.78445">
        <ele>1</ele>
        <time>2026-07-12T19:18:53.000Z</time>
      </trkpt>
      <trkpt lat="43.3422" lon="-1.78395">
        <ele>2</ele>
        <time>2026-07-12T19:19:01.000Z</time>
      </trkpt>
      <trkpt lat="43.34183" lon="-1.78325">
        <ele>4</ele>
        <time>2026-07-12T19:19:12.000Z</time>
      </trkpt>
      <trkpt lat="43.34164" lon="-1.78285">
        <ele>4</ele>
        <time>2026-07-12T19:19:18.000Z</time>
      </trkpt>
      <trkpt lat="43.34144" lon="-1.78239">
        <ele>3</ele>
        <time>2026-07-12T19:19:25.000Z</time>
      </trkpt>
      <trkpt lat="43.34124" lon="-1.78194">
        <ele>2</ele>
        <time>2026-07-12T19:19:32.000Z</time>
      </trkpt>
      <trkpt lat="43.34106" lon="-1.78156">
        <ele>1</ele>
        <time>2026-07-12T19:19:38.000Z</time>
      </trkpt>
      <trkpt lat="43.341" lon="-1.78144">
        <ele>1</ele>
        <time>2026-07-12T19:19:40.000Z</time>
      </trkpt>
      <trkpt lat="43.3409" lon="-1.78128">
        <ele>1</ele>
        <time>2026-07-12T19:19:42.000Z</time>
      </trkpt>
      <trkpt lat="43.34087" lon="-1.78124">
        <ele>1</ele>
        <time>2026-07-12T19:19:43.000Z</time>
      </trkpt>
      <trkpt lat="43.34084" lon="-1.7812">
        <ele>2</ele>
        <time>2026-07-12T19:19:44.000Z</time>
      </trkpt>
      <trkpt lat="43.34082" lon="-1.78118">
        <ele>2</ele>
        <time>2026-07-12T19:19:44.000Z</time>
      </trkpt>
      <trkpt lat="43.34072" lon="-1.78108">
        <ele>2</ele>
        <time>2026-07-12T19:19:46.000Z</time>
      </trkpt>
      <trkpt lat="43.34065" lon="-1.78101">
        <ele>2</ele>
        <time>2026-07-12T19:19:48.000Z</time>
      </trkpt>
      <trkpt lat="43.3406" lon="-1.78095">
        <ele>2</ele>
        <time>2026-07-12T19:19:49.000Z</time>
      </trkpt>
      <trkpt lat="43.34059" lon="-1.78095">
        <ele>2</ele>
        <time>2026-07-12T19:19:49.000Z</time>
      </trkpt>
      <trkpt lat="43.34058" lon="-1.78095">
        <ele>2</ele>
        <time>2026-07-12T19:19:49.000Z</time>
      </trkpt>
      <trkpt lat="43.34057" lon="-1.78095">
        <ele>2</ele>
        <time>2026-07-12T19:19:50.000Z</time>
      </trkpt>
      <trkpt lat="43.34056" lon="-1.78095">
        <ele>2</ele>
        <time>2026-07-12T19:19:50.000Z</time>
      </trkpt>
      <trkpt lat="43.34055" lon="-1.78095">
        <ele>2</ele>
        <time>2026-07-12T19:19:50.000Z</time>
      </trkpt>
      <trkpt lat="43.34054" lon="-1.78095">
        <ele>2</ele>
        <time>2026-07-12T19:19:50.000Z</time>
      </trkpt>
      <trkpt lat="43.34053" lon="-1.78094">
        <ele>2</ele>
        <time>2026-07-12T19:19:50.000Z</time>
      </trkpt>
      <trkpt lat="43.34052" lon="-1.78094">
        <ele>2</ele>
        <time>2026-07-12T19:19:51.000Z</time>
      </trkpt>
      <trkpt lat="43.34049" lon="-1.78092">
        <ele>2</ele>
        <time>2026-07-12T19:19:51.000Z</time>
      </trkpt>
      <trkpt lat="43.34046" lon="-1.7809">
        <ele>2</ele>
        <time>2026-07-12T19:19:52.000Z</time>
      </trkpt>
      <trkpt lat="43.34044" lon="-1.78087">
        <ele>2</ele>
        <time>2026-07-12T19:19:52.000Z</time>
      </trkpt>
      <trkpt lat="43.34041" lon="-1.78084">
        <ele>3</ele>
        <time>2026-07-12T19:19:53.000Z</time>
      </trkpt>
      <trkpt lat="43.34039" lon="-1.7808">
        <ele>3</ele>
        <time>2026-07-12T19:19:54.000Z</time>
      </trkpt>
      <trkpt lat="43.34037" lon="-1.78076">
        <ele>3</ele>
        <time>2026-07-12T19:19:54.000Z</time>
      </trkpt>
      <trkpt lat="43.34036" lon="-1.78072">
        <ele>3</ele>
        <time>2026-07-12T19:19:55.000Z</time>
      </trkpt>
      <trkpt lat="43.34035" lon="-1.78068">
        <ele>3</ele>
        <time>2026-07-12T19:19:55.000Z</time>
      </trkpt>
      <trkpt lat="43.34034" lon="-1.78064">
        <ele>2</ele>
        <time>2026-07-12T19:19:56.000Z</time>
      </trkpt>
      <trkpt lat="43.34034" lon="-1.78061">
        <ele>2</ele>
        <time>2026-07-12T19:19:56.000Z</time>
      </trkpt>
      <trkpt lat="43.34034" lon="-1.78058">
        <ele>2</ele>
        <time>2026-07-12T19:19:57.000Z</time>
      </trkpt>
      <trkpt lat="43.34034" lon="-1.78054">
        <ele>2</ele>
        <time>2026-07-12T19:19:57.000Z</time>
      </trkpt>
      <trkpt lat="43.34034" lon="-1.78051">
        <ele>2</ele>
        <time>2026-07-12T19:19:58.000Z</time>
      </trkpt>
      <trkpt lat="43.34035" lon="-1.78048">
        <ele>2</ele>
        <time>2026-07-12T19:19:58.000Z</time>
      </trkpt>
      <trkpt lat="43.34035" lon="-1.78044">
        <ele>2</ele>
        <time>2026-07-12T19:19:58.000Z</time>
      </trkpt>
      <trkpt lat="43.34036" lon="-1.78041">
        <ele>2</ele>
        <time>2026-07-12T19:19:59.000Z</time>
      </trkpt>
      <trkpt lat="43.34038" lon="-1.78038">
        <ele>2</ele>
        <time>2026-07-12T19:19:59.000Z</time>
      </trkpt>
      <trkpt lat="43.34039" lon="-1.78035">
        <ele>2</ele>
        <time>2026-07-12T19:20:00.000Z</time>
      </trkpt>
      <trkpt lat="43.34041" lon="-1.78032">
        <ele>2</ele>
        <time>2026-07-12T19:20:00.000Z</time>
      </trkpt>
      <trkpt lat="43.34043" lon="-1.78029">
        <ele>2</ele>
        <time>2026-07-12T19:20:01.000Z</time>
      </trkpt>
      <trkpt lat="43.34045" lon="-1.78027">
        <ele>2</ele>
        <time>2026-07-12T19:20:01.000Z</time>
      </trkpt>
      <trkpt lat="43.34045" lon="-1.78026">
        <ele>2</ele>
        <time>2026-07-12T19:20:01.000Z</time>
      </trkpt>
      <trkpt lat="43.34047" lon="-1.78024">
        <ele>2</ele>
        <time>2026-07-12T19:20:02.000Z</time>
      </trkpt>
      <trkpt lat="43.34049" lon="-1.78022">
        <ele>2</ele>
        <time>2026-07-12T19:20:02.000Z</time>
      </trkpt>
      <trkpt lat="43.34051" lon="-1.7802">
        <ele>2</ele>
        <time>2026-07-12T19:20:03.000Z</time>
      </trkpt>
      <trkpt lat="43.34055" lon="-1.78007">
        <ele>2</ele>
        <time>2026-07-12T19:20:05.000Z</time>
      </trkpt>
      <trkpt lat="43.34059" lon="-1.77993">
        <ele>2</ele>
        <time>2026-07-12T19:20:07.000Z</time>
      </trkpt>
      <trkpt lat="43.34061" lon="-1.77984">
        <ele>2</ele>
        <time>2026-07-12T19:20:08.000Z</time>
      </trkpt>
      <trkpt lat="43.34062" lon="-1.77977">
        <ele>2</ele>
        <time>2026-07-12T19:20:09.000Z</time>
      </trkpt>
      <trkpt lat="43.34063" lon="-1.77959">
        <ele>2</ele>
        <time>2026-07-12T19:20:11.000Z</time>
      </trkpt>
      <trkpt lat="43.34064" lon="-1.77938">
        <ele>2</ele>
        <time>2026-07-12T19:20:14.000Z</time>
      </trkpt>
      <trkpt lat="43.34065" lon="-1.77913">
        <ele>2</ele>
        <time>2026-07-12T19:20:17.000Z</time>
      </trkpt>
      <trkpt lat="43.34067" lon="-1.77887">
        <ele>2</ele>
        <time>2026-07-12T19:20:20.000Z</time>
      </trkpt>
      <trkpt lat="43.34069" lon="-1.77865">
        <ele>3</ele>
        <time>2026-07-12T19:20:23.000Z</time>
      </trkpt>
      <trkpt lat="43.34071" lon="-1.77839">
        <ele>3</ele>
        <time>2026-07-12T19:20:27.000Z</time>
      </trkpt>
      <trkpt lat="43.34074" lon="-1.77808">
        <ele>4</ele>
        <time>2026-07-12T19:20:31.000Z</time>
      </trkpt>
      <trkpt lat="43.34076" lon="-1.77775">
        <ele>6</ele>
        <time>2026-07-12T19:20:35.000Z</time>
      </trkpt>
      <trkpt lat="43.34077" lon="-1.77757">
        <ele>6</ele>
        <time>2026-07-12T19:20:37.000Z</time>
      </trkpt>
      <trkpt lat="43.34078" lon="-1.77743">
        <ele>7</ele>
        <time>2026-07-12T19:20:39.000Z</time>
      </trkpt>
      <trkpt lat="43.3408" lon="-1.7773">
        <ele>8</ele>
        <time>2026-07-12T19:20:41.000Z</time>
      </trkpt>
      <trkpt lat="43.34082" lon="-1.77719">
        <ele>9</ele>
        <time>2026-07-12T19:20:42.000Z</time>
      </trkpt>
      <trkpt lat="43.3409" lon="-1.77705">
        <ele>9</ele>
        <time>2026-07-12T19:20:45.000Z</time>
      </trkpt>
      <trkpt lat="43.34118" lon="-1.77633">
        <ele>10</ele>
        <time>2026-07-12T19:20:55.000Z</time>
      </trkpt>
      <trkpt lat="43.3413" lon="-1.77602">
        <ele>10</ele>
        <time>2026-07-12T19:21:00.000Z</time>
      </trkpt>
      <trkpt lat="43.34136" lon="-1.77584">
        <ele>9</ele>
        <time>2026-07-12T19:21:02.000Z</time>
      </trkpt>
      <trkpt lat="43.34142" lon="-1.77568">
        <ele>9</ele>
        <time>2026-07-12T19:21:05.000Z</time>
      </trkpt>
      <trkpt lat="43.34146" lon="-1.77555">
        <ele>9</ele>
        <time>2026-07-12T19:21:06.000Z</time>
      </trkpt>
      <trkpt lat="43.34152" lon="-1.77534">
        <ele>9</ele>
        <time>2026-07-12T19:21:09.000Z</time>
      </trkpt>
      <trkpt lat="43.34155" lon="-1.77523">
        <ele>8</ele>
        <time>2026-07-12T19:21:11.000Z</time>
      </trkpt>
      <trkpt lat="43.34159" lon="-1.77506">
        <ele>8</ele>
        <time>2026-07-12T19:21:13.000Z</time>
      </trkpt>
      <trkpt lat="43.34162" lon="-1.77491">
        <ele>8</ele>
        <time>2026-07-12T19:21:15.000Z</time>
      </trkpt>
      <trkpt lat="43.34164" lon="-1.77476">
        <ele>8</ele>
        <time>2026-07-12T19:21:17.000Z</time>
      </trkpt>
      <trkpt lat="43.34166" lon="-1.77455">
        <ele>9</ele>
        <time>2026-07-12T19:21:20.000Z</time>
      </trkpt>
      <trkpt lat="43.34167" lon="-1.77443">
        <ele>9</ele>
        <time>2026-07-12T19:21:21.000Z</time>
      </trkpt>
      <trkpt lat="43.34168" lon="-1.77401">
        <ele>11</ele>
        <time>2026-07-12T19:21:27.000Z</time>
      </trkpt>
      <trkpt lat="43.34168" lon="-1.77386">
        <ele>11</ele>
        <time>2026-07-12T19:21:29.000Z</time>
      </trkpt>
      <trkpt lat="43.34164" lon="-1.77255">
        <ele>9</ele>
        <time>2026-07-12T19:21:46.000Z</time>
      </trkpt>
      <trkpt lat="43.34161" lon="-1.77225">
        <ele>8</ele>
        <time>2026-07-12T19:21:50.000Z</time>
      </trkpt>
      <trkpt lat="43.34161" lon="-1.77201">
        <ele>7</ele>
        <time>2026-07-12T19:21:53.000Z</time>
      </trkpt>
      <trkpt lat="43.34161" lon="-1.77189">
        <ele>7</ele>
        <time>2026-07-12T19:21:54.000Z</time>
      </trkpt>
      <trkpt lat="43.34162" lon="-1.7718">
        <ele>6</ele>
        <time>2026-07-12T19:21:56.000Z</time>
      </trkpt>
      <trkpt lat="43.34163" lon="-1.7717">
        <ele>5</ele>
        <time>2026-07-12T19:21:57.000Z</time>
      </trkpt>
      <trkpt lat="43.34165" lon="-1.77145">
        <ele>5</ele>
        <time>2026-07-12T19:22:00.000Z</time>
      </trkpt>
      <trkpt lat="43.34168" lon="-1.771">
        <ele>6</ele>
        <time>2026-07-12T19:22:06.000Z</time>
      </trkpt>
      <trkpt lat="43.34186" lon="-1.76854">
        <ele>11</ele>
        <time>2026-07-12T19:22:38.000Z</time>
      </trkpt>
      <trkpt lat="43.34188" lon="-1.76834">
        <ele>11</ele>
        <time>2026-07-12T19:22:41.000Z</time>
      </trkpt>
      <trkpt lat="43.3419" lon="-1.76819">
        <ele>12</ele>
        <time>2026-07-12T19:22:43.000Z</time>
      </trkpt>
      <trkpt lat="43.34205" lon="-1.76698">
        <ele>12</ele>
        <time>2026-07-12T19:22:58.000Z</time>
      </trkpt>
      <trkpt lat="43.34216" lon="-1.76612">
        <ele>9</ele>
        <time>2026-07-12T19:23:10.000Z</time>
      </trkpt>
      <trkpt lat="43.34233" lon="-1.76505">
        <ele>5</ele>
        <time>2026-07-12T19:23:24.000Z</time>
      </trkpt>
      <trkpt lat="43.34239" lon="-1.76467">
        <ele>5</ele>
        <time>2026-07-12T19:23:29.000Z</time>
      </trkpt>
      <trkpt lat="43.34238" lon="-1.76462">
        <ele>5</ele>
        <time>2026-07-12T19:23:30.000Z</time>
      </trkpt>
      <trkpt lat="43.34256" lon="-1.76343">
        <ele>4</ele>
        <time>2026-07-12T19:23:45.000Z</time>
      </trkpt>
      <trkpt lat="43.34261" lon="-1.76317">
        <ele>4</ele>
        <time>2026-07-12T19:23:49.000Z</time>
      </trkpt>
      <trkpt lat="43.34262" lon="-1.763">
        <ele>4</ele>
        <time>2026-07-12T19:23:51.000Z</time>
      </trkpt>
      <trkpt lat="43.34263" lon="-1.76292">
        <ele>4</ele>
        <time>2026-07-12T19:23:52.000Z</time>
      </trkpt>
      <trkpt lat="43.34263" lon="-1.76279">
        <ele>4</ele>
        <time>2026-07-12T19:23:54.000Z</time>
      </trkpt>
      <trkpt lat="43.3426" lon="-1.7625">
        <ele>4</ele>
        <time>2026-07-12T19:23:58.000Z</time>
      </trkpt>
      <trkpt lat="43.34259" lon="-1.76241">
        <ele>4</ele>
        <time>2026-07-12T19:23:59.000Z</time>
      </trkpt>
      <trkpt lat="43.34256" lon="-1.7623">
        <ele>4</ele>
        <time>2026-07-12T19:24:00.000Z</time>
      </trkpt>
      <trkpt lat="43.34251" lon="-1.76209">
        <ele>4</ele>
        <time>2026-07-12T19:24:03.000Z</time>
      </trkpt>
      <trkpt lat="43.34243" lon="-1.76175">
        <ele>3</ele>
        <time>2026-07-12T19:24:08.000Z</time>
      </trkpt>
      <trkpt lat="43.34241" lon="-1.76168">
        <ele>3</ele>
        <time>2026-07-12T19:24:09.000Z</time>
      </trkpt>
      <trkpt lat="43.34231" lon="-1.76125">
        <ele>3</ele>
        <time>2026-07-12T19:24:15.000Z</time>
      </trkpt>
      <trkpt lat="43.34231" lon="-1.76107">
        <ele>3</ele>
        <time>2026-07-12T19:24:17.000Z</time>
      </trkpt>
      <trkpt lat="43.34233" lon="-1.76082">
        <ele>2</ele>
        <time>2026-07-12T19:24:20.000Z</time>
      </trkpt>
      <trkpt lat="43.34234" lon="-1.7607">
        <ele>2</ele>
        <time>2026-07-12T19:24:22.000Z</time>
      </trkpt>
      <trkpt lat="43.34234" lon="-1.76058">
        <ele>2</ele>
        <time>2026-07-12T19:24:23.000Z</time>
      </trkpt>
      <trkpt lat="43.34232" lon="-1.76045">
        <ele>2</ele>
        <time>2026-07-12T19:24:25.000Z</time>
      </trkpt>
      <trkpt lat="43.3423" lon="-1.76032">
        <ele>2</ele>
        <time>2026-07-12T19:24:27.000Z</time>
      </trkpt>
      <trkpt lat="43.3423" lon="-1.76032">
        <ele>2</ele>
        <time>2026-07-12T19:24:27.000Z</time>
      </trkpt>
      <trkpt lat="43.34226" lon="-1.76025">
        <ele>3</ele>
        <time>2026-07-12T19:24:28.000Z</time>
      </trkpt>
      <trkpt lat="43.34224" lon="-1.76023">
        <ele>3</ele>
        <time>2026-07-12T19:24:28.000Z</time>
      </trkpt>
      <trkpt lat="43.34223" lon="-1.76019">
        <ele>3</ele>
        <time>2026-07-12T19:24:29.000Z</time>
      </trkpt>
      <trkpt lat="43.34222" lon="-1.76016">
        <ele>3</ele>
        <time>2026-07-12T19:24:29.000Z</time>
      </trkpt>
      <trkpt lat="43.34221" lon="-1.76012">
        <ele>3</ele>
        <time>2026-07-12T19:24:30.000Z</time>
      </trkpt>
      <trkpt lat="43.3422" lon="-1.76009">
        <ele>3</ele>
        <time>2026-07-12T19:24:30.000Z</time>
      </trkpt>
      <trkpt lat="43.3422" lon="-1.76005">
        <ele>3</ele>
        <time>2026-07-12T19:24:31.000Z</time>
      </trkpt>
      <trkpt lat="43.3422" lon="-1.76004">
        <ele>3</ele>
        <time>2026-07-12T19:24:31.000Z</time>
      </trkpt>
      <trkpt lat="43.34197" lon="-1.75979">
        <ele>3</ele>
        <time>2026-07-12T19:24:36.000Z</time>
      </trkpt>
      <trkpt lat="43.34191" lon="-1.75971">
        <ele>3</ele>
        <time>2026-07-12T19:24:38.000Z</time>
      </trkpt>
      <trkpt lat="43.34183" lon="-1.7596">
        <ele>3</ele>
        <time>2026-07-12T19:24:40.000Z</time>
      </trkpt>
      <trkpt lat="43.34173" lon="-1.75944">
        <ele>3</ele>
        <time>2026-07-12T19:24:42.000Z</time>
      </trkpt>
      <trkpt lat="43.34165" lon="-1.75929">
        <ele>3</ele>
        <time>2026-07-12T19:24:45.000Z</time>
      </trkpt>
      <trkpt lat="43.34155" lon="-1.75914">
        <ele>4</ele>
        <time>2026-07-12T19:24:47.000Z</time>
      </trkpt>
      <trkpt lat="43.34146" lon="-1.75903">
        <ele>5</ele>
        <time>2026-07-12T19:24:50.000Z</time>
      </trkpt>
      <trkpt lat="43.34128" lon="-1.75886">
        <ele>6</ele>
        <time>2026-07-12T19:24:53.000Z</time>
      </trkpt>
      <trkpt lat="43.34116" lon="-1.75878">
        <ele>7</ele>
        <time>2026-07-12T19:24:56.000Z</time>
      </trkpt>
      <trkpt lat="43.34113" lon="-1.75881">
        <ele>7</ele>
        <time>2026-07-12T19:24:56.000Z</time>
      </trkpt>
      <trkpt lat="43.34111" lon="-1.75883">
        <ele>7</ele>
        <time>2026-07-12T19:24:57.000Z</time>
      </trkpt>
      <trkpt lat="43.34109" lon="-1.75884">
        <ele>8</ele>
        <time>2026-07-12T19:24:57.000Z</time>
      </trkpt>
      <trkpt lat="43.34108" lon="-1.75885">
        <ele>8</ele>
        <time>2026-07-12T19:24:57.000Z</time>
      </trkpt>
      <trkpt lat="43.34106" lon="-1.75885">
        <ele>8</ele>
        <time>2026-07-12T19:24:58.000Z</time>
      </trkpt>
      <trkpt lat="43.34104" lon="-1.75886">
        <ele>8</ele>
        <time>2026-07-12T19:24:58.000Z</time>
      </trkpt>
      <trkpt lat="43.34102" lon="-1.75886">
        <ele>8</ele>
        <time>2026-07-12T19:24:59.000Z</time>
      </trkpt>
      <trkpt lat="43.341" lon="-1.75886">
        <ele>8</ele>
        <time>2026-07-12T19:24:59.000Z</time>
      </trkpt>
      <trkpt lat="43.34098" lon="-1.75886">
        <ele>8</ele>
        <time>2026-07-12T19:24:59.000Z</time>
      </trkpt>
      <trkpt lat="43.34097" lon="-1.75885">
        <ele>8</ele>
        <time>2026-07-12T19:24:59.000Z</time>
      </trkpt>
      <trkpt lat="43.34096" lon="-1.75885">
        <ele>8</ele>
        <time>2026-07-12T19:25:00.000Z</time>
      </trkpt>
      <trkpt lat="43.34095" lon="-1.75885">
        <ele>8</ele>
        <time>2026-07-12T19:25:00.000Z</time>
      </trkpt>
      <trkpt lat="43.34094" lon="-1.75884">
        <ele>9</ele>
        <time>2026-07-12T19:25:00.000Z</time>
      </trkpt>
      <trkpt lat="43.34093" lon="-1.75883">
        <ele>9</ele>
        <time>2026-07-12T19:25:00.000Z</time>
      </trkpt>
      <trkpt lat="43.34092" lon="-1.75883">
        <ele>9</ele>
        <time>2026-07-12T19:25:00.000Z</time>
      </trkpt>
      <trkpt lat="43.34091" lon="-1.75882">
        <ele>9</ele>
        <time>2026-07-12T19:25:01.000Z</time>
      </trkpt>
      <trkpt lat="43.3409" lon="-1.75881">
        <ele>9</ele>
        <time>2026-07-12T19:25:01.000Z</time>
      </trkpt>
      <trkpt lat="43.34089" lon="-1.7588">
        <ele>9</ele>
        <time>2026-07-12T19:25:01.000Z</time>
      </trkpt>
      <trkpt lat="43.34088" lon="-1.75879">
        <ele>9</ele>
        <time>2026-07-12T19:25:01.000Z</time>
      </trkpt>
      <trkpt lat="43.34087" lon="-1.75878">
        <ele>9</ele>
        <time>2026-07-12T19:25:02.000Z</time>
      </trkpt>
      <trkpt lat="43.34086" lon="-1.75876">
        <ele>9</ele>
        <time>2026-07-12T19:25:02.000Z</time>
      </trkpt>
      <trkpt lat="43.34085" lon="-1.75875">
        <ele>9</ele>
        <time>2026-07-12T19:25:02.000Z</time>
      </trkpt>
      <trkpt lat="43.34084" lon="-1.75873">
        <ele>9</ele>
        <time>2026-07-12T19:25:02.000Z</time>
      </trkpt>
      <trkpt lat="43.34083" lon="-1.75872">
        <ele>9</ele>
        <time>2026-07-12T19:25:03.000Z</time>
      </trkpt>
      <trkpt lat="43.34083" lon="-1.7587">
        <ele>9</ele>
        <time>2026-07-12T19:25:03.000Z</time>
      </trkpt>
      <trkpt lat="43.34082" lon="-1.75868">
        <ele>9</ele>
        <time>2026-07-12T19:25:03.000Z</time>
      </trkpt>
      <trkpt lat="43.34081" lon="-1.75865">
        <ele>9</ele>
        <time>2026-07-12T19:25:04.000Z</time>
      </trkpt>
      <trkpt lat="43.34081" lon="-1.75863">
        <ele>9</ele>
        <time>2026-07-12T19:25:04.000Z</time>
      </trkpt>
      <trkpt lat="43.34081" lon="-1.7586">
        <ele>9</ele>
        <time>2026-07-12T19:25:04.000Z</time>
      </trkpt>
      <trkpt lat="43.34081" lon="-1.75857">
        <ele>9</ele>
        <time>2026-07-12T19:25:05.000Z</time>
      </trkpt>
      <trkpt lat="43.34081" lon="-1.75855">
        <ele>9</ele>
        <time>2026-07-12T19:25:05.000Z</time>
      </trkpt>
      <trkpt lat="43.34081" lon="-1.75852">
        <ele>9</ele>
        <time>2026-07-12T19:25:05.000Z</time>
      </trkpt>
      <trkpt lat="43.34082" lon="-1.75847">
        <ele>9</ele>
        <time>2026-07-12T19:25:06.000Z</time>
      </trkpt>
      <trkpt lat="43.34083" lon="-1.75845">
        <ele>8</ele>
        <time>2026-07-12T19:25:06.000Z</time>
      </trkpt>
      <trkpt lat="43.34084" lon="-1.75842">
        <ele>8</ele>
        <time>2026-07-12T19:25:07.000Z</time>
      </trkpt>
      <trkpt lat="43.34085" lon="-1.7584">
        <ele>8</ele>
        <time>2026-07-12T19:25:07.000Z</time>
      </trkpt>
      <trkpt lat="43.34086" lon="-1.75838">
        <ele>8</ele>
        <time>2026-07-12T19:25:07.000Z</time>
      </trkpt>
      <trkpt lat="43.34087" lon="-1.75836">
        <ele>8</ele>
        <time>2026-07-12T19:25:08.000Z</time>
      </trkpt>
      <trkpt lat="43.34089" lon="-1.75835">
        <ele>8</ele>
        <time>2026-07-12T19:25:08.000Z</time>
      </trkpt>
      <trkpt lat="43.3409" lon="-1.75833">
        <ele>8</ele>
        <time>2026-07-12T19:25:08.000Z</time>
      </trkpt>
      <trkpt lat="43.34092" lon="-1.75832">
        <ele>8</ele>
        <time>2026-07-12T19:25:09.000Z</time>
      </trkpt>
      <trkpt lat="43.34091" lon="-1.7582">
        <ele>7</ele>
        <time>2026-07-12T19:25:10.000Z</time>
      </trkpt>
      <trkpt lat="43.3409" lon="-1.75814">
        <ele>7</ele>
        <time>2026-07-12T19:25:11.000Z</time>
      </trkpt>
      <trkpt lat="43.34087" lon="-1.75803">
        <ele>7</ele>
        <time>2026-07-12T19:25:13.000Z</time>
      </trkpt>
      <trkpt lat="43.34082" lon="-1.75792">
        <ele>7</ele>
        <time>2026-07-12T19:25:14.000Z</time>
      </trkpt>
      <trkpt lat="43.34071" lon="-1.75771">
        <ele>7</ele>
        <time>2026-07-12T19:25:18.000Z</time>
      </trkpt>
      <trkpt lat="43.34054" lon="-1.7574">
        <ele>8</ele>
        <time>2026-07-12T19:25:23.000Z</time>
      </trkpt>
      <trkpt lat="43.34025" lon="-1.75689">
        <ele>11</ele>
        <time>2026-07-12T19:25:31.000Z</time>
      </trkpt>
      <trkpt lat="43.34002" lon="-1.75651">
        <ele>11</ele>
        <time>2026-07-12T19:25:37.000Z</time>
      </trkpt>
      <trkpt lat="43.33989" lon="-1.75629">
        <ele>10</ele>
        <time>2026-07-12T19:25:41.000Z</time>
      </trkpt>
      <trkpt lat="43.33987" lon="-1.75627">
        <ele>10</ele>
        <time>2026-07-12T19:25:42.000Z</time>
      </trkpt>
      <trkpt lat="43.3398" lon="-1.75615">
        <ele>9</ele>
        <time>2026-07-12T19:25:44.000Z</time>
      </trkpt>
      <trkpt lat="43.33949" lon="-1.75576">
        <ele>7</ele>
        <time>2026-07-12T19:25:51.000Z</time>
      </trkpt>
      <trkpt lat="43.33922" lon="-1.7555">
        <ele>6</ele>
        <time>2026-07-12T19:25:57.000Z</time>
      </trkpt>
      <trkpt lat="43.33914" lon="-1.75542">
        <ele>6</ele>
        <time>2026-07-12T19:25:59.000Z</time>
      </trkpt>
      <trkpt lat="43.33896" lon="-1.75529">
        <ele>5</ele>
        <time>2026-07-12T19:26:02.000Z</time>
      </trkpt>
      <trkpt lat="43.33889" lon="-1.75523">
        <ele>5</ele>
        <time>2026-07-12T19:26:04.000Z</time>
      </trkpt>
      <trkpt lat="43.33887" lon="-1.75525">
        <ele>5</ele>
        <time>2026-07-12T19:26:04.000Z</time>
      </trkpt>
      <trkpt lat="43.33885" lon="-1.75526">
        <ele>6</ele>
        <time>2026-07-12T19:26:05.000Z</time>
      </trkpt>
      <trkpt lat="43.33884" lon="-1.75527">
        <ele>6</ele>
        <time>2026-07-12T19:26:05.000Z</time>
      </trkpt>
      <trkpt lat="43.33882" lon="-1.75528">
        <ele>6</ele>
        <time>2026-07-12T19:26:05.000Z</time>
      </trkpt>
      <trkpt lat="43.3388" lon="-1.75528">
        <ele>6</ele>
        <time>2026-07-12T19:26:06.000Z</time>
      </trkpt>
      <trkpt lat="43.33879" lon="-1.75529">
        <ele>6</ele>
        <time>2026-07-12T19:26:06.000Z</time>
      </trkpt>
      <trkpt lat="43.33878" lon="-1.75529">
        <ele>6</ele>
        <time>2026-07-12T19:26:06.000Z</time>
      </trkpt>
      <trkpt lat="43.33877" lon="-1.75529">
        <ele>6</ele>
        <time>2026-07-12T19:26:06.000Z</time>
      </trkpt>
      <trkpt lat="43.33875" lon="-1.75529">
        <ele>6</ele>
        <time>2026-07-12T19:26:06.000Z</time>
      </trkpt>
      <trkpt lat="43.33874" lon="-1.75529">
        <ele>6</ele>
        <time>2026-07-12T19:26:07.000Z</time>
      </trkpt>
      <trkpt lat="43.33872" lon="-1.75529">
        <ele>6</ele>
        <time>2026-07-12T19:26:07.000Z</time>
      </trkpt>
      <trkpt lat="43.33871" lon="-1.75528">
        <ele>6</ele>
        <time>2026-07-12T19:26:07.000Z</time>
      </trkpt>
      <trkpt lat="43.33869" lon="-1.75528">
        <ele>6</ele>
        <time>2026-07-12T19:26:08.000Z</time>
      </trkpt>
      <trkpt lat="43.33868" lon="-1.75527">
        <ele>6</ele>
        <time>2026-07-12T19:26:08.000Z</time>
      </trkpt>
      <trkpt lat="43.33866" lon="-1.75526">
        <ele>6</ele>
        <time>2026-07-12T19:26:08.000Z</time>
      </trkpt>
      <trkpt lat="43.33865" lon="-1.75525">
        <ele>6</ele>
        <time>2026-07-12T19:26:08.000Z</time>
      </trkpt>
      <trkpt lat="43.33863" lon="-1.75524">
        <ele>6</ele>
        <time>2026-07-12T19:26:09.000Z</time>
      </trkpt>
      <trkpt lat="43.33862" lon="-1.75522">
        <ele>6</ele>
        <time>2026-07-12T19:26:09.000Z</time>
      </trkpt>
      <trkpt lat="43.33861" lon="-1.75521">
        <ele>6</ele>
        <time>2026-07-12T19:26:09.000Z</time>
      </trkpt>
      <trkpt lat="43.3386" lon="-1.75519">
        <ele>6</ele>
        <time>2026-07-12T19:26:10.000Z</time>
      </trkpt>
      <trkpt lat="43.33859" lon="-1.75517">
        <ele>6</ele>
        <time>2026-07-12T19:26:10.000Z</time>
      </trkpt>
      <trkpt lat="43.33859" lon="-1.75515">
        <ele>5</ele>
        <time>2026-07-12T19:26:10.000Z</time>
      </trkpt>
      <trkpt lat="43.33858" lon="-1.75513">
        <ele>5</ele>
        <time>2026-07-12T19:26:10.000Z</time>
      </trkpt>
      <trkpt lat="43.33858" lon="-1.7551">
        <ele>5</ele>
        <time>2026-07-12T19:26:11.000Z</time>
      </trkpt>
      <trkpt lat="43.33857" lon="-1.75508">
        <ele>5</ele>
        <time>2026-07-12T19:26:11.000Z</time>
      </trkpt>
      <trkpt lat="43.33857" lon="-1.75507">
        <ele>5</ele>
        <time>2026-07-12T19:26:11.000Z</time>
      </trkpt>
      <trkpt lat="43.33857" lon="-1.75506">
        <ele>5</ele>
        <time>2026-07-12T19:26:11.000Z</time>
      </trkpt>
      <trkpt lat="43.33857" lon="-1.75505">
        <ele>5</ele>
        <time>2026-07-12T19:26:12.000Z</time>
      </trkpt>
      <trkpt lat="43.33857" lon="-1.75504">
        <ele>5</ele>
        <time>2026-07-12T19:26:12.000Z</time>
      </trkpt>
      <trkpt lat="43.33857" lon="-1.75503">
        <ele>5</ele>
        <time>2026-07-12T19:26:12.000Z</time>
      </trkpt>
      <trkpt lat="43.3384" lon="-1.75484">
        <ele>5</ele>
        <time>2026-07-12T19:26:16.000Z</time>
      </trkpt>
      <trkpt lat="43.33809" lon="-1.75453">
        <ele>7</ele>
        <time>2026-07-12T19:26:23.000Z</time>
      </trkpt>
      <trkpt lat="43.3375" lon="-1.75398">
        <ele>6</ele>
        <time>2026-07-12T19:26:35.000Z</time>
      </trkpt>
      <trkpt lat="43.33716" lon="-1.75376">
        <ele>8</ele>
        <time>2026-07-12T19:26:42.000Z</time>
      </trkpt>
      <trkpt lat="43.33703" lon="-1.75366">
        <ele>8</ele>
        <time>2026-07-12T19:26:45.000Z</time>
      </trkpt>
      <trkpt lat="43.33684" lon="-1.75354">
        <ele>7</ele>
        <time>2026-07-12T19:26:48.000Z</time>
      </trkpt>
      <trkpt lat="43.33658" lon="-1.75342">
        <ele>7</ele>
        <time>2026-07-12T19:26:53.000Z</time>
      </trkpt>
      <trkpt lat="43.3363" lon="-1.75332">
        <ele>8</ele>
        <time>2026-07-12T19:26:58.000Z</time>
      </trkpt>
      <trkpt lat="43.33617" lon="-1.75329">
        <ele>9</ele>
        <time>2026-07-12T19:27:01.000Z</time>
      </trkpt>
      <trkpt lat="43.33606" lon="-1.75327">
        <ele>10</ele>
        <time>2026-07-12T19:27:03.000Z</time>
      </trkpt>
      <trkpt lat="43.33594" lon="-1.75326">
        <ele>11</ele>
        <time>2026-07-12T19:27:05.000Z</time>
      </trkpt>
      <trkpt lat="43.33586" lon="-1.75327">
        <ele>12</ele>
        <time>2026-07-12T19:27:06.000Z</time>
      </trkpt>
      <trkpt lat="43.33574" lon="-1.75329">
        <ele>13</ele>
        <time>2026-07-12T19:27:08.000Z</time>
      </trkpt>
      <trkpt lat="43.33574" lon="-1.75331">
        <ele>13</ele>
        <time>2026-07-12T19:27:09.000Z</time>
      </trkpt>
      <trkpt lat="43.33573" lon="-1.75333">
        <ele>14</ele>
        <time>2026-07-12T19:27:09.000Z</time>
      </trkpt>
      <trkpt lat="43.33573" lon="-1.75335">
        <ele>14</ele>
        <time>2026-07-12T19:27:09.000Z</time>
      </trkpt>
      <trkpt lat="43.33572" lon="-1.75337">
        <ele>15</ele>
        <time>2026-07-12T19:27:09.000Z</time>
      </trkpt>
      <trkpt lat="43.33571" lon="-1.75338">
        <ele>16</ele>
        <time>2026-07-12T19:27:10.000Z</time>
      </trkpt>
      <trkpt lat="43.3357" lon="-1.7534">
        <ele>17</ele>
        <time>2026-07-12T19:27:10.000Z</time>
      </trkpt>
      <trkpt lat="43.33569" lon="-1.75341">
        <ele>17</ele>
        <time>2026-07-12T19:27:10.000Z</time>
      </trkpt>
      <trkpt lat="43.33568" lon="-1.75343">
        <ele>18</ele>
        <time>2026-07-12T19:27:11.000Z</time>
      </trkpt>
      <trkpt lat="43.33567" lon="-1.75344">
        <ele>19</ele>
        <time>2026-07-12T19:27:11.000Z</time>
      </trkpt>
      <trkpt lat="43.33566" lon="-1.75345">
        <ele>19</ele>
        <time>2026-07-12T19:27:11.000Z</time>
      </trkpt>
      <trkpt lat="43.33564" lon="-1.75346">
        <ele>19</ele>
        <time>2026-07-12T19:27:11.000Z</time>
      </trkpt>
      <trkpt lat="43.33563" lon="-1.75346">
        <ele>20</ele>
        <time>2026-07-12T19:27:12.000Z</time>
      </trkpt>
      <trkpt lat="43.33562" lon="-1.75347">
        <ele>20</ele>
        <time>2026-07-12T19:27:12.000Z</time>
      </trkpt>
      <trkpt lat="43.3356" lon="-1.75347">
        <ele>20</ele>
        <time>2026-07-12T19:27:12.000Z</time>
      </trkpt>
      <trkpt lat="43.33559" lon="-1.75348">
        <ele>21</ele>
        <time>2026-07-12T19:27:12.000Z</time>
      </trkpt>
      <trkpt lat="43.33557" lon="-1.75348">
        <ele>21</ele>
        <time>2026-07-12T19:27:13.000Z</time>
      </trkpt>
      <trkpt lat="43.33554" lon="-1.75348">
        <ele>21</ele>
        <time>2026-07-12T19:27:13.000Z</time>
      </trkpt>
      <trkpt lat="43.3355" lon="-1.75345">
        <ele>20</ele>
        <time>2026-07-12T19:27:14.000Z</time>
      </trkpt>
      <trkpt lat="43.33529" lon="-1.75344">
        <ele>21</ele>
        <time>2026-07-12T19:27:18.000Z</time>
      </trkpt>
      <trkpt lat="43.33508" lon="-1.75345">
        <ele>22</ele>
        <time>2026-07-12T19:27:22.000Z</time>
      </trkpt>
      <trkpt lat="43.33469" lon="-1.75351">
        <ele>27</ele>
        <time>2026-07-12T19:27:29.000Z</time>
      </trkpt>
      <trkpt lat="43.33441" lon="-1.75353">
        <ele>30</ele>
        <time>2026-07-12T19:27:33.000Z</time>
      </trkpt>
      <trkpt lat="43.33417" lon="-1.75352">
        <ele>32</ele>
        <time>2026-07-12T19:27:38.000Z</time>
      </trkpt>
      <trkpt lat="43.33397" lon="-1.75349">
        <ele>33</ele>
        <time>2026-07-12T19:27:41.000Z</time>
      </trkpt>
      <trkpt lat="43.33379" lon="-1.75344">
        <ele>33</ele>
        <time>2026-07-12T19:27:45.000Z</time>
      </trkpt>
      <trkpt lat="43.33362" lon="-1.75338">
        <ele>33</ele>
        <time>2026-07-12T19:27:48.000Z</time>
      </trkpt>
      <trkpt lat="43.33339" lon="-1.75327">
        <ele>31</ele>
        <time>2026-07-12T19:27:52.000Z</time>
      </trkpt>
      <trkpt lat="43.33321" lon="-1.75317">
        <ele>31</ele>
        <time>2026-07-12T19:27:56.000Z</time>
      </trkpt>
      <trkpt lat="43.33296" lon="-1.75298">
        <ele>31</ele>
        <time>2026-07-12T19:28:01.000Z</time>
      </trkpt>
      <trkpt lat="43.33268" lon="-1.75273">
        <ele>31</ele>
        <time>2026-07-12T19:28:07.000Z</time>
      </trkpt>
      <trkpt lat="43.33249" lon="-1.75253">
        <ele>30</ele>
        <time>2026-07-12T19:28:11.000Z</time>
      </trkpt>
      <trkpt lat="43.33229" lon="-1.75227">
        <ele>30</ele>
        <time>2026-07-12T19:28:16.000Z</time>
      </trkpt>
      <trkpt lat="43.33222" lon="-1.75218">
        <ele>30</ele>
        <time>2026-07-12T19:28:17.000Z</time>
      </trkpt>
      <trkpt lat="43.33213" lon="-1.75207">
        <ele>29</ele>
        <time>2026-07-12T19:28:20.000Z</time>
      </trkpt>
      <trkpt lat="43.33203" lon="-1.75192">
        <ele>27</ele>
        <time>2026-07-12T19:28:22.000Z</time>
      </trkpt>
      <trkpt lat="43.33194" lon="-1.75179">
        <ele>25</ele>
        <time>2026-07-12T19:28:25.000Z</time>
      </trkpt>
      <trkpt lat="43.3317" lon="-1.7514">
        <ele>21</ele>
        <time>2026-07-12T19:28:31.000Z</time>
      </trkpt>
      <trkpt lat="43.3317" lon="-1.7514">
        <ele>21</ele>
        <time>2026-07-12T19:28:31.000Z</time>
      </trkpt>
      <trkpt lat="43.33163" lon="-1.75136">
        <ele>22</ele>
        <time>2026-07-12T19:28:32.000Z</time>
      </trkpt>
      <trkpt lat="43.33159" lon="-1.75132">
        <ele>21</ele>
        <time>2026-07-12T19:28:33.000Z</time>
      </trkpt>
      <trkpt lat="43.33145" lon="-1.75114">
        <ele>20</ele>
        <time>2026-07-12T19:28:37.000Z</time>
      </trkpt>
      <trkpt lat="43.33082" lon="-1.75012">
        <ele>13</ele>
        <time>2026-07-12T19:28:54.000Z</time>
      </trkpt>
      <trkpt lat="43.33063" lon="-1.74981">
        <ele>14</ele>
        <time>2026-07-12T19:28:59.000Z</time>
      </trkpt>
      <trkpt lat="43.33063" lon="-1.74981">
        <ele>14</ele>
        <time>2026-07-12T19:28:59.000Z</time>
      </trkpt>
      <trkpt lat="43.3306" lon="-1.74971">
        <ele>14</ele>
        <time>2026-07-12T19:29:01.000Z</time>
      </trkpt>
      <trkpt lat="43.33059" lon="-1.74961">
        <ele>13</ele>
        <time>2026-07-12T19:29:02.000Z</time>
      </trkpt>
      <trkpt lat="43.33059" lon="-1.74951">
        <ele>12</ele>
        <time>2026-07-12T19:29:03.000Z</time>
      </trkpt>
      <trkpt lat="43.33059" lon="-1.7494">
        <ele>12</ele>
        <time>2026-07-12T19:29:05.000Z</time>
      </trkpt>
      <trkpt lat="43.3306" lon="-1.74931">
        <ele>11</ele>
        <time>2026-07-12T19:29:06.000Z</time>
      </trkpt>
      <trkpt lat="43.33061" lon="-1.74919">
        <ele>10</ele>
        <time>2026-07-12T19:29:07.000Z</time>
      </trkpt>
      <trkpt lat="43.33062" lon="-1.74914">
        <ele>10</ele>
        <time>2026-07-12T19:29:08.000Z</time>
      </trkpt>
      <trkpt lat="43.33066" lon="-1.74884">
        <ele>9</ele>
        <time>2026-07-12T19:29:12.000Z</time>
      </trkpt>
      <trkpt lat="43.33045" lon="-1.74763">
        <ele>12</ele>
        <time>2026-07-12T19:29:28.000Z</time>
      </trkpt>
      <trkpt lat="43.33027" lon="-1.74649">
        <ele>13</ele>
        <time>2026-07-12T19:29:43.000Z</time>
      </trkpt>
      <trkpt lat="43.32998" lon="-1.74459">
        <ele>13</ele>
        <time>2026-07-12T19:30:08.000Z</time>
      </trkpt>
      <trkpt lat="43.32977" lon="-1.74328">
        <ele>13</ele>
        <time>2026-07-12T19:30:26.000Z</time>
      </trkpt>
      <trkpt lat="43.3297" lon="-1.74281">
        <ele>14</ele>
        <time>2026-07-12T19:30:32.000Z</time>
      </trkpt>
      <trkpt lat="43.32945" lon="-1.74127">
        <ele>16</ele>
        <time>2026-07-12T19:30:52.000Z</time>
      </trkpt>
      <trkpt lat="43.32935" lon="-1.74062">
        <ele>13</ele>
        <time>2026-07-12T19:31:01.000Z</time>
      </trkpt>
      <trkpt lat="43.32922" lon="-1.74">
        <ele>9</ele>
        <time>2026-07-12T19:31:09.000Z</time>
      </trkpt>
      <trkpt lat="43.32915" lon="-1.73978">
        <ele>9</ele>
        <time>2026-07-12T19:31:12.000Z</time>
      </trkpt>
      <trkpt lat="43.32893" lon="-1.73927">
        <ele>11</ele>
        <time>2026-07-12T19:31:20.000Z</time>
      </trkpt>
      <trkpt lat="43.32878" lon="-1.73904">
        <ele>10</ele>
        <time>2026-07-12T19:31:24.000Z</time>
      </trkpt>
      <trkpt lat="43.32862" lon="-1.73889">
        <ele>10</ele>
        <time>2026-07-12T19:31:28.000Z</time>
      </trkpt>
      <trkpt lat="43.32847" lon="-1.73883">
        <ele>10</ele>
        <time>2026-07-12T19:31:30.000Z</time>
      </trkpt>
      <trkpt lat="43.32824" lon="-1.73879">
        <ele>11</ele>
        <time>2026-07-12T19:31:35.000Z</time>
      </trkpt>
      <trkpt lat="43.32802" lon="-1.73878">
        <ele>12</ele>
        <time>2026-07-12T19:31:38.000Z</time>
      </trkpt>
      <trkpt lat="43.32781" lon="-1.73882">
        <ele>13</ele>
        <time>2026-07-12T19:31:42.000Z</time>
      </trkpt>
      <trkpt lat="43.32718" lon="-1.73895">
        <ele>17</ele>
        <time>2026-07-12T19:31:54.000Z</time>
      </trkpt>
      <trkpt lat="43.32696" lon="-1.739">
        <ele>19</ele>
        <time>2026-07-12T19:31:58.000Z</time>
      </trkpt>
      <trkpt lat="43.32669" lon="-1.73904">
        <ele>20</ele>
        <time>2026-07-12T19:32:02.000Z</time>
      </trkpt>
      <trkpt lat="43.32626" lon="-1.7391">
        <ele>18</ele>
        <time>2026-07-12T19:32:10.000Z</time>
      </trkpt>
      <trkpt lat="43.32592" lon="-1.73917">
        <ele>17</ele>
        <time>2026-07-12T19:32:16.000Z</time>
      </trkpt>
      <trkpt lat="43.32545" lon="-1.73926">
        <ele>19</ele>
        <time>2026-07-12T19:32:25.000Z</time>
      </trkpt>
      <trkpt lat="43.32506" lon="-1.73945">
        <ele>22</ele>
        <time>2026-07-12T19:32:32.000Z</time>
      </trkpt>
      <trkpt lat="43.32442" lon="-1.73999">
        <ele>23</ele>
        <time>2026-07-12T19:32:45.000Z</time>
      </trkpt>
      <trkpt lat="43.32396" lon="-1.74036">
        <ele>21</ele>
        <time>2026-07-12T19:32:55.000Z</time>
      </trkpt>
      <trkpt lat="43.32219" lon="-1.74152">
        <ele>20</ele>
        <time>2026-07-12T19:33:30.000Z</time>
      </trkpt>
      <trkpt lat="43.32178" lon="-1.74179">
        <ele>17</ele>
        <time>2026-07-12T19:33:38.000Z</time>
      </trkpt>
      <trkpt lat="43.32144" lon="-1.74199">
        <ele>17</ele>
        <time>2026-07-12T19:33:44.000Z</time>
      </trkpt>
      <trkpt lat="43.32128" lon="-1.74208">
        <ele>18</ele>
        <time>2026-07-12T19:33:47.000Z</time>
      </trkpt>
      <trkpt lat="43.32018" lon="-1.74221">
        <ele>24</ele>
        <time>2026-07-12T19:34:07.000Z</time>
      </trkpt>
      <trkpt lat="43.31928" lon="-1.74233">
        <ele>24</ele>
        <time>2026-07-12T19:34:23.000Z</time>
      </trkpt>
      <trkpt lat="43.31826" lon="-1.74244">
        <ele>22</ele>
        <time>2026-07-12T19:34:41.000Z</time>
      </trkpt>
      <trkpt lat="43.31801" lon="-1.74244">
        <ele>22</ele>
        <time>2026-07-12T19:34:46.000Z</time>
      </trkpt>
      <trkpt lat="43.31776" lon="-1.74244">
        <ele>22</ele>
        <time>2026-07-12T19:34:50.000Z</time>
      </trkpt>
      <trkpt lat="43.31729" lon="-1.74243">
        <ele>25</ele>
        <time>2026-07-12T19:34:59.000Z</time>
      </trkpt>
      <trkpt lat="43.31706" lon="-1.74238">
        <ele>27</ele>
        <time>2026-07-12T19:35:03.000Z</time>
      </trkpt>
      <trkpt lat="43.31629" lon="-1.74205">
        <ele>36</ele>
        <time>2026-07-12T19:35:17.000Z</time>
      </trkpt>
      <trkpt lat="43.31598" lon="-1.74179">
        <ele>34</ele>
        <time>2026-07-12T19:35:24.000Z</time>
      </trkpt>
      <trkpt lat="43.31561" lon="-1.74141">
        <ele>35</ele>
        <time>2026-07-12T19:35:32.000Z</time>
      </trkpt>
      <trkpt lat="43.31522" lon="-1.74094">
        <ele>35</ele>
        <time>2026-07-12T19:35:41.000Z</time>
      </trkpt>
      <trkpt lat="43.31486" lon="-1.74034">
        <ele>31</ele>
        <time>2026-07-12T19:35:51.000Z</time>
      </trkpt>
      <trkpt lat="43.31461" lon="-1.73986">
        <ele>28</ele>
        <time>2026-07-12T19:35:59.000Z</time>
      </trkpt>
      <trkpt lat="43.31447" lon="-1.73946">
        <ele>25</ele>
        <time>2026-07-12T19:36:04.000Z</time>
      </trkpt>
      <trkpt lat="43.31423" lon="-1.73906">
        <ele>21</ele>
        <time>2026-07-12T19:36:11.000Z</time>
      </trkpt>
      <trkpt lat="43.31409" lon="-1.73892">
        <ele>20</ele>
        <time>2026-07-12T19:36:14.000Z</time>
      </trkpt>
      <trkpt lat="43.31386" lon="-1.73882">
        <ele>18</ele>
        <time>2026-07-12T19:36:19.000Z</time>
      </trkpt>
      <trkpt lat="43.31348" lon="-1.73888">
        <ele>17</ele>
        <time>2026-07-12T19:36:25.000Z</time>
      </trkpt>
      <trkpt lat="43.31326" lon="-1.73908">
        <ele>17</ele>
        <time>2026-07-12T19:36:30.000Z</time>
      </trkpt>
      <trkpt lat="43.31303" lon="-1.73944">
        <ele>24</ele>
        <time>2026-07-12T19:36:36.000Z</time>
      </trkpt>
      <trkpt lat="43.31268" lon="-1.74014">
        <ele>30</ele>
        <time>2026-07-12T19:36:47.000Z</time>
      </trkpt>
      <trkpt lat="43.31253" lon="-1.74039">
        <ele>33</ele>
        <time>2026-07-12T19:36:51.000Z</time>
      </trkpt>
      <trkpt lat="43.31224" lon="-1.74061">
        <ele>31</ele>
        <time>2026-07-12T19:36:57.000Z</time>
      </trkpt>
      <trkpt lat="43.31186" lon="-1.74082">
        <ele>26</ele>
        <time>2026-07-12T19:37:05.000Z</time>
      </trkpt>
      <trkpt lat="43.3115" lon="-1.74089">
        <ele>23</ele>
        <time>2026-07-12T19:37:11.000Z</time>
      </trkpt>
      <trkpt lat="43.31132" lon="-1.74087">
        <ele>24</ele>
        <time>2026-07-12T19:37:14.000Z</time>
      </trkpt>
      <trkpt lat="43.31118" lon="-1.74079">
        <ele>24</ele>
        <time>2026-07-12T19:37:17.000Z</time>
      </trkpt>
      <trkpt lat="43.311" lon="-1.74058">
        <ele>23</ele>
        <time>2026-07-12T19:37:21.000Z</time>
      </trkpt>
      <trkpt lat="43.31081" lon="-1.74029">
        <ele>22</ele>
        <time>2026-07-12T19:37:26.000Z</time>
      </trkpt>
      <trkpt lat="43.31051" lon="-1.7397">
        <ele>28</ele>
        <time>2026-07-12T19:37:36.000Z</time>
      </trkpt>
      <trkpt lat="43.31036" lon="-1.7394">
        <ele>30</ele>
        <time>2026-07-12T19:37:40.000Z</time>
      </trkpt>
      <trkpt lat="43.31029" lon="-1.73912">
        <ele>29</ele>
        <time>2026-07-12T19:37:44.000Z</time>
      </trkpt>
      <trkpt lat="43.31016" lon="-1.73851">
        <ele>27</ele>
        <time>2026-07-12T19:37:52.000Z</time>
      </trkpt>
      <trkpt lat="43.31011" lon="-1.73818">
        <ele>26</ele>
        <time>2026-07-12T19:37:57.000Z</time>
      </trkpt>
      <trkpt lat="43.31008" lon="-1.73731">
        <ele>21</ele>
        <time>2026-07-12T19:38:08.000Z</time>
      </trkpt>
      <trkpt lat="43.31" lon="-1.73701">
        <ele>18</ele>
        <time>2026-07-12T19:38:12.000Z</time>
      </trkpt>
      <trkpt lat="43.30986" lon="-1.73678">
        <ele>17</ele>
        <time>2026-07-12T19:38:16.000Z</time>
      </trkpt>
      <trkpt lat="43.30964" lon="-1.73659">
        <ele>19</ele>
        <time>2026-07-12T19:38:21.000Z</time>
      </trkpt>
      <trkpt lat="43.30926" lon="-1.73644">
        <ele>24</ele>
        <time>2026-07-12T19:38:28.000Z</time>
      </trkpt>
      <trkpt lat="43.30874" lon="-1.73629">
        <ele>26</ele>
        <time>2026-07-12T19:38:37.000Z</time>
      </trkpt>
      <trkpt lat="43.30801" lon="-1.73628">
        <ele>34</ele>
        <time>2026-07-12T19:38:50.000Z</time>
      </trkpt>
      <trkpt lat="43.30761" lon="-1.73616">
        <ele>33</ele>
        <time>2026-07-12T19:38:57.000Z</time>
      </trkpt>
      <trkpt lat="43.30752" lon="-1.73613">
        <ele>32</ele>
        <time>2026-07-12T19:38:59.000Z</time>
      </trkpt>
      <trkpt lat="43.30739" lon="-1.73606">
        <ele>32</ele>
        <time>2026-07-12T19:39:02.000Z</time>
      </trkpt>
      <trkpt lat="43.30717" lon="-1.73597">
        <ele>32</ele>
        <time>2026-07-12T19:39:06.000Z</time>
      </trkpt>
      <trkpt lat="43.3069" lon="-1.73582">
        <ele>31</ele>
        <time>2026-07-12T19:39:11.000Z</time>
      </trkpt>
      <trkpt lat="43.3069" lon="-1.73582">
        <ele>31</ele>
        <time>2026-07-12T19:39:11.000Z</time>
      </trkpt>
      <trkpt lat="43.30676" lon="-1.73578">
        <ele>33</ele>
        <time>2026-07-12T19:39:13.000Z</time>
      </trkpt>
      <trkpt lat="43.30671" lon="-1.73578">
        <ele>34</ele>
        <time>2026-07-12T19:39:14.000Z</time>
      </trkpt>
      <trkpt lat="43.30663" lon="-1.73577">
        <ele>36</ele>
        <time>2026-07-12T19:39:16.000Z</time>
      </trkpt>
      <trkpt lat="43.30653" lon="-1.73577">
        <ele>40</ele>
        <time>2026-07-12T19:39:17.000Z</time>
      </trkpt>
      <trkpt lat="43.30639" lon="-1.73578">
        <ele>46</ele>
        <time>2026-07-12T19:39:20.000Z</time>
      </trkpt>
      <trkpt lat="43.30626" lon="-1.73578">
        <ele>51</ele>
        <time>2026-07-12T19:39:22.000Z</time>
      </trkpt>
      <trkpt lat="43.30614" lon="-1.73578">
        <ele>56</ele>
        <time>2026-07-12T19:39:24.000Z</time>
      </trkpt>
      <trkpt lat="43.30596" lon="-1.73575">
        <ele>62</ele>
        <time>2026-07-12T19:39:28.000Z</time>
      </trkpt>
      <trkpt lat="43.30586" lon="-1.73572">
        <ele>64</ele>
        <time>2026-07-12T19:39:29.000Z</time>
      </trkpt>
      <trkpt lat="43.30577" lon="-1.73567">
        <ele>64</ele>
        <time>2026-07-12T19:39:31.000Z</time>
      </trkpt>
      <trkpt lat="43.30565" lon="-1.73558">
        <ele>61</ele>
        <time>2026-07-12T19:39:34.000Z</time>
      </trkpt>
      <trkpt lat="43.30557" lon="-1.73551">
        <ele>58</ele>
        <time>2026-07-12T19:39:35.000Z</time>
      </trkpt>
      <trkpt lat="43.30544" lon="-1.73538">
        <ele>54</ele>
        <time>2026-07-12T19:39:38.000Z</time>
      </trkpt>
      <trkpt lat="43.30532" lon="-1.73524">
        <ele>49</ele>
        <time>2026-07-12T19:39:41.000Z</time>
      </trkpt>
      <trkpt lat="43.30517" lon="-1.7351">
        <ele>45</ele>
        <time>2026-07-12T19:39:44.000Z</time>
      </trkpt>
      <trkpt lat="43.30504" lon="-1.73499">
        <ele>42</ele>
        <time>2026-07-12T19:39:47.000Z</time>
      </trkpt>
      <trkpt lat="43.30488" lon="-1.73485">
        <ele>39</ele>
        <time>2026-07-12T19:39:50.000Z</time>
      </trkpt>
      <trkpt lat="43.30488" lon="-1.73485">
        <ele>39</ele>
        <time>2026-07-12T19:39:50.000Z</time>
      </trkpt>
      <trkpt lat="43.30456" lon="-1.73471">
        <ele>36</ele>
        <time>2026-07-12T19:39:56.000Z</time>
      </trkpt>
      <trkpt lat="43.30442" lon="-1.73469">
        <ele>36</ele>
        <time>2026-07-12T19:39:59.000Z</time>
      </trkpt>
      <trkpt lat="43.30417" lon="-1.73463">
        <ele>36</ele>
        <time>2026-07-12T19:40:03.000Z</time>
      </trkpt>
      <trkpt lat="43.30414" lon="-1.73462">
        <ele>35</ele>
        <time>2026-07-12T19:40:04.000Z</time>
      </trkpt>
      <trkpt lat="43.30311" lon="-1.7344">
        <ele>37</ele>
        <time>2026-07-12T19:40:22.000Z</time>
      </trkpt>
      <trkpt lat="43.30222" lon="-1.73425">
        <ele>58</ele>
        <time>2026-07-12T19:40:38.000Z</time>
      </trkpt>
      <trkpt lat="43.30181" lon="-1.73412">
        <ele>67</ele>
        <time>2026-07-12T19:40:46.000Z</time>
      </trkpt>
      <trkpt lat="43.30174" lon="-1.73409">
        <ele>67</ele>
        <time>2026-07-12T19:40:47.000Z</time>
      </trkpt>
      <trkpt lat="43.30102" lon="-1.73377">
        <ele>58</ele>
        <time>2026-07-12T19:41:01.000Z</time>
      </trkpt>
      <trkpt lat="43.30064" lon="-1.73354">
        <ele>53</ele>
        <time>2026-07-12T19:41:08.000Z</time>
      </trkpt>
      <trkpt lat="43.2997" lon="-1.73302">
        <ele>53</ele>
        <time>2026-07-12T19:41:26.000Z</time>
      </trkpt>
      <trkpt lat="43.29937" lon="-1.73282">
        <ele>54</ele>
        <time>2026-07-12T19:41:32.000Z</time>
      </trkpt>
      <trkpt lat="43.29927" lon="-1.73277">
        <ele>55</ele>
        <time>2026-07-12T19:41:34.000Z</time>
      </trkpt>
      <trkpt lat="43.29859" lon="-1.73239">
        <ele>51</ele>
        <time>2026-07-12T19:41:47.000Z</time>
      </trkpt>
      <trkpt lat="43.29821" lon="-1.7322">
        <ele>48</ele>
        <time>2026-07-12T19:41:55.000Z</time>
      </trkpt>
      <trkpt lat="43.29751" lon="-1.73181">
        <ele>37</ele>
        <time>2026-07-12T19:42:08.000Z</time>
      </trkpt>
      <trkpt lat="43.29705" lon="-1.73159">
        <ele>40</ele>
        <time>2026-07-12T19:42:17.000Z</time>
      </trkpt>
      <trkpt lat="43.29641" lon="-1.73126">
        <ele>44</ele>
        <time>2026-07-12T19:42:29.000Z</time>
      </trkpt>
      <trkpt lat="43.29601" lon="-1.73104">
        <ele>44</ele>
        <time>2026-07-12T19:42:37.000Z</time>
      </trkpt>
      <trkpt lat="43.2953" lon="-1.73061">
        <ele>39</ele>
        <time>2026-07-12T19:42:50.000Z</time>
      </trkpt>
      <trkpt lat="43.2952" lon="-1.73054">
        <ele>39</ele>
        <time>2026-07-12T19:42:52.000Z</time>
      </trkpt>
      <trkpt lat="43.2951" lon="-1.73047">
        <ele>38</ele>
        <time>2026-07-12T19:42:54.000Z</time>
      </trkpt>
      <trkpt lat="43.29475" lon="-1.73022">
        <ele>29</ele>
        <time>2026-07-12T19:43:01.000Z</time>
      </trkpt>
      <trkpt lat="43.29422" lon="-1.72985">
        <ele>23</ele>
        <time>2026-07-12T19:43:12.000Z</time>
      </trkpt>
      <trkpt lat="43.29411" lon="-1.72977">
        <ele>23</ele>
        <time>2026-07-12T19:43:14.000Z</time>
      </trkpt>
      <trkpt lat="43.29396" lon="-1.72966">
        <ele>22</ele>
        <time>2026-07-12T19:43:17.000Z</time>
      </trkpt>
      <trkpt lat="43.29395" lon="-1.72965">
        <ele>22</ele>
        <time>2026-07-12T19:43:17.000Z</time>
      </trkpt>
      <trkpt lat="43.29367" lon="-1.72945">
        <ele>20</ele>
        <time>2026-07-12T19:43:23.000Z</time>
      </trkpt>
      <trkpt lat="43.29322" lon="-1.72913">
        <ele>18</ele>
        <time>2026-07-12T19:43:32.000Z</time>
      </trkpt>
      <trkpt lat="43.29307" lon="-1.72901">
        <ele>22</ele>
        <time>2026-07-12T19:43:35.000Z</time>
      </trkpt>
      <trkpt lat="43.29287" lon="-1.72881">
        <ele>27</ele>
        <time>2026-07-12T19:43:39.000Z</time>
      </trkpt>
      <trkpt lat="43.29286" lon="-1.7288">
        <ele>27</ele>
        <time>2026-07-12T19:43:40.000Z</time>
      </trkpt>
      <trkpt lat="43.29273" lon="-1.72866">
        <ele>31</ele>
        <time>2026-07-12T19:43:43.000Z</time>
      </trkpt>
      <trkpt lat="43.29254" lon="-1.72843">
        <ele>35</ele>
        <time>2026-07-12T19:43:47.000Z</time>
      </trkpt>
      <trkpt lat="43.29231" lon="-1.728">
        <ele>41</ele>
        <time>2026-07-12T19:43:54.000Z</time>
      </trkpt>
      <trkpt lat="43.29222" lon="-1.72783">
        <ele>42</ele>
        <time>2026-07-12T19:43:57.000Z</time>
      </trkpt>
      <trkpt lat="43.29217" lon="-1.72771">
        <ele>43</ele>
        <time>2026-07-12T19:43:59.000Z</time>
      </trkpt>
      <trkpt lat="43.29205" lon="-1.72746">
        <ele>42</ele>
        <time>2026-07-12T19:44:02.000Z</time>
      </trkpt>
      <trkpt lat="43.29194" lon="-1.72716">
        <ele>39</ele>
        <time>2026-07-12T19:44:07.000Z</time>
      </trkpt>
      <trkpt lat="43.29187" lon="-1.72688">
        <ele>38</ele>
        <time>2026-07-12T19:44:11.000Z</time>
      </trkpt>
      <trkpt lat="43.29185" lon="-1.72674">
        <ele>38</ele>
        <time>2026-07-12T19:44:12.000Z</time>
      </trkpt>
      <trkpt lat="43.29183" lon="-1.7266">
        <ele>37</ele>
        <time>2026-07-12T19:44:14.000Z</time>
      </trkpt>
      <trkpt lat="43.2918" lon="-1.72627">
        <ele>35</ele>
        <time>2026-07-12T19:44:19.000Z</time>
      </trkpt>
      <trkpt lat="43.29177" lon="-1.72548">
        <ele>30</ele>
        <time>2026-07-12T19:44:29.000Z</time>
      </trkpt>
      <trkpt lat="43.29175" lon="-1.72473">
        <ele>27</ele>
        <time>2026-07-12T19:44:39.000Z</time>
      </trkpt>
      <trkpt lat="43.29175" lon="-1.7247">
        <ele>27</ele>
        <time>2026-07-12T19:44:39.000Z</time>
      </trkpt>
      <trkpt lat="43.29171" lon="-1.72376">
        <ele>32</ele>
        <time>2026-07-12T19:44:51.000Z</time>
      </trkpt>
      <trkpt lat="43.2917" lon="-1.72323">
        <ele>35</ele>
        <time>2026-07-12T19:44:58.000Z</time>
      </trkpt>
      <trkpt lat="43.2917" lon="-1.72299">
        <ele>34</ele>
        <time>2026-07-12T19:45:01.000Z</time>
      </trkpt>
      <trkpt lat="43.2917" lon="-1.72281">
        <ele>33</ele>
        <time>2026-07-12T19:45:04.000Z</time>
      </trkpt>
      <trkpt lat="43.29172" lon="-1.72247">
        <ele>33</ele>
        <time>2026-07-12T19:45:08.000Z</time>
      </trkpt>
      <trkpt lat="43.29176" lon="-1.72206">
        <ele>34</ele>
        <time>2026-07-12T19:45:13.000Z</time>
      </trkpt>
      <trkpt lat="43.29184" lon="-1.7214">
        <ele>39</ele>
        <time>2026-07-12T19:45:22.000Z</time>
      </trkpt>
      <trkpt lat="43.29185" lon="-1.72116">
        <ele>41</ele>
        <time>2026-07-12T19:45:25.000Z</time>
      </trkpt>
      <trkpt lat="43.29187" lon="-1.72077">
        <ele>44</ele>
        <time>2026-07-12T19:45:30.000Z</time>
      </trkpt>
      <trkpt lat="43.29188" lon="-1.72054">
        <ele>42</ele>
        <time>2026-07-12T19:45:33.000Z</time>
      </trkpt>
      <trkpt lat="43.29187" lon="-1.72028">
        <ele>40</ele>
        <time>2026-07-12T19:45:36.000Z</time>
      </trkpt>
      <trkpt lat="43.29185" lon="-1.72003">
        <ele>37</ele>
        <time>2026-07-12T19:45:40.000Z</time>
      </trkpt>
      <trkpt lat="43.29179" lon="-1.71922">
        <ele>34</ele>
        <time>2026-07-12T19:45:50.000Z</time>
      </trkpt>
      <trkpt lat="43.29172" lon="-1.71857">
        <ele>41</ele>
        <time>2026-07-12T19:45:59.000Z</time>
      </trkpt>
      <trkpt lat="43.2916" lon="-1.71767">
        <ele>50</ele>
        <time>2026-07-12T19:46:11.000Z</time>
      </trkpt>
      <trkpt lat="43.29134" lon="-1.71536">
        <ele>51</ele>
        <time>2026-07-12T19:46:41.000Z</time>
      </trkpt>
      <trkpt lat="43.2913" lon="-1.71504">
        <ele>47</ele>
        <time>2026-07-12T19:46:45.000Z</time>
      </trkpt>
      <trkpt lat="43.29128" lon="-1.71487">
        <ele>47</ele>
        <time>2026-07-12T19:46:47.000Z</time>
      </trkpt>
      <trkpt lat="43.29122" lon="-1.71463">
        <ele>45</ele>
        <time>2026-07-12T19:46:51.000Z</time>
      </trkpt>
      <trkpt lat="43.29118" lon="-1.71446">
        <ele>43</ele>
        <time>2026-07-12T19:46:53.000Z</time>
      </trkpt>
      <trkpt lat="43.29113" lon="-1.7143">
        <ele>41</ele>
        <time>2026-07-12T19:46:55.000Z</time>
      </trkpt>
      <trkpt lat="43.29103" lon="-1.71405">
        <ele>36</ele>
        <time>2026-07-12T19:46:59.000Z</time>
      </trkpt>
      <trkpt lat="43.29099" lon="-1.71398">
        <ele>34</ele>
        <time>2026-07-12T19:47:00.000Z</time>
      </trkpt>
      <trkpt lat="43.29095" lon="-1.71388">
        <ele>31</ele>
        <time>2026-07-12T19:47:02.000Z</time>
      </trkpt>
      <trkpt lat="43.2909" lon="-1.71378">
        <ele>29</ele>
        <time>2026-07-12T19:47:03.000Z</time>
      </trkpt>
      <trkpt lat="43.29082" lon="-1.71363">
        <ele>26</ele>
        <time>2026-07-12T19:47:06.000Z</time>
      </trkpt>
      <trkpt lat="43.29071" lon="-1.71343">
        <ele>31</ele>
        <time>2026-07-12T19:47:09.000Z</time>
      </trkpt>
      <trkpt lat="43.29056" lon="-1.71322">
        <ele>37</ele>
        <time>2026-07-12T19:47:13.000Z</time>
      </trkpt>
      <trkpt lat="43.2904" lon="-1.71303">
        <ele>41</ele>
        <time>2026-07-12T19:47:16.000Z</time>
      </trkpt>
      <trkpt lat="43.29038" lon="-1.713">
        <ele>41</ele>
        <time>2026-07-12T19:47:17.000Z</time>
      </trkpt>
      <trkpt lat="43.29027" lon="-1.71288">
        <ele>43</ele>
        <time>2026-07-12T19:47:19.000Z</time>
      </trkpt>
      <trkpt lat="43.29023" lon="-1.71284">
        <ele>43</ele>
        <time>2026-07-12T19:47:20.000Z</time>
      </trkpt>
      <trkpt lat="43.29014" lon="-1.71277">
        <ele>45</ele>
        <time>2026-07-12T19:47:22.000Z</time>
      </trkpt>
      <trkpt lat="43.29003" lon="-1.71269">
        <ele>46</ele>
        <time>2026-07-12T19:47:24.000Z</time>
      </trkpt>
      <trkpt lat="43.28997" lon="-1.71264">
        <ele>45</ele>
        <time>2026-07-12T19:47:26.000Z</time>
      </trkpt>
      <trkpt lat="43.2898" lon="-1.71254">
        <ele>43</ele>
        <time>2026-07-12T19:47:29.000Z</time>
      </trkpt>
      <trkpt lat="43.28962" lon="-1.71247">
        <ele>42</ele>
        <time>2026-07-12T19:47:32.000Z</time>
      </trkpt>
      <trkpt lat="43.28944" lon="-1.71242">
        <ele>42</ele>
        <time>2026-07-12T19:47:35.000Z</time>
      </trkpt>
      <trkpt lat="43.28928" lon="-1.71239">
        <ele>42</ele>
        <time>2026-07-12T19:47:38.000Z</time>
      </trkpt>
      <trkpt lat="43.28915" lon="-1.71238">
        <ele>42</ele>
        <time>2026-07-12T19:47:41.000Z</time>
      </trkpt>
      <trkpt lat="43.289" lon="-1.71235">
        <ele>38</ele>
        <time>2026-07-12T19:47:43.000Z</time>
      </trkpt>
      <trkpt lat="43.28885" lon="-1.71233">
        <ele>35</ele>
        <time>2026-07-12T19:47:46.000Z</time>
      </trkpt>
      <trkpt lat="43.28884" lon="-1.71233">
        <ele>35</ele>
        <time>2026-07-12T19:47:46.000Z</time>
      </trkpt>
      <trkpt lat="43.28692" lon="-1.71206">
        <ele>39</ele>
        <time>2026-07-12T19:48:21.000Z</time>
      </trkpt>
      <trkpt lat="43.28617" lon="-1.71193">
        <ele>44</ele>
        <time>2026-07-12T19:48:34.000Z</time>
      </trkpt>
      <trkpt lat="43.28565" lon="-1.71187">
        <ele>43</ele>
        <time>2026-07-12T19:48:43.000Z</time>
      </trkpt>
      <trkpt lat="43.28533" lon="-1.71186">
        <ele>38</ele>
        <time>2026-07-12T19:48:49.000Z</time>
      </trkpt>
      <trkpt lat="43.28515" lon="-1.71186">
        <ele>36</ele>
        <time>2026-07-12T19:48:52.000Z</time>
      </trkpt>
      <trkpt lat="43.28513" lon="-1.71186">
        <ele>36</ele>
        <time>2026-07-12T19:48:52.000Z</time>
      </trkpt>
      <trkpt lat="43.28489" lon="-1.71189">
        <ele>34</ele>
        <time>2026-07-12T19:48:57.000Z</time>
      </trkpt>
      <trkpt lat="43.28465" lon="-1.71193">
        <ele>35</ele>
        <time>2026-07-12T19:49:01.000Z</time>
      </trkpt>
      <trkpt lat="43.28454" lon="-1.71194">
        <ele>35</ele>
        <time>2026-07-12T19:49:03.000Z</time>
      </trkpt>
      <trkpt lat="43.28418" lon="-1.71201">
        <ele>36</ele>
        <time>2026-07-12T19:49:10.000Z</time>
      </trkpt>
      <trkpt lat="43.28378" lon="-1.71207">
        <ele>46</ele>
        <time>2026-07-12T19:49:17.000Z</time>
      </trkpt>
      <trkpt lat="43.28378" lon="-1.71207">
        <ele>46</ele>
        <time>2026-07-12T19:49:17.000Z</time>
      </trkpt>
      <trkpt lat="43.28374" lon="-1.7121">
        <ele>46</ele>
        <time>2026-07-12T19:49:17.000Z</time>
      </trkpt>
      <trkpt lat="43.28371" lon="-1.71215">
        <ele>45</ele>
        <time>2026-07-12T19:49:18.000Z</time>
      </trkpt>
      <trkpt lat="43.28364" lon="-1.7122">
        <ele>46</ele>
        <time>2026-07-12T19:49:20.000Z</time>
      </trkpt>
      <trkpt lat="43.28351" lon="-1.71227">
        <ele>47</ele>
        <time>2026-07-12T19:49:22.000Z</time>
      </trkpt>
      <trkpt lat="43.28337" lon="-1.71235">
        <ele>48</ele>
        <time>2026-07-12T19:49:25.000Z</time>
      </trkpt>
      <trkpt lat="43.28325" lon="-1.71241">
        <ele>46</ele>
        <time>2026-07-12T19:49:27.000Z</time>
      </trkpt>
      <trkpt lat="43.28312" lon="-1.71244">
        <ele>45</ele>
        <time>2026-07-12T19:49:30.000Z</time>
      </trkpt>
      <trkpt lat="43.28306" lon="-1.71245">
        <ele>44</ele>
        <time>2026-07-12T19:49:31.000Z</time>
      </trkpt>
      <trkpt lat="43.28299" lon="-1.71247">
        <ele>43</ele>
        <time>2026-07-12T19:49:32.000Z</time>
      </trkpt>
      <trkpt lat="43.28293" lon="-1.71247">
        <ele>43</ele>
        <time>2026-07-12T19:49:33.000Z</time>
      </trkpt>
      <trkpt lat="43.28288" lon="-1.71248">
        <ele>42</ele>
        <time>2026-07-12T19:49:34.000Z</time>
      </trkpt>
      <trkpt lat="43.28274" lon="-1.71247">
        <ele>42</ele>
        <time>2026-07-12T19:49:36.000Z</time>
      </trkpt>
      <trkpt lat="43.28205" lon="-1.71232">
        <ele>37</ele>
        <time>2026-07-12T19:49:49.000Z</time>
      </trkpt>
      <trkpt lat="43.28182" lon="-1.71227">
        <ele>34</ele>
        <time>2026-07-12T19:49:53.000Z</time>
      </trkpt>
      <trkpt lat="43.28176" lon="-1.71226">
        <ele>33</ele>
        <time>2026-07-12T19:49:54.000Z</time>
      </trkpt>
      <trkpt lat="43.2817" lon="-1.71223">
        <ele>33</ele>
        <time>2026-07-12T19:49:55.000Z</time>
      </trkpt>
      <trkpt lat="43.28163" lon="-1.7122">
        <ele>33</ele>
        <time>2026-07-12T19:49:56.000Z</time>
      </trkpt>
      <trkpt lat="43.28163" lon="-1.7122">
        <ele>33</ele>
        <time>2026-07-12T19:49:56.000Z</time>
      </trkpt>
      <trkpt lat="43.28162" lon="-1.71221">
        <ele>32</ele>
        <time>2026-07-12T19:49:57.000Z</time>
      </trkpt>
      <trkpt lat="43.2816" lon="-1.71221">
        <ele>32</ele>
        <time>2026-07-12T19:49:57.000Z</time>
      </trkpt>
      <trkpt lat="43.28157" lon="-1.71221">
        <ele>32</ele>
        <time>2026-07-12T19:49:58.000Z</time>
      </trkpt>
      <trkpt lat="43.28156" lon="-1.7122">
        <ele>33</ele>
        <time>2026-07-12T19:49:58.000Z</time>
      </trkpt>
      <trkpt lat="43.28155" lon="-1.71219">
        <ele>33</ele>
        <time>2026-07-12T19:49:58.000Z</time>
      </trkpt>
      <trkpt lat="43.28154" lon="-1.71218">
        <ele>33</ele>
        <time>2026-07-12T19:49:58.000Z</time>
      </trkpt>
      <trkpt lat="43.28153" lon="-1.71215">
        <ele>33</ele>
        <time>2026-07-12T19:49:59.000Z</time>
      </trkpt>
      <trkpt lat="43.28098" lon="-1.71195">
        <ele>35</ele>
        <time>2026-07-12T19:50:09.000Z</time>
      </trkpt>
      <trkpt lat="43.2802" lon="-1.71162">
        <ele>39</ele>
        <time>2026-07-12T19:50:23.000Z</time>
      </trkpt>
      <trkpt lat="43.27967" lon="-1.7114">
        <ele>41</ele>
        <time>2026-07-12T19:50:33.000Z</time>
      </trkpt>
      <trkpt lat="43.27964" lon="-1.71138">
        <ele>42</ele>
        <time>2026-07-12T19:50:34.000Z</time>
      </trkpt>
      <trkpt lat="43.27961" lon="-1.71136">
        <ele>42</ele>
        <time>2026-07-12T19:50:34.000Z</time>
      </trkpt>
      <trkpt lat="43.27956" lon="-1.71134">
        <ele>42</ele>
        <time>2026-07-12T19:50:35.000Z</time>
      </trkpt>
      <trkpt lat="43.27953" lon="-1.71132">
        <ele>43</ele>
        <time>2026-07-12T19:50:36.000Z</time>
      </trkpt>
      <trkpt lat="43.27951" lon="-1.71131">
        <ele>43</ele>
        <time>2026-07-12T19:50:36.000Z</time>
      </trkpt>
      <trkpt lat="43.2795" lon="-1.71129">
        <ele>43</ele>
        <time>2026-07-12T19:50:37.000Z</time>
      </trkpt>
      <trkpt lat="43.27948" lon="-1.71126">
        <ele>44</ele>
        <time>2026-07-12T19:50:37.000Z</time>
      </trkpt>
      <trkpt lat="43.27947" lon="-1.71125">
        <ele>44</ele>
        <time>2026-07-12T19:50:37.000Z</time>
      </trkpt>
      <trkpt lat="43.27946" lon="-1.71121">
        <ele>45</ele>
        <time>2026-07-12T19:50:38.000Z</time>
      </trkpt>
      <trkpt lat="43.27945" lon="-1.71116">
        <ele>46</ele>
        <time>2026-07-12T19:50:38.000Z</time>
      </trkpt>
      <trkpt lat="43.27945" lon="-1.71116">
        <ele>46</ele>
        <time>2026-07-12T19:50:38.000Z</time>
      </trkpt>
      <trkpt lat="43.27924" lon="-1.711">
        <ele>48</ele>
        <time>2026-07-12T19:50:43.000Z</time>
      </trkpt>
      <trkpt lat="43.27917" lon="-1.71093">
        <ele>49</ele>
        <time>2026-07-12T19:50:44.000Z</time>
      </trkpt>
      <trkpt lat="43.27907" lon="-1.71084">
        <ele>49</ele>
        <time>2026-07-12T19:50:46.000Z</time>
      </trkpt>
      <trkpt lat="43.27894" lon="-1.71068">
        <ele>50</ele>
        <time>2026-07-12T19:50:50.000Z</time>
      </trkpt>
      <trkpt lat="43.27893" lon="-1.71066">
        <ele>50</ele>
        <time>2026-07-12T19:50:50.000Z</time>
      </trkpt>
      <trkpt lat="43.27876" lon="-1.71044">
        <ele>51</ele>
        <time>2026-07-12T19:50:54.000Z</time>
      </trkpt>
      <trkpt lat="43.27869" lon="-1.71034">
        <ele>51</ele>
        <time>2026-07-12T19:50:56.000Z</time>
      </trkpt>
      <trkpt lat="43.27862" lon="-1.7102">
        <ele>51</ele>
        <time>2026-07-12T19:50:58.000Z</time>
      </trkpt>
      <trkpt lat="43.2786" lon="-1.71016">
        <ele>51</ele>
        <time>2026-07-12T19:50:59.000Z</time>
      </trkpt>
      <trkpt lat="43.27836" lon="-1.70964">
        <ele>49</ele>
        <time>2026-07-12T19:51:07.000Z</time>
      </trkpt>
      <trkpt lat="43.27825" lon="-1.70939">
        <ele>49</ele>
        <time>2026-07-12T19:51:10.000Z</time>
      </trkpt>
      <trkpt lat="43.2782" lon="-1.70926">
        <ele>49</ele>
        <time>2026-07-12T19:51:12.000Z</time>
      </trkpt>
      <trkpt lat="43.2782" lon="-1.70926">
        <ele>49</ele>
        <time>2026-07-12T19:51:12.000Z</time>
      </trkpt>
      <trkpt lat="43.27819" lon="-1.7091">
        <ele>49</ele>
        <time>2026-07-12T19:51:14.000Z</time>
      </trkpt>
      <trkpt lat="43.27818" lon="-1.70898">
        <ele>50</ele>
        <time>2026-07-12T19:51:16.000Z</time>
      </trkpt>
      <trkpt lat="43.27815" lon="-1.70888">
        <ele>50</ele>
        <time>2026-07-12T19:51:17.000Z</time>
      </trkpt>
      <trkpt lat="43.27814" lon="-1.7088">
        <ele>50</ele>
        <time>2026-07-12T19:51:18.000Z</time>
      </trkpt>
      <trkpt lat="43.27807" lon="-1.70864">
        <ele>49</ele>
        <time>2026-07-12T19:51:21.000Z</time>
      </trkpt>
      <trkpt lat="43.27801" lon="-1.70847">
        <ele>49</ele>
        <time>2026-07-12T19:51:23.000Z</time>
      </trkpt>
      <trkpt lat="43.27795" lon="-1.70833">
        <ele>48</ele>
        <time>2026-07-12T19:51:25.000Z</time>
      </trkpt>
      <trkpt lat="43.27789" lon="-1.70819">
        <ele>49</ele>
        <time>2026-07-12T19:51:27.000Z</time>
      </trkpt>
      <trkpt lat="43.27784" lon="-1.70809">
        <ele>48</ele>
        <time>2026-07-12T19:51:29.000Z</time>
      </trkpt>
      <trkpt lat="43.27779" lon="-1.70797">
        <ele>48</ele>
        <time>2026-07-12T19:51:31.000Z</time>
      </trkpt>
      <trkpt lat="43.27773" lon="-1.70785">
        <ele>48</ele>
        <time>2026-07-12T19:51:33.000Z</time>
      </trkpt>
      <trkpt lat="43.27768" lon="-1.70779">
        <ele>47</ele>
        <time>2026-07-12T19:51:34.000Z</time>
      </trkpt>
      <trkpt lat="43.27768" lon="-1.70779">
        <ele>47</ele>
        <time>2026-07-12T19:51:34.000Z</time>
      </trkpt>
      <trkpt lat="43.27767" lon="-1.7077">
        <ele>48</ele>
        <time>2026-07-12T19:51:35.000Z</time>
      </trkpt>
      <trkpt lat="43.27764" lon="-1.70753">
        <ele>48</ele>
        <time>2026-07-12T19:51:37.000Z</time>
      </trkpt>
      <trkpt lat="43.27749" lon="-1.70621">
        <ele>47</ele>
        <time>2026-07-12T19:51:55.000Z</time>
      </trkpt>
      <trkpt lat="43.27745" lon="-1.70601">
        <ele>46</ele>
        <time>2026-07-12T19:51:57.000Z</time>
      </trkpt>
      <trkpt lat="43.27742" lon="-1.70585">
        <ele>46</ele>
        <time>2026-07-12T19:51:59.000Z</time>
      </trkpt>
      <trkpt lat="43.27738" lon="-1.70566">
        <ele>45</ele>
        <time>2026-07-12T19:52:02.000Z</time>
      </trkpt>
      <trkpt lat="43.27732" lon="-1.70546">
        <ele>45</ele>
        <time>2026-07-12T19:52:05.000Z</time>
      </trkpt>
      <trkpt lat="43.27728" lon="-1.7053">
        <ele>44</ele>
        <time>2026-07-12T19:52:07.000Z</time>
      </trkpt>
      <trkpt lat="43.27725" lon="-1.70519">
        <ele>44</ele>
        <time>2026-07-12T19:52:09.000Z</time>
      </trkpt>
      <trkpt lat="43.27721" lon="-1.70507">
        <ele>44</ele>
        <time>2026-07-12T19:52:10.000Z</time>
      </trkpt>
      <trkpt lat="43.27715" lon="-1.70495">
        <ele>43</ele>
        <time>2026-07-12T19:52:12.000Z</time>
      </trkpt>
      <trkpt lat="43.27715" lon="-1.70493">
        <ele>43</ele>
        <time>2026-07-12T19:52:12.000Z</time>
      </trkpt>
      <trkpt lat="43.27709" lon="-1.70482">
        <ele>43</ele>
        <time>2026-07-12T19:52:14.000Z</time>
      </trkpt>
      <trkpt lat="43.27701" lon="-1.70467">
        <ele>42</ele>
        <time>2026-07-12T19:52:17.000Z</time>
      </trkpt>
      <trkpt lat="43.27695" lon="-1.70457">
        <ele>41</ele>
        <time>2026-07-12T19:52:18.000Z</time>
      </trkpt>
      <trkpt lat="43.27689" lon="-1.70448">
        <ele>41</ele>
        <time>2026-07-12T19:52:20.000Z</time>
      </trkpt>
      <trkpt lat="43.27682" lon="-1.70436">
        <ele>40</ele>
        <time>2026-07-12T19:52:22.000Z</time>
      </trkpt>
      <trkpt lat="43.27681" lon="-1.70435">
        <ele>40</ele>
        <time>2026-07-12T19:52:22.000Z</time>
      </trkpt>
      <trkpt lat="43.2765" lon="-1.70397">
        <ele>38</ele>
        <time>2026-07-12T19:52:29.000Z</time>
      </trkpt>
      <trkpt lat="43.2765" lon="-1.70397">
        <ele>38</ele>
        <time>2026-07-12T19:52:29.000Z</time>
      </trkpt>
      <trkpt lat="43.27644" lon="-1.70396">
        <ele>37</ele>
        <time>2026-07-12T19:52:31.000Z</time>
      </trkpt>
      <trkpt lat="43.27643" lon="-1.70395">
        <ele>37</ele>
        <time>2026-07-12T19:52:31.000Z</time>
      </trkpt>
      <trkpt lat="43.27642" lon="-1.70394">
        <ele>37</ele>
        <time>2026-07-12T19:52:31.000Z</time>
      </trkpt>
      <trkpt lat="43.27639" lon="-1.70391">
        <ele>37</ele>
        <time>2026-07-12T19:52:32.000Z</time>
      </trkpt>
      <trkpt lat="43.27634" lon="-1.70386">
        <ele>36</ele>
        <time>2026-07-12T19:52:33.000Z</time>
      </trkpt>
      <trkpt lat="43.27628" lon="-1.70378">
        <ele>36</ele>
        <time>2026-07-12T19:52:34.000Z</time>
      </trkpt>
      <trkpt lat="43.27612" lon="-1.70357">
        <ele>35</ele>
        <time>2026-07-12T19:52:38.000Z</time>
      </trkpt>
      <trkpt lat="43.27603" lon="-1.70344">
        <ele>34</ele>
        <time>2026-07-12T19:52:40.000Z</time>
      </trkpt>
      <trkpt lat="43.27595" lon="-1.70329">
        <ele>33</ele>
        <time>2026-07-12T19:52:43.000Z</time>
      </trkpt>
      <trkpt lat="43.27589" lon="-1.70317">
        <ele>32</ele>
        <time>2026-07-12T19:52:45.000Z</time>
      </trkpt>
      <trkpt lat="43.27584" lon="-1.70306">
        <ele>31</ele>
        <time>2026-07-12T19:52:46.000Z</time>
      </trkpt>
      <trkpt lat="43.27584" lon="-1.70306">
        <ele>31</ele>
        <time>2026-07-12T19:52:46.000Z</time>
      </trkpt>
      <trkpt lat="43.2758" lon="-1.70299">
        <ele>31</ele>
        <time>2026-07-12T19:52:48.000Z</time>
      </trkpt>
      <trkpt lat="43.27576" lon="-1.70288">
        <ele>31</ele>
        <time>2026-07-12T19:52:49.000Z</time>
      </trkpt>
      <trkpt lat="43.27573" lon="-1.70278">
        <ele>31</ele>
        <time>2026-07-12T19:52:51.000Z</time>
      </trkpt>
      <trkpt lat="43.27571" lon="-1.70269">
        <ele>31</ele>
        <time>2026-07-12T19:52:52.000Z</time>
      </trkpt>
      <trkpt lat="43.2757" lon="-1.7026">
        <ele>31</ele>
        <time>2026-07-12T19:52:53.000Z</time>
      </trkpt>
      <trkpt lat="43.27568" lon="-1.70244">
        <ele>31</ele>
        <time>2026-07-12T19:52:55.000Z</time>
      </trkpt>
      <trkpt lat="43.27568" lon="-1.70244">
        <ele>31</ele>
        <time>2026-07-12T19:52:55.000Z</time>
      </trkpt>
      <trkpt lat="43.27552" lon="-1.70246">
        <ele>32</ele>
        <time>2026-07-12T19:52:58.000Z</time>
      </trkpt>
      <trkpt lat="43.27505" lon="-1.70245">
        <ele>34</ele>
        <time>2026-07-12T19:53:06.000Z</time>
      </trkpt>
      <trkpt lat="43.27499" lon="-1.70247">
        <ele>35</ele>
        <time>2026-07-12T19:53:07.000Z</time>
      </trkpt>
      <trkpt lat="43.27495" lon="-1.70248">
        <ele>36</ele>
        <time>2026-07-12T19:53:08.000Z</time>
      </trkpt>
      <trkpt lat="43.27492" lon="-1.70253">
        <ele>37</ele>
        <time>2026-07-12T19:53:09.000Z</time>
      </trkpt>
      <trkpt lat="43.27477" lon="-1.70248">
        <ele>44</ele>
        <time>2026-07-12T19:53:12.000Z</time>
      </trkpt>
      <trkpt lat="43.27477" lon="-1.70248">
        <ele>44</ele>
        <time>2026-07-12T19:53:12.000Z</time>
      </trkpt>
      <trkpt lat="43.27478" lon="-1.70241">
        <ele>45</ele>
        <time>2026-07-12T19:53:13.000Z</time>
      </trkpt>
      <trkpt lat="43.27481" lon="-1.70208">
        <ele>47</ele>
        <time>2026-07-12T19:53:17.000Z</time>
      </trkpt>
      <trkpt lat="43.27485" lon="-1.70167">
        <ele>49</ele>
        <time>2026-07-12T19:53:22.000Z</time>
      </trkpt>
      <trkpt lat="43.27494" lon="-1.70083">
        <ele>50</ele>
        <time>2026-07-12T19:53:33.000Z</time>
      </trkpt>
      <trkpt lat="43.27497" lon="-1.70045">
        <ele>47</ele>
        <time>2026-07-12T19:53:38.000Z</time>
      </trkpt>
      <trkpt lat="43.27497" lon="-1.70013">
        <ele>47</ele>
        <time>2026-07-12T19:53:42.000Z</time>
      </trkpt>
      <trkpt lat="43.27497" lon="-1.69987">
        <ele>47</ele>
        <time>2026-07-12T19:53:46.000Z</time>
      </trkpt>
      <trkpt lat="43.27497" lon="-1.6992">
        <ele>49</ele>
        <time>2026-07-12T19:53:54.000Z</time>
      </trkpt>
      <trkpt lat="43.27501" lon="-1.69813">
        <ele>52</ele>
        <time>2026-07-12T19:54:08.000Z</time>
      </trkpt>
      <trkpt lat="43.27504" lon="-1.69795">
        <ele>53</ele>
        <time>2026-07-12T19:54:11.000Z</time>
      </trkpt>
      <trkpt lat="43.27508" lon="-1.69782">
        <ele>53</ele>
        <time>2026-07-12T19:54:13.000Z</time>
      </trkpt>
      <trkpt lat="43.27525" lon="-1.69725">
        <ele>50</ele>
        <time>2026-07-12T19:54:21.000Z</time>
      </trkpt>
      <trkpt lat="43.27545" lon="-1.69652">
        <ele>46</ele>
        <time>2026-07-12T19:54:31.000Z</time>
      </trkpt>
      <trkpt lat="43.2755" lon="-1.69638">
        <ele>45</ele>
        <time>2026-07-12T19:54:33.000Z</time>
      </trkpt>
      <trkpt lat="43.27555" lon="-1.69625">
        <ele>44</ele>
        <time>2026-07-12T19:54:35.000Z</time>
      </trkpt>
      <trkpt lat="43.27561" lon="-1.69615">
        <ele>43</ele>
        <time>2026-07-12T19:54:36.000Z</time>
      </trkpt>
      <trkpt lat="43.27571" lon="-1.69601">
        <ele>40</ele>
        <time>2026-07-12T19:54:39.000Z</time>
      </trkpt>
      <trkpt lat="43.27575" lon="-1.69595">
        <ele>39</ele>
        <time>2026-07-12T19:54:40.000Z</time>
      </trkpt>
      <trkpt lat="43.27601" lon="-1.69561">
        <ele>38</ele>
        <time>2026-07-12T19:54:46.000Z</time>
      </trkpt>
      <trkpt lat="43.27617" lon="-1.69542">
        <ele>39</ele>
        <time>2026-07-12T19:54:50.000Z</time>
      </trkpt>
      <trkpt lat="43.27633" lon="-1.69527">
        <ele>38</ele>
        <time>2026-07-12T19:54:53.000Z</time>
      </trkpt>
      <trkpt lat="43.27647" lon="-1.69515">
        <ele>38</ele>
        <time>2026-07-12T19:54:56.000Z</time>
      </trkpt>
      <trkpt lat="43.27676" lon="-1.69491">
        <ele>38</ele>
        <time>2026-07-12T19:55:02.000Z</time>
      </trkpt>
      <trkpt lat="43.27737" lon="-1.69444">
        <ele>38</ele>
        <time>2026-07-12T19:55:15.000Z</time>
      </trkpt>
      <trkpt lat="43.27737" lon="-1.69444">
        <ele>38</ele>
        <time>2026-07-12T19:55:15.000Z</time>
      </trkpt>
      <trkpt lat="43.27762" lon="-1.69425">
        <ele>37</ele>
        <time>2026-07-12T19:55:20.000Z</time>
      </trkpt>
      <trkpt lat="43.2778" lon="-1.69411">
        <ele>38</ele>
        <time>2026-07-12T19:55:24.000Z</time>
      </trkpt>
      <trkpt lat="43.27792" lon="-1.69401">
        <ele>39</ele>
        <time>2026-07-12T19:55:26.000Z</time>
      </trkpt>
      <trkpt lat="43.27809" lon="-1.69384">
        <ele>40</ele>
        <time>2026-07-12T19:55:30.000Z</time>
      </trkpt>
      <trkpt lat="43.27825" lon="-1.69363">
        <ele>40</ele>
        <time>2026-07-12T19:55:34.000Z</time>
      </trkpt>
      <trkpt lat="43.2783" lon="-1.69351">
        <ele>40</ele>
        <time>2026-07-12T19:55:36.000Z</time>
      </trkpt>
      <trkpt lat="43.2784" lon="-1.69328">
        <ele>41</ele>
        <time>2026-07-12T19:55:39.000Z</time>
      </trkpt>
      <trkpt lat="43.27848" lon="-1.69302">
        <ele>41</ele>
        <time>2026-07-12T19:55:43.000Z</time>
      </trkpt>
      <trkpt lat="43.27851" lon="-1.69279">
        <ele>40</ele>
        <time>2026-07-12T19:55:46.000Z</time>
      </trkpt>
      <trkpt lat="43.27853" lon="-1.69249">
        <ele>40</ele>
        <time>2026-07-12T19:55:50.000Z</time>
      </trkpt>
      <trkpt lat="43.27853" lon="-1.69236">
        <ele>40</ele>
        <time>2026-07-12T19:55:51.000Z</time>
      </trkpt>
      <trkpt lat="43.27852" lon="-1.69227">
        <ele>40</ele>
        <time>2026-07-12T19:55:53.000Z</time>
      </trkpt>
      <trkpt lat="43.2785" lon="-1.69209">
        <ele>40</ele>
        <time>2026-07-12T19:55:55.000Z</time>
      </trkpt>
      <trkpt lat="43.27837" lon="-1.69152">
        <ele>41</ele>
        <time>2026-07-12T19:56:03.000Z</time>
      </trkpt>
      <trkpt lat="43.27816" lon="-1.69121">
        <ele>41</ele>
        <time>2026-07-12T19:56:08.000Z</time>
      </trkpt>
      <trkpt lat="43.27816" lon="-1.69121">
        <ele>41</ele>
        <time>2026-07-12T19:56:08.000Z</time>
      </trkpt>
      <trkpt lat="43.27819" lon="-1.69108">
        <ele>41</ele>
        <time>2026-07-12T19:56:10.000Z</time>
      </trkpt>
      <trkpt lat="43.2782" lon="-1.69102">
        <ele>41</ele>
        <time>2026-07-12T19:56:11.000Z</time>
      </trkpt>
      <trkpt lat="43.2782" lon="-1.69095">
        <ele>40</ele>
        <time>2026-07-12T19:56:12.000Z</time>
      </trkpt>
      <trkpt lat="43.2782" lon="-1.6909">
        <ele>40</ele>
        <time>2026-07-12T19:56:12.000Z</time>
      </trkpt>
      <trkpt lat="43.27819" lon="-1.69087">
        <ele>40</ele>
        <time>2026-07-12T19:56:13.000Z</time>
      </trkpt>
      <trkpt lat="43.27818" lon="-1.69084">
        <ele>40</ele>
        <time>2026-07-12T19:56:13.000Z</time>
      </trkpt>
      <trkpt lat="43.27815" lon="-1.69079">
        <ele>40</ele>
        <time>2026-07-12T19:56:14.000Z</time>
      </trkpt>
      <trkpt lat="43.27811" lon="-1.69076">
        <ele>40</ele>
        <time>2026-07-12T19:56:15.000Z</time>
      </trkpt>
      <trkpt lat="43.27808" lon="-1.69074">
        <ele>40</ele>
        <time>2026-07-12T19:56:15.000Z</time>
      </trkpt>
      <trkpt lat="43.27805" lon="-1.69072">
        <ele>40</ele>
        <time>2026-07-12T19:56:16.000Z</time>
      </trkpt>
      <trkpt lat="43.27799" lon="-1.69069">
        <ele>40</ele>
        <time>2026-07-12T19:56:17.000Z</time>
      </trkpt>
      <trkpt lat="43.27777" lon="-1.6906">
        <ele>39</ele>
        <time>2026-07-12T19:56:21.000Z</time>
      </trkpt>
      <trkpt lat="43.27764" lon="-1.69055">
        <ele>39</ele>
        <time>2026-07-12T19:56:24.000Z</time>
      </trkpt>
      <trkpt lat="43.27755" lon="-1.69053">
        <ele>39</ele>
        <time>2026-07-12T19:56:25.000Z</time>
      </trkpt>
      <trkpt lat="43.27749" lon="-1.69052">
        <ele>39</ele>
        <time>2026-07-12T19:56:26.000Z</time>
      </trkpt>
      <trkpt lat="43.27737" lon="-1.69051">
        <ele>40</ele>
        <time>2026-07-12T19:56:28.000Z</time>
      </trkpt>
      <trkpt lat="43.27723" lon="-1.69052">
        <ele>40</ele>
        <time>2026-07-12T19:56:31.000Z</time>
      </trkpt>
      <trkpt lat="43.27715" lon="-1.69053">
        <ele>41</ele>
        <time>2026-07-12T19:56:32.000Z</time>
      </trkpt>
      <trkpt lat="43.27715" lon="-1.69053">
        <ele>41</ele>
        <time>2026-07-12T19:56:32.000Z</time>
      </trkpt>
      <trkpt lat="43.27719" lon="-1.69023">
        <ele>38</ele>
        <time>2026-07-12T19:56:36.000Z</time>
      </trkpt>
      <trkpt lat="43.27723" lon="-1.68979">
        <ele>36</ele>
        <time>2026-07-12T19:56:42.000Z</time>
      </trkpt>
      <trkpt lat="43.27723" lon="-1.68978">
        <ele>36</ele>
        <time>2026-07-12T19:56:42.000Z</time>
      </trkpt>
      <trkpt lat="43.27723" lon="-1.68977">
        <ele>36</ele>
        <time>2026-07-12T19:56:42.000Z</time>
      </trkpt>
      <trkpt lat="43.27723" lon="-1.68976">
        <ele>36</ele>
        <time>2026-07-12T19:56:42.000Z</time>
      </trkpt>
      <trkpt lat="43.27724" lon="-1.68975">
        <ele>36</ele>
        <time>2026-07-12T19:56:43.000Z</time>
      </trkpt>
      <trkpt lat="43.27724" lon="-1.68975">
        <ele>36</ele>
        <time>2026-07-12T19:56:43.000Z</time>
      </trkpt>
      <trkpt lat="43.27725" lon="-1.68974">
        <ele>36</ele>
        <time>2026-07-12T19:56:43.000Z</time>
      </trkpt>
      <trkpt lat="43.27728" lon="-1.68973">
        <ele>36</ele>
        <time>2026-07-12T19:56:43.000Z</time>
      </trkpt>
      <trkpt lat="43.2773" lon="-1.68973">
        <ele>36</ele>
        <time>2026-07-12T19:56:44.000Z</time>
      </trkpt>
      <trkpt lat="43.27738" lon="-1.68976">
        <ele>36</ele>
        <time>2026-07-12T19:56:45.000Z</time>
      </trkpt>
      <trkpt lat="43.27745" lon="-1.68978">
        <ele>36</ele>
        <time>2026-07-12T19:56:46.000Z</time>
      </trkpt>
      <trkpt lat="43.27749" lon="-1.68979">
        <ele>36</ele>
        <time>2026-07-12T19:56:47.000Z</time>
      </trkpt>
      <trkpt lat="43.27751" lon="-1.68978">
        <ele>36</ele>
        <time>2026-07-12T19:56:48.000Z</time>
      </trkpt>
      <trkpt lat="43.27753" lon="-1.68977">
        <ele>36</ele>
        <time>2026-07-12T19:56:48.000Z</time>
      </trkpt>
      <trkpt lat="43.27755" lon="-1.68975">
        <ele>36</ele>
        <time>2026-07-12T19:56:48.000Z</time>
      </trkpt>
      <trkpt lat="43.27756" lon="-1.68973">
        <ele>36</ele>
        <time>2026-07-12T19:56:49.000Z</time>
      </trkpt>
      <trkpt lat="43.27762" lon="-1.68932">
        <ele>37</ele>
        <time>2026-07-12T19:56:54.000Z</time>
      </trkpt>
      <trkpt lat="43.27764" lon="-1.6892">
        <ele>37</ele>
        <time>2026-07-12T19:56:56.000Z</time>
      </trkpt>
      <trkpt lat="43.27765" lon="-1.68913">
        <ele>37</ele>
        <time>2026-07-12T19:56:57.000Z</time>
      </trkpt>
      <trkpt lat="43.27765" lon="-1.68899">
        <ele>37</ele>
        <time>2026-07-12T19:56:58.000Z</time>
      </trkpt>
      <trkpt lat="43.27765" lon="-1.68889">
        <ele>37</ele>
        <time>2026-07-12T19:57:00.000Z</time>
      </trkpt>
      <trkpt lat="43.27767" lon="-1.68878">
        <ele>37</ele>
        <time>2026-07-12T19:57:01.000Z</time>
      </trkpt>
      <trkpt lat="43.27768" lon="-1.68866">
        <ele>37</ele>
        <time>2026-07-12T19:57:03.000Z</time>
      </trkpt>
      <trkpt lat="43.27768" lon="-1.68866">
        <ele>37</ele>
        <time>2026-07-12T19:57:03.000Z</time>
      </trkpt>
      <trkpt lat="43.27842" lon="-1.68877">
        <ele>36</ele>
        <time>2026-07-12T19:57:16.000Z</time>
      </trkpt>
      <trkpt lat="43.27856" lon="-1.68878">
        <ele>36</ele>
        <time>2026-07-12T19:57:19.000Z</time>
      </trkpt>
      <trkpt lat="43.27861" lon="-1.68878">
        <ele>36</ele>
        <time>2026-07-12T19:57:19.000Z</time>
      </trkpt>
      <trkpt lat="43.27865" lon="-1.68878">
        <ele>36</ele>
        <time>2026-07-12T19:57:20.000Z</time>
      </trkpt>
      <trkpt lat="43.27869" lon="-1.68878">
        <ele>36</ele>
        <time>2026-07-12T19:57:21.000Z</time>
      </trkpt>
      <trkpt lat="43.27872" lon="-1.68877">
        <ele>36</ele>
        <time>2026-07-12T19:57:21.000Z</time>
      </trkpt>
      <trkpt lat="43.27876" lon="-1.68877">
        <ele>35</ele>
        <time>2026-07-12T19:57:22.000Z</time>
      </trkpt>
      <trkpt lat="43.2788" lon="-1.68877">
        <ele>35</ele>
        <time>2026-07-12T19:57:23.000Z</time>
      </trkpt>
      <trkpt lat="43.27884" lon="-1.68876">
        <ele>35</ele>
        <time>2026-07-12T19:57:24.000Z</time>
      </trkpt>
      <trkpt lat="43.27886" lon="-1.68875">
        <ele>36</ele>
        <time>2026-07-12T19:57:24.000Z</time>
      </trkpt>
      <trkpt lat="43.27892" lon="-1.68872">
        <ele>36</ele>
        <time>2026-07-12T19:57:25.000Z</time>
      </trkpt>
      <trkpt lat="43.27897" lon="-1.6887">
        <ele>36</ele>
        <time>2026-07-12T19:57:26.000Z</time>
      </trkpt>
      <trkpt lat="43.27907" lon="-1.68863">
        <ele>36</ele>
        <time>2026-07-12T19:57:28.000Z</time>
      </trkpt>
      <trkpt lat="43.27915" lon="-1.68859">
        <ele>36</ele>
        <time>2026-07-12T19:57:30.000Z</time>
      </trkpt>
      <trkpt lat="43.27918" lon="-1.68857">
        <ele>36</ele>
        <time>2026-07-12T19:57:30.000Z</time>
      </trkpt>
      <trkpt lat="43.27921" lon="-1.68855">
        <ele>36</ele>
        <time>2026-07-12T19:57:31.000Z</time>
      </trkpt>
      <trkpt lat="43.27923" lon="-1.68854">
        <ele>36</ele>
        <time>2026-07-12T19:57:31.000Z</time>
      </trkpt>
      <trkpt lat="43.27934" lon="-1.68848">
        <ele>36</ele>
        <time>2026-07-12T19:57:33.000Z</time>
      </trkpt>
      <trkpt lat="43.27956" lon="-1.68834">
        <ele>36</ele>
        <time>2026-07-12T19:57:37.000Z</time>
      </trkpt>
      <trkpt lat="43.27959" lon="-1.68833">
        <ele>36</ele>
        <time>2026-07-12T19:57:38.000Z</time>
      </trkpt>
      <trkpt lat="43.27964" lon="-1.6883">
        <ele>36</ele>
        <time>2026-07-12T19:57:39.000Z</time>
      </trkpt>
      <trkpt lat="43.27985" lon="-1.68817">
        <ele>37</ele>
        <time>2026-07-12T19:57:43.000Z</time>
      </trkpt>
      <trkpt lat="43.27996" lon="-1.68809">
        <ele>37</ele>
        <time>2026-07-12T19:57:45.000Z</time>
      </trkpt>
      <trkpt lat="43.27996" lon="-1.68809">
        <ele>37</ele>
        <time>2026-07-12T19:57:45.000Z</time>
      </trkpt>
      <trkpt lat="43.27994" lon="-1.68782">
        <ele>38</ele>
        <time>2026-07-12T19:57:49.000Z</time>
      </trkpt>
      <trkpt lat="43.27994" lon="-1.6877">
        <ele>38</ele>
        <time>2026-07-12T19:57:50.000Z</time>
      </trkpt>
      <trkpt lat="43.27995" lon="-1.6876">
        <ele>39</ele>
        <time>2026-07-12T19:57:52.000Z</time>
      </trkpt>
      <trkpt lat="43.27997" lon="-1.6874">
        <ele>40</ele>
        <time>2026-07-12T19:57:54.000Z</time>
      </trkpt>
      <trkpt lat="43.27998" lon="-1.68733">
        <ele>40</ele>
        <time>2026-07-12T19:57:55.000Z</time>
      </trkpt>
      <trkpt lat="43.27998" lon="-1.68727">
        <ele>40</ele>
        <time>2026-07-12T19:57:56.000Z</time>
      </trkpt>
      <trkpt lat="43.27999" lon="-1.68725">
        <ele>40</ele>
        <time>2026-07-12T19:57:56.000Z</time>
      </trkpt>
      <trkpt lat="43.28005" lon="-1.68671">
        <ele>44</ele>
        <time>2026-07-12T19:58:03.000Z</time>
      </trkpt>
      <trkpt lat="43.28007" lon="-1.68661">
        <ele>44</ele>
        <time>2026-07-12T19:58:05.000Z</time>
      </trkpt>
      <trkpt lat="43.28009" lon="-1.68652">
        <ele>44</ele>
        <time>2026-07-12T19:58:06.000Z</time>
      </trkpt>
      <trkpt lat="43.2801" lon="-1.68644">
        <ele>44</ele>
        <time>2026-07-12T19:58:07.000Z</time>
      </trkpt>
      <trkpt lat="43.28011" lon="-1.68635">
        <ele>44</ele>
        <time>2026-07-12T19:58:08.000Z</time>
      </trkpt>
      <trkpt lat="43.28012" lon="-1.68627">
        <ele>44</ele>
        <time>2026-07-12T19:58:09.000Z</time>
      </trkpt>
      <trkpt lat="43.28013" lon="-1.68618">
        <ele>44</ele>
        <time>2026-07-12T19:58:10.000Z</time>
      </trkpt>
      <trkpt lat="43.28014" lon="-1.68608">
        <ele>44</ele>
        <time>2026-07-12T19:58:12.000Z</time>
      </trkpt>
      <trkpt lat="43.28016" lon="-1.68597">
        <ele>44</ele>
        <time>2026-07-12T19:58:13.000Z</time>
      </trkpt>
      <trkpt lat="43.28018" lon="-1.68586">
        <ele>44</ele>
        <time>2026-07-12T19:58:15.000Z</time>
      </trkpt>
      <trkpt lat="43.2802" lon="-1.68575">
        <ele>44</ele>
        <time>2026-07-12T19:58:16.000Z</time>
      </trkpt>
      <trkpt lat="43.28021" lon="-1.68564">
        <ele>44</ele>
        <time>2026-07-12T19:58:18.000Z</time>
      </trkpt>
      <trkpt lat="43.28022" lon="-1.68556">
        <ele>45</ele>
        <time>2026-07-12T19:58:19.000Z</time>
      </trkpt>
      <trkpt lat="43.28023" lon="-1.68547">
        <ele>45</ele>
        <time>2026-07-12T19:58:20.000Z</time>
      </trkpt>
      <trkpt lat="43.28025" lon="-1.68538">
        <ele>45</ele>
        <time>2026-07-12T19:58:21.000Z</time>
      </trkpt>
      <trkpt lat="43.28026" lon="-1.68531">
        <ele>45</ele>
        <time>2026-07-12T19:58:22.000Z</time>
      </trkpt>
      <trkpt lat="43.28029" lon="-1.68478">
        <ele>46</ele>
        <time>2026-07-12T19:58:29.000Z</time>
      </trkpt>
      <trkpt lat="43.28034" lon="-1.6843">
        <ele>47</ele>
        <time>2026-07-12T19:58:35.000Z</time>
      </trkpt>
      <trkpt lat="43.28034" lon="-1.68427">
        <ele>47</ele>
        <time>2026-07-12T19:58:36.000Z</time>
      </trkpt>
      <trkpt lat="43.28035" lon="-1.68421">
        <ele>47</ele>
        <time>2026-07-12T19:58:36.000Z</time>
      </trkpt>
      <trkpt lat="43.28034" lon="-1.6841">
        <ele>47</ele>
        <time>2026-07-12T19:58:38.000Z</time>
      </trkpt>
      <trkpt lat="43.28032" lon="-1.68386">
        <ele>47</ele>
        <time>2026-07-12T19:58:41.000Z</time>
      </trkpt>
      <trkpt lat="43.2803" lon="-1.68369">
        <ele>47</ele>
        <time>2026-07-12T19:58:43.000Z</time>
      </trkpt>
      <trkpt lat="43.28029" lon="-1.68361">
        <ele>47</ele>
        <time>2026-07-12T19:58:44.000Z</time>
      </trkpt>
      <trkpt lat="43.2803" lon="-1.68351">
        <ele>47</ele>
        <time>2026-07-12T19:58:45.000Z</time>
      </trkpt>
      <trkpt lat="43.28031" lon="-1.6834">
        <ele>47</ele>
        <time>2026-07-12T19:58:47.000Z</time>
      </trkpt>
      <trkpt lat="43.28036" lon="-1.68323">
        <ele>46</ele>
        <time>2026-07-12T19:58:49.000Z</time>
      </trkpt>
      <trkpt lat="43.28061" lon="-1.68243">
        <ele>42</ele>
        <time>2026-07-12T19:59:01.000Z</time>
      </trkpt>
      <trkpt lat="43.2806" lon="-1.68242">
        <ele>43</ele>
        <time>2026-07-12T19:59:01.000Z</time>
      </trkpt>
      <trkpt lat="43.2806" lon="-1.68241">
        <ele>43</ele>
        <time>2026-07-12T19:59:01.000Z</time>
      </trkpt>
      <trkpt lat="43.28059" lon="-1.68241">
        <ele>43</ele>
        <time>2026-07-12T19:59:01.000Z</time>
      </trkpt>
      <trkpt lat="43.28059" lon="-1.6824">
        <ele>43</ele>
        <time>2026-07-12T19:59:01.000Z</time>
      </trkpt>
      <trkpt lat="43.28059" lon="-1.68239">
        <ele>43</ele>
        <time>2026-07-12T19:59:01.000Z</time>
      </trkpt>
      <trkpt lat="43.28058" lon="-1.68239">
        <ele>43</ele>
        <time>2026-07-12T19:59:02.000Z</time>
      </trkpt>
      <trkpt lat="43.28058" lon="-1.68238">
        <ele>43</ele>
        <time>2026-07-12T19:59:02.000Z</time>
      </trkpt>
      <trkpt lat="43.28058" lon="-1.68237">
        <ele>43</ele>
        <time>2026-07-12T19:59:02.000Z</time>
      </trkpt>
      <trkpt lat="43.28058" lon="-1.68236">
        <ele>43</ele>
        <time>2026-07-12T19:59:02.000Z</time>
      </trkpt>
      <trkpt lat="43.28058" lon="-1.68235">
        <ele>43</ele>
        <time>2026-07-12T19:59:02.000Z</time>
      </trkpt>
      <trkpt lat="43.28058" lon="-1.68234">
        <ele>43</ele>
        <time>2026-07-12T19:59:02.000Z</time>
      </trkpt>
      <trkpt lat="43.28059" lon="-1.68234">
        <ele>43</ele>
        <time>2026-07-12T19:59:02.000Z</time>
      </trkpt>
      <trkpt lat="43.28059" lon="-1.68233">
        <ele>43</ele>
        <time>2026-07-12T19:59:02.000Z</time>
      </trkpt>
      <trkpt lat="43.28059" lon="-1.68232">
        <ele>43</ele>
        <time>2026-07-12T19:59:03.000Z</time>
      </trkpt>
      <trkpt lat="43.28059" lon="-1.68231">
        <ele>43</ele>
        <time>2026-07-12T19:59:03.000Z</time>
      </trkpt>
      <trkpt lat="43.2806" lon="-1.68231">
        <ele>43</ele>
        <time>2026-07-12T19:59:03.000Z</time>
      </trkpt>
      <trkpt lat="43.2806" lon="-1.6823">
        <ele>43</ele>
        <time>2026-07-12T19:59:03.000Z</time>
      </trkpt>
      <trkpt lat="43.28061" lon="-1.6823">
        <ele>43</ele>
        <time>2026-07-12T19:59:03.000Z</time>
      </trkpt>
      <trkpt lat="43.28061" lon="-1.68229">
        <ele>43</ele>
        <time>2026-07-12T19:59:03.000Z</time>
      </trkpt>
      <trkpt lat="43.28062" lon="-1.68229">
        <ele>43</ele>
        <time>2026-07-12T19:59:04.000Z</time>
      </trkpt>
      <trkpt lat="43.28063" lon="-1.68229">
        <ele>42</ele>
        <time>2026-07-12T19:59:04.000Z</time>
      </trkpt>
      <trkpt lat="43.28063" lon="-1.68228">
        <ele>42</ele>
        <time>2026-07-12T19:59:04.000Z</time>
      </trkpt>
      <trkpt lat="43.28064" lon="-1.68228">
        <ele>42</ele>
        <time>2026-07-12T19:59:04.000Z</time>
      </trkpt>
      <trkpt lat="43.28065" lon="-1.68228">
        <ele>42</ele>
        <time>2026-07-12T19:59:04.000Z</time>
      </trkpt>
      <trkpt lat="43.28065" lon="-1.68229">
        <ele>42</ele>
        <time>2026-07-12T19:59:04.000Z</time>
      </trkpt>
      <trkpt lat="43.28066" lon="-1.68224">
        <ele>42</ele>
        <time>2026-07-12T19:59:05.000Z</time>
      </trkpt>
      <trkpt lat="43.28069" lon="-1.68215">
        <ele>42</ele>
        <time>2026-07-12T19:59:06.000Z</time>
      </trkpt>
      <trkpt lat="43.28072" lon="-1.68207">
        <ele>42</ele>
        <time>2026-07-12T19:59:07.000Z</time>
      </trkpt>
      <trkpt lat="43.28074" lon="-1.68199">
        <ele>42</ele>
        <time>2026-07-12T19:59:09.000Z</time>
      </trkpt>
      <trkpt lat="43.28077" lon="-1.6819">
        <ele>42</ele>
        <time>2026-07-12T19:59:10.000Z</time>
      </trkpt>
      <trkpt lat="43.2808" lon="-1.68182">
        <ele>42</ele>
        <time>2026-07-12T19:59:11.000Z</time>
      </trkpt>
      <trkpt lat="43.28082" lon="-1.68173">
        <ele>42</ele>
        <time>2026-07-12T19:59:12.000Z</time>
      </trkpt>
      <trkpt lat="43.28084" lon="-1.68165">
        <ele>42</ele>
        <time>2026-07-12T19:59:13.000Z</time>
      </trkpt>
      <trkpt lat="43.28088" lon="-1.68153">
        <ele>42</ele>
        <time>2026-07-12T19:59:15.000Z</time>
      </trkpt>
      <trkpt lat="43.28091" lon="-1.6814">
        <ele>42</ele>
        <time>2026-07-12T19:59:17.000Z</time>
      </trkpt>
      <trkpt lat="43.28093" lon="-1.68132">
        <ele>42</ele>
        <time>2026-07-12T19:59:18.000Z</time>
      </trkpt>
      <trkpt lat="43.28097" lon="-1.68119">
        <ele>42</ele>
        <time>2026-07-12T19:59:20.000Z</time>
      </trkpt>
      <trkpt lat="43.28103" lon="-1.6811">
        <ele>42</ele>
        <time>2026-07-12T19:59:21.000Z</time>
      </trkpt>
      <trkpt lat="43.28106" lon="-1.68106">
        <ele>42</ele>
        <time>2026-07-12T19:59:22.000Z</time>
      </trkpt>
      <trkpt lat="43.28112" lon="-1.68101">
        <ele>42</ele>
        <time>2026-07-12T19:59:23.000Z</time>
      </trkpt>
      <trkpt lat="43.28118" lon="-1.68096">
        <ele>42</ele>
        <time>2026-07-12T19:59:25.000Z</time>
      </trkpt>
      <trkpt lat="43.28124" lon="-1.68091">
        <ele>42</ele>
        <time>2026-07-12T19:59:26.000Z</time>
      </trkpt>
      <trkpt lat="43.2813" lon="-1.68088">
        <ele>41</ele>
        <time>2026-07-12T19:59:27.000Z</time>
      </trkpt>
      <trkpt lat="43.28134" lon="-1.68086">
        <ele>41</ele>
        <time>2026-07-12T19:59:28.000Z</time>
      </trkpt>
      <trkpt lat="43.28138" lon="-1.68085">
        <ele>41</ele>
        <time>2026-07-12T19:59:28.000Z</time>
      </trkpt>
      <trkpt lat="43.28144" lon="-1.68081">
        <ele>41</ele>
        <time>2026-07-12T19:59:30.000Z</time>
      </trkpt>
      <trkpt lat="43.28147" lon="-1.68078">
        <ele>41</ele>
        <time>2026-07-12T19:59:30.000Z</time>
      </trkpt>
      <trkpt lat="43.28149" lon="-1.68075">
        <ele>41</ele>
        <time>2026-07-12T19:59:31.000Z</time>
      </trkpt>
      <trkpt lat="43.28151" lon="-1.68069">
        <ele>41</ele>
        <time>2026-07-12T19:59:32.000Z</time>
      </trkpt>
      <trkpt lat="43.28152" lon="-1.68063">
        <ele>42</ele>
        <time>2026-07-12T19:59:32.000Z</time>
      </trkpt>
      <trkpt lat="43.28154" lon="-1.68056">
        <ele>42</ele>
        <time>2026-07-12T19:59:33.000Z</time>
      </trkpt>
      <trkpt lat="43.28155" lon="-1.68045">
        <ele>42</ele>
        <time>2026-07-12T19:59:35.000Z</time>
      </trkpt>
      <trkpt lat="43.28156" lon="-1.68036">
        <ele>42</ele>
        <time>2026-07-12T19:59:36.000Z</time>
      </trkpt>
      <trkpt lat="43.28157" lon="-1.68028">
        <ele>42</ele>
        <time>2026-07-12T19:59:37.000Z</time>
      </trkpt>
      <trkpt lat="43.28157" lon="-1.68025">
        <ele>42</ele>
        <time>2026-07-12T19:59:37.000Z</time>
      </trkpt>
      <trkpt lat="43.28157" lon="-1.6801">
        <ele>43</ele>
        <time>2026-07-12T19:59:39.000Z</time>
      </trkpt>
      <trkpt lat="43.28158" lon="-1.68006">
        <ele>43</ele>
        <time>2026-07-12T19:59:40.000Z</time>
      </trkpt>
      <trkpt lat="43.28159" lon="-1.68002">
        <ele>43</ele>
        <time>2026-07-12T19:59:40.000Z</time>
      </trkpt>
      <trkpt lat="43.28161" lon="-1.67997">
        <ele>43</ele>
        <time>2026-07-12T19:59:41.000Z</time>
      </trkpt>
      <trkpt lat="43.28165" lon="-1.67989">
        <ele>43</ele>
        <time>2026-07-12T19:59:42.000Z</time>
      </trkpt>
      <trkpt lat="43.28169" lon="-1.67974">
        <ele>44</ele>
        <time>2026-07-12T19:59:45.000Z</time>
      </trkpt>
      <trkpt lat="43.28172" lon="-1.67956">
        <ele>44</ele>
        <time>2026-07-12T19:59:47.000Z</time>
      </trkpt>
      <trkpt lat="43.28176" lon="-1.67921">
        <ele>45</ele>
        <time>2026-07-12T19:59:52.000Z</time>
      </trkpt>
      <trkpt lat="43.28179" lon="-1.67874">
        <ele>44</ele>
        <time>2026-07-12T19:59:58.000Z</time>
      </trkpt>
      <trkpt lat="43.28185" lon="-1.67835">
        <ele>44</ele>
        <time>2026-07-12T20:00:03.000Z</time>
      </trkpt>
      <trkpt lat="43.28185" lon="-1.67835">
        <ele>44</ele>
        <time>2026-07-12T20:00:03.000Z</time>
      </trkpt>
      <trkpt lat="43.28194" lon="-1.67836">
        <ele>44</ele>
        <time>2026-07-12T20:00:04.000Z</time>
      </trkpt>
      <trkpt lat="43.282" lon="-1.67838">
        <ele>44</ele>
        <time>2026-07-12T20:00:06.000Z</time>
      </trkpt>
      <trkpt lat="43.28212" lon="-1.67841">
        <ele>45</ele>
        <time>2026-07-12T20:00:08.000Z</time>
      </trkpt>
      <trkpt lat="43.28223" lon="-1.67846">
        <ele>45</ele>
        <time>2026-07-12T20:00:10.000Z</time>
      </trkpt>
      <trkpt lat="43.2824" lon="-1.67854">
        <ele>45</ele>
        <time>2026-07-12T20:00:13.000Z</time>
      </trkpt>
      <trkpt lat="43.28286" lon="-1.67878">
        <ele>46</ele>
        <time>2026-07-12T20:00:22.000Z</time>
      </trkpt>
      <trkpt lat="43.28286" lon="-1.67878">
        <ele>46</ele>
        <time>2026-07-12T20:00:22.000Z</time>
      </trkpt>
      <trkpt lat="43.2829" lon="-1.67873">
        <ele>47</ele>
        <time>2026-07-12T20:00:23.000Z</time>
      </trkpt>
      <trkpt lat="43.28293" lon="-1.6787">
        <ele>47</ele>
        <time>2026-07-12T20:00:23.000Z</time>
      </trkpt>
      <trkpt lat="43.28296" lon="-1.67869">
        <ele>47</ele>
        <time>2026-07-12T20:00:24.000Z</time>
      </trkpt>
      <trkpt lat="43.28325" lon="-1.67869">
        <ele>48</ele>
        <time>2026-07-12T20:00:29.000Z</time>
      </trkpt>
      <trkpt lat="43.28325" lon="-1.67869">
        <ele>48</ele>
        <time>2026-07-12T20:00:29.000Z</time>
      </trkpt>
      <trkpt lat="43.28365" lon="-1.67887">
        <ele>53</ele>
        <time>2026-07-12T20:00:37.000Z</time>
      </trkpt>
      <trkpt lat="43.2838" lon="-1.67895">
        <ele>54</ele>
        <time>2026-07-12T20:00:39.000Z</time>
      </trkpt>
      <trkpt lat="43.28386" lon="-1.67899">
        <ele>55</ele>
        <time>2026-07-12T20:00:41.000Z</time>
      </trkpt>
      <trkpt lat="43.28392" lon="-1.67906">
        <ele>56</ele>
        <time>2026-07-12T20:00:42.000Z</time>
      </trkpt>
      <trkpt lat="43.28412" lon="-1.67925">
        <ele>60</ele>
        <time>2026-07-12T20:00:46.000Z</time>
      </trkpt>
      <trkpt lat="43.28457" lon="-1.67963">
        <ele>73</ele>
        <time>2026-07-12T20:00:56.000Z</time>
      </trkpt>
      <trkpt lat="43.28457" lon="-1.67963">
        <ele>73</ele>
        <time>2026-07-12T20:00:56.000Z</time>
      </trkpt>
      <trkpt lat="43.28477" lon="-1.67964">
        <ele>74</ele>
        <time>2026-07-12T20:00:59.000Z</time>
      </trkpt>
      <trkpt lat="43.28504" lon="-1.67966">
        <ele>76</ele>
        <time>2026-07-12T20:01:04.000Z</time>
      </trkpt>
      <trkpt lat="43.28517" lon="-1.67965">
        <ele>74</ele>
        <time>2026-07-12T20:01:06.000Z</time>
      </trkpt>
      <trkpt lat="43.28531" lon="-1.67962">
        <ele>72</ele>
        <time>2026-07-12T20:01:09.000Z</time>
      </trkpt>
      <trkpt lat="43.28543" lon="-1.67957">
        <ele>70</ele>
        <time>2026-07-12T20:01:11.000Z</time>
      </trkpt>
      <trkpt lat="43.28558" lon="-1.6795">
        <ele>67</ele>
        <time>2026-07-12T20:01:14.000Z</time>
      </trkpt>
      <trkpt lat="43.28577" lon="-1.67944">
        <ele>65</ele>
        <time>2026-07-12T20:01:17.000Z</time>
      </trkpt>
      <trkpt lat="43.28577" lon="-1.67944">
        <ele>65</ele>
        <time>2026-07-12T20:01:17.000Z</time>
      </trkpt>
      <trkpt lat="43.2858" lon="-1.67941">
        <ele>64</ele>
        <time>2026-07-12T20:01:18.000Z</time>
      </trkpt>
      <trkpt lat="43.28582" lon="-1.6794">
        <ele>64</ele>
        <time>2026-07-12T20:01:18.000Z</time>
      </trkpt>
      <trkpt lat="43.28584" lon="-1.67939">
        <ele>64</ele>
        <time>2026-07-12T20:01:19.000Z</time>
      </trkpt>
      <trkpt lat="43.28591" lon="-1.67939">
        <ele>65</ele>
        <time>2026-07-12T20:01:20.000Z</time>
      </trkpt>
      <trkpt lat="43.28605" lon="-1.67941">
        <ele>67</ele>
        <time>2026-07-12T20:01:23.000Z</time>
      </trkpt>
      <trkpt lat="43.28611" lon="-1.67941">
        <ele>68</ele>
        <time>2026-07-12T20:01:24.000Z</time>
      </trkpt>
      <trkpt lat="43.28615" lon="-1.67941">
        <ele>68</ele>
        <time>2026-07-12T20:01:24.000Z</time>
      </trkpt>
      <trkpt lat="43.28619" lon="-1.67939">
        <ele>69</ele>
        <time>2026-07-12T20:01:25.000Z</time>
      </trkpt>
      <trkpt lat="43.28623" lon="-1.67938">
        <ele>69</ele>
        <time>2026-07-12T20:01:26.000Z</time>
      </trkpt>
      <trkpt lat="43.28628" lon="-1.67938">
        <ele>70</ele>
        <time>2026-07-12T20:01:27.000Z</time>
      </trkpt>
      <trkpt lat="43.28635" lon="-1.67939">
        <ele>71</ele>
        <time>2026-07-12T20:01:28.000Z</time>
      </trkpt>
      <trkpt lat="43.2864" lon="-1.67942">
        <ele>72</ele>
        <time>2026-07-12T20:01:29.000Z</time>
      </trkpt>
      <trkpt lat="43.28646" lon="-1.67945">
        <ele>72</ele>
        <time>2026-07-12T20:01:30.000Z</time>
      </trkpt>
      <trkpt lat="43.28648" lon="-1.67946">
        <ele>73</ele>
        <time>2026-07-12T20:01:30.000Z</time>
      </trkpt>
      <trkpt lat="43.28652" lon="-1.6795">
        <ele>73</ele>
        <time>2026-07-12T20:01:31.000Z</time>
      </trkpt>
      <trkpt lat="43.28655" lon="-1.67952">
        <ele>73</ele>
        <time>2026-07-12T20:01:32.000Z</time>
      </trkpt>
      <trkpt lat="43.28657" lon="-1.67954">
        <ele>73</ele>
        <time>2026-07-12T20:01:32.000Z</time>
      </trkpt>
      <trkpt lat="43.28661" lon="-1.67958">
        <ele>74</ele>
        <time>2026-07-12T20:01:33.000Z</time>
      </trkpt>
      <trkpt lat="43.28664" lon="-1.6796">
        <ele>74</ele>
        <time>2026-07-12T20:01:34.000Z</time>
      </trkpt>
      <trkpt lat="43.28668" lon="-1.67961">
        <ele>74</ele>
        <time>2026-07-12T20:01:35.000Z</time>
      </trkpt>
      <trkpt lat="43.28674" lon="-1.67962">
        <ele>74</ele>
        <time>2026-07-12T20:01:36.000Z</time>
      </trkpt>
      <trkpt lat="43.28677" lon="-1.6796">
        <ele>75</ele>
        <time>2026-07-12T20:01:36.000Z</time>
      </trkpt>
      <trkpt lat="43.28681" lon="-1.67957">
        <ele>75</ele>
        <time>2026-07-12T20:01:37.000Z</time>
      </trkpt>
      <trkpt lat="43.28684" lon="-1.67955">
        <ele>76</ele>
        <time>2026-07-12T20:01:38.000Z</time>
      </trkpt>
      <trkpt lat="43.28688" lon="-1.67953">
        <ele>76</ele>
        <time>2026-07-12T20:01:38.000Z</time>
      </trkpt>
      <trkpt lat="43.28691" lon="-1.67951">
        <ele>77</ele>
        <time>2026-07-12T20:01:39.000Z</time>
      </trkpt>
      <trkpt lat="43.28696" lon="-1.67949">
        <ele>77</ele>
        <time>2026-07-12T20:01:40.000Z</time>
      </trkpt>
      <trkpt lat="43.28699" lon="-1.67947">
        <ele>78</ele>
        <time>2026-07-12T20:01:41.000Z</time>
      </trkpt>
      <trkpt lat="43.28702" lon="-1.67947">
        <ele>78</ele>
        <time>2026-07-12T20:01:41.000Z</time>
      </trkpt>
      <trkpt lat="43.28704" lon="-1.67947">
        <ele>78</ele>
        <time>2026-07-12T20:01:41.000Z</time>
      </trkpt>
      <trkpt lat="43.28708" lon="-1.67945">
        <ele>78</ele>
        <time>2026-07-12T20:01:42.000Z</time>
      </trkpt>
      <trkpt lat="43.2871" lon="-1.67945">
        <ele>79</ele>
        <time>2026-07-12T20:01:43.000Z</time>
      </trkpt>
      <trkpt lat="43.28718" lon="-1.67942">
        <ele>79</ele>
        <time>2026-07-12T20:01:44.000Z</time>
      </trkpt>
      <trkpt lat="43.28727" lon="-1.67939">
        <ele>80</ele>
        <time>2026-07-12T20:01:46.000Z</time>
      </trkpt>
      <trkpt lat="43.28738" lon="-1.67935">
        <ele>81</ele>
        <time>2026-07-12T20:01:48.000Z</time>
      </trkpt>
      <trkpt lat="43.2875" lon="-1.67928">
        <ele>83</ele>
        <time>2026-07-12T20:01:50.000Z</time>
      </trkpt>
      <trkpt lat="43.28762" lon="-1.67925">
        <ele>82</ele>
        <time>2026-07-12T20:01:52.000Z</time>
      </trkpt>
      <trkpt lat="43.28774" lon="-1.67923">
        <ele>82</ele>
        <time>2026-07-12T20:01:54.000Z</time>
      </trkpt>
      <trkpt lat="43.28785" lon="-1.67925">
        <ele>81</ele>
        <time>2026-07-12T20:01:56.000Z</time>
      </trkpt>
      <trkpt lat="43.28799" lon="-1.6793">
        <ele>81</ele>
        <time>2026-07-12T20:01:59.000Z</time>
      </trkpt>
      <trkpt lat="43.28819" lon="-1.67941">
        <ele>80</ele>
        <time>2026-07-12T20:02:03.000Z</time>
      </trkpt>
      <trkpt lat="43.28833" lon="-1.67947">
        <ele>81</ele>
        <time>2026-07-12T20:02:05.000Z</time>
      </trkpt>
      <trkpt lat="43.28844" lon="-1.67948">
        <ele>80</ele>
        <time>2026-07-12T20:02:07.000Z</time>
      </trkpt>
      <trkpt lat="43.28864" lon="-1.67948">
        <ele>80</ele>
        <time>2026-07-12T20:02:11.000Z</time>
      </trkpt>
      <trkpt lat="43.28872" lon="-1.67946">
        <ele>79</ele>
        <time>2026-07-12T20:02:12.000Z</time>
      </trkpt>
      <trkpt lat="43.28884" lon="-1.67937">
        <ele>79</ele>
        <time>2026-07-12T20:02:15.000Z</time>
      </trkpt>
      <trkpt lat="43.28893" lon="-1.67932">
        <ele>78</ele>
        <time>2026-07-12T20:02:16.000Z</time>
      </trkpt>
      <trkpt lat="43.28902" lon="-1.67924">
        <ele>78</ele>
        <time>2026-07-12T20:02:18.000Z</time>
      </trkpt>
      <trkpt lat="43.28912" lon="-1.6792">
        <ele>77</ele>
        <time>2026-07-12T20:02:20.000Z</time>
      </trkpt>
      <trkpt lat="43.2892" lon="-1.67917">
        <ele>77</ele>
        <time>2026-07-12T20:02:22.000Z</time>
      </trkpt>
      <trkpt lat="43.28931" lon="-1.67916">
        <ele>77</ele>
        <time>2026-07-12T20:02:24.000Z</time>
      </trkpt>
      <trkpt lat="43.28941" lon="-1.67918">
        <ele>76</ele>
        <time>2026-07-12T20:02:25.000Z</time>
      </trkpt>
      <trkpt lat="43.28956" lon="-1.67921">
        <ele>76</ele>
        <time>2026-07-12T20:02:28.000Z</time>
      </trkpt>
      <trkpt lat="43.28978" lon="-1.67928">
        <ele>75</ele>
        <time>2026-07-12T20:02:32.000Z</time>
      </trkpt>
      <trkpt lat="43.28987" lon="-1.67934">
        <ele>75</ele>
        <time>2026-07-12T20:02:34.000Z</time>
      </trkpt>
      <trkpt lat="43.28993" lon="-1.6794">
        <ele>75</ele>
        <time>2026-07-12T20:02:35.000Z</time>
      </trkpt>
      <trkpt lat="43.28998" lon="-1.67946">
        <ele>75</ele>
        <time>2026-07-12T20:02:36.000Z</time>
      </trkpt>
      <trkpt lat="43.2902" lon="-1.6799">
        <ele>74</ele>
        <time>2026-07-12T20:02:43.000Z</time>
      </trkpt>
      <trkpt lat="43.2902" lon="-1.6799">
        <ele>74</ele>
        <time>2026-07-12T20:02:43.000Z</time>
      </trkpt>
      <trkpt lat="43.29059" lon="-1.68021">
        <ele>72</ele>
        <time>2026-07-12T20:02:51.000Z</time>
      </trkpt>
      <trkpt lat="43.29074" lon="-1.6803">
        <ele>71</ele>
        <time>2026-07-12T20:02:54.000Z</time>
      </trkpt>
      <trkpt lat="43.29089" lon="-1.68035">
        <ele>70</ele>
        <time>2026-07-12T20:02:57.000Z</time>
      </trkpt>
      <trkpt lat="43.2911" lon="-1.68041">
        <ele>72</ele>
        <time>2026-07-12T20:03:01.000Z</time>
      </trkpt>
      <trkpt lat="43.29127" lon="-1.68047">
        <ele>74</ele>
        <time>2026-07-12T20:03:04.000Z</time>
      </trkpt>
      <trkpt lat="43.29133" lon="-1.68052">
        <ele>75</ele>
        <time>2026-07-12T20:03:05.000Z</time>
      </trkpt>
      <trkpt lat="43.2914" lon="-1.68058">
        <ele>75</ele>
        <time>2026-07-12T20:03:07.000Z</time>
      </trkpt>
      <trkpt lat="43.29154" lon="-1.68076">
        <ele>76</ele>
        <time>2026-07-12T20:03:10.000Z</time>
      </trkpt>
      <trkpt lat="43.29161" lon="-1.68086">
        <ele>76</ele>
        <time>2026-07-12T20:03:12.000Z</time>
      </trkpt>
      <trkpt lat="43.29176" lon="-1.681">
        <ele>78</ele>
        <time>2026-07-12T20:03:15.000Z</time>
      </trkpt>
      <trkpt lat="43.29188" lon="-1.68105">
        <ele>80</ele>
        <time>2026-07-12T20:03:17.000Z</time>
      </trkpt>
      <trkpt lat="43.29201" lon="-1.68108">
        <ele>83</ele>
        <time>2026-07-12T20:03:20.000Z</time>
      </trkpt>
      <trkpt lat="43.29226" lon="-1.68107">
        <ele>88</ele>
        <time>2026-07-12T20:03:24.000Z</time>
      </trkpt>
      <trkpt lat="43.29253" lon="-1.68102">
        <ele>94</ele>
        <time>2026-07-12T20:03:29.000Z</time>
      </trkpt>
      <trkpt lat="43.29276" lon="-1.68095">
        <ele>99</ele>
        <time>2026-07-12T20:03:33.000Z</time>
      </trkpt>
      <trkpt lat="43.29283" lon="-1.68094">
        <ele>101</ele>
        <time>2026-07-12T20:03:34.000Z</time>
      </trkpt>
      <trkpt lat="43.29287" lon="-1.68093">
        <ele>102</ele>
        <time>2026-07-12T20:03:35.000Z</time>
      </trkpt>
      <trkpt lat="43.29289" lon="-1.68093">
        <ele>102</ele>
        <time>2026-07-12T20:03:36.000Z</time>
      </trkpt>
      <trkpt lat="43.29291" lon="-1.68094">
        <ele>102</ele>
        <time>2026-07-12T20:03:36.000Z</time>
      </trkpt>
      <trkpt lat="43.29292" lon="-1.68096">
        <ele>102</ele>
        <time>2026-07-12T20:03:36.000Z</time>
      </trkpt>
      <trkpt lat="43.29294" lon="-1.68098">
        <ele>103</ele>
        <time>2026-07-12T20:03:37.000Z</time>
      </trkpt>
      <trkpt lat="43.29295" lon="-1.68102">
        <ele>103</ele>
        <time>2026-07-12T20:03:37.000Z</time>
      </trkpt>
      <trkpt lat="43.29295" lon="-1.68105">
        <ele>103</ele>
        <time>2026-07-12T20:03:38.000Z</time>
      </trkpt>
      <trkpt lat="43.29294" lon="-1.68108">
        <ele>102</ele>
        <time>2026-07-12T20:03:38.000Z</time>
      </trkpt>
      <trkpt lat="43.29291" lon="-1.68115">
        <ele>101</ele>
        <time>2026-07-12T20:03:39.000Z</time>
      </trkpt>
      <trkpt lat="43.29289" lon="-1.68121">
        <ele>101</ele>
        <time>2026-07-12T20:03:40.000Z</time>
      </trkpt>
      <trkpt lat="43.29287" lon="-1.68131">
        <ele>100</ele>
        <time>2026-07-12T20:03:41.000Z</time>
      </trkpt>
      <trkpt lat="43.29287" lon="-1.68138">
        <ele>99</ele>
        <time>2026-07-12T20:03:42.000Z</time>
      </trkpt>
      <trkpt lat="43.2929" lon="-1.68149">
        <ele>99</ele>
        <time>2026-07-12T20:03:44.000Z</time>
      </trkpt>
      <trkpt lat="43.29294" lon="-1.68156">
        <ele>100</ele>
        <time>2026-07-12T20:03:45.000Z</time>
      </trkpt>
      <trkpt lat="43.29296" lon="-1.68159">
        <ele>100</ele>
        <time>2026-07-12T20:03:45.000Z</time>
      </trkpt>
      <trkpt lat="43.29301" lon="-1.68162">
        <ele>101</ele>
        <time>2026-07-12T20:03:46.000Z</time>
      </trkpt>
      <trkpt lat="43.29309" lon="-1.68162">
        <ele>103</ele>
        <time>2026-07-12T20:03:48.000Z</time>
      </trkpt>
      <trkpt lat="43.29328" lon="-1.68156">
        <ele>108</ele>
        <time>2026-07-12T20:03:51.000Z</time>
      </trkpt>
      <trkpt lat="43.29337" lon="-1.68154">
        <ele>110</ele>
        <time>2026-07-12T20:03:53.000Z</time>
      </trkpt>
      <trkpt lat="43.29342" lon="-1.68155">
        <ele>111</ele>
        <time>2026-07-12T20:03:54.000Z</time>
      </trkpt>
      <trkpt lat="43.29347" lon="-1.68159">
        <ele>112</ele>
        <time>2026-07-12T20:03:55.000Z</time>
      </trkpt>
      <trkpt lat="43.29351" lon="-1.68165">
        <ele>113</ele>
        <time>2026-07-12T20:03:56.000Z</time>
      </trkpt>
      <trkpt lat="43.29373" lon="-1.68196">
        <ele>118</ele>
        <time>2026-07-12T20:04:01.000Z</time>
      </trkpt>
      <trkpt lat="43.29378" lon="-1.682">
        <ele>119</ele>
        <time>2026-07-12T20:04:02.000Z</time>
      </trkpt>
      <trkpt lat="43.29385" lon="-1.68203">
        <ele>121</ele>
        <time>2026-07-12T20:04:04.000Z</time>
      </trkpt>
      <trkpt lat="43.29396" lon="-1.68205">
        <ele>123</ele>
        <time>2026-07-12T20:04:06.000Z</time>
      </trkpt>
      <trkpt lat="43.29411" lon="-1.68203">
        <ele>126</ele>
        <time>2026-07-12T20:04:08.000Z</time>
      </trkpt>
      <trkpt lat="43.2942" lon="-1.68201">
        <ele>129</ele>
        <time>2026-07-12T20:04:10.000Z</time>
      </trkpt>
      <trkpt lat="43.29436" lon="-1.68194">
        <ele>134</ele>
        <time>2026-07-12T20:04:13.000Z</time>
      </trkpt>
      <trkpt lat="43.29439" lon="-1.68193">
        <ele>135</ele>
        <time>2026-07-12T20:04:14.000Z</time>
      </trkpt>
      <trkpt lat="43.29442" lon="-1.68194">
        <ele>136</ele>
        <time>2026-07-12T20:04:14.000Z</time>
      </trkpt>
      <trkpt lat="43.29447" lon="-1.68196">
        <ele>138</ele>
        <time>2026-07-12T20:04:15.000Z</time>
      </trkpt>
      <trkpt lat="43.2945" lon="-1.68199">
        <ele>139</ele>
        <time>2026-07-12T20:04:16.000Z</time>
      </trkpt>
      <trkpt lat="43.29458" lon="-1.68206">
        <ele>142</ele>
        <time>2026-07-12T20:04:17.000Z</time>
      </trkpt>
      <trkpt lat="43.29478" lon="-1.68233">
        <ele>149</ele>
        <time>2026-07-12T20:04:22.000Z</time>
      </trkpt>
      <trkpt lat="43.29492" lon="-1.68262">
        <ele>154</ele>
        <time>2026-07-12T20:04:27.000Z</time>
      </trkpt>
      <trkpt lat="43.29499" lon="-1.68278">
        <ele>156</ele>
        <time>2026-07-12T20:04:29.000Z</time>
      </trkpt>
      <trkpt lat="43.29502" lon="-1.68287">
        <ele>157</ele>
        <time>2026-07-12T20:04:31.000Z</time>
      </trkpt>
      <trkpt lat="43.29504" lon="-1.68295">
        <ele>157</ele>
        <time>2026-07-12T20:04:32.000Z</time>
      </trkpt>
      <trkpt lat="43.29504" lon="-1.68307">
        <ele>157</ele>
        <time>2026-07-12T20:04:33.000Z</time>
      </trkpt>
      <trkpt lat="43.29505" lon="-1.68322">
        <ele>157</ele>
        <time>2026-07-12T20:04:35.000Z</time>
      </trkpt>
      <trkpt lat="43.29506" lon="-1.68331">
        <ele>157</ele>
        <time>2026-07-12T20:04:36.000Z</time>
      </trkpt>
      <trkpt lat="43.29509" lon="-1.68341">
        <ele>158</ele>
        <time>2026-07-12T20:04:38.000Z</time>
      </trkpt>
      <trkpt lat="43.29514" lon="-1.68353">
        <ele>159</ele>
        <time>2026-07-12T20:04:40.000Z</time>
      </trkpt>
      <trkpt lat="43.29518" lon="-1.6836">
        <ele>160</ele>
        <time>2026-07-12T20:04:41.000Z</time>
      </trkpt>
      <trkpt lat="43.29539" lon="-1.68383">
        <ele>166</ele>
        <time>2026-07-12T20:04:46.000Z</time>
      </trkpt>
      <trkpt lat="43.29547" lon="-1.68391">
        <ele>168</ele>
        <time>2026-07-12T20:04:47.000Z</time>
      </trkpt>
      <trkpt lat="43.29557" lon="-1.68396">
        <ele>171</ele>
        <time>2026-07-12T20:04:49.000Z</time>
      </trkpt>
      <trkpt lat="43.29567" lon="-1.68397">
        <ele>174</ele>
        <time>2026-07-12T20:04:51.000Z</time>
      </trkpt>
      <trkpt lat="43.2958" lon="-1.68396">
        <ele>178</ele>
        <time>2026-07-12T20:04:53.000Z</time>
      </trkpt>
      <trkpt lat="43.29592" lon="-1.68395">
        <ele>180</ele>
        <time>2026-07-12T20:04:55.000Z</time>
      </trkpt>
      <trkpt lat="43.29598" lon="-1.68392">
        <ele>181</ele>
        <time>2026-07-12T20:04:57.000Z</time>
      </trkpt>
      <trkpt lat="43.29603" lon="-1.68389">
        <ele>182</ele>
        <time>2026-07-12T20:04:58.000Z</time>
      </trkpt>
      <trkpt lat="43.29607" lon="-1.68385">
        <ele>183</ele>
        <time>2026-07-12T20:04:58.000Z</time>
      </trkpt>
      <trkpt lat="43.29649" lon="-1.68354">
        <ele>196</ele>
        <time>2026-07-12T20:05:07.000Z</time>
      </trkpt>
      <trkpt lat="43.29671" lon="-1.68331">
        <ele>207</ele>
        <time>2026-07-12T20:05:12.000Z</time>
      </trkpt>
      <trkpt lat="43.29678" lon="-1.68321">
        <ele>208</ele>
        <time>2026-07-12T20:05:14.000Z</time>
      </trkpt>
      <trkpt lat="43.29683" lon="-1.68311">
        <ele>210</ele>
        <time>2026-07-12T20:05:15.000Z</time>
      </trkpt>
      <trkpt lat="43.29685" lon="-1.68303">
        <ele>212</ele>
        <time>2026-07-12T20:05:16.000Z</time>
      </trkpt>
      <trkpt lat="43.29688" lon="-1.68291">
        <ele>214</ele>
        <time>2026-07-12T20:05:18.000Z</time>
      </trkpt>
      <trkpt lat="43.29693" lon="-1.68272">
        <ele>218</ele>
        <time>2026-07-12T20:05:21.000Z</time>
      </trkpt>
      <trkpt lat="43.29708" lon="-1.68236">
        <ele>225</ele>
        <time>2026-07-12T20:05:26.000Z</time>
      </trkpt>
      <trkpt lat="43.29715" lon="-1.68218">
        <ele>227</ele>
        <time>2026-07-12T20:05:29.000Z</time>
      </trkpt>
      <trkpt lat="43.29719" lon="-1.68213">
        <ele>228</ele>
        <time>2026-07-12T20:05:30.000Z</time>
      </trkpt>
      <trkpt lat="43.29723" lon="-1.68211">
        <ele>230</ele>
        <time>2026-07-12T20:05:30.000Z</time>
      </trkpt>
      <trkpt lat="43.29727" lon="-1.68209">
        <ele>231</ele>
        <time>2026-07-12T20:05:31.000Z</time>
      </trkpt>
      <trkpt lat="43.29736" lon="-1.68209">
        <ele>234</ele>
        <time>2026-07-12T20:05:33.000Z</time>
      </trkpt>
      <trkpt lat="43.29745" lon="-1.6821">
        <ele>236</ele>
        <time>2026-07-12T20:05:34.000Z</time>
      </trkpt>
      <trkpt lat="43.29755" lon="-1.6821">
        <ele>238</ele>
        <time>2026-07-12T20:05:36.000Z</time>
      </trkpt>
      <trkpt lat="43.29764" lon="-1.68209">
        <ele>238</ele>
        <time>2026-07-12T20:05:38.000Z</time>
      </trkpt>
      <trkpt lat="43.29772" lon="-1.68207">
        <ele>239</ele>
        <time>2026-07-12T20:05:39.000Z</time>
      </trkpt>
      <trkpt lat="43.29782" lon="-1.68204">
        <ele>240</ele>
        <time>2026-07-12T20:05:41.000Z</time>
      </trkpt>
      <trkpt lat="43.29787" lon="-1.68201">
        <ele>240</ele>
        <time>2026-07-12T20:05:42.000Z</time>
      </trkpt>
      <trkpt lat="43.29796" lon="-1.68196">
        <ele>242</ele>
        <time>2026-07-12T20:05:44.000Z</time>
      </trkpt>
      <trkpt lat="43.29798" lon="-1.68195">
        <ele>242</ele>
        <time>2026-07-12T20:05:44.000Z</time>
      </trkpt>
      <trkpt lat="43.29798" lon="-1.68194">
        <ele>243</ele>
        <time>2026-07-12T20:05:44.000Z</time>
      </trkpt>
      <trkpt lat="43.29799" lon="-1.68193">
        <ele>243</ele>
        <time>2026-07-12T20:05:44.000Z</time>
      </trkpt>
      <trkpt lat="43.298" lon="-1.6819">
        <ele>244</ele>
        <time>2026-07-12T20:05:45.000Z</time>
      </trkpt>
      <trkpt lat="43.29799" lon="-1.68188">
        <ele>244</ele>
        <time>2026-07-12T20:05:45.000Z</time>
      </trkpt>
      <trkpt lat="43.29798" lon="-1.68185">
        <ele>245</ele>
        <time>2026-07-12T20:05:45.000Z</time>
      </trkpt>
      <trkpt lat="43.29794" lon="-1.68179">
        <ele>245</ele>
        <time>2026-07-12T20:05:47.000Z</time>
      </trkpt>
      <trkpt lat="43.29778" lon="-1.68157">
        <ele>246</ele>
        <time>2026-07-12T20:05:51.000Z</time>
      </trkpt>
      <trkpt lat="43.29775" lon="-1.68149">
        <ele>246</ele>
        <time>2026-07-12T20:05:52.000Z</time>
      </trkpt>
      <trkpt lat="43.29774" lon="-1.68143">
        <ele>246</ele>
        <time>2026-07-12T20:05:53.000Z</time>
      </trkpt>
      <trkpt lat="43.29772" lon="-1.68133">
        <ele>246</ele>
        <time>2026-07-12T20:05:54.000Z</time>
      </trkpt>
      <trkpt lat="43.29771" lon="-1.68115">
        <ele>247</ele>
        <time>2026-07-12T20:05:56.000Z</time>
      </trkpt>
      <trkpt lat="43.2977" lon="-1.68072">
        <ele>249</ele>
        <time>2026-07-12T20:06:02.000Z</time>
      </trkpt>
      <trkpt lat="43.29775" lon="-1.6802">
        <ele>253</ele>
        <time>2026-07-12T20:06:09.000Z</time>
      </trkpt>
      <trkpt lat="43.2978" lon="-1.67964">
        <ele>257</ele>
        <time>2026-07-12T20:06:16.000Z</time>
      </trkpt>
      <trkpt lat="43.2979" lon="-1.67924">
        <ele>261</ele>
        <time>2026-07-12T20:06:21.000Z</time>
      </trkpt>
      <trkpt lat="43.29802" lon="-1.67887">
        <ele>261</ele>
        <time>2026-07-12T20:06:27.000Z</time>
      </trkpt>
      <trkpt lat="43.2981" lon="-1.6787">
        <ele>262</ele>
        <time>2026-07-12T20:06:29.000Z</time>
      </trkpt>
      <trkpt lat="43.29823" lon="-1.67857">
        <ele>264</ele>
        <time>2026-07-12T20:06:32.000Z</time>
      </trkpt>
      <trkpt lat="43.29855" lon="-1.6783">
        <ele>270</ele>
        <time>2026-07-12T20:06:39.000Z</time>
      </trkpt>
      <trkpt lat="43.29873" lon="-1.67812">
        <ele>273</ele>
        <time>2026-07-12T20:06:43.000Z</time>
      </trkpt>
      <trkpt lat="43.2989" lon="-1.67793">
        <ele>276</ele>
        <time>2026-07-12T20:06:47.000Z</time>
      </trkpt>
      <trkpt lat="43.29896" lon="-1.67783">
        <ele>277</ele>
        <time>2026-07-12T20:06:48.000Z</time>
      </trkpt>
      <trkpt lat="43.299" lon="-1.67773">
        <ele>277</ele>
        <time>2026-07-12T20:06:50.000Z</time>
      </trkpt>
      <trkpt lat="43.29901" lon="-1.6776">
        <ele>276</ele>
        <time>2026-07-12T20:06:51.000Z</time>
      </trkpt>
      <trkpt lat="43.299" lon="-1.67737">
        <ele>275</ele>
        <time>2026-07-12T20:06:54.000Z</time>
      </trkpt>
      <trkpt lat="43.29896" lon="-1.67716">
        <ele>273</ele>
        <time>2026-07-12T20:06:57.000Z</time>
      </trkpt>
      <trkpt lat="43.29889" lon="-1.67693">
        <ele>271</ele>
        <time>2026-07-12T20:07:00.000Z</time>
      </trkpt>
      <trkpt lat="43.29879" lon="-1.67671">
        <ele>268</ele>
        <time>2026-07-12T20:07:04.000Z</time>
      </trkpt>
      <trkpt lat="43.29854" lon="-1.67625">
        <ele>263</ele>
        <time>2026-07-12T20:07:11.000Z</time>
      </trkpt>
      <trkpt lat="43.29848" lon="-1.67608">
        <ele>263</ele>
        <time>2026-07-12T20:07:14.000Z</time>
      </trkpt>
      <trkpt lat="43.29846" lon="-1.676">
        <ele>263</ele>
        <time>2026-07-12T20:07:15.000Z</time>
      </trkpt>
      <trkpt lat="43.29845" lon="-1.67592">
        <ele>263</ele>
        <time>2026-07-12T20:07:16.000Z</time>
      </trkpt>
      <trkpt lat="43.29845" lon="-1.67584">
        <ele>264</ele>
        <time>2026-07-12T20:07:17.000Z</time>
      </trkpt>
      <trkpt lat="43.29846" lon="-1.67575">
        <ele>265</ele>
        <time>2026-07-12T20:07:18.000Z</time>
      </trkpt>
      <trkpt lat="43.29849" lon="-1.67565">
        <ele>267</ele>
        <time>2026-07-12T20:07:19.000Z</time>
      </trkpt>
      <trkpt lat="43.29856" lon="-1.67555">
        <ele>269</ele>
        <time>2026-07-12T20:07:21.000Z</time>
      </trkpt>
      <trkpt lat="43.29865" lon="-1.67545">
        <ele>271</ele>
        <time>2026-07-12T20:07:23.000Z</time>
      </trkpt>
      <trkpt lat="43.29883" lon="-1.67531">
        <ele>274</ele>
        <time>2026-07-12T20:07:27.000Z</time>
      </trkpt>
      <trkpt lat="43.29916" lon="-1.67503">
        <ele>279</ele>
        <time>2026-07-12T20:07:34.000Z</time>
      </trkpt>
      <trkpt lat="43.29933" lon="-1.67486">
        <ele>280</ele>
        <time>2026-07-12T20:07:38.000Z</time>
      </trkpt>
      <trkpt lat="43.29933" lon="-1.67486">
        <ele>280</ele>
        <time>2026-07-12T20:07:38.000Z</time>
      </trkpt>
      <trkpt lat="43.29941" lon="-1.67514">
        <ele>278</ele>
        <time>2026-07-12T20:07:42.000Z</time>
      </trkpt>
      <trkpt lat="43.29954" lon="-1.67547">
        <ele>279</ele>
        <time>2026-07-12T20:07:46.000Z</time>
      </trkpt>
      <trkpt lat="43.29979" lon="-1.67611">
        <ele>286</ele>
        <time>2026-07-12T20:07:56.000Z</time>
      </trkpt>
      <trkpt lat="43.2999" lon="-1.67637">
        <ele>291</ele>
        <time>2026-07-12T20:08:00.000Z</time>
      </trkpt>
      <trkpt lat="43.30014" lon="-1.67677">
        <ele>300</ele>
        <time>2026-07-12T20:08:06.000Z</time>
      </trkpt>
      <trkpt lat="43.3002" lon="-1.67688">
        <ele>302</ele>
        <time>2026-07-12T20:08:08.000Z</time>
      </trkpt>
      <trkpt lat="43.30025" lon="-1.67703">
        <ele>304</ele>
        <time>2026-07-12T20:08:10.000Z</time>
      </trkpt>
      <trkpt lat="43.30029" lon="-1.67722">
        <ele>307</ele>
        <time>2026-07-12T20:08:13.000Z</time>
      </trkpt>
      <trkpt lat="43.30033" lon="-1.67759">
        <ele>311</ele>
        <time>2026-07-12T20:08:18.000Z</time>
      </trkpt>
      <trkpt lat="43.30036" lon="-1.67804">
        <ele>314</ele>
        <time>2026-07-12T20:08:24.000Z</time>
      </trkpt>
      <trkpt lat="43.30033" lon="-1.67855">
        <ele>316</ele>
        <time>2026-07-12T20:08:30.000Z</time>
      </trkpt>
      <trkpt lat="43.3003" lon="-1.67878">
        <ele>316</ele>
        <time>2026-07-12T20:08:33.000Z</time>
      </trkpt>
      <trkpt lat="43.3003" lon="-1.67882">
        <ele>316</ele>
        <time>2026-07-12T20:08:34.000Z</time>
      </trkpt>
      <trkpt lat="43.3003" lon="-1.67888">
        <ele>317</ele>
        <time>2026-07-12T20:08:35.000Z</time>
      </trkpt>
      <trkpt lat="43.30031" lon="-1.67892">
        <ele>317</ele>
        <time>2026-07-12T20:08:35.000Z</time>
      </trkpt>
      <trkpt lat="43.30032" lon="-1.67896">
        <ele>317</ele>
        <time>2026-07-12T20:08:36.000Z</time>
      </trkpt>
      <trkpt lat="43.30034" lon="-1.67899">
        <ele>318</ele>
        <time>2026-07-12T20:08:36.000Z</time>
      </trkpt>
      <trkpt lat="43.30038" lon="-1.67902">
        <ele>318</ele>
        <time>2026-07-12T20:08:37.000Z</time>
      </trkpt>
      <trkpt lat="43.30042" lon="-1.67903">
        <ele>319</ele>
        <time>2026-07-12T20:08:38.000Z</time>
      </trkpt>
      <trkpt lat="43.30047" lon="-1.67902">
        <ele>320</ele>
        <time>2026-07-12T20:08:39.000Z</time>
      </trkpt>
      <trkpt lat="43.30059" lon="-1.67896">
        <ele>321</ele>
        <time>2026-07-12T20:08:41.000Z</time>
      </trkpt>
      <trkpt lat="43.30076" lon="-1.67889">
        <ele>324</ele>
        <time>2026-07-12T20:08:44.000Z</time>
      </trkpt>
      <trkpt lat="43.30082" lon="-1.67888">
        <ele>324</ele>
        <time>2026-07-12T20:08:45.000Z</time>
      </trkpt>
      <trkpt lat="43.30092" lon="-1.67889">
        <ele>326</ele>
        <time>2026-07-12T20:08:47.000Z</time>
      </trkpt>
      <trkpt lat="43.30102" lon="-1.6789">
        <ele>327</ele>
        <time>2026-07-12T20:08:49.000Z</time>
      </trkpt>
      <trkpt lat="43.30108" lon="-1.67894">
        <ele>328</ele>
        <time>2026-07-12T20:08:50.000Z</time>
      </trkpt>
      <trkpt lat="43.30122" lon="-1.67907">
        <ele>329</ele>
        <time>2026-07-12T20:08:53.000Z</time>
      </trkpt>
      <trkpt lat="43.3014" lon="-1.67925">
        <ele>328</ele>
        <time>2026-07-12T20:08:57.000Z</time>
      </trkpt>
      <trkpt lat="43.30149" lon="-1.67929">
        <ele>328</ele>
        <time>2026-07-12T20:08:59.000Z</time>
      </trkpt>
      <trkpt lat="43.30155" lon="-1.67932">
        <ele>328</ele>
        <time>2026-07-12T20:09:00.000Z</time>
      </trkpt>
      <trkpt lat="43.30163" lon="-1.67933">
        <ele>328</ele>
        <time>2026-07-12T20:09:01.000Z</time>
      </trkpt>
      <trkpt lat="43.30177" lon="-1.67932">
        <ele>332</ele>
        <time>2026-07-12T20:09:04.000Z</time>
      </trkpt>
      <trkpt lat="43.30189" lon="-1.67931">
        <ele>336</ele>
        <time>2026-07-12T20:09:06.000Z</time>
      </trkpt>
      <trkpt lat="43.30197" lon="-1.67932">
        <ele>338</ele>
        <time>2026-07-12T20:09:07.000Z</time>
      </trkpt>
      <trkpt lat="43.30204" lon="-1.67937">
        <ele>339</ele>
        <time>2026-07-12T20:09:09.000Z</time>
      </trkpt>
      <trkpt lat="43.30209" lon="-1.67941">
        <ele>340</ele>
        <time>2026-07-12T20:09:10.000Z</time>
      </trkpt>
      <trkpt lat="43.30214" lon="-1.6795">
        <ele>339</ele>
        <time>2026-07-12T20:09:11.000Z</time>
      </trkpt>
      <trkpt lat="43.30227" lon="-1.67969">
        <ele>338</ele>
        <time>2026-07-12T20:09:14.000Z</time>
      </trkpt>
      <trkpt lat="43.30253" lon="-1.67999">
        <ele>339</ele>
        <time>2026-07-12T20:09:20.000Z</time>
      </trkpt>
      <trkpt lat="43.30269" lon="-1.68021">
        <ele>337</ele>
        <time>2026-07-12T20:09:24.000Z</time>
      </trkpt>
      <trkpt lat="43.30272" lon="-1.68027">
        <ele>336</ele>
        <time>2026-07-12T20:09:25.000Z</time>
      </trkpt>
      <trkpt lat="43.30275" lon="-1.68034">
        <ele>334</ele>
        <time>2026-07-12T20:09:26.000Z</time>
      </trkpt>
      <trkpt lat="43.30276" lon="-1.68042">
        <ele>332</ele>
        <time>2026-07-12T20:09:28.000Z</time>
      </trkpt>
      <trkpt lat="43.30277" lon="-1.68049">
        <ele>331</ele>
        <time>2026-07-12T20:09:28.000Z</time>
      </trkpt>
      <trkpt lat="43.30277" lon="-1.68058">
        <ele>328</ele>
        <time>2026-07-12T20:09:30.000Z</time>
      </trkpt>
      <trkpt lat="43.30277" lon="-1.68079">
        <ele>322</ele>
        <time>2026-07-12T20:09:32.000Z</time>
      </trkpt>
      <trkpt lat="43.3028" lon="-1.68095">
        <ele>320</ele>
        <time>2026-07-12T20:09:34.000Z</time>
      </trkpt>
      <trkpt lat="43.30284" lon="-1.68109">
        <ele>318</ele>
        <time>2026-07-12T20:09:36.000Z</time>
      </trkpt>
      <trkpt lat="43.30288" lon="-1.68116">
        <ele>318</ele>
        <time>2026-07-12T20:09:38.000Z</time>
      </trkpt>
      <trkpt lat="43.30293" lon="-1.68122">
        <ele>318</ele>
        <time>2026-07-12T20:09:39.000Z</time>
      </trkpt>
      <trkpt lat="43.30298" lon="-1.68124">
        <ele>318</ele>
        <time>2026-07-12T20:09:40.000Z</time>
      </trkpt>
      <trkpt lat="43.30303" lon="-1.68126">
        <ele>319</ele>
        <time>2026-07-12T20:09:41.000Z</time>
      </trkpt>
      <trkpt lat="43.30311" lon="-1.68128">
        <ele>320</ele>
        <time>2026-07-12T20:09:42.000Z</time>
      </trkpt>
      <trkpt lat="43.30318" lon="-1.6813">
        <ele>321</ele>
        <time>2026-07-12T20:09:43.000Z</time>
      </trkpt>
      <trkpt lat="43.30329" lon="-1.6813">
        <ele>323</ele>
        <time>2026-07-12T20:09:45.000Z</time>
      </trkpt>
      <trkpt lat="43.30336" lon="-1.6813">
        <ele>324</ele>
        <time>2026-07-12T20:09:47.000Z</time>
      </trkpt>
      <trkpt lat="43.3035" lon="-1.68127">
        <ele>323</ele>
        <time>2026-07-12T20:09:49.000Z</time>
      </trkpt>
      <trkpt lat="43.30364" lon="-1.6812">
        <ele>323</ele>
        <time>2026-07-12T20:09:52.000Z</time>
      </trkpt>
      <trkpt lat="43.3039" lon="-1.68105">
        <ele>323</ele>
        <time>2026-07-12T20:09:57.000Z</time>
      </trkpt>
      <trkpt lat="43.30405" lon="-1.68094">
        <ele>324</ele>
        <time>2026-07-12T20:10:00.000Z</time>
      </trkpt>
      <trkpt lat="43.30411" lon="-1.68087">
        <ele>325</ele>
        <time>2026-07-12T20:10:01.000Z</time>
      </trkpt>
      <trkpt lat="43.30419" lon="-1.68071">
        <ele>328</ele>
        <time>2026-07-12T20:10:04.000Z</time>
      </trkpt>
      <trkpt lat="43.30423" lon="-1.68064">
        <ele>329</ele>
        <time>2026-07-12T20:10:05.000Z</time>
      </trkpt>
      <trkpt lat="43.3043" lon="-1.68059">
        <ele>329</ele>
        <time>2026-07-12T20:10:06.000Z</time>
      </trkpt>
      <trkpt lat="43.30442" lon="-1.68053">
        <ele>329</ele>
        <time>2026-07-12T20:10:09.000Z</time>
      </trkpt>
      <trkpt lat="43.30488" lon="-1.68036">
        <ele>328</ele>
        <time>2026-07-12T20:10:17.000Z</time>
      </trkpt>
      <trkpt lat="43.305" lon="-1.68034">
        <ele>327</ele>
        <time>2026-07-12T20:10:19.000Z</time>
      </trkpt>
      <trkpt lat="43.30509" lon="-1.68035">
        <ele>328</ele>
        <time>2026-07-12T20:10:21.000Z</time>
      </trkpt>
      <trkpt lat="43.30514" lon="-1.68037">
        <ele>328</ele>
        <time>2026-07-12T20:10:22.000Z</time>
      </trkpt>
      <trkpt lat="43.30538" lon="-1.68051">
        <ele>328</ele>
        <time>2026-07-12T20:10:26.000Z</time>
      </trkpt>
      <trkpt lat="43.3055" lon="-1.68054">
        <ele>329</ele>
        <time>2026-07-12T20:10:28.000Z</time>
      </trkpt>
      <trkpt lat="43.3056" lon="-1.68055">
        <ele>330</ele>
        <time>2026-07-12T20:10:30.000Z</time>
      </trkpt>
      <trkpt lat="43.30564" lon="-1.68057">
        <ele>330</ele>
        <time>2026-07-12T20:10:31.000Z</time>
      </trkpt>
      <trkpt lat="43.3057" lon="-1.68062">
        <ele>330</ele>
        <time>2026-07-12T20:10:32.000Z</time>
      </trkpt>
      <trkpt lat="43.30573" lon="-1.6807">
        <ele>330</ele>
        <time>2026-07-12T20:10:33.000Z</time>
      </trkpt>
      <trkpt lat="43.30582" lon="-1.68097">
        <ele>327</ele>
        <time>2026-07-12T20:10:37.000Z</time>
      </trkpt>
      <trkpt lat="43.30591" lon="-1.68112">
        <ele>324</ele>
        <time>2026-07-12T20:10:40.000Z</time>
      </trkpt>
      <trkpt lat="43.30605" lon="-1.68123">
        <ele>322</ele>
        <time>2026-07-12T20:10:43.000Z</time>
      </trkpt>
      <trkpt lat="43.30613" lon="-1.68127">
        <ele>322</ele>
        <time>2026-07-12T20:10:44.000Z</time>
      </trkpt>
      <trkpt lat="43.30619" lon="-1.68128">
        <ele>322</ele>
        <time>2026-07-12T20:10:45.000Z</time>
      </trkpt>
      <trkpt lat="43.30625" lon="-1.68126">
        <ele>324</ele>
        <time>2026-07-12T20:10:46.000Z</time>
      </trkpt>
      <trkpt lat="43.30628" lon="-1.68125">
        <ele>324</ele>
        <time>2026-07-12T20:10:47.000Z</time>
      </trkpt>
      <trkpt lat="43.30636" lon="-1.68118">
        <ele>326</ele>
        <time>2026-07-12T20:10:49.000Z</time>
      </trkpt>
      <trkpt lat="43.30643" lon="-1.68106">
        <ele>330</ele>
        <time>2026-07-12T20:10:51.000Z</time>
      </trkpt>
      <trkpt lat="43.30649" lon="-1.681">
        <ele>332</ele>
        <time>2026-07-12T20:10:52.000Z</time>
      </trkpt>
      <trkpt lat="43.30655" lon="-1.68098">
        <ele>333</ele>
        <time>2026-07-12T20:10:53.000Z</time>
      </trkpt>
      <trkpt lat="43.30661" lon="-1.68096">
        <ele>334</ele>
        <time>2026-07-12T20:10:54.000Z</time>
      </trkpt>
      <trkpt lat="43.3067" lon="-1.68097">
        <ele>335</ele>
        <time>2026-07-12T20:10:56.000Z</time>
      </trkpt>
      <trkpt lat="43.30697" lon="-1.68101">
        <ele>337</ele>
        <time>2026-07-12T20:11:01.000Z</time>
      </trkpt>
      <trkpt lat="43.30715" lon="-1.68107">
        <ele>338</ele>
        <time>2026-07-12T20:11:04.000Z</time>
      </trkpt>
      <trkpt lat="43.30722" lon="-1.68112">
        <ele>338</ele>
        <time>2026-07-12T20:11:05.000Z</time>
      </trkpt>
      <trkpt lat="43.30729" lon="-1.68127">
        <ele>336</ele>
        <time>2026-07-12T20:11:08.000Z</time>
      </trkpt>
      <trkpt lat="43.30729" lon="-1.68142">
        <ele>333</ele>
        <time>2026-07-12T20:11:09.000Z</time>
      </trkpt>
      <trkpt lat="43.30729" lon="-1.68154">
        <ele>330</ele>
        <time>2026-07-12T20:11:11.000Z</time>
      </trkpt>
      <trkpt lat="43.30729" lon="-1.68177">
        <ele>325</ele>
        <time>2026-07-12T20:11:14.000Z</time>
      </trkpt>
      <trkpt lat="43.3073" lon="-1.68189">
        <ele>323</ele>
        <time>2026-07-12T20:11:16.000Z</time>
      </trkpt>
      <trkpt lat="43.30733" lon="-1.68198">
        <ele>322</ele>
        <time>2026-07-12T20:11:17.000Z</time>
      </trkpt>
      <trkpt lat="43.30737" lon="-1.68202">
        <ele>321</ele>
        <time>2026-07-12T20:11:18.000Z</time>
      </trkpt>
      <trkpt lat="43.30741" lon="-1.68204">
        <ele>322</ele>
        <time>2026-07-12T20:11:18.000Z</time>
      </trkpt>
      <trkpt lat="43.30745" lon="-1.68204">
        <ele>322</ele>
        <time>2026-07-12T20:11:19.000Z</time>
      </trkpt>
      <trkpt lat="43.30763" lon="-1.68193">
        <ele>327</ele>
        <time>2026-07-12T20:11:23.000Z</time>
      </trkpt>
      <trkpt lat="43.30781" lon="-1.68182">
        <ele>331</ele>
        <time>2026-07-12T20:11:26.000Z</time>
      </trkpt>
      <trkpt lat="43.30794" lon="-1.68176">
        <ele>334</ele>
        <time>2026-07-12T20:11:29.000Z</time>
      </trkpt>
      <trkpt lat="43.308" lon="-1.68176">
        <ele>335</ele>
        <time>2026-07-12T20:11:30.000Z</time>
      </trkpt>
      <trkpt lat="43.30805" lon="-1.68177">
        <ele>335</ele>
        <time>2026-07-12T20:11:31.000Z</time>
      </trkpt>
      <trkpt lat="43.30812" lon="-1.68181">
        <ele>335</ele>
        <time>2026-07-12T20:11:32.000Z</time>
      </trkpt>
      <trkpt lat="43.30823" lon="-1.68194">
        <ele>332</ele>
        <time>2026-07-12T20:11:35.000Z</time>
      </trkpt>
      <trkpt lat="43.30835" lon="-1.68217">
        <ele>327</ele>
        <time>2026-07-12T20:11:38.000Z</time>
      </trkpt>
      <trkpt lat="43.30849" lon="-1.68253">
        <ele>320</ele>
        <time>2026-07-12T20:11:44.000Z</time>
      </trkpt>
      <trkpt lat="43.30855" lon="-1.68261">
        <ele>320</ele>
        <time>2026-07-12T20:11:45.000Z</time>
      </trkpt>
      <trkpt lat="43.30863" lon="-1.68264">
        <ele>320</ele>
        <time>2026-07-12T20:11:46.000Z</time>
      </trkpt>
      <trkpt lat="43.30875" lon="-1.68267">
        <ele>322</ele>
        <time>2026-07-12T20:11:49.000Z</time>
      </trkpt>
      <trkpt lat="43.30888" lon="-1.68267">
        <ele>324</ele>
        <time>2026-07-12T20:11:51.000Z</time>
      </trkpt>
      <trkpt lat="43.30897" lon="-1.68269">
        <ele>326</ele>
        <time>2026-07-12T20:11:53.000Z</time>
      </trkpt>
      <trkpt lat="43.30901" lon="-1.68273">
        <ele>325</ele>
        <time>2026-07-12T20:11:53.000Z</time>
      </trkpt>
      <trkpt lat="43.30906" lon="-1.68276">
        <ele>326</ele>
        <time>2026-07-12T20:11:54.000Z</time>
      </trkpt>
      <trkpt lat="43.3091" lon="-1.68281">
        <ele>325</ele>
        <time>2026-07-12T20:11:55.000Z</time>
      </trkpt>
      <trkpt lat="43.30919" lon="-1.683">
        <ele>323</ele>
        <time>2026-07-12T20:11:58.000Z</time>
      </trkpt>
      <trkpt lat="43.30924" lon="-1.68312">
        <ele>321</ele>
        <time>2026-07-12T20:12:00.000Z</time>
      </trkpt>
      <trkpt lat="43.30927" lon="-1.68326">
        <ele>318</ele>
        <time>2026-07-12T20:12:02.000Z</time>
      </trkpt>
      <trkpt lat="43.30927" lon="-1.68347">
        <ele>316</ele>
        <time>2026-07-12T20:12:05.000Z</time>
      </trkpt>
      <trkpt lat="43.30926" lon="-1.68359">
        <ele>316</ele>
        <time>2026-07-12T20:12:06.000Z</time>
      </trkpt>
      <trkpt lat="43.30921" lon="-1.6838">
        <ele>314</ele>
        <time>2026-07-12T20:12:09.000Z</time>
      </trkpt>
      <trkpt lat="43.30917" lon="-1.68394">
        <ele>313</ele>
        <time>2026-07-12T20:12:11.000Z</time>
      </trkpt>
      <trkpt lat="43.30904" lon="-1.68423">
        <ele>310</ele>
        <time>2026-07-12T20:12:16.000Z</time>
      </trkpt>
      <trkpt lat="43.30902" lon="-1.6843">
        <ele>309</ele>
        <time>2026-07-12T20:12:16.000Z</time>
      </trkpt>
      <trkpt lat="43.30901" lon="-1.68436">
        <ele>309</ele>
        <time>2026-07-12T20:12:17.000Z</time>
      </trkpt>
      <trkpt lat="43.309" lon="-1.68443">
        <ele>309</ele>
        <time>2026-07-12T20:12:18.000Z</time>
      </trkpt>
      <trkpt lat="43.309" lon="-1.6845">
        <ele>309</ele>
        <time>2026-07-12T20:12:19.000Z</time>
      </trkpt>
      <trkpt lat="43.30899" lon="-1.68455">
        <ele>308</ele>
        <time>2026-07-12T20:12:20.000Z</time>
      </trkpt>
      <trkpt lat="43.309" lon="-1.68466">
        <ele>309</ele>
        <time>2026-07-12T20:12:21.000Z</time>
      </trkpt>
      <trkpt lat="43.309" lon="-1.68466">
        <ele>309</ele>
        <time>2026-07-12T20:12:21.000Z</time>
      </trkpt>
      <trkpt lat="43.30902" lon="-1.6846">
        <ele>309</ele>
        <time>2026-07-12T20:12:22.000Z</time>
      </trkpt>
      <trkpt lat="43.30904" lon="-1.68454">
        <ele>310</ele>
        <time>2026-07-12T20:12:23.000Z</time>
      </trkpt>
      <trkpt lat="43.30906" lon="-1.68447">
        <ele>310</ele>
        <time>2026-07-12T20:12:24.000Z</time>
      </trkpt>
      <trkpt lat="43.30909" lon="-1.6844">
        <ele>311</ele>
        <time>2026-07-12T20:12:25.000Z</time>
      </trkpt>
      <trkpt lat="43.30911" lon="-1.68432">
        <ele>311</ele>
        <time>2026-07-12T20:12:26.000Z</time>
      </trkpt>
      <trkpt lat="43.30914" lon="-1.68428">
        <ele>312</ele>
        <time>2026-07-12T20:12:27.000Z</time>
      </trkpt>
      <trkpt lat="43.30918" lon="-1.68424">
        <ele>313</ele>
        <time>2026-07-12T20:12:28.000Z</time>
      </trkpt>
      <trkpt lat="43.30921" lon="-1.68422">
        <ele>313</ele>
        <time>2026-07-12T20:12:28.000Z</time>
      </trkpt>
      <trkpt lat="43.30923" lon="-1.68421">
        <ele>314</ele>
        <time>2026-07-12T20:12:29.000Z</time>
      </trkpt>
      <trkpt lat="43.30928" lon="-1.6842">
        <ele>314</ele>
        <time>2026-07-12T20:12:30.000Z</time>
      </trkpt>
      <trkpt lat="43.30935" lon="-1.6842">
        <ele>315</ele>
        <time>2026-07-12T20:12:31.000Z</time>
      </trkpt>
      <trkpt lat="43.30969" lon="-1.68432">
        <ele>317</ele>
        <time>2026-07-12T20:12:37.000Z</time>
      </trkpt>
      <trkpt lat="43.30969" lon="-1.68432">
        <ele>317</ele>
        <time>2026-07-12T20:12:37.000Z</time>
      </trkpt>
      <trkpt lat="43.31033" lon="-1.68454">
        <ele>316</ele>
        <time>2026-07-12T20:12:49.000Z</time>
      </trkpt>
      <trkpt lat="43.3106" lon="-1.68462">
        <ele>315</ele>
        <time>2026-07-12T20:12:54.000Z</time>
      </trkpt>
      <trkpt lat="43.31094" lon="-1.68471">
        <ele>312</ele>
        <time>2026-07-12T20:13:00.000Z</time>
      </trkpt>
      <trkpt lat="43.31107" lon="-1.68477">
        <ele>311</ele>
        <time>2026-07-12T20:13:02.000Z</time>
      </trkpt>
      <trkpt lat="43.31147" lon="-1.68488">
        <ele>310</ele>
        <time>2026-07-12T20:13:10.000Z</time>
      </trkpt>
      <trkpt lat="43.31178" lon="-1.68491">
        <ele>309</ele>
        <time>2026-07-12T20:13:15.000Z</time>
      </trkpt>
      <trkpt lat="43.3119" lon="-1.68491">
        <ele>309</ele>
        <time>2026-07-12T20:13:17.000Z</time>
      </trkpt>
      <trkpt lat="43.31202" lon="-1.68485">
        <ele>309</ele>
        <time>2026-07-12T20:13:19.000Z</time>
      </trkpt>
      <trkpt lat="43.31206" lon="-1.68481">
        <ele>310</ele>
        <time>2026-07-12T20:13:20.000Z</time>
      </trkpt>
      <trkpt lat="43.31214" lon="-1.68481">
        <ele>309</ele>
        <time>2026-07-12T20:13:22.000Z</time>
      </trkpt>
      <trkpt lat="43.31217" lon="-1.68482">
        <ele>309</ele>
        <time>2026-07-12T20:13:22.000Z</time>
      </trkpt>
      <trkpt lat="43.31234" lon="-1.68486">
        <ele>307</ele>
        <time>2026-07-12T20:13:25.000Z</time>
      </trkpt>
      <trkpt lat="43.31237" lon="-1.68487">
        <ele>307</ele>
        <time>2026-07-12T20:13:26.000Z</time>
      </trkpt>
      <trkpt lat="43.31251" lon="-1.6849">
        <ele>306</ele>
        <time>2026-07-12T20:13:28.000Z</time>
      </trkpt>
      <trkpt lat="43.31286" lon="-1.68498">
        <ele>301</ele>
        <time>2026-07-12T20:13:35.000Z</time>
      </trkpt>
      <trkpt lat="43.3129" lon="-1.68497">
        <ele>301</ele>
        <time>2026-07-12T20:13:36.000Z</time>
      </trkpt>
      <trkpt lat="43.31296" lon="-1.68495">
        <ele>301</ele>
        <time>2026-07-12T20:13:37.000Z</time>
      </trkpt>
      <trkpt lat="43.313" lon="-1.68493">
        <ele>301</ele>
        <time>2026-07-12T20:13:37.000Z</time>
      </trkpt>
      <trkpt lat="43.31313" lon="-1.68483">
        <ele>303</ele>
        <time>2026-07-12T20:13:40.000Z</time>
      </trkpt>
      <trkpt lat="43.31319" lon="-1.68481">
        <ele>303</ele>
        <time>2026-07-12T20:13:41.000Z</time>
      </trkpt>
      <trkpt lat="43.31327" lon="-1.68479">
        <ele>303</ele>
        <time>2026-07-12T20:13:43.000Z</time>
      </trkpt>
      <trkpt lat="43.31338" lon="-1.68478">
        <ele>303</ele>
        <time>2026-07-12T20:13:45.000Z</time>
      </trkpt>
      <trkpt lat="43.31343" lon="-1.68479">
        <ele>303</ele>
        <time>2026-07-12T20:13:45.000Z</time>
      </trkpt>
      <trkpt lat="43.31348" lon="-1.68482">
        <ele>302</ele>
        <time>2026-07-12T20:13:46.000Z</time>
      </trkpt>
      <trkpt lat="43.31361" lon="-1.68492">
        <ele>299</ele>
        <time>2026-07-12T20:13:49.000Z</time>
      </trkpt>
      <trkpt lat="43.31365" lon="-1.68494">
        <ele>299</ele>
        <time>2026-07-12T20:13:50.000Z</time>
      </trkpt>
      <trkpt lat="43.3137" lon="-1.68495">
        <ele>298</ele>
        <time>2026-07-12T20:13:51.000Z</time>
      </trkpt>
      <trkpt lat="43.31379" lon="-1.68495">
        <ele>298</ele>
        <time>2026-07-12T20:13:52.000Z</time>
      </trkpt>
      <trkpt lat="43.314" lon="-1.68491">
        <ele>299</ele>
        <time>2026-07-12T20:13:56.000Z</time>
      </trkpt>
      <trkpt lat="43.31415" lon="-1.6849">
        <ele>300</ele>
        <time>2026-07-12T20:13:59.000Z</time>
      </trkpt>
      <trkpt lat="43.31424" lon="-1.68489">
        <ele>299</ele>
        <time>2026-07-12T20:14:00.000Z</time>
      </trkpt>
      <trkpt lat="43.31429" lon="-1.6849">
        <ele>299</ele>
        <time>2026-07-12T20:14:01.000Z</time>
      </trkpt>
      <trkpt lat="43.31434" lon="-1.6849">
        <ele>298</ele>
        <time>2026-07-12T20:14:02.000Z</time>
      </trkpt>
      <trkpt lat="43.31441" lon="-1.6849">
        <ele>298</ele>
        <time>2026-07-12T20:14:03.000Z</time>
      </trkpt>
      <trkpt lat="43.31449" lon="-1.68489">
        <ele>297</ele>
        <time>2026-07-12T20:14:05.000Z</time>
      </trkpt>
      <trkpt lat="43.31455" lon="-1.68488">
        <ele>297</ele>
        <time>2026-07-12T20:14:06.000Z</time>
      </trkpt>
      <trkpt lat="43.31461" lon="-1.6849">
        <ele>296</ele>
        <time>2026-07-12T20:14:07.000Z</time>
      </trkpt>
      <trkpt lat="43.31466" lon="-1.68492">
        <ele>295</ele>
        <time>2026-07-12T20:14:08.000Z</time>
      </trkpt>
      <trkpt lat="43.31469" lon="-1.68494">
        <ele>294</ele>
        <time>2026-07-12T20:14:09.000Z</time>
      </trkpt>
      <trkpt lat="43.31481" lon="-1.68505">
        <ele>290</ele>
        <time>2026-07-12T20:14:11.000Z</time>
      </trkpt>
      <trkpt lat="43.31486" lon="-1.68509">
        <ele>289</ele>
        <time>2026-07-12T20:14:12.000Z</time>
      </trkpt>
      <trkpt lat="43.31491" lon="-1.68511">
        <ele>288</ele>
        <time>2026-07-12T20:14:13.000Z</time>
      </trkpt>
      <trkpt lat="43.31496" lon="-1.68511">
        <ele>288</ele>
        <time>2026-07-12T20:14:14.000Z</time>
      </trkpt>
      <trkpt lat="43.31502" lon="-1.68511">
        <ele>287</ele>
        <time>2026-07-12T20:14:15.000Z</time>
      </trkpt>
      <trkpt lat="43.3151" lon="-1.68509">
        <ele>287</ele>
        <time>2026-07-12T20:14:16.000Z</time>
      </trkpt>
      <trkpt lat="43.31523" lon="-1.68507">
        <ele>287</ele>
        <time>2026-07-12T20:14:19.000Z</time>
      </trkpt>
      <trkpt lat="43.31532" lon="-1.68509">
        <ele>286</ele>
        <time>2026-07-12T20:14:20.000Z</time>
      </trkpt>
      <trkpt lat="43.31537" lon="-1.6851">
        <ele>285</ele>
        <time>2026-07-12T20:14:21.000Z</time>
      </trkpt>
      <trkpt lat="43.31546" lon="-1.68511">
        <ele>284</ele>
        <time>2026-07-12T20:14:23.000Z</time>
      </trkpt>
      <trkpt lat="43.31551" lon="-1.6851">
        <ele>284</ele>
        <time>2026-07-12T20:14:24.000Z</time>
      </trkpt>
      <trkpt lat="43.3156" lon="-1.68508">
        <ele>284</ele>
        <time>2026-07-12T20:14:25.000Z</time>
      </trkpt>
      <trkpt lat="43.31567" lon="-1.68502">
        <ele>285</ele>
        <time>2026-07-12T20:14:27.000Z</time>
      </trkpt>
      <trkpt lat="43.31573" lon="-1.68498">
        <ele>285</ele>
        <time>2026-07-12T20:14:28.000Z</time>
      </trkpt>
      <trkpt lat="43.31577" lon="-1.68496">
        <ele>286</ele>
        <time>2026-07-12T20:14:29.000Z</time>
      </trkpt>
      <trkpt lat="43.31581" lon="-1.68496">
        <ele>285</ele>
        <time>2026-07-12T20:14:30.000Z</time>
      </trkpt>
      <trkpt lat="43.31588" lon="-1.68498">
        <ele>284</ele>
        <time>2026-07-12T20:14:31.000Z</time>
      </trkpt>
      <trkpt lat="43.31607" lon="-1.68506">
        <ele>282</ele>
        <time>2026-07-12T20:14:34.000Z</time>
      </trkpt>
      <trkpt lat="43.31629" lon="-1.68514">
        <ele>279</ele>
        <time>2026-07-12T20:14:38.000Z</time>
      </trkpt>
      <trkpt lat="43.31646" lon="-1.68519">
        <ele>277</ele>
        <time>2026-07-12T20:14:41.000Z</time>
      </trkpt>
      <trkpt lat="43.31664" lon="-1.68521">
        <ele>275</ele>
        <time>2026-07-12T20:14:45.000Z</time>
      </trkpt>
      <trkpt lat="43.31678" lon="-1.6852">
        <ele>274</ele>
        <time>2026-07-12T20:14:47.000Z</time>
      </trkpt>
      <trkpt lat="43.3169" lon="-1.68517">
        <ele>274</ele>
        <time>2026-07-12T20:14:49.000Z</time>
      </trkpt>
      <trkpt lat="43.31701" lon="-1.68514">
        <ele>273</ele>
        <time>2026-07-12T20:14:51.000Z</time>
      </trkpt>
      <trkpt lat="43.3171" lon="-1.68509">
        <ele>274</ele>
        <time>2026-07-12T20:14:53.000Z</time>
      </trkpt>
      <trkpt lat="43.31716" lon="-1.68505">
        <ele>274</ele>
        <time>2026-07-12T20:14:54.000Z</time>
      </trkpt>
      <trkpt lat="43.31722" lon="-1.685">
        <ele>275</ele>
        <time>2026-07-12T20:14:56.000Z</time>
      </trkpt>
      <trkpt lat="43.31727" lon="-1.68497">
        <ele>275</ele>
        <time>2026-07-12T20:14:57.000Z</time>
      </trkpt>
      <trkpt lat="43.31732" lon="-1.68496">
        <ele>275</ele>
        <time>2026-07-12T20:14:57.000Z</time>
      </trkpt>
      <trkpt lat="43.31738" lon="-1.68497">
        <ele>274</ele>
        <time>2026-07-12T20:14:58.000Z</time>
      </trkpt>
      <trkpt lat="43.31743" lon="-1.68497">
        <ele>274</ele>
        <time>2026-07-12T20:14:59.000Z</time>
      </trkpt>
      <trkpt lat="43.31751" lon="-1.685">
        <ele>272</ele>
        <time>2026-07-12T20:15:01.000Z</time>
      </trkpt>
      <trkpt lat="43.31761" lon="-1.68503">
        <ele>270</ele>
        <time>2026-07-12T20:15:03.000Z</time>
      </trkpt>
      <trkpt lat="43.31767" lon="-1.68503">
        <ele>269</ele>
        <time>2026-07-12T20:15:04.000Z</time>
      </trkpt>
      <trkpt lat="43.31773" lon="-1.68503">
        <ele>269</ele>
        <time>2026-07-12T20:15:05.000Z</time>
      </trkpt>
      <trkpt lat="43.31778" lon="-1.68503">
        <ele>268</ele>
        <time>2026-07-12T20:15:06.000Z</time>
      </trkpt>
      <trkpt lat="43.31786" lon="-1.68502">
        <ele>268</ele>
        <time>2026-07-12T20:15:07.000Z</time>
      </trkpt>
      <trkpt lat="43.31793" lon="-1.685">
        <ele>267</ele>
        <time>2026-07-12T20:15:08.000Z</time>
      </trkpt>
      <trkpt lat="43.31803" lon="-1.68498">
        <ele>267</ele>
        <time>2026-07-12T20:15:10.000Z</time>
      </trkpt>
      <trkpt lat="43.3181" lon="-1.68495">
        <ele>267</ele>
        <time>2026-07-12T20:15:11.000Z</time>
      </trkpt>
      <trkpt lat="43.31816" lon="-1.68494">
        <ele>267</ele>
        <time>2026-07-12T20:15:13.000Z</time>
      </trkpt>
      <trkpt lat="43.31822" lon="-1.68495">
        <ele>266</ele>
        <time>2026-07-12T20:15:14.000Z</time>
      </trkpt>
      <trkpt lat="43.31827" lon="-1.68496">
        <ele>265</ele>
        <time>2026-07-12T20:15:15.000Z</time>
      </trkpt>
      <trkpt lat="43.31832" lon="-1.68498">
        <ele>264</ele>
        <time>2026-07-12T20:15:15.000Z</time>
      </trkpt>
      <trkpt lat="43.31838" lon="-1.68501">
        <ele>262</ele>
        <time>2026-07-12T20:15:17.000Z</time>
      </trkpt>
      <trkpt lat="43.31843" lon="-1.68502">
        <ele>262</ele>
        <time>2026-07-12T20:15:18.000Z</time>
      </trkpt>
      <trkpt lat="43.31847" lon="-1.68502">
        <ele>261</ele>
        <time>2026-07-12T20:15:18.000Z</time>
      </trkpt>
      <trkpt lat="43.31852" lon="-1.68502">
        <ele>261</ele>
        <time>2026-07-12T20:15:19.000Z</time>
      </trkpt>
      <trkpt lat="43.31857" lon="-1.68502">
        <ele>261</ele>
        <time>2026-07-12T20:15:20.000Z</time>
      </trkpt>
      <trkpt lat="43.31869" lon="-1.68499">
        <ele>261</ele>
        <time>2026-07-12T20:15:22.000Z</time>
      </trkpt>
      <trkpt lat="43.31876" lon="-1.68497">
        <ele>261</ele>
        <time>2026-07-12T20:15:23.000Z</time>
      </trkpt>
      <trkpt lat="43.31882" lon="-1.68496">
        <ele>260</ele>
        <time>2026-07-12T20:15:25.000Z</time>
      </trkpt>
      <trkpt lat="43.3189" lon="-1.68498">
        <ele>259</ele>
        <time>2026-07-12T20:15:26.000Z</time>
      </trkpt>
      <trkpt lat="43.31899" lon="-1.68501">
        <ele>258</ele>
        <time>2026-07-12T20:15:28.000Z</time>
      </trkpt>
      <trkpt lat="43.31906" lon="-1.68503">
        <ele>257</ele>
        <time>2026-07-12T20:15:29.000Z</time>
      </trkpt>
      <trkpt lat="43.31912" lon="-1.68503">
        <ele>257</ele>
        <time>2026-07-12T20:15:30.000Z</time>
      </trkpt>
      <trkpt lat="43.3192" lon="-1.68501">
        <ele>257</ele>
        <time>2026-07-12T20:15:31.000Z</time>
      </trkpt>
      <trkpt lat="43.31928" lon="-1.68503">
        <ele>256</ele>
        <time>2026-07-12T20:15:33.000Z</time>
      </trkpt>
      <trkpt lat="43.3194" lon="-1.68506">
        <ele>254</ele>
        <time>2026-07-12T20:15:35.000Z</time>
      </trkpt>
      <trkpt lat="43.31947" lon="-1.68508">
        <ele>254</ele>
        <time>2026-07-12T20:15:36.000Z</time>
      </trkpt>
      <trkpt lat="43.31958" lon="-1.68513">
        <ele>252</ele>
        <time>2026-07-12T20:15:38.000Z</time>
      </trkpt>
      <trkpt lat="43.31963" lon="-1.68515">
        <ele>251</ele>
        <time>2026-07-12T20:15:39.000Z</time>
      </trkpt>
      <trkpt lat="43.31966" lon="-1.68516">
        <ele>251</ele>
        <time>2026-07-12T20:15:40.000Z</time>
      </trkpt>
      <trkpt lat="43.31968" lon="-1.68517">
        <ele>250</ele>
        <time>2026-07-12T20:15:40.000Z</time>
      </trkpt>
      <trkpt lat="43.31971" lon="-1.68517">
        <ele>250</ele>
        <time>2026-07-12T20:15:41.000Z</time>
      </trkpt>
      <trkpt lat="43.31974" lon="-1.68517">
        <ele>250</ele>
        <time>2026-07-12T20:15:41.000Z</time>
      </trkpt>
      <trkpt lat="43.31975" lon="-1.68516">
        <ele>250</ele>
        <time>2026-07-12T20:15:41.000Z</time>
      </trkpt>
      <trkpt lat="43.31979" lon="-1.68516">
        <ele>250</ele>
        <time>2026-07-12T20:15:42.000Z</time>
      </trkpt>
      <trkpt lat="43.31983" lon="-1.68517">
        <ele>250</ele>
        <time>2026-07-12T20:15:43.000Z</time>
      </trkpt>
      <trkpt lat="43.31991" lon="-1.68518">
        <ele>249</ele>
        <time>2026-07-12T20:15:44.000Z</time>
      </trkpt>
      <trkpt lat="43.31997" lon="-1.68521">
        <ele>248</ele>
        <time>2026-07-12T20:15:45.000Z</time>
      </trkpt>
      <trkpt lat="43.32003" lon="-1.68523">
        <ele>247</ele>
        <time>2026-07-12T20:15:47.000Z</time>
      </trkpt>
      <trkpt lat="43.32009" lon="-1.68523">
        <ele>246</ele>
        <time>2026-07-12T20:15:48.000Z</time>
      </trkpt>
      <trkpt lat="43.32017" lon="-1.68521">
        <ele>246</ele>
        <time>2026-07-12T20:15:49.000Z</time>
      </trkpt>
      <trkpt lat="43.32027" lon="-1.68516">
        <ele>246</ele>
        <time>2026-07-12T20:15:51.000Z</time>
      </trkpt>
      <trkpt lat="43.32033" lon="-1.68512">
        <ele>246</ele>
        <time>2026-07-12T20:15:52.000Z</time>
      </trkpt>
      <trkpt lat="43.3204" lon="-1.68504">
        <ele>246</ele>
        <time>2026-07-12T20:15:54.000Z</time>
      </trkpt>
      <trkpt lat="43.32048" lon="-1.68488">
        <ele>247</ele>
        <time>2026-07-12T20:15:56.000Z</time>
      </trkpt>
      <trkpt lat="43.32058" lon="-1.68464">
        <ele>248</ele>
        <time>2026-07-12T20:16:00.000Z</time>
      </trkpt>
      <trkpt lat="43.32064" lon="-1.68448">
        <ele>248</ele>
        <time>2026-07-12T20:16:02.000Z</time>
      </trkpt>
      <trkpt lat="43.32067" lon="-1.68439">
        <ele>249</ele>
        <time>2026-07-12T20:16:04.000Z</time>
      </trkpt>
      <trkpt lat="43.32071" lon="-1.68433">
        <ele>249</ele>
        <time>2026-07-12T20:16:05.000Z</time>
      </trkpt>
      <trkpt lat="43.32074" lon="-1.68429">
        <ele>248</ele>
        <time>2026-07-12T20:16:05.000Z</time>
      </trkpt>
      <trkpt lat="43.32076" lon="-1.68428">
        <ele>248</ele>
        <time>2026-07-12T20:16:06.000Z</time>
      </trkpt>
      <trkpt lat="43.32078" lon="-1.68427">
        <ele>248</ele>
        <time>2026-07-12T20:16:06.000Z</time>
      </trkpt>
      <trkpt lat="43.32079" lon="-1.68427">
        <ele>248</ele>
        <time>2026-07-12T20:16:06.000Z</time>
      </trkpt>
      <trkpt lat="43.32081" lon="-1.68426">
        <ele>248</ele>
        <time>2026-07-12T20:16:07.000Z</time>
      </trkpt>
      <trkpt lat="43.32083" lon="-1.68426">
        <ele>247</ele>
        <time>2026-07-12T20:16:07.000Z</time>
      </trkpt>
      <trkpt lat="43.32086" lon="-1.68426">
        <ele>248</ele>
        <time>2026-07-12T20:16:08.000Z</time>
      </trkpt>
      <trkpt lat="43.32087" lon="-1.68426">
        <ele>248</ele>
        <time>2026-07-12T20:16:08.000Z</time>
      </trkpt>
      <trkpt lat="43.3209" lon="-1.68427">
        <ele>248</ele>
        <time>2026-07-12T20:16:08.000Z</time>
      </trkpt>
      <trkpt lat="43.32093" lon="-1.68428">
        <ele>249</ele>
        <time>2026-07-12T20:16:09.000Z</time>
      </trkpt>
      <trkpt lat="43.32094" lon="-1.68428">
        <ele>249</ele>
        <time>2026-07-12T20:16:09.000Z</time>
      </trkpt>
      <trkpt lat="43.32095" lon="-1.68429">
        <ele>249</ele>
        <time>2026-07-12T20:16:09.000Z</time>
      </trkpt>
      <trkpt lat="43.32096" lon="-1.6843">
        <ele>249</ele>
        <time>2026-07-12T20:16:09.000Z</time>
      </trkpt>
      <trkpt lat="43.32097" lon="-1.68431">
        <ele>249</ele>
        <time>2026-07-12T20:16:10.000Z</time>
      </trkpt>
      <trkpt lat="43.32098" lon="-1.68435">
        <ele>249</ele>
        <time>2026-07-12T20:16:10.000Z</time>
      </trkpt>
      <trkpt lat="43.32101" lon="-1.68445">
        <ele>249</ele>
        <time>2026-07-12T20:16:12.000Z</time>
      </trkpt>
      <trkpt lat="43.32104" lon="-1.68456">
        <ele>248</ele>
        <time>2026-07-12T20:16:13.000Z</time>
      </trkpt>
      <trkpt lat="43.32109" lon="-1.68473">
        <ele>248</ele>
        <time>2026-07-12T20:16:15.000Z</time>
      </trkpt>
      <trkpt lat="43.32111" lon="-1.68477">
        <ele>248</ele>
        <time>2026-07-12T20:16:16.000Z</time>
      </trkpt>
      <trkpt lat="43.32112" lon="-1.6848">
        <ele>247</ele>
        <time>2026-07-12T20:16:17.000Z</time>
      </trkpt>
      <trkpt lat="43.32119" lon="-1.6849">
        <ele>248</ele>
        <time>2026-07-12T20:16:18.000Z</time>
      </trkpt>
      <trkpt lat="43.32129" lon="-1.68501">
        <ele>248</ele>
        <time>2026-07-12T20:16:21.000Z</time>
      </trkpt>
      <trkpt lat="43.3213" lon="-1.68504">
        <ele>247</ele>
        <time>2026-07-12T20:16:21.000Z</time>
      </trkpt>
      <trkpt lat="43.32132" lon="-1.68508">
        <ele>247</ele>
        <time>2026-07-12T20:16:22.000Z</time>
      </trkpt>
      <trkpt lat="43.32134" lon="-1.6853">
        <ele>242</ele>
        <time>2026-07-12T20:16:25.000Z</time>
      </trkpt>
      <trkpt lat="43.32138" lon="-1.6856">
        <ele>236</ele>
        <time>2026-07-12T20:16:28.000Z</time>
      </trkpt>
      <trkpt lat="43.32139" lon="-1.68566">
        <ele>234</ele>
        <time>2026-07-12T20:16:29.000Z</time>
      </trkpt>
      <trkpt lat="43.32141" lon="-1.6857">
        <ele>234</ele>
        <time>2026-07-12T20:16:30.000Z</time>
      </trkpt>
      <trkpt lat="43.32142" lon="-1.68574">
        <ele>233</ele>
        <time>2026-07-12T20:16:30.000Z</time>
      </trkpt>
      <trkpt lat="43.32144" lon="-1.68577">
        <ele>232</ele>
        <time>2026-07-12T20:16:31.000Z</time>
      </trkpt>
      <trkpt lat="43.32159" lon="-1.68592">
        <ele>231</ele>
        <time>2026-07-12T20:16:34.000Z</time>
      </trkpt>
      <trkpt lat="43.32198" lon="-1.68592">
        <ele>234</ele>
        <time>2026-07-12T20:16:41.000Z</time>
      </trkpt>
      <trkpt lat="43.32229" lon="-1.68595">
        <ele>235</ele>
        <time>2026-07-12T20:16:47.000Z</time>
      </trkpt>
      <trkpt lat="43.32234" lon="-1.68596">
        <ele>235</ele>
        <time>2026-07-12T20:16:48.000Z</time>
      </trkpt>
      <trkpt lat="43.32239" lon="-1.686">
        <ele>235</ele>
        <time>2026-07-12T20:16:49.000Z</time>
      </trkpt>
      <trkpt lat="43.32257" lon="-1.68614">
        <ele>233</ele>
        <time>2026-07-12T20:16:52.000Z</time>
      </trkpt>
      <trkpt lat="43.32273" lon="-1.68623">
        <ele>231</ele>
        <time>2026-07-12T20:16:55.000Z</time>
      </trkpt>
      <trkpt lat="43.32291" lon="-1.68633">
        <ele>228</ele>
        <time>2026-07-12T20:16:59.000Z</time>
      </trkpt>
      <trkpt lat="43.32306" lon="-1.68638">
        <ele>227</ele>
        <time>2026-07-12T20:17:02.000Z</time>
      </trkpt>
      <trkpt lat="43.32318" lon="-1.6864">
        <ele>226</ele>
        <time>2026-07-12T20:17:04.000Z</time>
      </trkpt>
      <trkpt lat="43.32326" lon="-1.68641">
        <ele>226</ele>
        <time>2026-07-12T20:17:05.000Z</time>
      </trkpt>
      <trkpt lat="43.32331" lon="-1.68645">
        <ele>224</ele>
        <time>2026-07-12T20:17:06.000Z</time>
      </trkpt>
      <trkpt lat="43.32335" lon="-1.68649">
        <ele>223</ele>
        <time>2026-07-12T20:17:07.000Z</time>
      </trkpt>
      <trkpt lat="43.32341" lon="-1.68656">
        <ele>220</ele>
        <time>2026-07-12T20:17:09.000Z</time>
      </trkpt>
      <trkpt lat="43.32347" lon="-1.68662">
        <ele>218</ele>
        <time>2026-07-12T20:17:10.000Z</time>
      </trkpt>
      <trkpt lat="43.32353" lon="-1.68664">
        <ele>217</ele>
        <time>2026-07-12T20:17:11.000Z</time>
      </trkpt>
      <trkpt lat="43.32359" lon="-1.68665">
        <ele>216</ele>
        <time>2026-07-12T20:17:12.000Z</time>
      </trkpt>
      <trkpt lat="43.32365" lon="-1.68664">
        <ele>216</ele>
        <time>2026-07-12T20:17:13.000Z</time>
      </trkpt>
      <trkpt lat="43.32376" lon="-1.6866">
        <ele>217</ele>
        <time>2026-07-12T20:17:15.000Z</time>
      </trkpt>
      <trkpt lat="43.32397" lon="-1.68645">
        <ele>220</ele>
        <time>2026-07-12T20:17:19.000Z</time>
      </trkpt>
      <trkpt lat="43.3241" lon="-1.68635">
        <ele>222</ele>
        <time>2026-07-12T20:17:22.000Z</time>
      </trkpt>
      <trkpt lat="43.32417" lon="-1.68631">
        <ele>223</ele>
        <time>2026-07-12T20:17:23.000Z</time>
      </trkpt>
      <trkpt lat="43.32422" lon="-1.68628">
        <ele>224</ele>
        <time>2026-07-12T20:17:24.000Z</time>
      </trkpt>
      <trkpt lat="43.32424" lon="-1.68627">
        <ele>225</ele>
        <time>2026-07-12T20:17:25.000Z</time>
      </trkpt>
      <trkpt lat="43.32428" lon="-1.68627">
        <ele>225</ele>
        <time>2026-07-12T20:17:25.000Z</time>
      </trkpt>
      <trkpt lat="43.32433" lon="-1.68627">
        <ele>224</ele>
        <time>2026-07-12T20:17:26.000Z</time>
      </trkpt>
      <trkpt lat="43.32443" lon="-1.68629">
        <ele>223</ele>
        <time>2026-07-12T20:17:28.000Z</time>
      </trkpt>
      <trkpt lat="43.32456" lon="-1.68632">
        <ele>222</ele>
        <time>2026-07-12T20:17:30.000Z</time>
      </trkpt>
      <trkpt lat="43.32465" lon="-1.68636">
        <ele>221</ele>
        <time>2026-07-12T20:17:32.000Z</time>
      </trkpt>
      <trkpt lat="43.3247" lon="-1.68639">
        <ele>219</ele>
        <time>2026-07-12T20:17:33.000Z</time>
      </trkpt>
      <trkpt lat="43.32474" lon="-1.68642">
        <ele>218</ele>
        <time>2026-07-12T20:17:34.000Z</time>
      </trkpt>
      <trkpt lat="43.32486" lon="-1.68652">
        <ele>214</ele>
        <time>2026-07-12T20:17:36.000Z</time>
      </trkpt>
      <trkpt lat="43.32503" lon="-1.68666">
        <ele>209</ele>
        <time>2026-07-12T20:17:40.000Z</time>
      </trkpt>
      <trkpt lat="43.32511" lon="-1.68675">
        <ele>208</ele>
        <time>2026-07-12T20:17:42.000Z</time>
      </trkpt>
      <trkpt lat="43.3252" lon="-1.68683">
        <ele>207</ele>
        <time>2026-07-12T20:17:44.000Z</time>
      </trkpt>
      <trkpt lat="43.32527" lon="-1.68688">
        <ele>206</ele>
        <time>2026-07-12T20:17:45.000Z</time>
      </trkpt>
      <trkpt lat="43.32531" lon="-1.6869">
        <ele>206</ele>
        <time>2026-07-12T20:17:46.000Z</time>
      </trkpt>
      <trkpt lat="43.32537" lon="-1.68691">
        <ele>205</ele>
        <time>2026-07-12T20:17:47.000Z</time>
      </trkpt>
      <trkpt lat="43.32545" lon="-1.6869">
        <ele>205</ele>
        <time>2026-07-12T20:17:48.000Z</time>
      </trkpt>
      <trkpt lat="43.32555" lon="-1.68687">
        <ele>206</ele>
        <time>2026-07-12T20:17:50.000Z</time>
      </trkpt>
      <trkpt lat="43.32566" lon="-1.68682">
        <ele>207</ele>
        <time>2026-07-12T20:17:52.000Z</time>
      </trkpt>
      <trkpt lat="43.32571" lon="-1.68681">
        <ele>207</ele>
        <time>2026-07-12T20:17:53.000Z</time>
      </trkpt>
      <trkpt lat="43.32573" lon="-1.68681">
        <ele>207</ele>
        <time>2026-07-12T20:17:53.000Z</time>
      </trkpt>
      <trkpt lat="43.3258" lon="-1.68679">
        <ele>208</ele>
        <time>2026-07-12T20:17:55.000Z</time>
      </trkpt>
      <trkpt lat="43.32584" lon="-1.68678">
        <ele>208</ele>
        <time>2026-07-12T20:17:55.000Z</time>
      </trkpt>
      <trkpt lat="43.32588" lon="-1.68677">
        <ele>208</ele>
        <time>2026-07-12T20:17:56.000Z</time>
      </trkpt>
      <trkpt lat="43.32591" lon="-1.68676">
        <ele>208</ele>
        <time>2026-07-12T20:17:57.000Z</time>
      </trkpt>
      <trkpt lat="43.32597" lon="-1.68672">
        <ele>209</ele>
        <time>2026-07-12T20:17:58.000Z</time>
      </trkpt>
      <trkpt lat="43.32603" lon="-1.68668">
        <ele>210</ele>
        <time>2026-07-12T20:17:59.000Z</time>
      </trkpt>
      <trkpt lat="43.32609" lon="-1.68666">
        <ele>210</ele>
        <time>2026-07-12T20:18:00.000Z</time>
      </trkpt>
      <trkpt lat="43.32615" lon="-1.68665">
        <ele>210</ele>
        <time>2026-07-12T20:18:01.000Z</time>
      </trkpt>
      <trkpt lat="43.32624" lon="-1.68668">
        <ele>209</ele>
        <time>2026-07-12T20:18:03.000Z</time>
      </trkpt>
      <trkpt lat="43.32637" lon="-1.68673">
        <ele>206</ele>
        <time>2026-07-12T20:18:05.000Z</time>
      </trkpt>
      <trkpt lat="43.32649" lon="-1.68677">
        <ele>205</ele>
        <time>2026-07-12T20:18:08.000Z</time>
      </trkpt>
      <trkpt lat="43.32663" lon="-1.6868">
        <ele>203</ele>
        <time>2026-07-12T20:18:10.000Z</time>
      </trkpt>
      <trkpt lat="43.32675" lon="-1.68682">
        <ele>202</ele>
        <time>2026-07-12T20:18:12.000Z</time>
      </trkpt>
      <trkpt lat="43.32687" lon="-1.68685">
        <ele>200</ele>
        <time>2026-07-12T20:18:14.000Z</time>
      </trkpt>
      <trkpt lat="43.327" lon="-1.6869">
        <ele>198</ele>
        <time>2026-07-12T20:18:17.000Z</time>
      </trkpt>
      <trkpt lat="43.32717" lon="-1.68699">
        <ele>194</ele>
        <time>2026-07-12T20:18:20.000Z</time>
      </trkpt>
      <trkpt lat="43.32721" lon="-1.68702">
        <ele>193</ele>
        <time>2026-07-12T20:18:21.000Z</time>
      </trkpt>
      <trkpt lat="43.32736" lon="-1.68709">
        <ele>191</ele>
        <time>2026-07-12T20:18:24.000Z</time>
      </trkpt>
      <trkpt lat="43.32754" lon="-1.68716">
        <ele>188</ele>
        <time>2026-07-12T20:18:27.000Z</time>
      </trkpt>
      <trkpt lat="43.32767" lon="-1.68721">
        <ele>185</ele>
        <time>2026-07-12T20:18:29.000Z</time>
      </trkpt>
      <trkpt lat="43.32781" lon="-1.68725">
        <ele>183</ele>
        <time>2026-07-12T20:18:32.000Z</time>
      </trkpt>
      <trkpt lat="43.32787" lon="-1.68725">
        <ele>183</ele>
        <time>2026-07-12T20:18:33.000Z</time>
      </trkpt>
      <trkpt lat="43.32798" lon="-1.68726">
        <ele>181</ele>
        <time>2026-07-12T20:18:35.000Z</time>
      </trkpt>
      <trkpt lat="43.32815" lon="-1.68726">
        <ele>180</ele>
        <time>2026-07-12T20:18:38.000Z</time>
      </trkpt>
      <trkpt lat="43.32827" lon="-1.68725">
        <ele>179</ele>
        <time>2026-07-12T20:18:40.000Z</time>
      </trkpt>
      <trkpt lat="43.32835" lon="-1.68723">
        <ele>179</ele>
        <time>2026-07-12T20:18:42.000Z</time>
      </trkpt>
      <trkpt lat="43.32847" lon="-1.6872">
        <ele>177</ele>
        <time>2026-07-12T20:18:44.000Z</time>
      </trkpt>
      <trkpt lat="43.32866" lon="-1.68712">
        <ele>175</ele>
        <time>2026-07-12T20:18:47.000Z</time>
      </trkpt>
      <trkpt lat="43.3289" lon="-1.68699">
        <ele>172</ele>
        <time>2026-07-12T20:18:52.000Z</time>
      </trkpt>
      <trkpt lat="43.3291" lon="-1.68686">
        <ele>170</ele>
        <time>2026-07-12T20:18:56.000Z</time>
      </trkpt>
      <trkpt lat="43.32913" lon="-1.68683">
        <ele>170</ele>
        <time>2026-07-12T20:18:56.000Z</time>
      </trkpt>
      <trkpt lat="43.32925" lon="-1.68675">
        <ele>169</ele>
        <time>2026-07-12T20:18:59.000Z</time>
      </trkpt>
      <trkpt lat="43.32933" lon="-1.68668">
        <ele>168</ele>
        <time>2026-07-12T20:19:00.000Z</time>
      </trkpt>
      <trkpt lat="43.32943" lon="-1.68658">
        <ele>166</ele>
        <time>2026-07-12T20:19:03.000Z</time>
      </trkpt>
      <trkpt lat="43.32948" lon="-1.68647">
        <ele>165</ele>
        <time>2026-07-12T20:19:04.000Z</time>
      </trkpt>
      <trkpt lat="43.32951" lon="-1.68639">
        <ele>165</ele>
        <time>2026-07-12T20:19:06.000Z</time>
      </trkpt>
      <trkpt lat="43.32952" lon="-1.68637">
        <ele>165</ele>
        <time>2026-07-12T20:19:06.000Z</time>
      </trkpt>
      <trkpt lat="43.32952" lon="-1.68637">
        <ele>165</ele>
        <time>2026-07-12T20:19:06.000Z</time>
      </trkpt>
      <trkpt lat="43.32963" lon="-1.68641">
        <ele>162</ele>
        <time>2026-07-12T20:19:08.000Z</time>
      </trkpt>
      <trkpt lat="43.32968" lon="-1.6864">
        <ele>161</ele>
        <time>2026-07-12T20:19:09.000Z</time>
      </trkpt>
      <trkpt lat="43.32974" lon="-1.68638">
        <ele>159</ele>
        <time>2026-07-12T20:19:10.000Z</time>
      </trkpt>
      <trkpt lat="43.32977" lon="-1.68633">
        <ele>158</ele>
        <time>2026-07-12T20:19:11.000Z</time>
      </trkpt>
      <trkpt lat="43.32978" lon="-1.68627">
        <ele>158</ele>
        <time>2026-07-12T20:19:12.000Z</time>
      </trkpt>
      <trkpt lat="43.32979" lon="-1.68616">
        <ele>158</ele>
        <time>2026-07-12T20:19:13.000Z</time>
      </trkpt>
      <trkpt lat="43.3298" lon="-1.68609">
        <ele>157</ele>
        <time>2026-07-12T20:19:14.000Z</time>
      </trkpt>
      <trkpt lat="43.32984" lon="-1.68604">
        <ele>156</ele>
        <time>2026-07-12T20:19:15.000Z</time>
      </trkpt>
      <trkpt lat="43.32987" lon="-1.68602">
        <ele>155</ele>
        <time>2026-07-12T20:19:15.000Z</time>
      </trkpt>
      <trkpt lat="43.32993" lon="-1.68604">
        <ele>154</ele>
        <time>2026-07-12T20:19:17.000Z</time>
      </trkpt>
      <trkpt lat="43.32998" lon="-1.68606">
        <ele>152</ele>
        <time>2026-07-12T20:19:17.000Z</time>
      </trkpt>
      <trkpt lat="43.33001" lon="-1.68605">
        <ele>151</ele>
        <time>2026-07-12T20:19:18.000Z</time>
      </trkpt>
      <trkpt lat="43.33003" lon="-1.68603">
        <ele>151</ele>
        <time>2026-07-12T20:19:18.000Z</time>
      </trkpt>
      <trkpt lat="43.33004" lon="-1.68595">
        <ele>150</ele>
        <time>2026-07-12T20:19:19.000Z</time>
      </trkpt>
      <trkpt lat="43.33006" lon="-1.68583">
        <ele>149</ele>
        <time>2026-07-12T20:19:21.000Z</time>
      </trkpt>
      <trkpt lat="43.33007" lon="-1.68575">
        <ele>148</ele>
        <time>2026-07-12T20:19:22.000Z</time>
      </trkpt>
      <trkpt lat="43.33008" lon="-1.68561">
        <ele>147</ele>
        <time>2026-07-12T20:19:24.000Z</time>
      </trkpt>
      <trkpt lat="43.33009" lon="-1.68557">
        <ele>146</ele>
        <time>2026-07-12T20:19:24.000Z</time>
      </trkpt>
      <trkpt lat="43.33012" lon="-1.68554">
        <ele>145</ele>
        <time>2026-07-12T20:19:25.000Z</time>
      </trkpt>
      <trkpt lat="43.33019" lon="-1.68553">
        <ele>143</ele>
        <time>2026-07-12T20:19:26.000Z</time>
      </trkpt>
      <trkpt lat="43.33024" lon="-1.68555">
        <ele>142</ele>
        <time>2026-07-12T20:19:27.000Z</time>
      </trkpt>
      <trkpt lat="43.33029" lon="-1.68558">
        <ele>141</ele>
        <time>2026-07-12T20:19:28.000Z</time>
      </trkpt>
      <trkpt lat="43.33033" lon="-1.68564">
        <ele>140</ele>
        <time>2026-07-12T20:19:29.000Z</time>
      </trkpt>
      <trkpt lat="43.33038" lon="-1.6857">
        <ele>140</ele>
        <time>2026-07-12T20:19:31.000Z</time>
      </trkpt>
      <trkpt lat="43.33044" lon="-1.68582">
        <ele>139</ele>
        <time>2026-07-12T20:19:32.000Z</time>
      </trkpt>
      <trkpt lat="43.33047" lon="-1.68586">
        <ele>138</ele>
        <time>2026-07-12T20:19:33.000Z</time>
      </trkpt>
      <trkpt lat="43.33052" lon="-1.68592">
        <ele>137</ele>
        <time>2026-07-12T20:19:34.000Z</time>
      </trkpt>
      <trkpt lat="43.33059" lon="-1.68599">
        <ele>135</ele>
        <time>2026-07-12T20:19:36.000Z</time>
      </trkpt>
      <trkpt lat="43.33067" lon="-1.68606">
        <ele>133</ele>
        <time>2026-07-12T20:19:38.000Z</time>
      </trkpt>
      <trkpt lat="43.33079" lon="-1.68615">
        <ele>130</ele>
        <time>2026-07-12T20:19:40.000Z</time>
      </trkpt>
      <trkpt lat="43.33085" lon="-1.68619">
        <ele>129</ele>
        <time>2026-07-12T20:19:41.000Z</time>
      </trkpt>
      <trkpt lat="43.33094" lon="-1.68626">
        <ele>127</ele>
        <time>2026-07-12T20:19:43.000Z</time>
      </trkpt>
      <trkpt lat="43.33105" lon="-1.68625">
        <ele>125</ele>
        <time>2026-07-12T20:19:45.000Z</time>
      </trkpt>
      <trkpt lat="43.33112" lon="-1.68618">
        <ele>123</ele>
        <time>2026-07-12T20:19:47.000Z</time>
      </trkpt>
      <trkpt lat="43.33121" lon="-1.68611">
        <ele>121</ele>
        <time>2026-07-12T20:19:48.000Z</time>
      </trkpt>
      <trkpt lat="43.33129" lon="-1.68603">
        <ele>119</ele>
        <time>2026-07-12T20:19:50.000Z</time>
      </trkpt>
      <trkpt lat="43.33138" lon="-1.68597">
        <ele>117</ele>
        <time>2026-07-12T20:19:52.000Z</time>
      </trkpt>
      <trkpt lat="43.33142" lon="-1.68592">
        <ele>116</ele>
        <time>2026-07-12T20:19:53.000Z</time>
      </trkpt>
      <trkpt lat="43.33143" lon="-1.68591">
        <ele>115</ele>
        <time>2026-07-12T20:19:53.000Z</time>
      </trkpt>
      <trkpt lat="43.33143" lon="-1.68591">
        <ele>115</ele>
        <time>2026-07-12T20:19:53.000Z</time>
      </trkpt>
      <trkpt lat="43.33153" lon="-1.68607">
        <ele>114</ele>
        <time>2026-07-12T20:19:56.000Z</time>
      </trkpt>
      <trkpt lat="43.33158" lon="-1.68623">
        <ele>113</ele>
        <time>2026-07-12T20:19:58.000Z</time>
      </trkpt>
      <trkpt lat="43.33161" lon="-1.68638">
        <ele>113</ele>
        <time>2026-07-12T20:20:00.000Z</time>
      </trkpt>
      <trkpt lat="43.33161" lon="-1.68652">
        <ele>113</ele>
        <time>2026-07-12T20:20:02.000Z</time>
      </trkpt>
      <trkpt lat="43.33162" lon="-1.6867">
        <ele>113</ele>
        <time>2026-07-12T20:20:04.000Z</time>
      </trkpt>
      <trkpt lat="43.33162" lon="-1.68672">
        <ele>113</ele>
        <time>2026-07-12T20:20:05.000Z</time>
      </trkpt>
      <trkpt lat="43.3316" lon="-1.68693">
        <ele>114</ele>
        <time>2026-07-12T20:20:07.000Z</time>
      </trkpt>
      <trkpt lat="43.3316" lon="-1.68694">
        <ele>114</ele>
        <time>2026-07-12T20:20:07.000Z</time>
      </trkpt>
      <trkpt lat="43.33161" lon="-1.68696">
        <ele>114</ele>
        <time>2026-07-12T20:20:08.000Z</time>
      </trkpt>
      <trkpt lat="43.33166" lon="-1.687">
        <ele>113</ele>
        <time>2026-07-12T20:20:09.000Z</time>
      </trkpt>
      <trkpt lat="43.33175" lon="-1.68704">
        <ele>112</ele>
        <time>2026-07-12T20:20:10.000Z</time>
      </trkpt>
      <trkpt lat="43.33175" lon="-1.68704">
        <ele>112</ele>
        <time>2026-07-12T20:20:10.000Z</time>
      </trkpt>
      <trkpt lat="43.33178" lon="-1.68695">
        <ele>111</ele>
        <time>2026-07-12T20:20:12.000Z</time>
      </trkpt>
      <trkpt lat="43.33182" lon="-1.68686">
        <ele>111</ele>
        <time>2026-07-12T20:20:13.000Z</time>
      </trkpt>
      <trkpt lat="43.33186" lon="-1.68678">
        <ele>110</ele>
        <time>2026-07-12T20:20:14.000Z</time>
      </trkpt>
      <trkpt lat="43.33186" lon="-1.68678">
        <ele>110</ele>
        <time>2026-07-12T20:20:14.000Z</time>
      </trkpt>
      <trkpt lat="43.33191" lon="-1.68692">
        <ele>110</ele>
        <time>2026-07-12T20:20:16.000Z</time>
      </trkpt>
      <trkpt lat="43.33192" lon="-1.68694">
        <ele>110</ele>
        <time>2026-07-12T20:20:17.000Z</time>
      </trkpt>
      <trkpt lat="43.33197" lon="-1.68703">
        <ele>109</ele>
        <time>2026-07-12T20:20:18.000Z</time>
      </trkpt>
      <trkpt lat="43.332" lon="-1.6871">
        <ele>109</ele>
        <time>2026-07-12T20:20:19.000Z</time>
      </trkpt>
      <trkpt lat="43.33207" lon="-1.68721">
        <ele>108</ele>
        <time>2026-07-12T20:20:21.000Z</time>
      </trkpt>
      <trkpt lat="43.33213" lon="-1.68727">
        <ele>108</ele>
        <time>2026-07-12T20:20:22.000Z</time>
      </trkpt>
      <trkpt lat="43.33218" lon="-1.68731">
        <ele>107</ele>
        <time>2026-07-12T20:20:23.000Z</time>
      </trkpt>
      <trkpt lat="43.33221" lon="-1.68732">
        <ele>107</ele>
        <time>2026-07-12T20:20:24.000Z</time>
      </trkpt>
      <trkpt lat="43.33251" lon="-1.68734">
        <ele>104</ele>
        <time>2026-07-12T20:20:29.000Z</time>
      </trkpt>
      <trkpt lat="43.33255" lon="-1.68735">
        <ele>103</ele>
        <time>2026-07-12T20:20:30.000Z</time>
      </trkpt>
      <trkpt lat="43.33301" lon="-1.68741">
        <ele>100</ele>
        <time>2026-07-12T20:20:38.000Z</time>
      </trkpt>
      <trkpt lat="43.33324" lon="-1.68741">
        <ele>98</ele>
        <time>2026-07-12T20:20:42.000Z</time>
      </trkpt>
      <trkpt lat="43.33343" lon="-1.68742">
        <ele>97</ele>
        <time>2026-07-12T20:20:46.000Z</time>
      </trkpt>
      <trkpt lat="43.33375" lon="-1.68741">
        <ele>98</ele>
        <time>2026-07-12T20:20:51.000Z</time>
      </trkpt>
      <trkpt lat="43.33384" lon="-1.6874">
        <ele>98</ele>
        <time>2026-07-12T20:20:53.000Z</time>
      </trkpt>
      <trkpt lat="43.33388" lon="-1.68739">
        <ele>98</ele>
        <time>2026-07-12T20:20:54.000Z</time>
      </trkpt>
      <trkpt lat="43.3339" lon="-1.68737">
        <ele>98</ele>
        <time>2026-07-12T20:20:54.000Z</time>
      </trkpt>
      <trkpt lat="43.3339" lon="-1.68737">
        <ele>98</ele>
        <time>2026-07-12T20:20:54.000Z</time>
      </trkpt>
      <trkpt lat="43.3339" lon="-1.68724">
        <ele>97</ele>
        <time>2026-07-12T20:20:56.000Z</time>
      </trkpt>
      <trkpt lat="43.3339" lon="-1.68714">
        <ele>97</ele>
        <time>2026-07-12T20:20:57.000Z</time>
      </trkpt>
      <trkpt lat="43.3339" lon="-1.68707">
        <ele>97</ele>
        <time>2026-07-12T20:20:58.000Z</time>
      </trkpt>
      <trkpt lat="43.33391" lon="-1.68701">
        <ele>96</ele>
        <time>2026-07-12T20:20:59.000Z</time>
      </trkpt>
      <trkpt lat="43.33392" lon="-1.68676">
        <ele>95</ele>
        <time>2026-07-12T20:21:02.000Z</time>
      </trkpt>
      <trkpt lat="43.33394" lon="-1.68646">
        <ele>95</ele>
        <time>2026-07-12T20:21:06.000Z</time>
      </trkpt>
      <trkpt lat="43.33396" lon="-1.68624">
        <ele>94</ele>
        <time>2026-07-12T20:21:09.000Z</time>
      </trkpt>
      <trkpt lat="43.33397" lon="-1.68597">
        <ele>93</ele>
        <time>2026-07-12T20:21:12.000Z</time>
      </trkpt>
      <trkpt lat="43.33397" lon="-1.68597">
        <ele>93</ele>
        <time>2026-07-12T20:21:12.000Z</time>
      </trkpt>
      <trkpt lat="43.33399" lon="-1.68549">
        <ele>91</ele>
        <time>2026-07-12T20:21:19.000Z</time>
      </trkpt>
      <trkpt lat="43.33405" lon="-1.68453">
        <ele>86</ele>
        <time>2026-07-12T20:21:31.000Z</time>
      </trkpt>
      <trkpt lat="43.33405" lon="-1.68438">
        <ele>85</ele>
        <time>2026-07-12T20:21:33.000Z</time>
      </trkpt>
      <trkpt lat="43.33406" lon="-1.68391">
        <ele>84</ele>
        <time>2026-07-12T20:21:39.000Z</time>
      </trkpt>
      <trkpt lat="43.33408" lon="-1.68352">
        <ele>83</ele>
        <time>2026-07-12T20:21:44.000Z</time>
      </trkpt>
      <trkpt lat="43.33409" lon="-1.6834">
        <ele>83</ele>
        <time>2026-07-12T20:21:46.000Z</time>
      </trkpt>
      <trkpt lat="43.3341" lon="-1.68324">
        <ele>83</ele>
        <time>2026-07-12T20:21:48.000Z</time>
      </trkpt>
      <trkpt lat="43.33412" lon="-1.68278">
        <ele>81</ele>
        <time>2026-07-12T20:21:54.000Z</time>
      </trkpt>
      <trkpt lat="43.33413" lon="-1.68236">
        <ele>80</ele>
        <time>2026-07-12T20:21:59.000Z</time>
      </trkpt>
      <trkpt lat="43.33419" lon="-1.68132">
        <ele>76</ele>
        <time>2026-07-12T20:22:13.000Z</time>
      </trkpt>
      <trkpt lat="43.3342" lon="-1.68085">
        <ele>75</ele>
        <time>2026-07-12T20:22:19.000Z</time>
      </trkpt>
      <trkpt lat="43.3342" lon="-1.6808">
        <ele>75</ele>
        <time>2026-07-12T20:22:19.000Z</time>
      </trkpt>
      <trkpt lat="43.3342" lon="-1.68075">
        <ele>75</ele>
        <time>2026-07-12T20:22:20.000Z</time>
      </trkpt>
      <trkpt lat="43.3342" lon="-1.68069">
        <ele>74</ele>
        <time>2026-07-12T20:22:21.000Z</time>
      </trkpt>
      <trkpt lat="43.33421" lon="-1.68062">
        <ele>74</ele>
        <time>2026-07-12T20:22:22.000Z</time>
      </trkpt>
      <trkpt lat="43.33421" lon="-1.68047">
        <ele>74</ele>
        <time>2026-07-12T20:22:24.000Z</time>
      </trkpt>
      <trkpt lat="43.33421" lon="-1.68042">
        <ele>74</ele>
        <time>2026-07-12T20:22:24.000Z</time>
      </trkpt>
      <trkpt lat="43.33421" lon="-1.6803">
        <ele>73</ele>
        <time>2026-07-12T20:22:26.000Z</time>
      </trkpt>
      <trkpt lat="43.33422" lon="-1.68014">
        <ele>73</ele>
        <time>2026-07-12T20:22:28.000Z</time>
      </trkpt>
      <trkpt lat="43.33424" lon="-1.67921">
        <ele>70</ele>
        <time>2026-07-12T20:22:40.000Z</time>
      </trkpt>
      <trkpt lat="43.33428" lon="-1.6781">
        <ele>67</ele>
        <time>2026-07-12T20:22:54.000Z</time>
      </trkpt>
      <trkpt lat="43.33429" lon="-1.67798">
        <ele>67</ele>
        <time>2026-07-12T20:22:56.000Z</time>
      </trkpt>
      <trkpt lat="43.3343" lon="-1.67786">
        <ele>66</ele>
        <time>2026-07-12T20:22:58.000Z</time>
      </trkpt>
      <trkpt lat="43.33431" lon="-1.67776">
        <ele>66</ele>
        <time>2026-07-12T20:22:59.000Z</time>
      </trkpt>
      <trkpt lat="43.33432" lon="-1.67763">
        <ele>66</ele>
        <time>2026-07-12T20:23:01.000Z</time>
      </trkpt>
      <trkpt lat="43.33434" lon="-1.67755">
        <ele>66</ele>
        <time>2026-07-12T20:23:02.000Z</time>
      </trkpt>
      <trkpt lat="43.33455" lon="-1.67631">
        <ele>63</ele>
        <time>2026-07-12T20:23:18.000Z</time>
      </trkpt>
      <trkpt lat="43.3346" lon="-1.67602">
        <ele>62</ele>
        <time>2026-07-12T20:23:22.000Z</time>
      </trkpt>
      <trkpt lat="43.33461" lon="-1.67594">
        <ele>62</ele>
        <time>2026-07-12T20:23:23.000Z</time>
      </trkpt>
      <trkpt lat="43.33465" lon="-1.6757">
        <ele>61</ele>
        <time>2026-07-12T20:23:26.000Z</time>
      </trkpt>
      <trkpt lat="43.33468" lon="-1.6755">
        <ele>60</ele>
        <time>2026-07-12T20:23:29.000Z</time>
      </trkpt>
      <trkpt lat="43.33469" lon="-1.67548">
        <ele>59</ele>
        <time>2026-07-12T20:23:29.000Z</time>
      </trkpt>
      <trkpt lat="43.33469" lon="-1.67541">
        <ele>59</ele>
        <time>2026-07-12T20:23:30.000Z</time>
      </trkpt>
      <trkpt lat="43.3347" lon="-1.67535">
        <ele>59</ele>
        <time>2026-07-12T20:23:31.000Z</time>
      </trkpt>
      <trkpt lat="43.33471" lon="-1.67521">
        <ele>58</ele>
        <time>2026-07-12T20:23:33.000Z</time>
      </trkpt>
      <trkpt lat="43.33473" lon="-1.67491">
        <ele>58</ele>
        <time>2026-07-12T20:23:37.000Z</time>
      </trkpt>
      <trkpt lat="43.33475" lon="-1.67451">
        <ele>58</ele>
        <time>2026-07-12T20:23:42.000Z</time>
      </trkpt>
      <trkpt lat="43.33475" lon="-1.67444">
        <ele>58</ele>
        <time>2026-07-12T20:23:43.000Z</time>
      </trkpt>
      <trkpt lat="43.33476" lon="-1.67425">
        <ele>58</ele>
        <time>2026-07-12T20:23:45.000Z</time>
      </trkpt>
      <trkpt lat="43.33476" lon="-1.67414">
        <ele>58</ele>
        <time>2026-07-12T20:23:47.000Z</time>
      </trkpt>
      <trkpt lat="43.33476" lon="-1.6741">
        <ele>58</ele>
        <time>2026-07-12T20:23:47.000Z</time>
      </trkpt>
      <trkpt lat="43.33476" lon="-1.67404">
        <ele>58</ele>
        <time>2026-07-12T20:23:48.000Z</time>
      </trkpt>
      <trkpt lat="43.33476" lon="-1.674">
        <ele>58</ele>
        <time>2026-07-12T20:23:48.000Z</time>
      </trkpt>
      <trkpt lat="43.33476" lon="-1.67395">
        <ele>57</ele>
        <time>2026-07-12T20:23:49.000Z</time>
      </trkpt>
      <trkpt lat="43.33476" lon="-1.67386">
        <ele>57</ele>
        <time>2026-07-12T20:23:50.000Z</time>
      </trkpt>
      <trkpt lat="43.33475" lon="-1.67374">
        <ele>56</ele>
        <time>2026-07-12T20:23:52.000Z</time>
      </trkpt>
      <trkpt lat="43.33474" lon="-1.67366">
        <ele>56</ele>
        <time>2026-07-12T20:23:53.000Z</time>
      </trkpt>
      <trkpt lat="43.33473" lon="-1.67358">
        <ele>56</ele>
        <time>2026-07-12T20:23:54.000Z</time>
      </trkpt>
      <trkpt lat="43.33466" lon="-1.67325">
        <ele>54</ele>
        <time>2026-07-12T20:23:58.000Z</time>
      </trkpt>
      <trkpt lat="43.33448" lon="-1.67242">
        <ele>52</ele>
        <time>2026-07-12T20:24:10.000Z</time>
      </trkpt>
      <trkpt lat="43.33445" lon="-1.67226">
        <ele>52</ele>
        <time>2026-07-12T20:24:12.000Z</time>
      </trkpt>
      <trkpt lat="43.33443" lon="-1.67216">
        <ele>52</ele>
        <time>2026-07-12T20:24:13.000Z</time>
      </trkpt>
      <trkpt lat="43.33443" lon="-1.67213">
        <ele>52</ele>
        <time>2026-07-12T20:24:13.000Z</time>
      </trkpt>
      <trkpt lat="43.33442" lon="-1.67209">
        <ele>52</ele>
        <time>2026-07-12T20:24:14.000Z</time>
      </trkpt>
      <trkpt lat="43.33441" lon="-1.67203">
        <ele>52</ele>
        <time>2026-07-12T20:24:15.000Z</time>
      </trkpt>
      <trkpt lat="43.3344" lon="-1.67196">
        <ele>52</ele>
        <time>2026-07-12T20:24:16.000Z</time>
      </trkpt>
      <trkpt lat="43.33439" lon="-1.67185">
        <ele>52</ele>
        <time>2026-07-12T20:24:17.000Z</time>
      </trkpt>
      <trkpt lat="43.33439" lon="-1.67183">
        <ele>52</ele>
        <time>2026-07-12T20:24:17.000Z</time>
      </trkpt>
      <trkpt lat="43.33439" lon="-1.67168">
        <ele>51</ele>
        <time>2026-07-12T20:24:19.000Z</time>
      </trkpt>
      <trkpt lat="43.3344" lon="-1.67144">
        <ele>51</ele>
        <time>2026-07-12T20:24:22.000Z</time>
      </trkpt>
      <trkpt lat="43.33441" lon="-1.67129">
        <ele>51</ele>
        <time>2026-07-12T20:24:24.000Z</time>
      </trkpt>
      <trkpt lat="43.33441" lon="-1.67119">
        <ele>51</ele>
        <time>2026-07-12T20:24:26.000Z</time>
      </trkpt>
      <trkpt lat="43.33443" lon="-1.67108">
        <ele>51</ele>
        <time>2026-07-12T20:24:27.000Z</time>
      </trkpt>
      <trkpt lat="43.33444" lon="-1.67079">
        <ele>50</ele>
        <time>2026-07-12T20:24:31.000Z</time>
      </trkpt>
      <trkpt lat="43.33445" lon="-1.6707">
        <ele>51</ele>
        <time>2026-07-12T20:24:32.000Z</time>
      </trkpt>
      <trkpt lat="43.33445" lon="-1.67059">
        <ele>51</ele>
        <time>2026-07-12T20:24:33.000Z</time>
      </trkpt>
      <trkpt lat="43.33446" lon="-1.67046">
        <ele>51</ele>
        <time>2026-07-12T20:24:35.000Z</time>
      </trkpt>
      <trkpt lat="43.33447" lon="-1.67036">
        <ele>51</ele>
        <time>2026-07-12T20:24:36.000Z</time>
      </trkpt>
      <trkpt lat="43.33447" lon="-1.67027">
        <ele>51</ele>
        <time>2026-07-12T20:24:38.000Z</time>
      </trkpt>
      <trkpt lat="43.33448" lon="-1.67018">
        <ele>51</ele>
        <time>2026-07-12T20:24:39.000Z</time>
      </trkpt>
      <trkpt lat="43.33449" lon="-1.67001">
        <ele>51</ele>
        <time>2026-07-12T20:24:41.000Z</time>
      </trkpt>
      <trkpt lat="43.3345" lon="-1.66986">
        <ele>52</ele>
        <time>2026-07-12T20:24:43.000Z</time>
      </trkpt>
      <trkpt lat="43.33451" lon="-1.66972">
        <ele>52</ele>
        <time>2026-07-12T20:24:45.000Z</time>
      </trkpt>
      <trkpt lat="43.33452" lon="-1.66962">
        <ele>52</ele>
        <time>2026-07-12T20:24:46.000Z</time>
      </trkpt>
      <trkpt lat="43.33454" lon="-1.66952">
        <ele>52</ele>
        <time>2026-07-12T20:24:47.000Z</time>
      </trkpt>
      <trkpt lat="43.33456" lon="-1.66942">
        <ele>52</ele>
        <time>2026-07-12T20:24:49.000Z</time>
      </trkpt>
      <trkpt lat="43.33456" lon="-1.6694">
        <ele>53</ele>
        <time>2026-07-12T20:24:49.000Z</time>
      </trkpt>
      <trkpt lat="43.33458" lon="-1.66934">
        <ele>53</ele>
        <time>2026-07-12T20:24:50.000Z</time>
      </trkpt>
      <trkpt lat="43.33459" lon="-1.66929">
        <ele>53</ele>
        <time>2026-07-12T20:24:51.000Z</time>
      </trkpt>
      <trkpt lat="43.3346" lon="-1.66924">
        <ele>53</ele>
        <time>2026-07-12T20:24:51.000Z</time>
      </trkpt>
      <trkpt lat="43.33466" lon="-1.66913">
        <ele>52</ele>
        <time>2026-07-12T20:24:53.000Z</time>
      </trkpt>
      <trkpt lat="43.33476" lon="-1.66897">
        <ele>50</ele>
        <time>2026-07-12T20:24:56.000Z</time>
      </trkpt>
      <trkpt lat="43.33505" lon="-1.66853">
        <ele>46</ele>
        <time>2026-07-12T20:25:03.000Z</time>
      </trkpt>
      <trkpt lat="43.33511" lon="-1.66845">
        <ele>46</ele>
        <time>2026-07-12T20:25:05.000Z</time>
      </trkpt>
      <trkpt lat="43.33513" lon="-1.66839">
        <ele>46</ele>
        <time>2026-07-12T20:25:06.000Z</time>
      </trkpt>
      <trkpt lat="43.33517" lon="-1.66832">
        <ele>46</ele>
        <time>2026-07-12T20:25:07.000Z</time>
      </trkpt>
      <trkpt lat="43.3352" lon="-1.66827">
        <ele>46</ele>
        <time>2026-07-12T20:25:08.000Z</time>
      </trkpt>
      <trkpt lat="43.33527" lon="-1.66817">
        <ele>46</ele>
        <time>2026-07-12T20:25:10.000Z</time>
      </trkpt>
      <trkpt lat="43.33535" lon="-1.66808">
        <ele>45</ele>
        <time>2026-07-12T20:25:11.000Z</time>
      </trkpt>
      <trkpt lat="43.33538" lon="-1.66805">
        <ele>45</ele>
        <time>2026-07-12T20:25:12.000Z</time>
      </trkpt>
      <trkpt lat="43.33543" lon="-1.66803">
        <ele>45</ele>
        <time>2026-07-12T20:25:13.000Z</time>
      </trkpt>
      <trkpt lat="43.33553" lon="-1.668">
        <ele>45</ele>
        <time>2026-07-12T20:25:15.000Z</time>
      </trkpt>
      <trkpt lat="43.33563" lon="-1.66798">
        <ele>45</ele>
        <time>2026-07-12T20:25:17.000Z</time>
      </trkpt>
      <trkpt lat="43.33572" lon="-1.66797">
        <ele>45</ele>
        <time>2026-07-12T20:25:18.000Z</time>
      </trkpt>
      <trkpt lat="43.33579" lon="-1.66796">
        <ele>45</ele>
        <time>2026-07-12T20:25:19.000Z</time>
      </trkpt>
      <trkpt lat="43.33586" lon="-1.66794">
        <ele>45</ele>
        <time>2026-07-12T20:25:21.000Z</time>
      </trkpt>
      <trkpt lat="43.33591" lon="-1.66792">
        <ele>45</ele>
        <time>2026-07-12T20:25:22.000Z</time>
      </trkpt>
      <trkpt lat="43.33593" lon="-1.66791">
        <ele>45</ele>
        <time>2026-07-12T20:25:22.000Z</time>
      </trkpt>
      <trkpt lat="43.33598" lon="-1.66787">
        <ele>45</ele>
        <time>2026-07-12T20:25:23.000Z</time>
      </trkpt>
      <trkpt lat="43.33598" lon="-1.66786">
        <ele>45</ele>
        <time>2026-07-12T20:25:23.000Z</time>
      </trkpt>
      <trkpt lat="43.33598" lon="-1.66785">
        <ele>45</ele>
        <time>2026-07-12T20:25:23.000Z</time>
      </trkpt>
      <trkpt lat="43.33599" lon="-1.66785">
        <ele>45</ele>
        <time>2026-07-12T20:25:24.000Z</time>
      </trkpt>
      <trkpt lat="43.33599" lon="-1.66784">
        <ele>45</ele>
        <time>2026-07-12T20:25:24.000Z</time>
      </trkpt>
      <trkpt lat="43.33599" lon="-1.66783">
        <ele>45</ele>
        <time>2026-07-12T20:25:24.000Z</time>
      </trkpt>
      <trkpt lat="43.336" lon="-1.66783">
        <ele>45</ele>
        <time>2026-07-12T20:25:24.000Z</time>
      </trkpt>
      <trkpt lat="43.336" lon="-1.66782">
        <ele>45</ele>
        <time>2026-07-12T20:25:24.000Z</time>
      </trkpt>
      <trkpt lat="43.33601" lon="-1.66782">
        <ele>45</ele>
        <time>2026-07-12T20:25:24.000Z</time>
      </trkpt>
      <trkpt lat="43.33601" lon="-1.66781">
        <ele>45</ele>
        <time>2026-07-12T20:25:24.000Z</time>
      </trkpt>
      <trkpt lat="43.33602" lon="-1.66781">
        <ele>45</ele>
        <time>2026-07-12T20:25:25.000Z</time>
      </trkpt>
      <trkpt lat="43.33602" lon="-1.6678">
        <ele>45</ele>
        <time>2026-07-12T20:25:25.000Z</time>
      </trkpt>
      <trkpt lat="43.33603" lon="-1.6678">
        <ele>45</ele>
        <time>2026-07-12T20:25:25.000Z</time>
      </trkpt>
      <trkpt lat="43.33604" lon="-1.6678">
        <ele>45</ele>
        <time>2026-07-12T20:25:25.000Z</time>
      </trkpt>
      <trkpt lat="43.33604" lon="-1.66779">
        <ele>45</ele>
        <time>2026-07-12T20:25:25.000Z</time>
      </trkpt>
      <trkpt lat="43.33605" lon="-1.66779">
        <ele>45</ele>
        <time>2026-07-12T20:25:25.000Z</time>
      </trkpt>
      <trkpt lat="43.33606" lon="-1.66779">
        <ele>45</ele>
        <time>2026-07-12T20:25:26.000Z</time>
      </trkpt>
      <trkpt lat="43.33607" lon="-1.66779">
        <ele>45</ele>
        <time>2026-07-12T20:25:26.000Z</time>
      </trkpt>
      <trkpt lat="43.33607" lon="-1.6678">
        <ele>45</ele>
        <time>2026-07-12T20:25:26.000Z</time>
      </trkpt>
      <trkpt lat="43.33608" lon="-1.6678">
        <ele>45</ele>
        <time>2026-07-12T20:25:26.000Z</time>
      </trkpt>
      <trkpt lat="43.33609" lon="-1.6678">
        <ele>45</ele>
        <time>2026-07-12T20:25:26.000Z</time>
      </trkpt>
      <trkpt lat="43.3361" lon="-1.66781">
        <ele>45</ele>
        <time>2026-07-12T20:25:26.000Z</time>
      </trkpt>
      <trkpt lat="43.33611" lon="-1.66782">
        <ele>45</ele>
        <time>2026-07-12T20:25:27.000Z</time>
      </trkpt>
      <trkpt lat="43.33612" lon="-1.66783">
        <ele>45</ele>
        <time>2026-07-12T20:25:27.000Z</time>
      </trkpt>
      <trkpt lat="43.33625" lon="-1.66776">
        <ele>45</ele>
        <time>2026-07-12T20:25:29.000Z</time>
      </trkpt>
      <trkpt lat="43.33628" lon="-1.66775">
        <ele>45</ele>
        <time>2026-07-12T20:25:30.000Z</time>
      </trkpt>
      <trkpt lat="43.33631" lon="-1.66773">
        <ele>45</ele>
        <time>2026-07-12T20:25:30.000Z</time>
      </trkpt>
      <trkpt lat="43.33634" lon="-1.66772">
        <ele>45</ele>
        <time>2026-07-12T20:25:31.000Z</time>
      </trkpt>
      <trkpt lat="43.33636" lon="-1.66768">
        <ele>45</ele>
        <time>2026-07-12T20:25:32.000Z</time>
      </trkpt>
      <trkpt lat="43.33637" lon="-1.66766">
        <ele>45</ele>
        <time>2026-07-12T20:25:32.000Z</time>
      </trkpt>
      <trkpt lat="43.33641" lon="-1.6676">
        <ele>45</ele>
        <time>2026-07-12T20:25:33.000Z</time>
      </trkpt>
      <trkpt lat="43.33644" lon="-1.66752">
        <ele>45</ele>
        <time>2026-07-12T20:25:34.000Z</time>
      </trkpt>
      <trkpt lat="43.33646" lon="-1.66749">
        <ele>45</ele>
        <time>2026-07-12T20:25:35.000Z</time>
      </trkpt>
      <trkpt lat="43.33653" lon="-1.6673">
        <ele>46</ele>
        <time>2026-07-12T20:25:37.000Z</time>
      </trkpt>
      <trkpt lat="43.33655" lon="-1.66724">
        <ele>46</ele>
        <time>2026-07-12T20:25:38.000Z</time>
      </trkpt>
      <trkpt lat="43.33659" lon="-1.66708">
        <ele>47</ele>
        <time>2026-07-12T20:25:41.000Z</time>
      </trkpt>
      <trkpt lat="43.33663" lon="-1.66692">
        <ele>47</ele>
        <time>2026-07-12T20:25:43.000Z</time>
      </trkpt>
      <trkpt lat="43.33668" lon="-1.66666">
        <ele>48</ele>
        <time>2026-07-12T20:25:46.000Z</time>
      </trkpt>
      <trkpt lat="43.33672" lon="-1.66644">
        <ele>49</ele>
        <time>2026-07-12T20:25:49.000Z</time>
      </trkpt>
      <trkpt lat="43.33674" lon="-1.66631">
        <ele>49</ele>
        <time>2026-07-12T20:25:51.000Z</time>
      </trkpt>
      <trkpt lat="43.33675" lon="-1.66616">
        <ele>50</ele>
        <time>2026-07-12T20:25:53.000Z</time>
      </trkpt>
      <trkpt lat="43.33675" lon="-1.66614">
        <ele>50</ele>
        <time>2026-07-12T20:25:53.000Z</time>
      </trkpt>
      <trkpt lat="43.33675" lon="-1.66604">
        <ele>50</ele>
        <time>2026-07-12T20:25:54.000Z</time>
      </trkpt>
      <trkpt lat="43.33673" lon="-1.66585">
        <ele>51</ele>
        <time>2026-07-12T20:25:57.000Z</time>
      </trkpt>
      <trkpt lat="43.33669" lon="-1.66564">
        <ele>52</ele>
        <time>2026-07-12T20:26:00.000Z</time>
      </trkpt>
      <trkpt lat="43.33668" lon="-1.66554">
        <ele>52</ele>
        <time>2026-07-12T20:26:01.000Z</time>
      </trkpt>
      <trkpt lat="43.33667" lon="-1.6655">
        <ele>53</ele>
        <time>2026-07-12T20:26:01.000Z</time>
      </trkpt>
      <trkpt lat="43.33664" lon="-1.66539">
        <ele>53</ele>
        <time>2026-07-12T20:26:03.000Z</time>
      </trkpt>
      <trkpt lat="43.33662" lon="-1.66533">
        <ele>54</ele>
        <time>2026-07-12T20:26:04.000Z</time>
      </trkpt>
      <trkpt lat="43.33658" lon="-1.66521">
        <ele>54</ele>
        <time>2026-07-12T20:26:06.000Z</time>
      </trkpt>
      <trkpt lat="43.33644" lon="-1.66486">
        <ele>56</ele>
        <time>2026-07-12T20:26:11.000Z</time>
      </trkpt>
      <trkpt lat="43.33634" lon="-1.66461">
        <ele>58</ele>
        <time>2026-07-12T20:26:14.000Z</time>
      </trkpt>
      <trkpt lat="43.33627" lon="-1.66437">
        <ele>60</ele>
        <time>2026-07-12T20:26:18.000Z</time>
      </trkpt>
      <trkpt lat="43.3362" lon="-1.6642">
        <ele>61</ele>
        <time>2026-07-12T20:26:20.000Z</time>
      </trkpt>
      <trkpt lat="43.33618" lon="-1.66413">
        <ele>62</ele>
        <time>2026-07-12T20:26:21.000Z</time>
      </trkpt>
      <trkpt lat="43.33614" lon="-1.66397">
        <ele>63</ele>
        <time>2026-07-12T20:26:23.000Z</time>
      </trkpt>
      <trkpt lat="43.33613" lon="-1.66388">
        <ele>63</ele>
        <time>2026-07-12T20:26:25.000Z</time>
      </trkpt>
      <trkpt lat="43.33612" lon="-1.66378">
        <ele>64</ele>
        <time>2026-07-12T20:26:26.000Z</time>
      </trkpt>
      <trkpt lat="43.3361" lon="-1.66364">
        <ele>64</ele>
        <time>2026-07-12T20:26:28.000Z</time>
      </trkpt>
      <trkpt lat="43.33611" lon="-1.66353">
        <ele>65</ele>
        <time>2026-07-12T20:26:29.000Z</time>
      </trkpt>
      <trkpt lat="43.33611" lon="-1.66331">
        <ele>65</ele>
        <time>2026-07-12T20:26:32.000Z</time>
      </trkpt>
      <trkpt lat="43.33611" lon="-1.66323">
        <ele>66</ele>
        <time>2026-07-12T20:26:33.000Z</time>
      </trkpt>
      <trkpt lat="43.33611" lon="-1.66315">
        <ele>66</ele>
        <time>2026-07-12T20:26:34.000Z</time>
      </trkpt>
      <trkpt lat="43.33611" lon="-1.66305">
        <ele>66</ele>
        <time>2026-07-12T20:26:35.000Z</time>
      </trkpt>
      <trkpt lat="43.33611" lon="-1.66299">
        <ele>67</ele>
        <time>2026-07-12T20:26:36.000Z</time>
      </trkpt>
      <trkpt lat="43.33611" lon="-1.66294">
        <ele>67</ele>
        <time>2026-07-12T20:26:37.000Z</time>
      </trkpt>
      <trkpt lat="43.33612" lon="-1.66283">
        <ele>67</ele>
        <time>2026-07-12T20:26:38.000Z</time>
      </trkpt>
      <trkpt lat="43.33613" lon="-1.66275">
        <ele>67</ele>
        <time>2026-07-12T20:26:39.000Z</time>
      </trkpt>
      <trkpt lat="43.33615" lon="-1.66264">
        <ele>67</ele>
        <time>2026-07-12T20:26:41.000Z</time>
      </trkpt>
      <trkpt lat="43.33617" lon="-1.66253">
        <ele>67</ele>
        <time>2026-07-12T20:26:42.000Z</time>
      </trkpt>
      <trkpt lat="43.33625" lon="-1.66234">
        <ele>67</ele>
        <time>2026-07-12T20:26:45.000Z</time>
      </trkpt>
      <trkpt lat="43.3364" lon="-1.662">
        <ele>66</ele>
        <time>2026-07-12T20:26:50.000Z</time>
      </trkpt>
      <trkpt lat="43.33647" lon="-1.66178">
        <ele>65</ele>
        <time>2026-07-12T20:26:53.000Z</time>
      </trkpt>
      <trkpt lat="43.33648" lon="-1.66173">
        <ele>65</ele>
        <time>2026-07-12T20:26:54.000Z</time>
      </trkpt>
      <trkpt lat="43.33649" lon="-1.6617">
        <ele>65</ele>
        <time>2026-07-12T20:26:54.000Z</time>
      </trkpt>
      <trkpt lat="43.33657" lon="-1.66146">
        <ele>65</ele>
        <time>2026-07-12T20:26:58.000Z</time>
      </trkpt>
      <trkpt lat="43.33658" lon="-1.66141">
        <ele>65</ele>
        <time>2026-07-12T20:26:59.000Z</time>
      </trkpt>
      <trkpt lat="43.33659" lon="-1.66134">
        <ele>66</ele>
        <time>2026-07-12T20:27:00.000Z</time>
      </trkpt>
      <trkpt lat="43.33671" lon="-1.6607">
        <ele>68</ele>
        <time>2026-07-12T20:27:08.000Z</time>
      </trkpt>
      <trkpt lat="43.33673" lon="-1.66061">
        <ele>68</ele>
        <time>2026-07-12T20:27:09.000Z</time>
      </trkpt>
      <trkpt lat="43.33677" lon="-1.6604">
        <ele>68</ele>
        <time>2026-07-12T20:27:12.000Z</time>
      </trkpt>
      <trkpt lat="43.33678" lon="-1.66032">
        <ele>68</ele>
        <time>2026-07-12T20:27:13.000Z</time>
      </trkpt>
      <trkpt lat="43.3368" lon="-1.66021">
        <ele>68</ele>
        <time>2026-07-12T20:27:15.000Z</time>
      </trkpt>
      <trkpt lat="43.33683" lon="-1.65998">
        <ele>69</ele>
        <time>2026-07-12T20:27:18.000Z</time>
      </trkpt>
      <trkpt lat="43.33693" lon="-1.6594">
        <ele>68</ele>
        <time>2026-07-12T20:27:25.000Z</time>
      </trkpt>
      <trkpt lat="43.33697" lon="-1.6592">
        <ele>68</ele>
        <time>2026-07-12T20:27:28.000Z</time>
      </trkpt>
      <trkpt lat="43.33699" lon="-1.65906">
        <ele>67</ele>
        <time>2026-07-12T20:27:30.000Z</time>
      </trkpt>
      <trkpt lat="43.33704" lon="-1.65866">
        <ele>66</ele>
        <time>2026-07-12T20:27:35.000Z</time>
      </trkpt>
      <trkpt lat="43.3371" lon="-1.65813">
        <ele>66</ele>
        <time>2026-07-12T20:27:42.000Z</time>
      </trkpt>
      <trkpt lat="43.33715" lon="-1.65774">
        <ele>66</ele>
        <time>2026-07-12T20:27:47.000Z</time>
      </trkpt>
      <trkpt lat="43.33718" lon="-1.65751">
        <ele>66</ele>
        <time>2026-07-12T20:27:50.000Z</time>
      </trkpt>
      <trkpt lat="43.33724" lon="-1.65722">
        <ele>65</ele>
        <time>2026-07-12T20:27:54.000Z</time>
      </trkpt>
      <trkpt lat="43.33729" lon="-1.65695">
        <ele>64</ele>
        <time>2026-07-12T20:27:58.000Z</time>
      </trkpt>
      <trkpt lat="43.33732" lon="-1.65674">
        <ele>64</ele>
        <time>2026-07-12T20:28:00.000Z</time>
      </trkpt>
      <trkpt lat="43.33736" lon="-1.65658">
        <ele>64</ele>
        <time>2026-07-12T20:28:03.000Z</time>
      </trkpt>
      <trkpt lat="43.33751" lon="-1.65589">
        <ele>64</ele>
        <time>2026-07-12T20:28:12.000Z</time>
      </trkpt>
      <trkpt lat="43.33762" lon="-1.65543">
        <ele>65</ele>
        <time>2026-07-12T20:28:18.000Z</time>
      </trkpt>
      <trkpt lat="43.33768" lon="-1.65516">
        <ele>65</ele>
        <time>2026-07-12T20:28:22.000Z</time>
      </trkpt>
      <trkpt lat="43.33776" lon="-1.6548">
        <ele>65</ele>
        <time>2026-07-12T20:28:27.000Z</time>
      </trkpt>
      <trkpt lat="43.33782" lon="-1.65455">
        <ele>64</ele>
        <time>2026-07-12T20:28:30.000Z</time>
      </trkpt>
      <trkpt lat="43.33803" lon="-1.6536">
        <ele>61</ele>
        <time>2026-07-12T20:28:43.000Z</time>
      </trkpt>
      <trkpt lat="43.33811" lon="-1.65322">
        <ele>60</ele>
        <time>2026-07-12T20:28:48.000Z</time>
      </trkpt>
      <trkpt lat="43.33812" lon="-1.65314">
        <ele>60</ele>
        <time>2026-07-12T20:28:49.000Z</time>
      </trkpt>
      <trkpt lat="43.33826" lon="-1.65246">
        <ele>59</ele>
        <time>2026-07-12T20:28:58.000Z</time>
      </trkpt>
      <trkpt lat="43.33833" lon="-1.65213">
        <ele>58</ele>
        <time>2026-07-12T20:29:03.000Z</time>
      </trkpt>
      <trkpt lat="43.33842" lon="-1.65172">
        <ele>56</ele>
        <time>2026-07-12T20:29:08.000Z</time>
      </trkpt>
      <trkpt lat="43.33872" lon="-1.65028">
        <ele>50</ele>
        <time>2026-07-12T20:29:28.000Z</time>
      </trkpt>
      <trkpt lat="43.33875" lon="-1.65015">
        <ele>50</ele>
        <time>2026-07-12T20:29:30.000Z</time>
      </trkpt>
      <trkpt lat="43.33882" lon="-1.64985">
        <ele>49</ele>
        <time>2026-07-12T20:29:34.000Z</time>
      </trkpt>
      <trkpt lat="43.33904" lon="-1.64884">
        <ele>47</ele>
        <time>2026-07-12T20:29:47.000Z</time>
      </trkpt>
      <trkpt lat="43.33916" lon="-1.6483">
        <ele>46</ele>
        <time>2026-07-12T20:29:55.000Z</time>
      </trkpt>
      <trkpt lat="43.33935" lon="-1.6474">
        <ele>44</ele>
        <time>2026-07-12T20:30:07.000Z</time>
      </trkpt>
      <trkpt lat="43.33947" lon="-1.64673">
        <ele>41</ele>
        <time>2026-07-12T20:30:16.000Z</time>
      </trkpt>
      <trkpt lat="43.33949" lon="-1.64666">
        <ele>41</ele>
        <time>2026-07-12T20:30:17.000Z</time>
      </trkpt>
      <trkpt lat="43.33958" lon="-1.64623">
        <ele>40</ele>
        <time>2026-07-12T20:30:22.000Z</time>
      </trkpt>
      <trkpt lat="43.33973" lon="-1.64551">
        <ele>39</ele>
        <time>2026-07-12T20:30:32.000Z</time>
      </trkpt>
      <trkpt lat="43.33974" lon="-1.64543">
        <ele>39</ele>
        <time>2026-07-12T20:30:33.000Z</time>
      </trkpt>
      <trkpt lat="43.33979" lon="-1.64521">
        <ele>38</ele>
        <time>2026-07-12T20:30:36.000Z</time>
      </trkpt>
      <trkpt lat="43.3398" lon="-1.64517">
        <ele>38</ele>
        <time>2026-07-12T20:30:37.000Z</time>
      </trkpt>
      <trkpt lat="43.33983" lon="-1.64507">
        <ele>38</ele>
        <time>2026-07-12T20:30:38.000Z</time>
      </trkpt>
      <trkpt lat="43.33983" lon="-1.64503">
        <ele>38</ele>
        <time>2026-07-12T20:30:39.000Z</time>
      </trkpt>
      <trkpt lat="43.33984" lon="-1.645">
        <ele>38</ele>
        <time>2026-07-12T20:30:39.000Z</time>
      </trkpt>
      <trkpt lat="43.33989" lon="-1.64475">
        <ele>37</ele>
        <time>2026-07-12T20:30:42.000Z</time>
      </trkpt>
      <trkpt lat="43.33993" lon="-1.64458">
        <ele>36</ele>
        <time>2026-07-12T20:30:45.000Z</time>
      </trkpt>
      <trkpt lat="43.34009" lon="-1.64384">
        <ele>35</ele>
        <time>2026-07-12T20:30:55.000Z</time>
      </trkpt>
      <trkpt lat="43.34022" lon="-1.6432">
        <ele>35</ele>
        <time>2026-07-12T20:31:03.000Z</time>
      </trkpt>
      <trkpt lat="43.34025" lon="-1.64299">
        <ele>35</ele>
        <time>2026-07-12T20:31:06.000Z</time>
      </trkpt>
      <trkpt lat="43.34028" lon="-1.64281">
        <ele>35</ele>
        <time>2026-07-12T20:31:08.000Z</time>
      </trkpt>
      <trkpt lat="43.34029" lon="-1.64262">
        <ele>35</ele>
        <time>2026-07-12T20:31:11.000Z</time>
      </trkpt>
      <trkpt lat="43.34029" lon="-1.6425">
        <ele>35</ele>
        <time>2026-07-12T20:31:12.000Z</time>
      </trkpt>
      <trkpt lat="43.34028" lon="-1.64234">
        <ele>35</ele>
        <time>2026-07-12T20:31:14.000Z</time>
      </trkpt>
      <trkpt lat="43.34027" lon="-1.64203">
        <ele>35</ele>
        <time>2026-07-12T20:31:18.000Z</time>
      </trkpt>
      <trkpt lat="43.34026" lon="-1.64192">
        <ele>35</ele>
        <time>2026-07-12T20:31:20.000Z</time>
      </trkpt>
      <trkpt lat="43.34027" lon="-1.64186">
        <ele>35</ele>
        <time>2026-07-12T20:31:21.000Z</time>
      </trkpt>
      <trkpt lat="43.34027" lon="-1.6418">
        <ele>35</ele>
        <time>2026-07-12T20:31:22.000Z</time>
      </trkpt>
      <trkpt lat="43.3403" lon="-1.64165">
        <ele>35</ele>
        <time>2026-07-12T20:31:24.000Z</time>
      </trkpt>
      <trkpt lat="43.34033" lon="-1.64151">
        <ele>35</ele>
        <time>2026-07-12T20:31:25.000Z</time>
      </trkpt>
      <trkpt lat="43.34035" lon="-1.64146">
        <ele>35</ele>
        <time>2026-07-12T20:31:26.000Z</time>
      </trkpt>
      <trkpt lat="43.34038" lon="-1.64136">
        <ele>35</ele>
        <time>2026-07-12T20:31:28.000Z</time>
      </trkpt>
      <trkpt lat="43.34042" lon="-1.64127">
        <ele>35</ele>
        <time>2026-07-12T20:31:29.000Z</time>
      </trkpt>
      <trkpt lat="43.34046" lon="-1.6412">
        <ele>36</ele>
        <time>2026-07-12T20:31:30.000Z</time>
      </trkpt>
      <trkpt lat="43.34054" lon="-1.64109">
        <ele>36</ele>
        <time>2026-07-12T20:31:32.000Z</time>
      </trkpt>
      <trkpt lat="43.34066" lon="-1.64097">
        <ele>37</ele>
        <time>2026-07-12T20:31:35.000Z</time>
      </trkpt>
      <trkpt lat="43.34068" lon="-1.64095">
        <ele>37</ele>
        <time>2026-07-12T20:31:35.000Z</time>
      </trkpt>
      <trkpt lat="43.34078" lon="-1.64088">
        <ele>38</ele>
        <time>2026-07-12T20:31:37.000Z</time>
      </trkpt>
      <trkpt lat="43.34081" lon="-1.64084">
        <ele>38</ele>
        <time>2026-07-12T20:31:38.000Z</time>
      </trkpt>
      <trkpt lat="43.34082" lon="-1.64083">
        <ele>38</ele>
        <time>2026-07-12T20:31:38.000Z</time>
      </trkpt>
      <trkpt lat="43.34086" lon="-1.6408">
        <ele>38</ele>
        <time>2026-07-12T20:31:39.000Z</time>
      </trkpt>
      <trkpt lat="43.34101" lon="-1.64072">
        <ele>40</ele>
        <time>2026-07-12T20:31:42.000Z</time>
      </trkpt>
      <trkpt lat="43.34107" lon="-1.64069">
        <ele>40</ele>
        <time>2026-07-12T20:31:43.000Z</time>
      </trkpt>
      <trkpt lat="43.34108" lon="-1.64068">
        <ele>40</ele>
        <time>2026-07-12T20:31:43.000Z</time>
      </trkpt>
      <trkpt lat="43.34119" lon="-1.64061">
        <ele>42</ele>
        <time>2026-07-12T20:31:45.000Z</time>
      </trkpt>
      <trkpt lat="43.34139" lon="-1.6405">
        <ele>43</ele>
        <time>2026-07-12T20:31:49.000Z</time>
      </trkpt>
      <trkpt lat="43.3414" lon="-1.64049">
        <ele>43</ele>
        <time>2026-07-12T20:31:49.000Z</time>
      </trkpt>
      <trkpt lat="43.34142" lon="-1.64048">
        <ele>44</ele>
        <time>2026-07-12T20:31:50.000Z</time>
      </trkpt>
      <trkpt lat="43.34149" lon="-1.64043">
        <ele>44</ele>
        <time>2026-07-12T20:31:51.000Z</time>
      </trkpt>
      <trkpt lat="43.34157" lon="-1.64036">
        <ele>45</ele>
        <time>2026-07-12T20:31:53.000Z</time>
      </trkpt>
      <trkpt lat="43.34169" lon="-1.64024">
        <ele>46</ele>
        <time>2026-07-12T20:31:55.000Z</time>
      </trkpt>
      <trkpt lat="43.3417" lon="-1.64022">
        <ele>46</ele>
        <time>2026-07-12T20:31:56.000Z</time>
      </trkpt>
      <trkpt lat="43.34175" lon="-1.64015">
        <ele>47</ele>
        <time>2026-07-12T20:31:57.000Z</time>
      </trkpt>
      <trkpt lat="43.3418" lon="-1.6401">
        <ele>47</ele>
        <time>2026-07-12T20:31:58.000Z</time>
      </trkpt>
      <trkpt lat="43.34193" lon="-1.63981">
        <ele>48</ele>
        <time>2026-07-12T20:32:03.000Z</time>
      </trkpt>
      <trkpt lat="43.3421" lon="-1.63943">
        <ele>48</ele>
        <time>2026-07-12T20:32:08.000Z</time>
      </trkpt>
      <trkpt lat="43.34211" lon="-1.6394">
        <ele>48</ele>
        <time>2026-07-12T20:32:09.000Z</time>
      </trkpt>
      <trkpt lat="43.34222" lon="-1.63911">
        <ele>48</ele>
        <time>2026-07-12T20:32:13.000Z</time>
      </trkpt>
      <trkpt lat="43.34225" lon="-1.63895">
        <ele>48</ele>
        <time>2026-07-12T20:32:15.000Z</time>
      </trkpt>
      <trkpt lat="43.34228" lon="-1.63885">
        <ele>49</ele>
        <time>2026-07-12T20:32:17.000Z</time>
      </trkpt>
      <trkpt lat="43.34231" lon="-1.63864">
        <ele>49</ele>
        <time>2026-07-12T20:32:19.000Z</time>
      </trkpt>
      <trkpt lat="43.34231" lon="-1.63841">
        <ele>50</ele>
        <time>2026-07-12T20:32:22.000Z</time>
      </trkpt>
      <trkpt lat="43.3423" lon="-1.63821">
        <ele>50</ele>
        <time>2026-07-12T20:32:25.000Z</time>
      </trkpt>
      <trkpt lat="43.34227" lon="-1.63799">
        <ele>51</ele>
        <time>2026-07-12T20:32:28.000Z</time>
      </trkpt>
      <trkpt lat="43.34221" lon="-1.63772">
        <ele>51</ele>
        <time>2026-07-12T20:32:31.000Z</time>
      </trkpt>
      <trkpt lat="43.34216" lon="-1.63753">
        <ele>51</ele>
        <time>2026-07-12T20:32:34.000Z</time>
      </trkpt>
      <trkpt lat="43.34214" lon="-1.63747">
        <ele>51</ele>
        <time>2026-07-12T20:32:35.000Z</time>
      </trkpt>
      <trkpt lat="43.34209" lon="-1.63727">
        <ele>50</ele>
        <time>2026-07-12T20:32:38.000Z</time>
      </trkpt>
      <trkpt lat="43.34208" lon="-1.63724">
        <ele>50</ele>
        <time>2026-07-12T20:32:38.000Z</time>
      </trkpt>
      <trkpt lat="43.34208" lon="-1.63723">
        <ele>50</ele>
        <time>2026-07-12T20:32:38.000Z</time>
      </trkpt>
      <trkpt lat="43.34208" lon="-1.63721">
        <ele>50</ele>
        <time>2026-07-12T20:32:38.000Z</time>
      </trkpt>
      <trkpt lat="43.34208" lon="-1.6372">
        <ele>50</ele>
        <time>2026-07-12T20:32:39.000Z</time>
      </trkpt>
      <trkpt lat="43.34207" lon="-1.63718">
        <ele>50</ele>
        <time>2026-07-12T20:32:39.000Z</time>
      </trkpt>
      <trkpt lat="43.34207" lon="-1.63715">
        <ele>50</ele>
        <time>2026-07-12T20:32:39.000Z</time>
      </trkpt>
      <trkpt lat="43.34207" lon="-1.63713">
        <ele>50</ele>
        <time>2026-07-12T20:32:40.000Z</time>
      </trkpt>
      <trkpt lat="43.34207" lon="-1.6371">
        <ele>50</ele>
        <time>2026-07-12T20:32:40.000Z</time>
      </trkpt>
      <trkpt lat="43.34207" lon="-1.63705">
        <ele>50</ele>
        <time>2026-07-12T20:32:41.000Z</time>
      </trkpt>
      <trkpt lat="43.34208" lon="-1.63701">
        <ele>50</ele>
        <time>2026-07-12T20:32:41.000Z</time>
      </trkpt>
      <trkpt lat="43.34208" lon="-1.63698">
        <ele>49</ele>
        <time>2026-07-12T20:32:41.000Z</time>
      </trkpt>
      <trkpt lat="43.34208" lon="-1.63696">
        <ele>49</ele>
        <time>2026-07-12T20:32:42.000Z</time>
      </trkpt>
      <trkpt lat="43.34208" lon="-1.63694">
        <ele>49</ele>
        <time>2026-07-12T20:32:42.000Z</time>
      </trkpt>
      <trkpt lat="43.34209" lon="-1.63691">
        <ele>49</ele>
        <time>2026-07-12T20:32:42.000Z</time>
      </trkpt>
      <trkpt lat="43.34209" lon="-1.63688">
        <ele>49</ele>
        <time>2026-07-12T20:32:43.000Z</time>
      </trkpt>
      <trkpt lat="43.3421" lon="-1.63682">
        <ele>49</ele>
        <time>2026-07-12T20:32:44.000Z</time>
      </trkpt>
      <trkpt lat="43.34212" lon="-1.63676">
        <ele>49</ele>
        <time>2026-07-12T20:32:44.000Z</time>
      </trkpt>
      <trkpt lat="43.34214" lon="-1.63671">
        <ele>49</ele>
        <time>2026-07-12T20:32:45.000Z</time>
      </trkpt>
      <trkpt lat="43.34215" lon="-1.63666">
        <ele>49</ele>
        <time>2026-07-12T20:32:46.000Z</time>
      </trkpt>
      <trkpt lat="43.34217" lon="-1.63662">
        <ele>49</ele>
        <time>2026-07-12T20:32:47.000Z</time>
      </trkpt>
      <trkpt lat="43.34218" lon="-1.63658">
        <ele>48</ele>
        <time>2026-07-12T20:32:47.000Z</time>
      </trkpt>
      <trkpt lat="43.34221" lon="-1.63652">
        <ele>48</ele>
        <time>2026-07-12T20:32:48.000Z</time>
      </trkpt>
      <trkpt lat="43.34224" lon="-1.63644">
        <ele>48</ele>
        <time>2026-07-12T20:32:49.000Z</time>
      </trkpt>
      <trkpt lat="43.34232" lon="-1.63627">
        <ele>47</ele>
        <time>2026-07-12T20:32:52.000Z</time>
      </trkpt>
      <trkpt lat="43.34237" lon="-1.63618">
        <ele>47</ele>
        <time>2026-07-12T20:32:53.000Z</time>
      </trkpt>
      <trkpt lat="43.34242" lon="-1.63607">
        <ele>46</ele>
        <time>2026-07-12T20:32:55.000Z</time>
      </trkpt>
      <trkpt lat="43.34246" lon="-1.63598">
        <ele>46</ele>
        <time>2026-07-12T20:32:56.000Z</time>
      </trkpt>
      <trkpt lat="43.34249" lon="-1.6359">
        <ele>45</ele>
        <time>2026-07-12T20:32:57.000Z</time>
      </trkpt>
      <trkpt lat="43.34255" lon="-1.63575">
        <ele>45</ele>
        <time>2026-07-12T20:33:00.000Z</time>
      </trkpt>
      <trkpt lat="43.34257" lon="-1.63568">
        <ele>44</ele>
        <time>2026-07-12T20:33:01.000Z</time>
      </trkpt>
      <trkpt lat="43.34259" lon="-1.6356">
        <ele>44</ele>
        <time>2026-07-12T20:33:02.000Z</time>
      </trkpt>
      <trkpt lat="43.3426" lon="-1.63552">
        <ele>44</ele>
        <time>2026-07-12T20:33:03.000Z</time>
      </trkpt>
      <trkpt lat="43.34261" lon="-1.63545">
        <ele>43</ele>
        <time>2026-07-12T20:33:04.000Z</time>
      </trkpt>
      <trkpt lat="43.34262" lon="-1.63537">
        <ele>43</ele>
        <time>2026-07-12T20:33:05.000Z</time>
      </trkpt>
      <trkpt lat="43.34263" lon="-1.63529">
        <ele>42</ele>
        <time>2026-07-12T20:33:06.000Z</time>
      </trkpt>
      <trkpt lat="43.34263" lon="-1.63521">
        <ele>42</ele>
        <time>2026-07-12T20:33:07.000Z</time>
      </trkpt>
      <trkpt lat="43.34263" lon="-1.63516">
        <ele>42</ele>
        <time>2026-07-12T20:33:08.000Z</time>
      </trkpt>
      <trkpt lat="43.34263" lon="-1.63512">
        <ele>41</ele>
        <time>2026-07-12T20:33:08.000Z</time>
      </trkpt>
      <trkpt lat="43.34263" lon="-1.63507">
        <ele>41</ele>
        <time>2026-07-12T20:33:09.000Z</time>
      </trkpt>
      <trkpt lat="43.34262" lon="-1.63504">
        <ele>41</ele>
        <time>2026-07-12T20:33:09.000Z</time>
      </trkpt>
      <trkpt lat="43.34261" lon="-1.63495">
        <ele>41</ele>
        <time>2026-07-12T20:33:10.000Z</time>
      </trkpt>
      <trkpt lat="43.3426" lon="-1.6349">
        <ele>40</ele>
        <time>2026-07-12T20:33:11.000Z</time>
      </trkpt>
      <trkpt lat="43.34258" lon="-1.63482">
        <ele>40</ele>
        <time>2026-07-12T20:33:12.000Z</time>
      </trkpt>
      <trkpt lat="43.34258" lon="-1.6348">
        <ele>40</ele>
        <time>2026-07-12T20:33:12.000Z</time>
      </trkpt>
      <trkpt lat="43.34254" lon="-1.63464">
        <ele>40</ele>
        <time>2026-07-12T20:33:14.000Z</time>
      </trkpt>
      <trkpt lat="43.34253" lon="-1.63464">
        <ele>40</ele>
        <time>2026-07-12T20:33:15.000Z</time>
      </trkpt>
      <trkpt lat="43.34248" lon="-1.63448">
        <ele>39</ele>
        <time>2026-07-12T20:33:17.000Z</time>
      </trkpt>
      <trkpt lat="43.34246" lon="-1.63444">
        <ele>39</ele>
        <time>2026-07-12T20:33:18.000Z</time>
      </trkpt>
      <trkpt lat="43.34238" lon="-1.63422">
        <ele>39</ele>
        <time>2026-07-12T20:33:21.000Z</time>
      </trkpt>
      <trkpt lat="43.34233" lon="-1.6341">
        <ele>38</ele>
        <time>2026-07-12T20:33:23.000Z</time>
      </trkpt>
      <trkpt lat="43.3423" lon="-1.63401">
        <ele>38</ele>
        <time>2026-07-12T20:33:24.000Z</time>
      </trkpt>
      <trkpt lat="43.34229" lon="-1.63398">
        <ele>38</ele>
        <time>2026-07-12T20:33:24.000Z</time>
      </trkpt>
      <trkpt lat="43.34228" lon="-1.63395">
        <ele>38</ele>
        <time>2026-07-12T20:33:25.000Z</time>
      </trkpt>
      <trkpt lat="43.34226" lon="-1.63389">
        <ele>37</ele>
        <time>2026-07-12T20:33:26.000Z</time>
      </trkpt>
      <trkpt lat="43.34225" lon="-1.63384">
        <ele>37</ele>
        <time>2026-07-12T20:33:26.000Z</time>
      </trkpt>
      <trkpt lat="43.34224" lon="-1.63382">
        <ele>37</ele>
        <time>2026-07-12T20:33:26.000Z</time>
      </trkpt>
      <trkpt lat="43.34224" lon="-1.63379">
        <ele>37</ele>
        <time>2026-07-12T20:33:27.000Z</time>
      </trkpt>
      <trkpt lat="43.34224" lon="-1.63377">
        <ele>37</ele>
        <time>2026-07-12T20:33:27.000Z</time>
      </trkpt>
      <trkpt lat="43.34224" lon="-1.63374">
        <ele>37</ele>
        <time>2026-07-12T20:33:28.000Z</time>
      </trkpt>
      <trkpt lat="43.34224" lon="-1.63372">
        <ele>37</ele>
        <time>2026-07-12T20:33:28.000Z</time>
      </trkpt>
      <trkpt lat="43.34224" lon="-1.6337">
        <ele>37</ele>
        <time>2026-07-12T20:33:28.000Z</time>
      </trkpt>
      <trkpt lat="43.34224" lon="-1.63367">
        <ele>36</ele>
        <time>2026-07-12T20:33:28.000Z</time>
      </trkpt>
      <trkpt lat="43.34224" lon="-1.63364">
        <ele>36</ele>
        <time>2026-07-12T20:33:29.000Z</time>
      </trkpt>
      <trkpt lat="43.34224" lon="-1.6336">
        <ele>36</ele>
        <time>2026-07-12T20:33:29.000Z</time>
      </trkpt>
      <trkpt lat="43.34225" lon="-1.63356">
        <ele>36</ele>
        <time>2026-07-12T20:33:30.000Z</time>
      </trkpt>
      <trkpt lat="43.34225" lon="-1.63355">
        <ele>36</ele>
        <time>2026-07-12T20:33:30.000Z</time>
      </trkpt>
      <trkpt lat="43.34226" lon="-1.63353">
        <ele>36</ele>
        <time>2026-07-12T20:33:30.000Z</time>
      </trkpt>
      <trkpt lat="43.34226" lon="-1.63352">
        <ele>36</ele>
        <time>2026-07-12T20:33:30.000Z</time>
      </trkpt>
      <trkpt lat="43.34226" lon="-1.6335">
        <ele>36</ele>
        <time>2026-07-12T20:33:31.000Z</time>
      </trkpt>
      <trkpt lat="43.34227" lon="-1.63349">
        <ele>36</ele>
        <time>2026-07-12T20:33:31.000Z</time>
      </trkpt>
      <trkpt lat="43.34227" lon="-1.63347">
        <ele>36</ele>
        <time>2026-07-12T20:33:31.000Z</time>
      </trkpt>
      <trkpt lat="43.34229" lon="-1.63344">
        <ele>36</ele>
        <time>2026-07-12T20:33:32.000Z</time>
      </trkpt>
      <trkpt lat="43.34231" lon="-1.63337">
        <ele>36</ele>
        <time>2026-07-12T20:33:33.000Z</time>
      </trkpt>
      <trkpt lat="43.34234" lon="-1.63329">
        <ele>36</ele>
        <time>2026-07-12T20:33:34.000Z</time>
      </trkpt>
      <trkpt lat="43.34239" lon="-1.63318">
        <ele>36</ele>
        <time>2026-07-12T20:33:36.000Z</time>
      </trkpt>
      <trkpt lat="43.34261" lon="-1.63271">
        <ele>35</ele>
        <time>2026-07-12T20:33:43.000Z</time>
      </trkpt>
      <trkpt lat="43.34263" lon="-1.63266">
        <ele>35</ele>
        <time>2026-07-12T20:33:44.000Z</time>
      </trkpt>
      <trkpt lat="43.34274" lon="-1.63241">
        <ele>35</ele>
        <time>2026-07-12T20:33:47.000Z</time>
      </trkpt>
      <trkpt lat="43.34278" lon="-1.63233">
        <ele>34</ele>
        <time>2026-07-12T20:33:49.000Z</time>
      </trkpt>
      <trkpt lat="43.34284" lon="-1.63217">
        <ele>34</ele>
        <time>2026-07-12T20:33:51.000Z</time>
      </trkpt>
      <trkpt lat="43.34285" lon="-1.63215">
        <ele>34</ele>
        <time>2026-07-12T20:33:51.000Z</time>
      </trkpt>
      <trkpt lat="43.34294" lon="-1.6319">
        <ele>33</ele>
        <time>2026-07-12T20:33:55.000Z</time>
      </trkpt>
      <trkpt lat="43.34296" lon="-1.63184">
        <ele>32</ele>
        <time>2026-07-12T20:33:56.000Z</time>
      </trkpt>
      <trkpt lat="43.34297" lon="-1.6318">
        <ele>32</ele>
        <time>2026-07-12T20:33:56.000Z</time>
      </trkpt>
      <trkpt lat="43.34299" lon="-1.63174">
        <ele>32</ele>
        <time>2026-07-12T20:33:57.000Z</time>
      </trkpt>
      <trkpt lat="43.34304" lon="-1.63153">
        <ele>31</ele>
        <time>2026-07-12T20:34:00.000Z</time>
      </trkpt>
      <trkpt lat="43.3431" lon="-1.63129">
        <ele>30</ele>
        <time>2026-07-12T20:34:03.000Z</time>
      </trkpt>
      <trkpt lat="43.34323" lon="-1.63074">
        <ele>27</ele>
        <time>2026-07-12T20:34:11.000Z</time>
      </trkpt>
      <trkpt lat="43.34324" lon="-1.6307">
        <ele>27</ele>
        <time>2026-07-12T20:34:11.000Z</time>
      </trkpt>
      <trkpt lat="43.34326" lon="-1.63061">
        <ele>26</ele>
        <time>2026-07-12T20:34:12.000Z</time>
      </trkpt>
      <trkpt lat="43.34326" lon="-1.63061">
        <ele>26</ele>
        <time>2026-07-12T20:34:12.000Z</time>
      </trkpt>
      <trkpt lat="43.34333" lon="-1.63065">
        <ele>27</ele>
        <time>2026-07-12T20:34:14.000Z</time>
      </trkpt>
      <trkpt lat="43.34334" lon="-1.63066">
        <ele>27</ele>
        <time>2026-07-12T20:34:14.000Z</time>
      </trkpt>
      <trkpt lat="43.34335" lon="-1.63066">
        <ele>27</ele>
        <time>2026-07-12T20:34:14.000Z</time>
      </trkpt>
      <trkpt lat="43.34335" lon="-1.63067">
        <ele>27</ele>
        <time>2026-07-12T20:34:14.000Z</time>
      </trkpt>
      <trkpt lat="43.34336" lon="-1.63067">
        <ele>27</ele>
        <time>2026-07-12T20:34:14.000Z</time>
      </trkpt>
      <trkpt lat="43.34337" lon="-1.63067">
        <ele>28</ele>
        <time>2026-07-12T20:34:15.000Z</time>
      </trkpt>
      <trkpt lat="43.34337" lon="-1.63068">
        <ele>28</ele>
        <time>2026-07-12T20:34:15.000Z</time>
      </trkpt>
      <trkpt lat="43.34338" lon="-1.63068">
        <ele>28</ele>
        <time>2026-07-12T20:34:15.000Z</time>
      </trkpt>
      <trkpt lat="43.34339" lon="-1.63068">
        <ele>28</ele>
        <time>2026-07-12T20:34:15.000Z</time>
      </trkpt>
      <trkpt lat="43.3434" lon="-1.63068">
        <ele>28</ele>
        <time>2026-07-12T20:34:15.000Z</time>
      </trkpt>
      <trkpt lat="43.34341" lon="-1.63069">
        <ele>28</ele>
        <time>2026-07-12T20:34:16.000Z</time>
      </trkpt>
      <trkpt lat="43.34342" lon="-1.63069">
        <ele>29</ele>
        <time>2026-07-12T20:34:16.000Z</time>
      </trkpt>
      <trkpt lat="43.34343" lon="-1.63069">
        <ele>29</ele>
        <time>2026-07-12T20:34:16.000Z</time>
      </trkpt>
      <trkpt lat="43.34344" lon="-1.63069">
        <ele>29</ele>
        <time>2026-07-12T20:34:16.000Z</time>
      </trkpt>
      <trkpt lat="43.34344" lon="-1.63068">
        <ele>29</ele>
        <time>2026-07-12T20:34:16.000Z</time>
      </trkpt>
      <trkpt lat="43.34345" lon="-1.63068">
        <ele>29</ele>
        <time>2026-07-12T20:34:16.000Z</time>
      </trkpt>
      <trkpt lat="43.34346" lon="-1.63068">
        <ele>29</ele>
        <time>2026-07-12T20:34:17.000Z</time>
      </trkpt>
      <trkpt lat="43.34347" lon="-1.63067">
        <ele>29</ele>
        <time>2026-07-12T20:34:17.000Z</time>
      </trkpt>
      <trkpt lat="43.34347" lon="-1.63067">
        <ele>29</ele>
        <time>2026-07-12T20:34:17.000Z</time>
      </trkpt>
      <trkpt lat="43.34351" lon="-1.63065">
        <ele>29</ele>
        <time>2026-07-12T20:34:18.000Z</time>
      </trkpt>
      <trkpt lat="43.34355" lon="-1.63062">
        <ele>30</ele>
        <time>2026-07-12T20:34:18.000Z</time>
      </trkpt>
      <trkpt lat="43.3436" lon="-1.63058">
        <ele>30</ele>
        <time>2026-07-12T20:34:19.000Z</time>
      </trkpt>
      <trkpt lat="43.34365" lon="-1.63055">
        <ele>30</ele>
        <time>2026-07-12T20:34:20.000Z</time>
      </trkpt>
      <trkpt lat="43.34379" lon="-1.6305">
        <ele>31</ele>
        <time>2026-07-12T20:34:23.000Z</time>
      </trkpt>
      <trkpt lat="43.34395" lon="-1.63049">
        <ele>33</ele>
        <time>2026-07-12T20:34:26.000Z</time>
      </trkpt>
      <trkpt lat="43.34418" lon="-1.63046">
        <ele>35</ele>
        <time>2026-07-12T20:34:30.000Z</time>
      </trkpt>
      <trkpt lat="43.34444" lon="-1.63045">
        <ele>35</ele>
        <time>2026-07-12T20:34:35.000Z</time>
      </trkpt>
      <trkpt lat="43.34474" lon="-1.63044">
        <ele>36</ele>
        <time>2026-07-12T20:34:40.000Z</time>
      </trkpt>
      <trkpt lat="43.34503" lon="-1.63042">
        <ele>35</ele>
        <time>2026-07-12T20:34:45.000Z</time>
      </trkpt>
      <trkpt lat="43.34508" lon="-1.63044">
        <ele>36</ele>
        <time>2026-07-12T20:34:46.000Z</time>
      </trkpt>
      <trkpt lat="43.34512" lon="-1.63045">
        <ele>36</ele>
        <time>2026-07-12T20:34:47.000Z</time>
      </trkpt>
      <trkpt lat="43.34516" lon="-1.63048">
        <ele>36</ele>
        <time>2026-07-12T20:34:47.000Z</time>
      </trkpt>
      <trkpt lat="43.34523" lon="-1.63055">
        <ele>37</ele>
        <time>2026-07-12T20:34:49.000Z</time>
      </trkpt>
      <trkpt lat="43.34532" lon="-1.63065">
        <ele>38</ele>
        <time>2026-07-12T20:34:51.000Z</time>
      </trkpt>
      <trkpt lat="43.34541" lon="-1.63072">
        <ele>38</ele>
        <time>2026-07-12T20:34:53.000Z</time>
      </trkpt>
      <trkpt lat="43.3455" lon="-1.63074">
        <ele>37</ele>
        <time>2026-07-12T20:34:55.000Z</time>
      </trkpt>
      <trkpt lat="43.34557" lon="-1.63071">
        <ele>36</ele>
        <time>2026-07-12T20:34:56.000Z</time>
      </trkpt>
      <trkpt lat="43.34562" lon="-1.63068">
        <ele>35</ele>
        <time>2026-07-12T20:34:57.000Z</time>
      </trkpt>
      <trkpt lat="43.34566" lon="-1.63064">
        <ele>35</ele>
        <time>2026-07-12T20:34:58.000Z</time>
      </trkpt>
      <trkpt lat="43.34569" lon="-1.6306">
        <ele>34</ele>
        <time>2026-07-12T20:34:58.000Z</time>
      </trkpt>
      <trkpt lat="43.34572" lon="-1.63054">
        <ele>34</ele>
        <time>2026-07-12T20:34:59.000Z</time>
      </trkpt>
      <trkpt lat="43.34572" lon="-1.6305">
        <ele>33</ele>
        <time>2026-07-12T20:35:00.000Z</time>
      </trkpt>
      <trkpt lat="43.34573" lon="-1.63047">
        <ele>33</ele>
        <time>2026-07-12T20:35:00.000Z</time>
      </trkpt>
      <trkpt lat="43.34574" lon="-1.63039">
        <ele>33</ele>
        <time>2026-07-12T20:35:01.000Z</time>
      </trkpt>
      <trkpt lat="43.34576" lon="-1.6303">
        <ele>32</ele>
        <time>2026-07-12T20:35:03.000Z</time>
      </trkpt>
      <trkpt lat="43.3458" lon="-1.63026">
        <ele>32</ele>
        <time>2026-07-12T20:35:03.000Z</time>
      </trkpt>
      <trkpt lat="43.34584" lon="-1.63022">
        <ele>32</ele>
        <time>2026-07-12T20:35:04.000Z</time>
      </trkpt>
      <trkpt lat="43.34586" lon="-1.63017">
        <ele>32</ele>
        <time>2026-07-12T20:35:05.000Z</time>
      </trkpt>
      <trkpt lat="43.34588" lon="-1.63015">
        <ele>32</ele>
        <time>2026-07-12T20:35:06.000Z</time>
      </trkpt>
      <trkpt lat="43.3459" lon="-1.63008">
        <ele>32</ele>
        <time>2026-07-12T20:35:07.000Z</time>
      </trkpt>
      <trkpt lat="43.3459" lon="-1.62999">
        <ele>31</ele>
        <time>2026-07-12T20:35:08.000Z</time>
      </trkpt>
      <trkpt lat="43.34589" lon="-1.62989">
        <ele>30</ele>
        <time>2026-07-12T20:35:09.000Z</time>
      </trkpt>
      <trkpt lat="43.34584" lon="-1.62967">
        <ele>28</ele>
        <time>2026-07-12T20:35:12.000Z</time>
      </trkpt>
      <trkpt lat="43.34584" lon="-1.62956">
        <ele>27</ele>
        <time>2026-07-12T20:35:13.000Z</time>
      </trkpt>
      <trkpt lat="43.34587" lon="-1.62948">
        <ele>26</ele>
        <time>2026-07-12T20:35:15.000Z</time>
      </trkpt>
      <trkpt lat="43.3459" lon="-1.62943">
        <ele>26</ele>
        <time>2026-07-12T20:35:15.000Z</time>
      </trkpt>
      <trkpt lat="43.34595" lon="-1.62938">
        <ele>25</ele>
        <time>2026-07-12T20:35:16.000Z</time>
      </trkpt>
      <trkpt lat="43.34598" lon="-1.62931">
        <ele>25</ele>
        <time>2026-07-12T20:35:18.000Z</time>
      </trkpt>
      <trkpt lat="43.34604" lon="-1.62915">
        <ele>23</ele>
        <time>2026-07-12T20:35:20.000Z</time>
      </trkpt>
      <trkpt lat="43.3461" lon="-1.62898">
        <ele>21</ele>
        <time>2026-07-12T20:35:22.000Z</time>
      </trkpt>
      <trkpt lat="43.34618" lon="-1.62882">
        <ele>19</ele>
        <time>2026-07-12T20:35:25.000Z</time>
      </trkpt>
      <trkpt lat="43.34623" lon="-1.62869">
        <ele>17</ele>
        <time>2026-07-12T20:35:27.000Z</time>
      </trkpt>
      <trkpt lat="43.34626" lon="-1.62854">
        <ele>15</ele>
        <time>2026-07-12T20:35:29.000Z</time>
      </trkpt>
      <trkpt lat="43.34628" lon="-1.62839">
        <ele>13</ele>
        <time>2026-07-12T20:35:31.000Z</time>
      </trkpt>
      <trkpt lat="43.34628" lon="-1.62834">
        <ele>13</ele>
        <time>2026-07-12T20:35:31.000Z</time>
      </trkpt>
      <trkpt lat="43.34629" lon="-1.62816">
        <ele>12</ele>
        <time>2026-07-12T20:35:34.000Z</time>
      </trkpt>
      <trkpt lat="43.34631" lon="-1.62786">
        <ele>12</ele>
        <time>2026-07-12T20:35:38.000Z</time>
      </trkpt>
      <trkpt lat="43.34633" lon="-1.62764">
        <ele>12</ele>
        <time>2026-07-12T20:35:40.000Z</time>
      </trkpt>
      <trkpt lat="43.34633" lon="-1.62764">
        <ele>12</ele>
        <time>2026-07-12T20:35:40.000Z</time>
      </trkpt>
      <trkpt lat="43.34633" lon="-1.6275">
        <ele>11</ele>
        <time>2026-07-12T20:35:42.000Z</time>
      </trkpt>
      <trkpt lat="43.34634" lon="-1.62744">
        <ele>11</ele>
        <time>2026-07-12T20:35:43.000Z</time>
      </trkpt>
      <trkpt lat="43.34633" lon="-1.62739">
        <ele>11</ele>
        <time>2026-07-12T20:35:44.000Z</time>
      </trkpt>
      <trkpt lat="43.34632" lon="-1.62729">
        <ele>11</ele>
        <time>2026-07-12T20:35:45.000Z</time>
      </trkpt>
      <trkpt lat="43.34632" lon="-1.62715">
        <ele>11</ele>
        <time>2026-07-12T20:35:47.000Z</time>
      </trkpt>
      <trkpt lat="43.34632" lon="-1.627">
        <ele>11</ele>
        <time>2026-07-12T20:35:49.000Z</time>
      </trkpt>
      <trkpt lat="43.34634" lon="-1.62688">
        <ele>11</ele>
        <time>2026-07-12T20:35:50.000Z</time>
      </trkpt>
      <trkpt lat="43.34635" lon="-1.62685">
        <ele>11</ele>
        <time>2026-07-12T20:35:51.000Z</time>
      </trkpt>
      <trkpt lat="43.34636" lon="-1.62679">
        <ele>11</ele>
        <time>2026-07-12T20:35:52.000Z</time>
      </trkpt>
      <trkpt lat="43.34639" lon="-1.62666">
        <ele>11</ele>
        <time>2026-07-12T20:35:53.000Z</time>
      </trkpt>
      <trkpt lat="43.3464" lon="-1.62648">
        <ele>11</ele>
        <time>2026-07-12T20:35:56.000Z</time>
      </trkpt>
      <trkpt lat="43.34642" lon="-1.62638">
        <ele>12</ele>
        <time>2026-07-12T20:35:57.000Z</time>
      </trkpt>
      <trkpt lat="43.34644" lon="-1.62634">
        <ele>12</ele>
        <time>2026-07-12T20:35:58.000Z</time>
      </trkpt>
      <trkpt lat="43.34646" lon="-1.62631">
        <ele>12</ele>
        <time>2026-07-12T20:35:58.000Z</time>
      </trkpt>
      <trkpt lat="43.34653" lon="-1.62622">
        <ele>11</ele>
        <time>2026-07-12T20:36:00.000Z</time>
      </trkpt>
      <trkpt lat="43.34662" lon="-1.62611">
        <ele>11</ele>
        <time>2026-07-12T20:36:02.000Z</time>
      </trkpt>
      <trkpt lat="43.34677" lon="-1.62588">
        <ele>10</ele>
        <time>2026-07-12T20:36:06.000Z</time>
      </trkpt>
      <trkpt lat="43.34697" lon="-1.62565">
        <ele>10</ele>
        <time>2026-07-12T20:36:11.000Z</time>
      </trkpt>
      <trkpt lat="43.347" lon="-1.62562">
        <ele>10</ele>
        <time>2026-07-12T20:36:11.000Z</time>
      </trkpt>
      <trkpt lat="43.3472" lon="-1.62537">
        <ele>8</ele>
        <time>2026-07-12T20:36:16.000Z</time>
      </trkpt>
      <trkpt lat="43.34742" lon="-1.62509">
        <ele>7</ele>
        <time>2026-07-12T20:36:22.000Z</time>
      </trkpt>
      <trkpt lat="43.34749" lon="-1.62499">
        <ele>6</ele>
        <time>2026-07-12T20:36:23.000Z</time>
      </trkpt>
      <trkpt lat="43.34771" lon="-1.62467">
        <ele>6</ele>
        <time>2026-07-12T20:36:29.000Z</time>
      </trkpt>
      <trkpt lat="43.34771" lon="-1.62467">
        <ele>6</ele>
        <time>2026-07-12T20:36:29.000Z</time>
      </trkpt>
      <trkpt lat="43.34812" lon="-1.6252">
        <ele>5</ele>
        <time>2026-07-12T20:36:39.000Z</time>
      </trkpt>
      <trkpt lat="43.34833" lon="-1.62545">
        <ele>6</ele>
        <time>2026-07-12T20:36:44.000Z</time>
      </trkpt>
      <trkpt lat="43.34868" lon="-1.62558">
        <ele>6</ele>
        <time>2026-07-12T20:36:50.000Z</time>
      </trkpt>
      <trkpt lat="43.34869" lon="-1.62558">
        <ele>6</ele>
        <time>2026-07-12T20:36:51.000Z</time>
      </trkpt>
      <trkpt lat="43.34871" lon="-1.62558">
        <ele>6</ele>
        <time>2026-07-12T20:36:51.000Z</time>
      </trkpt>
      <trkpt lat="43.34872" lon="-1.62559">
        <ele>6</ele>
        <time>2026-07-12T20:36:51.000Z</time>
      </trkpt>
      <trkpt lat="43.34873" lon="-1.62559">
        <ele>6</ele>
        <time>2026-07-12T20:36:51.000Z</time>
      </trkpt>
      <trkpt lat="43.34875" lon="-1.62558">
        <ele>6</ele>
        <time>2026-07-12T20:36:52.000Z</time>
      </trkpt>
      <trkpt lat="43.34876" lon="-1.62558">
        <ele>6</ele>
        <time>2026-07-12T20:36:52.000Z</time>
      </trkpt>
      <trkpt lat="43.34878" lon="-1.62557">
        <ele>6</ele>
        <time>2026-07-12T20:36:52.000Z</time>
      </trkpt>
      <trkpt lat="43.34879" lon="-1.62557">
        <ele>6</ele>
        <time>2026-07-12T20:36:52.000Z</time>
      </trkpt>
      <trkpt lat="43.3488" lon="-1.62556">
        <ele>6</ele>
        <time>2026-07-12T20:36:53.000Z</time>
      </trkpt>
      <trkpt lat="43.34881" lon="-1.62555">
        <ele>6</ele>
        <time>2026-07-12T20:36:53.000Z</time>
      </trkpt>
      <trkpt lat="43.34882" lon="-1.62554">
        <ele>6</ele>
        <time>2026-07-12T20:36:53.000Z</time>
      </trkpt>
      <trkpt lat="43.34883" lon="-1.62553">
        <ele>6</ele>
        <time>2026-07-12T20:36:53.000Z</time>
      </trkpt>
      <trkpt lat="43.34884" lon="-1.62552">
        <ele>6</ele>
        <time>2026-07-12T20:36:54.000Z</time>
      </trkpt>
      <trkpt lat="43.34885" lon="-1.62551">
        <ele>6</ele>
        <time>2026-07-12T20:36:54.000Z</time>
      </trkpt>
      <trkpt lat="43.34885" lon="-1.6255">
        <ele>6</ele>
        <time>2026-07-12T20:36:54.000Z</time>
      </trkpt>
      <trkpt lat="43.34901" lon="-1.62524">
        <ele>6</ele>
        <time>2026-07-12T20:36:58.000Z</time>
      </trkpt>
      <trkpt lat="43.34906" lon="-1.62516">
        <ele>7</ele>
        <time>2026-07-12T20:37:00.000Z</time>
      </trkpt>
      <trkpt lat="43.34906" lon="-1.62516">
        <ele>7</ele>
        <time>2026-07-12T20:37:00.000Z</time>
      </trkpt>
      <trkpt lat="43.34906" lon="-1.62515">
        <ele>7</ele>
        <time>2026-07-12T20:37:00.000Z</time>
      </trkpt>
      <trkpt lat="43.34906" lon="-1.62514">
        <ele>7</ele>
        <time>2026-07-12T20:37:00.000Z</time>
      </trkpt>
      <trkpt lat="43.34906" lon="-1.62513">
        <ele>7</ele>
        <time>2026-07-12T20:37:00.000Z</time>
      </trkpt>
      <trkpt lat="43.34906" lon="-1.62512">
        <ele>7</ele>
        <time>2026-07-12T20:37:00.000Z</time>
      </trkpt>
      <trkpt lat="43.34906" lon="-1.62511">
        <ele>7</ele>
        <time>2026-07-12T20:37:00.000Z</time>
      </trkpt>
      <trkpt lat="43.34907" lon="-1.62511">
        <ele>7</ele>
        <time>2026-07-12T20:37:00.000Z</time>
      </trkpt>
      <trkpt lat="43.34907" lon="-1.6251">
        <ele>7</ele>
        <time>2026-07-12T20:37:01.000Z</time>
      </trkpt>
      <trkpt lat="43.34907" lon="-1.62509">
        <ele>7</ele>
        <time>2026-07-12T20:37:01.000Z</time>
      </trkpt>
      <trkpt lat="43.34908" lon="-1.62509">
        <ele>7</ele>
        <time>2026-07-12T20:37:01.000Z</time>
      </trkpt>
      <trkpt lat="43.34908" lon="-1.62508">
        <ele>7</ele>
        <time>2026-07-12T20:37:01.000Z</time>
      </trkpt>
      <trkpt lat="43.34909" lon="-1.62508">
        <ele>7</ele>
        <time>2026-07-12T20:37:01.000Z</time>
      </trkpt>
      <trkpt lat="43.34909" lon="-1.62507">
        <ele>7</ele>
        <time>2026-07-12T20:37:01.000Z</time>
      </trkpt>
      <trkpt lat="43.3491" lon="-1.62507">
        <ele>7</ele>
        <time>2026-07-12T20:37:02.000Z</time>
      </trkpt>
      <trkpt lat="43.34911" lon="-1.62507">
        <ele>7</ele>
        <time>2026-07-12T20:37:02.000Z</time>
      </trkpt>
      <trkpt lat="43.34912" lon="-1.62507">
        <ele>7</ele>
        <time>2026-07-12T20:37:02.000Z</time>
      </trkpt>
      <trkpt lat="43.34913" lon="-1.62507">
        <ele>7</ele>
        <time>2026-07-12T20:37:02.000Z</time>
      </trkpt>
      <trkpt lat="43.34914" lon="-1.62508">
        <ele>7</ele>
        <time>2026-07-12T20:37:02.000Z</time>
      </trkpt>
      <trkpt lat="43.34915" lon="-1.62508">
        <ele>7</ele>
        <time>2026-07-12T20:37:02.000Z</time>
      </trkpt>
      <trkpt lat="43.34915" lon="-1.62509">
        <ele>7</ele>
        <time>2026-07-12T20:37:03.000Z</time>
      </trkpt>
      <trkpt lat="43.34915" lon="-1.6251">
        <ele>7</ele>
        <time>2026-07-12T20:37:03.000Z</time>
      </trkpt>
      <trkpt lat="43.34916" lon="-1.6251">
        <ele>7</ele>
        <time>2026-07-12T20:37:03.000Z</time>
      </trkpt>
      <trkpt lat="43.34916" lon="-1.62511">
        <ele>7</ele>
        <time>2026-07-12T20:37:03.000Z</time>
      </trkpt>
      <trkpt lat="43.34916" lon="-1.62512">
        <ele>7</ele>
        <time>2026-07-12T20:37:03.000Z</time>
      </trkpt>
      <trkpt lat="43.34917" lon="-1.62512">
        <ele>7</ele>
        <time>2026-07-12T20:37:03.000Z</time>
      </trkpt>
      <trkpt lat="43.34917" lon="-1.62513">
        <ele>7</ele>
        <time>2026-07-12T20:37:03.000Z</time>
      </trkpt>
      <trkpt lat="43.34978" lon="-1.62526">
        <ele>6</ele>
        <time>2026-07-12T20:37:14.000Z</time>
      </trkpt>
      <trkpt lat="43.34993" lon="-1.62529">
        <ele>6</ele>
        <time>2026-07-12T20:37:17.000Z</time>
      </trkpt>
      <trkpt lat="43.35002" lon="-1.6253">
        <ele>6</ele>
        <time>2026-07-12T20:37:19.000Z</time>
      </trkpt>
      <trkpt lat="43.35009" lon="-1.62532">
        <ele>6</ele>
        <time>2026-07-12T20:37:20.000Z</time>
      </trkpt>
      <trkpt lat="43.35012" lon="-1.62532">
        <ele>6</ele>
        <time>2026-07-12T20:37:21.000Z</time>
      </trkpt>
      <trkpt lat="43.35039" lon="-1.62534">
        <ele>6</ele>
        <time>2026-07-12T20:37:25.000Z</time>
      </trkpt>
      <trkpt lat="43.35062" lon="-1.62535">
        <ele>6</ele>
        <time>2026-07-12T20:37:29.000Z</time>
      </trkpt>
      <trkpt lat="43.35067" lon="-1.62535">
        <ele>6</ele>
        <time>2026-07-12T20:37:30.000Z</time>
      </trkpt>
      <trkpt lat="43.35071" lon="-1.62534">
        <ele>6</ele>
        <time>2026-07-12T20:37:31.000Z</time>
      </trkpt>
      <trkpt lat="43.35095" lon="-1.62529">
        <ele>8</ele>
        <time>2026-07-12T20:37:35.000Z</time>
      </trkpt>
      <trkpt lat="43.35116" lon="-1.62524">
        <ele>11</ele>
        <time>2026-07-12T20:37:39.000Z</time>
      </trkpt>
      <trkpt lat="43.35116" lon="-1.62524">
        <ele>11</ele>
        <time>2026-07-12T20:37:39.000Z</time>
      </trkpt>
      <trkpt lat="43.35121" lon="-1.62539">
        <ele>12</ele>
        <time>2026-07-12T20:37:41.000Z</time>
      </trkpt>
      <trkpt lat="43.3513" lon="-1.62562">
        <ele>12</ele>
        <time>2026-07-12T20:37:45.000Z</time>
      </trkpt>
      <trkpt lat="43.35145" lon="-1.62603">
        <ele>12</ele>
        <time>2026-07-12T20:37:51.000Z</time>
      </trkpt>
      <trkpt lat="43.35147" lon="-1.62608">
        <ele>11</ele>
        <time>2026-07-12T20:37:51.000Z</time>
      </trkpt>
      <trkpt lat="43.35157" lon="-1.62632">
        <ele>10</ele>
        <time>2026-07-12T20:37:55.000Z</time>
      </trkpt>
      <trkpt lat="43.3517" lon="-1.62665">
        <ele>8</ele>
        <time>2026-07-12T20:38:00.000Z</time>
      </trkpt>
      <trkpt lat="43.35189" lon="-1.62714">
        <ele>8</ele>
        <time>2026-07-12T20:38:07.000Z</time>
      </trkpt>
      <trkpt lat="43.35207" lon="-1.62758">
        <ele>8</ele>
        <time>2026-07-12T20:38:14.000Z</time>
      </trkpt>
      <trkpt lat="43.35207" lon="-1.62758">
        <ele>8</ele>
        <time>2026-07-12T20:38:14.000Z</time>
      </trkpt>
      <trkpt lat="43.35215" lon="-1.62742">
        <ele>9</ele>
        <time>2026-07-12T20:38:16.000Z</time>
      </trkpt>
      <trkpt lat="43.35226" lon="-1.62719">
        <ele>10</ele>
        <time>2026-07-12T20:38:20.000Z</time>
      </trkpt>
      <trkpt lat="43.3524" lon="-1.62691">
        <ele>12</ele>
        <time>2026-07-12T20:38:24.000Z</time>
      </trkpt>
      <trkpt lat="43.35254" lon="-1.62662">
        <ele>14</ele>
        <time>2026-07-12T20:38:29.000Z</time>
      </trkpt>
      <trkpt lat="43.35263" lon="-1.62647">
        <ele>16</ele>
        <time>2026-07-12T20:38:31.000Z</time>
      </trkpt>
      <trkpt lat="43.35263" lon="-1.62647">
        <ele>16</ele>
        <time>2026-07-12T20:38:31.000Z</time>
      </trkpt>
      <trkpt lat="43.35256" lon="-1.62639">
        <ele>17</ele>
        <time>2026-07-12T20:38:33.000Z</time>
      </trkpt>
      <trkpt lat="43.35252" lon="-1.62635">
        <ele>17</ele>
        <time>2026-07-12T20:38:34.000Z</time>
      </trkpt>
      <trkpt lat="43.35243" lon="-1.62626">
        <ele>17</ele>
        <time>2026-07-12T20:38:36.000Z</time>
      </trkpt>
      <trkpt lat="43.3523" lon="-1.62613">
        <ele>18</ele>
        <time>2026-07-12T20:38:38.000Z</time>
      </trkpt>
      <trkpt lat="43.3523" lon="-1.62613">
        <ele>18</ele>
        <time>2026-07-12T20:38:38.000Z</time>
      </trkpt>
      <trkpt lat="43.35243" lon="-1.62626">
        <ele>17</ele>
        <time>2026-07-12T20:38:41.000Z</time>
      </trkpt>
      <trkpt lat="43.35252" lon="-1.62635">
        <ele>17</ele>
        <time>2026-07-12T20:38:43.000Z</time>
      </trkpt>
      <trkpt lat="43.35256" lon="-1.62639">
        <ele>17</ele>
        <time>2026-07-12T20:38:44.000Z</time>
      </trkpt>
      <trkpt lat="43.35263" lon="-1.62647">
        <ele>16</ele>
        <time>2026-07-12T20:38:46.000Z</time>
      </trkpt>
      <trkpt lat="43.35263" lon="-1.62647">
        <ele>16</ele>
        <time>2026-07-12T20:38:46.000Z</time>
      </trkpt>
      <trkpt lat="43.35254" lon="-1.62662">
        <ele>14</ele>
        <time>2026-07-12T20:38:48.000Z</time>
      </trkpt>
      <trkpt lat="43.3524" lon="-1.62691">
        <ele>12</ele>
        <time>2026-07-12T20:38:53.000Z</time>
      </trkpt>
      <trkpt lat="43.35226" lon="-1.62719">
        <ele>10</ele>
        <time>2026-07-12T20:38:57.000Z</time>
      </trkpt>
      <trkpt lat="43.35215" lon="-1.62742">
        <ele>9</ele>
        <time>2026-07-12T20:39:01.000Z</time>
      </trkpt>
      <trkpt lat="43.35207" lon="-1.62758">
        <ele>8</ele>
        <time>2026-07-12T20:39:03.000Z</time>
      </trkpt>
      <trkpt lat="43.35207" lon="-1.62758">
        <ele>8</ele>
        <time>2026-07-12T20:39:03.000Z</time>
      </trkpt>
      <trkpt lat="43.35221" lon="-1.62797">
        <ele>8</ele>
        <time>2026-07-12T20:39:09.000Z</time>
      </trkpt>
      <trkpt lat="43.35228" lon="-1.62818">
        <ele>7</ele>
        <time>2026-07-12T20:39:12.000Z</time>
      </trkpt>
      <trkpt lat="43.35236" lon="-1.62843">
        <ele>7</ele>
        <time>2026-07-12T20:39:15.000Z</time>
      </trkpt>
      <trkpt lat="43.35244" lon="-1.62867">
        <ele>6</ele>
        <time>2026-07-12T20:39:19.000Z</time>
      </trkpt>
      <trkpt lat="43.35251" lon="-1.62887">
        <ele>6</ele>
        <time>2026-07-12T20:39:22.000Z</time>
      </trkpt>
      <trkpt lat="43.35258" lon="-1.62906">
        <ele>6</ele>
        <time>2026-07-12T20:39:24.000Z</time>
      </trkpt>
      <trkpt lat="43.35263" lon="-1.62918">
        <ele>7</ele>
        <time>2026-07-12T20:39:26.000Z</time>
      </trkpt>
      <trkpt lat="43.35268" lon="-1.6293">
        <ele>6</ele>
        <time>2026-07-12T20:39:28.000Z</time>
      </trkpt>
      <trkpt lat="43.35274" lon="-1.62944">
        <ele>6</ele>
        <time>2026-07-12T20:39:30.000Z</time>
      </trkpt>
      <trkpt lat="43.35284" lon="-1.62963">
        <ele>6</ele>
        <time>2026-07-12T20:39:33.000Z</time>
      </trkpt>
      <trkpt lat="43.35291" lon="-1.62976">
        <ele>6</ele>
        <time>2026-07-12T20:39:35.000Z</time>
      </trkpt>
      <trkpt lat="43.35297" lon="-1.62986">
        <ele>6</ele>
        <time>2026-07-12T20:39:37.000Z</time>
      </trkpt>
      <trkpt lat="43.35302" lon="-1.62992">
        <ele>6</ele>
        <time>2026-07-12T20:39:38.000Z</time>
      </trkpt>
      <trkpt lat="43.3531" lon="-1.63002">
        <ele>6</ele>
        <time>2026-07-12T20:39:40.000Z</time>
      </trkpt>
      <trkpt lat="43.3532" lon="-1.63013">
        <ele>6</ele>
        <time>2026-07-12T20:39:42.000Z</time>
      </trkpt>
      <trkpt lat="43.3533" lon="-1.63025">
        <ele>7</ele>
        <time>2026-07-12T20:39:45.000Z</time>
      </trkpt>
      <trkpt lat="43.35342" lon="-1.63036">
        <ele>7</ele>
        <time>2026-07-12T20:39:47.000Z</time>
      </trkpt>
      <trkpt lat="43.35351" lon="-1.63045">
        <ele>7</ele>
        <time>2026-07-12T20:39:49.000Z</time>
      </trkpt>
      <trkpt lat="43.35366" lon="-1.63058">
        <ele>7</ele>
        <time>2026-07-12T20:39:52.000Z</time>
      </trkpt>
      <trkpt lat="43.35377" lon="-1.63066">
        <ele>7</ele>
        <time>2026-07-12T20:39:55.000Z</time>
      </trkpt>
      <trkpt lat="43.35386" lon="-1.63072">
        <ele>7</ele>
        <time>2026-07-12T20:39:56.000Z</time>
      </trkpt>
      <trkpt lat="43.35395" lon="-1.63077">
        <ele>7</ele>
        <time>2026-07-12T20:39:58.000Z</time>
      </trkpt>
      <trkpt lat="43.35405" lon="-1.63082">
        <ele>7</ele>
        <time>2026-07-12T20:40:00.000Z</time>
      </trkpt>
      <trkpt lat="43.35417" lon="-1.63087">
        <ele>7</ele>
        <time>2026-07-12T20:40:02.000Z</time>
      </trkpt>
      <trkpt lat="43.35426" lon="-1.63091">
        <ele>7</ele>
        <time>2026-07-12T20:40:04.000Z</time>
      </trkpt>
      <trkpt lat="43.35441" lon="-1.63096">
        <ele>6</ele>
        <time>2026-07-12T20:40:07.000Z</time>
      </trkpt>
      <trkpt lat="43.35453" lon="-1.631">
        <ele>6</ele>
        <time>2026-07-12T20:40:09.000Z</time>
      </trkpt>
      <trkpt lat="43.35482" lon="-1.63109">
        <ele>6</ele>
        <time>2026-07-12T20:40:14.000Z</time>
      </trkpt>
      <trkpt lat="43.35512" lon="-1.63118">
        <ele>6</ele>
        <time>2026-07-12T20:40:20.000Z</time>
      </trkpt>
      <trkpt lat="43.35543" lon="-1.63125">
        <ele>5</ele>
        <time>2026-07-12T20:40:25.000Z</time>
      </trkpt>
      <trkpt lat="43.35613" lon="-1.63143">
        <ele>5</ele>
        <time>2026-07-12T20:40:38.000Z</time>
      </trkpt>
      <trkpt lat="43.35647" lon="-1.63155">
        <ele>6</ele>
        <time>2026-07-12T20:40:44.000Z</time>
      </trkpt>
      <trkpt lat="43.35655" lon="-1.63157">
        <ele>6</ele>
        <time>2026-07-12T20:40:45.000Z</time>
      </trkpt>
      <trkpt lat="43.35673" lon="-1.63163">
        <ele>6</ele>
        <time>2026-07-12T20:40:49.000Z</time>
      </trkpt>
      <trkpt lat="43.35697" lon="-1.6317">
        <ele>6</ele>
        <time>2026-07-12T20:40:53.000Z</time>
      </trkpt>
      <trkpt lat="43.35716" lon="-1.63177">
        <ele>7</ele>
        <time>2026-07-12T20:40:57.000Z</time>
      </trkpt>
      <trkpt lat="43.35717" lon="-1.63177">
        <ele>7</ele>
        <time>2026-07-12T20:40:57.000Z</time>
      </trkpt>
      <trkpt lat="43.35736" lon="-1.63185">
        <ele>7</ele>
        <time>2026-07-12T20:41:00.000Z</time>
      </trkpt>
      <trkpt lat="43.35753" lon="-1.63193">
        <ele>7</ele>
        <time>2026-07-12T20:41:04.000Z</time>
      </trkpt>
      <trkpt lat="43.35768" lon="-1.63201">
        <ele>8</ele>
        <time>2026-07-12T20:41:06.000Z</time>
      </trkpt>
      <trkpt lat="43.35781" lon="-1.6321">
        <ele>9</ele>
        <time>2026-07-12T20:41:09.000Z</time>
      </trkpt>
      <trkpt lat="43.35793" lon="-1.6322">
        <ele>9</ele>
        <time>2026-07-12T20:41:12.000Z</time>
      </trkpt>
      <trkpt lat="43.35808" lon="-1.63232">
        <ele>9</ele>
        <time>2026-07-12T20:41:15.000Z</time>
      </trkpt>
      <trkpt lat="43.35825" lon="-1.63247">
        <ele>8</ele>
        <time>2026-07-12T20:41:18.000Z</time>
      </trkpt>
      <trkpt lat="43.35854" lon="-1.63273">
        <ele>9</ele>
        <time>2026-07-12T20:41:24.000Z</time>
      </trkpt>
      <trkpt lat="43.35896" lon="-1.6331">
        <ele>10</ele>
        <time>2026-07-12T20:41:33.000Z</time>
      </trkpt>
      <trkpt lat="43.35908" lon="-1.63322">
        <ele>9</ele>
        <time>2026-07-12T20:41:36.000Z</time>
      </trkpt>
      <trkpt lat="43.3592" lon="-1.63334">
        <ele>8</ele>
        <time>2026-07-12T20:41:39.000Z</time>
      </trkpt>
      <trkpt lat="43.35929" lon="-1.63344">
        <ele>9</ele>
        <time>2026-07-12T20:41:41.000Z</time>
      </trkpt>
      <trkpt lat="43.35936" lon="-1.63353">
        <ele>9</ele>
        <time>2026-07-12T20:41:42.000Z</time>
      </trkpt>
      <trkpt lat="43.35949" lon="-1.63373">
        <ele>9</ele>
        <time>2026-07-12T20:41:46.000Z</time>
      </trkpt>
      <trkpt lat="43.35963" lon="-1.63394">
        <ele>9</ele>
        <time>2026-07-12T20:41:49.000Z</time>
      </trkpt>
      <trkpt lat="43.35977" lon="-1.63416">
        <ele>9</ele>
        <time>2026-07-12T20:41:53.000Z</time>
      </trkpt>
      <trkpt lat="43.3599" lon="-1.63435">
        <ele>8</ele>
        <time>2026-07-12T20:41:57.000Z</time>
      </trkpt>
      <trkpt lat="43.35995" lon="-1.63444">
        <ele>8</ele>
        <time>2026-07-12T20:41:58.000Z</time>
      </trkpt>
      <trkpt lat="43.35996" lon="-1.63448">
        <ele>8</ele>
        <time>2026-07-12T20:41:59.000Z</time>
      </trkpt>
      <trkpt lat="43.36001" lon="-1.6346">
        <ele>8</ele>
        <time>2026-07-12T20:42:00.000Z</time>
      </trkpt>
      <trkpt lat="43.36007" lon="-1.63472">
        <ele>7</ele>
        <time>2026-07-12T20:42:02.000Z</time>
      </trkpt>
      <trkpt lat="43.36012" lon="-1.63486">
        <ele>7</ele>
        <time>2026-07-12T20:42:04.000Z</time>
      </trkpt>
      <trkpt lat="43.36018" lon="-1.635">
        <ele>7</ele>
        <time>2026-07-12T20:42:06.000Z</time>
      </trkpt>
      <trkpt lat="43.36022" lon="-1.63509">
        <ele>6</ele>
        <time>2026-07-12T20:42:08.000Z</time>
      </trkpt>
      <trkpt lat="43.36027" lon="-1.6352">
        <ele>6</ele>
        <time>2026-07-12T20:42:09.000Z</time>
      </trkpt>
      <trkpt lat="43.36033" lon="-1.63531">
        <ele>6</ele>
        <time>2026-07-12T20:42:11.000Z</time>
      </trkpt>
      <trkpt lat="43.36041" lon="-1.63544">
        <ele>6</ele>
        <time>2026-07-12T20:42:13.000Z</time>
      </trkpt>
      <trkpt lat="43.3605" lon="-1.63557">
        <ele>6</ele>
        <time>2026-07-12T20:42:16.000Z</time>
      </trkpt>
      <trkpt lat="43.36059" lon="-1.63568">
        <ele>6</ele>
        <time>2026-07-12T20:42:18.000Z</time>
      </trkpt>
      <trkpt lat="43.36065" lon="-1.63575">
        <ele>6</ele>
        <time>2026-07-12T20:42:19.000Z</time>
      </trkpt>
      <trkpt lat="43.36072" lon="-1.63582">
        <ele>6</ele>
        <time>2026-07-12T20:42:21.000Z</time>
      </trkpt>
      <trkpt lat="43.3608" lon="-1.63589">
        <ele>6</ele>
        <time>2026-07-12T20:42:23.000Z</time>
      </trkpt>
      <trkpt lat="43.3609" lon="-1.63595">
        <ele>5</ele>
        <time>2026-07-12T20:42:24.000Z</time>
      </trkpt>
      <trkpt lat="43.36096" lon="-1.63598">
        <ele>5</ele>
        <time>2026-07-12T20:42:26.000Z</time>
      </trkpt>
      <trkpt lat="43.361" lon="-1.636">
        <ele>5</ele>
        <time>2026-07-12T20:42:26.000Z</time>
      </trkpt>
      <trkpt lat="43.36108" lon="-1.63602">
        <ele>6</ele>
        <time>2026-07-12T20:42:28.000Z</time>
      </trkpt>
      <trkpt lat="43.3613" lon="-1.6361">
        <ele>6</ele>
        <time>2026-07-12T20:42:32.000Z</time>
      </trkpt>
      <trkpt lat="43.36161" lon="-1.63621">
        <ele>6</ele>
        <time>2026-07-12T20:42:38.000Z</time>
      </trkpt>
      <trkpt lat="43.3619" lon="-1.63632">
        <ele>6</ele>
        <time>2026-07-12T20:42:43.000Z</time>
      </trkpt>
      <trkpt lat="43.36216" lon="-1.63643">
        <ele>6</ele>
        <time>2026-07-12T20:42:48.000Z</time>
      </trkpt>
      <trkpt lat="43.36221" lon="-1.63649">
        <ele>6</ele>
        <time>2026-07-12T20:42:49.000Z</time>
      </trkpt>
      <trkpt lat="43.36235" lon="-1.63656">
        <ele>6</ele>
        <time>2026-07-12T20:42:52.000Z</time>
      </trkpt>
      <trkpt lat="43.36245" lon="-1.6366">
        <ele>6</ele>
        <time>2026-07-12T20:42:53.000Z</time>
      </trkpt>
      <trkpt lat="43.36255" lon="-1.63663">
        <ele>6</ele>
        <time>2026-07-12T20:42:55.000Z</time>
      </trkpt>
      <trkpt lat="43.36261" lon="-1.63665">
        <ele>6</ele>
        <time>2026-07-12T20:42:56.000Z</time>
      </trkpt>
      <trkpt lat="43.36268" lon="-1.63666">
        <ele>6</ele>
        <time>2026-07-12T20:42:58.000Z</time>
      </trkpt>
      <trkpt lat="43.36274" lon="-1.63663">
        <ele>6</ele>
        <time>2026-07-12T20:42:59.000Z</time>
      </trkpt>
      <trkpt lat="43.3628" lon="-1.63664">
        <ele>6</ele>
        <time>2026-07-12T20:43:00.000Z</time>
      </trkpt>
      <trkpt lat="43.36285" lon="-1.63665">
        <ele>6</ele>
        <time>2026-07-12T20:43:01.000Z</time>
      </trkpt>
      <trkpt lat="43.36291" lon="-1.63666">
        <ele>7</ele>
        <time>2026-07-12T20:43:02.000Z</time>
      </trkpt>
      <trkpt lat="43.36295" lon="-1.63667">
        <ele>7</ele>
        <time>2026-07-12T20:43:02.000Z</time>
      </trkpt>
      <trkpt lat="43.36301" lon="-1.63667">
        <ele>7</ele>
        <time>2026-07-12T20:43:04.000Z</time>
      </trkpt>
      <trkpt lat="43.36319" lon="-1.63666">
        <ele>7</ele>
        <time>2026-07-12T20:43:07.000Z</time>
      </trkpt>
      <trkpt lat="43.36341" lon="-1.63664">
        <ele>7</ele>
        <time>2026-07-12T20:43:11.000Z</time>
      </trkpt>
      <trkpt lat="43.36355" lon="-1.63662">
        <ele>7</ele>
        <time>2026-07-12T20:43:13.000Z</time>
      </trkpt>
      <trkpt lat="43.36368" lon="-1.63658">
        <ele>7</ele>
        <time>2026-07-12T20:43:16.000Z</time>
      </trkpt>
      <trkpt lat="43.36388" lon="-1.63652">
        <ele>7</ele>
        <time>2026-07-12T20:43:19.000Z</time>
      </trkpt>
      <trkpt lat="43.36402" lon="-1.63647">
        <ele>7</ele>
        <time>2026-07-12T20:43:22.000Z</time>
      </trkpt>
      <trkpt lat="43.36462" lon="-1.63627">
        <ele>5</ele>
        <time>2026-07-12T20:43:33.000Z</time>
      </trkpt>
      <trkpt lat="43.3655" lon="-1.63599">
        <ele>4</ele>
        <time>2026-07-12T20:43:49.000Z</time>
      </trkpt>
      <trkpt lat="43.36559" lon="-1.63598">
        <ele>5</ele>
        <time>2026-07-12T20:43:50.000Z</time>
      </trkpt>
      <trkpt lat="43.36581" lon="-1.63591">
        <ele>5</ele>
        <time>2026-07-12T20:43:54.000Z</time>
      </trkpt>
      <trkpt lat="43.36599" lon="-1.63585">
        <ele>6</ele>
        <time>2026-07-12T20:43:58.000Z</time>
      </trkpt>
      <trkpt lat="43.36616" lon="-1.6358">
        <ele>6</ele>
        <time>2026-07-12T20:44:01.000Z</time>
      </trkpt>
      <trkpt lat="43.36631" lon="-1.63577">
        <ele>7</ele>
        <time>2026-07-12T20:44:04.000Z</time>
      </trkpt>
      <trkpt lat="43.36633" lon="-1.63576">
        <ele>7</ele>
        <time>2026-07-12T20:44:04.000Z</time>
      </trkpt>
      <trkpt lat="43.36636" lon="-1.63576">
        <ele>7</ele>
        <time>2026-07-12T20:44:04.000Z</time>
      </trkpt>
      <trkpt lat="43.36641" lon="-1.63575">
        <ele>7</ele>
        <time>2026-07-12T20:44:05.000Z</time>
      </trkpt>
      <trkpt lat="43.36653" lon="-1.63575">
        <ele>8</ele>
        <time>2026-07-12T20:44:07.000Z</time>
      </trkpt>
      <trkpt lat="43.36668" lon="-1.63574">
        <ele>8</ele>
        <time>2026-07-12T20:44:10.000Z</time>
      </trkpt>
      <trkpt lat="43.36683" lon="-1.63575">
        <ele>8</ele>
        <time>2026-07-12T20:44:13.000Z</time>
      </trkpt>
      <trkpt lat="43.36701" lon="-1.63577">
        <ele>8</ele>
        <time>2026-07-12T20:44:16.000Z</time>
      </trkpt>
      <trkpt lat="43.36717" lon="-1.6358">
        <ele>7</ele>
        <time>2026-07-12T20:44:19.000Z</time>
      </trkpt>
      <trkpt lat="43.36734" lon="-1.63586">
        <ele>7</ele>
        <time>2026-07-12T20:44:22.000Z</time>
      </trkpt>
      <trkpt lat="43.36748" lon="-1.63591">
        <ele>7</ele>
        <time>2026-07-12T20:44:25.000Z</time>
      </trkpt>
      <trkpt lat="43.36756" lon="-1.63595">
        <ele>7</ele>
        <time>2026-07-12T20:44:26.000Z</time>
      </trkpt>
      <trkpt lat="43.36771" lon="-1.63603">
        <ele>6</ele>
        <time>2026-07-12T20:44:29.000Z</time>
      </trkpt>
      <trkpt lat="43.36787" lon="-1.63613">
        <ele>6</ele>
        <time>2026-07-12T20:44:32.000Z</time>
      </trkpt>
      <trkpt lat="43.36809" lon="-1.63627">
        <ele>5</ele>
        <time>2026-07-12T20:44:36.000Z</time>
      </trkpt>
      <trkpt lat="43.36857" lon="-1.63658">
        <ele>4</ele>
        <time>2026-07-12T20:44:46.000Z</time>
      </trkpt>
      <trkpt lat="43.36898" lon="-1.63685">
        <ele>4</ele>
        <time>2026-07-12T20:44:54.000Z</time>
      </trkpt>
      <trkpt lat="43.3703" lon="-1.63771">
        <ele>5</ele>
        <time>2026-07-12T20:45:20.000Z</time>
      </trkpt>
      <trkpt lat="43.37045" lon="-1.6378">
        <ele>6</ele>
        <time>2026-07-12T20:45:23.000Z</time>
      </trkpt>
      <trkpt lat="43.37058" lon="-1.63788">
        <ele>6</ele>
        <time>2026-07-12T20:45:25.000Z</time>
      </trkpt>
      <trkpt lat="43.37067" lon="-1.63793">
        <ele>6</ele>
        <time>2026-07-12T20:45:27.000Z</time>
      </trkpt>
      <trkpt lat="43.37076" lon="-1.63796">
        <ele>6</ele>
        <time>2026-07-12T20:45:29.000Z</time>
      </trkpt>
      <trkpt lat="43.37085" lon="-1.638">
        <ele>6</ele>
        <time>2026-07-12T20:45:30.000Z</time>
      </trkpt>
      <trkpt lat="43.37093" lon="-1.63802">
        <ele>6</ele>
        <time>2026-07-12T20:45:32.000Z</time>
      </trkpt>
      <trkpt lat="43.37099" lon="-1.63803">
        <ele>6</ele>
        <time>2026-07-12T20:45:33.000Z</time>
      </trkpt>
      <trkpt lat="43.37105" lon="-1.63804">
        <ele>5</ele>
        <time>2026-07-12T20:45:34.000Z</time>
      </trkpt>
      <trkpt lat="43.37108" lon="-1.63804">
        <ele>5</ele>
        <time>2026-07-12T20:45:35.000Z</time>
      </trkpt>
      <trkpt lat="43.37111" lon="-1.63805">
        <ele>5</ele>
        <time>2026-07-12T20:45:35.000Z</time>
      </trkpt>
      <trkpt lat="43.37123" lon="-1.63805">
        <ele>5</ele>
        <time>2026-07-12T20:45:37.000Z</time>
      </trkpt>
      <trkpt lat="43.37146" lon="-1.63804">
        <ele>5</ele>
        <time>2026-07-12T20:45:41.000Z</time>
      </trkpt>
      <trkpt lat="43.37189" lon="-1.63801">
        <ele>4</ele>
        <time>2026-07-12T20:45:49.000Z</time>
      </trkpt>
      <trkpt lat="43.37298" lon="-1.63793">
        <ele>3</ele>
        <time>2026-07-12T20:46:08.000Z</time>
      </trkpt>
      <trkpt lat="43.37385" lon="-1.63788">
        <ele>3</ele>
        <time>2026-07-12T20:46:24.000Z</time>
      </trkpt>
      <trkpt lat="43.37395" lon="-1.63785">
        <ele>4</ele>
        <time>2026-07-12T20:46:26.000Z</time>
      </trkpt>
      <trkpt lat="43.37413" lon="-1.63784">
        <ele>4</ele>
        <time>2026-07-12T20:46:29.000Z</time>
      </trkpt>
      <trkpt lat="43.37429" lon="-1.63781">
        <ele>4</ele>
        <time>2026-07-12T20:46:32.000Z</time>
      </trkpt>
      <trkpt lat="43.37451" lon="-1.63777">
        <ele>4</ele>
        <time>2026-07-12T20:46:36.000Z</time>
      </trkpt>
      <trkpt lat="43.37469" lon="-1.63776">
        <ele>4</ele>
        <time>2026-07-12T20:46:39.000Z</time>
      </trkpt>
      <trkpt lat="43.37516" lon="-1.63774">
        <ele>4</ele>
        <time>2026-07-12T20:46:47.000Z</time>
      </trkpt>
      <trkpt lat="43.37522" lon="-1.63774">
        <ele>5</ele>
        <time>2026-07-12T20:46:48.000Z</time>
      </trkpt>
      <trkpt lat="43.37536" lon="-1.63773">
        <ele>5</ele>
        <time>2026-07-12T20:46:51.000Z</time>
      </trkpt>
      <trkpt lat="43.37603" lon="-1.63769">
        <ele>6</ele>
        <time>2026-07-12T20:47:03.000Z</time>
      </trkpt>
      <trkpt lat="43.37615" lon="-1.6377">
        <ele>6</ele>
        <time>2026-07-12T20:47:05.000Z</time>
      </trkpt>
      <trkpt lat="43.3763" lon="-1.63771">
        <ele>6</ele>
        <time>2026-07-12T20:47:08.000Z</time>
      </trkpt>
      <trkpt lat="43.37649" lon="-1.63771">
        <ele>6</ele>
        <time>2026-07-12T20:47:11.000Z</time>
      </trkpt>
      <trkpt lat="43.37654" lon="-1.63774">
        <ele>6</ele>
        <time>2026-07-12T20:47:12.000Z</time>
      </trkpt>
      <trkpt lat="43.37724" lon="-1.6377">
        <ele>8</ele>
        <time>2026-07-12T20:47:24.000Z</time>
      </trkpt>
      <trkpt lat="43.37735" lon="-1.6377">
        <ele>8</ele>
        <time>2026-07-12T20:47:26.000Z</time>
      </trkpt>
      <trkpt lat="43.37746" lon="-1.6377">
        <ele>8</ele>
        <time>2026-07-12T20:47:28.000Z</time>
      </trkpt>
      <trkpt lat="43.3775" lon="-1.6377">
        <ele>8</ele>
        <time>2026-07-12T20:47:29.000Z</time>
      </trkpt>
      <trkpt lat="43.37754" lon="-1.63771">
        <ele>8</ele>
        <time>2026-07-12T20:47:30.000Z</time>
      </trkpt>
      <trkpt lat="43.37756" lon="-1.63772">
        <ele>8</ele>
        <time>2026-07-12T20:47:30.000Z</time>
      </trkpt>
      <trkpt lat="43.37762" lon="-1.63774">
        <ele>8</ele>
        <time>2026-07-12T20:47:31.000Z</time>
      </trkpt>
      <trkpt lat="43.37768" lon="-1.63777">
        <ele>8</ele>
        <time>2026-07-12T20:47:32.000Z</time>
      </trkpt>
      <trkpt lat="43.37774" lon="-1.63781">
        <ele>8</ele>
        <time>2026-07-12T20:47:34.000Z</time>
      </trkpt>
      <trkpt lat="43.37781" lon="-1.63785">
        <ele>8</ele>
        <time>2026-07-12T20:47:35.000Z</time>
      </trkpt>
      <trkpt lat="43.37788" lon="-1.63791">
        <ele>8</ele>
        <time>2026-07-12T20:47:36.000Z</time>
      </trkpt>
      <trkpt lat="43.37796" lon="-1.638">
        <ele>8</ele>
        <time>2026-07-12T20:47:38.000Z</time>
      </trkpt>
      <trkpt lat="43.37803" lon="-1.63806">
        <ele>8</ele>
        <time>2026-07-12T20:47:40.000Z</time>
      </trkpt>
      <trkpt lat="43.37817" lon="-1.6382">
        <ele>8</ele>
        <time>2026-07-12T20:47:43.000Z</time>
      </trkpt>
      <trkpt lat="43.37836" lon="-1.6384">
        <ele>8</ele>
        <time>2026-07-12T20:47:47.000Z</time>
      </trkpt>
      <trkpt lat="43.37864" lon="-1.63869">
        <ele>7</ele>
        <time>2026-07-12T20:47:53.000Z</time>
      </trkpt>
      <trkpt lat="43.37885" lon="-1.63891">
        <ele>6</ele>
        <time>2026-07-12T20:47:58.000Z</time>
      </trkpt>
      <trkpt lat="43.37911" lon="-1.63917">
        <ele>7</ele>
        <time>2026-07-12T20:48:04.000Z</time>
      </trkpt>
      <trkpt lat="43.37951" lon="-1.63955">
        <ele>7</ele>
        <time>2026-07-12T20:48:12.000Z</time>
      </trkpt>
      <trkpt lat="43.37975" lon="-1.63977">
        <ele>8</ele>
        <time>2026-07-12T20:48:18.000Z</time>
      </trkpt>
      <trkpt lat="43.38001" lon="-1.64001">
        <ele>8</ele>
        <time>2026-07-12T20:48:23.000Z</time>
      </trkpt>
      <trkpt lat="43.38026" lon="-1.64024">
        <ele>9</ele>
        <time>2026-07-12T20:48:28.000Z</time>
      </trkpt>
      <trkpt lat="43.3804" lon="-1.64037">
        <ele>9</ele>
        <time>2026-07-12T20:48:31.000Z</time>
      </trkpt>
      <trkpt lat="43.3805" lon="-1.64047">
        <ele>9</ele>
        <time>2026-07-12T20:48:34.000Z</time>
      </trkpt>
      <trkpt lat="43.38056" lon="-1.64055">
        <ele>9</ele>
        <time>2026-07-12T20:48:35.000Z</time>
      </trkpt>
      <trkpt lat="43.38062" lon="-1.64063">
        <ele>9</ele>
        <time>2026-07-12T20:48:37.000Z</time>
      </trkpt>
      <trkpt lat="43.38067" lon="-1.64071">
        <ele>9</ele>
        <time>2026-07-12T20:48:38.000Z</time>
      </trkpt>
      <trkpt lat="43.38071" lon="-1.64078">
        <ele>9</ele>
        <time>2026-07-12T20:48:39.000Z</time>
      </trkpt>
      <trkpt lat="43.38074" lon="-1.64086">
        <ele>8</ele>
        <time>2026-07-12T20:48:40.000Z</time>
      </trkpt>
      <trkpt lat="43.38084" lon="-1.64107">
        <ele>8</ele>
        <time>2026-07-12T20:48:44.000Z</time>
      </trkpt>
      <trkpt lat="43.38094" lon="-1.64129">
        <ele>8</ele>
        <time>2026-07-12T20:48:47.000Z</time>
      </trkpt>
      <trkpt lat="43.38103" lon="-1.6415">
        <ele>7</ele>
        <time>2026-07-12T20:48:50.000Z</time>
      </trkpt>
      <trkpt lat="43.3811" lon="-1.64167">
        <ele>7</ele>
        <time>2026-07-12T20:48:53.000Z</time>
      </trkpt>
      <trkpt lat="43.38116" lon="-1.6418">
        <ele>7</ele>
        <time>2026-07-12T20:48:55.000Z</time>
      </trkpt>
      <trkpt lat="43.38119" lon="-1.64186">
        <ele>7</ele>
        <time>2026-07-12T20:48:56.000Z</time>
      </trkpt>
      <trkpt lat="43.38121" lon="-1.6419">
        <ele>7</ele>
        <time>2026-07-12T20:48:56.000Z</time>
      </trkpt>
      <trkpt lat="43.38126" lon="-1.64198">
        <ele>7</ele>
        <time>2026-07-12T20:48:58.000Z</time>
      </trkpt>
      <trkpt lat="43.38132" lon="-1.64204">
        <ele>7</ele>
        <time>2026-07-12T20:48:59.000Z</time>
      </trkpt>
      <trkpt lat="43.38135" lon="-1.64208">
        <ele>6</ele>
        <time>2026-07-12T20:49:00.000Z</time>
      </trkpt>
      <trkpt lat="43.38139" lon="-1.64212">
        <ele>6</ele>
        <time>2026-07-12T20:49:00.000Z</time>
      </trkpt>
      <trkpt lat="43.38141" lon="-1.64213">
        <ele>7</ele>
        <time>2026-07-12T20:49:01.000Z</time>
      </trkpt>
      <trkpt lat="43.38155" lon="-1.64227">
        <ele>6</ele>
        <time>2026-07-12T20:49:04.000Z</time>
      </trkpt>
      <trkpt lat="43.3817" lon="-1.6424">
        <ele>6</ele>
        <time>2026-07-12T20:49:07.000Z</time>
      </trkpt>
      <trkpt lat="43.38187" lon="-1.64257">
        <ele>5</ele>
        <time>2026-07-12T20:49:11.000Z</time>
      </trkpt>
      <trkpt lat="43.38195" lon="-1.64264">
        <ele>5</ele>
        <time>2026-07-12T20:49:12.000Z</time>
      </trkpt>
      <trkpt lat="43.38203" lon="-1.64271">
        <ele>5</ele>
        <time>2026-07-12T20:49:14.000Z</time>
      </trkpt>
      <trkpt lat="43.38212" lon="-1.6428">
        <ele>5</ele>
        <time>2026-07-12T20:49:16.000Z</time>
      </trkpt>
      <trkpt lat="43.38215" lon="-1.64282">
        <ele>5</ele>
        <time>2026-07-12T20:49:17.000Z</time>
      </trkpt>
      <trkpt lat="43.38219" lon="-1.64286">
        <ele>5</ele>
        <time>2026-07-12T20:49:18.000Z</time>
      </trkpt>
      <trkpt lat="43.38223" lon="-1.64291">
        <ele>5</ele>
        <time>2026-07-12T20:49:19.000Z</time>
      </trkpt>
      <trkpt lat="43.38227" lon="-1.64296">
        <ele>5</ele>
        <time>2026-07-12T20:49:20.000Z</time>
      </trkpt>
      <trkpt lat="43.38231" lon="-1.64301">
        <ele>5</ele>
        <time>2026-07-12T20:49:21.000Z</time>
      </trkpt>
      <trkpt lat="43.38235" lon="-1.64307">
        <ele>5</ele>
        <time>2026-07-12T20:49:22.000Z</time>
      </trkpt>
      <trkpt lat="43.3824" lon="-1.64314">
        <ele>5</ele>
        <time>2026-07-12T20:49:23.000Z</time>
      </trkpt>
      <trkpt lat="43.38243" lon="-1.6432">
        <ele>5</ele>
        <time>2026-07-12T20:49:24.000Z</time>
      </trkpt>
      <trkpt lat="43.38247" lon="-1.64326">
        <ele>5</ele>
        <time>2026-07-12T20:49:25.000Z</time>
      </trkpt>
      <trkpt lat="43.3825" lon="-1.64332">
        <ele>5</ele>
        <time>2026-07-12T20:49:26.000Z</time>
      </trkpt>
      <trkpt lat="43.38254" lon="-1.64342">
        <ele>5</ele>
        <time>2026-07-12T20:49:27.000Z</time>
      </trkpt>
      <trkpt lat="43.3826" lon="-1.64355">
        <ele>6</ele>
        <time>2026-07-12T20:49:29.000Z</time>
      </trkpt>
      <trkpt lat="43.38264" lon="-1.64367">
        <ele>6</ele>
        <time>2026-07-12T20:49:31.000Z</time>
      </trkpt>
      <trkpt lat="43.38267" lon="-1.64378">
        <ele>7</ele>
        <time>2026-07-12T20:49:32.000Z</time>
      </trkpt>
      <trkpt lat="43.38269" lon="-1.64385">
        <ele>7</ele>
        <time>2026-07-12T20:49:33.000Z</time>
      </trkpt>
      <trkpt lat="43.38272" lon="-1.64398">
        <ele>8</ele>
        <time>2026-07-12T20:49:35.000Z</time>
      </trkpt>
      <trkpt lat="43.38273" lon="-1.64407">
        <ele>8</ele>
        <time>2026-07-12T20:49:36.000Z</time>
      </trkpt>
      <trkpt lat="43.38274" lon="-1.64415">
        <ele>8</ele>
        <time>2026-07-12T20:49:37.000Z</time>
      </trkpt>
      <trkpt lat="43.38275" lon="-1.64423">
        <ele>8</ele>
        <time>2026-07-12T20:49:38.000Z</time>
      </trkpt>
      <trkpt lat="43.38276" lon="-1.64431">
        <ele>9</ele>
        <time>2026-07-12T20:49:40.000Z</time>
      </trkpt>
      <trkpt lat="43.38277" lon="-1.64442">
        <ele>9</ele>
        <time>2026-07-12T20:49:41.000Z</time>
      </trkpt>
      <trkpt lat="43.38279" lon="-1.64473">
        <ele>10</ele>
        <time>2026-07-12T20:49:45.000Z</time>
      </trkpt>
      <trkpt lat="43.38281" lon="-1.64501">
        <ele>11</ele>
        <time>2026-07-12T20:49:49.000Z</time>
      </trkpt>
      <trkpt lat="43.38282" lon="-1.64525">
        <ele>10</ele>
        <time>2026-07-12T20:49:52.000Z</time>
      </trkpt>
      <trkpt lat="43.38282" lon="-1.64534">
        <ele>10</ele>
        <time>2026-07-12T20:49:53.000Z</time>
      </trkpt>
      <trkpt lat="43.38282" lon="-1.64568">
        <ele>9</ele>
        <time>2026-07-12T20:49:57.000Z</time>
      </trkpt>
      <trkpt lat="43.38282" lon="-1.64596">
        <ele>8</ele>
        <time>2026-07-12T20:50:01.000Z</time>
      </trkpt>
      <trkpt lat="43.38281" lon="-1.64622">
        <ele>8</ele>
        <time>2026-07-12T20:50:04.000Z</time>
      </trkpt>
      <trkpt lat="43.38277" lon="-1.64667">
        <ele>7</ele>
        <time>2026-07-12T20:50:10.000Z</time>
      </trkpt>
      <trkpt lat="43.38274" lon="-1.64697">
        <ele>7</ele>
        <time>2026-07-12T20:50:14.000Z</time>
      </trkpt>
      <trkpt lat="43.38273" lon="-1.64712">
        <ele>7</ele>
        <time>2026-07-12T20:50:16.000Z</time>
      </trkpt>
      <trkpt lat="43.38271" lon="-1.6473">
        <ele>7</ele>
        <time>2026-07-12T20:50:18.000Z</time>
      </trkpt>
      <trkpt lat="43.38265" lon="-1.64789">
        <ele>9</ele>
        <time>2026-07-12T20:50:26.000Z</time>
      </trkpt>
      <trkpt lat="43.38259" lon="-1.64848">
        <ele>10</ele>
        <time>2026-07-12T20:50:34.000Z</time>
      </trkpt>
      <trkpt lat="43.38255" lon="-1.64888">
        <ele>9</ele>
        <time>2026-07-12T20:50:39.000Z</time>
      </trkpt>
      <trkpt lat="43.38254" lon="-1.64897">
        <ele>9</ele>
        <time>2026-07-12T20:50:40.000Z</time>
      </trkpt>
      <trkpt lat="43.38254" lon="-1.64905">
        <ele>9</ele>
        <time>2026-07-12T20:50:41.000Z</time>
      </trkpt>
      <trkpt lat="43.38254" lon="-1.64913">
        <ele>9</ele>
        <time>2026-07-12T20:50:42.000Z</time>
      </trkpt>
      <trkpt lat="43.38254" lon="-1.64919">
        <ele>9</ele>
        <time>2026-07-12T20:50:43.000Z</time>
      </trkpt>
      <trkpt lat="43.38254" lon="-1.64928">
        <ele>8</ele>
        <time>2026-07-12T20:50:44.000Z</time>
      </trkpt>
      <trkpt lat="43.38254" lon="-1.64936">
        <ele>8</ele>
        <time>2026-07-12T20:50:45.000Z</time>
      </trkpt>
      <trkpt lat="43.38255" lon="-1.64941">
        <ele>8</ele>
        <time>2026-07-12T20:50:46.000Z</time>
      </trkpt>
      <trkpt lat="43.38256" lon="-1.6495">
        <ele>8</ele>
        <time>2026-07-12T20:50:47.000Z</time>
      </trkpt>
      <trkpt lat="43.38258" lon="-1.64958">
        <ele>8</ele>
        <time>2026-07-12T20:50:48.000Z</time>
      </trkpt>
      <trkpt lat="43.3826" lon="-1.64966">
        <ele>8</ele>
        <time>2026-07-12T20:50:49.000Z</time>
      </trkpt>
      <trkpt lat="43.38262" lon="-1.64974">
        <ele>8</ele>
        <time>2026-07-12T20:50:50.000Z</time>
      </trkpt>
      <trkpt lat="43.38267" lon="-1.64988">
        <ele>9</ele>
        <time>2026-07-12T20:50:52.000Z</time>
      </trkpt>
      <trkpt lat="43.38275" lon="-1.65009">
        <ele>9</ele>
        <time>2026-07-12T20:50:55.000Z</time>
      </trkpt>
      <trkpt lat="43.38279" lon="-1.6502">
        <ele>9</ele>
        <time>2026-07-12T20:50:57.000Z</time>
      </trkpt>
      <trkpt lat="43.38302" lon="-1.65083">
        <ele>11</ele>
        <time>2026-07-12T20:51:06.000Z</time>
      </trkpt>
      <trkpt lat="43.38334" lon="-1.65171">
        <ele>12</ele>
        <time>2026-07-12T20:51:19.000Z</time>
      </trkpt>
      <trkpt lat="43.3834" lon="-1.65189">
        <ele>12</ele>
        <time>2026-07-12T20:51:21.000Z</time>
      </trkpt>
      <trkpt lat="43.38345" lon="-1.65194">
        <ele>13</ele>
        <time>2026-07-12T20:51:23.000Z</time>
      </trkpt>
      <trkpt lat="43.38347" lon="-1.65198">
        <ele>13</ele>
        <time>2026-07-12T20:51:23.000Z</time>
      </trkpt>
      <trkpt lat="43.3835" lon="-1.65204">
        <ele>13</ele>
        <time>2026-07-12T20:51:24.000Z</time>
      </trkpt>
      <trkpt lat="43.38354" lon="-1.65211">
        <ele>13</ele>
        <time>2026-07-12T20:51:25.000Z</time>
      </trkpt>
      <trkpt lat="43.38355" lon="-1.65213">
        <ele>13</ele>
        <time>2026-07-12T20:51:26.000Z</time>
      </trkpt>
      <trkpt lat="43.38358" lon="-1.65218">
        <ele>13</ele>
        <time>2026-07-12T20:51:26.000Z</time>
      </trkpt>
      <trkpt lat="43.38363" lon="-1.65226">
        <ele>14</ele>
        <time>2026-07-12T20:51:28.000Z</time>
      </trkpt>
      <trkpt lat="43.3837" lon="-1.65235">
        <ele>14</ele>
        <time>2026-07-12T20:51:29.000Z</time>
      </trkpt>
      <trkpt lat="43.38377" lon="-1.65244">
        <ele>14</ele>
        <time>2026-07-12T20:51:31.000Z</time>
      </trkpt>
      <trkpt lat="43.38384" lon="-1.65251">
        <ele>14</ele>
        <time>2026-07-12T20:51:33.000Z</time>
      </trkpt>
      <trkpt lat="43.38392" lon="-1.65259">
        <ele>14</ele>
        <time>2026-07-12T20:51:34.000Z</time>
      </trkpt>
      <trkpt lat="43.38398" lon="-1.65264">
        <ele>14</ele>
        <time>2026-07-12T20:51:36.000Z</time>
      </trkpt>
      <trkpt lat="43.38404" lon="-1.65268">
        <ele>14</ele>
        <time>2026-07-12T20:51:37.000Z</time>
      </trkpt>
      <trkpt lat="43.38412" lon="-1.65274">
        <ele>14</ele>
        <time>2026-07-12T20:51:39.000Z</time>
      </trkpt>
      <trkpt lat="43.38418" lon="-1.65278">
        <ele>14</ele>
        <time>2026-07-12T20:51:40.000Z</time>
      </trkpt>
      <trkpt lat="43.38418" lon="-1.65278">
        <ele>14</ele>
        <time>2026-07-12T20:51:40.000Z</time>
      </trkpt>
      <trkpt lat="43.38417" lon="-1.65286">
        <ele>13</ele>
        <time>2026-07-12T20:51:41.000Z</time>
      </trkpt>
      <trkpt lat="43.38415" lon="-1.6529">
        <ele>12</ele>
        <time>2026-07-12T20:51:41.000Z</time>
      </trkpt>
      <trkpt lat="43.38406" lon="-1.65316">
        <ele>8</ele>
        <time>2026-07-12T20:51:45.000Z</time>
      </trkpt>
      <trkpt lat="43.38382" lon="-1.65371">
        <ele>5</ele>
        <time>2026-07-12T20:51:53.000Z</time>
      </trkpt>
      <trkpt lat="43.38378" lon="-1.65378">
        <ele>5</ele>
        <time>2026-07-12T20:51:55.000Z</time>
      </trkpt>
      <trkpt lat="43.38376" lon="-1.65382">
        <ele>5</ele>
        <time>2026-07-12T20:51:55.000Z</time>
      </trkpt>
      <trkpt lat="43.38346" lon="-1.65443">
        <ele>5</ele>
        <time>2026-07-12T20:52:05.000Z</time>
      </trkpt>
      <trkpt lat="43.3834" lon="-1.65453">
        <ele>5</ele>
        <time>2026-07-12T20:52:06.000Z</time>
      </trkpt>
      <trkpt lat="43.38339" lon="-1.65455">
        <ele>5</ele>
        <time>2026-07-12T20:52:07.000Z</time>
      </trkpt>
      <trkpt lat="43.38339" lon="-1.65455">
        <ele>5</ele>
        <time>2026-07-12T20:52:07.000Z</time>
      </trkpt>
      <trkpt lat="43.38362" lon="-1.65489">
        <ele>4</ele>
        <time>2026-07-12T20:52:13.000Z</time>
      </trkpt>
      <trkpt lat="43.38362" lon="-1.65491">
        <ele>4</ele>
        <time>2026-07-12T20:52:13.000Z</time>
      </trkpt>
      <trkpt lat="43.38363" lon="-1.65493">
        <ele>4</ele>
        <time>2026-07-12T20:52:13.000Z</time>
      </trkpt>
      <trkpt lat="43.38364" lon="-1.65494">
        <ele>4</ele>
        <time>2026-07-12T20:52:13.000Z</time>
      </trkpt>
      <trkpt lat="43.38364" lon="-1.65496">
        <ele>4</ele>
        <time>2026-07-12T20:52:14.000Z</time>
      </trkpt>
      <trkpt lat="43.38363" lon="-1.65498">
        <ele>4</ele>
        <time>2026-07-12T20:52:14.000Z</time>
      </trkpt>
      <trkpt lat="43.38363" lon="-1.65499">
        <ele>4</ele>
        <time>2026-07-12T20:52:14.000Z</time>
      </trkpt>
      <trkpt lat="43.38363" lon="-1.65501">
        <ele>4</ele>
        <time>2026-07-12T20:52:14.000Z</time>
      </trkpt>
      <trkpt lat="43.38362" lon="-1.65502">
        <ele>4</ele>
        <time>2026-07-12T20:52:15.000Z</time>
      </trkpt>
      <trkpt lat="43.38359" lon="-1.65509">
        <ele>4</ele>
        <time>2026-07-12T20:52:16.000Z</time>
      </trkpt>
      <trkpt lat="43.38352" lon="-1.65518">
        <ele>4</ele>
        <time>2026-07-12T20:52:17.000Z</time>
      </trkpt>
      <trkpt lat="43.38308" lon="-1.65578">
        <ele>3</ele>
        <time>2026-07-12T20:52:28.000Z</time>
      </trkpt>
      <trkpt lat="43.38304" lon="-1.65583">
        <ele>3</ele>
        <time>2026-07-12T20:52:29.000Z</time>
      </trkpt>
      <trkpt lat="43.38299" lon="-1.6559">
        <ele>3</ele>
        <time>2026-07-12T20:52:31.000Z</time>
      </trkpt>
      <trkpt lat="43.38285" lon="-1.65609">
        <ele>3</ele>
        <time>2026-07-12T20:52:34.000Z</time>
      </trkpt>
      <trkpt lat="43.38267" lon="-1.65633">
        <ele>4</ele>
        <time>2026-07-12T20:52:39.000Z</time>
      </trkpt>
      <trkpt lat="43.38246" lon="-1.65661">
        <ele>4</ele>
        <time>2026-07-12T20:52:44.000Z</time>
      </trkpt>
      <trkpt lat="43.3824" lon="-1.6567">
        <ele>4</ele>
        <time>2026-07-12T20:52:45.000Z</time>
      </trkpt>
      <trkpt lat="43.38237" lon="-1.65676">
        <ele>4</ele>
        <time>2026-07-12T20:52:46.000Z</time>
      </trkpt>
      <trkpt lat="43.38235" lon="-1.65683">
        <ele>4</ele>
        <time>2026-07-12T20:52:47.000Z</time>
      </trkpt>
      <trkpt lat="43.38235" lon="-1.65689">
        <ele>4</ele>
        <time>2026-07-12T20:52:48.000Z</time>
      </trkpt>
      <trkpt lat="43.38235" lon="-1.65696">
        <ele>4</ele>
        <time>2026-07-12T20:52:49.000Z</time>
      </trkpt>
      <trkpt lat="43.38236" lon="-1.65703">
        <ele>4</ele>
        <time>2026-07-12T20:52:50.000Z</time>
      </trkpt>
      <trkpt lat="43.38264" lon="-1.65784">
        <ele>4</ele>
        <time>2026-07-12T20:53:02.000Z</time>
      </trkpt>
      <trkpt lat="43.38296" lon="-1.65874">
        <ele>4</ele>
        <time>2026-07-12T20:53:15.000Z</time>
      </trkpt>
      <trkpt lat="43.38303" lon="-1.6589">
        <ele>4</ele>
        <time>2026-07-12T20:53:17.000Z</time>
      </trkpt>
      <trkpt lat="43.38304" lon="-1.65892">
        <ele>4</ele>
        <time>2026-07-12T20:53:17.000Z</time>
      </trkpt>
      <trkpt lat="43.38308" lon="-1.65901">
        <ele>5</ele>
        <time>2026-07-12T20:53:19.000Z</time>
      </trkpt>
      <trkpt lat="43.3831" lon="-1.65904">
        <ele>5</ele>
        <time>2026-07-12T20:53:19.000Z</time>
      </trkpt>
      <trkpt lat="43.38317" lon="-1.65914">
        <ele>5</ele>
        <time>2026-07-12T20:53:21.000Z</time>
      </trkpt>
      <trkpt lat="43.38329" lon="-1.65927">
        <ele>6</ele>
        <time>2026-07-12T20:53:24.000Z</time>
      </trkpt>
      <trkpt lat="43.3833" lon="-1.65926">
        <ele>6</ele>
        <time>2026-07-12T20:53:24.000Z</time>
      </trkpt>
      <trkpt lat="43.38333" lon="-1.65923">
        <ele>6</ele>
        <time>2026-07-12T20:53:25.000Z</time>
      </trkpt>
      <trkpt lat="43.38335" lon="-1.65922">
        <ele>6</ele>
        <time>2026-07-12T20:53:25.000Z</time>
      </trkpt>
      <trkpt lat="43.38337" lon="-1.65922">
        <ele>6</ele>
        <time>2026-07-12T20:53:25.000Z</time>
      </trkpt>
      <trkpt lat="43.38339" lon="-1.65923">
        <ele>6</ele>
        <time>2026-07-12T20:53:26.000Z</time>
      </trkpt>
      <trkpt lat="43.3834" lon="-1.65925">
        <ele>6</ele>
        <time>2026-07-12T20:53:26.000Z</time>
      </trkpt>
      <trkpt lat="43.38342" lon="-1.65929">
        <ele>6</ele>
        <time>2026-07-12T20:53:27.000Z</time>
      </trkpt>
      <trkpt lat="43.38343" lon="-1.65931">
        <ele>6</ele>
        <time>2026-07-12T20:53:27.000Z</time>
      </trkpt>
      <trkpt lat="43.38343" lon="-1.65933">
        <ele>6</ele>
        <time>2026-07-12T20:53:27.000Z</time>
      </trkpt>
      <trkpt lat="43.38343" lon="-1.65935">
        <ele>6</ele>
        <time>2026-07-12T20:53:27.000Z</time>
      </trkpt>
      <trkpt lat="43.38342" lon="-1.65938">
        <ele>6</ele>
        <time>2026-07-12T20:53:28.000Z</time>
      </trkpt>
      <trkpt lat="43.38341" lon="-1.65941">
        <ele>6</ele>
        <time>2026-07-12T20:53:28.000Z</time>
      </trkpt>
      <trkpt lat="43.38358" lon="-1.65973">
        <ele>6</ele>
        <time>2026-07-12T20:53:33.000Z</time>
      </trkpt>
      <trkpt lat="43.38382" lon="-1.66008">
        <ele>5</ele>
        <time>2026-07-12T20:53:40.000Z</time>
      </trkpt>
      <trkpt lat="43.38395" lon="-1.66025">
        <ele>5</ele>
        <time>2026-07-12T20:53:43.000Z</time>
      </trkpt>
      <trkpt lat="43.38424" lon="-1.66064">
        <ele>5</ele>
        <time>2026-07-12T20:53:50.000Z</time>
      </trkpt>
      <trkpt lat="43.38429" lon="-1.66071">
        <ele>5</ele>
        <time>2026-07-12T20:53:51.000Z</time>
      </trkpt>
      <trkpt lat="43.38436" lon="-1.6608">
        <ele>5</ele>
        <time>2026-07-12T20:53:53.000Z</time>
      </trkpt>
      <trkpt lat="43.38446" lon="-1.66092">
        <ele>5</ele>
        <time>2026-07-12T20:53:55.000Z</time>
      </trkpt>
      <trkpt lat="43.38462" lon="-1.66117">
        <ele>5</ele>
        <time>2026-07-12T20:54:00.000Z</time>
      </trkpt>
      <trkpt lat="43.38473" lon="-1.66138">
        <ele>5</ele>
        <time>2026-07-12T20:54:03.000Z</time>
      </trkpt>
      <trkpt lat="43.38481" lon="-1.66156">
        <ele>5</ele>
        <time>2026-07-12T20:54:06.000Z</time>
      </trkpt>
      <trkpt lat="43.38483" lon="-1.66161">
        <ele>5</ele>
        <time>2026-07-12T20:54:06.000Z</time>
      </trkpt>
      <trkpt lat="43.3849" lon="-1.66182">
        <ele>5</ele>
        <time>2026-07-12T20:54:09.000Z</time>
      </trkpt>
      <trkpt lat="43.3849" lon="-1.66182">
        <ele>5</ele>
        <time>2026-07-12T20:54:09.000Z</time>
      </trkpt>
      <trkpt lat="43.38495" lon="-1.66191">
        <ele>5</ele>
        <time>2026-07-12T20:54:11.000Z</time>
      </trkpt>
      <trkpt lat="43.38499" lon="-1.66197">
        <ele>5</ele>
        <time>2026-07-12T20:54:12.000Z</time>
      </trkpt>
      <trkpt lat="43.38501" lon="-1.662">
        <ele>5</ele>
        <time>2026-07-12T20:54:12.000Z</time>
      </trkpt>
      <trkpt lat="43.38503" lon="-1.66202">
        <ele>5</ele>
        <time>2026-07-12T20:54:13.000Z</time>
      </trkpt>
      <trkpt lat="43.38505" lon="-1.66205">
        <ele>4</ele>
        <time>2026-07-12T20:54:13.000Z</time>
      </trkpt>
      <trkpt lat="43.38543" lon="-1.6624">
        <ele>4</ele>
        <time>2026-07-12T20:54:22.000Z</time>
      </trkpt>
      <trkpt lat="43.38562" lon="-1.66259">
        <ele>3</ele>
        <time>2026-07-12T20:54:26.000Z</time>
      </trkpt>
      <trkpt lat="43.38584" lon="-1.6628">
        <ele>2</ele>
        <time>2026-07-12T20:54:31.000Z</time>
      </trkpt>
      <trkpt lat="43.38614" lon="-1.66306">
        <ele>1</ele>
        <time>2026-07-12T20:54:37.000Z</time>
      </trkpt>
      <trkpt lat="43.38622" lon="-1.66311">
        <ele>1</ele>
        <time>2026-07-12T20:54:38.000Z</time>
      </trkpt>
      <trkpt lat="43.38625" lon="-1.66312">
        <ele>1</ele>
        <time>2026-07-12T20:54:39.000Z</time>
      </trkpt>
      <trkpt lat="43.38631" lon="-1.66315">
        <ele>3.8</ele>
        <time>2026-07-12T20:54:40.000Z</time>
      </trkpt>
      <trkpt lat="43.38638" lon="-1.66316">
        <ele>4</ele>
        <time>2026-07-12T20:54:41.000Z</time>
      </trkpt>
      <trkpt lat="43.38645" lon="-1.66316">
        <ele>1</ele>
        <time>2026-07-12T20:54:43.000Z</time>
      </trkpt>
      <trkpt lat="43.38648" lon="-1.66316">
        <ele>1</ele>
        <time>2026-07-12T20:54:43.000Z</time>
      </trkpt>
      <trkpt lat="43.3865" lon="-1.66316">
        <ele>1</ele>
        <time>2026-07-12T20:54:43.000Z</time>
      </trkpt>
      <trkpt lat="43.38655" lon="-1.66317">
        <ele>1</ele>
        <time>2026-07-12T20:54:44.000Z</time>
      </trkpt>
    </trkseg>
  </trk>
</gpx>